<?xml version='1.0' encoding='UTF-8'?><gpx version="1.1" creator="JPX - https://github.com/jenetics/jpx" xmlns="http://www.topografix.com/GPX/1/1"><trk><trkseg><trkpt lat="14.558382848353347" lon="120.99533790930805"><ele>9.000000000000002</ele><time>2026-05-06T06:11:50.001Z</time></trkpt><trkpt lat="14.558320442149169" lon="120.99536446461718"><ele>9.0</ele><time>2026-05-06T06:11:59.001Z</time></trkpt><trkpt lat="14.558269821092013" lon="120.9954075246921"><ele>9.0</ele><time>2026-05-06T06:12:01.001Z</time></trkpt><trkpt lat="14.558270613278932" lon="120.99550521840814"><ele>9.0</ele><time>2026-05-06T06:12:05.001Z</time></trkpt><trkpt lat="14.558244024085973" lon="120.99557734980763"><ele>9.0</ele><time>2026-05-06T06:12:09.001Z</time></trkpt><trkpt lat="14.558181805440643" lon="120.99560777404369"><ele>9.000000000000002</ele><time>2026-05-06T06:12:11.001Z</time></trkpt><trkpt lat="14.558125174760237" lon="120.99563732963193"><ele>9.0</ele><time>2026-05-06T06:12:13.002Z</time></trkpt><trkpt lat="14.558044149556247" lon="120.99568640473133"><ele>9.0</ele><time>2026-05-06T06:12:16.039Z</time></trkpt><trkpt lat="14.557889633707715" lon="120.99569357059227"><ele>9.0</ele><time>2026-05-06T06:12:20.034Z</time></trkpt><trkpt lat="14.557813287347177" lon="120.99567238929869"><ele>9.0</ele><time>2026-05-06T06:12:23.033Z</time></trkpt><trkpt lat="14.557741593933098" lon="120.99566993507418"><ele>9.0</ele><time>2026-05-06T06:12:26.031Z</time></trkpt><trkpt lat="14.558245266694101" lon="120.99593684427397"><ele>9.0</ele><time>2026-05-06T06:13:18.002Z</time></trkpt><trkpt lat="14.558152332304646" lon="120.99581281833271"><ele>9.0</ele><time>2026-05-06T06:13:19.002Z</time></trkpt><trkpt lat="14.55815466833647" lon="120.9959687679412"><ele>9.0</ele><time>2026-05-06T06:13:20.002Z</time></trkpt><trkpt lat="14.558165774300122" lon="120.99607565095405"><ele>9.0</ele><time>2026-05-06T06:13:22.002Z</time></trkpt><trkpt lat="14.558224272175249" lon="120.99613685999356"><ele>9.0</ele><time>2026-05-06T06:13:25.002Z</time></trkpt><trkpt lat="14.558259542917606" lon="120.99621290051225"><ele>9.0</ele><time>2026-05-06T06:13:30.001Z</time></trkpt><trkpt lat="14.558360288642762" lon="120.99623603666"><ele>9.0</ele><time>2026-05-06T06:13:32.001Z</time></trkpt><trkpt lat="14.558441079790267" lon="120.9961939114019"><ele>9.0</ele><time>2026-05-06T06:13:33.001Z</time></trkpt><trkpt lat="14.558528519050762" lon="120.99616235088635"><ele>9.0</ele><time>2026-05-06T06:13:34Z</time></trkpt><trkpt lat="14.558591295998246" lon="120.99613663865244"><ele>9.0</ele><time>2026-05-06T06:13:35Z</time></trkpt><trkpt lat="14.55867301034961" lon="120.99612491239533"><ele>9.0</ele><time>2026-05-06T06:13:36Z</time></trkpt><trkpt lat="14.55874918985203" lon="120.99610985169991"><ele>9.0</ele><time>2026-05-06T06:13:37Z</time></trkpt><trkpt lat="14.55884679838718" lon="120.99609602025414"><ele>9.0</ele><time>2026-05-06T06:13:38Z</time></trkpt><trkpt lat="14.55895802317671" lon="120.99608433749137"><ele>9.0</ele><time>2026-05-06T06:13:39Z</time></trkpt><trkpt lat="14.559068720841674" lon="120.99606915224962"><ele>9.0</ele><time>2026-05-06T06:13:40Z</time></trkpt><trkpt lat="14.559171990681344" lon="120.99603953945507"><ele>9.0</ele><time>2026-05-06T06:13:41Z</time></trkpt><trkpt lat="14.559283960659522" lon="120.99601250806228"><ele>9.0</ele><time>2026-05-06T06:13:42Z</time></trkpt><trkpt lat="14.559391400208144" lon="120.99599142443543"><ele>9.0</ele><time>2026-05-06T06:13:43Z</time></trkpt><trkpt lat="14.55949675828035" lon="120.99596366827052"><ele>9.0</ele><time>2026-05-06T06:13:44Z</time></trkpt><trkpt lat="14.559604319151202" lon="120.99593959860444"><ele>9.0</ele><time>2026-05-06T06:13:45Z</time></trkpt><trkpt lat="14.559701765242588" lon="120.99591097413467"><ele>8.8</ele><time>2026-05-06T06:13:46Z</time></trkpt><trkpt lat="14.559785365463522" lon="120.99587790141753"><ele>8.600000000000001</ele><time>2026-05-06T06:13:47Z</time></trkpt><trkpt lat="14.559875022334172" lon="120.99585265471677"><ele>8.4</ele><time>2026-05-06T06:13:48Z</time></trkpt><trkpt lat="14.559964710597662" lon="120.99584268567095"><ele>8.200000000000001</ele><time>2026-05-06T06:13:49Z</time></trkpt><trkpt lat="14.56005199697026" lon="120.99583287878833"><ele>8.0</ele><time>2026-05-06T06:13:50Z</time></trkpt><trkpt lat="14.56014260355502" lon="120.99581582926493"><ele>7.833333333333333</ele><time>2026-05-06T06:13:51Z</time></trkpt><trkpt lat="14.560222640419619" lon="120.99579279574927"><ele>7.666666666666666</ele><time>2026-05-06T06:13:52Z</time></trkpt><trkpt lat="14.560301564930532" lon="120.99577343974263"><ele>7.5</ele><time>2026-05-06T06:13:53Z</time></trkpt><trkpt lat="14.560388406192043" lon="120.99575624389004"><ele>7.333333333333334</ele><time>2026-05-06T06:13:54Z</time></trkpt><trkpt lat="14.560489858950394" lon="120.99573186820334"><ele>7.166666666666667</ele><time>2026-05-06T06:13:55Z</time></trkpt><trkpt lat="14.560575106450834" lon="120.99571294815314"><ele>7.0</ele><time>2026-05-06T06:13:56Z</time></trkpt><trkpt lat="14.56067566383333" lon="120.99568589512702"><ele>7.0</ele><time>2026-05-06T06:13:57Z</time></trkpt><trkpt lat="14.560756210395182" lon="120.9956594650653"><ele>6.999999999999999</ele><time>2026-05-06T06:13:58Z</time></trkpt><trkpt lat="14.5608491360185" lon="120.99563871853589"><ele>6.999999999999999</ele><time>2026-05-06T06:13:59Z</time></trkpt><trkpt lat="14.560947575340675" lon="120.99561771280108"><ele>7.0</ele><time>2026-05-06T06:14:00Z</time></trkpt><trkpt lat="14.561031734151875" lon="120.99559830518959"><ele>7.0</ele><time>2026-05-06T06:14:01Z</time></trkpt><trkpt lat="14.56111866752863" lon="120.99557969207524"><ele>7.3999999999999995</ele><time>2026-05-06T06:14:02Z</time></trkpt><trkpt lat="14.56121049798003" lon="120.99556382517956"><ele>7.799999999999999</ele><time>2026-05-06T06:14:03Z</time></trkpt><trkpt lat="14.561300344722696" lon="120.99554727513475"><ele>8.2</ele><time>2026-05-06T06:14:04Z</time></trkpt><trkpt lat="14.561394780704617" lon="120.99553474392022"><ele>8.6</ele><time>2026-05-06T06:14:05Z</time></trkpt><trkpt lat="14.561519598304296" lon="120.99549313810502"><ele>9.0</ele><time>2026-05-06T06:14:06Z</time></trkpt><trkpt lat="14.56164242116405" lon="120.99546453015606"><ele>9.0</ele><time>2026-05-06T06:14:07Z</time></trkpt><trkpt lat="14.561771723376204" lon="120.99542801490702"><ele>9.0</ele><time>2026-05-06T06:14:08Z</time></trkpt><trkpt lat="14.56189075096837" lon="120.99539456361919"><ele>9.0</ele><time>2026-05-06T06:14:09Z</time></trkpt><trkpt lat="14.5619922347004" lon="120.99536816334147"><ele>9.0</ele><time>2026-05-06T06:14:10Z</time></trkpt><trkpt lat="14.562091432980765" lon="120.9953485054202"><ele>9.166666666666666</ele><time>2026-05-06T06:14:11Z</time></trkpt><trkpt lat="14.562180550010485" lon="120.99531882224693"><ele>9.333333333333334</ele><time>2026-05-06T06:14:12Z</time></trkpt><trkpt lat="14.56225893015447" lon="120.99529978388301"><ele>9.5</ele><time>2026-05-06T06:14:13Z</time></trkpt><trkpt lat="14.562325478080792" lon="120.9952875702834"><ele>9.666666666666668</ele><time>2026-05-06T06:14:14Z</time></trkpt><trkpt lat="14.562398097986419" lon="120.99527800398222"><ele>9.833333333333334</ele><time>2026-05-06T06:14:16Z</time></trkpt><trkpt lat="14.562471527379325" lon="120.99525888219725"><ele>10.0</ele><time>2026-05-06T06:14:20Z</time></trkpt><trkpt lat="14.562581672956423" lon="120.99525318496944"><ele>10.0</ele><time>2026-05-06T06:15:05Z</time></trkpt><trkpt lat="14.562650009311044" lon="120.99534145916265"><ele>10.0</ele><time>2026-05-06T06:15:06Z</time></trkpt><trkpt lat="14.562732433556484" lon="120.99543353838212"><ele>10.0</ele><time>2026-05-06T06:15:08Z</time></trkpt><trkpt lat="14.56276918115974" lon="120.99551682931575"><ele>10.0</ele><time>2026-05-06T06:15:09Z</time></trkpt><trkpt lat="14.562788778865677" lon="120.99559875679984"><ele>10.0</ele><time>2026-05-06T06:15:10Z</time></trkpt><trkpt lat="14.562867951176356" lon="120.99571118642996"><ele>9.833333333333334</ele><time>2026-05-06T06:15:12Z</time></trkpt><trkpt lat="14.56290178780246" lon="120.99578039508842"><ele>9.666666666666668</ele><time>2026-05-06T06:15:13.001Z</time></trkpt><trkpt lat="14.562928508830161" lon="120.99584589722843"><ele>9.5</ele><time>2026-05-06T06:15:14.001Z</time></trkpt><trkpt lat="14.562986307175285" lon="120.9959678354473"><ele>9.333333333333334</ele><time>2026-05-06T06:15:16.001Z</time></trkpt><trkpt lat="14.563023508383544" lon="120.99603729517602"><ele>9.166666666666666</ele><time>2026-05-06T06:15:17.001Z</time></trkpt><trkpt lat="14.563060932657274" lon="120.99610683050025"><ele>9.0</ele><time>2026-05-06T06:15:18.001Z</time></trkpt><trkpt lat="14.563105275755415" lon="120.99619072017707"><ele>9.0</ele><time>2026-05-06T06:15:19.001Z</time></trkpt><trkpt lat="14.563143630570114" lon="120.99627830681301"><ele>9.0</ele><time>2026-05-06T06:15:20.001Z</time></trkpt><trkpt lat="14.563172794745013" lon="120.99636389592251"><ele>9.0</ele><time>2026-05-06T06:15:21.001Z</time></trkpt><trkpt lat="14.563215954735222" lon="120.99645488808916"><ele>9.0</ele><time>2026-05-06T06:15:22.001Z</time></trkpt><trkpt lat="14.563252747386821" lon="120.99654163737561"><ele>9.0</ele><time>2026-05-06T06:15:23.001Z</time></trkpt><trkpt lat="14.56328857034318" lon="120.99663556227152"><ele>8.6</ele><time>2026-05-06T06:15:24.001Z</time></trkpt><trkpt lat="14.563325026934502" lon="120.9967206185917"><ele>8.2</ele><time>2026-05-06T06:15:25.001Z</time></trkpt><trkpt lat="14.56335491398395" lon="120.99678912863278"><ele>7.799999999999999</ele><time>2026-05-06T06:15:26.001Z</time></trkpt><trkpt lat="14.563400846418235" lon="120.99690002581373"><ele>7.3999999999999995</ele><time>2026-05-06T06:15:28.001Z</time></trkpt><trkpt lat="14.56342602282876" lon="120.9969649275328"><ele>7.0</ele><time>2026-05-06T06:15:29.001Z</time></trkpt><trkpt lat="14.563486117533667" lon="120.99707361604268"><ele>7.000000000000001</ele><time>2026-05-06T06:15:31.001Z</time></trkpt><trkpt lat="14.563526218731216" lon="120.99716925572751"><ele>7.0</ele><time>2026-05-06T06:15:33Z</time></trkpt><trkpt lat="14.56355006285343" lon="120.99722999484075"><ele>7.0</ele><time>2026-05-06T06:15:35Z</time></trkpt><trkpt lat="14.563579528149159" lon="120.99730261928012"><ele>7.0</ele><time>2026-05-06T06:15:39Z</time></trkpt><trkpt lat="14.563615149591465" lon="120.99738201944432"><ele>7.000000000000001</ele><time>2026-05-06T06:15:54Z</time></trkpt><trkpt lat="14.563653337628642" lon="120.99746580119975"><ele>7.0</ele><time>2026-05-06T06:15:56Z</time></trkpt><trkpt lat="14.563717260859548" lon="120.99757538576223"><ele>7.000000000000001</ele><time>2026-05-06T06:15:58Z</time></trkpt><trkpt lat="14.563766754228935" lon="120.99770279160415"><ele>7.0</ele><time>2026-05-06T06:16:00Z</time></trkpt><trkpt lat="14.56380216410209" lon="120.9977667194277"><ele>7.0</ele><time>2026-05-06T06:16:01Z</time></trkpt><trkpt lat="14.563836852590532" lon="120.99782683287884"><ele>7.0</ele><time>2026-05-06T06:16:02Z</time></trkpt><trkpt lat="14.563863845350827" lon="120.99788863599605"><ele>7.000000000000001</ele><time>2026-05-06T06:16:03Z</time></trkpt><trkpt lat="14.563905909100265" lon="120.99798490188661"><ele>7.0</ele><time>2026-05-06T06:16:05Z</time></trkpt><trkpt lat="14.563945916600916" lon="120.99807781364403"><ele>7.000000000000001</ele><time>2026-05-06T06:16:07Z</time></trkpt><trkpt lat="14.563974294222184" lon="120.99813814234284"><ele>7.0</ele><time>2026-05-06T06:16:09Z</time></trkpt><trkpt lat="14.563993104961371" lon="120.99820270800622"><ele>7.0</ele><time>2026-05-06T06:16:11Z</time></trkpt><trkpt lat="14.564027930800382" lon="120.99826118509799"><ele>7.0</ele><time>2026-05-06T06:16:13Z</time></trkpt><trkpt lat="14.563932301825007" lon="120.99832278354029"><ele>7.000000000000001</ele><time>2026-05-06T06:16:15Z</time></trkpt><trkpt lat="14.563810442549874" lon="120.99832138468688"><ele>7.0</ele><time>2026-05-06T06:16:17Z</time></trkpt><trkpt lat="14.563736860010792" lon="120.99833870121684"><ele>7.0</ele><time>2026-05-06T06:16:18Z</time></trkpt><trkpt lat="14.563656917083794" lon="120.99836950631492"><ele>6.999999999999999</ele><time>2026-05-06T06:16:19Z</time></trkpt><trkpt lat="14.563570377277397" lon="120.99840016326209"><ele>6.999999999999999</ele><time>2026-05-06T06:16:20Z</time></trkpt><trkpt lat="14.563476319652306" lon="120.9984270755946"><ele>7.0</ele><time>2026-05-06T06:16:21Z</time></trkpt><trkpt lat="14.563377751707243" lon="120.9984550900144"><ele>7.0</ele><time>2026-05-06T06:16:22Z</time></trkpt><trkpt lat="14.563275643937759" lon="120.99848482838124"><ele>7.0</ele><time>2026-05-06T06:16:23Z</time></trkpt><trkpt lat="14.563172120618255" lon="120.99851157103721"><ele>6.999999999999999</ele><time>2026-05-06T06:16:24Z</time></trkpt><trkpt lat="14.563069932337168" lon="120.9985459695836"><ele>6.999999999999999</ele><time>2026-05-06T06:16:25Z</time></trkpt><trkpt lat="14.562965385020732" lon="120.9985901380572"><ele>7.0</ele><time>2026-05-06T06:16:26Z</time></trkpt><trkpt lat="14.562862241095925" lon="120.99863170879922"><ele>7.0</ele><time>2026-05-06T06:16:27Z</time></trkpt><trkpt lat="14.562755194601367" lon="120.9986617382629"><ele>7.3999999999999995</ele><time>2026-05-06T06:16:28Z</time></trkpt><trkpt lat="14.562648012951833" lon="120.99869164303391"><ele>7.799999999999999</ele><time>2026-05-06T06:16:29Z</time></trkpt><trkpt lat="14.562543529044197" lon="120.99873185128037"><ele>8.2</ele><time>2026-05-06T06:16:30Z</time></trkpt><trkpt lat="14.562451662951046" lon="120.99876665670566"><ele>8.6</ele><time>2026-05-06T06:16:31Z</time></trkpt><trkpt lat="14.562367197235094" lon="120.99880308043598"><ele>9.0</ele><time>2026-05-06T06:16:32Z</time></trkpt><trkpt lat="14.56229075470974" lon="120.99883653290465"><ele>9.0</ele><time>2026-05-06T06:16:33Z</time></trkpt><trkpt lat="14.562224365817167" lon="120.99886550763803"><ele>9.0</ele><time>2026-05-06T06:16:34Z</time></trkpt><trkpt lat="14.562165430280766" lon="120.99889202777385"><ele>9.0</ele><time>2026-05-06T06:16:35Z</time></trkpt><trkpt lat="14.562084886325794" lon="120.99894599101115"><ele>9.0</ele><time>2026-05-06T06:16:37Z</time></trkpt><trkpt lat="14.562017561869387" lon="120.9989755361446"><ele>9.0</ele><time>2026-05-06T06:16:39Z</time></trkpt><trkpt lat="14.561970988465253" lon="120.99904806968685"><ele>9.0</ele><time>2026-05-06T06:16:42Z</time></trkpt><trkpt lat="14.56208441921044" lon="120.99917486025518"><ele>8.833333333333334</ele><time>2026-05-06T06:16:45Z</time></trkpt><trkpt lat="14.5621417849086" lon="120.99922458650353"><ele>8.666666666666666</ele><time>2026-05-06T06:16:46Z</time></trkpt><trkpt lat="14.562204368465295" lon="120.99928275986504"><ele>8.5</ele><time>2026-05-06T06:16:47Z</time></trkpt><trkpt lat="14.562266784510117" lon="120.99934630505786"><ele>8.333333333333332</ele><time>2026-05-06T06:16:48Z</time></trkpt><trkpt lat="14.562328231004887" lon="120.99941673812508"><ele>8.166666666666666</ele><time>2026-05-06T06:16:49Z</time></trkpt><trkpt lat="14.562392276688554" lon="120.99949247272669"><ele>8.0</ele><time>2026-05-06T06:16:50Z</time></trkpt><trkpt lat="14.562464236501464" lon="120.99955910872339"><ele>8.0</ele><time>2026-05-06T06:16:51Z</time></trkpt><trkpt lat="14.56253601050264" lon="120.99962936584467"><ele>8.0</ele><time>2026-05-06T06:16:52Z</time></trkpt><trkpt lat="14.562616042149886" lon="120.99969779713304"><ele>8.0</ele><time>2026-05-06T06:16:53Z</time></trkpt><trkpt lat="14.562694070521534" lon="120.99977792284184"><ele>8.0</ele><time>2026-05-06T06:16:54Z</time></trkpt><trkpt lat="14.56273590465313" lon="120.99983979166615"><ele>8.0</ele><time>2026-05-06T06:16:55Z</time></trkpt><trkpt lat="14.562843498546592" lon="120.99991528977598"><ele>7.800000000000001</ele><time>2026-05-06T06:16:57Z</time></trkpt><trkpt lat="14.562898964912007" lon="120.99997774295619"><ele>7.6000000000000005</ele><time>2026-05-06T06:16:58Z</time></trkpt><trkpt lat="14.56295886065945" lon="121.00005514731089"><ele>7.3999999999999995</ele><time>2026-05-06T06:16:59Z</time></trkpt><trkpt lat="14.56302046086769" lon="121.00013650232957"><ele>7.199999999999999</ele><time>2026-05-06T06:17:00Z</time></trkpt><trkpt lat="14.563084612009717" lon="121.0002015454243"><ele>7.0</ele><time>2026-05-06T06:17:01Z</time></trkpt><trkpt lat="14.563161848812143" lon="121.00027725379364"><ele>7.0</ele><time>2026-05-06T06:17:02Z</time></trkpt><trkpt lat="14.563245447922517" lon="121.00035248166498"><ele>6.999999999999999</ele><time>2026-05-06T06:17:03Z</time></trkpt><trkpt lat="14.56332511586256" lon="121.00042340409459"><ele>6.999999999999999</ele><time>2026-05-06T06:17:04Z</time></trkpt><trkpt lat="14.563401269557248" lon="121.00050035300882"><ele>7.0</ele><time>2026-05-06T06:17:05Z</time></trkpt><trkpt lat="14.563481303281867" lon="121.0005850009592"><ele>7.0</ele><time>2026-05-06T06:17:06Z</time></trkpt><trkpt lat="14.563557769054423" lon="121.00065735435746"><ele>7.000000000000001</ele><time>2026-05-06T06:17:07Z</time></trkpt><trkpt lat="14.563624320812652" lon="121.0007247345349"><ele>7.0</ele><time>2026-05-06T06:17:08Z</time></trkpt><trkpt lat="14.563683671741167" lon="121.00078265310094"><ele>7.0</ele><time>2026-05-06T06:17:09Z</time></trkpt><trkpt lat="14.563741616153811" lon="121.00084535488512"><ele>7.0</ele><time>2026-05-06T06:17:10Z</time></trkpt><trkpt lat="14.563803464721191" lon="121.00089897917586"><ele>7.000000000000001</ele><time>2026-05-06T06:17:11Z</time></trkpt><trkpt lat="14.563858900089045" lon="121.00095059454803"><ele>7.0</ele><time>2026-05-06T06:17:12Z</time></trkpt><trkpt lat="14.563915160310424" lon="121.00100336454508"><ele>7.199999999999999</ele><time>2026-05-06T06:17:13Z</time></trkpt><trkpt lat="14.563972962465614" lon="121.00106481913299"><ele>7.3999999999999995</ele><time>2026-05-06T06:17:14Z</time></trkpt><trkpt lat="14.564031037895367" lon="121.00113536298448"><ele>7.6000000000000005</ele><time>2026-05-06T06:17:15Z</time></trkpt><trkpt lat="14.564094815959555" lon="121.00120050960831"><ele>7.800000000000001</ele><time>2026-05-06T06:17:16Z</time></trkpt><trkpt lat="14.564159879988251" lon="121.00127457415317"><ele>8.0</ele><time>2026-05-06T06:17:17Z</time></trkpt><trkpt lat="14.564235110269843" lon="121.00134471365031"><ele>8.0</ele><time>2026-05-06T06:17:18Z</time></trkpt><trkpt lat="14.564312100792684" lon="121.00141227078002"><ele>8.0</ele><time>2026-05-06T06:17:19Z</time></trkpt><trkpt lat="14.564378302779916" lon="121.00147237392497"><ele>8.0</ele><time>2026-05-06T06:17:20Z</time></trkpt><trkpt lat="14.564439400078875" lon="121.00153638277347"><ele>8.0</ele><time>2026-05-06T06:17:21.001Z</time></trkpt><trkpt lat="14.564512973360308" lon="121.00159830018761"><ele>8.0</ele><time>2026-05-06T06:17:22.001Z</time></trkpt><trkpt lat="14.564583738703261" lon="121.00166048899588"><ele>7.6000000000000005</ele><time>2026-05-06T06:17:23.001Z</time></trkpt><trkpt lat="14.564645584538368" lon="121.00171790266297"><ele>7.200000000000001</ele><time>2026-05-06T06:17:24.001Z</time></trkpt><trkpt lat="14.56470325879052" lon="121.00177720040645"><ele>6.8</ele><time>2026-05-06T06:17:25.001Z</time></trkpt><trkpt lat="14.564767420349881" lon="121.00184136797512"><ele>6.4</ele><time>2026-05-06T06:17:26.001Z</time></trkpt><trkpt lat="14.56484370170466" lon="121.00191665365591"><ele>6.0</ele><time>2026-05-06T06:17:27.001Z</time></trkpt><trkpt lat="14.564926642013525" lon="121.00200209107157"><ele>6.0</ele><time>2026-05-06T06:17:28.001Z</time></trkpt><trkpt lat="14.565002161762466" lon="121.00208846745988"><ele>6.0</ele><time>2026-05-06T06:17:29.001Z</time></trkpt><trkpt lat="14.565080555492019" lon="121.00217011942628"><ele>6.0</ele><time>2026-05-06T06:17:30.001Z</time></trkpt><trkpt lat="14.565156634397313" lon="121.00225216845995"><ele>6.0</ele><time>2026-05-06T06:17:31.001Z</time></trkpt><trkpt lat="14.565229877299913" lon="121.00233419042208"><ele>6.0</ele><time>2026-05-06T06:17:32.001Z</time></trkpt><trkpt lat="14.565302227258993" lon="121.00241515746511"><ele>6.166666666666667</ele><time>2026-05-06T06:17:33.001Z</time></trkpt><trkpt lat="14.565363248304353" lon="121.0024860492218"><ele>6.333333333333334</ele><time>2026-05-06T06:17:34.001Z</time></trkpt><trkpt lat="14.565430773530165" lon="121.00255556756869"><ele>6.5</ele><time>2026-05-06T06:17:35.001Z</time></trkpt><trkpt lat="14.565508041092814" lon="121.00262372607351"><ele>6.666666666666667</ele><time>2026-05-06T06:17:36.001Z</time></trkpt><trkpt lat="14.56557290004234" lon="121.0026831754044"><ele>6.833333333333334</ele><time>2026-05-06T06:17:37.001Z</time></trkpt><trkpt lat="14.565624028310472" lon="121.00273003930171"><ele>7.0</ele><time>2026-05-06T06:17:38.001Z</time></trkpt><trkpt lat="14.565679103003287" lon="121.00278052042853"><ele>7.199999999999999</ele><time>2026-05-06T06:17:39Z</time></trkpt><trkpt lat="14.565767212043596" lon="121.00286128072696"><ele>7.3999999999999995</ele><time>2026-05-06T06:17:41Z</time></trkpt><trkpt lat="14.56574187673952" lon="121.00294753659688"><ele>7.6000000000000005</ele><time>2026-05-06T06:17:42Z</time></trkpt><trkpt lat="14.565698390572534" lon="121.00305682990037"><ele>7.800000000000001</ele><time>2026-05-06T06:17:45Z</time></trkpt><trkpt lat="14.565685072421356" lon="121.00313758275375"><ele>8.0</ele><time>2026-05-06T06:17:46Z</time></trkpt><trkpt lat="14.565618561918928" lon="121.00317948786099"><ele>7.999999999999999</ele><time>2026-05-06T06:17:47Z</time></trkpt><trkpt lat="14.565560735832875" lon="121.00321592125192"><ele>8.0</ele><time>2026-05-06T06:17:48Z</time></trkpt><trkpt lat="14.56549908025859" lon="121.00325174003852"><ele>8.0</ele><time>2026-05-06T06:17:49Z</time></trkpt><trkpt lat="14.565438093976596" lon="121.0032899495483"><ele>8.0</ele><time>2026-05-06T06:17:50Z</time></trkpt><trkpt lat="14.56537813186282" lon="121.00333801188724"><ele>7.999999999999999</ele><time>2026-05-06T06:17:51Z</time></trkpt><trkpt lat="14.565254724940932" lon="121.00340190681939"><ele>8.0</ele><time>2026-05-06T06:17:53Z</time></trkpt><trkpt lat="14.565184591573432" lon="121.0034590834643"><ele>7.5</ele><time>2026-05-06T06:17:54Z</time></trkpt><trkpt lat="14.565090825129005" lon="121.0035200861948"><ele>7.0</ele><time>2026-05-06T06:17:55Z</time></trkpt><trkpt lat="14.564973761865792" lon="121.00358476650801"><ele>6.5</ele><time>2026-05-06T06:17:56Z</time></trkpt><trkpt lat="14.56486849167905" lon="121.00364570478119"><ele>6.0</ele><time>2026-05-06T06:17:57Z</time></trkpt><trkpt lat="14.564764476639676" lon="121.00371369748557"><ele>6.0</ele><time>2026-05-06T06:17:58Z</time></trkpt><trkpt lat="14.564661078588305" lon="121.0037745572307"><ele>6.0</ele><time>2026-05-06T06:17:59Z</time></trkpt><trkpt lat="14.56453401686674" lon="121.00386852928887"><ele>6.0</ele><time>2026-05-06T06:18:00Z</time></trkpt><trkpt lat="14.564402566015657" lon="121.0039513976818"><ele>6.0</ele><time>2026-05-06T06:18:01Z</time></trkpt><trkpt lat="14.56426900125756" lon="121.0040336092782"><ele>6.0</ele><time>2026-05-06T06:18:02Z</time></trkpt><trkpt lat="14.564134759641293" lon="121.00410399489905"><ele>6.0</ele><time>2026-05-06T06:18:03Z</time></trkpt><trkpt lat="14.563983578646797" lon="121.004151490531"><ele>6.0</ele><time>2026-05-06T06:18:04Z</time></trkpt><trkpt lat="14.563840459325897" lon="121.0042221964103"><ele>6.333333333333334</ele><time>2026-05-06T06:18:05Z</time></trkpt><trkpt lat="14.563686450314393" lon="121.00429828218569"><ele>6.666666666666667</ele><time>2026-05-06T06:18:06Z</time></trkpt><trkpt lat="14.563541563117656" lon="121.00436986145212"><ele>7.0</ele><time>2026-05-06T06:18:07Z</time></trkpt><trkpt lat="14.563407054745122" lon="121.00448967832561"><ele>7.0</ele><time>2026-05-06T06:18:08Z</time></trkpt><trkpt lat="14.563251985361545" lon="121.0045641456825"><ele>7.0</ele><time>2026-05-06T06:18:09Z</time></trkpt><trkpt lat="14.563131685031639" lon="121.00460310148235"><ele>7.0</ele><time>2026-05-06T06:18:10Z</time></trkpt><trkpt lat="14.562956625946065" lon="121.00469655084072"><ele>6.333333333333334</ele><time>2026-05-06T06:18:11Z</time></trkpt><trkpt lat="14.562773366449743" lon="121.00472895743104"><ele>5.666666666666667</ele><time>2026-05-06T06:18:12Z</time></trkpt><trkpt lat="14.562614525941397" lon="121.00480852557244"><ele>5.0</ele><time>2026-05-06T06:18:13Z</time></trkpt><trkpt lat="14.562501945001033" lon="121.00485914532186"><ele>5.0</ele><time>2026-05-06T06:18:14Z</time></trkpt><trkpt lat="14.562358726849377" lon="121.0049060997513"><ele>5.0</ele><time>2026-05-06T06:18:15Z</time></trkpt><trkpt lat="14.562217540115464" lon="121.00497816820159"><ele>5.0</ele><time>2026-05-06T06:18:16Z</time></trkpt><trkpt lat="14.562077020727592" lon="121.00506847442573"><ele>5.333333333333334</ele><time>2026-05-06T06:18:17Z</time></trkpt><trkpt lat="14.56193692125685" lon="121.00515456925565"><ele>5.666666666666667</ele><time>2026-05-06T06:18:18Z</time></trkpt><trkpt lat="14.56178910246068" lon="121.00524005471232"><ele>6.0</ele><time>2026-05-06T06:18:19Z</time></trkpt><trkpt lat="14.56163198393514" lon="121.00533402619291"><ele>6.0</ele><time>2026-05-06T06:18:20Z</time></trkpt><trkpt lat="14.561453205417774" lon="121.00544486558924"><ele>6.0</ele><time>2026-05-06T06:18:21Z</time></trkpt><trkpt lat="14.561293024265412" lon="121.00551934955188"><ele>6.0</ele><time>2026-05-06T06:18:22Z</time></trkpt><trkpt lat="14.561150049134442" lon="121.00560648229795"><ele>6.333333333333334</ele><time>2026-05-06T06:18:23Z</time></trkpt><trkpt lat="14.561019089061952" lon="121.00567815116717"><ele>6.666666666666667</ele><time>2026-05-06T06:18:24Z</time></trkpt><trkpt lat="14.560851062257077" lon="121.00576160696463"><ele>7.0</ele><time>2026-05-06T06:18:25Z</time></trkpt><trkpt lat="14.56068567742139" lon="121.00584584107284"><ele>6.666666666666667</ele><time>2026-05-06T06:18:26Z</time></trkpt><trkpt lat="14.560506627425044" lon="121.00594595835926"><ele>6.333333333333334</ele><time>2026-05-06T06:18:27Z</time></trkpt><trkpt lat="14.56034460970704" lon="121.00602614608376"><ele>6.0</ele><time>2026-05-06T06:18:28Z</time></trkpt><trkpt lat="14.560184222429744" lon="121.0061024681998"><ele>6.0</ele><time>2026-05-06T06:18:29Z</time></trkpt><trkpt lat="14.560020995294074" lon="121.00618793860903"><ele>6.0</ele><time>2026-05-06T06:18:30Z</time></trkpt><trkpt lat="14.559866756247553" lon="121.00627820124788"><ele>6.0</ele><time>2026-05-06T06:18:31Z</time></trkpt><trkpt lat="14.559711145196678" lon="121.00636697955981"><ele>6.0</ele><time>2026-05-06T06:18:32Z</time></trkpt><trkpt lat="14.559550342953829" lon="121.00644200527971"><ele>6.0</ele><time>2026-05-06T06:18:33Z</time></trkpt><trkpt lat="14.55937750939444" lon="121.0065359808162"><ele>6.0</ele><time>2026-05-06T06:18:34Z</time></trkpt><trkpt lat="14.559224133563948" lon="121.0066275189448"><ele>6.333333333333334</ele><time>2026-05-06T06:18:35Z</time></trkpt><trkpt lat="14.5590804984059" lon="121.00670343258332"><ele>6.666666666666667</ele><time>2026-05-06T06:18:36Z</time></trkpt><trkpt lat="14.558932186143414" lon="121.00677932966467"><ele>7.0</ele><time>2026-05-06T06:18:37Z</time></trkpt><trkpt lat="14.558786033815512" lon="121.00685692906212"><ele>7.666666666666667</ele><time>2026-05-06T06:18:38Z</time></trkpt><trkpt lat="14.55864316847166" lon="121.00692686638763"><ele>8.333333333333334</ele><time>2026-05-06T06:18:39Z</time></trkpt><trkpt lat="14.558497308768375" lon="121.00698965468239"><ele>9.0</ele><time>2026-05-06T06:18:40Z</time></trkpt><trkpt lat="14.558362268037442" lon="121.00707745244426"><ele>9.0</ele><time>2026-05-06T06:18:41Z</time></trkpt><trkpt lat="14.55822290082079" lon="121.00715591743182"><ele>9.0</ele><time>2026-05-06T06:18:42Z</time></trkpt><trkpt lat="14.558089805259941" lon="121.00722987802875"><ele>9.0</ele><time>2026-05-06T06:18:43Z</time></trkpt><trkpt lat="14.557964392198368" lon="121.00731347211843"><ele>8.666666666666666</ele><time>2026-05-06T06:18:44Z</time></trkpt><trkpt lat="14.557825303827162" lon="121.00739893214852"><ele>8.333333333333332</ele><time>2026-05-06T06:18:45Z</time></trkpt><trkpt lat="14.55768814428802" lon="121.00746613465144"><ele>8.0</ele><time>2026-05-06T06:18:46Z</time></trkpt><trkpt lat="14.557546665391413" lon="121.00753613379673"><ele>7.666666666666666</ele><time>2026-05-06T06:18:47Z</time></trkpt><trkpt lat="14.557399500871425" lon="121.00760845057715"><ele>7.333333333333334</ele><time>2026-05-06T06:18:48Z</time></trkpt><trkpt lat="14.557255118599315" lon="121.00768927580651"><ele>7.0</ele><time>2026-05-06T06:18:49Z</time></trkpt><trkpt lat="14.557115627413765" lon="121.00774664194499"><ele>6.5</ele><time>2026-05-06T06:18:50Z</time></trkpt><trkpt lat="14.556977579467201" lon="121.00780188134755"><ele>6.0</ele><time>2026-05-06T06:18:51Z</time></trkpt><trkpt lat="14.556846209896207" lon="121.00787366803009"><ele>5.5</ele><time>2026-05-06T06:18:52Z</time></trkpt><trkpt lat="14.556716763792213" lon="121.0079475487775"><ele>5.0</ele><time>2026-05-06T06:18:53Z</time></trkpt><trkpt lat="14.556590972279192" lon="121.00801214118823"><ele>5.0</ele><time>2026-05-06T06:18:54Z</time></trkpt><trkpt lat="14.556470929656744" lon="121.00808230187376"><ele>5.0</ele><time>2026-05-06T06:18:55Z</time></trkpt><trkpt lat="14.556342991122788" lon="121.00814924408023"><ele>5.0</ele><time>2026-05-06T06:18:56Z</time></trkpt><trkpt lat="14.556206842200176" lon="121.00822923620714"><ele>5.0</ele><time>2026-05-06T06:18:57Z</time></trkpt><trkpt lat="14.55605907198815" lon="121.0083119794836"><ele>6.0</ele><time>2026-05-06T06:18:58Z</time></trkpt><trkpt lat="14.555909291724223" lon="121.0083930984736"><ele>7.0</ele><time>2026-05-06T06:18:59Z</time></trkpt><trkpt lat="14.555760680517984" lon="121.00847337678287"><ele>8.0</ele><time>2026-05-06T06:19:00Z</time></trkpt><trkpt lat="14.555609569695728" lon="121.00856000622947"><ele>8.0</ele><time>2026-05-06T06:19:01Z</time></trkpt><trkpt lat="14.555457502781188" lon="121.00864238906291"><ele>8.0</ele><time>2026-05-06T06:19:02Z</time></trkpt><trkpt lat="14.555308511375218" lon="121.00872325760297"><ele>8.0</ele><time>2026-05-06T06:19:03Z</time></trkpt><trkpt lat="14.55515774238619" lon="121.00881079230936"><ele>7.0</ele><time>2026-05-06T06:19:04Z</time></trkpt><trkpt lat="14.555003045549242" lon="121.00889386138012"><ele>6.0</ele><time>2026-05-06T06:19:05Z</time></trkpt><trkpt lat="14.55484911305402" lon="121.00897518962317"><ele>5.0</ele><time>2026-05-06T06:19:06Z</time></trkpt><trkpt lat="14.55468243878898" lon="121.00906216186108"><ele>5.666666666666667</ele><time>2026-05-06T06:19:07Z</time></trkpt><trkpt lat="14.554520058049006" lon="121.00915396529818"><ele>6.333333333333334</ele><time>2026-05-06T06:19:08Z</time></trkpt><trkpt lat="14.55436035475087" lon="121.00924229054877"><ele>7.0</ele><time>2026-05-06T06:19:09Z</time></trkpt><trkpt lat="14.554204725396172" lon="121.00931862430859"><ele>7.0</ele><time>2026-05-06T06:19:10Z</time></trkpt><trkpt lat="14.554057061997558" lon="121.00937955888938"><ele>7.0</ele><time>2026-05-06T06:19:11Z</time></trkpt><trkpt lat="14.55390983922143" lon="121.00945860882516"><ele>7.0</ele><time>2026-05-06T06:19:12Z</time></trkpt><trkpt lat="14.553755768532547" lon="121.00954171248559"><ele>7.0</ele><time>2026-05-06T06:19:13Z</time></trkpt><trkpt lat="14.553599763653386" lon="121.00963053477246"><ele>7.0</ele><time>2026-05-06T06:19:14Z</time></trkpt><trkpt lat="14.553441419098972" lon="121.00973973096278"><ele>7.0</ele><time>2026-05-06T06:19:15Z</time></trkpt><trkpt lat="14.553280975536024" lon="121.0098362709132"><ele>7.0</ele><time>2026-05-06T06:19:16Z</time></trkpt><trkpt lat="14.553104379335581" lon="121.00993276850345"><ele>7.0</ele><time>2026-05-06T06:19:17Z</time></trkpt><trkpt lat="14.552950885301028" lon="121.01000653184283"><ele>7.0</ele><time>2026-05-06T06:19:18Z</time></trkpt><trkpt lat="14.552753722040984" lon="121.01012928336975"><ele>7.0</ele><time>2026-05-06T06:19:19Z</time></trkpt><trkpt lat="14.552601009122839" lon="121.01021034728487"><ele>7.0</ele><time>2026-05-06T06:19:20Z</time></trkpt><trkpt lat="14.552446067019115" lon="121.0102930083179"><ele>7.0</ele><time>2026-05-06T06:19:21Z</time></trkpt><trkpt lat="14.552287569690474" lon="121.01038144496874"><ele>7.0</ele><time>2026-05-06T06:19:22Z</time></trkpt><trkpt lat="14.55212594097147" lon="121.01045731070859"><ele>7.0</ele><time>2026-05-06T06:19:23Z</time></trkpt><trkpt lat="14.551957878793516" lon="121.0105460208951"><ele>7.0</ele><time>2026-05-06T06:19:24Z</time></trkpt><trkpt lat="14.55179332328776" lon="121.01063929142525"><ele>7.333333333333334</ele><time>2026-05-06T06:19:25Z</time></trkpt><trkpt lat="14.551637003119188" lon="121.01072594191709"><ele>7.666666666666666</ele><time>2026-05-06T06:19:26Z</time></trkpt><trkpt lat="14.551495257379006" lon="121.01080665999093"><ele>8.0</ele><time>2026-05-06T06:19:27Z</time></trkpt><trkpt lat="14.55137120976969" lon="121.01087683042434"><ele>8.25</ele><time>2026-05-06T06:19:28Z</time></trkpt><trkpt lat="14.551257836496507" lon="121.01092755552281"><ele>8.5</ele><time>2026-05-06T06:19:29Z</time></trkpt><trkpt lat="14.55114107795518" lon="121.01100405604367"><ele>8.75</ele><time>2026-05-06T06:19:30Z</time></trkpt><trkpt lat="14.5510177977504" lon="121.01107854842721"><ele>9.0</ele><time>2026-05-06T06:19:31Z</time></trkpt><trkpt lat="14.550874550655173" lon="121.01116730783394"><ele>9.0</ele><time>2026-05-06T06:19:32Z</time></trkpt><trkpt lat="14.550746011293386" lon="121.01125335134175"><ele>9.0</ele><time>2026-05-06T06:19:33.001Z</time></trkpt><trkpt lat="14.550657825564238" lon="121.01128532459863"><ele>9.0</ele><time>2026-05-06T06:19:34.001Z</time></trkpt><trkpt lat="14.55054273098791" lon="121.01132095730885"><ele>9.0</ele><time>2026-05-06T06:19:35.001Z</time></trkpt><trkpt lat="14.550426859036794" lon="121.0113672753502"><ele>8.75</ele><time>2026-05-06T06:19:36.001Z</time></trkpt><trkpt lat="14.550293750761302" lon="121.01143635566461"><ele>8.5</ele><time>2026-05-06T06:19:37.001Z</time></trkpt><trkpt lat="14.550172992772227" lon="121.01149999692754"><ele>8.25</ele><time>2026-05-06T06:19:38.001Z</time></trkpt><trkpt lat="14.550063703322188" lon="121.0115582569197"><ele>8.0</ele><time>2026-05-06T06:19:39.001Z</time></trkpt><trkpt lat="14.549950539029794" lon="121.01162354829029"><ele>8.75</ele><time>2026-05-06T06:19:40.001Z</time></trkpt><trkpt lat="14.549859617682905" lon="121.01169602821528"><ele>9.5</ele><time>2026-05-06T06:19:41.001Z</time></trkpt><trkpt lat="14.549754477015274" lon="121.01176343746727"><ele>10.25</ele><time>2026-05-06T06:19:42.001Z</time></trkpt><trkpt lat="14.549654993035512" lon="121.01181785381834"><ele>11.0</ele><time>2026-05-06T06:19:43.001Z</time></trkpt><trkpt lat="14.54955367073489" lon="121.0118717846483"><ele>10.75</ele><time>2026-05-06T06:19:44.001Z</time></trkpt><trkpt lat="14.54945907192519" lon="121.01190797516101"><ele>10.5</ele><time>2026-05-06T06:19:45Z</time></trkpt><trkpt lat="14.549355863463955" lon="121.01196121224004"><ele>10.25</ele><time>2026-05-06T06:19:46Z</time></trkpt><trkpt lat="14.549236084707852" lon="121.01203107823783"><ele>10.0</ele><time>2026-05-06T06:19:47Z</time></trkpt><trkpt lat="14.549123175068958" lon="121.0120877434698"><ele>10.0</ele><time>2026-05-06T06:19:48Z</time></trkpt><trkpt lat="14.549013570081506" lon="121.01214650703008"><ele>10.0</ele><time>2026-05-06T06:19:49Z</time></trkpt><trkpt lat="14.548894995311105" lon="121.01219576326514"><ele>10.0</ele><time>2026-05-06T06:19:50Z</time></trkpt><trkpt lat="14.548795693318006" lon="121.01225110623628"><ele>10.0</ele><time>2026-05-06T06:19:51Z</time></trkpt><trkpt lat="14.548694310869283" lon="121.01230029425433"><ele>9.5</ele><time>2026-05-06T06:19:52Z</time></trkpt><trkpt lat="14.548587453354353" lon="121.01235995242526"><ele>9.0</ele><time>2026-05-06T06:19:53Z</time></trkpt><trkpt lat="14.54847166117723" lon="121.01242156356784"><ele>8.5</ele><time>2026-05-06T06:19:54Z</time></trkpt><trkpt lat="14.548374456404094" lon="121.01248024575759"><ele>8.0</ele><time>2026-05-06T06:19:55Z</time></trkpt><trkpt lat="14.548275626693014" lon="121.01251296848996"><ele>8.0</ele><time>2026-05-06T06:19:56Z</time></trkpt><trkpt lat="14.548176897632898" lon="121.01253451919945"><ele>8.0</ele><time>2026-05-06T06:19:57Z</time></trkpt><trkpt lat="14.548064819639222" lon="121.01261682962175"><ele>8.0</ele><time>2026-05-06T06:19:58Z</time></trkpt><trkpt lat="14.547952823527469" lon="121.01268701211733"><ele>8.0</ele><time>2026-05-06T06:19:59Z</time></trkpt><trkpt lat="14.547853234994278" lon="121.01271749137645"><ele>8.200000000000001</ele><time>2026-05-06T06:20:00Z</time></trkpt><trkpt lat="14.547716924839692" lon="121.01275592946958"><ele>8.4</ele><time>2026-05-06T06:20:01Z</time></trkpt><trkpt lat="14.547637612817988" lon="121.01281264178994"><ele>8.600000000000001</ele><time>2026-05-06T06:20:02Z</time></trkpt><trkpt lat="14.547559234505584" lon="121.01286949828537"><ele>8.8</ele><time>2026-05-06T06:20:03Z</time></trkpt><trkpt lat="14.547473619449558" lon="121.01291440439071"><ele>9.0</ele><time>2026-05-06T06:20:04Z</time></trkpt><trkpt lat="14.547390988832513" lon="121.0129736920715"><ele>9.0</ele><time>2026-05-06T06:20:05Z</time></trkpt><trkpt lat="14.547280462387542" lon="121.01305085015983"><ele>9.0</ele><time>2026-05-06T06:20:06Z</time></trkpt><trkpt lat="14.547174838159693" lon="121.0131048384957"><ele>9.0</ele><time>2026-05-06T06:20:07Z</time></trkpt><trkpt lat="14.54708362643542" lon="121.01315809606743"><ele>9.0</ele><time>2026-05-06T06:20:08Z</time></trkpt><trkpt lat="14.546983680566086" lon="121.01321129871472"><ele>9.6</ele><time>2026-05-06T06:20:09Z</time></trkpt><trkpt lat="14.54687682997309" lon="121.0132654633921"><ele>10.2</ele><time>2026-05-06T06:20:10Z</time></trkpt><trkpt lat="14.546781445593982" lon="121.0133117332684"><ele>10.799999999999999</ele><time>2026-05-06T06:20:11Z</time></trkpt><trkpt lat="14.546686502407404" lon="121.01335661190843"><ele>11.4</ele><time>2026-05-06T06:20:12Z</time></trkpt><trkpt lat="14.546581285311788" lon="121.01339881241364"><ele>12.0</ele><time>2026-05-06T06:20:13Z</time></trkpt><trkpt lat="14.546488669789749" lon="121.01344626007166"><ele>12.25</ele><time>2026-05-06T06:20:14Z</time></trkpt><trkpt lat="14.5463907376178" lon="121.01350793134458"><ele>12.5</ele><time>2026-05-06T06:20:15Z</time></trkpt><trkpt lat="14.546295100020142" lon="121.01356772072566"><ele>12.75</ele><time>2026-05-06T06:20:16Z</time></trkpt><trkpt lat="14.546188808404606" lon="121.0136208214993"><ele>13.0</ele><time>2026-05-06T06:20:17Z</time></trkpt><trkpt lat="14.546085155601927" lon="121.01366860214394"><ele>12.25</ele><time>2026-05-06T06:20:18Z</time></trkpt><trkpt lat="14.545983329607127" lon="121.01372465901686"><ele>11.5</ele><time>2026-05-06T06:20:19Z</time></trkpt><trkpt lat="14.545881786462292" lon="121.01378601967899"><ele>10.75</ele><time>2026-05-06T06:20:20Z</time></trkpt><trkpt lat="14.545775285042442" lon="121.01385666490486"><ele>10.0</ele><time>2026-05-06T06:20:21Z</time></trkpt><trkpt lat="14.545666680214199" lon="121.01391161662708"><ele>10.0</ele><time>2026-05-06T06:20:22Z</time></trkpt><trkpt lat="14.545550655819993" lon="121.01397132817834"><ele>10.0</ele><time>2026-05-06T06:20:23Z</time></trkpt><trkpt lat="14.545433514617468" lon="121.01403151365118"><ele>10.0</ele><time>2026-05-06T06:20:24Z</time></trkpt><trkpt lat="14.545324652989867" lon="121.01407648646212"><ele>10.0</ele><time>2026-05-06T06:20:25Z</time></trkpt><trkpt lat="14.545215481638122" lon="121.01413266627486"><ele>10.5</ele><time>2026-05-06T06:20:26Z</time></trkpt><trkpt lat="14.545095843069037" lon="121.0141968352773"><ele>11.0</ele><time>2026-05-06T06:20:27Z</time></trkpt><trkpt lat="14.54497088693466" lon="121.01425872105189"><ele>11.5</ele><time>2026-05-06T06:20:28Z</time></trkpt><trkpt lat="14.54485676226765" lon="121.01432310718108"><ele>12.0</ele><time>2026-05-06T06:20:29Z</time></trkpt><trkpt lat="14.544746425170391" lon="121.01437589162879"><ele>12.0</ele><time>2026-05-06T06:20:30Z</time></trkpt><trkpt lat="14.544636776664447" lon="121.01442633243575"><ele>12.0</ele><time>2026-05-06T06:20:31Z</time></trkpt><trkpt lat="14.544524153675932" lon="121.01448125413111"><ele>12.0</ele><time>2026-05-06T06:20:32Z</time></trkpt><trkpt lat="14.544416780945527" lon="121.0145426206284"><ele>12.0</ele><time>2026-05-06T06:20:33Z</time></trkpt><trkpt lat="14.54430664474178" lon="121.01459959918897"><ele>12.0</ele><time>2026-05-06T06:20:34Z</time></trkpt><trkpt lat="14.54418554098111" lon="121.01467515426069"><ele>12.0</ele><time>2026-05-06T06:20:35Z</time></trkpt><trkpt lat="14.544066534775043" lon="121.01475663209175"><ele>12.0</ele><time>2026-05-06T06:20:36Z</time></trkpt><trkpt lat="14.54394688435885" lon="121.01482430026219"><ele>12.0</ele><time>2026-05-06T06:20:37Z</time></trkpt><trkpt lat="14.543831516863907" lon="121.0148838144077"><ele>12.0</ele><time>2026-05-06T06:20:38Z</time></trkpt><trkpt lat="14.543729126154773" lon="121.01493225982642"><ele>12.0</ele><time>2026-05-06T06:20:39Z</time></trkpt><trkpt lat="14.543632833158295" lon="121.01497986181096"><ele>12.0</ele><time>2026-05-06T06:20:40Z</time></trkpt><trkpt lat="14.543534767007621" lon="121.01503797909496"><ele>12.0</ele><time>2026-05-06T06:20:41Z</time></trkpt><trkpt lat="14.543434402773018" lon="121.01509179966855"><ele>12.0</ele><time>2026-05-06T06:20:42Z</time></trkpt><trkpt lat="14.543345069992842" lon="121.01514260240917"><ele>12.0</ele><time>2026-05-06T06:20:43Z</time></trkpt><trkpt lat="14.543265472015207" lon="121.01518838718657"><ele>12.0</ele><time>2026-05-06T06:20:44Z</time></trkpt><trkpt lat="14.543160389453218" lon="121.01523453201683"><ele>12.0</ele><time>2026-05-06T06:20:45Z</time></trkpt><trkpt lat="14.543109689292848" lon="121.01528895030873"><ele>12.0</ele><time>2026-05-06T06:20:46Z</time></trkpt><trkpt lat="14.543030545104005" lon="121.01533042693715"><ele>12.0</ele><time>2026-05-06T06:20:47Z</time></trkpt><trkpt lat="14.542958090965024" lon="121.01536839756453"><ele>12.0</ele><time>2026-05-06T06:20:48Z</time></trkpt><trkpt lat="14.542884680033193" lon="121.01540630928574"><ele>12.833333333333334</ele><time>2026-05-06T06:20:49Z</time></trkpt><trkpt lat="14.542823858633657" lon="121.01543731383104"><ele>13.666666666666668</ele><time>2026-05-06T06:20:50Z</time></trkpt><trkpt lat="14.542765312673767" lon="121.0154693697911"><ele>14.5</ele><time>2026-05-06T06:20:51Z</time></trkpt><trkpt lat="14.54268828485756" lon="121.01551068997897"><ele>15.333333333333334</ele><time>2026-05-06T06:20:52Z</time></trkpt><trkpt lat="14.542604749690332" lon="121.0155400616147"><ele>16.166666666666668</ele><time>2026-05-06T06:20:53Z</time></trkpt><trkpt lat="14.54250869330287" lon="121.01558476713473"><ele>17.0</ele><time>2026-05-06T06:20:54Z</time></trkpt><trkpt lat="14.542417051700118" lon="121.01563991446668"><ele>17.0</ele><time>2026-05-06T06:20:55Z</time></trkpt><trkpt lat="14.54232171608304" lon="121.01568678781372"><ele>17.0</ele><time>2026-05-06T06:20:56Z</time></trkpt><trkpt lat="14.542221904575278" lon="121.01574127233417"><ele>17.0</ele><time>2026-05-06T06:20:57Z</time></trkpt><trkpt lat="14.542138826989548" lon="121.01580254980007"><ele>17.0</ele><time>2026-05-06T06:20:58Z</time></trkpt><trkpt lat="14.54205302452492" lon="121.01585172682279"><ele>17.0</ele><time>2026-05-06T06:20:59Z</time></trkpt><trkpt lat="14.5419723721504" lon="121.01588593663072"><ele>15.8</ele><time>2026-05-06T06:21:00Z</time></trkpt><trkpt lat="14.541891165193336" lon="121.01592221208566"><ele>14.6</ele><time>2026-05-06T06:21:01Z</time></trkpt><trkpt lat="14.541806147562607" lon="121.01597331664885"><ele>13.4</ele><time>2026-05-06T06:21:02Z</time></trkpt><trkpt lat="14.541718409976406" lon="121.0160035408332"><ele>12.200000000000001</ele><time>2026-05-06T06:21:03Z</time></trkpt><trkpt lat="14.541634150700775" lon="121.01602973894732"><ele>11.0</ele><time>2026-05-06T06:21:04Z</time></trkpt><trkpt lat="14.541554369840874" lon="121.01605868233311"><ele>11.0</ele><time>2026-05-06T06:21:05Z</time></trkpt><trkpt lat="14.541473310376059" lon="121.01609027731608"><ele>11.0</ele><time>2026-05-06T06:21:06Z</time></trkpt><trkpt lat="14.541395215739648" lon="121.01610955360022"><ele>11.0</ele><time>2026-05-06T06:21:07Z</time></trkpt><trkpt lat="14.541316611236269" lon="121.01612979509774"><ele>11.0</ele><time>2026-05-06T06:21:08Z</time></trkpt><trkpt lat="14.541232271015206" lon="121.01615191085348"><ele>11.0</ele><time>2026-05-06T06:21:09Z</time></trkpt><trkpt lat="14.541151519058925" lon="121.01616980170262"><ele>11.0</ele><time>2026-05-06T06:21:10Z</time></trkpt><trkpt lat="14.54107377736371" lon="121.01619539856624"><ele>11.166666666666666</ele><time>2026-05-06T06:21:11Z</time></trkpt><trkpt lat="14.540998282652499" lon="121.01621901542148"><ele>11.333333333333332</ele><time>2026-05-06T06:21:12Z</time></trkpt><trkpt lat="14.540916963042918" lon="121.01624908345127"><ele>11.5</ele><time>2026-05-06T06:21:13Z</time></trkpt><trkpt lat="14.540843076989024" lon="121.01627162457635"><ele>11.666666666666666</ele><time>2026-05-06T06:21:14Z</time></trkpt><trkpt lat="14.540773971720025" lon="121.01629717268943"><ele>11.833333333333334</ele><time>2026-05-06T06:21:15Z</time></trkpt><trkpt lat="14.540701271106451" lon="121.01632847016116"><ele>12.0</ele><time>2026-05-06T06:21:16Z</time></trkpt><trkpt lat="14.540632243028188" lon="121.01635282569572"><ele>12.0</ele><time>2026-05-06T06:21:17Z</time></trkpt><trkpt lat="14.540567867041602" lon="121.01638038006297"><ele>12.0</ele><time>2026-05-06T06:21:18Z</time></trkpt><trkpt lat="14.54045347224144" lon="121.01642304408591"><ele>12.0</ele><time>2026-05-06T06:21:20Z</time></trkpt><trkpt lat="14.540378300636188" lon="121.01646658044442"><ele>12.0</ele><time>2026-05-06T06:21:21Z</time></trkpt><trkpt lat="14.540306904077474" lon="121.01648028413766"><ele>12.0</ele><time>2026-05-06T06:21:22Z</time></trkpt><trkpt lat="14.540241562745127" lon="121.01649292382842"><ele>12.0</ele><time>2026-05-06T06:21:23Z</time></trkpt><trkpt lat="14.540165411478336" lon="121.01651859590646"><ele>12.0</ele><time>2026-05-06T06:21:24Z</time></trkpt><trkpt lat="14.540105900108614" lon="121.01656727062678"><ele>12.0</ele><time>2026-05-06T06:21:25Z</time></trkpt><trkpt lat="14.540039191919883" lon="121.01660264055336"><ele>12.0</ele><time>2026-05-06T06:21:26Z</time></trkpt><trkpt lat="14.539983588740796" lon="121.01664907445992"><ele>12.0</ele><time>2026-05-06T06:21:27Z</time></trkpt><trkpt lat="14.539897649176135" lon="121.016721298379"><ele>12.0</ele><time>2026-05-06T06:21:29Z</time></trkpt><trkpt lat="14.539807503955208" lon="121.01677601269701"><ele>12.0</ele><time>2026-05-06T06:21:31Z</time></trkpt><trkpt lat="14.539717676940846" lon="121.01685222181501"><ele>11.8</ele><time>2026-05-06T06:21:33Z</time></trkpt><trkpt lat="14.539630708736643" lon="121.01693591556867"><ele>11.6</ele><time>2026-05-06T06:21:35Z</time></trkpt><trkpt lat="14.53955950536279" lon="121.01699629355608"><ele>11.4</ele><time>2026-05-06T06:21:37Z</time></trkpt><trkpt lat="14.53946474037653" lon="121.01706501466363"><ele>11.200000000000001</ele><time>2026-05-06T06:21:39Z</time></trkpt><trkpt lat="14.539402962824276" lon="121.01710740163234"><ele>11.0</ele><time>2026-05-06T06:21:40Z</time></trkpt><trkpt lat="14.539346215491824" lon="121.01715629612207"><ele>11.4</ele><time>2026-05-06T06:21:41Z</time></trkpt><trkpt lat="14.539248031231981" lon="121.01722618821795"><ele>11.8</ele><time>2026-05-06T06:21:43Z</time></trkpt><trkpt lat="14.539184684309733" lon="121.01727919227883"><ele>12.200000000000001</ele><time>2026-05-06T06:21:44Z</time></trkpt><trkpt lat="14.539120850167176" lon="121.01733351452843"><ele>12.600000000000001</ele><time>2026-05-06T06:21:45Z</time></trkpt><trkpt lat="14.539058100588182" lon="121.0173917463856"><ele>13.0</ele><time>2026-05-06T06:21:46.001Z</time></trkpt><trkpt lat="14.538967581343124" lon="121.01746360295395"><ele>12.600000000000001</ele><time>2026-05-06T06:21:48.001Z</time></trkpt><trkpt lat="14.5388692591196" lon="121.01753967025309"><ele>12.200000000000001</ele><time>2026-05-06T06:21:50.001Z</time></trkpt><trkpt lat="14.538799695310294" lon="121.0175885320803"><ele>11.8</ele><time>2026-05-06T06:21:51Z</time></trkpt><trkpt lat="14.53871499584807" lon="121.01764870808584"><ele>11.4</ele><time>2026-05-06T06:21:52Z</time></trkpt><trkpt lat="14.538619678180472" lon="121.01769952332795"><ele>11.0</ele><time>2026-05-06T06:21:53Z</time></trkpt><trkpt lat="14.538517814136275" lon="121.01774843067004"><ele>11.0</ele><time>2026-05-06T06:21:54Z</time></trkpt><trkpt lat="14.538409592393648" lon="121.01780868791036"><ele>11.0</ele><time>2026-05-06T06:21:55Z</time></trkpt><trkpt lat="14.538302092881372" lon="121.0178625955545"><ele>11.0</ele><time>2026-05-06T06:21:56Z</time></trkpt><trkpt lat="14.538205086503378" lon="121.01791363645003"><ele>11.0</ele><time>2026-05-06T06:21:57Z</time></trkpt><trkpt lat="14.53810732398436" lon="121.017969628591"><ele>11.0</ele><time>2026-05-06T06:21:58Z</time></trkpt><trkpt lat="14.538022720013558" lon="121.01801807301378"><ele>11.0</ele><time>2026-05-06T06:21:59Z</time></trkpt><trkpt lat="14.537940315241507" lon="121.01806744643326"><ele>11.0</ele><time>2026-05-06T06:22:00Z</time></trkpt><trkpt lat="14.537846989177877" lon="121.01811555917241"><ele>11.0</ele><time>2026-05-06T06:22:01Z</time></trkpt><trkpt lat="14.537754443152645" lon="121.01816626648713"><ele>11.0</ele><time>2026-05-06T06:22:02Z</time></trkpt><trkpt lat="14.537655448351147" lon="121.01822350176322"><ele>11.0</ele><time>2026-05-06T06:22:03Z</time></trkpt><trkpt lat="14.537547381809121" lon="121.01828890952447"><ele>11.0</ele><time>2026-05-06T06:22:04Z</time></trkpt><trkpt lat="14.537429748272835" lon="121.0183523251141"><ele>11.0</ele><time>2026-05-06T06:22:05Z</time></trkpt><trkpt lat="14.537304103932406" lon="121.01841674736202"><ele>11.0</ele><time>2026-05-06T06:22:06Z</time></trkpt><trkpt lat="14.537172550754072" lon="121.01848927704273"><ele>11.0</ele><time>2026-05-06T06:22:07Z</time></trkpt><trkpt lat="14.537039808912434" lon="121.0185645553567"><ele>11.0</ele><time>2026-05-06T06:22:08Z</time></trkpt><trkpt lat="14.536908142527881" lon="121.01863093793482"><ele>11.0</ele><time>2026-05-06T06:22:09Z</time></trkpt><trkpt lat="14.536778135767833" lon="121.01868872709942"><ele>11.0</ele><time>2026-05-06T06:22:10Z</time></trkpt><trkpt lat="14.536655557082973" lon="121.01874998806444"><ele>11.0</ele><time>2026-05-06T06:22:11Z</time></trkpt><trkpt lat="14.536536467275116" lon="121.0188196631286"><ele>11.0</ele><time>2026-05-06T06:22:12Z</time></trkpt><trkpt lat="14.536419667361208" lon="121.01889019389579"><ele>11.0</ele><time>2026-05-06T06:22:13Z</time></trkpt><trkpt lat="14.536287632636595" lon="121.01896870604463"><ele>11.0</ele><time>2026-05-06T06:22:14Z</time></trkpt><trkpt lat="14.536147930558762" lon="121.01905575634385"><ele>10.666666666666666</ele><time>2026-05-06T06:22:15Z</time></trkpt><trkpt lat="14.536002521642848" lon="121.01913756709382"><ele>10.333333333333334</ele><time>2026-05-06T06:22:16Z</time></trkpt><trkpt lat="14.535851128774523" lon="121.01922025320647"><ele>10.0</ele><time>2026-05-06T06:22:17Z</time></trkpt><trkpt lat="14.535700784587371" lon="121.0193015935072"><ele>11.0</ele><time>2026-05-06T06:22:18Z</time></trkpt><trkpt lat="14.535546270005854" lon="121.01938295275846"><ele>12.0</ele><time>2026-05-06T06:22:19Z</time></trkpt><trkpt lat="14.535396069811604" lon="121.01946059436511"><ele>13.0</ele><time>2026-05-06T06:22:20Z</time></trkpt><trkpt lat="14.53525380963751" lon="121.01955449712021"><ele>13.0</ele><time>2026-05-06T06:22:21Z</time></trkpt><trkpt lat="14.53510575294086" lon="121.01963927439101"><ele>13.0</ele><time>2026-05-06T06:22:22Z</time></trkpt><trkpt lat="14.534953111269356" lon="121.01972091590015"><ele>13.0</ele><time>2026-05-06T06:22:23Z</time></trkpt><trkpt lat="14.534803890105872" lon="121.01980332857833"><ele>13.0</ele><time>2026-05-06T06:22:24Z</time></trkpt><trkpt lat="14.534654770615111" lon="121.01988099970845"><ele>13.0</ele><time>2026-05-06T06:22:25Z</time></trkpt><trkpt lat="14.534507535352157" lon="121.01995737235357"><ele>13.0</ele><time>2026-05-06T06:22:26Z</time></trkpt><trkpt lat="14.534362278013187" lon="121.02003038560792"><ele>14.0</ele><time>2026-05-06T06:22:27Z</time></trkpt><trkpt lat="14.534214079345178" lon="121.02011465002718"><ele>15.0</ele><time>2026-05-06T06:22:28Z</time></trkpt><trkpt lat="14.534067900032973" lon="121.02019179277852"><ele>16.0</ele><time>2026-05-06T06:22:29Z</time></trkpt><trkpt lat="14.533922359633399" lon="121.02026706855115"><ele>16.0</ele><time>2026-05-06T06:22:30Z</time></trkpt><trkpt lat="14.53377262978565" lon="121.02035042013111"><ele>16.0</ele><time>2026-05-06T06:22:31Z</time></trkpt><trkpt lat="14.533625506337565" lon="121.02043255533913"><ele>16.0</ele><time>2026-05-06T06:22:32Z</time></trkpt><trkpt lat="14.53347601756503" lon="121.02051120924878"><ele>16.333333333333332</ele><time>2026-05-06T06:22:33Z</time></trkpt><trkpt lat="14.533321846689082" lon="121.02059313330999"><ele>16.666666666666668</ele><time>2026-05-06T06:22:34Z</time></trkpt><trkpt lat="14.533159521167041" lon="121.02067693304936"><ele>17.0</ele><time>2026-05-06T06:22:35Z</time></trkpt><trkpt lat="14.532992938158426" lon="121.02075697588859"><ele>15.333333333333334</ele><time>2026-05-06T06:22:36Z</time></trkpt><trkpt lat="14.532823729593165" lon="121.02084679167221"><ele>13.666666666666668</ele><time>2026-05-06T06:22:37Z</time></trkpt><trkpt lat="14.532647019856828" lon="121.02093857313578"><ele>12.0</ele><time>2026-05-06T06:22:38Z</time></trkpt><trkpt lat="14.532459622042204" lon="121.02103018984785"><ele>12.0</ele><time>2026-05-06T06:22:39Z</time></trkpt><trkpt lat="14.53228447903065" lon="121.02113311693606"><ele>12.0</ele><time>2026-05-06T06:22:40Z</time></trkpt><trkpt lat="14.532099138168627" lon="121.02124199172538"><ele>12.0</ele><time>2026-05-06T06:22:41Z</time></trkpt><trkpt lat="14.531922885171806" lon="121.02134142736168"><ele>10.666666666666666</ele><time>2026-05-06T06:22:42Z</time></trkpt><trkpt lat="14.53175160465448" lon="121.0214370007073"><ele>9.333333333333332</ele><time>2026-05-06T06:22:43Z</time></trkpt><trkpt lat="14.531580223385781" lon="121.02153508401318"><ele>8.0</ele><time>2026-05-06T06:22:44Z</time></trkpt><trkpt lat="14.531419075409596" lon="121.02162547742164"><ele>8.333333333333332</ele><time>2026-05-06T06:22:45Z</time></trkpt><trkpt lat="14.531272768290544" lon="121.02170799865115"><ele>8.666666666666666</ele><time>2026-05-06T06:22:46Z</time></trkpt><trkpt lat="14.531116415128961" lon="121.02179246178294"><ele>9.0</ele><time>2026-05-06T06:22:47Z</time></trkpt><trkpt lat="14.530971106582152" lon="121.02186602037385"><ele>9.0</ele><time>2026-05-06T06:22:48Z</time></trkpt><trkpt lat="14.530824928168764" lon="121.02195224818496"><ele>9.0</ele><time>2026-05-06T06:22:49Z</time></trkpt><trkpt lat="14.53068145295781" lon="121.02202933985312"><ele>9.0</ele><time>2026-05-06T06:22:50Z</time></trkpt><trkpt lat="14.530535991364804" lon="121.02210688656706"><ele>9.0</ele><time>2026-05-06T06:22:51Z</time></trkpt><trkpt lat="14.53039900291584" lon="121.0221855356375"><ele>9.0</ele><time>2026-05-06T06:22:52Z</time></trkpt><trkpt lat="14.530272369352694" lon="121.02224819769248"><ele>9.0</ele><time>2026-05-06T06:22:53Z</time></trkpt><trkpt lat="14.530151298474907" lon="121.0223158654835"><ele>9.0</ele><time>2026-05-06T06:22:54Z</time></trkpt><trkpt lat="14.530032162105606" lon="121.02237140249298"><ele>8.75</ele><time>2026-05-06T06:22:55Z</time></trkpt><trkpt lat="14.529916594056566" lon="121.02241897936497"><ele>8.5</ele><time>2026-05-06T06:22:56Z</time></trkpt><trkpt lat="14.529819777632982" lon="121.02246991936968"><ele>8.25</ele><time>2026-05-06T06:22:57Z</time></trkpt><trkpt lat="14.529718086036928" lon="121.02253397105333"><ele>8.0</ele><time>2026-05-06T06:22:58Z</time></trkpt><trkpt lat="14.529619502469929" lon="121.02258829140706"><ele>8.5</ele><time>2026-05-06T06:22:59Z</time></trkpt><trkpt lat="14.529510745243439" lon="121.02264651116583"><ele>9.0</ele><time>2026-05-06T06:23:00Z</time></trkpt><trkpt lat="14.529389427522592" lon="121.0227069710826"><ele>9.5</ele><time>2026-05-06T06:23:01Z</time></trkpt><trkpt lat="14.529257064125606" lon="121.02277878760279"><ele>10.0</ele><time>2026-05-06T06:23:02Z</time></trkpt><trkpt lat="14.529124245266873" lon="121.02285414809428"><ele>10.0</ele><time>2026-05-06T06:23:03Z</time></trkpt><trkpt lat="14.528982189964298" lon="121.02293866487383"><ele>10.0</ele><time>2026-05-06T06:23:04Z</time></trkpt><trkpt lat="14.52883679846331" lon="121.02302507423799"><ele>10.0</ele><time>2026-05-06T06:23:05Z</time></trkpt><trkpt lat="14.528689194121863" lon="121.02311338540325"><ele>10.0</ele><time>2026-05-06T06:23:06Z</time></trkpt><trkpt lat="14.528541955532784" lon="121.02318914909061"><ele>10.0</ele><time>2026-05-06T06:23:07Z</time></trkpt><trkpt lat="14.52839873660911" lon="121.02327423417073"><ele>10.0</ele><time>2026-05-06T06:23:08Z</time></trkpt><trkpt lat="14.528249853167038" lon="121.02336379199186"><ele>10.0</ele><time>2026-05-06T06:23:09Z</time></trkpt><trkpt lat="14.52808782312338" lon="121.0234487768016"><ele>10.0</ele><time>2026-05-06T06:23:10Z</time></trkpt><trkpt lat="14.527931416812265" lon="121.02351207605992"><ele>10.0</ele><time>2026-05-06T06:23:11Z</time></trkpt><trkpt lat="14.527787904607871" lon="121.02358714127104"><ele>10.333333333333334</ele><time>2026-05-06T06:23:12Z</time></trkpt><trkpt lat="14.527639228574772" lon="121.0236673203221"><ele>10.666666666666666</ele><time>2026-05-06T06:23:13Z</time></trkpt><trkpt lat="14.527498875702625" lon="121.02373081314636"><ele>11.0</ele><time>2026-05-06T06:23:14Z</time></trkpt><trkpt lat="14.527361522635116" lon="121.02380204930999"><ele>11.0</ele><time>2026-05-06T06:23:15Z</time></trkpt><trkpt lat="14.527218518972502" lon="121.0238728160386"><ele>11.0</ele><time>2026-05-06T06:23:16Z</time></trkpt><trkpt lat="14.527067703311443" lon="121.02394972943584"><ele>11.0</ele><time>2026-05-06T06:23:17Z</time></trkpt><trkpt lat="14.526919331315298" lon="121.02402489860643"><ele>11.333333333333332</ele><time>2026-05-06T06:23:18Z</time></trkpt><trkpt lat="14.526784399229886" lon="121.02410307524418"><ele>11.666666666666666</ele><time>2026-05-06T06:23:19Z</time></trkpt><trkpt lat="14.526650501811638" lon="121.02417019379118"><ele>12.0</ele><time>2026-05-06T06:23:20Z</time></trkpt><trkpt lat="14.526510294034912" lon="121.0242517126027"><ele>12.0</ele><time>2026-05-06T06:23:21Z</time></trkpt><trkpt lat="14.526371769865383" lon="121.02432580280382"><ele>12.0</ele><time>2026-05-06T06:23:22Z</time></trkpt><trkpt lat="14.526233112993395" lon="121.02440455704789"><ele>12.0</ele><time>2026-05-06T06:23:23Z</time></trkpt><trkpt lat="14.526091625765986" lon="121.02447584471486"><ele>10.333333333333334</ele><time>2026-05-06T06:23:24Z</time></trkpt><trkpt lat="14.525948204529085" lon="121.02455124230413"><ele>8.666666666666668</ele><time>2026-05-06T06:23:25Z</time></trkpt><trkpt lat="14.525807128460995" lon="121.0246346911277"><ele>7.0</ele><time>2026-05-06T06:23:26Z</time></trkpt><trkpt lat="14.525659983282186" lon="121.02470457145569"><ele>7.0</ele><time>2026-05-06T06:23:27Z</time></trkpt><trkpt lat="14.525518512787944" lon="121.02478110744194"><ele>7.0</ele><time>2026-05-06T06:23:28Z</time></trkpt><trkpt lat="14.525387117109954" lon="121.02484895250787"><ele>7.0</ele><time>2026-05-06T06:23:29Z</time></trkpt><trkpt lat="14.52526071934579" lon="121.02491494744062"><ele>7.0</ele><time>2026-05-06T06:23:30Z</time></trkpt><trkpt lat="14.525139937627976" lon="121.02497627310666"><ele>8.0</ele><time>2026-05-06T06:23:31Z</time></trkpt><trkpt lat="14.525015999822118" lon="121.02504241386565"><ele>9.0</ele><time>2026-05-06T06:23:32Z</time></trkpt><trkpt lat="14.524898141096836" lon="121.02510124526616"><ele>10.0</ele><time>2026-05-06T06:23:33Z</time></trkpt><trkpt lat="14.524782618005176" lon="121.02516413421016"><ele>11.0</ele><time>2026-05-06T06:23:34Z</time></trkpt><trkpt lat="14.524670265549382" lon="121.02522703609101"><ele>12.0</ele><time>2026-05-06T06:23:35Z</time></trkpt><trkpt lat="14.524556213184184" lon="121.02529356694279"><ele>13.0</ele><time>2026-05-06T06:23:36Z</time></trkpt><trkpt lat="14.524439483914906" lon="121.02535518404805"><ele>14.0</ele><time>2026-05-06T06:23:37Z</time></trkpt><trkpt lat="14.524332933593183" lon="121.02541501786604"><ele>15.0</ele><time>2026-05-06T06:23:38Z</time></trkpt><trkpt lat="14.524229658405732" lon="121.0254732136012"><ele>15.0</ele><time>2026-05-06T06:23:39Z</time></trkpt><trkpt lat="14.524128357822448" lon="121.02552574355073"><ele>15.0</ele><time>2026-05-06T06:23:40Z</time></trkpt><trkpt lat="14.524033144464495" lon="121.0255755550765"><ele>15.0</ele><time>2026-05-06T06:23:41Z</time></trkpt><trkpt lat="14.523948076384615" lon="121.02562237157254"><ele>15.0</ele><time>2026-05-06T06:23:42Z</time></trkpt><trkpt lat="14.523847064624487" lon="121.02565455647027"><ele>15.0</ele><time>2026-05-06T06:23:43Z</time></trkpt><trkpt lat="14.523767927450502" lon="121.02566401345065"><ele>15.166666666666666</ele><time>2026-05-06T06:23:44Z</time></trkpt><trkpt lat="14.523685146698611" lon="121.0256711949937"><ele>15.333333333333332</ele><time>2026-05-06T06:23:45Z</time></trkpt><trkpt lat="14.523620988853128" lon="121.02568915106707"><ele>15.5</ele><time>2026-05-06T06:23:46Z</time></trkpt><trkpt lat="14.523553788926518" lon="121.02573356699008"><ele>15.666666666666666</ele><time>2026-05-06T06:23:47Z</time></trkpt><trkpt lat="14.523484021610106" lon="121.02577184870694"><ele>15.833333333333332</ele><time>2026-05-06T06:23:48Z</time></trkpt><trkpt lat="14.523424135051096" lon="121.02581635882665"><ele>16.0</ele><time>2026-05-06T06:23:49Z</time></trkpt><trkpt lat="14.523325228231084" lon="121.02586532411829"><ele>16.0</ele><time>2026-05-06T06:23:51Z</time></trkpt><trkpt lat="14.523239909926778" lon="121.0258622290725"><ele>15.999999999999998</ele><time>2026-05-06T06:23:53Z</time></trkpt><trkpt lat="14.523193473050032" lon="121.02581138756179"><ele>16.0</ele><time>2026-05-06T06:23:55Z</time></trkpt><trkpt lat="14.523165422698614" lon="121.02575233983343"><ele>16.0</ele><time>2026-05-06T06:23:59Z</time></trkpt><trkpt lat="14.523152409800101" lon="121.02568106428009"><ele>15.999999999999998</ele><time>2026-05-06T06:24:06Z</time></trkpt><trkpt lat="14.523172019736476" lon="121.02561104083334"><ele>16.0</ele><time>2026-05-06T06:24:12Z</time></trkpt><trkpt lat="14.52320852961298" lon="121.02555128367415"><ele>16.0</ele><time>2026-05-06T06:24:14Z</time></trkpt><trkpt lat="14.523242023243208" lon="121.02549383519347"><ele>16.333333333333332</ele><time>2026-05-06T06:24:16Z</time></trkpt><trkpt lat="14.523296644040093" lon="121.02542585080161"><ele>16.666666666666664</ele><time>2026-05-06T06:24:19Z</time></trkpt><trkpt lat="14.523328513094391" lon="121.02536916567844"><ele>17.0</ele><time>2026-05-06T06:24:28Z</time></trkpt><trkpt lat="14.523390341294217" lon="121.02532220603501"><ele>17.333333333333332</ele><time>2026-05-06T06:24:39Z</time></trkpt><trkpt lat="14.523443205037767" lon="121.02528117222374"><ele>17.666666666666668</ele><time>2026-05-06T06:24:45Z</time></trkpt><trkpt lat="14.523509880569076" lon="121.0252770377627"><ele>18.0</ele><time>2026-05-06T06:24:49Z</time></trkpt><trkpt lat="14.523604728773533" lon="121.02531963855665"><ele>18.0</ele><time>2026-05-06T06:24:53Z</time></trkpt><trkpt lat="14.523678181826991" lon="121.02537197070453"><ele>18.0</ele><time>2026-05-06T06:24:56Z</time></trkpt><trkpt lat="14.523758681490749" lon="121.02541476693861"><ele>18.0</ele><time>2026-05-06T06:24:59Z</time></trkpt><trkpt lat="14.523834954307448" lon="121.02545453053425"><ele>18.0</ele><time>2026-05-06T06:25:01Z</time></trkpt><trkpt lat="14.523895617369941" lon="121.02548516092855"><ele>18.0</ele><time>2026-05-06T06:25:03Z</time></trkpt><trkpt lat="14.523963066503178" lon="121.02553524718127"><ele>18.0</ele><time>2026-05-06T06:25:06Z</time></trkpt><trkpt lat="14.524018699351991" lon="121.0255751706413"><ele>17.833333333333332</ele><time>2026-05-06T06:25:10Z</time></trkpt><trkpt lat="14.524080611934826" lon="121.02562086474892"><ele>17.666666666666668</ele><time>2026-05-06T06:25:14Z</time></trkpt><trkpt lat="14.524142337703791" lon="121.02566577084822"><ele>17.5</ele><time>2026-05-06T06:25:17Z</time></trkpt><trkpt lat="14.524203202773736" lon="121.02570770188363"><ele>17.333333333333336</ele><time>2026-05-06T06:25:20Z</time></trkpt><trkpt lat="14.524266667085511" lon="121.02575515356203"><ele>17.166666666666668</ele><time>2026-05-06T06:25:23Z</time></trkpt><trkpt lat="14.524348442692569" lon="121.0258126558181"><ele>17.0</ele><time>2026-05-06T06:25:25Z</time></trkpt><trkpt lat="14.524397603541406" lon="121.02586621516836"><ele>17.0</ele><time>2026-05-06T06:25:28Z</time></trkpt><trkpt lat="14.52444955309826" lon="121.02590836048009"><ele>17.0</ele><time>2026-05-06T06:25:32Z</time></trkpt><trkpt lat="14.524614208366069" lon="121.02601324104751"><ele>17.0</ele><time>2026-05-06T06:25:40Z</time></trkpt><trkpt lat="14.524667708092101" lon="121.02607709026933"><ele>17.0</ele><time>2026-05-06T06:25:42Z</time></trkpt><trkpt lat="14.524754497542274" lon="121.02613638214766"><ele>17.0</ele><time>2026-05-06T06:25:45Z</time></trkpt><trkpt lat="14.524804343671265" lon="121.02619049132294"><ele>16.2</ele><time>2026-05-06T06:25:47Z</time></trkpt><trkpt lat="14.524836487571397" lon="121.02625190537385"><ele>15.399999999999999</ele><time>2026-05-06T06:25:49Z</time></trkpt><trkpt lat="14.524856350965472" lon="121.02633953028287"><ele>14.600000000000001</ele><time>2026-05-06T06:25:51Z</time></trkpt><trkpt lat="14.524850472144664" lon="121.02644543992068"><ele>13.8</ele><time>2026-05-06T06:25:53Z</time></trkpt><trkpt lat="14.524816752223597" lon="121.02656194382693"><ele>13.0</ele><time>2026-05-06T06:25:55Z</time></trkpt><trkpt lat="14.524718159020496" lon="121.02662183178734"><ele>13.0</ele><time>2026-05-06T06:25:57Z</time></trkpt><trkpt lat="14.524599763157488" lon="121.02664929709204"><ele>13.0</ele><time>2026-05-06T06:25:59Z</time></trkpt><trkpt lat="14.524480677207194" lon="121.02663913151397"><ele>13.0</ele><time>2026-05-06T06:26:01Z</time></trkpt><trkpt lat="14.524417215745036" lon="121.02661213724222"><ele>13.0</ele><time>2026-05-06T06:26:02Z</time></trkpt><trkpt lat="14.524352607402955" lon="121.0265782899737"><ele>13.0</ele><time>2026-05-06T06:26:02.999Z</time></trkpt><trkpt lat="14.524287581489904" lon="121.02652912318028"><ele>13.571428571428571</ele><time>2026-05-06T06:26:03.999Z</time></trkpt><trkpt lat="14.524212754083658" lon="121.02647567327628"><ele>14.142857142857142</ele><time>2026-05-06T06:26:04.999Z</time></trkpt><trkpt lat="14.524146603408273" lon="121.0264239656462"><ele>14.714285714285714</ele><time>2026-05-06T06:26:05.999Z</time></trkpt><trkpt lat="14.524081672305828" lon="121.0263856229517"><ele>15.285714285714285</ele><time>2026-05-06T06:26:06.999Z</time></trkpt><trkpt lat="14.52402888413176" lon="121.02634378211252"><ele>15.857142857142858</ele><time>2026-05-06T06:26:07.999Z</time></trkpt><trkpt lat="14.523973170538254" lon="121.0263127968633"><ele>16.428571428571427</ele><time>2026-05-06T06:26:08.999Z</time></trkpt><trkpt lat="14.523911566579754" lon="121.02632850400434"><ele>17.0</ele><time>2026-05-06T06:26:09.999Z</time></trkpt><trkpt lat="14.523773585828362" lon="121.02633947218249"><ele>17.0</ele><time>2026-05-06T06:26:11.999Z</time></trkpt><trkpt lat="14.523757371144047" lon="121.02644812223416"><ele>17.0</ele><time>2026-05-06T06:26:12.999Z</time></trkpt><trkpt lat="14.523654553155232" lon="121.026503173494"><ele>17.0</ele><time>2026-05-06T06:26:13.999Z</time></trkpt><trkpt lat="14.523555833276323" lon="121.02655624386554"><ele>17.0</ele><time>2026-05-06T06:26:14.999Z</time></trkpt><trkpt lat="14.52345026310193" lon="121.02661295168551"><ele>16.5</ele><time>2026-05-06T06:26:15.999Z</time></trkpt><trkpt lat="14.52333905075324" lon="121.02667236396258"><ele>16.0</ele><time>2026-05-06T06:26:16.999Z</time></trkpt><trkpt lat="14.523220650116684" lon="121.02673561639821"><ele>15.5</ele><time>2026-05-06T06:26:17.999Z</time></trkpt><trkpt lat="14.52309796639393" lon="121.02680115694334"><ele>15.0</ele><time>2026-05-06T06:26:18.999Z</time></trkpt><trkpt lat="14.522965177032294" lon="121.0268721231761"><ele>15.5</ele><time>2026-05-06T06:26:20Z</time></trkpt><trkpt lat="14.522837326704362" lon="121.02694046738742"><ele>16.0</ele><time>2026-05-06T06:26:21Z</time></trkpt><trkpt lat="14.522702270595412" lon="121.02701266355766"><ele>16.5</ele><time>2026-05-06T06:26:22Z</time></trkpt><trkpt lat="14.522572131691863" lon="121.02708336350695"><ele>17.0</ele><time>2026-05-06T06:26:23Z</time></trkpt><trkpt lat="14.52244641629528" lon="121.0271556790721"><ele>17.0</ele><time>2026-05-06T06:26:24Z</time></trkpt><trkpt lat="14.522322489621814" lon="121.02722696569498"><ele>17.0</ele><time>2026-05-06T06:26:25Z</time></trkpt><trkpt lat="14.522188017290027" lon="121.0273043185167"><ele>17.0</ele><time>2026-05-06T06:26:26Z</time></trkpt><trkpt lat="14.522044726281242" lon="121.02738674416682"><ele>17.0</ele><time>2026-05-06T06:26:27Z</time></trkpt><trkpt lat="14.521900922474906" lon="121.02747006702097"><ele>17.0</ele><time>2026-05-06T06:26:28Z</time></trkpt><trkpt lat="14.521752280907966" lon="121.02755621415092"><ele>17.0</ele><time>2026-05-06T06:26:29Z</time></trkpt><trkpt lat="14.521616665569793" lon="121.02763523119884"><ele>17.0</ele><time>2026-05-06T06:26:30Z</time></trkpt><trkpt lat="14.521482576759777" lon="121.02771483210253"><ele>17.0</ele><time>2026-05-06T06:26:31Z</time></trkpt><trkpt lat="14.521356571694767" lon="121.0277896341252"><ele>17.0</ele><time>2026-05-06T06:26:32Z</time></trkpt><trkpt lat="14.52124139445452" lon="121.02785771210215"><ele>17.0</ele><time>2026-05-06T06:26:33Z</time></trkpt><trkpt lat="14.52114032029688" lon="121.02792410093154"><ele>16.8</ele><time>2026-05-06T06:26:34Z</time></trkpt><trkpt lat="14.521052613642945" lon="121.02798107781918"><ele>16.6</ele><time>2026-05-06T06:26:35Z</time></trkpt><trkpt lat="14.520956107234015" lon="121.02807094092067"><ele>16.400000000000002</ele><time>2026-05-06T06:26:36Z</time></trkpt><trkpt lat="14.52087718929135" lon="121.02812711183286"><ele>16.2</ele><time>2026-05-06T06:26:37Z</time></trkpt><trkpt lat="14.520806538716679" lon="121.02816942538396"><ele>16.0</ele><time>2026-05-06T06:26:38Z</time></trkpt><trkpt lat="14.52074952087972" lon="121.02820784848758"><ele>15.999999999999998</ele><time>2026-05-06T06:26:39Z</time></trkpt><trkpt lat="14.520680479651098" lon="121.02825117100085"><ele>16.0</ele><time>2026-05-06T06:26:40Z</time></trkpt><trkpt lat="14.520608126525813" lon="121.02829913088534"><ele>16.0</ele><time>2026-05-06T06:26:41Z</time></trkpt><trkpt lat="14.520532573859246" lon="121.02833726138604"><ele>16.0</ele><time>2026-05-06T06:26:42Z</time></trkpt><trkpt lat="14.520456882401827" lon="121.0283761144059"><ele>15.999999999999998</ele><time>2026-05-06T06:26:43Z</time></trkpt><trkpt lat="14.520379681237925" lon="121.02841652772068"><ele>16.0</ele><time>2026-05-06T06:26:44Z</time></trkpt><trkpt lat="14.520303481300079" lon="121.02846076507925"><ele>16.333333333333332</ele><time>2026-05-06T06:26:45Z</time></trkpt><trkpt lat="14.520228014224648" lon="121.02850597436282"><ele>16.666666666666664</ele><time>2026-05-06T06:26:46Z</time></trkpt><trkpt lat="14.52014649560263" lon="121.02855061022404"><ele>17.0</ele><time>2026-05-06T06:26:47Z</time></trkpt><trkpt lat="14.52007055275505" lon="121.02858896457238"><ele>17.333333333333332</ele><time>2026-05-06T06:26:48Z</time></trkpt><trkpt lat="14.519996480993036" lon="121.02863326761896"><ele>17.666666666666668</ele><time>2026-05-06T06:26:49Z</time></trkpt><trkpt lat="14.519918087912984" lon="121.02867384433422"><ele>18.0</ele><time>2026-05-06T06:26:50Z</time></trkpt><trkpt lat="14.519835236015592" lon="121.02871797203845"><ele>18.0</ele><time>2026-05-06T06:26:51Z</time></trkpt><trkpt lat="14.519763379066676" lon="121.02875158699518"><ele>18.0</ele><time>2026-05-06T06:26:52Z</time></trkpt><trkpt lat="14.519671559700747" lon="121.02879640068419"><ele>18.0</ele><time>2026-05-06T06:26:53Z</time></trkpt><trkpt lat="14.519584469005066" lon="121.02885136859949"><ele>18.0</ele><time>2026-05-06T06:26:54Z</time></trkpt><trkpt lat="14.51948863779166" lon="121.02889722578783"><ele>18.0</ele><time>2026-05-06T06:26:55Z</time></trkpt><trkpt lat="14.519395562340849" lon="121.02894002416238"><ele>18.166666666666668</ele><time>2026-05-06T06:26:56Z</time></trkpt><trkpt lat="14.519307796100144" lon="121.0289875906994"><ele>18.333333333333332</ele><time>2026-05-06T06:26:57Z</time></trkpt><trkpt lat="14.519230634513203" lon="121.02903004192135"><ele>18.5</ele><time>2026-05-06T06:26:58Z</time></trkpt><trkpt lat="14.519160283084673" lon="121.02906670169234"><ele>18.666666666666664</ele><time>2026-05-06T06:26:59Z</time></trkpt><trkpt lat="14.519098638927513" lon="121.0290959747841"><ele>18.833333333333332</ele><time>2026-05-06T06:27:00Z</time></trkpt><trkpt lat="14.51904047860217" lon="121.0291264213589"><ele>19.0</ele><time>2026-05-06T06:27:01Z</time></trkpt><trkpt lat="14.518980076288422" lon="121.02915800599237"><ele>19.0</ele><time>2026-05-06T06:27:02Z</time></trkpt><trkpt lat="14.51892100952582" lon="121.02919103051114"><ele>19.0</ele><time>2026-05-06T06:27:03Z</time></trkpt><trkpt lat="14.518859298144077" lon="121.02922335731655"><ele>19.0</ele><time>2026-05-06T06:27:04Z</time></trkpt><trkpt lat="14.518797884470695" lon="121.02925526267367"><ele>19.0</ele><time>2026-05-06T06:27:05Z</time></trkpt><trkpt lat="14.518737587406713" lon="121.02928694699835"><ele>19.0</ele><time>2026-05-06T06:27:06Z</time></trkpt><trkpt lat="14.518663633124614" lon="121.02932606338905"><ele>19.0</ele><time>2026-05-06T06:27:07Z</time></trkpt><trkpt lat="14.518584503274477" lon="121.02937783047115"><ele>19.0</ele><time>2026-05-06T06:27:08Z</time></trkpt><trkpt lat="14.518487807052892" lon="121.02943462008278"><ele>19.0</ele><time>2026-05-06T06:27:09Z</time></trkpt><trkpt lat="14.518383810987428" lon="121.02949467701082"><ele>19.0</ele><time>2026-05-06T06:27:10Z</time></trkpt><trkpt lat="14.518272162837153" lon="121.02955445397477"><ele>19.0</ele><time>2026-05-06T06:27:11Z</time></trkpt><trkpt lat="14.51815364103466" lon="121.02961632134804"><ele>19.0</ele><time>2026-05-06T06:27:12Z</time></trkpt><trkpt lat="14.518026464076534" lon="121.02968477442494"><ele>19.5</ele><time>2026-05-06T06:27:13Z</time></trkpt><trkpt lat="14.517893624196901" lon="121.02975368858502"><ele>20.0</ele><time>2026-05-06T06:27:14Z</time></trkpt><trkpt lat="14.517758976782437" lon="121.02982196923583"><ele>20.5</ele><time>2026-05-06T06:27:15Z</time></trkpt><trkpt lat="14.517629144456231" lon="121.0298870531622"><ele>21.0</ele><time>2026-05-06T06:27:16Z</time></trkpt><trkpt lat="14.517511903532984" lon="121.02995038313217"><ele>20.5</ele><time>2026-05-06T06:27:17Z</time></trkpt><trkpt lat="14.517395577419148" lon="121.03001398028589"><ele>20.0</ele><time>2026-05-06T06:27:18Z</time></trkpt><trkpt lat="14.517283786287319" lon="121.03007161023861"><ele>19.5</ele><time>2026-05-06T06:27:19Z</time></trkpt><trkpt lat="14.517181142559794" lon="121.03011768064543"><ele>19.0</ele><time>2026-05-06T06:27:20Z</time></trkpt><trkpt lat="14.517089824547288" lon="121.03017217010428"><ele>19.799999999999997</ele><time>2026-05-06T06:27:21Z</time></trkpt><trkpt lat="14.517002159804683" lon="121.03021736794099"><ele>20.599999999999998</ele><time>2026-05-06T06:27:22Z</time></trkpt><trkpt lat="14.516925748663525" lon="121.03025942624998"><ele>21.4</ele><time>2026-05-06T06:27:23Z</time></trkpt><trkpt lat="14.516844249332678" lon="121.0303043921278"><ele>22.2</ele><time>2026-05-06T06:27:24Z</time></trkpt><trkpt lat="14.516750225249435" lon="121.03035563854631"><ele>23.0</ele><time>2026-05-06T06:27:25Z</time></trkpt><trkpt lat="14.516643143464627" lon="121.03041440432668"><ele>23.0</ele><time>2026-05-06T06:27:26Z</time></trkpt><trkpt lat="14.516529237992513" lon="121.03047609669152"><ele>23.0</ele><time>2026-05-06T06:27:27Z</time></trkpt><trkpt lat="14.51640918723316" lon="121.0305354768367"><ele>23.0</ele><time>2026-05-06T06:27:28Z</time></trkpt><trkpt lat="14.516280412659306" lon="121.03059795053834"><ele>23.0</ele><time>2026-05-06T06:27:29Z</time></trkpt><trkpt lat="14.516158845505856" lon="121.03065795924566"><ele>22.5</ele><time>2026-05-06T06:27:30Z</time></trkpt><trkpt lat="14.516031716588301" lon="121.03072527000214"><ele>22.0</ele><time>2026-05-06T06:27:31Z</time></trkpt><trkpt lat="14.515907952437136" lon="121.03078995841994"><ele>21.5</ele><time>2026-05-06T06:27:32Z</time></trkpt><trkpt lat="14.515786712995133" lon="121.03086104032225"><ele>21.0</ele><time>2026-05-06T06:27:33Z</time></trkpt><trkpt lat="14.515658092987652" lon="121.03092957259321"><ele>21.0</ele><time>2026-05-06T06:27:34Z</time></trkpt><trkpt lat="14.515535154543379" lon="121.03099718106407"><ele>21.0</ele><time>2026-05-06T06:27:35Z</time></trkpt><trkpt lat="14.515410331278773" lon="121.0310628422821"><ele>21.0</ele><time>2026-05-06T06:27:36Z</time></trkpt><trkpt lat="14.515289686991196" lon="121.03112918938322"><ele>21.0</ele><time>2026-05-06T06:27:37Z</time></trkpt><trkpt lat="14.515165262293113" lon="121.03119512614828"><ele>21.75</ele><time>2026-05-06T06:27:38Z</time></trkpt><trkpt lat="14.51504722150534" lon="121.03126031792937"><ele>22.5</ele><time>2026-05-06T06:27:39Z</time></trkpt><trkpt lat="14.514927173845134" lon="121.03132310505352"><ele>23.25</ele><time>2026-05-06T06:27:40Z</time></trkpt><trkpt lat="14.514810696075855" lon="121.03138494548072"><ele>24.0</ele><time>2026-05-06T06:27:41Z</time></trkpt><trkpt lat="14.514698850176492" lon="121.03144609456672"><ele>24.0</ele><time>2026-05-06T06:27:42Z</time></trkpt><trkpt lat="14.514590707892758" lon="121.0315025039317"><ele>24.0</ele><time>2026-05-06T06:27:43Z</time></trkpt><trkpt lat="14.514485241146783" lon="121.03155285647792"><ele>24.0</ele><time>2026-05-06T06:27:44Z</time></trkpt><trkpt lat="14.514380712096685" lon="121.03160673546937"><ele>24.0</ele><time>2026-05-06T06:27:45Z</time></trkpt><trkpt lat="14.514261890165935" lon="121.03167479527775"><ele>23.75</ele><time>2026-05-06T06:27:46Z</time></trkpt><trkpt lat="14.514147379761154" lon="121.03175798566845"><ele>23.5</ele><time>2026-05-06T06:27:47Z</time></trkpt><trkpt lat="14.514041323464484" lon="121.03182658306154"><ele>23.25</ele><time>2026-05-06T06:27:48Z</time></trkpt><trkpt lat="14.513951531921222" lon="121.03189635898379"><ele>23.0</ele><time>2026-05-06T06:27:49Z</time></trkpt><trkpt lat="14.513882296623645" lon="121.03194986431869"><ele>23.0</ele><time>2026-05-06T06:27:50Z</time></trkpt><trkpt lat="14.51381316282742" lon="121.03202248980632"><ele>23.0</ele><time>2026-05-06T06:27:52Z</time></trkpt><trkpt lat="14.513759064752659" lon="121.03208139254552"><ele>23.0</ele><time>2026-05-06T06:27:54Z</time></trkpt><trkpt lat="14.513703155587738" lon="121.03213244749283"><ele>23.0</ele><time>2026-05-06T06:27:57Z</time></trkpt><trkpt lat="14.513647296163064" lon="121.03218510297935"><ele>23.0</ele><time>2026-05-06T06:28:02Z</time></trkpt><trkpt lat="14.513599989748762" lon="121.03223521707805"><ele>23.0</ele><time>2026-05-06T06:28:06Z</time></trkpt><trkpt lat="14.513546323809434" lon="121.03228013912819"><ele>23.2</ele><time>2026-05-06T06:28:12.999Z</time></trkpt><trkpt lat="14.51349473491025" lon="121.03232993091422"><ele>23.4</ele><time>2026-05-06T06:28:22.999Z</time></trkpt><trkpt lat="14.513432862607138" lon="121.03238632642415"><ele>23.599999999999998</ele><time>2026-05-06T06:28:24.999Z</time></trkpt><trkpt lat="14.513350353046473" lon="121.03246087969691"><ele>23.799999999999997</ele><time>2026-05-06T06:28:26.999Z</time></trkpt><trkpt lat="14.513265093097067" lon="121.0325312437905"><ele>24.0</ele><time>2026-05-06T06:28:28.999Z</time></trkpt><trkpt lat="14.513167737141034" lon="121.03258526534482"><ele>24.333333333333332</ele><time>2026-05-06T06:28:30.999Z</time></trkpt><trkpt lat="14.513081987099252" lon="121.03264766111312"><ele>24.666666666666664</ele><time>2026-05-06T06:28:32.999Z</time></trkpt><trkpt lat="14.512999691993084" lon="121.03269159424383"><ele>25.0</ele><time>2026-05-06T06:28:34.999Z</time></trkpt><trkpt lat="14.512907654559973" lon="121.03274300946867"><ele>25.333333333333332</ele><time>2026-05-06T06:28:36.999Z</time></trkpt><trkpt lat="14.512848852382515" lon="121.03277423497865"><ele>25.666666666666664</ele><time>2026-05-06T06:28:38.999Z</time></trkpt><trkpt lat="14.512785576935977" lon="121.0328100046451"><ele>26.0</ele><time>2026-05-06T06:28:42Z</time></trkpt><trkpt lat="14.512729759742976" lon="121.03284112993023"><ele>26.166666666666664</ele><time>2026-05-06T06:28:44Z</time></trkpt><trkpt lat="14.512669723921958" lon="121.03287025699805"><ele>26.333333333333332</ele><time>2026-05-06T06:28:49Z</time></trkpt><trkpt lat="14.512610675963856" lon="121.03290314739604"><ele>26.5</ele><time>2026-05-06T06:28:51Z</time></trkpt><trkpt lat="14.512554790811727" lon="121.03293390597733"><ele>26.666666666666664</ele><time>2026-05-06T06:28:53Z</time></trkpt><trkpt lat="14.512473693118586" lon="121.03298000897881"><ele>26.833333333333332</ele><time>2026-05-06T06:28:56Z</time></trkpt><trkpt lat="14.512410252295869" lon="121.03301445594583"><ele>27.0</ele><time>2026-05-06T06:28:59Z</time></trkpt><trkpt lat="14.512332585170302" lon="121.03306771204758"><ele>27.0</ele><time>2026-05-06T06:29:02Z</time></trkpt><trkpt lat="14.512256166330364" lon="121.03311313733901"><ele>27.000000000000004</ele><time>2026-05-06T06:29:04Z</time></trkpt><trkpt lat="14.512193013109227" lon="121.03313461337083"><ele>27.000000000000004</ele><time>2026-05-06T06:29:07Z</time></trkpt><trkpt lat="14.512125960782775" lon="121.03320880663209"><ele>27.0</ele><time>2026-05-06T06:29:09Z</time></trkpt><trkpt lat="14.51225669996217" lon="121.03333048629186"><ele>27.0</ele><time>2026-05-06T06:29:14Z</time></trkpt><trkpt lat="14.5123513248576" lon="121.03339357788407"><ele>27.0</ele><time>2026-05-06T06:29:16Z</time></trkpt><trkpt lat="14.51240798504867" lon="121.03343444745381"><ele>27.000000000000004</ele><time>2026-05-06T06:29:17Z</time></trkpt><trkpt lat="14.512476468418" lon="121.03348161383461"><ele>27.000000000000004</ele><time>2026-05-06T06:29:18Z</time></trkpt><trkpt lat="14.512555528589454" lon="121.0335353212198"><ele>27.0</ele><time>2026-05-06T06:29:19Z</time></trkpt><trkpt lat="14.512642620009935" lon="121.03359604574815"><ele>27.0</ele><time>2026-05-06T06:29:20Z</time></trkpt><trkpt lat="14.512730527362558" lon="121.03365666583498"><ele>27.0</ele><time>2026-05-06T06:29:21Z</time></trkpt><trkpt lat="14.512818006023075" lon="121.03372196653635"><ele>27.0</ele><time>2026-05-06T06:29:22Z</time></trkpt><trkpt lat="14.51291720024104" lon="121.03379650371508"><ele>27.0</ele><time>2026-05-06T06:29:23Z</time></trkpt><trkpt lat="14.513015897359477" lon="121.03388565267116"><ele>27.0</ele><time>2026-05-06T06:29:24Z</time></trkpt><trkpt lat="14.513110524072646" lon="121.0339704357908"><ele>27.0</ele><time>2026-05-06T06:29:25Z</time></trkpt><trkpt lat="14.513211866098093" lon="121.03405409304354"><ele>27.0</ele><time>2026-05-06T06:29:26Z</time></trkpt><trkpt lat="14.513314445049671" lon="121.0341338906989"><ele>27.0</ele><time>2026-05-06T06:29:27Z</time></trkpt><trkpt lat="14.51343309076358" lon="121.03421775305584"><ele>27.0</ele><time>2026-05-06T06:29:28Z</time></trkpt><trkpt lat="14.513559939629781" lon="121.03430145865991"><ele>26.666666666666664</ele><time>2026-05-06T06:29:29Z</time></trkpt><trkpt lat="14.513692408961955" lon="121.0343852822893"><ele>26.333333333333332</ele><time>2026-05-06T06:29:30Z</time></trkpt><trkpt lat="14.513820279350703" lon="121.03447226414924"><ele>26.0</ele><time>2026-05-06T06:29:31Z</time></trkpt><trkpt lat="14.513950624837177" lon="121.03456441623824"><ele>25.0</ele><time>2026-05-06T06:29:32Z</time></trkpt><trkpt lat="14.514078629540693" lon="121.03465938183682"><ele>24.0</ele><time>2026-05-06T06:29:33Z</time></trkpt><trkpt lat="14.51420082455901" lon="121.03476821445427"><ele>23.0</ele><time>2026-05-06T06:29:34Z</time></trkpt><trkpt lat="14.514317992800116" lon="121.03489077890802"><ele>22.666666666666668</ele><time>2026-05-06T06:29:35Z</time></trkpt><trkpt lat="14.514428419906947" lon="121.03502291833826"><ele>22.333333333333332</ele><time>2026-05-06T06:29:36Z</time></trkpt><trkpt lat="14.5145321659082" lon="121.03516036820386"><ele>22.0</ele><time>2026-05-06T06:29:37Z</time></trkpt><trkpt lat="14.514641627680854" lon="121.03530176622195"><ele>20.666666666666664</ele><time>2026-05-06T06:29:38Z</time></trkpt><trkpt lat="14.514751310683327" lon="121.03544544406887"><ele>19.333333333333332</ele><time>2026-05-06T06:29:39Z</time></trkpt><trkpt lat="14.514860483815381" lon="121.03559300702936"><ele>18.0</ele><time>2026-05-06T06:29:40Z</time></trkpt><trkpt lat="14.514966662480639" lon="121.03574947165515"><ele>17.0</ele><time>2026-05-06T06:29:41Z</time></trkpt><trkpt lat="14.515073853832206" lon="121.0359160054688"><ele>16.0</ele><time>2026-05-06T06:29:42Z</time></trkpt><trkpt lat="14.515162900257728" lon="121.03609040998401"><ele>15.0</ele><time>2026-05-06T06:29:43Z</time></trkpt><trkpt lat="14.51523772491762" lon="121.03627956319153"><ele>15.0</ele><time>2026-05-06T06:29:44Z</time></trkpt><trkpt lat="14.515295778027845" lon="121.03647619402942"><ele>15.0</ele><time>2026-05-06T06:29:45Z</time></trkpt><trkpt lat="14.51534200883631" lon="121.03667719499767"><ele>15.0</ele><time>2026-05-06T06:29:46Z</time></trkpt><trkpt lat="14.51539022277647" lon="121.0368749464871"><ele>16.666666666666668</ele><time>2026-05-06T06:29:47Z</time></trkpt><trkpt lat="14.515444280284152" lon="121.03707572408169"><ele>18.333333333333336</ele><time>2026-05-06T06:29:48Z</time></trkpt><trkpt lat="14.515491695808798" lon="121.0372735888553"><ele>20.0</ele><time>2026-05-06T06:29:49Z</time></trkpt><trkpt lat="14.515533445652785" lon="121.03746793402529"><ele>20.333333333333336</ele><time>2026-05-06T06:29:50Z</time></trkpt><trkpt lat="14.515578276907283" lon="121.03767299741466"><ele>20.666666666666668</ele><time>2026-05-06T06:29:51Z</time></trkpt><trkpt lat="14.515626031641235" lon="121.03786554320489"><ele>21.0</ele><time>2026-05-06T06:29:52Z</time></trkpt><trkpt lat="14.51567552297071" lon="121.03806123158087"><ele>21.0</ele><time>2026-05-06T06:29:53Z</time></trkpt><trkpt lat="14.515729311741007" lon="121.03825353031084"><ele>21.0</ele><time>2026-05-06T06:29:54Z</time></trkpt><trkpt lat="14.515779117441488" lon="121.03845330129398"><ele>21.0</ele><time>2026-05-06T06:29:55Z</time></trkpt><trkpt lat="14.515827401648309" lon="121.03865209311218"><ele>21.0</ele><time>2026-05-06T06:29:56Z</time></trkpt><trkpt lat="14.515870418082223" lon="121.03885573110574"><ele>21.0</ele><time>2026-05-06T06:29:57Z</time></trkpt><trkpt lat="14.515911267007494" lon="121.03904825611582"><ele>21.0</ele><time>2026-05-06T06:29:58Z</time></trkpt><trkpt lat="14.515938500575665" lon="121.03923689992124"><ele>22.0</ele><time>2026-05-06T06:29:59Z</time></trkpt><trkpt lat="14.51595847897394" lon="121.03942302343134"><ele>23.0</ele><time>2026-05-06T06:30:00Z</time></trkpt><trkpt lat="14.51597348470206" lon="121.0396127118174"><ele>24.0</ele><time>2026-05-06T06:30:01Z</time></trkpt><trkpt lat="14.515985707530838" lon="121.03979570847616"><ele>24.0</ele><time>2026-05-06T06:30:02Z</time></trkpt><trkpt lat="14.516000456285687" lon="121.03997473117133"><ele>24.0</ele><time>2026-05-06T06:30:03Z</time></trkpt><trkpt lat="14.516008902429387" lon="121.04015653365116"><ele>24.0</ele><time>2026-05-06T06:30:04Z</time></trkpt><trkpt lat="14.516018165441366" lon="121.0403433647374"><ele>24.0</ele><time>2026-05-06T06:30:05Z</time></trkpt><trkpt lat="14.516019612684472" lon="121.04053220776507"><ele>24.0</ele><time>2026-05-06T06:30:06Z</time></trkpt><trkpt lat="14.516021131942844" lon="121.04072111975557"><ele>24.0</ele><time>2026-05-06T06:30:07Z</time></trkpt><trkpt lat="14.516024899957584" lon="121.04091576679586"><ele>24.0</ele><time>2026-05-06T06:30:08Z</time></trkpt><trkpt lat="14.516029442410495" lon="121.04111365701395"><ele>24.0</ele><time>2026-05-06T06:30:09Z</time></trkpt><trkpt lat="14.516040404454959" lon="121.04130709807974"><ele>24.0</ele><time>2026-05-06T06:30:10Z</time></trkpt><trkpt lat="14.516049607131622" lon="121.0414998647271"><ele>24.0</ele><time>2026-05-06T06:30:11Z</time></trkpt><trkpt lat="14.516058390048622" lon="121.04168711793119"><ele>24.0</ele><time>2026-05-06T06:30:12Z</time></trkpt><trkpt lat="14.51607225139571" lon="121.04187406633537"><ele>24.0</ele><time>2026-05-06T06:30:13Z</time></trkpt><trkpt lat="14.516084892006823" lon="121.04206062576635"><ele>24.0</ele><time>2026-05-06T06:30:14Z</time></trkpt><trkpt lat="14.516083202310202" lon="121.04225223303301"><ele>24.0</ele><time>2026-05-06T06:30:14.999Z</time></trkpt><trkpt lat="14.516081555921323" lon="121.04244455765337"><ele>24.0</ele><time>2026-05-06T06:30:15.999Z</time></trkpt><trkpt lat="14.51608865328671" lon="121.0426317753201"><ele>24.666666666666664</ele><time>2026-05-06T06:30:16.999Z</time></trkpt><trkpt lat="14.516095493334038" lon="121.04282147325077"><ele>25.333333333333332</ele><time>2026-05-06T06:30:17.999Z</time></trkpt><trkpt lat="14.516102169547365" lon="121.04301686801134"><ele>26.0</ele><time>2026-05-06T06:30:18.999Z</time></trkpt><trkpt lat="14.516101799270322" lon="121.04321740795571"><ele>26.333333333333332</ele><time>2026-05-06T06:30:19.999Z</time></trkpt><trkpt lat="14.516101880993084" lon="121.04342217176814"><ele>26.666666666666664</ele><time>2026-05-06T06:30:20.999Z</time></trkpt><trkpt lat="14.516115130069783" lon="121.0436293710847"><ele>27.0</ele><time>2026-05-06T06:30:21.999Z</time></trkpt><trkpt lat="14.516138021338682" lon="121.04383108593852"><ele>27.0</ele><time>2026-05-06T06:30:22.999Z</time></trkpt><trkpt lat="14.516149574002474" lon="121.04403901530874"><ele>27.0</ele><time>2026-05-06T06:30:23.999Z</time></trkpt><trkpt lat="14.516143854061744" lon="121.0442503369263"><ele>27.0</ele><time>2026-05-06T06:30:24.999Z</time></trkpt><trkpt lat="14.516139891834145" lon="121.04444970280935"><ele>26.333333333333336</ele><time>2026-05-06T06:30:25.999Z</time></trkpt><trkpt lat="14.516142980146148" lon="121.04464980058776"><ele>25.666666666666668</ele><time>2026-05-06T06:30:26.999Z</time></trkpt><trkpt lat="14.51614865789141" lon="121.04484736147288"><ele>25.0</ele><time>2026-05-06T06:30:27.999Z</time></trkpt><trkpt lat="14.516154565703417" lon="121.045040794643"><ele>25.0</ele><time>2026-05-06T06:30:28.999Z</time></trkpt><trkpt lat="14.516163320511486" lon="121.0452368016245"><ele>25.0</ele><time>2026-05-06T06:30:29.999Z</time></trkpt><trkpt lat="14.516174648432045" lon="121.04542461523174"><ele>25.0</ele><time>2026-05-06T06:30:30.999Z</time></trkpt><trkpt lat="14.51618654919528" lon="121.04561460363688"><ele>25.0</ele><time>2026-05-06T06:30:31.999Z</time></trkpt><trkpt lat="14.516197749603148" lon="121.04578360884358"><ele>25.0</ele><time>2026-05-06T06:30:32.999Z</time></trkpt><trkpt lat="14.516211075499704" lon="121.04593839413879"><ele>25.0</ele><time>2026-05-06T06:30:33.999Z</time></trkpt><trkpt lat="14.51622124123639" lon="121.04607359161098"><ele>25.0</ele><time>2026-05-06T06:30:34.999Z</time></trkpt><trkpt lat="14.516230901241556" lon="121.04618754054276"><ele>25.833333333333336</ele><time>2026-05-06T06:30:35.999Z</time></trkpt><trkpt lat="14.516240749168471" lon="121.0462744182488"><ele>26.666666666666668</ele><time>2026-05-06T06:30:36.999Z</time></trkpt><trkpt lat="14.516253667144712" lon="121.04636074298563"><ele>27.5</ele><time>2026-05-06T06:30:37.999Z</time></trkpt><trkpt lat="14.516270023498414" lon="121.04644559006795"><ele>28.333333333333336</ele><time>2026-05-06T06:30:38.999Z</time></trkpt><trkpt lat="14.516287139306954" lon="121.04654432625608"><ele>29.166666666666668</ele><time>2026-05-06T06:30:39.999Z</time></trkpt><trkpt lat="14.516302421392377" lon="121.04664171489888"><ele>30.0</ele><time>2026-05-06T06:30:40.999Z</time></trkpt><trkpt lat="14.516325947259077" lon="121.04675198155539"><ele>30.25</ele><time>2026-05-06T06:30:41.999Z</time></trkpt><trkpt lat="14.51634667853432" lon="121.04686661783366"><ele>30.5</ele><time>2026-05-06T06:30:42.999Z</time></trkpt><trkpt lat="14.516370037792875" lon="121.04699176955204"><ele>30.75</ele><time>2026-05-06T06:30:43.999Z</time></trkpt><trkpt lat="14.516401345013286" lon="121.04712370995827"><ele>31.0</ele><time>2026-05-06T06:30:44.999Z</time></trkpt><trkpt lat="14.516433021819072" lon="121.04724767855848"><ele>31.0</ele><time>2026-05-06T06:30:45.999Z</time></trkpt><trkpt lat="14.516464268109708" lon="121.04737669303229"><ele>31.0</ele><time>2026-05-06T06:30:46.999Z</time></trkpt><trkpt lat="14.516501551782676" lon="121.04750538003292"><ele>31.0</ele><time>2026-05-06T06:30:47.999Z</time></trkpt><trkpt lat="14.516537688579211" lon="121.04763322034145"><ele>31.0</ele><time>2026-05-06T06:30:49Z</time></trkpt><trkpt lat="14.516574033426643" lon="121.0477713935018"><ele>30.5</ele><time>2026-05-06T06:30:50Z</time></trkpt><trkpt lat="14.516613294523577" lon="121.04790076879533"><ele>30.0</ele><time>2026-05-06T06:30:51Z</time></trkpt><trkpt lat="14.516654610085043" lon="121.04803669804723"><ele>29.5</ele><time>2026-05-06T06:30:52Z</time></trkpt><trkpt lat="14.516701961918026" lon="121.04817457597548"><ele>29.0</ele><time>2026-05-06T06:30:53Z</time></trkpt><trkpt lat="14.51674824926771" lon="121.04830468377224"><ele>28.5</ele><time>2026-05-06T06:30:54Z</time></trkpt><trkpt lat="14.516796016963466" lon="121.04844298039623"><ele>28.0</ele><time>2026-05-06T06:30:55Z</time></trkpt><trkpt lat="14.516849054795417" lon="121.04858807566163"><ele>27.5</ele><time>2026-05-06T06:30:56Z</time></trkpt><trkpt lat="14.516901554769069" lon="121.04872508209272"><ele>27.0</ele><time>2026-05-06T06:30:57Z</time></trkpt><trkpt lat="14.516957792374011" lon="121.04885915752725"><ele>27.0</ele><time>2026-05-06T06:30:58Z</time></trkpt><trkpt lat="14.517020330392176" lon="121.04898255922"><ele>27.0</ele><time>2026-05-06T06:30:59Z</time></trkpt><trkpt lat="14.517058304074693" lon="121.04911375030176"><ele>27.0</ele><time>2026-05-06T06:31:00Z</time></trkpt><trkpt lat="14.517111771698007" lon="121.04923134321963"><ele>27.0</ele><time>2026-05-06T06:31:01Z</time></trkpt><trkpt lat="14.517160071501879" lon="121.04933610572569"><ele>25.8</ele><time>2026-05-06T06:31:02Z</time></trkpt><trkpt lat="14.51718853172731" lon="121.04942018167866"><ele>24.6</ele><time>2026-05-06T06:31:03Z</time></trkpt><trkpt lat="14.517223242420691" lon="121.04952216745129"><ele>23.400000000000002</ele><time>2026-05-06T06:31:04Z</time></trkpt><trkpt lat="14.51725120046773" lon="121.04961413044946"><ele>22.200000000000003</ele><time>2026-05-06T06:31:05Z</time></trkpt><trkpt lat="14.517276860506259" lon="121.04969581046089"><ele>21.0</ele><time>2026-05-06T06:31:06Z</time></trkpt><trkpt lat="14.517306087874635" lon="121.049785259026"><ele>21.0</ele><time>2026-05-06T06:31:07Z</time></trkpt><trkpt lat="14.51733236250186" lon="121.04985980996108"><ele>21.0</ele><time>2026-05-06T06:31:08Z</time></trkpt><trkpt lat="14.517357271079433" lon="121.04994784428764"><ele>21.0</ele><time>2026-05-06T06:31:09Z</time></trkpt><trkpt lat="14.517394275451993" lon="121.05005525119462"><ele>21.0</ele><time>2026-05-06T06:31:10Z</time></trkpt><trkpt lat="14.517435479289643" lon="121.05016367794858"><ele>21.0</ele><time>2026-05-06T06:31:11Z</time></trkpt><trkpt lat="14.517470506724324" lon="121.0502894301279"><ele>21.0</ele><time>2026-05-06T06:31:12Z</time></trkpt><trkpt lat="14.517496869190126" lon="121.05037201439559"><ele>21.0</ele><time>2026-05-06T06:31:13Z</time></trkpt><trkpt lat="14.517535448480075" lon="121.05047023196587"><ele>21.0</ele><time>2026-05-06T06:31:14Z</time></trkpt><trkpt lat="14.517558905203938" lon="121.05056262751562"><ele>21.0</ele><time>2026-05-06T06:31:15Z</time></trkpt><trkpt lat="14.51756753979634" lon="121.05063400299792"><ele>21.0</ele><time>2026-05-06T06:31:16Z</time></trkpt><trkpt lat="14.517568014879098" lon="121.05071529650121"><ele>21.0</ele><time>2026-05-06T06:31:17Z</time></trkpt><trkpt lat="14.517561231235238" lon="121.05078960143999"><ele>20.8</ele><time>2026-05-06T06:31:18Z</time></trkpt><trkpt lat="14.517543556421584" lon="121.05088775660357"><ele>20.6</ele><time>2026-05-06T06:31:20Z</time></trkpt><trkpt lat="14.51748410975871" lon="121.05096468608778"><ele>20.4</ele><time>2026-05-06T06:31:22Z</time></trkpt><trkpt lat="14.517427973784343" lon="121.05100229797517"><ele>20.2</ele><time>2026-05-06T06:31:23Z</time></trkpt><trkpt lat="14.517285183988664" lon="121.05104715441541"><ele>20.0</ele><time>2026-05-06T06:31:25Z</time></trkpt><trkpt lat="14.51720163146248" lon="121.05108781553284"><ele>20.0</ele><time>2026-05-06T06:31:26Z</time></trkpt><trkpt lat="14.51710970211725" lon="121.05113428337104"><ele>20.0</ele><time>2026-05-06T06:31:27Z</time></trkpt><trkpt lat="14.517016632119427" lon="121.05117307823159"><ele>20.0</ele><time>2026-05-06T06:31:28Z</time></trkpt><trkpt lat="14.516918628019928" lon="121.05121584834161"><ele>20.0</ele><time>2026-05-06T06:31:29Z</time></trkpt><trkpt lat="14.51682663347086" lon="121.05125797864758"><ele>20.0</ele><time>2026-05-06T06:31:30Z</time></trkpt><trkpt lat="14.516739832445248" lon="121.05129726944755"><ele>21.0</ele><time>2026-05-06T06:31:31Z</time></trkpt><trkpt lat="14.516664250185904" lon="121.05133455577378"><ele>22.0</ele><time>2026-05-06T06:31:32Z</time></trkpt><trkpt lat="14.51659708336032" lon="121.05136582551796"><ele>23.0</ele><time>2026-05-06T06:31:33Z</time></trkpt><trkpt lat="14.516535712441355" lon="121.05139299261846"><ele>24.0</ele><time>2026-05-06T06:31:34Z</time></trkpt><trkpt lat="14.516462941432751" lon="121.0514200646827"><ele>24.999999999999996</ele><time>2026-05-06T06:31:36Z</time></trkpt><trkpt lat="14.5163932311033" lon="121.05145617378628"><ele>26.0</ele><time>2026-05-06T06:31:38Z</time></trkpt><trkpt lat="14.516316156984056" lon="121.05149478183836"><ele>25.999999999999996</ele><time>2026-05-06T06:31:40Z</time></trkpt><trkpt lat="14.516255308384656" lon="121.0515250670305"><ele>26.0</ele><time>2026-05-06T06:31:41Z</time></trkpt><trkpt lat="14.516190945291399" lon="121.05155594261198"><ele>26.0</ele><time>2026-05-06T06:31:42Z</time></trkpt><trkpt lat="14.516125573227546" lon="121.05158479043543"><ele>26.0</ele><time>2026-05-06T06:31:43Z</time></trkpt><trkpt lat="14.516059244727257" lon="121.05161367240042"><ele>25.999999999999996</ele><time>2026-05-06T06:31:44Z</time></trkpt><trkpt lat="14.51600097767955" lon="121.0516400340383"><ele>26.0</ele><time>2026-05-06T06:31:45Z</time></trkpt><trkpt lat="14.515894358705106" lon="121.05169453491139"><ele>25.6</ele><time>2026-05-06T06:31:47Z</time></trkpt><trkpt lat="14.515801410386766" lon="121.05174752601314"><ele>25.200000000000003</ele><time>2026-05-06T06:31:49Z</time></trkpt><trkpt lat="14.515713894881774" lon="121.05179946460903"><ele>24.799999999999997</ele><time>2026-05-06T06:31:51Z</time></trkpt><trkpt lat="14.515619411384044" lon="121.0518499668753"><ele>24.4</ele><time>2026-05-06T06:31:53Z</time></trkpt><trkpt lat="14.51554218495549" lon="121.05188270192215"><ele>24.0</ele><time>2026-05-06T06:31:55Z</time></trkpt><trkpt lat="14.515466021996275" lon="121.05192233861378"><ele>24.2</ele><time>2026-05-06T06:31:57Z</time></trkpt><trkpt lat="14.515384479627706" lon="121.05195743120142"><ele>24.4</ele><time>2026-05-06T06:31:59Z</time></trkpt><trkpt lat="14.515307536232731" lon="121.05199074691674"><ele>24.6</ele><time>2026-05-06T06:32:01Z</time></trkpt><trkpt lat="14.51523833036106" lon="121.05202548307206"><ele>24.8</ele><time>2026-05-06T06:32:03Z</time></trkpt><trkpt lat="14.515144202234898" lon="121.05207208043869"><ele>25.0</ele><time>2026-05-06T06:32:05Z</time></trkpt><trkpt lat="14.515061146550304" lon="121.05212564793635"><ele>25.0</ele><time>2026-05-06T06:32:07Z</time></trkpt><trkpt lat="14.514954380731158" lon="121.05218313012627"><ele>25.0</ele><time>2026-05-06T06:32:09Z</time></trkpt><trkpt lat="14.514894799929783" lon="121.0522162017641"><ele>25.0</ele><time>2026-05-06T06:32:10Z</time></trkpt><trkpt lat="14.514793028772328" lon="121.05228516315559"><ele>25.0</ele><time>2026-05-06T06:32:12Z</time></trkpt><trkpt lat="14.514685832490725" lon="121.05236257823583"><ele>25.0</ele><time>2026-05-06T06:32:14Z</time></trkpt><trkpt lat="14.514626809895468" lon="121.05240463029537"><ele>25.000000000000004</ele><time>2026-05-06T06:32:15Z</time></trkpt><trkpt lat="14.514572028704439" lon="121.05244926537264"><ele>25.0</ele><time>2026-05-06T06:32:16Z</time></trkpt><trkpt lat="14.514524820798417" lon="121.05250228378479"><ele>25.0</ele><time>2026-05-06T06:32:17Z</time></trkpt><trkpt lat="14.51447640229018" lon="121.0525656380854"><ele>25.0</ele><time>2026-05-06T06:32:18Z</time></trkpt><trkpt lat="14.514429486575244" lon="121.05262688683004"><ele>25.000000000000004</ele><time>2026-05-06T06:32:19Z</time></trkpt><trkpt lat="14.514383585225486" lon="121.05269595263783"><ele>25.0</ele><time>2026-05-06T06:32:20Z</time></trkpt><trkpt lat="14.5143515530351" lon="121.05280214971256"><ele>24.000000000000004</ele><time>2026-05-06T06:32:21.999Z</time></trkpt><trkpt lat="14.514296821642477" lon="121.05289838690591"><ele>23.0</ele><time>2026-05-06T06:32:23.999Z</time></trkpt><trkpt lat="14.514251802012476" lon="121.0529736777577"><ele>22.0</ele><time>2026-05-06T06:32:25.999Z</time></trkpt><trkpt lat="14.514195992710606" lon="121.05302997462597"><ele>21.0</ele><time>2026-05-06T06:32:30.999Z</time></trkpt><trkpt lat="14.514138404616924" lon="121.05309364202742"><ele>20.0</ele><time>2026-05-06T06:32:33.999Z</time></trkpt><trkpt lat="14.514080984349892" lon="121.05313586200819"><ele>19.0</ele><time>2026-05-06T06:32:36.999Z</time></trkpt><trkpt lat="14.513999084540481" lon="121.05318693264314"><ele>19.0</ele><time>2026-05-06T06:32:39.999Z</time></trkpt><trkpt lat="14.513946617276625" lon="121.05322344167152"><ele>19.0</ele><time>2026-05-06T06:32:41.999Z</time></trkpt><trkpt lat="14.513889344113617" lon="121.05325694719025"><ele>19.0</ele><time>2026-05-06T06:32:43.999Z</time></trkpt><trkpt lat="14.513800534353251" lon="121.05329842999681"><ele>19.0</ele><time>2026-05-06T06:32:46.999Z</time></trkpt><trkpt lat="14.513735150117597" lon="121.0533361266"><ele>19.0</ele><time>2026-05-06T06:32:48.999Z</time></trkpt><trkpt lat="14.513661169015199" lon="121.05338014000186"><ele>19.0</ele><time>2026-05-06T06:32:50.999Z</time></trkpt><trkpt lat="14.513604060490769" lon="121.05341826379636"><ele>18.333333333333332</ele><time>2026-05-06T06:32:52.999Z</time></trkpt><trkpt lat="14.513532151267746" lon="121.05346513636042"><ele>17.666666666666664</ele><time>2026-05-06T06:32:55.999Z</time></trkpt><trkpt lat="14.513463012146744" lon="121.05350559021436"><ele>17.0</ele><time>2026-05-06T06:33:00Z</time></trkpt><trkpt lat="14.513409185634421" lon="121.05354641777258"><ele>16.333333333333332</ele><time>2026-05-06T06:33:02Z</time></trkpt><trkpt lat="14.513348396070974" lon="121.05361123711204"><ele>15.666666666666666</ele><time>2026-05-06T06:33:04Z</time></trkpt><trkpt lat="14.51328131081589" lon="121.05366296807334"><ele>15.0</ele><time>2026-05-06T06:33:06Z</time></trkpt><trkpt lat="14.513213479940484" lon="121.05374228251125"><ele>15.0</ele><time>2026-05-06T06:33:08Z</time></trkpt><trkpt lat="14.51314948249897" lon="121.05383848670556"><ele>15.0</ele><time>2026-05-06T06:33:10Z</time></trkpt><trkpt lat="14.513090488811866" lon="121.05394289283724"><ele>15.0</ele><time>2026-05-06T06:33:12Z</time></trkpt><trkpt lat="14.513040736270568" lon="121.05405703316843"><ele>15.0</ele><time>2026-05-06T06:33:14Z</time></trkpt><trkpt lat="14.513019170215756" lon="121.05412084622195"><ele>15.0</ele><time>2026-05-06T06:33:15Z</time></trkpt><trkpt lat="14.512998283593513" lon="121.05418610389947"><ele>15.0</ele><time>2026-05-06T06:33:16Z</time></trkpt><trkpt lat="14.512981975685939" lon="121.05425784811136"><ele>15.0</ele><time>2026-05-06T06:33:17Z</time></trkpt><trkpt lat="14.512964332090247" lon="121.05433024078094"><ele>15.0</ele><time>2026-05-06T06:33:18Z</time></trkpt><trkpt lat="14.512948027465807" lon="121.05440474430304"><ele>15.0</ele><time>2026-05-06T06:33:19Z</time></trkpt><trkpt lat="14.512932374366503" lon="121.05448125448815"><ele>15.0</ele><time>2026-05-06T06:33:20Z</time></trkpt><trkpt lat="14.512916396794738" lon="121.05454838583731"><ele>15.0</ele><time>2026-05-06T06:33:21Z</time></trkpt><trkpt lat="14.512901233663998" lon="121.05464925651063"><ele>15.0</ele><time>2026-05-06T06:33:23Z</time></trkpt><trkpt lat="14.512885387082537" lon="121.05473667777903"><ele>15.0</ele><time>2026-05-06T06:33:26Z</time></trkpt><trkpt lat="14.5129018149541" lon="121.05467264694879"><ele>15.0</ele><time>2026-05-06T07:42:13Z</time></trkpt><trkpt lat="14.512916360749413" lon="121.05460861407313"><ele>15.0</ele><time>2026-05-06T07:42:17Z</time></trkpt><trkpt lat="14.51292975895084" lon="121.05454115853566"><ele>15.0</ele><time>2026-05-06T07:42:20Z</time></trkpt><trkpt lat="14.512940839690541" lon="121.05447208910276"><ele>15.0</ele><time>2026-05-06T07:42:24Z</time></trkpt><trkpt lat="14.512957318241494" lon="121.05440510320446"><ele>15.0</ele><time>2026-05-06T07:42:27Z</time></trkpt><trkpt lat="14.512971662995696" lon="121.05431680001611"><ele>15.0</ele><time>2026-05-06T07:42:30Z</time></trkpt><trkpt lat="14.512987385170597" lon="121.05424377546404"><ele>15.0</ele><time>2026-05-06T07:42:34.001Z</time></trkpt><trkpt lat="14.513003553397557" lon="121.0541453109152"><ele>15.0</ele><time>2026-05-06T07:42:38.001Z</time></trkpt><trkpt lat="14.513028728964649" lon="121.0540658291505"><ele>15.0</ele><time>2026-05-06T07:42:40.001Z</time></trkpt><trkpt lat="14.513059847315054" lon="121.05396899919378"><ele>15.0</ele><time>2026-05-06T07:42:42.001Z</time></trkpt><trkpt lat="14.51312630804439" lon="121.05384982980843"><ele>15.0</ele><time>2026-05-06T07:42:44.001Z</time></trkpt><trkpt lat="14.513166403657776" lon="121.05379502029425"><ele>15.0</ele><time>2026-05-06T07:42:45.001Z</time></trkpt><trkpt lat="14.513290566291367" lon="121.05373469344046"><ele>15.0</ele><time>2026-05-06T07:42:47.001Z</time></trkpt><trkpt lat="14.513339680925636" lon="121.05368734340783"><ele>15.0</ele><time>2026-05-06T07:42:48.001Z</time></trkpt><trkpt lat="14.513437065580334" lon="121.05359842319041"><ele>15.0</ele><time>2026-05-06T07:42:50.001Z</time></trkpt><trkpt lat="14.513504026688446" lon="121.05353991157206"><ele>15.0</ele><time>2026-05-06T07:42:52.001Z</time></trkpt><trkpt lat="14.513578201090414" lon="121.05348306447569"><ele>15.0</ele><time>2026-05-06T07:42:54.001Z</time></trkpt><trkpt lat="14.513634101488318" lon="121.05344968232632"><ele>15.0</ele><time>2026-05-06T07:42:55.001Z</time></trkpt><trkpt lat="14.513706295491046" lon="121.05340657007973"><ele>15.0</ele><time>2026-05-06T07:42:56.001Z</time></trkpt><trkpt lat="14.513783522540896" lon="121.05336045223926"><ele>15.0</ele><time>2026-05-06T07:42:57.001Z</time></trkpt><trkpt lat="14.513859309711345" lon="121.0533151942549"><ele>15.0</ele><time>2026-05-06T07:42:58.001Z</time></trkpt><trkpt lat="14.513923244825522" lon="121.0532770136096"><ele>15.666666666666666</ele><time>2026-05-06T07:42:59.001Z</time></trkpt><trkpt lat="14.51398697203761" lon="121.05322839896209"><ele>16.333333333333332</ele><time>2026-05-06T07:43:00.001Z</time></trkpt><trkpt lat="14.514052024231079" lon="121.05318306927192"><ele>17.0</ele><time>2026-05-06T07:43:01.001Z</time></trkpt><trkpt lat="14.514118710295854" lon="121.05313660086537"><ele>17.666666666666664</ele><time>2026-05-06T07:43:02.001Z</time></trkpt><trkpt lat="14.514188695778316" lon="121.0530852900949"><ele>18.333333333333332</ele><time>2026-05-06T07:43:03.001Z</time></trkpt><trkpt lat="14.514257035253888" lon="121.05302899117295"><ele>19.0</ele><time>2026-05-06T07:43:04.001Z</time></trkpt><trkpt lat="14.514317867634308" lon="121.05297605534811"><ele>19.0</ele><time>2026-05-06T07:43:05.001Z</time></trkpt><trkpt lat="14.514369083958856" lon="121.05290274924486"><ele>19.0</ele><time>2026-05-06T07:43:06.001Z</time></trkpt><trkpt lat="14.514409140525231" lon="121.05285031049922"><ele>19.0</ele><time>2026-05-06T07:43:07.001Z</time></trkpt><trkpt lat="14.514444386508377" lon="121.05278220786927"><ele>19.0</ele><time>2026-05-06T07:43:08.001Z</time></trkpt><trkpt lat="14.514492481028961" lon="121.05270091840544"><ele>19.0</ele><time>2026-05-06T07:43:10.001Z</time></trkpt><trkpt lat="14.514551749188946" lon="121.05260699301387"><ele>19.0</ele><time>2026-05-06T07:43:14.001Z</time></trkpt><trkpt lat="14.51462127460041" lon="121.05252282418118"><ele>19.0</ele><time>2026-05-06T07:43:16.001Z</time></trkpt><trkpt lat="14.514664107029233" lon="121.05247097026299"><ele>19.0</ele><time>2026-05-06T07:43:17.001Z</time></trkpt><trkpt lat="14.51471569723369" lon="121.05241641792827"><ele>19.0</ele><time>2026-05-06T07:43:18.001Z</time></trkpt><trkpt lat="14.514782839545015" lon="121.05236259075323"><ele>19.0</ele><time>2026-05-06T07:43:19.001Z</time></trkpt><trkpt lat="14.514858498750751" lon="121.05231184690531"><ele>19.0</ele><time>2026-05-06T07:43:20.001Z</time></trkpt><trkpt lat="14.514922079542222" lon="121.05226920383204"><ele>19.0</ele><time>2026-05-06T07:43:21.001Z</time></trkpt><trkpt lat="14.515027121308414" lon="121.05221665916363"><ele>19.833333333333332</ele><time>2026-05-06T07:43:23.001Z</time></trkpt><trkpt lat="14.515089790323762" lon="121.05218502468492"><ele>20.666666666666664</ele><time>2026-05-06T07:43:24.001Z</time></trkpt><trkpt lat="14.515165913635302" lon="121.05214659863091"><ele>21.5</ele><time>2026-05-06T07:43:25.001Z</time></trkpt><trkpt lat="14.515240681130752" lon="121.0521088569856"><ele>22.333333333333332</ele><time>2026-05-06T07:43:26.001Z</time></trkpt><trkpt lat="14.515311570082103" lon="121.05207307320056"><ele>23.166666666666668</ele><time>2026-05-06T07:43:27.001Z</time></trkpt><trkpt lat="14.515378464582762" lon="121.05203930571417"><ele>24.0</ele><time>2026-05-06T07:43:28.001Z</time></trkpt><trkpt lat="14.515439080635561" lon="121.05200800441239"><ele>24.0</ele><time>2026-05-06T07:43:29.001Z</time></trkpt><trkpt lat="14.51553484546267" lon="121.05195947519822"><ele>24.0</ele><time>2026-05-06T07:43:31.001Z</time></trkpt><trkpt lat="14.51563741868152" lon="121.0519082014083"><ele>24.0</ele><time>2026-05-06T07:43:33.001Z</time></trkpt><trkpt lat="14.515746906804974" lon="121.05185347103946"><ele>24.0</ele><time>2026-05-06T07:43:35.001Z</time></trkpt><trkpt lat="14.515854680930923" lon="121.05179959745577"><ele>24.0</ele><time>2026-05-06T07:43:37.001Z</time></trkpt><trkpt lat="14.515912057914168" lon="121.05177095070857"><ele>24.0</ele><time>2026-05-06T07:43:38.001Z</time></trkpt><trkpt lat="14.516024917189464" lon="121.05171730336822"><ele>24.0</ele><time>2026-05-06T07:43:40Z</time></trkpt><trkpt lat="14.516082881769968" lon="121.05169002123849"><ele>24.0</ele><time>2026-05-06T07:43:41Z</time></trkpt><trkpt lat="14.516179138807997" lon="121.05164497692498"><ele>24.0</ele><time>2026-05-06T07:43:43Z</time></trkpt><trkpt lat="14.516262512524245" lon="121.05160596147314"><ele>24.0</ele><time>2026-05-06T07:43:46Z</time></trkpt><trkpt lat="14.51632032531974" lon="121.05157890747181"><ele>24.333333333333332</ele><time>2026-05-06T07:43:48Z</time></trkpt><trkpt lat="14.516383158368283" lon="121.05154950420396"><ele>24.666666666666664</ele><time>2026-05-06T07:43:50Z</time></trkpt><trkpt lat="14.516445942704744" lon="121.05152012376662"><ele>25.0</ele><time>2026-05-06T07:43:52Z</time></trkpt><trkpt lat="14.516511806646568" lon="121.05148710922582"><ele>25.333333333333332</ele><time>2026-05-06T07:43:54Z</time></trkpt><trkpt lat="14.516571680184997" lon="121.05145696572764"><ele>25.666666666666664</ele><time>2026-05-06T07:43:57Z</time></trkpt><trkpt lat="14.51666048949483" lon="121.05141193916116"><ele>26.0</ele><time>2026-05-06T07:44:00Z</time></trkpt><trkpt lat="14.516760893663308" lon="121.05135882078962"><ele>26.0</ele><time>2026-05-06T07:44:02Z</time></trkpt><trkpt lat="14.516817715914563" lon="121.05132856527968"><ele>26.0</ele><time>2026-05-06T07:44:03Z</time></trkpt><trkpt lat="14.516873832380242" lon="121.0512986855804"><ele>26.0</ele><time>2026-05-06T07:44:04Z</time></trkpt><trkpt lat="14.516961762885435" lon="121.05125131692493"><ele>26.0</ele><time>2026-05-06T07:44:06Z</time></trkpt><trkpt lat="14.517033356624934" lon="121.05121742840728"><ele>26.0</ele><time>2026-05-06T07:44:08Z</time></trkpt><trkpt lat="14.517094833420035" lon="121.05118832865791"><ele>26.0</ele><time>2026-05-06T07:44:10Z</time></trkpt><trkpt lat="14.517152115616513" lon="121.05116121438803"><ele>26.0</ele><time>2026-05-06T07:44:15Z</time></trkpt><trkpt lat="14.51721357707246" lon="121.05113212190054"><ele>25.142857142857142</ele><time>2026-05-06T07:44:18Z</time></trkpt><trkpt lat="14.51727447430162" lon="121.05110329648166"><ele>24.28571428571429</ele><time>2026-05-06T07:44:20Z</time></trkpt><trkpt lat="14.517348695133972" lon="121.0510681643981"><ele>23.42857142857143</ele><time>2026-05-06T07:44:23Z</time></trkpt><trkpt lat="14.517408831684579" lon="121.05104140236342"><ele>22.57142857142857</ele><time>2026-05-06T07:44:26Z</time></trkpt><trkpt lat="14.51747612823911" lon="121.05101183860681"><ele>21.714285714285715</ele><time>2026-05-06T07:44:29Z</time></trkpt><trkpt lat="14.51755785573426" lon="121.05098913557553"><ele>20.857142857142858</ele><time>2026-05-06T07:44:34.001Z</time></trkpt><trkpt lat="14.517612040357685" lon="121.05102574722075"><ele>20.0</ele><time>2026-05-06T07:44:35.001Z</time></trkpt><trkpt lat="14.517646921687717" lon="121.05108829258529"><ele>20.0</ele><time>2026-05-06T07:44:36.001Z</time></trkpt><trkpt lat="14.517703630560103" lon="121.0511702067024"><ele>20.0</ele><time>2026-05-06T07:44:38.001Z</time></trkpt><trkpt lat="14.517768357367558" lon="121.05125486079422"><ele>20.0</ele><time>2026-05-06T07:44:40.001Z</time></trkpt><trkpt lat="14.517801071635144" lon="121.0513220250666"><ele>20.0</ele><time>2026-05-06T07:44:41.001Z</time></trkpt><trkpt lat="14.517844178733625" lon="121.051390173895"><ele>20.0</ele><time>2026-05-06T07:44:42.001Z</time></trkpt><trkpt lat="14.517887665292568" lon="121.0514451991165"><ele>20.0</ele><time>2026-05-06T07:44:43.001Z</time></trkpt><trkpt lat="14.517950050628393" lon="121.05151695454875"><ele>19.4</ele><time>2026-05-06T07:44:44.001Z</time></trkpt><trkpt lat="14.518010782070169" lon="121.05158956954243"><ele>18.8</ele><time>2026-05-06T07:44:45.001Z</time></trkpt><trkpt lat="14.518074035083359" lon="121.05167569135484"><ele>18.2</ele><time>2026-05-06T07:44:46.001Z</time></trkpt><trkpt lat="14.51814006602052" lon="121.05175894129516"><ele>17.6</ele><time>2026-05-06T07:44:47.001Z</time></trkpt><trkpt lat="14.518207805186215" lon="121.0518401790063"><ele>17.0</ele><time>2026-05-06T07:44:48.001Z</time></trkpt><trkpt lat="14.518282776454761" lon="121.05191606441637"><ele>16.6</ele><time>2026-05-06T07:44:49.001Z</time></trkpt><trkpt lat="14.518355441363308" lon="121.05198799093634"><ele>16.2</ele><time>2026-05-06T07:44:50.001Z</time></trkpt><trkpt lat="14.51842858016226" lon="121.05206060466566"><ele>15.8</ele><time>2026-05-06T07:44:51.001Z</time></trkpt><trkpt lat="14.518503287474692" lon="121.05212206057035"><ele>15.4</ele><time>2026-05-06T07:44:52.001Z</time></trkpt><trkpt lat="14.518589729414556" lon="121.05217150494721"><ele>15.0</ele><time>2026-05-06T07:44:53.001Z</time></trkpt><trkpt lat="14.518676501384018" lon="121.05221104509648"><ele>14.8</ele><time>2026-05-06T07:44:54.001Z</time></trkpt><trkpt lat="14.51877083368262" lon="121.05224249413136"><ele>14.6</ele><time>2026-05-06T07:44:55.001Z</time></trkpt><trkpt lat="14.518874729333312" lon="121.05228387747137"><ele>14.399999999999999</ele><time>2026-05-06T07:44:56.001Z</time></trkpt><trkpt lat="14.518967333609925" lon="121.05233207566582"><ele>14.2</ele><time>2026-05-06T07:44:57.001Z</time></trkpt><trkpt lat="14.5190592961448" lon="121.0523754586473"><ele>14.0</ele><time>2026-05-06T07:44:58.001Z</time></trkpt><trkpt lat="14.519144252049204" lon="121.05242001832639"><ele>14.000000000000002</ele><time>2026-05-06T07:44:59.001Z</time></trkpt><trkpt lat="14.519221462720424" lon="121.05246013851611"><ele>14.0</ele><time>2026-05-06T07:45:00.001Z</time></trkpt><trkpt lat="14.519284308875774" lon="121.05252302882785"><ele>14.0</ele><time>2026-05-06T07:45:01.001Z</time></trkpt><trkpt lat="14.519356353080212" lon="121.05255126031763"><ele>14.0</ele><time>2026-05-06T07:45:02.001Z</time></trkpt><trkpt lat="14.51942805119654" lon="121.05260019343152"><ele>14.000000000000002</ele><time>2026-05-06T07:45:03.001Z</time></trkpt><trkpt lat="14.519497553999322" lon="121.05267470291916"><ele>14.0</ele><time>2026-05-06T07:45:04.001Z</time></trkpt><trkpt lat="14.519573055021691" lon="121.05274941985004"><ele>14.0</ele><time>2026-05-06T07:45:05.001Z</time></trkpt><trkpt lat="14.519661727625184" lon="121.0528264459858"><ele>13.999999999999998</ele><time>2026-05-06T07:45:06.001Z</time></trkpt><trkpt lat="14.519749014033742" lon="121.05290156093064"><ele>13.999999999999998</ele><time>2026-05-06T07:45:07.001Z</time></trkpt><trkpt lat="14.519826659682328" lon="121.05297080857899"><ele>14.0</ele><time>2026-05-06T07:45:08.001Z</time></trkpt><trkpt lat="14.519901319555109" lon="121.05303484039678"><ele>14.0</ele><time>2026-05-06T07:45:09.001Z</time></trkpt><trkpt lat="14.519977701942409" lon="121.05309644888099"><ele>14.0</ele><time>2026-05-06T07:45:10.001Z</time></trkpt><trkpt lat="14.520057193734685" lon="121.05317304377257"><ele>13.999999999999998</ele><time>2026-05-06T07:45:11.001Z</time></trkpt><trkpt lat="14.520138179959856" lon="121.05322687221135"><ele>13.999999999999998</ele><time>2026-05-06T07:45:12.001Z</time></trkpt><trkpt lat="14.52022066634024" lon="121.05328302620322"><ele>14.0</ele><time>2026-05-06T07:45:13.001Z</time></trkpt><trkpt lat="14.52030236391202" lon="121.05333893316049"><ele>14.0</ele><time>2026-05-06T07:45:14.001Z</time></trkpt><trkpt lat="14.520404873595659" lon="121.0534046388983"><ele>13.399999999999999</ele><time>2026-05-06T07:45:15.001Z</time></trkpt><trkpt lat="14.520488275456149" lon="121.05346715608427"><ele>12.799999999999999</ele><time>2026-05-06T07:45:16.001Z</time></trkpt><trkpt lat="14.520580293054232" lon="121.05353669520822"><ele>12.2</ele><time>2026-05-06T07:45:17.001Z</time></trkpt><trkpt lat="14.520672403054018" lon="121.05360149296116"><ele>11.600000000000001</ele><time>2026-05-06T07:45:18.001Z</time></trkpt><trkpt lat="14.52076811955628" lon="121.05366195767809"><ele>11.0</ele><time>2026-05-06T07:45:19.001Z</time></trkpt><trkpt lat="14.520860419801823" lon="121.05371781703305"><ele>11.0</ele><time>2026-05-06T07:45:20.001Z</time></trkpt><trkpt lat="14.520963634639092" lon="121.05378023894605"><ele>11.0</ele><time>2026-05-06T07:45:21.001Z</time></trkpt><trkpt lat="14.521058409304581" lon="121.05383624752372"><ele>11.0</ele><time>2026-05-06T07:45:22.001Z</time></trkpt><trkpt lat="14.521154992541602" lon="121.05389258364987"><ele>11.0</ele><time>2026-05-06T07:45:23.001Z</time></trkpt><trkpt lat="14.521236573795838" lon="121.05394354090902"><ele>11.0</ele><time>2026-05-06T07:45:24.001Z</time></trkpt><trkpt lat="14.521309373088728" lon="121.05398880700633"><ele>11.0</ele><time>2026-05-06T07:45:25.001Z</time></trkpt><trkpt lat="14.521369446426668" lon="121.05402741646549"><ele>11.0</ele><time>2026-05-06T07:45:26.001Z</time></trkpt><trkpt lat="14.521473475488031" lon="121.05408208054028"><ele>11.0</ele><time>2026-05-06T07:45:28.001Z</time></trkpt><trkpt lat="14.52156501670327" lon="121.054129468463"><ele>11.0</ele><time>2026-05-06T07:45:30.001Z</time></trkpt><trkpt lat="14.521628736906086" lon="121.05416084687516"><ele>11.0</ele><time>2026-05-06T07:45:31.001Z</time></trkpt><trkpt lat="14.521703280373634" lon="121.05419693796868"><ele>11.0</ele><time>2026-05-06T07:45:32.001Z</time></trkpt><trkpt lat="14.521761761340313" lon="121.05422714336113"><ele>11.0</ele><time>2026-05-06T07:45:33.001Z</time></trkpt><trkpt lat="14.52186357859717" lon="121.05428309055557"><ele>11.0</ele><time>2026-05-06T07:45:35.001Z</time></trkpt><trkpt lat="14.521955597965922" lon="121.0543263602956"><ele>11.0</ele><time>2026-05-06T07:45:37.001Z</time></trkpt><trkpt lat="14.522062158364706" lon="121.054384849633"><ele>11.0</ele><time>2026-05-06T07:45:39.001Z</time></trkpt><trkpt lat="14.522124928613966" lon="121.05439415736295"><ele>11.0</ele><time>2026-05-06T07:45:40.001Z</time></trkpt><trkpt lat="14.52220411652078" lon="121.0544327427199"><ele>11.0</ele><time>2026-05-06T07:45:42.001Z</time></trkpt><trkpt lat="14.522293054529012" lon="121.05447434449849"><ele>11.0</ele><time>2026-05-06T07:45:46Z</time></trkpt><trkpt lat="14.52235883925675" lon="121.05450178268724"><ele>11.0</ele><time>2026-05-06T07:45:48Z</time></trkpt><trkpt lat="14.522450445614476" lon="121.05453631253077"><ele>11.0</ele><time>2026-05-06T07:45:50Z</time></trkpt><trkpt lat="14.522567684354428" lon="121.0545862654801"><ele>11.0</ele><time>2026-05-06T07:45:52Z</time></trkpt><trkpt lat="14.52262687991892" lon="121.0546107707882"><ele>11.0</ele><time>2026-05-06T07:45:53Z</time></trkpt><trkpt lat="14.522686253426473" lon="121.05463913756286"><ele>11.0</ele><time>2026-05-06T07:45:54Z</time></trkpt><trkpt lat="14.52279785746705" lon="121.05468642794578"><ele>11.0</ele><time>2026-05-06T07:45:56Z</time></trkpt><trkpt lat="14.522897445424812" lon="121.05472880762095"><ele>11.0</ele><time>2026-05-06T07:45:58Z</time></trkpt><trkpt lat="14.522986414421823" lon="121.05476437201425"><ele>11.0</ele><time>2026-05-06T07:46:00Z</time></trkpt><trkpt lat="14.52308183421749" lon="121.05480969612671"><ele>10.8</ele><time>2026-05-06T07:46:02Z</time></trkpt><trkpt lat="14.523203331051604" lon="121.05485953300942"><ele>10.600000000000001</ele><time>2026-05-06T07:46:04Z</time></trkpt><trkpt lat="14.523291319862158" lon="121.05489609923819"><ele>10.4</ele><time>2026-05-06T07:46:05Z</time></trkpt><trkpt lat="14.523367718931093" lon="121.05492784900386"><ele>10.2</ele><time>2026-05-06T07:46:06Z</time></trkpt><trkpt lat="14.523447307328107" lon="121.05496092418313"><ele>10.0</ele><time>2026-05-06T07:46:07Z</time></trkpt><trkpt lat="14.523525086710979" lon="121.0549932475842"><ele>10.0</ele><time>2026-05-06T07:46:08Z</time></trkpt><trkpt lat="14.523597187409594" lon="121.05501243897504"><ele>10.0</ele><time>2026-05-06T07:46:09Z</time></trkpt><trkpt lat="14.523659891877012" lon="121.05503500127509"><ele>10.0</ele><time>2026-05-06T07:46:10Z</time></trkpt><trkpt lat="14.523738190328759" lon="121.05508180874135"><ele>10.0</ele><time>2026-05-06T07:46:12Z</time></trkpt><trkpt lat="14.52382217795989" lon="121.05511671214754"><ele>10.0</ele><time>2026-05-06T07:46:14Z</time></trkpt><trkpt lat="14.523880988098052" lon="121.0551411523519"><ele>10.0</ele><time>2026-05-06T07:46:21Z</time></trkpt><trkpt lat="14.52397052282087" lon="121.05516083035259"><ele>9.8</ele><time>2026-05-06T07:46:24Z</time></trkpt><trkpt lat="14.524036219219191" lon="121.0552034578741"><ele>9.6</ele><time>2026-05-06T07:46:27Z</time></trkpt><trkpt lat="14.524105701958359" lon="121.05523059583267"><ele>9.4</ele><time>2026-05-06T07:46:28.001Z</time></trkpt><trkpt lat="14.524196303300583" lon="121.05526598209381"><ele>9.2</ele><time>2026-05-06T07:46:29.001Z</time></trkpt><trkpt lat="14.524299537144461" lon="121.05530338120583"><ele>9.0</ele><time>2026-05-06T07:46:30.001Z</time></trkpt><trkpt lat="14.52440276053742" lon="121.05534018937085"><ele>9.0</ele><time>2026-05-06T07:46:31.001Z</time></trkpt><trkpt lat="14.524516527788851" lon="121.0553807573589"><ele>9.0</ele><time>2026-05-06T07:46:32.001Z</time></trkpt><trkpt lat="14.524641115396992" lon="121.05542518374695"><ele>9.0</ele><time>2026-05-06T07:46:33.001Z</time></trkpt><trkpt lat="14.524774457554518" lon="121.0554727318968"><ele>9.0</ele><time>2026-05-06T07:46:34.001Z</time></trkpt><trkpt lat="14.524911666227654" lon="121.05552165878683"><ele>8.666666666666666</ele><time>2026-05-06T07:46:35.001Z</time></trkpt><trkpt lat="14.52505192416598" lon="121.05557167302923"><ele>8.333333333333332</ele><time>2026-05-06T07:46:36.001Z</time></trkpt><trkpt lat="14.52519955072548" lon="121.05562431471691"><ele>8.0</ele><time>2026-05-06T07:46:37.001Z</time></trkpt><trkpt lat="14.525350749506549" lon="121.05567740893093"><ele>7.666666666666666</ele><time>2026-05-06T07:46:38.001Z</time></trkpt><trkpt lat="14.525501179328353" lon="121.05573211749812"><ele>7.333333333333334</ele><time>2026-05-06T07:46:39.001Z</time></trkpt><trkpt lat="14.525660558665408" lon="121.05579336127283"><ele>7.0</ele><time>2026-05-06T07:46:40.001Z</time></trkpt><trkpt lat="14.52581552651899" lon="121.05585290984081"><ele>7.0</ele><time>2026-05-06T07:46:41.001Z</time></trkpt><trkpt lat="14.525977839672299" lon="121.05591545717898"><ele>7.0</ele><time>2026-05-06T07:46:42.001Z</time></trkpt><trkpt lat="14.526122181876868" lon="121.05597143943744"><ele>7.0</ele><time>2026-05-06T07:46:43.001Z</time></trkpt><trkpt lat="14.526263546270918" lon="121.05602626674862"><ele>7.0</ele><time>2026-05-06T07:46:44.001Z</time></trkpt><trkpt lat="14.526408451242052" lon="121.05608246728633"><ele>7.0</ele><time>2026-05-06T07:46:45.001Z</time></trkpt><trkpt lat="14.52655891175011" lon="121.0561350746566"><ele>7.0</ele><time>2026-05-06T07:46:46.001Z</time></trkpt><trkpt lat="14.526699007094129" lon="121.05618747278932"><ele>7.0</ele><time>2026-05-06T07:46:47.001Z</time></trkpt><trkpt lat="14.526837239141306" lon="121.05624209672692"><ele>7.0</ele><time>2026-05-06T07:46:48.001Z</time></trkpt><trkpt lat="14.5269753159772" lon="121.0562966566472"><ele>7.0</ele><time>2026-05-06T07:46:49.001Z</time></trkpt><trkpt lat="14.52710024632113" lon="121.05634581449787"><ele>7.0</ele><time>2026-05-06T07:46:50.001Z</time></trkpt><trkpt lat="14.527226006282417" lon="121.05639529876221"><ele>7.0</ele><time>2026-05-06T07:46:51.001Z</time></trkpt><trkpt lat="14.527340916581773" lon="121.05644051390149"><ele>6.999999999999999</ele><time>2026-05-06T07:46:52.001Z</time></trkpt><trkpt lat="14.527443555999456" lon="121.05648090066028"><ele>6.999999999999999</ele><time>2026-05-06T07:46:53.001Z</time></trkpt><trkpt lat="14.527518828292655" lon="121.05651051896037"><ele>7.0</ele><time>2026-05-06T07:46:54.001Z</time></trkpt><trkpt lat="14.527589526624126" lon="121.05653795333774"><ele>7.0</ele><time>2026-05-06T07:46:55.001Z</time></trkpt><trkpt lat="14.52766151812344" lon="121.05656543586441"><ele>7.0</ele><time>2026-05-06T07:46:56.001Z</time></trkpt><trkpt lat="14.527732977570219" lon="121.0565927152875"><ele>6.999999999999999</ele><time>2026-05-06T07:46:57.001Z</time></trkpt><trkpt lat="14.527817797779361" lon="121.05662414417561"><ele>6.999999999999999</ele><time>2026-05-06T07:46:58.001Z</time></trkpt><trkpt lat="14.527912828533502" lon="121.05665940665995"><ele>7.0</ele><time>2026-05-06T07:46:59.001Z</time></trkpt><trkpt lat="14.528015498208763" lon="121.05669748739201"><ele>7.0</ele><time>2026-05-06T07:47:00.001Z</time></trkpt><trkpt lat="14.528128483239488" lon="121.05673918140063"><ele>6.666666666666667</ele><time>2026-05-06T07:47:01.001Z</time></trkpt><trkpt lat="14.528294043023038" lon="121.05664126777744"><ele>6.333333333333334</ele><time>2026-05-06T07:47:02.001Z</time></trkpt><trkpt lat="14.528413171918611" lon="121.05668676277033"><ele>6.0</ele><time>2026-05-06T07:47:03.001Z</time></trkpt><trkpt lat="14.528544865693311" lon="121.05673594208059"><ele>6.0</ele><time>2026-05-06T07:47:04.001Z</time></trkpt><trkpt lat="14.528681320154686" lon="121.05678730975139"><ele>6.0</ele><time>2026-05-06T07:47:05.001Z</time></trkpt><trkpt lat="14.52881967732925" lon="121.05684157850723"><ele>6.0</ele><time>2026-05-06T07:47:06.001Z</time></trkpt><trkpt lat="14.528961858358512" lon="121.05689936288961"><ele>6.0</ele><time>2026-05-06T07:47:07.001Z</time></trkpt><trkpt lat="14.529109918721447" lon="121.05695921003662"><ele>6.666666666666666</ele><time>2026-05-06T07:47:08.001Z</time></trkpt><trkpt lat="14.529264214573892" lon="121.05702173895324"><ele>7.333333333333333</ele><time>2026-05-06T07:47:09.001Z</time></trkpt><trkpt lat="14.529421130056438" lon="121.05708190200755"><ele>8.0</ele><time>2026-05-06T07:47:10.001Z</time></trkpt><trkpt lat="14.52957989803239" lon="121.05714109403704"><ele>8.0</ele><time>2026-05-06T07:47:11.001Z</time></trkpt><trkpt lat="14.529733997038907" lon="121.0572011279868"><ele>8.0</ele><time>2026-05-06T07:47:12.001Z</time></trkpt><trkpt lat="14.529885696577365" lon="121.05725476181044"><ele>8.0</ele><time>2026-05-06T07:47:13.001Z</time></trkpt><trkpt lat="14.530032224802634" lon="121.05730831309724"><ele>8.0</ele><time>2026-05-06T07:47:14.001Z</time></trkpt><trkpt lat="14.530175488546123" lon="121.05735728776278"><ele>8.0</ele><time>2026-05-06T07:47:15.001Z</time></trkpt><trkpt lat="14.530323433622753" lon="121.0574037124655"><ele>8.0</ele><time>2026-05-06T07:47:16.001Z</time></trkpt><trkpt lat="14.53047549709728" lon="121.05744441270099"><ele>8.0</ele><time>2026-05-06T07:47:17.001Z</time></trkpt><trkpt lat="14.53062643270029" lon="121.0574898542023"><ele>8.0</ele><time>2026-05-06T07:47:18.001Z</time></trkpt><trkpt lat="14.530783139774151" lon="121.05753279509162"><ele>8.0</ele><time>2026-05-06T07:47:19.001Z</time></trkpt><trkpt lat="14.530942939221204" lon="121.05757244991874"><ele>8.0</ele><time>2026-05-06T07:47:20.001Z</time></trkpt><trkpt lat="14.53110260872296" lon="121.05760849756474"><ele>8.0</ele><time>2026-05-06T07:47:21.001Z</time></trkpt><trkpt lat="14.531266383983109" lon="121.05764506905226"><ele>8.0</ele><time>2026-05-06T07:47:22.001Z</time></trkpt><trkpt lat="14.531427230611724" lon="121.05768041215516"><ele>8.0</ele><time>2026-05-06T07:47:23.001Z</time></trkpt><trkpt lat="14.531588666590176" lon="121.05770802385011"><ele>8.0</ele><time>2026-05-06T07:47:24.001Z</time></trkpt><trkpt lat="14.531755649049447" lon="121.05772827857263"><ele>8.0</ele><time>2026-05-06T07:47:25.001Z</time></trkpt><trkpt lat="14.531915881333994" lon="121.05774633423258"><ele>8.0</ele><time>2026-05-06T07:47:26.001Z</time></trkpt><trkpt lat="14.532079711778378" lon="121.05776420478483"><ele>8.0</ele><time>2026-05-06T07:47:27.001Z</time></trkpt><trkpt lat="14.53224457585183" lon="121.05777506285771"><ele>8.0</ele><time>2026-05-06T07:47:28.001Z</time></trkpt><trkpt lat="14.532411906051957" lon="121.0577821849932"><ele>8.0</ele><time>2026-05-06T07:47:29.001Z</time></trkpt><trkpt lat="14.532581763048608" lon="121.05778159211503"><ele>8.0</ele><time>2026-05-06T07:47:30.001Z</time></trkpt><trkpt lat="14.532751821856385" lon="121.0577772422349"><ele>8.0</ele><time>2026-05-06T07:47:31.001Z</time></trkpt><trkpt lat="14.532917634083324" lon="121.05776727642903"><ele>7.666666666666666</ele><time>2026-05-06T07:47:32.001Z</time></trkpt><trkpt lat="14.53307625656173" lon="121.05776040762534"><ele>7.333333333333334</ele><time>2026-05-06T07:47:33.001Z</time></trkpt><trkpt lat="14.533226855573288" lon="121.05775540991546"><ele>7.0</ele><time>2026-05-06T07:47:34.001Z</time></trkpt><trkpt lat="14.533369187989242" lon="121.05774662517837"><ele>7.0</ele><time>2026-05-06T07:47:35.001Z</time></trkpt><trkpt lat="14.53351611001073" lon="121.05773765667509"><ele>7.0</ele><time>2026-05-06T07:47:36.001Z</time></trkpt><trkpt lat="14.533653523643448" lon="121.05772782216249"><ele>7.0</ele><time>2026-05-06T07:47:37.001Z</time></trkpt><trkpt lat="14.533785876946064" lon="121.0577173537375"><ele>7.0</ele><time>2026-05-06T07:47:38.001Z</time></trkpt><trkpt lat="14.533910743943494" lon="121.05770730430872"><ele>7.500000000000001</ele><time>2026-05-06T07:47:39.001Z</time></trkpt><trkpt lat="14.5340190964078" lon="121.0576997034627"><ele>8.0</ele><time>2026-05-06T07:47:40.001Z</time></trkpt><trkpt lat="14.534106421629765" lon="121.0576976388411"><ele>8.5</ele><time>2026-05-06T07:47:41.001Z</time></trkpt><trkpt lat="14.534189288364896" lon="121.0576909171864"><ele>9.0</ele><time>2026-05-06T07:47:42.001Z</time></trkpt><trkpt lat="14.53427189408375" lon="121.05768783472593"><ele>9.5</ele><time>2026-05-06T07:47:43.001Z</time></trkpt><trkpt lat="14.534357570383916" lon="121.0576846121082"><ele>10.0</ele><time>2026-05-06T07:47:44.001Z</time></trkpt><trkpt lat="14.53442109078481" lon="121.05767641650388"><ele>10.0</ele><time>2026-05-06T07:47:45.001Z</time></trkpt><trkpt lat="14.534522577782825" lon="121.05767296579926"><ele>10.0</ele><time>2026-05-06T07:47:47.001Z</time></trkpt><trkpt lat="14.534626670043014" lon="121.05766520990623"><ele>10.0</ele><time>2026-05-06T07:47:49.002Z</time></trkpt><trkpt lat="14.534751307162495" lon="121.0576553034383"><ele>10.0</ele><time>2026-05-06T07:47:51.002Z</time></trkpt><trkpt lat="14.534854204710372" lon="121.05764782496908"><ele>10.0</ele><time>2026-05-06T07:47:53Z</time></trkpt><trkpt lat="14.534976396758537" lon="121.05764184202836"><ele>9.714285714285714</ele><time>2026-05-06T07:47:55Z</time></trkpt><trkpt lat="14.53504429413406" lon="121.05763473298468"><ele>9.428571428571429</ele><time>2026-05-06T07:47:56Z</time></trkpt><trkpt lat="14.53511342201078" lon="121.0576265018953"><ele>9.142857142857142</ele><time>2026-05-06T07:47:57Z</time></trkpt><trkpt lat="14.535178381572894" lon="121.0576218849999"><ele>8.857142857142858</ele><time>2026-05-06T07:47:58Z</time></trkpt><trkpt lat="14.535243011055055" lon="121.05761156305019"><ele>8.571428571428571</ele><time>2026-05-06T07:47:59Z</time></trkpt><trkpt lat="14.535310005858621" lon="121.05760655809404"><ele>8.285714285714285</ele><time>2026-05-06T07:48:00Z</time></trkpt><trkpt lat="14.535421976681306" lon="121.0575968123775"><ele>8.0</ele><time>2026-05-06T07:48:02Z</time></trkpt><trkpt lat="14.53549375089436" lon="121.0575831493157"><ele>8.0</ele><time>2026-05-06T07:48:03Z</time></trkpt><trkpt lat="14.535579577094255" lon="121.05758838175068"><ele>8.0</ele><time>2026-05-06T07:48:04Z</time></trkpt><trkpt lat="14.53567594380405" lon="121.05758430290788"><ele>8.0</ele><time>2026-05-06T07:48:05Z</time></trkpt><trkpt lat="14.535789530524756" lon="121.0575787761752"><ele>8.0</ele><time>2026-05-06T07:48:06Z</time></trkpt><trkpt lat="14.53591166115307" lon="121.05757361915767"><ele>8.0</ele><time>2026-05-06T07:48:07Z</time></trkpt><trkpt lat="14.536036369995491" lon="121.05756855061409"><ele>8.0</ele><time>2026-05-06T07:48:08Z</time></trkpt><trkpt lat="14.5361665039192" lon="121.05756326156762"><ele>8.0</ele><time>2026-05-06T07:48:09Z</time></trkpt><trkpt lat="14.53628282580945" lon="121.05755644480952"><ele>8.0</ele><time>2026-05-06T07:48:10Z</time></trkpt><trkpt lat="14.536422989746908" lon="121.05754865046264"><ele>8.0</ele><time>2026-05-06T07:48:11Z</time></trkpt><trkpt lat="14.536557660938524" lon="121.05753937705406"><ele>8.25</ele><time>2026-05-06T07:48:12Z</time></trkpt><trkpt lat="14.536695217561283" lon="121.05751693124735"><ele>8.5</ele><time>2026-05-06T07:48:13Z</time></trkpt><trkpt lat="14.536825201843696" lon="121.05752841317482"><ele>8.75</ele><time>2026-05-06T07:48:14Z</time></trkpt><trkpt lat="14.536971795814582" lon="121.0575229307481"><ele>9.0</ele><time>2026-05-06T07:48:15Z</time></trkpt><trkpt lat="14.537113026352422" lon="121.05750996418769"><ele>9.75</ele><time>2026-05-06T07:48:16Z</time></trkpt><trkpt lat="14.537257447029655" lon="121.0574980490019"><ele>10.5</ele><time>2026-05-06T07:48:17Z</time></trkpt><trkpt lat="14.537388911177002" lon="121.0574705025408"><ele>11.25</ele><time>2026-05-06T07:48:18Z</time></trkpt><trkpt lat="14.53753548838566" lon="121.05747510967207"><ele>12.0</ele><time>2026-05-06T07:48:19Z</time></trkpt><trkpt lat="14.537677927268627" lon="121.05744661952671"><ele>13.0</ele><time>2026-05-06T07:48:20.001Z</time></trkpt><trkpt lat="14.53782813975289" lon="121.05743669108242"><ele>14.0</ele><time>2026-05-06T07:48:21.001Z</time></trkpt><trkpt lat="14.537963506046848" lon="121.05742786963964"><ele>15.0</ele><time>2026-05-06T07:48:22.001Z</time></trkpt><trkpt lat="14.538106316539146" lon="121.05741617723349"><ele>16.0</ele><time>2026-05-06T07:48:23.001Z</time></trkpt><trkpt lat="14.538251544582467" lon="121.05739362743506"><ele>16.25</ele><time>2026-05-06T07:48:24.001Z</time></trkpt><trkpt lat="14.538388349501382" lon="121.05737696846873"><ele>16.5</ele><time>2026-05-06T07:48:25.001Z</time></trkpt><trkpt lat="14.538527273037154" lon="121.05735085164652"><ele>16.75</ele><time>2026-05-06T07:48:26.001Z</time></trkpt><trkpt lat="14.538666592644983" lon="121.05731970501873"><ele>17.0</ele><time>2026-05-06T07:48:27.001Z</time></trkpt><trkpt lat="14.538812103992774" lon="121.05728511947493"><ele>16.25</ele><time>2026-05-06T07:48:28.001Z</time></trkpt><trkpt lat="14.53895580005577" lon="121.05723385086156"><ele>15.5</ele><time>2026-05-06T07:48:29.001Z</time></trkpt><trkpt lat="14.539091169143347" lon="121.05718366380981"><ele>14.75</ele><time>2026-05-06T07:48:30.001Z</time></trkpt><trkpt lat="14.539219267228155" lon="121.05713407093634"><ele>14.0</ele><time>2026-05-06T07:48:31.001Z</time></trkpt><trkpt lat="14.539340580500642" lon="121.05707270083715"><ele>14.000000000000002</ele><time>2026-05-06T07:48:32.001Z</time></trkpt><trkpt lat="14.539448324309374" lon="121.05702860446999"><ele>14.0</ele><time>2026-05-06T07:48:33.001Z</time></trkpt><trkpt lat="14.539539969166865" lon="121.05694694241659"><ele>14.0</ele><time>2026-05-06T07:48:35.001Z</time></trkpt><trkpt lat="14.539586188076537" lon="121.05690031069092"><ele>14.0</ele><time>2026-05-06T07:48:36.001Z</time></trkpt><trkpt lat="14.5396497906163" lon="121.05688909947388"><ele>14.000000000000002</ele><time>2026-05-06T07:48:37.001Z</time></trkpt><trkpt lat="14.539713939178718" lon="121.05684444671869"><ele>14.0</ele><time>2026-05-06T07:48:38.001Z</time></trkpt><trkpt lat="14.539784243035964" lon="121.05679265101355"><ele>13.500000000000002</ele><time>2026-05-06T07:48:39.001Z</time></trkpt><trkpt lat="14.539850952289996" lon="121.05674298223902"><ele>13.0</ele><time>2026-05-06T07:48:40.001Z</time></trkpt><trkpt lat="14.53991340069321" lon="121.05668486315135"><ele>12.5</ele><time>2026-05-06T07:48:41.001Z</time></trkpt><trkpt lat="14.539976906713651" lon="121.05662434987738"><ele>12.0</ele><time>2026-05-06T07:48:42.001Z</time></trkpt><trkpt lat="14.540040732290533" lon="121.05656268569214"><ele>11.5</ele><time>2026-05-06T07:48:43.001Z</time></trkpt><trkpt lat="14.54008721103252" lon="121.05651404204093"><ele>11.0</ele><time>2026-05-06T07:48:44.001Z</time></trkpt><trkpt lat="14.540167326606458" lon="121.05642534184823"><ele>11.5</ele><time>2026-05-06T07:48:46.001Z</time></trkpt><trkpt lat="14.540235194191272" lon="121.05634260723888"><ele>12.0</ele><time>2026-05-06T07:48:48.001Z</time></trkpt><trkpt lat="14.540282356357837" lon="121.05629200642505"><ele>12.5</ele><time>2026-05-06T07:48:50.001Z</time></trkpt><trkpt lat="14.540333521798823" lon="121.05622973498619"><ele>13.0</ele><time>2026-05-06T07:48:52.001Z</time></trkpt><trkpt lat="14.540389880075981" lon="121.05616200672922"><ele>13.500000000000002</ele><time>2026-05-06T07:48:54.001Z</time></trkpt><trkpt lat="14.54044970563128" lon="121.0560808232299"><ele>14.0</ele><time>2026-05-06T07:48:56.001Z</time></trkpt><trkpt lat="14.540489579822824" lon="121.05601907541633"><ele>14.000000000000002</ele><time>2026-05-06T07:48:58.001Z</time></trkpt><trkpt lat="14.540524952299899" lon="121.05595595705206"><ele>14.0</ele><time>2026-05-06T07:49:00.001Z</time></trkpt><trkpt lat="14.540565622358748" lon="121.05589292084339"><ele>14.0</ele><time>2026-05-06T07:49:03.001Z</time></trkpt><trkpt lat="14.540597492343576" lon="121.05582852514785"><ele>14.0</ele><time>2026-05-06T07:49:06.001Z</time></trkpt><trkpt lat="14.54064375086854" lon="121.05574873839096"><ele>14.000000000000002</ele><time>2026-05-06T07:49:08.001Z</time></trkpt><trkpt lat="14.54070051627109" lon="121.05565011206043"><ele>14.0</ele><time>2026-05-06T07:49:10.001Z</time></trkpt><trkpt lat="14.540767461347048" lon="121.0555306159674"><ele>14.666666666666668</ele><time>2026-05-06T07:49:12.001Z</time></trkpt><trkpt lat="14.540813754120988" lon="121.05545529780477"><ele>15.333333333333334</ele><time>2026-05-06T07:49:13.001Z</time></trkpt><trkpt lat="14.540865379359143" lon="121.05537576120443"><ele>16.0</ele><time>2026-05-06T07:49:14.001Z</time></trkpt><trkpt lat="14.540899404942166" lon="121.05531455819987"><ele>16.666666666666668</ele><time>2026-05-06T07:49:15.001Z</time></trkpt><trkpt lat="14.54093193150679" lon="121.05524407717535"><ele>17.333333333333332</ele><time>2026-05-06T07:49:16.001Z</time></trkpt><trkpt lat="14.540971310502295" lon="121.05516966051972"><ele>18.0</ele><time>2026-05-06T07:49:17.001Z</time></trkpt><trkpt lat="14.54101126624236" lon="121.05510524895845"><ele>18.0</ele><time>2026-05-06T07:49:18.001Z</time></trkpt><trkpt lat="14.541044617008323" lon="121.05504026111471"><ele>18.0</ele><time>2026-05-06T07:49:19.001Z</time></trkpt><trkpt lat="14.541083370920928" lon="121.05497450761993"><ele>18.0</ele><time>2026-05-06T07:49:20.001Z</time></trkpt><trkpt lat="14.5411172691378" lon="121.05491312844597"><ele>18.0</ele><time>2026-05-06T07:49:21.001Z</time></trkpt><trkpt lat="14.541158096564697" lon="121.0548374161498"><ele>18.0</ele><time>2026-05-06T07:49:22.001Z</time></trkpt><trkpt lat="14.541201577706282" lon="121.05476206253736"><ele>18.0</ele><time>2026-05-06T07:49:23.001Z</time></trkpt><trkpt lat="14.541248930002652" lon="121.0546798847551"><ele>19.0</ele><time>2026-05-06T07:49:24.001Z</time></trkpt><trkpt lat="14.54130035275065" lon="121.05459848711047"><ele>20.0</ele><time>2026-05-06T07:49:25.001Z</time></trkpt><trkpt lat="14.541358119404492" lon="121.05451047334007"><ele>21.0</ele><time>2026-05-06T07:49:26.001Z</time></trkpt><trkpt lat="14.541416007838242" lon="121.05441737587545"><ele>22.0</ele><time>2026-05-06T07:49:27.001Z</time></trkpt><trkpt lat="14.54147786782597" lon="121.05432763279913"><ele>23.0</ele><time>2026-05-06T07:49:28.001Z</time></trkpt><trkpt lat="14.541549320040351" lon="121.05423831392646"><ele>23.0</ele><time>2026-05-06T07:49:29.001Z</time></trkpt><trkpt lat="14.541623110328745" lon="121.05415007580041"><ele>23.0</ele><time>2026-05-06T07:49:30.001Z</time></trkpt><trkpt lat="14.541700839424122" lon="121.05406459478468"><ele>23.0</ele><time>2026-05-06T07:49:31.001Z</time></trkpt><trkpt lat="14.541787686712182" lon="121.05398458518019"><ele>23.0</ele><time>2026-05-06T07:49:32.001Z</time></trkpt><trkpt lat="14.541880620288351" lon="121.05390719493053"><ele>24.25</ele><time>2026-05-06T07:49:33.001Z</time></trkpt><trkpt lat="14.541980677143146" lon="121.05384624728028"><ele>25.5</ele><time>2026-05-06T07:49:34.001Z</time></trkpt><trkpt lat="14.542079038945571" lon="121.0537747994961"><ele>26.75</ele><time>2026-05-06T07:49:35.001Z</time></trkpt><trkpt lat="14.542178030700073" lon="121.05370842787494"><ele>28.0</ele><time>2026-05-06T07:49:36.001Z</time></trkpt><trkpt lat="14.542283202411229" lon="121.05364877437084"><ele>28.0</ele><time>2026-05-06T07:49:37.001Z</time></trkpt><trkpt lat="14.542388999239796" lon="121.0535933430696"><ele>27.999999999999996</ele><time>2026-05-06T07:49:38.001Z</time></trkpt><trkpt lat="14.542490892292562" lon="121.05354646912937"><ele>27.999999999999996</ele><time>2026-05-06T07:49:39.001Z</time></trkpt><trkpt lat="14.542600922056208" lon="121.05350907068826"><ele>28.0</ele><time>2026-05-06T07:49:40.001Z</time></trkpt><trkpt lat="14.542696055356995" lon="121.05348447407505"><ele>28.0</ele><time>2026-05-06T07:49:41.001Z</time></trkpt><trkpt lat="14.542802790720495" lon="121.05345044498864"><ele>26.799999999999997</ele><time>2026-05-06T07:49:42.001Z</time></trkpt><trkpt lat="14.542915059489799" lon="121.05343181441785"><ele>25.599999999999998</ele><time>2026-05-06T07:49:43.001Z</time></trkpt><trkpt lat="14.543023976081937" lon="121.05342478202753"><ele>24.4</ele><time>2026-05-06T07:49:44.001Z</time></trkpt><trkpt lat="14.543131844904272" lon="121.05342922636788"><ele>23.200000000000003</ele><time>2026-05-06T07:49:45.001Z</time></trkpt><trkpt lat="14.543240814406802" lon="121.05343143531123"><ele>22.0</ele><time>2026-05-06T07:49:46.001Z</time></trkpt><trkpt lat="14.543353275402481" lon="121.05343889891223"><ele>22.0</ele><time>2026-05-06T07:49:47.001Z</time></trkpt><trkpt lat="14.543470063521951" lon="121.05344393211061"><ele>22.0</ele><time>2026-05-06T07:49:48.001Z</time></trkpt><trkpt lat="14.543586697062116" lon="121.05346074179545"><ele>22.0</ele><time>2026-05-06T07:49:49.002Z</time></trkpt><trkpt lat="14.543710181417833" lon="121.05347689938668"><ele>22.0</ele><time>2026-05-06T07:49:50.002Z</time></trkpt><trkpt lat="14.543838426473567" lon="121.05350205422675"><ele>21.25</ele><time>2026-05-06T07:49:51.002Z</time></trkpt><trkpt lat="14.543969538472604" lon="121.05352923400136"><ele>20.5</ele><time>2026-05-06T07:49:52.002Z</time></trkpt><trkpt lat="14.544098064333332" lon="121.05356260810085"><ele>19.75</ele><time>2026-05-06T07:49:53.002Z</time></trkpt><trkpt lat="14.544214222103545" lon="121.05360155639025"><ele>19.0</ele><time>2026-05-06T07:49:54.002Z</time></trkpt><trkpt lat="14.544319903254845" lon="121.05363832685958"><ele>19.0</ele><time>2026-05-06T07:49:55.002Z</time></trkpt><trkpt lat="14.54441451490374" lon="121.05368395063667"><ele>19.0</ele><time>2026-05-06T07:49:56.002Z</time></trkpt><trkpt lat="14.54450420886834" lon="121.05373863693778"><ele>19.0</ele><time>2026-05-06T07:49:57.002Z</time></trkpt><trkpt lat="14.544592406239875" lon="121.0537972971595"><ele>19.0</ele><time>2026-05-06T07:49:58.001Z</time></trkpt><trkpt lat="14.544678739739354" lon="121.05385867569143"><ele>19.0</ele><time>2026-05-06T07:49:59.001Z</time></trkpt><trkpt lat="14.544762702596014" lon="121.05392746450961"><ele>19.25</ele><time>2026-05-06T07:50:00.001Z</time></trkpt><trkpt lat="14.544844157242848" lon="121.05400243386704"><ele>19.5</ele><time>2026-05-06T07:50:01.001Z</time></trkpt><trkpt lat="14.544925627648938" lon="121.0540871873115"><ele>19.75</ele><time>2026-05-06T07:50:02.001Z</time></trkpt><trkpt lat="14.545007695710915" lon="121.05418012062424"><ele>20.0</ele><time>2026-05-06T07:50:03.001Z</time></trkpt><trkpt lat="14.545086830195801" lon="121.05428395554648"><ele>20.0</ele><time>2026-05-06T07:50:04.001Z</time></trkpt><trkpt lat="14.545156476705142" lon="121.05439019449703"><ele>20.0</ele><time>2026-05-06T07:50:05.001Z</time></trkpt><trkpt lat="14.545222252353692" lon="121.05450191425125"><ele>20.0</ele><time>2026-05-06T07:50:06.001Z</time></trkpt><trkpt lat="14.545292338009169" lon="121.05462033604145"><ele>20.0</ele><time>2026-05-06T07:50:07.001Z</time></trkpt><trkpt lat="14.545351332340681" lon="121.05474227968327"><ele>22.0</ele><time>2026-05-06T07:50:08.001Z</time></trkpt><trkpt lat="14.545406940738632" lon="121.05486517916489"><ele>24.0</ele><time>2026-05-06T07:50:09.001Z</time></trkpt><trkpt lat="14.545468325960604" lon="121.0549915936663"><ele>26.0</ele><time>2026-05-06T07:50:10.001Z</time></trkpt><trkpt lat="14.545525791074224" lon="121.05510271574477"><ele>28.0</ele><time>2026-05-06T07:50:11.001Z</time></trkpt><trkpt lat="14.545574121770377" lon="121.05519757429539"><ele>28.000000000000004</ele><time>2026-05-06T07:50:12.001Z</time></trkpt><trkpt lat="14.545605949954668" lon="121.05526964610144"><ele>28.0</ele><time>2026-05-06T07:50:13.001Z</time></trkpt><trkpt lat="14.545636178809731" lon="121.05532973120528"><ele>28.0</ele><time>2026-05-06T07:50:14.001Z</time></trkpt><trkpt lat="14.545683838049664" lon="121.05543307179927"><ele>28.0</ele><time>2026-05-06T07:50:16.001Z</time></trkpt><trkpt lat="14.545732929170052" lon="121.05552351843434"><ele>28.000000000000004</ele><time>2026-05-06T07:50:18.001Z</time></trkpt><trkpt lat="14.545776625218851" lon="121.05560802657286"><ele>28.0</ele><time>2026-05-06T07:50:21.001Z</time></trkpt><trkpt lat="14.545812096151717" lon="121.05568522417447"><ele>28.000000000000004</ele><time>2026-05-06T07:50:23.001Z</time></trkpt><trkpt lat="14.545845084689779" lon="121.0557538292449"><ele>28.0</ele><time>2026-05-06T07:50:25.001Z</time></trkpt><trkpt lat="14.545878903061157" lon="121.05582252233371"><ele>28.0</ele><time>2026-05-06T07:50:27.001Z</time></trkpt><trkpt lat="14.545916539019963" lon="121.05587707362768"><ele>28.0</ele><time>2026-05-06T07:50:29.001Z</time></trkpt><trkpt lat="14.54596863884095" lon="121.05592796210462"><ele>28.000000000000004</ele><time>2026-05-06T07:50:31.001Z</time></trkpt><trkpt lat="14.546007229431693" lon="121.05599049831363"><ele>28.0</ele><time>2026-05-06T07:50:34.001Z</time></trkpt><trkpt lat="14.546131655317188" lon="121.05593600547667"><ele>28.333333333333336</ele><time>2026-05-06T07:50:36.001Z</time></trkpt><trkpt lat="14.546196836686375" lon="121.05588883522883"><ele>28.666666666666668</ele><time>2026-05-06T07:50:38.001Z</time></trkpt><trkpt lat="14.546253934862204" lon="121.05584499689513"><ele>29.0</ele><time>2026-05-06T07:50:40.001Z</time></trkpt><trkpt lat="14.54631174524319" lon="121.05580387125153"><ele>29.333333333333336</ele><time>2026-05-06T07:50:42.001Z</time></trkpt><trkpt lat="14.546394414647137" lon="121.05574948290098"><ele>29.666666666666668</ele><time>2026-05-06T07:50:46.001Z</time></trkpt><trkpt lat="14.546476924809573" lon="121.055747558618"><ele>30.0</ele><time>2026-05-06T07:50:48.001Z</time></trkpt><trkpt lat="14.546535213354268" lon="121.05570231206961"><ele>31.0</ele><time>2026-05-06T07:50:50.001Z</time></trkpt><trkpt lat="14.546613309077184" lon="121.05564169016189"><ele>32.0</ele><time>2026-05-06T07:50:52.001Z</time></trkpt><trkpt lat="14.546707352215424" lon="121.05556270073197"><ele>33.0</ele><time>2026-05-06T07:50:54.001Z</time></trkpt><trkpt lat="14.546796822858541" lon="121.05548824470677"><ele>34.0</ele><time>2026-05-06T07:50:56.001Z</time></trkpt><trkpt lat="14.546883446810783" lon="121.0554154902299"><ele>35.0</ele><time>2026-05-06T07:50:58.001Z</time></trkpt><trkpt lat="14.546944109127338" lon="121.05536038661764"><ele>35.0</ele><time>2026-05-06T07:50:59.001Z</time></trkpt><trkpt lat="14.547014615532056" lon="121.05529634095055"><ele>35.0</ele><time>2026-05-06T07:51:00.001Z</time></trkpt><trkpt lat="14.547080269908987" lon="121.05523670324939"><ele>35.0</ele><time>2026-05-06T07:51:01.001Z</time></trkpt><trkpt lat="14.547131862892329" lon="121.05516002299828"><ele>35.0</ele><time>2026-05-06T07:51:02.001Z</time></trkpt><trkpt lat="14.547174703291812" lon="121.05509670176939"><ele>35.0</ele><time>2026-05-06T07:51:03.001Z</time></trkpt><trkpt lat="14.547236415804091" lon="121.05499873693863"><ele>34.666666666666664</ele><time>2026-05-06T07:51:05.001Z</time></trkpt><trkpt lat="14.547284362781658" lon="121.05490026658073"><ele>34.33333333333333</ele><time>2026-05-06T07:51:07.001Z</time></trkpt><trkpt lat="14.54732371621455" lon="121.0548208939621"><ele>34.0</ele><time>2026-05-06T07:51:09.001Z</time></trkpt><trkpt lat="14.547345873287373" lon="121.0547564369399"><ele>33.666666666666664</ele><time>2026-05-06T07:51:11.001Z</time></trkpt><trkpt lat="14.547367478643698" lon="121.05469445163091"><ele>33.333333333333336</ele><time>2026-05-06T07:51:14.001Z</time></trkpt><trkpt lat="14.54741669210664" lon="121.05465079505062"><ele>33.0</ele><time>2026-05-06T07:53:08.001Z</time></trkpt><trkpt lat="14.54746029360688" lon="121.05459151548094"><ele>33.0</ele><time>2026-05-06T07:53:10.001Z</time></trkpt><trkpt lat="14.547477190948953" lon="121.05447974841658"><ele>33.0</ele><time>2026-05-06T07:53:12.001Z</time></trkpt><trkpt lat="14.547468219346818" lon="121.05440404644379"><ele>33.0</ele><time>2026-05-06T07:53:13.001Z</time></trkpt><trkpt lat="14.547446544774099" lon="121.05431948852326"><ele>33.0</ele><time>2026-05-06T07:53:14.001Z</time></trkpt><trkpt lat="14.547454414098043" lon="121.05422128111678"><ele>33.0</ele><time>2026-05-06T07:53:15.001Z</time></trkpt><trkpt lat="14.547468869499596" lon="121.05411794440775"><ele>33.0</ele><time>2026-05-06T07:53:16.001Z</time></trkpt><trkpt lat="14.547436946040282" lon="121.05399864238285"><ele>33.0</ele><time>2026-05-06T07:53:17.001Z</time></trkpt><trkpt lat="14.547414270130973" lon="121.05385917274015"><ele>33.0</ele><time>2026-05-06T07:53:18.001Z</time></trkpt><trkpt lat="14.547388159211618" lon="121.05370030966311"><ele>33.0</ele><time>2026-05-06T07:53:19.001Z</time></trkpt><trkpt lat="14.54737289343568" lon="121.0536074302257"><ele>33.0</ele><time>2026-05-06T07:53:20.001Z</time></trkpt><trkpt lat="14.547360366569336" lon="121.05353163623508"><ele>33.0</ele><time>2026-05-06T07:53:21.001Z</time></trkpt><trkpt lat="14.54732819562236" lon="121.05343460556799"><ele>33.0</ele><time>2026-05-06T07:53:22.001Z</time></trkpt><trkpt lat="14.54732783960783" lon="121.05334980123463"><ele>33.0</ele><time>2026-05-06T07:53:23.001Z</time></trkpt><trkpt lat="14.547321512638185" lon="121.05326481248227"><ele>33.0</ele><time>2026-05-06T07:53:24.001Z</time></trkpt><trkpt lat="14.547315117019735" lon="121.05317823639834"><ele>33.0</ele><time>2026-05-06T07:53:25.001Z</time></trkpt><trkpt lat="14.547309377036832" lon="121.05310686268886"><ele>33.333333333333336</ele><time>2026-05-06T07:53:26.001Z</time></trkpt><trkpt lat="14.547310396823999" lon="121.05298919877865"><ele>33.666666666666664</ele><time>2026-05-06T07:53:28.001Z</time></trkpt><trkpt lat="14.547312823293526" lon="121.05289836953362"><ele>34.0</ele><time>2026-05-06T07:53:30.001Z</time></trkpt><trkpt lat="14.547311992898244" lon="121.05283303217577"><ele>34.33333333333333</ele><time>2026-05-06T07:53:32.001Z</time></trkpt><trkpt lat="14.547317044000515" lon="121.0527647584562"><ele>34.666666666666664</ele><time>2026-05-06T07:53:34.001Z</time></trkpt><trkpt lat="14.547308066830631" lon="121.05269936346477"><ele>35.0</ele><time>2026-05-06T07:53:36.001Z</time></trkpt><trkpt lat="14.547302792761611" lon="121.05262015972986"><ele>35.0</ele><time>2026-05-06T07:53:37.001Z</time></trkpt><trkpt lat="14.547319531678292" lon="121.05253891051898"><ele>35.0</ele><time>2026-05-06T07:53:40.001Z</time></trkpt><trkpt lat="14.547306958322608" lon="121.05246623600966"><ele>35.0</ele><time>2026-05-06T07:53:43.001Z</time></trkpt><trkpt lat="14.54733365164613" lon="121.0523307090923"><ele>35.0</ele><time>2026-05-06T07:54:06.001Z</time></trkpt><trkpt lat="14.547382950940058" lon="121.05221375477007"><ele>35.0</ele><time>2026-05-06T07:54:08.001Z</time></trkpt><trkpt lat="14.547409773616895" lon="121.05214041556631"><ele>35.2</ele><time>2026-05-06T07:54:09Z</time></trkpt><trkpt lat="14.547437969740232" lon="121.0520502305519"><ele>35.4</ele><time>2026-05-06T07:54:10Z</time></trkpt><trkpt lat="14.547470765437062" lon="121.0519451822008"><ele>35.6</ele><time>2026-05-06T07:54:11Z</time></trkpt><trkpt lat="14.54750649772876" lon="121.05183110568045"><ele>35.8</ele><time>2026-05-06T07:54:12Z</time></trkpt><trkpt lat="14.547561823047909" lon="121.05171165945755"><ele>36.0</ele><time>2026-05-06T07:54:13Z</time></trkpt><trkpt lat="14.547590696595645" lon="121.05158303813938"><ele>36.0</ele><time>2026-05-06T07:54:14Z</time></trkpt><trkpt lat="14.547644588153506" lon="121.05144421665578"><ele>36.0</ele><time>2026-05-06T07:54:15Z</time></trkpt><trkpt lat="14.547698236515284" lon="121.05130679587253"><ele>36.0</ele><time>2026-05-06T07:54:16Z</time></trkpt><trkpt lat="14.547734355044623" lon="121.05116871970624"><ele>36.0</ele><time>2026-05-06T07:54:17Z</time></trkpt><trkpt lat="14.54778324946372" lon="121.05104016784232"><ele>36.0</ele><time>2026-05-06T07:54:18Z</time></trkpt><trkpt lat="14.547823090703895" lon="121.05092408190632"><ele>36.0</ele><time>2026-05-06T07:54:19Z</time></trkpt><trkpt lat="14.547862584973828" lon="121.05081576994564"><ele>36.0</ele><time>2026-05-06T07:54:20Z</time></trkpt><trkpt lat="14.547903866214416" lon="121.0507122911501"><ele>36.0</ele><time>2026-05-06T07:54:21Z</time></trkpt><trkpt lat="14.547941903706693" lon="121.0506013581638"><ele>33.25</ele><time>2026-05-06T07:54:22Z</time></trkpt><trkpt lat="14.547949845716108" lon="121.05048596318635"><ele>30.5</ele><time>2026-05-06T07:54:23Z</time></trkpt><trkpt lat="14.547978554877018" lon="121.05036892975323"><ele>27.75</ele><time>2026-05-06T07:54:24Z</time></trkpt><trkpt lat="14.548006380612614" lon="121.05024550287432"><ele>25.0</ele><time>2026-05-06T07:54:25Z</time></trkpt><trkpt lat="14.548046119476908" lon="121.05010427450763"><ele>25.0</ele><time>2026-05-06T07:54:26Z</time></trkpt><trkpt lat="14.548097861645108" lon="121.0499657654106"><ele>25.0</ele><time>2026-05-06T07:54:27Z</time></trkpt><trkpt lat="14.548153284750374" lon="121.04984353472052"><ele>25.0</ele><time>2026-05-06T07:54:28Z</time></trkpt><trkpt lat="14.54819582474945" lon="121.04972072205193"><ele>25.0</ele><time>2026-05-06T07:54:29Z</time></trkpt><trkpt lat="14.548234546567224" lon="121.04959583676097"><ele>26.25</ele><time>2026-05-06T07:54:30Z</time></trkpt><trkpt lat="14.548266126842718" lon="121.0494700906088"><ele>27.5</ele><time>2026-05-06T07:54:31Z</time></trkpt><trkpt lat="14.548303856786083" lon="121.04934621447855"><ele>28.75</ele><time>2026-05-06T07:54:32Z</time></trkpt><trkpt lat="14.548351196850723" lon="121.04922482877824"><ele>30.0</ele><time>2026-05-06T07:54:33Z</time></trkpt><trkpt lat="14.548395206890875" lon="121.04910219258603"><ele>30.25</ele><time>2026-05-06T07:54:34Z</time></trkpt><trkpt lat="14.548434508228219" lon="121.04897382728676"><ele>30.5</ele><time>2026-05-06T07:54:35Z</time></trkpt><trkpt lat="14.548467977942968" lon="121.04884875898684"><ele>30.75</ele><time>2026-05-06T07:54:36Z</time></trkpt><trkpt lat="14.548505192878316" lon="121.04873049094319"><ele>31.0</ele><time>2026-05-06T07:54:37Z</time></trkpt><trkpt lat="14.548541633120399" lon="121.04862660215316"><ele>31.0</ele><time>2026-05-06T07:54:38Z</time></trkpt><trkpt lat="14.548575630748317" lon="121.04852854271599"><ele>31.0</ele><time>2026-05-06T07:54:39Z</time></trkpt><trkpt lat="14.548600832033374" lon="121.04843582421158"><ele>31.0</ele><time>2026-05-06T07:54:40Z</time></trkpt><trkpt lat="14.548631101675188" lon="121.04834553695792"><ele>31.0</ele><time>2026-05-06T07:54:41Z</time></trkpt><trkpt lat="14.548659155127078" lon="121.0482448980517"><ele>31.0</ele><time>2026-05-06T07:54:42Z</time></trkpt><trkpt lat="14.548686006589053" lon="121.04814586093093"><ele>30.833333333333336</ele><time>2026-05-06T07:54:43Z</time></trkpt><trkpt lat="14.54871824249431" lon="121.04805980328815"><ele>30.666666666666668</ele><time>2026-05-06T07:54:44Z</time></trkpt><trkpt lat="14.548750650559205" lon="121.04796450814182"><ele>30.5</ele><time>2026-05-06T07:54:45Z</time></trkpt><trkpt lat="14.548778365568127" lon="121.04787460939733"><ele>30.333333333333336</ele><time>2026-05-06T07:54:46Z</time></trkpt><trkpt lat="14.54880005960072" lon="121.04779445991392"><ele>30.166666666666668</ele><time>2026-05-06T07:54:47Z</time></trkpt><trkpt lat="14.548821234761943" lon="121.04771626150551"><ele>30.0</ele><time>2026-05-06T07:54:48Z</time></trkpt><trkpt lat="14.548855770130997" lon="121.04760538922102"><ele>30.0</ele><time>2026-05-06T07:54:50Z</time></trkpt><trkpt lat="14.548873777959834" lon="121.04753745570925"><ele>30.0</ele><time>2026-05-06T07:54:52Z</time></trkpt><trkpt lat="14.548892369609508" lon="121.04746797739752"><ele>30.0</ele><time>2026-05-06T07:54:56Z</time></trkpt><trkpt lat="14.548899212985885" lon="121.04739317537232"><ele>30.0</ele><time>2026-05-06T07:55:08Z</time></trkpt><trkpt lat="14.548918831622982" lon="121.04732305502682"><ele>30.0</ele><time>2026-05-06T07:55:11.001Z</time></trkpt><trkpt lat="14.548940650292405" lon="121.04723476940707"><ele>30.0</ele><time>2026-05-06T07:55:13.001Z</time></trkpt><trkpt lat="14.548980173419004" lon="121.04714421641766"><ele>30.4</ele><time>2026-05-06T07:55:15.001Z</time></trkpt><trkpt lat="14.549004851817937" lon="121.04708279239657"><ele>30.8</ele><time>2026-05-06T07:55:17.001Z</time></trkpt><trkpt lat="14.549040943587892" lon="121.04700689885762"><ele>31.200000000000003</ele><time>2026-05-06T07:55:19.001Z</time></trkpt><trkpt lat="14.549225479296092" lon="121.04700199808894"><ele>31.6</ele><time>2026-05-06T07:55:24.001Z</time></trkpt><trkpt lat="14.549299697883015" lon="121.04703736671227"><ele>32.0</ele><time>2026-05-06T07:55:25.001Z</time></trkpt><trkpt lat="14.549383847963353" lon="121.04706587470307"><ele>32.0</ele><time>2026-05-06T07:55:26.001Z</time></trkpt><trkpt lat="14.549469964563903" lon="121.04709584281892"><ele>32.0</ele><time>2026-05-06T07:55:27.001Z</time></trkpt><trkpt lat="14.549567169505153" lon="121.04713420112824"><ele>32.0</ele><time>2026-05-06T07:55:28.001Z</time></trkpt><trkpt lat="14.549666219671437" lon="121.04717002677572"><ele>32.0</ele><time>2026-05-06T07:55:29.001Z</time></trkpt><trkpt lat="14.549761514633468" lon="121.04719845358093"><ele>32.0</ele><time>2026-05-06T07:55:30.001Z</time></trkpt><trkpt lat="14.549848276661702" lon="121.04722432584217"><ele>31.666666666666664</ele><time>2026-05-06T07:55:31.001Z</time></trkpt><trkpt lat="14.549928769907641" lon="121.0472453758492"><ele>31.333333333333332</ele><time>2026-05-06T07:55:32.001Z</time></trkpt><trkpt lat="14.550005483705402" lon="121.04726629629349"><ele>31.0</ele><time>2026-05-06T07:55:33.001Z</time></trkpt><trkpt lat="14.55008252729226" lon="121.04728833390689"><ele>30.666666666666664</ele><time>2026-05-06T07:55:34.001Z</time></trkpt><trkpt lat="14.550151027920599" lon="121.0473021660375"><ele>30.333333333333332</ele><time>2026-05-06T07:55:35.001Z</time></trkpt><trkpt lat="14.550215901750226" lon="121.04732216751665"><ele>30.0</ele><time>2026-05-06T07:55:36.001Z</time></trkpt><trkpt lat="14.550326607049206" lon="121.0473581311652"><ele>29.666666666666668</ele><time>2026-05-06T07:55:38.001Z</time></trkpt><trkpt lat="14.550386535840827" lon="121.04738051134383"><ele>29.333333333333336</ele><time>2026-05-06T07:55:39.001Z</time></trkpt><trkpt lat="14.550453724793272" lon="121.04740279836177"><ele>29.0</ele><time>2026-05-06T07:55:40.001Z</time></trkpt><trkpt lat="14.550521605814675" lon="121.0474252724985"><ele>28.666666666666668</ele><time>2026-05-06T07:55:41.001Z</time></trkpt><trkpt lat="14.550601416308997" lon="121.04746153686276"><ele>28.333333333333336</ele><time>2026-05-06T07:55:42.001Z</time></trkpt><trkpt lat="14.550678495218843" lon="121.04749073904503"><ele>28.0</ele><time>2026-05-06T07:55:43.001Z</time></trkpt><trkpt lat="14.550763961614058" lon="121.0475210025795"><ele>27.666666666666668</ele><time>2026-05-06T07:55:44.001Z</time></trkpt><trkpt lat="14.55085299053305" lon="121.04754721168456"><ele>27.333333333333336</ele><time>2026-05-06T07:55:45.001Z</time></trkpt><trkpt lat="14.550940253484605" lon="121.04757474092365"><ele>27.0</ele><time>2026-05-06T07:55:46.001Z</time></trkpt><trkpt lat="14.551008737854026" lon="121.0475934417502"><ele>26.666666666666664</ele><time>2026-05-06T07:55:47.001Z</time></trkpt><trkpt lat="14.551095990962663" lon="121.04763924249751"><ele>26.333333333333332</ele><time>2026-05-06T07:55:49.001Z</time></trkpt><trkpt lat="14.551185581626012" lon="121.04767058394403"><ele>26.0</ele><time>2026-05-06T07:55:51.001Z</time></trkpt><trkpt lat="14.55126489201156" lon="121.04769832904098"><ele>26.0</ele><time>2026-05-06T07:55:53.001Z</time></trkpt><trkpt lat="14.551287983296254" lon="121.04757959965421"><ele>26.0</ele><time>2026-05-06T07:55:58.001Z</time></trkpt><trkpt lat="14.551276231708373" lon="121.04747757109625"><ele>26.0</ele><time>2026-05-06T07:59:39.001Z</time></trkpt><trkpt lat="14.551208525232523" lon="121.04745696396826"><ele>26.0</ele><time>2026-05-06T07:59:46.001Z</time></trkpt><trkpt lat="14.55114079766582" lon="121.04756501690534"><ele>26.0</ele><time>2026-05-06T07:59:47.001Z</time></trkpt><trkpt lat="14.55106631978539" lon="121.04754021998713"><ele>26.0</ele><time>2026-05-06T07:59:49.001Z</time></trkpt><trkpt lat="14.550982797674166" lon="121.04751182006063"><ele>26.0</ele><time>2026-05-06T07:59:51.001Z</time></trkpt><trkpt lat="14.550922719902843" lon="121.04749139191308"><ele>26.0</ele><time>2026-05-06T07:59:53.001Z</time></trkpt><trkpt lat="14.550837827215572" lon="121.04746249140881"><ele>26.0</ele><time>2026-05-06T07:59:57.001Z</time></trkpt><trkpt lat="14.55072988676817" lon="121.04742614576948"><ele>26.0</ele><time>2026-05-06T07:59:59.001Z</time></trkpt><trkpt lat="14.550638266227091" lon="121.04739437320306"><ele>26.333333333333332</ele><time>2026-05-06T08:00:01.001Z</time></trkpt><trkpt lat="14.550521206407147" lon="121.04735309117804"><ele>26.666666666666664</ele><time>2026-05-06T08:00:03.001Z</time></trkpt><trkpt lat="14.550456268393193" lon="121.04733023959307"><ele>27.0</ele><time>2026-05-06T08:00:04.001Z</time></trkpt><trkpt lat="14.550382807313385" lon="121.04730431813142"><ele>27.333333333333336</ele><time>2026-05-06T08:00:05.001Z</time></trkpt><trkpt lat="14.550305531789283" lon="121.04727705069207"><ele>27.666666666666668</ele><time>2026-05-06T08:00:06.001Z</time></trkpt><trkpt lat="14.55022077233411" lon="121.04724714229837"><ele>28.0</ele><time>2026-05-06T08:00:07.001Z</time></trkpt><trkpt lat="14.55013587010179" lon="121.04720174449854"><ele>28.4</ele><time>2026-05-06T08:00:08.001Z</time></trkpt><trkpt lat="14.550044460671707" lon="121.04717468654891"><ele>28.799999999999997</ele><time>2026-05-06T08:00:09.001Z</time></trkpt><trkpt lat="14.549951384156266" lon="121.04714446776737"><ele>29.2</ele><time>2026-05-06T08:00:10.001Z</time></trkpt><trkpt lat="14.549854973155416" lon="121.04712100511638"><ele>29.6</ele><time>2026-05-06T08:00:11.001Z</time></trkpt><trkpt lat="14.549757479415758" lon="121.04709331980325"><ele>30.0</ele><time>2026-05-06T08:00:12.001Z</time></trkpt><trkpt lat="14.54967037021571" lon="121.0470662660108"><ele>30.0</ele><time>2026-05-06T08:00:13.001Z</time></trkpt><trkpt lat="14.549595112162304" lon="121.04703981640529"><ele>30.0</ele><time>2026-05-06T08:00:14.001Z</time></trkpt><trkpt lat="14.549506008116754" lon="121.04701998948751"><ele>30.0</ele><time>2026-05-06T08:00:15.001Z</time></trkpt><trkpt lat="14.549422217363789" lon="121.04699326766395"><ele>30.0</ele><time>2026-05-06T08:00:16.001Z</time></trkpt><trkpt lat="14.549354261712919" lon="121.04697581550066"><ele>30.0</ele><time>2026-05-06T08:00:17.001Z</time></trkpt><trkpt lat="14.54929227708336" lon="121.04695469358597"><ele>30.0</ele><time>2026-05-06T08:00:18.001Z</time></trkpt><trkpt lat="14.549217963624983" lon="121.04691849169859"><ele>30.4</ele><time>2026-05-06T08:00:20.001Z</time></trkpt><trkpt lat="14.549058176428439" lon="121.04685818475376"><ele>30.8</ele><time>2026-05-06T08:00:49Z</time></trkpt><trkpt lat="14.548998703636205" lon="121.04682660978133"><ele>31.200000000000003</ele><time>2026-05-06T08:00:50Z</time></trkpt><trkpt lat="14.548916577730372" lon="121.04680066379356"><ele>31.6</ele><time>2026-05-06T08:00:51Z</time></trkpt><trkpt lat="14.548816029334343" lon="121.04677473388138"><ele>32.0</ele><time>2026-05-06T08:00:52Z</time></trkpt><trkpt lat="14.548697502310848" lon="121.04674191382261"><ele>30.333333333333332</ele><time>2026-05-06T08:00:53Z</time></trkpt><trkpt lat="14.548571719640604" lon="121.04669943268809"><ele>28.666666666666664</ele><time>2026-05-06T08:00:54Z</time></trkpt><trkpt lat="14.548418491422897" lon="121.04664791767247"><ele>27.0</ele><time>2026-05-06T08:00:55Z</time></trkpt><trkpt lat="14.548250136334138" lon="121.04658472056329"><ele>27.0</ele><time>2026-05-06T08:00:56Z</time></trkpt><trkpt lat="14.548088396314434" lon="121.04651755230485"><ele>27.0</ele><time>2026-05-06T08:00:57Z</time></trkpt><trkpt lat="14.547958914454586" lon="121.04646238467922"><ele>27.0</ele><time>2026-05-06T08:00:58Z</time></trkpt><trkpt lat="14.54786862105649" lon="121.04643489442462"><ele>27.0</ele><time>2026-05-06T08:01:00Z</time></trkpt><trkpt lat="14.547795260477573" lon="121.04641693753689"><ele>27.5</ele><time>2026-05-06T08:01:01Z</time></trkpt><trkpt lat="14.547720605415162" lon="121.04639776683662"><ele>28.0</ele><time>2026-05-06T08:01:02Z</time></trkpt><trkpt lat="14.547644979351864" lon="121.04637406629776"><ele>28.5</ele><time>2026-05-06T08:01:03Z</time></trkpt><trkpt lat="14.547553883258054" lon="121.04633392130087"><ele>29.0</ele><time>2026-05-06T08:01:05Z</time></trkpt><trkpt lat="14.547491131193045" lon="121.04631253978819"><ele>29.5</ele><time>2026-05-06T08:01:09Z</time></trkpt><trkpt lat="14.5474249652838" lon="121.04630565990347"><ele>30.0</ele><time>2026-05-06T08:01:50.001Z</time></trkpt><trkpt lat="14.547366298299895" lon="121.04627786529096"><ele>30.0</ele><time>2026-05-06T08:01:51.001Z</time></trkpt><trkpt lat="14.54728726121815" lon="121.04624635983477"><ele>30.0</ele><time>2026-05-06T08:01:52.001Z</time></trkpt><trkpt lat="14.547211354296666" lon="121.04620862020492"><ele>30.0</ele><time>2026-05-06T08:01:53.001Z</time></trkpt><trkpt lat="14.547134067976186" lon="121.04616071684408"><ele>30.0</ele><time>2026-05-06T08:01:54.001Z</time></trkpt><trkpt lat="14.54706231167487" lon="121.04614370125596"><ele>30.0</ele><time>2026-05-06T08:01:55.001Z</time></trkpt><trkpt lat="14.54698950219958" lon="121.04611969015153"><ele>30.0</ele><time>2026-05-06T08:01:56.001Z</time></trkpt><trkpt lat="14.546887624762576" lon="121.04607328135194"><ele>30.25</ele><time>2026-05-06T08:01:57.001Z</time></trkpt><trkpt lat="14.546786383858374" lon="121.04604763176853"><ele>30.5</ele><time>2026-05-06T08:01:58.001Z</time></trkpt><trkpt lat="14.546665071484952" lon="121.04601585661757"><ele>30.75</ele><time>2026-05-06T08:01:59.001Z</time></trkpt><trkpt lat="14.54655939252602" lon="121.04597189496282"><ele>31.0</ele><time>2026-05-06T08:02:00.001Z</time></trkpt><trkpt lat="14.546440067892421" lon="121.04593418814804"><ele>31.0</ele><time>2026-05-06T08:02:01.001Z</time></trkpt><trkpt lat="14.54631718103219" lon="121.0458904474548"><ele>31.0</ele><time>2026-05-06T08:02:02.001Z</time></trkpt><trkpt lat="14.546185557940104" lon="121.04585618084636"><ele>31.0</ele><time>2026-05-06T08:02:03.001Z</time></trkpt><trkpt lat="14.546067268124567" lon="121.04581771398205"><ele>31.0</ele><time>2026-05-06T08:02:04.001Z</time></trkpt><trkpt lat="14.545968808620405" lon="121.04578148723535"><ele>32.4</ele><time>2026-05-06T08:02:05.001Z</time></trkpt><trkpt lat="14.545872158681417" lon="121.04575626094086"><ele>33.8</ele><time>2026-05-06T08:02:06.001Z</time></trkpt><trkpt lat="14.545743841566178" lon="121.04572430626425"><ele>35.199999999999996</ele><time>2026-05-06T08:02:07.001Z</time></trkpt><trkpt lat="14.545639969649605" lon="121.04569299198538"><ele>36.6</ele><time>2026-05-06T08:02:08.001Z</time></trkpt><trkpt lat="14.54555152323622" lon="121.04567699190666"><ele>38.0</ele><time>2026-05-06T08:02:09.001Z</time></trkpt><trkpt lat="14.545477340276982" lon="121.04566654846916"><ele>38.0</ele><time>2026-05-06T08:02:10.001Z</time></trkpt><trkpt lat="14.545379591843208" lon="121.04567849822337"><ele>38.0</ele><time>2026-05-06T08:02:12.001Z</time></trkpt><trkpt lat="14.545299472767114" lon="121.04566839301353"><ele>38.0</ele><time>2026-05-06T08:03:23.001Z</time></trkpt><trkpt lat="14.54520799023418" lon="121.04565922486502"><ele>38.0</ele><time>2026-05-06T08:03:25.001Z</time></trkpt><trkpt lat="14.545083677253754" lon="121.04565195193071"><ele>38.0</ele><time>2026-05-06T08:03:27.001Z</time></trkpt><trkpt lat="14.545008589153472" lon="121.04566564486773"><ele>38.599999999999994</ele><time>2026-05-06T08:03:28.001Z</time></trkpt><trkpt lat="14.544928324961962" lon="121.04567172045279"><ele>39.199999999999996</ele><time>2026-05-06T08:03:29.001Z</time></trkpt><trkpt lat="14.544849298013443" lon="121.04567820711866"><ele>39.8</ele><time>2026-05-06T08:03:30.001Z</time></trkpt><trkpt lat="14.54476481010176" lon="121.04568735877565"><ele>40.4</ele><time>2026-05-06T08:03:31.001Z</time></trkpt><trkpt lat="14.544664704423845" lon="121.04570227632951"><ele>41.0</ele><time>2026-05-06T08:03:32.001Z</time></trkpt><trkpt lat="14.544561731102098" lon="121.04571798322036"><ele>41.0</ele><time>2026-05-06T08:03:33.001Z</time></trkpt><trkpt lat="14.544464524956968" lon="121.04574343253671"><ele>41.0</ele><time>2026-05-06T08:03:34.001Z</time></trkpt><trkpt lat="14.544361220379459" lon="121.04577143465086"><ele>41.0</ele><time>2026-05-06T08:03:35.001Z</time></trkpt><trkpt lat="14.544255018677957" lon="121.04580269395989"><ele>41.0</ele><time>2026-05-06T08:03:36.001Z</time></trkpt><trkpt lat="14.544141001560964" lon="121.04584172045696"><ele>41.0</ele><time>2026-05-06T08:03:37.001Z</time></trkpt><trkpt lat="14.544025341436713" lon="121.0458813093342"><ele>41.0</ele><time>2026-05-06T08:03:38.001Z</time></trkpt><trkpt lat="14.543902785295058" lon="121.04592325864428"><ele>41.0</ele><time>2026-05-06T08:03:39.001Z</time></trkpt><trkpt lat="14.543778425213702" lon="121.04596582539213"><ele>41.0</ele><time>2026-05-06T08:03:40.001Z</time></trkpt><trkpt lat="14.543650399588211" lon="121.04600964680306"><ele>41.0</ele><time>2026-05-06T08:03:41.001Z</time></trkpt><trkpt lat="14.543518653459573" lon="121.04605474171353"><ele>41.25</ele><time>2026-05-06T08:03:42.001Z</time></trkpt><trkpt lat="14.543385281149233" lon="121.04608277179271"><ele>41.5</ele><time>2026-05-06T08:03:43.001Z</time></trkpt><trkpt lat="14.54325946923074" lon="121.04613750995412"><ele>41.75</ele><time>2026-05-06T08:03:44.001Z</time></trkpt><trkpt lat="14.543135817193965" lon="121.04619149438972"><ele>42.0</ele><time>2026-05-06T08:03:45.001Z</time></trkpt><trkpt lat="14.543010670993503" lon="121.0462395220321"><ele>42.0</ele><time>2026-05-06T08:03:46.001Z</time></trkpt><trkpt lat="14.542897363394909" lon="121.04628899454089"><ele>42.0</ele><time>2026-05-06T08:03:47.001Z</time></trkpt><trkpt lat="14.542803480704173" lon="121.04632917201363"><ele>42.0</ele><time>2026-05-06T08:03:48.001Z</time></trkpt><trkpt lat="14.542723315747864" lon="121.04636464913548"><ele>42.0</ele><time>2026-05-06T08:03:49.001Z</time></trkpt><trkpt lat="14.542654975623472" lon="121.04640083955346"><ele>42.0</ele><time>2026-05-06T08:03:50.001Z</time></trkpt><trkpt lat="14.542572436119302" lon="121.04646267541324"><ele>41.333333333333336</ele><time>2026-05-06T08:03:52.001Z</time></trkpt><trkpt lat="14.542507623103802" lon="121.04651150403893"><ele>40.666666666666664</ele><time>2026-05-06T08:03:55.001Z</time></trkpt><trkpt lat="14.542456939586401" lon="121.0465551128188"><ele>40.0</ele><time>2026-05-06T08:04:14.001Z</time></trkpt><trkpt lat="14.542348722995165" lon="121.04663949165403"><ele>39.33333333333333</ele><time>2026-05-06T08:04:16.001Z</time></trkpt><trkpt lat="14.542280968989987" lon="121.04669333398843"><ele>38.666666666666664</ele><time>2026-05-06T08:04:17.001Z</time></trkpt><trkpt lat="14.542222488192303" lon="121.04673982032593"><ele>38.0</ele><time>2026-05-06T08:04:18.001Z</time></trkpt><trkpt lat="14.542142109881366" lon="121.0467999774573"><ele>37.6</ele><time>2026-05-06T08:04:19.001Z</time></trkpt><trkpt lat="14.542062832761184" lon="121.04686132447213"><ele>37.199999999999996</ele><time>2026-05-06T08:04:20.001Z</time></trkpt><trkpt lat="14.54198223597595" lon="121.04692853122445"><ele>36.8</ele><time>2026-05-06T08:04:21.001Z</time></trkpt><trkpt lat="14.541881169452148" lon="121.04697240782275"><ele>36.4</ele><time>2026-05-06T08:04:22.001Z</time></trkpt><trkpt lat="14.54178221190549" lon="121.0470147697953"><ele>36.0</ele><time>2026-05-06T08:04:23.001Z</time></trkpt><trkpt lat="14.54167031790167" lon="121.04704911874447"><ele>36.0</ele><time>2026-05-06T08:04:24.001Z</time></trkpt><trkpt lat="14.541575116093222" lon="121.04706737167709"><ele>36.0</ele><time>2026-05-06T08:04:25.001Z</time></trkpt><trkpt lat="14.541474343610265" lon="121.04706651704487"><ele>36.0</ele><time>2026-05-06T08:04:26.001Z</time></trkpt><trkpt lat="14.541366528225414" lon="121.04705798983072"><ele>36.0</ele><time>2026-05-06T08:04:27.001Z</time></trkpt><trkpt lat="14.541249017213191" lon="121.04703055293693"><ele>36.0</ele><time>2026-05-06T08:04:28.001Z</time></trkpt><trkpt lat="14.541150570643255" lon="121.04701481408867"><ele>36.5</ele><time>2026-05-06T08:04:29.001Z</time></trkpt><trkpt lat="14.54103415803975" lon="121.04699864719058"><ele>37.0</ele><time>2026-05-06T08:04:30.001Z</time></trkpt><trkpt lat="14.540907316481935" lon="121.04699082072904"><ele>37.5</ele><time>2026-05-06T08:04:31.001Z</time></trkpt><trkpt lat="14.54078119605981" lon="121.0469855896475"><ele>38.0</ele><time>2026-05-06T08:04:32.001Z</time></trkpt><trkpt lat="14.540659716988507" lon="121.04698095527603"><ele>38.0</ele><time>2026-05-06T08:04:33.001Z</time></trkpt><trkpt lat="14.540528614452104" lon="121.0469766290781"><ele>38.0</ele><time>2026-05-06T08:04:34.001Z</time></trkpt><trkpt lat="14.540400317411816" lon="121.0469870101834"><ele>38.0</ele><time>2026-05-06T08:04:35.001Z</time></trkpt><trkpt lat="14.540265020428942" lon="121.04699395426051"><ele>38.0</ele><time>2026-05-06T08:04:36.001Z</time></trkpt><trkpt lat="14.540129877536849" lon="121.04699843711468"><ele>37.5</ele><time>2026-05-06T08:04:37.001Z</time></trkpt><trkpt lat="14.539988706428785" lon="121.04699871394638"><ele>37.0</ele><time>2026-05-06T08:04:38.001Z</time></trkpt><trkpt lat="14.539838272137256" lon="121.04700781549182"><ele>36.5</ele><time>2026-05-06T08:04:39Z</time></trkpt><trkpt lat="14.539706776977049" lon="121.04701535924093"><ele>36.0</ele><time>2026-05-06T08:04:40Z</time></trkpt><trkpt lat="14.539563666640031" lon="121.04702090535591"><ele>35.5</ele><time>2026-05-06T08:04:41Z</time></trkpt><trkpt lat="14.539424914052102" lon="121.04702138299275"><ele>35.0</ele><time>2026-05-06T08:04:42Z</time></trkpt><trkpt lat="14.539282910441742" lon="121.04702171452466"><ele>34.5</ele><time>2026-05-06T08:04:43Z</time></trkpt><trkpt lat="14.539137711636425" lon="121.04702723361059"><ele>34.0</ele><time>2026-05-06T08:04:44Z</time></trkpt><trkpt lat="14.538997395804085" lon="121.04702449670803"><ele>34.0</ele><time>2026-05-06T08:04:45Z</time></trkpt><trkpt lat="14.538858933187786" lon="121.04702897922432"><ele>34.0</ele><time>2026-05-06T08:04:46Z</time></trkpt><trkpt lat="14.538720163964914" lon="121.04702694924586"><ele>34.0</ele><time>2026-05-06T08:04:47Z</time></trkpt><trkpt lat="14.538583928906345" lon="121.04702972140991"><ele>34.0</ele><time>2026-05-06T08:04:48Z</time></trkpt><trkpt lat="14.538446873588208" lon="121.04703659400452"><ele>34.0</ele><time>2026-05-06T08:04:49Z</time></trkpt><trkpt lat="14.53831615696809" lon="121.04703937385639"><ele>34.0</ele><time>2026-05-06T08:04:50Z</time></trkpt><trkpt lat="14.538177791906497" lon="121.04703252659174"><ele>34.0</ele><time>2026-05-06T08:04:51Z</time></trkpt><trkpt lat="14.538041060881746" lon="121.04702282790824"><ele>34.0</ele><time>2026-05-06T08:04:52Z</time></trkpt><trkpt lat="14.537898692757928" lon="121.04701639861369"><ele>34.25</ele><time>2026-05-06T08:04:53Z</time></trkpt><trkpt lat="14.537756924086082" lon="121.04700806655357"><ele>34.5</ele><time>2026-05-06T08:04:54Z</time></trkpt><trkpt lat="14.537620195543466" lon="121.04699034848404"><ele>34.75</ele><time>2026-05-06T08:04:55Z</time></trkpt><trkpt lat="14.537479060140122" lon="121.04698523951916"><ele>35.0</ele><time>2026-05-06T08:04:56Z</time></trkpt><trkpt lat="14.537345041431095" lon="121.0469706672204"><ele>35.0</ele><time>2026-05-06T08:04:57Z</time></trkpt><trkpt lat="14.537207464647059" lon="121.04695792942564"><ele>35.0</ele><time>2026-05-06T08:04:58Z</time></trkpt><trkpt lat="14.537077805814542" lon="121.04692356879414"><ele>35.0</ele><time>2026-05-06T08:04:59Z</time></trkpt><trkpt lat="14.53694714953406" lon="121.04689034439701"><ele>35.0</ele><time>2026-05-06T08:05:00Z</time></trkpt><trkpt lat="14.536826967468098" lon="121.0468527225652"><ele>34.4</ele><time>2026-05-06T08:05:01Z</time></trkpt><trkpt lat="14.536715098597544" lon="121.0468007215618"><ele>33.8</ele><time>2026-05-06T08:05:02Z</time></trkpt><trkpt lat="14.536609264927709" lon="121.04674870397614"><ele>33.2</ele><time>2026-05-06T08:05:03Z</time></trkpt><trkpt lat="14.536505498233337" lon="121.04670490450171"><ele>32.6</ele><time>2026-05-06T08:05:04Z</time></trkpt><trkpt lat="14.536432650257957" lon="121.04666156837459"><ele>32.0</ele><time>2026-05-06T08:05:05Z</time></trkpt><trkpt lat="14.536372120154507" lon="121.04663785468126"><ele>31.8</ele><time>2026-05-06T08:05:06Z</time></trkpt><trkpt lat="14.536283665585495" lon="121.04659582093403"><ele>31.6</ele><time>2026-05-06T08:05:08Z</time></trkpt><trkpt lat="14.536196461126266" lon="121.04655422408497"><ele>31.400000000000002</ele><time>2026-05-06T08:05:10Z</time></trkpt><trkpt lat="14.536104544520592" lon="121.04650863335152"><ele>31.200000000000003</ele><time>2026-05-06T08:05:12Z</time></trkpt><trkpt lat="14.53602495345702" lon="121.04646592770652"><ele>31.0</ele><time>2026-05-06T08:05:14Z</time></trkpt><trkpt lat="14.5359610740686" lon="121.04644614824662"><ele>31.500000000000004</ele><time>2026-05-06T08:05:16Z</time></trkpt><trkpt lat="14.535891738702489" lon="121.0463974857632"><ele>32.0</ele><time>2026-05-06T08:06:11.001Z</time></trkpt><trkpt lat="14.53582708228572" lon="121.04637401697248"><ele>32.5</ele><time>2026-05-06T08:06:13.001Z</time></trkpt><trkpt lat="14.53572619731384" lon="121.04633206577041"><ele>33.0</ele><time>2026-05-06T08:06:15.001Z</time></trkpt><trkpt lat="14.535654898168724" lon="121.04630421615683"><ele>33.5</ele><time>2026-05-06T08:06:16.001Z</time></trkpt><trkpt lat="14.535574072223161" lon="121.04626438090784"><ele>34.0</ele><time>2026-05-06T08:06:17.001Z</time></trkpt><trkpt lat="14.535490383566831" lon="121.04621762278134"><ele>34.0</ele><time>2026-05-06T08:06:18.001Z</time></trkpt><trkpt lat="14.53539805608702" lon="121.04616929353405"><ele>34.0</ele><time>2026-05-06T08:06:19.001Z</time></trkpt><trkpt lat="14.535302032052355" lon="121.04611698856343"><ele>34.0</ele><time>2026-05-06T08:06:20.001Z</time></trkpt><trkpt lat="14.535205441092703" lon="121.04606093238351"><ele>34.0</ele><time>2026-05-06T08:06:21.001Z</time></trkpt><trkpt lat="14.535104618843864" lon="121.0459977375548"><ele>34.0</ele><time>2026-05-06T08:06:22.001Z</time></trkpt><trkpt lat="14.535005455373048" lon="121.0459303002063"><ele>35.25</ele><time>2026-05-06T08:06:23.001Z</time></trkpt><trkpt lat="14.53491677359674" lon="121.04585303196693"><ele>36.5</ele><time>2026-05-06T08:06:24.001Z</time></trkpt><trkpt lat="14.534852439914724" lon="121.04574904664159"><ele>37.75</ele><time>2026-05-06T08:06:25.001Z</time></trkpt><trkpt lat="14.534785761523139" lon="121.04564745114395"><ele>39.0</ele><time>2026-05-06T08:06:26.001Z</time></trkpt><trkpt lat="14.534725226909034" lon="121.04553881262093"><ele>39.0</ele><time>2026-05-06T08:06:27.001Z</time></trkpt><trkpt lat="14.534673611251796" lon="121.04542192028693"><ele>39.0</ele><time>2026-05-06T08:06:28.001Z</time></trkpt><trkpt lat="14.534636824484721" lon="121.04530060487193"><ele>39.0</ele><time>2026-05-06T08:06:29.001Z</time></trkpt><trkpt lat="14.534610498024831" lon="121.04517551896599"><ele>39.0</ele><time>2026-05-06T08:06:30.001Z</time></trkpt><trkpt lat="14.534611376021775" lon="121.04504011846448"><ele>39.25</ele><time>2026-05-06T08:06:31.001Z</time></trkpt><trkpt lat="14.534614157241736" lon="121.04491099674404"><ele>39.5</ele><time>2026-05-06T08:06:32.001Z</time></trkpt><trkpt lat="14.534622516645934" lon="121.04478001936431"><ele>39.75</ele><time>2026-05-06T08:06:33.001Z</time></trkpt><trkpt lat="14.534631482696673" lon="121.04463953695608"><ele>40.0</ele><time>2026-05-06T08:06:34.001Z</time></trkpt><trkpt lat="14.534640866942915" lon="121.0445017605481"><ele>40.0</ele><time>2026-05-06T08:06:35.001Z</time></trkpt><trkpt lat="14.534650029458437" lon="121.04436855734622"><ele>40.0</ele><time>2026-05-06T08:06:36.001Z</time></trkpt><trkpt lat="14.534660103803835" lon="121.04422303902578"><ele>40.0</ele><time>2026-05-06T08:06:37.001Z</time></trkpt><trkpt lat="14.534669534330515" lon="121.04408682028213"><ele>40.0</ele><time>2026-05-06T08:06:38.001Z</time></trkpt><trkpt lat="14.53467938105487" lon="121.04394458978169"><ele>39.5</ele><time>2026-05-06T08:06:39.001Z</time></trkpt><trkpt lat="14.534688649684387" lon="121.04381070957818"><ele>39.0</ele><time>2026-05-06T08:06:40.001Z</time></trkpt><trkpt lat="14.534698222598836" lon="121.0436724341281"><ele>38.5</ele><time>2026-05-06T08:06:41.001Z</time></trkpt><trkpt lat="14.534707716346862" lon="121.04353629827501"><ele>38.0</ele><time>2026-05-06T08:06:42.001Z</time></trkpt><trkpt lat="14.534718261199801" lon="121.04338597939338"><ele>37.75</ele><time>2026-05-06T08:06:43.001Z</time></trkpt><trkpt lat="14.534727802328508" lon="121.04325048239846"><ele>37.5</ele><time>2026-05-06T08:06:44.001Z</time></trkpt><trkpt lat="14.534737032650844" lon="121.04311939927436"><ele>37.25</ele><time>2026-05-06T08:06:45Z</time></trkpt><trkpt lat="14.534745677371852" lon="121.04299663250838"><ele>37.0</ele><time>2026-05-06T08:06:46Z</time></trkpt><trkpt lat="14.534753684471097" lon="121.04288292080491"><ele>37.0</ele><time>2026-05-06T08:06:47Z</time></trkpt><trkpt lat="14.534761481728294" lon="121.04275919802781"><ele>37.0</ele><time>2026-05-06T08:06:48Z</time></trkpt><trkpt lat="14.53477225333395" lon="121.04262851297425"><ele>37.0</ele><time>2026-05-06T08:06:49Z</time></trkpt><trkpt lat="14.534783228091452" lon="121.042499670091"><ele>37.0</ele><time>2026-05-06T08:06:50Z</time></trkpt><trkpt lat="14.534795270866596" lon="121.04235258848463"><ele>35.25</ele><time>2026-05-06T08:06:51Z</time></trkpt><trkpt lat="14.53480736492323" lon="121.04219941849328"><ele>33.5</ele><time>2026-05-06T08:06:52Z</time></trkpt><trkpt lat="14.534819459679003" lon="121.0420462396767"><ele>31.75</ele><time>2026-05-06T08:06:53Z</time></trkpt><trkpt lat="14.534830594805062" lon="121.04189726856987"><ele>30.0</ele><time>2026-05-06T08:06:54Z</time></trkpt><trkpt lat="14.53483951299273" lon="121.04176617122371"><ele>30.0</ele><time>2026-05-06T08:06:55Z</time></trkpt><trkpt lat="14.534846895649103" lon="121.04165764608838"><ele>30.0</ele><time>2026-05-06T08:06:56Z</time></trkpt><trkpt lat="14.534853953707328" lon="121.04155389292534"><ele>30.0</ele><time>2026-05-06T08:06:57Z</time></trkpt><trkpt lat="14.534862554093001" lon="121.04143283068947"><ele>30.0</ele><time>2026-05-06T08:06:58Z</time></trkpt><trkpt lat="14.534868303048956" lon="121.04135144482504"><ele>30.0</ele><time>2026-05-06T08:06:59Z</time></trkpt><trkpt lat="14.534874409370849" lon="121.04126499993963"><ele>29.8</ele><time>2026-05-06T08:07:00Z</time></trkpt><trkpt lat="14.534882534048997" lon="121.04114998186877"><ele>29.6</ele><time>2026-05-06T08:07:02Z</time></trkpt><trkpt lat="14.534888786475486" lon="121.04106146859803"><ele>29.4</ele><time>2026-05-06T08:07:04Z</time></trkpt><trkpt lat="14.534896797548498" lon="121.04095267097254"><ele>29.2</ele><time>2026-05-06T08:07:06Z</time></trkpt><trkpt lat="14.534901334761607" lon="121.0408807970154"><ele>29.0</ele><time>2026-05-06T08:07:07Z</time></trkpt><trkpt lat="14.534905154163086" lon="121.0407803093812"><ele>29.0</ele><time>2026-05-06T08:07:08Z</time></trkpt><trkpt lat="14.534909103255552" lon="121.04066954495539"><ele>29.0</ele><time>2026-05-06T08:07:09Z</time></trkpt><trkpt lat="14.534913528018295" lon="121.04054543881367"><ele>29.0</ele><time>2026-05-06T08:07:10Z</time></trkpt><trkpt lat="14.534917526732093" lon="121.04043328254707"><ele>29.0</ele><time>2026-05-06T08:07:11Z</time></trkpt><trkpt lat="14.53490653558851" lon="121.0403217063603"><ele>29.0</ele><time>2026-05-06T08:07:12Z</time></trkpt><trkpt lat="14.534932229113334" lon="121.04016816778767"><ele>29.0</ele><time>2026-05-06T08:07:13Z</time></trkpt><trkpt lat="14.534946024581119" lon="121.04002504213828"><ele>29.0</ele><time>2026-05-06T08:07:14Z</time></trkpt><trkpt lat="14.53495514535867" lon="121.0398761896376"><ele>29.0</ele><time>2026-05-06T08:07:15Z</time></trkpt><trkpt lat="14.534956001477775" lon="121.03972283507457"><ele>29.0</ele><time>2026-05-06T08:07:16Z</time></trkpt><trkpt lat="14.534947503639215" lon="121.03956407807858"><ele>27.666666666666664</ele><time>2026-05-06T08:07:17Z</time></trkpt><trkpt lat="14.534929261495899" lon="121.03940558549144"><ele>26.333333333333336</ele><time>2026-05-06T08:07:18Z</time></trkpt><trkpt lat="14.534907179670727" lon="121.03924958714211"><ele>25.0</ele><time>2026-05-06T08:07:19Z</time></trkpt><trkpt lat="14.534884643783018" lon="121.03909531260312"><ele>24.75</ele><time>2026-05-06T08:07:20Z</time></trkpt><trkpt lat="14.53485393542348" lon="121.03894590818922"><ele>24.5</ele><time>2026-05-06T08:07:21Z</time></trkpt><trkpt lat="14.534835761440306" lon="121.03880307347923"><ele>24.25</ele><time>2026-05-06T08:07:22Z</time></trkpt><trkpt lat="14.534799870940843" lon="121.03866914849849"><ele>24.0</ele><time>2026-05-06T08:07:23Z</time></trkpt><trkpt lat="14.534755768065194" lon="121.03853699865401"><ele>24.0</ele><time>2026-05-06T08:07:24Z</time></trkpt><trkpt lat="14.534727721943453" lon="121.0384124976725"><ele>24.0</ele><time>2026-05-06T08:07:25Z</time></trkpt><trkpt lat="14.534690861762371" lon="121.03829873429859"><ele>24.0</ele><time>2026-05-06T08:07:26Z</time></trkpt><trkpt lat="14.534649816326992" lon="121.03819643435943"><ele>24.0</ele><time>2026-05-06T08:07:27Z</time></trkpt><trkpt lat="14.534608390657523" lon="121.03810105995221"><ele>24.0</ele><time>2026-05-06T08:07:28Z</time></trkpt><trkpt lat="14.53456193241398" lon="121.03799894975482"><ele>25.2</ele><time>2026-05-06T08:07:29Z</time></trkpt><trkpt lat="14.534508218390895" lon="121.0378918657787"><ele>26.4</ele><time>2026-05-06T08:07:30Z</time></trkpt><trkpt lat="14.534455085579328" lon="121.03779006174904"><ele>27.6</ele><time>2026-05-06T08:07:31Z</time></trkpt><trkpt lat="14.534404372610727" lon="121.03769173640073"><ele>28.8</ele><time>2026-05-06T08:07:32Z</time></trkpt><trkpt lat="14.534350899976024" lon="121.03759351653743"><ele>30.0</ele><time>2026-05-06T08:07:33Z</time></trkpt><trkpt lat="14.53429634133913" lon="121.03750227876063"><ele>28.4</ele><time>2026-05-06T08:07:34Z</time></trkpt><trkpt lat="14.534259252296156" lon="121.03741620288523"><ele>26.8</ele><time>2026-05-06T08:07:35Z</time></trkpt><trkpt lat="14.534198188982547" lon="121.03731777775066"><ele>25.200000000000003</ele><time>2026-05-06T08:07:36Z</time></trkpt><trkpt lat="14.534140689926522" lon="121.0372170290039"><ele>23.6</ele><time>2026-05-06T08:07:37Z</time></trkpt><trkpt lat="14.53406606704357" lon="121.03710860590779"><ele>22.0</ele><time>2026-05-06T08:07:38Z</time></trkpt><trkpt lat="14.533988723353495" lon="121.03699522342478"><ele>22.0</ele><time>2026-05-06T08:07:39Z</time></trkpt><trkpt lat="14.53389527011853" lon="121.03688403154914"><ele>22.0</ele><time>2026-05-06T08:07:40Z</time></trkpt><trkpt lat="14.533796112783127" lon="121.03677675194274"><ele>22.0</ele><time>2026-05-06T08:07:41.001Z</time></trkpt><trkpt lat="14.533696331323329" lon="121.03667646445797"><ele>22.0</ele><time>2026-05-06T08:07:42.001Z</time></trkpt><trkpt lat="14.533593904645654" lon="121.03656565103311"><ele>22.333333333333332</ele><time>2026-05-06T08:07:43.001Z</time></trkpt><trkpt lat="14.533492184180549" lon="121.03645286535783"><ele>22.666666666666668</ele><time>2026-05-06T08:07:44.001Z</time></trkpt><trkpt lat="14.533385696240293" lon="121.03634028218566"><ele>23.0</ele><time>2026-05-06T08:07:45.001Z</time></trkpt><trkpt lat="14.533279600710896" lon="121.03622356397507"><ele>23.0</ele><time>2026-05-06T08:07:46.001Z</time></trkpt><trkpt lat="14.533178959372917" lon="121.0361082272346"><ele>23.0</ele><time>2026-05-06T08:07:47.001Z</time></trkpt><trkpt lat="14.533074770955013" lon="121.03599604481668"><ele>23.0</ele><time>2026-05-06T08:07:48.001Z</time></trkpt><trkpt lat="14.532960777333978" lon="121.03588111649186"><ele>23.25</ele><time>2026-05-06T08:07:49.001Z</time></trkpt><trkpt lat="14.532863614684555" lon="121.03575837888016"><ele>23.5</ele><time>2026-05-06T08:07:50.001Z</time></trkpt><trkpt lat="14.532758436734197" lon="121.03565451240296"><ele>23.75</ele><time>2026-05-06T08:07:51.001Z</time></trkpt><trkpt lat="14.53266709279781" lon="121.03554579204129"><ele>24.0</ele><time>2026-05-06T08:07:52.001Z</time></trkpt><trkpt lat="14.532576002961124" lon="121.03543968130971"><ele>24.0</ele><time>2026-05-06T08:07:53.001Z</time></trkpt><trkpt lat="14.53248659280823" lon="121.03533393285215"><ele>24.0</ele><time>2026-05-06T08:07:54.001Z</time></trkpt><trkpt lat="14.532407336318233" lon="121.03524459941484"><ele>24.0</ele><time>2026-05-06T08:07:55.001Z</time></trkpt><trkpt lat="14.532328678807055" lon="121.0351545755329"><ele>24.0</ele><time>2026-05-06T08:07:56.001Z</time></trkpt><trkpt lat="14.53225924347326" lon="121.0350714321442"><ele>24.0</ele><time>2026-05-06T08:07:57.001Z</time></trkpt><trkpt lat="14.532181071679087" lon="121.03499273979513"><ele>24.0</ele><time>2026-05-06T08:07:58.001Z</time></trkpt><trkpt lat="14.53211371141351" lon="121.03491939135188"><ele>24.0</ele><time>2026-05-06T08:07:59.001Z</time></trkpt><trkpt lat="14.532039149475656" lon="121.03484089747221"><ele>24.0</ele><time>2026-05-06T08:08:00.001Z</time></trkpt><trkpt lat="14.531961162782231" lon="121.03476248634358"><ele>24.0</ele><time>2026-05-06T08:08:01.001Z</time></trkpt><trkpt lat="14.531883019830932" lon="121.0346803372313"><ele>24.5</ele><time>2026-05-06T08:08:02.001Z</time></trkpt><trkpt lat="14.5317995260118" lon="121.03460294971447"><ele>25.0</ele><time>2026-05-06T08:08:03.001Z</time></trkpt><trkpt lat="14.531713933018374" lon="121.03452176786156"><ele>25.5</ele><time>2026-05-06T08:08:04.001Z</time></trkpt><trkpt lat="14.531622564040013" lon="121.03443809538061"><ele>26.0</ele><time>2026-05-06T08:08:05.001Z</time></trkpt><trkpt lat="14.53154257067753" lon="121.03434622236274"><ele>26.0</ele><time>2026-05-06T08:08:06.001Z</time></trkpt><trkpt lat="14.531448396698856" lon="121.03424266397677"><ele>26.0</ele><time>2026-05-06T08:08:07.001Z</time></trkpt><trkpt lat="14.531355116284063" lon="121.03414288689046"><ele>26.0</ele><time>2026-05-06T08:08:08.001Z</time></trkpt><trkpt lat="14.5312547692396" lon="121.03405795090607"><ele>26.0</ele><time>2026-05-06T08:08:09.001Z</time></trkpt><trkpt lat="14.531153434988024" lon="121.03395859403554"><ele>25.75</ele><time>2026-05-06T08:08:10.001Z</time></trkpt><trkpt lat="14.531055417049773" lon="121.03386215349138"><ele>25.5</ele><time>2026-05-06T08:08:11.001Z</time></trkpt><trkpt lat="14.530957462209235" lon="121.03375602632877"><ele>25.25</ele><time>2026-05-06T08:08:12.001Z</time></trkpt><trkpt lat="14.530848219723211" lon="121.03365486469745"><ele>25.0</ele><time>2026-05-06T08:08:13.001Z</time></trkpt><trkpt lat="14.530747632296606" lon="121.03355792969221"><ele>25.0</ele><time>2026-05-06T08:08:14.001Z</time></trkpt><trkpt lat="14.53064015999256" lon="121.03345885636996"><ele>25.0</ele><time>2026-05-06T08:08:15.001Z</time></trkpt><trkpt lat="14.530528521745095" lon="121.03336875350543"><ele>25.0</ele><time>2026-05-06T08:08:16.001Z</time></trkpt><trkpt lat="14.530416845793965" lon="121.03328454676655"><ele>25.0</ele><time>2026-05-06T08:08:17.001Z</time></trkpt><trkpt lat="14.53030507381403" lon="121.03320119764243"><ele>24.5</ele><time>2026-05-06T08:08:18.001Z</time></trkpt><trkpt lat="14.530183125437226" lon="121.03313008882517"><ele>24.0</ele><time>2026-05-06T08:08:19.001Z</time></trkpt><trkpt lat="14.530061558473983" lon="121.03306991417678"><ele>23.5</ele><time>2026-05-06T08:08:20.001Z</time></trkpt><trkpt lat="14.529933402711604" lon="121.03300332772122"><ele>23.0</ele><time>2026-05-06T08:08:21.001Z</time></trkpt><trkpt lat="14.529798144180509" lon="121.03294807777355"><ele>23.0</ele><time>2026-05-06T08:08:22.001Z</time></trkpt><trkpt lat="14.529674877970017" lon="121.0328844482827"><ele>23.0</ele><time>2026-05-06T08:08:23.001Z</time></trkpt><trkpt lat="14.529540679727253" lon="121.03282219041657"><ele>23.0</ele><time>2026-05-06T08:08:24.001Z</time></trkpt><trkpt lat="14.529404399072973" lon="121.0327656269578"><ele>23.0</ele><time>2026-05-06T08:08:25.001Z</time></trkpt><trkpt lat="14.529280970156213" lon="121.03270085074566"><ele>23.0</ele><time>2026-05-06T08:08:26.001Z</time></trkpt><trkpt lat="14.529157099593707" lon="121.03264417305299"><ele>23.0</ele><time>2026-05-06T08:08:27.001Z</time></trkpt><trkpt lat="14.529054366393478" lon="121.03257285407315"><ele>23.0</ele><time>2026-05-06T08:08:28.001Z</time></trkpt><trkpt lat="14.528942770744687" lon="121.0324959575971"><ele>23.0</ele><time>2026-05-06T08:08:29.001Z</time></trkpt><trkpt lat="14.528849905647593" lon="121.0324097344842"><ele>23.0</ele><time>2026-05-06T08:08:30.001Z</time></trkpt><trkpt lat="14.528776059644494" lon="121.03232377333296"><ele>23.0</ele><time>2026-05-06T08:08:31.001Z</time></trkpt><trkpt lat="14.528713600314072" lon="121.03224543395285"><ele>23.0</ele><time>2026-05-06T08:08:32.001Z</time></trkpt><trkpt lat="14.528665271695026" lon="121.03216872276431"><ele>23.0</ele><time>2026-05-06T08:08:33.001Z</time></trkpt><trkpt lat="14.528623896603275" lon="121.03209931211013"><ele>23.0</ele><time>2026-05-06T08:08:34.001Z</time></trkpt><trkpt lat="14.528591034363705" lon="121.03203250313284"><ele>23.0</ele><time>2026-05-06T08:08:35.001Z</time></trkpt><trkpt lat="14.528551599282837" lon="121.03196565936165"><ele>23.0</ele><time>2026-05-06T08:08:36.001Z</time></trkpt><trkpt lat="14.528517422870248" lon="121.03190921497647"><ele>23.0</ele><time>2026-05-06T08:08:37.001Z</time></trkpt><trkpt lat="14.528452719145557" lon="121.03181583712691"><ele>23.0</ele><time>2026-05-06T08:08:39.001Z</time></trkpt><trkpt lat="14.528395634378283" lon="121.03172203905352"><ele>23.0</ele><time>2026-05-06T08:08:41.001Z</time></trkpt><trkpt lat="14.528335165751137" lon="121.03162687096516"><ele>22.333333333333336</ele><time>2026-05-06T08:08:43.001Z</time></trkpt><trkpt lat="14.528270136932965" lon="121.03152812471846"><ele>21.666666666666668</ele><time>2026-05-06T08:08:45.001Z</time></trkpt><trkpt lat="14.528222282466103" lon="121.03144757184079"><ele>21.0</ele><time>2026-05-06T08:08:47.001Z</time></trkpt><trkpt lat="14.528173677557486" lon="121.03137310637112"><ele>20.333333333333332</ele><time>2026-05-06T08:08:49.001Z</time></trkpt><trkpt lat="14.528129481541471" lon="121.03129530107773"><ele>19.666666666666664</ele><time>2026-05-06T08:08:52Z</time></trkpt><trkpt lat="14.528097080946344" lon="121.03123474933646"><ele>19.0</ele><time>2026-05-06T08:08:55Z</time></trkpt><trkpt lat="14.52806308934303" lon="121.03117847206737"><ele>19.0</ele><time>2026-05-06T08:08:57Z</time></trkpt><trkpt lat="14.528030663869622" lon="121.03110928579775"><ele>19.0</ele><time>2026-05-06T08:09:00Z</time></trkpt><trkpt lat="14.527994391551179" lon="121.03103742425577"><ele>19.0</ele><time>2026-05-06T08:09:08Z</time></trkpt><trkpt lat="14.527949609948868" lon="121.03095431969227"><ele>19.0</ele><time>2026-05-06T08:09:11Z</time></trkpt><trkpt lat="14.527904498050894" lon="121.03087110928325"><ele>19.0</ele><time>2026-05-06T08:09:13Z</time></trkpt><trkpt lat="14.527875144334088" lon="121.03080767535363"><ele>19.0</ele><time>2026-05-06T08:09:14Z</time></trkpt><trkpt lat="14.527825685645448" lon="121.0306986451811"><ele>19.666666666666664</ele><time>2026-05-06T08:09:16Z</time></trkpt><trkpt lat="14.527793735062815" lon="121.03062669239026"><ele>20.333333333333332</ele><time>2026-05-06T08:09:17Z</time></trkpt><trkpt lat="14.527766236427148" lon="121.03056392318634"><ele>21.0</ele><time>2026-05-06T08:09:18Z</time></trkpt><trkpt lat="14.52773801067339" lon="121.03049161245754"><ele>21.666666666666668</ele><time>2026-05-06T08:09:19Z</time></trkpt><trkpt lat="14.527710294114573" lon="121.0304200955208"><ele>22.333333333333336</ele><time>2026-05-06T08:09:20Z</time></trkpt><trkpt lat="14.52767825808121" lon="121.030343513298"><ele>23.0</ele><time>2026-05-06T08:09:21Z</time></trkpt><trkpt lat="14.527645944677698" lon="121.03025748189177"><ele>23.0</ele><time>2026-05-06T08:09:22Z</time></trkpt><trkpt lat="14.527619880113019" lon="121.03018549273725"><ele>23.0</ele><time>2026-05-06T08:09:23Z</time></trkpt><trkpt lat="14.52758773110731" lon="121.03010941136448"><ele>23.0</ele><time>2026-05-06T08:09:24Z</time></trkpt><trkpt lat="14.52755013705358" lon="121.03002496176286"><ele>23.0</ele><time>2026-05-06T08:09:25Z</time></trkpt><trkpt lat="14.527515245661084" lon="121.02994411273727"><ele>23.0</ele><time>2026-05-06T08:09:26Z</time></trkpt><trkpt lat="14.527469290556843" lon="121.02985412520957"><ele>23.0</ele><time>2026-05-06T08:09:27Z</time></trkpt><trkpt lat="14.527442780488755" lon="121.02977211072808"><ele>22.599999999999998</ele><time>2026-05-06T08:09:28Z</time></trkpt><trkpt lat="14.52740631751158" lon="121.02968836550012"><ele>22.2</ele><time>2026-05-06T08:09:29Z</time></trkpt><trkpt lat="14.527368745380217" lon="121.02959610893727"><ele>21.8</ele><time>2026-05-06T08:09:30Z</time></trkpt><trkpt lat="14.527308245257881" lon="121.02951573623922"><ele>21.4</ele><time>2026-05-06T08:09:31Z</time></trkpt><trkpt lat="14.527259838021148" lon="121.02942308711108"><ele>21.0</ele><time>2026-05-06T08:09:32Z</time></trkpt><trkpt lat="14.52721018745129" lon="121.02932657444859"><ele>21.0</ele><time>2026-05-06T08:09:33Z</time></trkpt><trkpt lat="14.527181567792606" lon="121.02922499127887"><ele>21.0</ele><time>2026-05-06T08:09:34Z</time></trkpt><trkpt lat="14.527165372034371" lon="121.02913397185142"><ele>21.0</ele><time>2026-05-06T08:09:35Z</time></trkpt><trkpt lat="14.52712482177368" lon="121.02904232295688"><ele>21.0</ele><time>2026-05-06T08:09:36Z</time></trkpt><trkpt lat="14.527077186374067" lon="121.02898106650858"><ele>21.0</ele><time>2026-05-06T08:09:37Z</time></trkpt><trkpt lat="14.52703464678794" lon="121.02888853603194"><ele>20.166666666666668</ele><time>2026-05-06T08:09:39Z</time></trkpt><trkpt lat="14.526999495875566" lon="121.0288157253759"><ele>19.333333333333332</ele><time>2026-05-06T08:09:42Z</time></trkpt><trkpt lat="14.52695177273187" lon="121.02871793270565"><ele>18.5</ele><time>2026-05-06T08:09:44Z</time></trkpt><trkpt lat="14.526912646733317" lon="121.0286340246622"><ele>17.666666666666664</ele><time>2026-05-06T08:09:46Z</time></trkpt><trkpt lat="14.526871860478968" lon="121.02855597676438"><ele>16.833333333333332</ele><time>2026-05-06T08:09:48Z</time></trkpt><trkpt lat="14.526828261564471" lon="121.02847890751929"><ele>16.0</ele><time>2026-05-06T08:09:50Z</time></trkpt><trkpt lat="14.526781017621513" lon="121.02839381600076"><ele>16.0</ele><time>2026-05-06T08:09:53Z</time></trkpt><trkpt lat="14.526738523209533" lon="121.02832395229599"><ele>16.0</ele><time>2026-05-06T08:09:56Z</time></trkpt><trkpt lat="14.526685917274282" lon="121.02824014833786"><ele>16.0</ele><time>2026-05-06T08:10:01Z</time></trkpt><trkpt lat="14.526602890464577" lon="121.02813538063332"><ele>16.0</ele><time>2026-05-06T08:10:03Z</time></trkpt><trkpt lat="14.526553162891508" lon="121.02807700024916"><ele>16.0</ele><time>2026-05-06T08:10:04Z</time></trkpt><trkpt lat="14.526500446552383" lon="121.0280151090261"><ele>15.666666666666666</ele><time>2026-05-06T08:10:05Z</time></trkpt><trkpt lat="14.526442738970365" lon="121.02794708380301"><ele>15.333333333333332</ele><time>2026-05-06T08:10:06.001Z</time></trkpt><trkpt lat="14.526388174239734" lon="121.02787993370686"><ele>15.0</ele><time>2026-05-06T08:10:07Z</time></trkpt><trkpt lat="14.526328063041033" lon="121.02781394854276"><ele>14.666666666666668</ele><time>2026-05-06T08:10:08.001Z</time></trkpt><trkpt lat="14.526272173215053" lon="121.02775356753385"><ele>14.333333333333334</ele><time>2026-05-06T08:10:09.001Z</time></trkpt><trkpt lat="14.526224768062416" lon="121.02769504227936"><ele>14.0</ele><time>2026-05-06T08:10:10.001Z</time></trkpt><trkpt lat="14.526178413356124" lon="121.02763916857917"><ele>13.500000000000002</ele><time>2026-05-06T08:10:11.001Z</time></trkpt><trkpt lat="14.52613283291343" lon="121.02758852783873"><ele>13.0</ele><time>2026-05-06T08:10:12.001Z</time></trkpt><trkpt lat="14.526057573832276" lon="121.02750967257411"><ele>12.5</ele><time>2026-05-06T08:10:14.001Z</time></trkpt><trkpt lat="14.525988128150322" lon="121.02743328465036"><ele>12.0</ele><time>2026-05-06T08:10:16.001Z</time></trkpt><trkpt lat="14.525926127819938" lon="121.02736975488507"><ele>11.5</ele><time>2026-05-06T08:10:18.001Z</time></trkpt><trkpt lat="14.525873649282607" lon="121.02731732723099"><ele>11.0</ele><time>2026-05-06T08:10:20.001Z</time></trkpt><trkpt lat="14.525836641543377" lon="121.02724764684837"><ele>11.0</ele><time>2026-05-06T08:10:22.001Z</time></trkpt><trkpt lat="14.525785292865349" lon="121.0271808773733"><ele>11.0</ele><time>2026-05-06T08:10:25.001Z</time></trkpt><trkpt lat="14.525728788426733" lon="121.02711081333746"><ele>11.0</ele><time>2026-05-06T08:10:28.001Z</time></trkpt><trkpt lat="14.525670689490036" lon="121.02704021056293"><ele>11.0</ele><time>2026-05-06T08:10:30.001Z</time></trkpt><trkpt lat="14.525607850120569" lon="121.02696306510931"><ele>11.0</ele><time>2026-05-06T08:10:32.001Z</time></trkpt><trkpt lat="14.525535825272966" lon="121.02687384858089"><ele>11.0</ele><time>2026-05-06T08:10:34.001Z</time></trkpt><trkpt lat="14.52549228301489" lon="121.02681851702397"><ele>11.0</ele><time>2026-05-06T08:10:35.001Z</time></trkpt><trkpt lat="14.52543824681143" lon="121.0267626273397"><ele>11.0</ele><time>2026-05-06T08:10:36.001Z</time></trkpt><trkpt lat="14.52539661511255" lon="121.02669341718907"><ele>11.0</ele><time>2026-05-06T08:10:37.001Z</time></trkpt><trkpt lat="14.525348910278199" lon="121.02662156954155"><ele>11.0</ele><time>2026-05-06T08:10:38.001Z</time></trkpt><trkpt lat="14.525303890914579" lon="121.02655224274974"><ele>11.0</ele><time>2026-05-06T08:10:39.001Z</time></trkpt><trkpt lat="14.525258321533013" lon="121.02648011999474"><ele>11.333333333333332</ele><time>2026-05-06T08:10:40.001Z</time></trkpt><trkpt lat="14.525212137416712" lon="121.02641484740543"><ele>11.666666666666666</ele><time>2026-05-06T08:10:41.001Z</time></trkpt><trkpt lat="14.525169828973619" lon="121.02635070091534"><ele>12.0</ele><time>2026-05-06T08:10:42.001Z</time></trkpt><trkpt lat="14.525121512767834" lon="121.02628707306854"><ele>12.333333333333332</ele><time>2026-05-06T08:10:43.001Z</time></trkpt><trkpt lat="14.525070332945957" lon="121.02622233332157"><ele>12.666666666666666</ele><time>2026-05-06T08:10:44.001Z</time></trkpt><trkpt lat="14.52501582095653" lon="121.02615518896486"><ele>13.0</ele><time>2026-05-06T08:10:45.001Z</time></trkpt><trkpt lat="14.524963772178934" lon="121.02609473355018"><ele>13.0</ele><time>2026-05-06T08:10:46.001Z</time></trkpt><trkpt lat="14.524909926614935" lon="121.02604818811277"><ele>13.0</ele><time>2026-05-06T08:10:47.001Z</time></trkpt><trkpt lat="14.524823065574472" lon="121.0259710637546"><ele>13.0</ele><time>2026-05-06T08:10:49.001Z</time></trkpt><trkpt lat="14.524730890732885" lon="121.02590066690698"><ele>13.0</ele><time>2026-05-06T08:10:51.001Z</time></trkpt><trkpt lat="14.524636280489547" lon="121.02583106945653"><ele>13.0</ele><time>2026-05-06T08:10:53.001Z</time></trkpt><trkpt lat="14.524586962050908" lon="121.02578783351399"><ele>13.333333333333332</ele><time>2026-05-06T08:10:54.001Z</time></trkpt><trkpt lat="14.524539859043294" lon="121.02573000405117"><ele>13.666666666666666</ele><time>2026-05-06T08:10:55.001Z</time></trkpt><trkpt lat="14.524467791711583" lon="121.02568047488732"><ele>14.0</ele><time>2026-05-06T08:10:56.001Z</time></trkpt><trkpt lat="14.524397499697221" lon="121.02562873530563"><ele>14.333333333333332</ele><time>2026-05-06T08:10:57Z</time></trkpt><trkpt lat="14.524329885055682" lon="121.02557857631847"><ele>14.666666666666666</ele><time>2026-05-06T08:10:58Z</time></trkpt><trkpt lat="14.524244524467141" lon="121.02551962980577"><ele>15.0</ele><time>2026-05-06T08:10:59Z</time></trkpt><trkpt lat="14.524162382003635" lon="121.02546209945643"><ele>15.0</ele><time>2026-05-06T08:11:00Z</time></trkpt><trkpt lat="14.52408372940274" lon="121.0254057627193"><ele>15.0</ele><time>2026-05-06T08:11:01Z</time></trkpt><trkpt lat="14.524011900257124" lon="121.0253520580314"><ele>15.0</ele><time>2026-05-06T08:11:02Z</time></trkpt><trkpt lat="14.523944362544244" lon="121.0252993477967"><ele>15.0</ele><time>2026-05-06T08:11:03Z</time></trkpt><trkpt lat="14.523879843323238" lon="121.02524529989786"><ele>15.0</ele><time>2026-05-06T08:11:04Z</time></trkpt><trkpt lat="14.523817185852222" lon="121.0251933266147"><ele>15.0</ele><time>2026-05-06T08:11:05Z</time></trkpt><trkpt lat="14.523762551221264" lon="121.02515064124003"><ele>15.5</ele><time>2026-05-06T08:11:06Z</time></trkpt><trkpt lat="14.523705760567738" lon="121.02507455513381"><ele>16.0</ele><time>2026-05-06T08:11:08Z</time></trkpt><trkpt lat="14.523649247793685" lon="121.02500527928699"><ele>16.5</ele><time>2026-05-06T08:11:11Z</time></trkpt><trkpt lat="14.523681537178186" lon="121.0249326559006"><ele>17.0</ele><time>2026-05-06T08:13:03Z</time></trkpt><trkpt lat="14.52364302005923" lon="121.02485636477958"><ele>17.5</ele><time>2026-05-06T08:13:06Z</time></trkpt><trkpt lat="14.523618195480516" lon="121.02478809762815"><ele>18.0</ele><time>2026-05-06T08:13:09Z</time></trkpt><trkpt lat="14.52347226083878" lon="121.02481224644859"><ele>18.0</ele><time>2026-05-06T08:13:12Z</time></trkpt><trkpt lat="14.52339428312547" lon="121.0248287490881"><ele>18.0</ele><time>2026-05-06T08:13:15Z</time></trkpt><trkpt lat="14.523350200722968" lon="121.02488955217413"><ele>18.0</ele><time>2026-05-06T08:13:16Z</time></trkpt><trkpt lat="14.523344982454878" lon="121.02497212629231"><ele>18.0</ele><time>2026-05-06T08:13:17Z</time></trkpt><trkpt lat="14.523321972595793" lon="121.0250513105435"><ele>18.0</ele><time>2026-05-06T08:13:19Z</time></trkpt><trkpt lat="14.523297315242239" lon="121.02515017417367"><ele>18.0</ele><time>2026-05-06T08:13:21Z</time></trkpt><trkpt lat="14.523249323614998" lon="121.02524223556513"><ele>18.0</ele><time>2026-05-06T08:13:23Z</time></trkpt><trkpt lat="14.523188933497002" lon="121.02535718205891"><ele>18.0</ele><time>2026-05-06T08:13:25Z</time></trkpt><trkpt lat="14.523152065604384" lon="121.02542052890873"><ele>18.0</ele><time>2026-05-06T08:13:26Z</time></trkpt><trkpt lat="14.52310540157142" lon="121.02550238542652"><ele>18.0</ele><time>2026-05-06T08:13:27Z</time></trkpt><trkpt lat="14.523058055330887" lon="121.02559031376754"><ele>18.0</ele><time>2026-05-06T08:13:28Z</time></trkpt><trkpt lat="14.523010543124803" lon="121.02567484000265"><ele>18.0</ele><time>2026-05-06T08:13:29Z</time></trkpt><trkpt lat="14.522956045721468" lon="121.02575970393688"><ele>18.0</ele><time>2026-05-06T08:13:30Z</time></trkpt><trkpt lat="14.522904916065936" lon="121.02583784110038"><ele>18.0</ele><time>2026-05-06T08:13:31Z</time></trkpt><trkpt lat="14.522850689743953" lon="121.02591678037052"><ele>18.0</ele><time>2026-05-06T08:13:32Z</time></trkpt><trkpt lat="14.52277898450409" lon="121.02599478693543"><ele>18.0</ele><time>2026-05-06T08:13:33Z</time></trkpt><trkpt lat="14.522692621347671" lon="121.0260537248954"><ele>17.2</ele><time>2026-05-06T08:13:34Z</time></trkpt><trkpt lat="14.522589284879226" lon="121.02609544479436"><ele>16.4</ele><time>2026-05-06T08:13:35Z</time></trkpt><trkpt lat="14.522495510560276" lon="121.02612617524122"><ele>15.599999999999998</ele><time>2026-05-06T08:13:36Z</time></trkpt><trkpt lat="14.522415300396267" lon="121.02615936005722"><ele>14.799999999999999</ele><time>2026-05-06T08:13:37Z</time></trkpt><trkpt lat="14.522338137062562" lon="121.02619661661691"><ele>14.0</ele><time>2026-05-06T08:13:38Z</time></trkpt><trkpt lat="14.522261917079165" lon="121.02623160191783"><ele>14.000000000000002</ele><time>2026-05-06T08:13:39Z</time></trkpt><trkpt lat="14.522188396078635" lon="121.02626267812762"><ele>14.0</ele><time>2026-05-06T08:13:40Z</time></trkpt><trkpt lat="14.52211732975789" lon="121.02629383593371"><ele>14.0</ele><time>2026-05-06T08:13:41Z</time></trkpt><trkpt lat="14.52204125837377" lon="121.02632727086014"><ele>14.0</ele><time>2026-05-06T08:13:42Z</time></trkpt><trkpt lat="14.521966770557658" lon="121.0263587862185"><ele>14.000000000000002</ele><time>2026-05-06T08:13:43Z</time></trkpt><trkpt lat="14.521894188980886" lon="121.02639070329576"><ele>14.0</ele><time>2026-05-06T08:13:44Z</time></trkpt><trkpt lat="14.52182967445125" lon="121.02641977612164"><ele>14.0</ele><time>2026-05-06T08:13:45Z</time></trkpt><trkpt lat="14.521759260911166" lon="121.02645175655762"><ele>14.0</ele><time>2026-05-06T08:13:46Z</time></trkpt><trkpt lat="14.521700437379248" lon="121.02647691207399"><ele>14.0</ele><time>2026-05-06T08:13:47Z</time></trkpt><trkpt lat="14.521639020057556" lon="121.02649947445444"><ele>14.0</ele><time>2026-05-06T08:13:48Z</time></trkpt><trkpt lat="14.521577777185703" lon="121.0265236627335"><ele>14.0</ele><time>2026-05-06T08:13:49Z</time></trkpt><trkpt lat="14.521508173557642" lon="121.02655200509487"><ele>14.0</ele><time>2026-05-06T08:13:50Z</time></trkpt><trkpt lat="14.521447748145405" lon="121.02658050078988"><ele>14.0</ele><time>2026-05-06T08:13:51Z</time></trkpt><trkpt lat="14.521386383502797" lon="121.02660523676465"><ele>14.0</ele><time>2026-05-06T08:13:52Z</time></trkpt><trkpt lat="14.52132559471545" lon="121.02663258542404"><ele>14.0</ele><time>2026-05-06T08:13:53Z</time></trkpt><trkpt lat="14.52126707180292" lon="121.02665906003826"><ele>14.0</ele><time>2026-05-06T08:13:54Z</time></trkpt><trkpt lat="14.521206900258866" lon="121.02668410724385"><ele>14.0</ele><time>2026-05-06T08:13:55Z</time></trkpt><trkpt lat="14.521141156942367" lon="121.02671098653114"><ele>14.0</ele><time>2026-05-06T08:13:56Z</time></trkpt><trkpt lat="14.521075063129183" lon="121.02673909073157"><ele>14.0</ele><time>2026-05-06T08:13:57Z</time></trkpt><trkpt lat="14.521006386867592" lon="121.02676914472012"><ele>14.0</ele><time>2026-05-06T08:13:58Z</time></trkpt><trkpt lat="14.520931183603789" lon="121.02680230576917"><ele>14.333333333333334</ele><time>2026-05-06T08:13:59Z</time></trkpt><trkpt lat="14.520852476101124" lon="121.02683618078918"><ele>14.666666666666668</ele><time>2026-05-06T08:14:00Z</time></trkpt><trkpt lat="14.520774213691178" lon="121.02687106843887"><ele>15.0</ele><time>2026-05-06T08:14:01Z</time></trkpt><trkpt lat="14.520695614732082" lon="121.02690635027567"><ele>15.333333333333332</ele><time>2026-05-06T08:14:02Z</time></trkpt><trkpt lat="14.520612953274805" lon="121.02694649614209"><ele>15.666666666666666</ele><time>2026-05-06T08:14:03Z</time></trkpt><trkpt lat="14.52053043767944" lon="121.02699050591178"><ele>16.0</ele><time>2026-05-06T08:14:04Z</time></trkpt><trkpt lat="14.520447408179203" lon="121.02703891087495"><ele>16.0</ele><time>2026-05-06T08:14:05Z</time></trkpt><trkpt lat="14.520363801673785" lon="121.02708487366625"><ele>16.0</ele><time>2026-05-06T08:14:06Z</time></trkpt><trkpt lat="14.520282347956039" lon="121.02712906144839"><ele>16.0</ele><time>2026-05-06T08:14:07Z</time></trkpt><trkpt lat="14.52019803384405" lon="121.02717770826094"><ele>16.0</ele><time>2026-05-06T08:14:08Z</time></trkpt><trkpt lat="14.520110281917283" lon="121.02722735340994"><ele>16.0</ele><time>2026-05-06T08:14:09Z</time></trkpt><trkpt lat="14.520027069191551" lon="121.02727431525923"><ele>16.0</ele><time>2026-05-06T08:14:10Z</time></trkpt><trkpt lat="14.519944057051662" lon="121.0273239390086"><ele>16.0</ele><time>2026-05-06T08:14:11Z</time></trkpt><trkpt lat="14.519856372253967" lon="121.02736965730624"><ele>16.0</ele><time>2026-05-06T08:14:12Z</time></trkpt><trkpt lat="14.51977349844702" lon="121.027412681897"><ele>16.0</ele><time>2026-05-06T08:14:13Z</time></trkpt><trkpt lat="14.519689222419494" lon="121.02745704892565"><ele>16.0</ele><time>2026-05-06T08:14:14Z</time></trkpt><trkpt lat="14.519600974930457" lon="121.0275036208111"><ele>16.2</ele><time>2026-05-06T08:14:15Z</time></trkpt><trkpt lat="14.519508910567776" lon="121.02755289614353"><ele>16.400000000000002</ele><time>2026-05-06T08:14:16Z</time></trkpt><trkpt lat="14.5194144883139" lon="121.02760230091236"><ele>16.6</ele><time>2026-05-06T08:14:17Z</time></trkpt><trkpt lat="14.519325439228705" lon="121.02765073651423"><ele>16.8</ele><time>2026-05-06T08:14:18Z</time></trkpt><trkpt lat="14.51924559823641" lon="121.02769297255499"><ele>17.0</ele><time>2026-05-06T08:14:19Z</time></trkpt><trkpt lat="14.519169959542165" lon="121.02773100744767"><ele>17.0</ele><time>2026-05-06T08:14:20Z</time></trkpt><trkpt lat="14.519099940319952" lon="121.02776816824667"><ele>17.0</ele><time>2026-05-06T08:14:21Z</time></trkpt><trkpt lat="14.519029746226703" lon="121.02780432230286"><ele>17.0</ele><time>2026-05-06T08:14:22Z</time></trkpt><trkpt lat="14.518956093570361" lon="121.0278429635172"><ele>17.0</ele><time>2026-05-06T08:14:23Z</time></trkpt><trkpt lat="14.51888400750113" lon="121.02788021530462"><ele>17.0</ele><time>2026-05-06T08:14:24Z</time></trkpt><trkpt lat="14.518822693279786" lon="121.02791482392668"><ele>17.0</ele><time>2026-05-06T08:14:25.001Z</time></trkpt><trkpt lat="14.518749354662528" lon="121.0279571198137"><ele>17.833333333333336</ele><time>2026-05-06T08:14:26.001Z</time></trkpt><trkpt lat="14.518678538669942" lon="121.02799688408008"><ele>18.666666666666668</ele><time>2026-05-06T08:14:27.001Z</time></trkpt><trkpt lat="14.518607660783035" lon="121.0280317337509"><ele>19.5</ele><time>2026-05-06T08:14:28.001Z</time></trkpt><trkpt lat="14.518534936931651" lon="121.02806789140958"><ele>20.333333333333332</ele><time>2026-05-06T08:14:29.001Z</time></trkpt><trkpt lat="14.518460653389509" lon="121.02810848493591"><ele>21.166666666666664</ele><time>2026-05-06T08:14:30.001Z</time></trkpt><trkpt lat="14.518383427492486" lon="121.02814673395297"><ele>22.0</ele><time>2026-05-06T08:14:31.001Z</time></trkpt><trkpt lat="14.518305477681002" lon="121.0281885934331"><ele>22.0</ele><time>2026-05-06T08:14:32.001Z</time></trkpt><trkpt lat="14.518231414484177" lon="121.02823783967399"><ele>22.0</ele><time>2026-05-06T08:14:33.001Z</time></trkpt><trkpt lat="14.518155277190274" lon="121.02828846945127"><ele>22.0</ele><time>2026-05-06T08:14:34.001Z</time></trkpt><trkpt lat="14.518078907192995" lon="121.02833834036853"><ele>22.0</ele><time>2026-05-06T08:14:35.001Z</time></trkpt><trkpt lat="14.518006060511624" lon="121.0283882469293"><ele>22.0</ele><time>2026-05-06T08:14:36.001Z</time></trkpt><trkpt lat="14.517928050099576" lon="121.0284494463748"><ele>22.166666666666664</ele><time>2026-05-06T08:14:37.001Z</time></trkpt><trkpt lat="14.517853718443503" lon="121.0285061901735"><ele>22.333333333333332</ele><time>2026-05-06T08:14:38.001Z</time></trkpt><trkpt lat="14.517775219053206" lon="121.02856352859338"><ele>22.5</ele><time>2026-05-06T08:14:39.001Z</time></trkpt><trkpt lat="14.51770342834627" lon="121.02862157497621"><ele>22.666666666666668</ele><time>2026-05-06T08:14:40.001Z</time></trkpt><trkpt lat="14.517637342791833" lon="121.02866988285537"><ele>22.833333333333336</ele><time>2026-05-06T08:14:41.001Z</time></trkpt><trkpt lat="14.517578631698843" lon="121.02871719421434"><ele>23.0</ele><time>2026-05-06T08:14:42.001Z</time></trkpt><trkpt lat="14.517509087130849" lon="121.02876698264426"><ele>23.0</ele><time>2026-05-06T08:14:43.001Z</time></trkpt><trkpt lat="14.517456883262332" lon="121.0288055862385"><ele>23.0</ele><time>2026-05-06T08:14:44.001Z</time></trkpt><trkpt lat="14.517373084669753" lon="121.02887031761071"><ele>23.0</ele><time>2026-05-06T08:14:46.001Z</time></trkpt><trkpt lat="14.51728097272439" lon="121.02893737173397"><ele>23.0</ele><time>2026-05-06T08:14:48.001Z</time></trkpt><trkpt lat="14.517225342506485" lon="121.0289805662861"><ele>23.0</ele><time>2026-05-06T08:14:49.001Z</time></trkpt><trkpt lat="14.517167843295118" lon="121.02902777297132"><ele>23.0</ele><time>2026-05-06T08:14:50.001Z</time></trkpt><trkpt lat="14.51709427397416" lon="121.0290786511234"><ele>23.333333333333336</ele><time>2026-05-06T08:14:51.001Z</time></trkpt><trkpt lat="14.517030777043384" lon="121.02912906454175"><ele>23.666666666666668</ele><time>2026-05-06T08:14:52.001Z</time></trkpt><trkpt lat="14.516962030022157" lon="121.02918321552238"><ele>24.0</ele><time>2026-05-06T08:14:53.001Z</time></trkpt><trkpt lat="14.51688899717726" lon="121.02923374427043"><ele>24.333333333333336</ele><time>2026-05-06T08:14:54.001Z</time></trkpt><trkpt lat="14.51682358455759" lon="121.02928467918628"><ele>24.666666666666668</ele><time>2026-05-06T08:14:55.001Z</time></trkpt><trkpt lat="14.516758169845932" lon="121.02933252018808"><ele>25.0</ele><time>2026-05-06T08:14:56.001Z</time></trkpt><trkpt lat="14.51669358250982" lon="121.02938819743558"><ele>25.0</ele><time>2026-05-06T08:14:57.001Z</time></trkpt><trkpt lat="14.516621659268607" lon="121.02944194465891"><ele>25.0</ele><time>2026-05-06T08:14:58.001Z</time></trkpt><trkpt lat="14.516544583022108" lon="121.0294884898746"><ele>25.0</ele><time>2026-05-06T08:14:59.001Z</time></trkpt><trkpt lat="14.516463657067314" lon="121.0295419175823"><ele>25.0</ele><time>2026-05-06T08:15:00.001Z</time></trkpt><trkpt lat="14.516377524200289" lon="121.02959591366105"><ele>25.0</ele><time>2026-05-06T08:15:01.001Z</time></trkpt><trkpt lat="14.516293961539931" lon="121.02963520958009"><ele>24.5</ele><time>2026-05-06T08:15:02.001Z</time></trkpt><trkpt lat="14.516199910039187" lon="121.02968610951643"><ele>24.0</ele><time>2026-05-06T08:15:03.001Z</time></trkpt><trkpt lat="14.516104699903384" lon="121.02973950281327"><ele>23.5</ele><time>2026-05-06T08:15:04.001Z</time></trkpt><trkpt lat="14.515997755822456" lon="121.02979502026825"><ele>23.0</ele><time>2026-05-06T08:15:05.001Z</time></trkpt><trkpt lat="14.51588103967702" lon="121.02985004682368"><ele>23.0</ele><time>2026-05-06T08:15:06.001Z</time></trkpt><trkpt lat="14.515766880464977" lon="121.02990169671111"><ele>23.0</ele><time>2026-05-06T08:15:07.001Z</time></trkpt><trkpt lat="14.515654537812571" lon="121.0299595570472"><ele>23.0</ele><time>2026-05-06T08:15:08.001Z</time></trkpt><trkpt lat="14.515544596936138" lon="121.03001973624887"><ele>23.0</ele><time>2026-05-06T08:15:08.999Z</time></trkpt><trkpt lat="14.51543479661472" lon="121.03007366289692"><ele>23.25</ele><time>2026-05-06T08:15:09.999Z</time></trkpt><trkpt lat="14.51532312206131" lon="121.03012814824481"><ele>23.5</ele><time>2026-05-06T08:15:10.999Z</time></trkpt><trkpt lat="14.515212608113575" lon="121.03018268649656"><ele>23.75</ele><time>2026-05-06T08:15:11.999Z</time></trkpt><trkpt lat="14.51510009767515" lon="121.03023935391704"><ele>24.0</ele><time>2026-05-06T08:15:12.999Z</time></trkpt><trkpt lat="14.514994721143218" lon="121.03029776629599"><ele>24.0</ele><time>2026-05-06T08:15:13.999Z</time></trkpt><trkpt lat="14.514886035537831" lon="121.03035386975982"><ele>24.0</ele><time>2026-05-06T08:15:14.999Z</time></trkpt><trkpt lat="14.514782442962044" lon="121.03040723485972"><ele>24.0</ele><time>2026-05-06T08:15:15.999Z</time></trkpt><trkpt lat="14.514684375474888" lon="121.03045496540459"><ele>24.0</ele><time>2026-05-06T08:15:16.999Z</time></trkpt><trkpt lat="14.514582255354568" lon="121.03050832147431"><ele>23.75</ele><time>2026-05-06T08:15:17.999Z</time></trkpt><trkpt lat="14.514481441141436" lon="121.03055359122028"><ele>23.5</ele><time>2026-05-06T08:15:18.999Z</time></trkpt><trkpt lat="14.51437660482383" lon="121.03059970552268"><ele>23.25</ele><time>2026-05-06T08:15:19.999Z</time></trkpt><trkpt lat="14.514266776142863" lon="121.03064679039615"><ele>23.0</ele><time>2026-05-06T08:15:20.999Z</time></trkpt><trkpt lat="14.514151646678455" lon="121.03069292093382"><ele>23.0</ele><time>2026-05-06T08:15:21.999Z</time></trkpt><trkpt lat="14.514033676045303" lon="121.03073721545178"><ele>23.0</ele><time>2026-05-06T08:15:22.999Z</time></trkpt><trkpt lat="14.513912371690681" lon="121.03078094542118"><ele>23.0</ele><time>2026-05-06T08:15:23.999Z</time></trkpt><trkpt lat="14.513786181631618" lon="121.0308298081891"><ele>23.0</ele><time>2026-05-06T08:15:24.999Z</time></trkpt><trkpt lat="14.513665073096822" lon="121.03087653751761"><ele>22.75</ele><time>2026-05-06T08:15:25.999Z</time></trkpt><trkpt lat="14.513537149030043" lon="121.03092299015253"><ele>22.5</ele><time>2026-05-06T08:15:27Z</time></trkpt><trkpt lat="14.513405399765926" lon="121.03097234586751"><ele>22.25</ele><time>2026-05-06T08:15:28Z</time></trkpt><trkpt lat="14.513275422244185" lon="121.0310179896083"><ele>22.0</ele><time>2026-05-06T08:15:29Z</time></trkpt><trkpt lat="14.513142352070801" lon="121.0310673107921"><ele>22.0</ele><time>2026-05-06T08:15:30Z</time></trkpt><trkpt lat="14.513001900554352" lon="121.03111636212232"><ele>22.0</ele><time>2026-05-06T08:15:31Z</time></trkpt><trkpt lat="14.51286471025598" lon="121.0311658813512"><ele>22.0</ele><time>2026-05-06T08:15:32Z</time></trkpt><trkpt lat="14.512726573896416" lon="121.03121822445465"><ele>22.0</ele><time>2026-05-06T08:15:33Z</time></trkpt><trkpt lat="14.512593358486576" lon="121.03127181849528"><ele>22.25</ele><time>2026-05-06T08:15:34Z</time></trkpt><trkpt lat="14.512472072630118" lon="121.0313299320149"><ele>22.5</ele><time>2026-05-06T08:15:35Z</time></trkpt><trkpt lat="14.512357870797652" lon="121.03138683124104"><ele>22.75</ele><time>2026-05-06T08:15:36Z</time></trkpt><trkpt lat="14.512250024842595" lon="121.03144303803786"><ele>23.0</ele><time>2026-05-06T08:15:37Z</time></trkpt><trkpt lat="14.512146775748969" lon="121.03149571051004"><ele>23.2</ele><time>2026-05-06T08:15:38Z</time></trkpt><trkpt lat="14.512051405438699" lon="121.03154934928675"><ele>23.4</ele><time>2026-05-06T08:15:39Z</time></trkpt><trkpt lat="14.511943111877006" lon="121.0316136299279"><ele>23.599999999999998</ele><time>2026-05-06T08:15:40Z</time></trkpt><trkpt lat="14.511847741838322" lon="121.0316575282644"><ele>23.799999999999997</ele><time>2026-05-06T08:15:41Z</time></trkpt><trkpt lat="14.511752643679394" lon="121.03171163095142"><ele>24.0</ele><time>2026-05-06T08:15:42Z</time></trkpt><trkpt lat="14.511675979339504" lon="121.03175104899726"><ele>24.0</ele><time>2026-05-06T08:15:43Z</time></trkpt><trkpt lat="14.511605010819618" lon="121.0317925537036"><ele>24.0</ele><time>2026-05-06T08:15:44Z</time></trkpt><trkpt lat="14.511541580848926" lon="121.03183066056792"><ele>24.0</ele><time>2026-05-06T08:15:45Z</time></trkpt><trkpt lat="14.51148229682066" lon="121.0318650449265"><ele>24.0</ele><time>2026-05-06T08:15:46Z</time></trkpt><trkpt lat="14.511376897123382" lon="121.03191408189625"><ele>24.0</ele><time>2026-05-06T08:15:48Z</time></trkpt><trkpt lat="14.51130370629194" lon="121.03194324076766"><ele>24.0</ele><time>2026-05-06T08:15:50Z</time></trkpt><trkpt lat="14.511245249096469" lon="121.0319803066335"><ele>24.2</ele><time>2026-05-06T08:15:52Z</time></trkpt><trkpt lat="14.51113839900464" lon="121.03191910186328"><ele>24.4</ele><time>2026-05-06T08:15:54Z</time></trkpt><trkpt lat="14.511041806050821" lon="121.03182861565489"><ele>24.6</ele><time>2026-05-06T08:15:56Z</time></trkpt><trkpt lat="14.510983697042247" lon="121.03177742226192"><ele>24.8</ele><time>2026-05-06T08:15:57Z</time></trkpt><trkpt lat="14.510925535485848" lon="121.03171553547095"><ele>25.0</ele><time>2026-05-06T08:15:58Z</time></trkpt><trkpt lat="14.510875183830128" lon="121.03165412910666"><ele>25.2</ele><time>2026-05-06T08:15:59Z</time></trkpt><trkpt lat="14.510826196536865" lon="121.03159193413161"><ele>25.4</ele><time>2026-05-06T08:16:00Z</time></trkpt><trkpt lat="14.510764650000251" lon="121.03151550311178"><ele>25.6</ele><time>2026-05-06T08:16:01Z</time></trkpt><trkpt lat="14.510707092644443" lon="121.03142956431832"><ele>25.8</ele><time>2026-05-06T08:16:02Z</time></trkpt><trkpt lat="14.510658932538167" lon="121.03132584222719"><ele>26.0</ele><time>2026-05-06T08:16:03Z</time></trkpt><trkpt lat="14.510601171492326" lon="121.0312308855133"><ele>26.0</ele><time>2026-05-06T08:16:04Z</time></trkpt><trkpt lat="14.510541264918874" lon="121.03113526983448"><ele>26.0</ele><time>2026-05-06T08:16:05Z</time></trkpt><trkpt lat="14.510477391887754" lon="121.03103398755393"><ele>26.0</ele><time>2026-05-06T08:16:06Z</time></trkpt><trkpt lat="14.510412164608972" lon="121.03093054596464"><ele>26.0</ele><time>2026-05-06T08:16:07Z</time></trkpt><trkpt lat="14.510338451638333" lon="121.03084392543093"><ele>25.4</ele><time>2026-05-06T08:16:08Z</time></trkpt><trkpt lat="14.510286749606834" lon="121.0307523818976"><ele>24.8</ele><time>2026-05-06T08:16:09Z</time></trkpt><trkpt lat="14.510228739059734" lon="121.03065336784974"><ele>24.2</ele><time>2026-05-06T08:16:10Z</time></trkpt><trkpt lat="14.510171567550183" lon="121.03055810794189"><ele>23.599999999999998</ele><time>2026-05-06T08:16:11Z</time></trkpt><trkpt lat="14.510108133617063" lon="121.03044989874117"><ele>23.0</ele><time>2026-05-06T08:16:12Z</time></trkpt><trkpt lat="14.510048823560158" lon="121.03034723706116"><ele>23.0</ele><time>2026-05-06T08:16:13Z</time></trkpt><trkpt lat="14.509978096333457" lon="121.03023588949178"><ele>23.0</ele><time>2026-05-06T08:16:14Z</time></trkpt><trkpt lat="14.509903990965" lon="121.03012075649775"><ele>23.0</ele><time>2026-05-06T08:16:15Z</time></trkpt><trkpt lat="14.509833098170144" lon="121.02999936547907"><ele>23.0</ele><time>2026-05-06T08:16:16Z</time></trkpt><trkpt lat="14.509753863880848" lon="121.02987179673762"><ele>22.666666666666668</ele><time>2026-05-06T08:16:17Z</time></trkpt><trkpt lat="14.509675813592088" lon="121.0297422924705"><ele>22.333333333333332</ele><time>2026-05-06T08:16:18Z</time></trkpt><trkpt lat="14.509594067189477" lon="121.02960886539798"><ele>22.0</ele><time>2026-05-06T08:16:19Z</time></trkpt><trkpt lat="14.509504138966209" lon="121.0294702427437"><ele>22.0</ele><time>2026-05-06T08:16:20Z</time></trkpt><trkpt lat="14.509411403765135" lon="121.02932859366182"><ele>22.0</ele><time>2026-05-06T08:16:21Z</time></trkpt><trkpt lat="14.509307859215129" lon="121.02918147863103"><ele>22.0</ele><time>2026-05-06T08:16:22Z</time></trkpt><trkpt lat="14.509202694022814" lon="121.02903003116296"><ele>21.333333333333332</ele><time>2026-05-06T08:16:23Z</time></trkpt><trkpt lat="14.50910395409771" lon="121.02887361877096"><ele>20.666666666666668</ele><time>2026-05-06T08:16:24Z</time></trkpt><trkpt lat="14.509019545586135" lon="121.02872336210677"><ele>20.0</ele><time>2026-05-06T08:16:25Z</time></trkpt><trkpt lat="14.50893497584803" lon="121.02857713857503"><ele>20.0</ele><time>2026-05-06T08:16:26Z</time></trkpt><trkpt lat="14.508856445999884" lon="121.02844898875392"><ele>20.0</ele><time>2026-05-06T08:16:27Z</time></trkpt><trkpt lat="14.5087719125992" lon="121.02832159470996"><ele>20.0</ele><time>2026-05-06T08:16:28Z</time></trkpt><trkpt lat="14.508689860681669" lon="121.02818971627006"><ele>20.0</ele><time>2026-05-06T08:16:29Z</time></trkpt><trkpt lat="14.508613248105256" lon="121.02806608413569"><ele>20.25</ele><time>2026-05-06T08:16:30Z</time></trkpt><trkpt lat="14.508536808249405" lon="121.02794621669521"><ele>20.5</ele><time>2026-05-06T08:16:31Z</time></trkpt><trkpt lat="14.508462042852562" lon="121.02782900906007"><ele>20.75</ele><time>2026-05-06T08:16:32Z</time></trkpt><trkpt lat="14.508389168390124" lon="121.02771071263328"><ele>21.0</ele><time>2026-05-06T08:16:33Z</time></trkpt><trkpt lat="14.508308865804107" lon="121.02758858918364"><ele>20.25</ele><time>2026-05-06T08:16:34Z</time></trkpt><trkpt lat="14.508231482168142" lon="121.02746330153198"><ele>19.5</ele><time>2026-05-06T08:16:35Z</time></trkpt><trkpt lat="14.508151392242874" lon="121.02733411851047"><ele>18.75</ele><time>2026-05-06T08:16:36Z</time></trkpt><trkpt lat="14.508067809759181" lon="121.02720314699036"><ele>18.0</ele><time>2026-05-06T08:16:37Z</time></trkpt><trkpt lat="14.507994614207236" lon="121.02708105951115"><ele>18.0</ele><time>2026-05-06T08:16:38.001Z</time></trkpt><trkpt lat="14.507909386437854" lon="121.02695314802797"><ele>18.0</ele><time>2026-05-06T08:16:39.001Z</time></trkpt><trkpt lat="14.507827945801615" lon="121.02682588004748"><ele>18.0</ele><time>2026-05-06T08:16:40.001Z</time></trkpt><trkpt lat="14.507761645380407" lon="121.02671144308114"><ele>18.0</ele><time>2026-05-06T08:16:41.001Z</time></trkpt><trkpt lat="14.507669115617471" lon="121.02660229950233"><ele>17.75</ele><time>2026-05-06T08:16:42.001Z</time></trkpt><trkpt lat="14.507615252588735" lon="121.0265009634675"><ele>17.5</ele><time>2026-05-06T08:16:43.001Z</time></trkpt><trkpt lat="14.507549411065545" lon="121.02639576416655"><ele>17.25</ele><time>2026-05-06T08:16:44.001Z</time></trkpt><trkpt lat="14.507486689586543" lon="121.02629459662715"><ele>17.0</ele><time>2026-05-06T08:16:45.001Z</time></trkpt><trkpt lat="14.507420098881012" lon="121.02619318075487"><ele>17.0</ele><time>2026-05-06T08:16:46.001Z</time></trkpt><trkpt lat="14.507355669245328" lon="121.02608865441007"><ele>17.0</ele><time>2026-05-06T08:16:47.001Z</time></trkpt><trkpt lat="14.507291907841537" lon="121.02598721986192"><ele>17.0</ele><time>2026-05-06T08:16:48.001Z</time></trkpt><trkpt lat="14.507224856785264" lon="121.02588409031125"><ele>17.0</ele><time>2026-05-06T08:16:49.001Z</time></trkpt><trkpt lat="14.507160455166906" lon="121.0257677194856"><ele>17.0</ele><time>2026-05-06T08:16:50.001Z</time></trkpt><trkpt lat="14.507090269262587" lon="121.02564410626799"><ele>17.0</ele><time>2026-05-06T08:16:51.001Z</time></trkpt><trkpt lat="14.507014735851538" lon="121.02551361792857"><ele>17.0</ele><time>2026-05-06T08:16:52.001Z</time></trkpt><trkpt lat="14.506944215935933" lon="121.02538969412646"><ele>17.0</ele><time>2026-05-06T08:16:53.001Z</time></trkpt><trkpt lat="14.506874151161497" lon="121.02527636214101"><ele>16.75</ele><time>2026-05-06T08:16:54.001Z</time></trkpt><trkpt lat="14.506799804311383" lon="121.02515618661681"><ele>16.5</ele><time>2026-05-06T08:16:55.001Z</time></trkpt><trkpt lat="14.506717274723444" lon="121.02503571648177"><ele>16.25</ele><time>2026-05-06T08:16:56.001Z</time></trkpt><trkpt lat="14.50663417340515" lon="121.0249146325857"><ele>16.0</ele><time>2026-05-06T08:16:57.001Z</time></trkpt><trkpt lat="14.506548159208728" lon="121.0247853860725"><ele>15.5</ele><time>2026-05-06T08:16:58.001Z</time></trkpt><trkpt lat="14.506469871047901" lon="121.02465779163344"><ele>15.0</ele><time>2026-05-06T08:16:59.001Z</time></trkpt><trkpt lat="14.506391801703757" lon="121.02452788494037"><ele>14.5</ele><time>2026-05-06T08:17:00.001Z</time></trkpt><trkpt lat="14.506321270575603" lon="121.02440464557696"><ele>14.0</ele><time>2026-05-06T08:17:01.001Z</time></trkpt><trkpt lat="14.5062481144309" lon="121.0242772567099"><ele>13.799999999999999</ele><time>2026-05-06T08:17:02.001Z</time></trkpt><trkpt lat="14.506181635311245" lon="121.02416336996924"><ele>13.599999999999998</ele><time>2026-05-06T08:17:03.001Z</time></trkpt><trkpt lat="14.506128478409769" lon="121.02406615065361"><ele>13.4</ele><time>2026-05-06T08:17:04.001Z</time></trkpt><trkpt lat="14.50607625367705" lon="121.02397988489976"><ele>13.2</ele><time>2026-05-06T08:17:05.001Z</time></trkpt><trkpt lat="14.506040382020975" lon="121.02391052148845"><ele>13.0</ele><time>2026-05-06T08:17:06.001Z</time></trkpt><trkpt lat="14.505983751465546" lon="121.02381675515666"><ele>13.0</ele><time>2026-05-06T08:17:08.001Z</time></trkpt><trkpt lat="14.50587180653699" lon="121.02383393167621"><ele>13.0</ele><time>2026-05-06T08:17:10.001Z</time></trkpt><trkpt lat="14.505757782741592" lon="121.02389157520543"><ele>13.0</ele><time>2026-05-06T08:17:12.001Z</time></trkpt><trkpt lat="14.505698645630792" lon="121.02392601833809"><ele>13.0</ele><time>2026-05-06T08:17:13.001Z</time></trkpt><trkpt lat="14.505611817847704" lon="121.02397713534475"><ele>13.0</ele><time>2026-05-06T08:17:14.999Z</time></trkpt><trkpt lat="14.505530503699827" lon="121.02379804966145"><ele>12.999999999999998</ele><time>2026-05-06T08:17:16.999Z</time></trkpt><trkpt lat="14.505494817049854" lon="121.02368629783663"><ele>13.0</ele><time>2026-05-06T08:17:18.999Z</time></trkpt><trkpt lat="14.50545989921095" lon="121.02363207130897"><ele>13.0</ele><time>2026-05-06T08:17:20.999Z</time></trkpt><trkpt lat="14.505431927352735" lon="121.02354883771308"><ele>13.0</ele><time>2026-05-06T08:17:23.999Z</time></trkpt><trkpt lat="14.505384571899315" lon="121.02345394339986"><ele>12.999999999999998</ele><time>2026-05-06T08:17:25.999Z</time></trkpt><trkpt lat="14.505351262697191" lon="121.02339431277625"><ele>13.0</ele><time>2026-05-06T08:17:26.999Z</time></trkpt><trkpt lat="14.505305954661154" lon="121.02332588450174"><ele>13.0</ele><time>2026-05-06T08:17:27.999Z</time></trkpt><trkpt lat="14.505259324939274" lon="121.02325047598238"><ele>13.0</ele><time>2026-05-06T08:17:28.999Z</time></trkpt><trkpt lat="14.505206727152203" lon="121.02316238789439"><ele>13.0</ele><time>2026-05-06T08:17:29.999Z</time></trkpt><trkpt lat="14.505143407647969" lon="121.02306698673945"><ele>13.0</ele><time>2026-05-06T08:17:30.999Z</time></trkpt><trkpt lat="14.505081200015036" lon="121.02297067104423"><ele>13.0</ele><time>2026-05-06T08:17:31.999Z</time></trkpt><trkpt lat="14.505017376041613" lon="121.02285769636532"><ele>13.0</ele><time>2026-05-06T08:17:32.999Z</time></trkpt><trkpt lat="14.504941195880383" lon="121.02273618593539"><ele>13.0</ele><time>2026-05-06T08:17:33.999Z</time></trkpt><trkpt lat="14.504864866027383" lon="121.02261888199102"><ele>13.0</ele><time>2026-05-06T08:17:34.999Z</time></trkpt><trkpt lat="14.504803164791387" lon="121.0224905511196"><ele>13.0</ele><time>2026-05-06T08:17:35.999Z</time></trkpt><trkpt lat="14.504738726719095" lon="121.02236078964825"><ele>13.25</ele><time>2026-05-06T08:17:37Z</time></trkpt><trkpt lat="14.504690053132801" lon="121.02221582605728"><ele>13.5</ele><time>2026-05-06T08:17:38Z</time></trkpt><trkpt lat="14.504622698071787" lon="121.02208670138032"><ele>13.75</ele><time>2026-05-06T08:17:39Z</time></trkpt><trkpt lat="14.504553940940728" lon="121.02195488884539"><ele>14.0</ele><time>2026-05-06T08:17:40Z</time></trkpt><trkpt lat="14.504468260054521" lon="121.0218306052005"><ele>14.0</ele><time>2026-05-06T08:17:41Z</time></trkpt><trkpt lat="14.504380146907" lon="121.02170946487912"><ele>14.0</ele><time>2026-05-06T08:17:42Z</time></trkpt><trkpt lat="14.504250499931251" lon="121.0216210365027"><ele>14.0</ele><time>2026-05-06T08:17:43Z</time></trkpt><trkpt lat="14.504142502694197" lon="121.0215181175215"><ele>14.0</ele><time>2026-05-06T08:17:44Z</time></trkpt><trkpt lat="14.504027384661525" lon="121.02141960540544"><ele>14.0</ele><time>2026-05-06T08:17:45Z</time></trkpt><trkpt lat="14.503909181986183" lon="121.02132501927889"><ele>14.0</ele><time>2026-05-06T08:17:46Z</time></trkpt><trkpt lat="14.50379108983881" lon="121.02122605372351"><ele>14.0</ele><time>2026-05-06T08:17:47Z</time></trkpt><trkpt lat="14.503672356377464" lon="121.02113018751987"><ele>13.75</ele><time>2026-05-06T08:17:48Z</time></trkpt><trkpt lat="14.50355195241768" lon="121.02103404637592"><ele>13.5</ele><time>2026-05-06T08:17:49Z</time></trkpt><trkpt lat="14.503437719530256" lon="121.02094138984924"><ele>13.25</ele><time>2026-05-06T08:17:50Z</time></trkpt><trkpt lat="14.503335912158256" lon="121.02085971610218"><ele>13.0</ele><time>2026-05-06T08:17:51Z</time></trkpt><trkpt lat="14.503231201631356" lon="121.0207756301694"><ele>12.75</ele><time>2026-05-06T08:17:52Z</time></trkpt><trkpt lat="14.503137879517531" lon="121.02069585448373"><ele>12.5</ele><time>2026-05-06T08:17:53Z</time></trkpt><trkpt lat="14.503052687976947" lon="121.02061450117465"><ele>12.25</ele><time>2026-05-06T08:17:54Z</time></trkpt><trkpt lat="14.50297825559304" lon="121.02052943459609"><ele>12.0</ele><time>2026-05-06T08:17:55Z</time></trkpt><trkpt lat="14.502907172312943" lon="121.02043423431898"><ele>11.4</ele><time>2026-05-06T08:17:56Z</time></trkpt><trkpt lat="14.502852462704125" lon="121.02035197822842"><ele>10.799999999999999</ele><time>2026-05-06T08:17:57Z</time></trkpt><trkpt lat="14.502793160189993" lon="121.02027766808689"><ele>10.2</ele><time>2026-05-06T08:17:58Z</time></trkpt><trkpt lat="14.50272231189506" lon="121.02021547617933"><ele>9.6</ele><time>2026-05-06T08:17:59Z</time></trkpt><trkpt lat="14.502625128983883" lon="121.0201694586544"><ele>9.0</ele><time>2026-05-06T08:18:00Z</time></trkpt><trkpt lat="14.50251961909239" lon="121.0201442604559"><ele>9.0</ele><time>2026-05-06T08:18:01Z</time></trkpt><trkpt lat="14.50243003643398" lon="121.02011358509586"><ele>9.0</ele><time>2026-05-06T08:18:02Z</time></trkpt><trkpt lat="14.502356603776295" lon="121.02006662341552"><ele>9.0</ele><time>2026-05-06T08:18:03Z</time></trkpt><trkpt lat="14.502299383776581" lon="121.02000233726494"><ele>9.0</ele><time>2026-05-06T08:18:04Z</time></trkpt><trkpt lat="14.502300145635338" lon="121.01990704720413"><ele>9.0</ele><time>2026-05-06T08:18:05Z</time></trkpt><trkpt lat="14.502268548865528" lon="121.01980820117886"><ele>8.666666666666666</ele><time>2026-05-06T08:18:06Z</time></trkpt><trkpt lat="14.502238425654237" lon="121.01971203925707"><ele>8.333333333333334</ele><time>2026-05-06T08:18:07Z</time></trkpt><trkpt lat="14.502208436181228" lon="121.01961525681779"><ele>8.0</ele><time>2026-05-06T08:18:08Z</time></trkpt><trkpt lat="14.50218151820388" lon="121.01952854192972"><ele>7.666666666666667</ele><time>2026-05-06T08:18:09Z</time></trkpt><trkpt lat="14.502174496199748" lon="121.0194511967272"><ele>7.333333333333334</ele><time>2026-05-06T08:18:10Z</time></trkpt><trkpt lat="14.502168397512268" lon="121.01938512653544"><ele>7.0</ele><time>2026-05-06T08:18:11Z</time></trkpt><trkpt lat="14.502215920518411" lon="121.01927168899526"><ele>7.000000000000001</ele><time>2026-05-06T08:18:13Z</time></trkpt><trkpt lat="14.502243526535803" lon="121.01919665558205"><ele>7.0</ele><time>2026-05-06T08:18:14Z</time></trkpt><trkpt lat="14.502272594369257" lon="121.01911762673228"><ele>7.0</ele><time>2026-05-06T08:18:15Z</time></trkpt><trkpt lat="14.502296243387846" lon="121.01904957484294"><ele>7.0</ele><time>2026-05-06T08:18:16Z</time></trkpt><trkpt lat="14.502317523942718" lon="121.0189883382881"><ele>7.000000000000001</ele><time>2026-05-06T08:18:17Z</time></trkpt><trkpt lat="14.502361572124896" lon="121.01886158525926"><ele>7.0</ele><time>2026-05-06T08:18:19Z</time></trkpt><trkpt lat="14.502388295698898" lon="121.01877502410032"><ele>7.5</ele><time>2026-05-06T08:18:20Z</time></trkpt><trkpt lat="14.502416485238555" lon="121.01867004236509"><ele>8.0</ele><time>2026-05-06T08:18:21Z</time></trkpt><trkpt lat="14.50244690709821" lon="121.01856032617212"><ele>8.5</ele><time>2026-05-06T08:18:22Z</time></trkpt><trkpt lat="14.50247888986482" lon="121.01844498047069"><ele>9.0</ele><time>2026-05-06T08:18:23Z</time></trkpt><trkpt lat="14.502512037004932" lon="121.01832543550981"><ele>9.5</ele><time>2026-05-06T08:18:24Z</time></trkpt><trkpt lat="14.502552208630672" lon="121.01820787256756"><ele>10.0</ele><time>2026-05-06T08:18:25Z</time></trkpt><trkpt lat="14.502593752143838" lon="121.01809072568058"><ele>10.5</ele><time>2026-05-06T08:18:26Z</time></trkpt><trkpt lat="14.50263528882309" lon="121.01797491634161"><ele>11.0</ele><time>2026-05-06T08:18:27Z</time></trkpt><trkpt lat="14.50267822977214" lon="121.01785519169803"><ele>11.0</ele><time>2026-05-06T08:18:28Z</time></trkpt><trkpt lat="14.502720776450204" lon="121.01773656634249"><ele>11.0</ele><time>2026-05-06T08:18:29Z</time></trkpt><trkpt lat="14.502759732579758" lon="121.01762795185672"><ele>11.0</ele><time>2026-05-06T08:18:30Z</time></trkpt><trkpt lat="14.502797262651981" lon="121.01751070099488"><ele>11.0</ele><time>2026-05-06T08:18:31Z</time></trkpt><trkpt lat="14.50282374599971" lon="121.01739851064346"><ele>10.25</ele><time>2026-05-06T08:18:32Z</time></trkpt><trkpt lat="14.502839527744147" lon="121.0172733739256"><ele>9.5</ele><time>2026-05-06T08:18:33Z</time></trkpt><trkpt lat="14.502846094796022" lon="121.01715250403646"><ele>8.75</ele><time>2026-05-06T08:18:34Z</time></trkpt><trkpt lat="14.502850504120016" lon="121.01703802312761"><ele>8.0</ele><time>2026-05-06T08:18:35Z</time></trkpt><trkpt lat="14.502853620307528" lon="121.01693407012544"><ele>8.0</ele><time>2026-05-06T08:18:36Z</time></trkpt><trkpt lat="14.502849295284252" lon="121.01683390537218"><ele>8.0</ele><time>2026-05-06T08:18:37Z</time></trkpt><trkpt lat="14.502845819823317" lon="121.01673980098018"><ele>8.0</ele><time>2026-05-06T08:18:38Z</time></trkpt><trkpt lat="14.502804686487925" lon="121.0166300622644"><ele>8.0</ele><time>2026-05-06T08:18:39Z</time></trkpt><trkpt lat="14.502750815788554" lon="121.01651573097209"><ele>8.0</ele><time>2026-05-06T08:18:40Z</time></trkpt><trkpt lat="14.502696807413901" lon="121.01639661893424"><ele>8.25</ele><time>2026-05-06T08:18:41.001Z</time></trkpt><trkpt lat="14.502640392869335" lon="121.01627226840695"><ele>8.5</ele><time>2026-05-06T08:18:42.001Z</time></trkpt><trkpt lat="14.502579745683011" lon="121.0161385881703"><ele>8.75</ele><time>2026-05-06T08:18:43.001Z</time></trkpt><trkpt lat="14.502516016698339" lon="121.01599811494764"><ele>9.0</ele><time>2026-05-06T08:18:44.001Z</time></trkpt><trkpt lat="14.502449868094077" lon="121.01585186516951"><ele>8.0</ele><time>2026-05-06T08:18:45.001Z</time></trkpt><trkpt lat="14.502382628651898" lon="121.01570037247403"><ele>7.0</ele><time>2026-05-06T08:18:46.001Z</time></trkpt><trkpt lat="14.502312972077823" lon="121.01553859159978"><ele>6.0</ele><time>2026-05-06T08:18:47.001Z</time></trkpt><trkpt lat="14.502244311823919" lon="121.0153786443619"><ele>6.0</ele><time>2026-05-06T08:18:48.001Z</time></trkpt><trkpt lat="14.502180571174648" lon="121.01522967457996"><ele>6.0</ele><time>2026-05-06T08:18:49.001Z</time></trkpt><trkpt lat="14.50211934432975" lon="121.0150859940268"><ele>6.0</ele><time>2026-05-06T08:18:50.001Z</time></trkpt><trkpt lat="14.502060419030808" lon="121.01494771449305"><ele>6.5</ele><time>2026-05-06T08:18:51.001Z</time></trkpt><trkpt lat="14.502004953800332" lon="121.01481888678136"><ele>7.0</ele><time>2026-05-06T08:18:52.001Z</time></trkpt><trkpt lat="14.501953078430514" lon="121.01469873836244"><ele>7.5</ele><time>2026-05-06T08:18:53.001Z</time></trkpt><trkpt lat="14.501916846419524" lon="121.0145837920263"><ele>8.0</ele><time>2026-05-06T08:18:54.001Z</time></trkpt><trkpt lat="14.50190001444653" lon="121.0144744504375"><ele>8.0</ele><time>2026-05-06T08:18:55.001Z</time></trkpt><trkpt lat="14.501897659437915" lon="121.01436403961564"><ele>8.0</ele><time>2026-05-06T08:18:56.001Z</time></trkpt><trkpt lat="14.501910707124328" lon="121.01424667946054"><ele>8.0</ele><time>2026-05-06T08:18:57.001Z</time></trkpt><trkpt lat="14.501938392631294" lon="121.0141395657562"><ele>8.0</ele><time>2026-05-06T08:18:58.001Z</time></trkpt><trkpt lat="14.501977957014633" lon="121.01402574042667"><ele>8.0</ele><time>2026-05-06T08:18:59.001Z</time></trkpt><trkpt lat="14.502039359826965" lon="121.01393168568468"><ele>7.5</ele><time>2026-05-06T08:19:00.001Z</time></trkpt><trkpt lat="14.502107105947676" lon="121.01383556885128"><ele>7.0</ele><time>2026-05-06T08:19:01.001Z</time></trkpt><trkpt lat="14.502174554282176" lon="121.0137321295944"><ele>6.5</ele><time>2026-05-06T08:19:02.001Z</time></trkpt><trkpt lat="14.5022622020942" lon="121.01364352297246"><ele>6.0</ele><time>2026-05-06T08:19:03.001Z</time></trkpt><trkpt lat="14.502352259771236" lon="121.01355427269444"><ele>6.0</ele><time>2026-05-06T08:19:04.001Z</time></trkpt><trkpt lat="14.502436199141044" lon="121.01347113304793"><ele>6.0</ele><time>2026-05-06T08:19:05.001Z</time></trkpt><trkpt lat="14.502522760593743" lon="121.01338036094394"><ele>6.0</ele><time>2026-05-06T08:19:06.001Z</time></trkpt><trkpt lat="14.502608658339058" lon="121.013287701158"><ele>6.0</ele><time>2026-05-06T08:19:07.001Z</time></trkpt><trkpt lat="14.502692547360471" lon="121.01319900093901"><ele>6.199999999999999</ele><time>2026-05-06T08:19:08.001Z</time></trkpt><trkpt lat="14.502772572475427" lon="121.01311657294076"><ele>6.3999999999999995</ele><time>2026-05-06T08:19:09.001Z</time></trkpt><trkpt lat="14.502841509926975" lon="121.01303813457828"><ele>6.6</ele><time>2026-05-06T08:19:10.001Z</time></trkpt><trkpt lat="14.502890672637486" lon="121.01295504365827"><ele>6.8</ele><time>2026-05-06T08:19:11.001Z</time></trkpt><trkpt lat="14.502924935819497" lon="121.01287844216922"><ele>7.0</ele><time>2026-05-06T08:19:12.001Z</time></trkpt><trkpt lat="14.50294363303063" lon="121.01281324271991"><ele>7.000000000000001</ele><time>2026-05-06T08:19:13.001Z</time></trkpt><trkpt lat="14.502986651619032" lon="121.01276568276026"><ele>7.0</ele><time>2026-05-06T08:19:14.001Z</time></trkpt><trkpt lat="14.502973052653601" lon="121.01266005640866"><ele>7.0</ele><time>2026-05-06T08:19:15.001Z</time></trkpt><trkpt lat="14.50293650783307" lon="121.01259360591065"><ele>7.0</ele><time>2026-05-06T08:19:16.001Z</time></trkpt><trkpt lat="14.502899447285252" lon="121.01252476041866"><ele>7.000000000000001</ele><time>2026-05-06T08:19:17.001Z</time></trkpt><trkpt lat="14.502849618827364" lon="121.0124604711596"><ele>7.0</ele><time>2026-05-06T08:19:18.001Z</time></trkpt><trkpt lat="14.502811830944614" lon="121.01238458000964"><ele>7.000000000000001</ele><time>2026-05-06T08:19:19.001Z</time></trkpt><trkpt lat="14.502769725561581" lon="121.01230749585126"><ele>7.0</ele><time>2026-05-06T08:19:20Z</time></trkpt><trkpt lat="14.502727149568377" lon="121.01222101243272"><ele>7.0</ele><time>2026-05-06T08:19:21Z</time></trkpt><trkpt lat="14.502690340888844" lon="121.01215459981816"><ele>7.0</ele><time>2026-05-06T08:19:22Z</time></trkpt><trkpt lat="14.502677022261466" lon="121.0120736254321"><ele>7.000000000000001</ele><time>2026-05-06T08:19:23Z</time></trkpt><trkpt lat="14.502637783091785" lon="121.01199876866096"><ele>7.0</ele><time>2026-05-06T08:19:24Z</time></trkpt><trkpt lat="14.502590985405243" lon="121.0119097588571"><ele>7.000000000000001</ele><time>2026-05-06T08:19:25Z</time></trkpt><trkpt lat="14.502546704959913" lon="121.01182627446744"><ele>7.0</ele><time>2026-05-06T08:19:26Z</time></trkpt><trkpt lat="14.50250905857217" lon="121.0117552976395"><ele>7.0</ele><time>2026-05-06T08:19:27Z</time></trkpt><trkpt lat="14.50247536700925" lon="121.01169254490907"><ele>7.0</ele><time>2026-05-06T08:19:28Z</time></trkpt><trkpt lat="14.502410357385672" lon="121.01157627482591"><ele>7.000000000000001</ele><time>2026-05-06T08:19:30Z</time></trkpt><trkpt lat="14.502371706008816" lon="121.01150714661736"><ele>7.0</ele><time>2026-05-06T08:19:31Z</time></trkpt><trkpt lat="14.502334405995075" lon="121.0114404353266"><ele>7.333333333333334</ele><time>2026-05-06T08:19:32Z</time></trkpt><trkpt lat="14.502293202414164" lon="121.0113667764442"><ele>7.666666666666667</ele><time>2026-05-06T08:19:33Z</time></trkpt><trkpt lat="14.502252033863767" lon="121.01129323364682"><ele>8.0</ele><time>2026-05-06T08:19:34Z</time></trkpt><trkpt lat="14.502211372987132" lon="121.01122059774943"><ele>8.333333333333334</ele><time>2026-05-06T08:19:35Z</time></trkpt><trkpt lat="14.502174005069493" lon="121.0111538443369"><ele>8.666666666666666</ele><time>2026-05-06T08:19:36Z</time></trkpt><trkpt lat="14.50213183817621" lon="121.01107851811702"><ele>9.0</ele><time>2026-05-06T08:19:37Z</time></trkpt><trkpt lat="14.502088578231369" lon="121.01100123928714"><ele>8.833333333333334</ele><time>2026-05-06T08:19:38Z</time></trkpt><trkpt lat="14.50204285007234" lon="121.01092024559779"><ele>8.666666666666666</ele><time>2026-05-06T08:19:39Z</time></trkpt><trkpt lat="14.501996934681396" lon="121.01083924084354"><ele>8.5</ele><time>2026-05-06T08:19:40Z</time></trkpt><trkpt lat="14.501950016995325" lon="121.01075592882556"><ele>8.333333333333332</ele><time>2026-05-06T08:19:41Z</time></trkpt><trkpt lat="14.501905190758402" lon="121.0106762377383"><ele>8.166666666666666</ele><time>2026-05-06T08:19:42Z</time></trkpt><trkpt lat="14.501865022491144" lon="121.01060451601072"><ele>8.0</ele><time>2026-05-06T08:19:43Z</time></trkpt><trkpt lat="14.501823952583885" lon="121.01053126839513"><ele>8.0</ele><time>2026-05-06T08:19:44Z</time></trkpt><trkpt lat="14.501767352558476" lon="121.0104635689524"><ele>8.0</ele><time>2026-05-06T08:19:45Z</time></trkpt><trkpt lat="14.501738403423463" lon="121.01037960359211"><ele>8.0</ele><time>2026-05-06T08:19:46Z</time></trkpt><trkpt lat="14.501679303095623" lon="121.01030737177213"><ele>8.0</ele><time>2026-05-06T08:19:47Z</time></trkpt><trkpt lat="14.501630937226999" lon="121.01021928871194"><ele>8.0</ele><time>2026-05-06T08:19:48Z</time></trkpt><trkpt lat="14.501580002896707" lon="121.01013204273055"><ele>8.0</ele><time>2026-05-06T08:19:49Z</time></trkpt><trkpt lat="14.501529373822535" lon="121.01003788343834"><ele>8.0</ele><time>2026-05-06T08:19:50Z</time></trkpt><trkpt lat="14.501475206273183" lon="121.00994465045603"><ele>8.0</ele><time>2026-05-06T08:19:51Z</time></trkpt><trkpt lat="14.501424793342705" lon="121.00984383740597"><ele>8.0</ele><time>2026-05-06T08:19:52Z</time></trkpt><trkpt lat="14.501374555354362" lon="121.00974617002545"><ele>8.0</ele><time>2026-05-06T08:19:53Z</time></trkpt><trkpt lat="14.50130696297599" lon="121.00964527547883"><ele>8.25</ele><time>2026-05-06T08:19:54Z</time></trkpt><trkpt lat="14.50125263413392" lon="121.009545408025"><ele>8.5</ele><time>2026-05-06T08:19:55Z</time></trkpt><trkpt lat="14.5011973138776" lon="121.00944060675597"><ele>8.75</ele><time>2026-05-06T08:19:56Z</time></trkpt><trkpt lat="14.501139689816206" lon="121.00933651102105"><ele>9.0</ele><time>2026-05-06T08:19:57Z</time></trkpt><trkpt lat="14.50108181828181" lon="121.00923675626905"><ele>8.833333333333334</ele><time>2026-05-06T08:19:58Z</time></trkpt><trkpt lat="14.501032007902134" lon="121.00914242732964"><ele>8.666666666666666</ele><time>2026-05-06T08:19:59Z</time></trkpt><trkpt lat="14.500989105829989" lon="121.00905619462671"><ele>8.5</ele><time>2026-05-06T08:20:00Z</time></trkpt><trkpt lat="14.500946790699826" lon="121.00897964911196"><ele>8.333333333333332</ele><time>2026-05-06T08:20:01Z</time></trkpt><trkpt lat="14.50091100704359" lon="121.00891715503442"><ele>8.166666666666666</ele><time>2026-05-06T08:20:02Z</time></trkpt><trkpt lat="14.500879826927253" lon="121.00885930507545"><ele>8.0</ele><time>2026-05-06T08:20:03Z</time></trkpt><trkpt lat="14.500850160402793" lon="121.0088014910581"><ele>8.0</ele><time>2026-05-06T08:20:04Z</time></trkpt><trkpt lat="14.500810149160355" lon="121.00872923986066"><ele>7.999999999999999</ele><time>2026-05-06T08:20:05Z</time></trkpt><trkpt lat="14.500774162255809" lon="121.00866219524434"><ele>8.0</ele><time>2026-05-06T08:20:06Z</time></trkpt><trkpt lat="14.50074158562359" lon="121.00860223077838"><ele>8.0</ele><time>2026-05-06T08:20:07Z</time></trkpt><trkpt lat="14.500701691630667" lon="121.00853575059296"><ele>7.999999999999999</ele><time>2026-05-06T08:20:08Z</time></trkpt><trkpt lat="14.500668988265792" lon="121.00847462564833"><ele>8.0</ele><time>2026-05-06T08:20:09Z</time></trkpt><trkpt lat="14.500633983609685" lon="121.00841270033578"><ele>8.0</ele><time>2026-05-06T08:20:10Z</time></trkpt><trkpt lat="14.500602812316458" lon="121.00835273759081"><ele>7.999999999999999</ele><time>2026-05-06T08:20:11Z</time></trkpt><trkpt lat="14.500554684686989" lon="121.00826501506276"><ele>8.0</ele><time>2026-05-06T08:20:13Z</time></trkpt><trkpt lat="14.500523046135534" lon="121.0082062107841"><ele>8.0</ele><time>2026-05-06T08:20:16Z</time></trkpt><trkpt lat="14.500487319832482" lon="121.00813263913437"><ele>8.0</ele><time>2026-05-06T08:20:23Z</time></trkpt><trkpt lat="14.500425806463495" lon="121.00807569499798"><ele>7.999999999999999</ele><time>2026-05-06T08:20:26Z</time></trkpt><trkpt lat="14.500389597549411" lon="121.00801988546279"><ele>8.0</ele><time>2026-05-06T08:20:30.001Z</time></trkpt><trkpt lat="14.500352818246899" lon="121.00795829894787"><ele>7.2</ele><time>2026-05-06T08:20:32.001Z</time></trkpt><trkpt lat="14.500305928478713" lon="121.00787574825681"><ele>6.4</ele><time>2026-05-06T08:20:34.001Z</time></trkpt><trkpt lat="14.50025972090265" lon="121.007787013999"><ele>5.6000000000000005</ele><time>2026-05-06T08:20:36.001Z</time></trkpt><trkpt lat="14.50019851874506" lon="121.00769314881407"><ele>4.800000000000001</ele><time>2026-05-06T08:20:38.001Z</time></trkpt><trkpt lat="14.500180464063606" lon="121.00762869335583"><ele>4.0</ele><time>2026-05-06T08:20:39.001Z</time></trkpt><trkpt lat="14.50011673558045" lon="121.00751769176233"><ele>4.142857142857142</ele><time>2026-05-06T08:20:41.001Z</time></trkpt><trkpt lat="14.50008358437532" lon="121.00745994934607"><ele>4.285714285714286</ele><time>2026-05-06T08:20:42.001Z</time></trkpt><trkpt lat="14.500049444017613" lon="121.00740048405035"><ele>4.428571428571429</ele><time>2026-05-06T08:20:43.001Z</time></trkpt><trkpt lat="14.500016732057986" lon="121.00734183132148"><ele>4.571428571428571</ele><time>2026-05-06T08:20:44.001Z</time></trkpt><trkpt lat="14.499982740576188" lon="121.00728163669679"><ele>4.714285714285714</ele><time>2026-05-06T08:20:45.001Z</time></trkpt><trkpt lat="14.499923060956656" lon="121.00722956772475"><ele>4.857142857142857</ele><time>2026-05-06T08:20:46.001Z</time></trkpt><trkpt lat="14.499886989631948" lon="121.00716250992157"><ele>5.0</ele><time>2026-05-06T08:20:47.001Z</time></trkpt><trkpt lat="14.499853720833114" lon="121.00710406923025"><ele>5.0</ele><time>2026-05-06T08:20:48.001Z</time></trkpt><trkpt lat="14.499822634059129" lon="121.00704657393727"><ele>5.0</ele><time>2026-05-06T08:20:49.001Z</time></trkpt><trkpt lat="14.499794649089534" lon="121.00698125664603"><ele>5.0</ele><time>2026-05-06T08:20:50.001Z</time></trkpt><trkpt lat="14.499731048260175" lon="121.00687228939908"><ele>5.0</ele><time>2026-05-06T08:20:52.001Z</time></trkpt><trkpt lat="14.499707633956342" lon="121.00680013449652"><ele>5.0</ele><time>2026-05-06T08:20:53.001Z</time></trkpt><trkpt lat="14.499669889404291" lon="121.00673342230176"><ele>5.0</ele><time>2026-05-06T08:20:54.001Z</time></trkpt><trkpt lat="14.499636667323083" lon="121.00667459322024"><ele>5.333333333333334</ele><time>2026-05-06T08:20:55.001Z</time></trkpt><trkpt lat="14.499582555821538" lon="121.00661090256533"><ele>5.666666666666667</ele><time>2026-05-06T08:20:56.001Z</time></trkpt><trkpt lat="14.49954549668892" lon="121.0065400922778"><ele>6.0</ele><time>2026-05-06T08:20:57.001Z</time></trkpt><trkpt lat="14.4995048226158" lon="121.00648031598882"><ele>6.333333333333334</ele><time>2026-05-06T08:20:58.001Z</time></trkpt><trkpt lat="14.49946432505467" lon="121.00640992752993"><ele>6.666666666666667</ele><time>2026-05-06T08:20:59.001Z</time></trkpt><trkpt lat="14.499422673211514" lon="121.00633975819251"><ele>7.0</ele><time>2026-05-06T08:21:00.001Z</time></trkpt><trkpt lat="14.499383614464346" lon="121.00626962371597"><ele>7.0</ele><time>2026-05-06T08:21:01.001Z</time></trkpt><trkpt lat="14.499339689947663" lon="121.00619972913466"><ele>7.0</ele><time>2026-05-06T08:21:02.001Z</time></trkpt><trkpt lat="14.49930042764384" lon="121.00613302918765"><ele>7.0</ele><time>2026-05-06T08:21:03.001Z</time></trkpt><trkpt lat="14.499259266781905" lon="121.00607226246935"><ele>7.0</ele><time>2026-05-06T08:21:04.001Z</time></trkpt><trkpt lat="14.499214408150834" lon="121.00602204522178"><ele>7.0</ele><time>2026-05-06T08:21:05.001Z</time></trkpt><trkpt lat="14.499160237640245" lon="121.0059772897607"><ele>7.0</ele><time>2026-05-06T08:21:06.001Z</time></trkpt><trkpt lat="14.499091927214486" lon="121.00593615054669"><ele>7.0</ele><time>2026-05-06T08:21:07.001Z</time></trkpt><trkpt lat="14.498982964806654" lon="121.00587934148892"><ele>7.000000000000001</ele><time>2026-05-06T08:21:09.001Z</time></trkpt><trkpt lat="14.498950934270638" lon="121.00582169795206"><ele>7.0</ele><time>2026-05-06T08:21:10.001Z</time></trkpt><trkpt lat="14.498917117581867" lon="121.00575070137805"><ele>7.0</ele><time>2026-05-06T08:21:11.001Z</time></trkpt><trkpt lat="14.498873586202128" lon="121.0056774421141"><ele>7.0</ele><time>2026-05-06T08:21:12.001Z</time></trkpt><trkpt lat="14.498812456420076" lon="121.00559964713251"><ele>7.000000000000001</ele><time>2026-05-06T08:21:13.001Z</time></trkpt><trkpt lat="14.498743044400229" lon="121.00552130309796"><ele>7.0</ele><time>2026-05-06T08:21:14.001Z</time></trkpt><trkpt lat="14.498667897679963" lon="121.00543464265837"><ele>7.0</ele><time>2026-05-06T08:21:15.001Z</time></trkpt><trkpt lat="14.498585235881732" lon="121.00535226230294"><ele>7.0</ele><time>2026-05-06T08:21:16.001Z</time></trkpt><trkpt lat="14.49849135633772" lon="121.00526532644301"><ele>7.0</ele><time>2026-05-06T08:21:17.001Z</time></trkpt><trkpt lat="14.498395747738998" lon="121.00518130007043"><ele>7.0</ele><time>2026-05-06T08:21:18.001Z</time></trkpt><trkpt lat="14.498294012943049" lon="121.00510097515581"><ele>7.0</ele><time>2026-05-06T08:21:19.001Z</time></trkpt><trkpt lat="14.498184221610558" lon="121.00502639457339"><ele>7.0</ele><time>2026-05-06T08:21:20.001Z</time></trkpt><trkpt lat="14.498082885250133" lon="121.00495994851237"><ele>7.0</ele><time>2026-05-06T08:21:21.001Z</time></trkpt><trkpt lat="14.497989593178831" lon="121.00489860819906"><ele>7.0</ele><time>2026-05-06T08:21:22.001Z</time></trkpt><trkpt lat="14.497900453565464" lon="121.00483813980482"><ele>7.199999999999999</ele><time>2026-05-06T08:21:23.001Z</time></trkpt><trkpt lat="14.497809417071837" lon="121.00478083050623"><ele>7.3999999999999995</ele><time>2026-05-06T08:21:24.001Z</time></trkpt><trkpt lat="14.497724405844673" lon="121.00472795515479"><ele>7.6000000000000005</ele><time>2026-05-06T08:21:25.001Z</time></trkpt><trkpt lat="14.497651539435138" lon="121.00467965055702"><ele>7.800000000000001</ele><time>2026-05-06T08:21:26Z</time></trkpt><trkpt lat="14.497580619597077" lon="121.0046301498156"><ele>8.0</ele><time>2026-05-06T08:21:27Z</time></trkpt><trkpt lat="14.497523502332005" lon="121.00457841989898"><ele>7.999999999999999</ele><time>2026-05-06T08:21:28Z</time></trkpt><trkpt lat="14.497491817914474" lon="121.00450988461502"><ele>8.0</ele><time>2026-05-06T08:21:29Z</time></trkpt><trkpt lat="14.497489588749728" lon="121.00443536581876"><ele>8.0</ele><time>2026-05-06T08:21:30Z</time></trkpt><trkpt lat="14.497537496362312" lon="121.00438757452055"><ele>8.0</ele><time>2026-05-06T08:21:31Z</time></trkpt><trkpt lat="14.497550312486974" lon="121.00431243289817"><ele>7.999999999999999</ele><time>2026-05-06T08:21:32Z</time></trkpt><trkpt lat="14.49759263410844" lon="121.00424677865574"><ele>8.0</ele><time>2026-05-06T08:21:33Z</time></trkpt><trkpt lat="14.497644044972155" lon="121.00417157228955"><ele>7.800000000000001</ele><time>2026-05-06T08:21:34Z</time></trkpt><trkpt lat="14.497704404290747" lon="121.00409981206805"><ele>7.6000000000000005</ele><time>2026-05-06T08:21:35Z</time></trkpt><trkpt lat="14.497742516361768" lon="121.00402946750053"><ele>7.3999999999999995</ele><time>2026-05-06T08:21:36Z</time></trkpt><trkpt lat="14.497811046117748" lon="121.00393716754546"><ele>7.199999999999999</ele><time>2026-05-06T08:21:37Z</time></trkpt><trkpt lat="14.497869798684398" lon="121.00385659675001"><ele>7.0</ele><time>2026-05-06T08:21:38Z</time></trkpt><trkpt lat="14.497910945456816" lon="121.00377529501039"><ele>7.199999999999999</ele><time>2026-05-06T08:21:39Z</time></trkpt><trkpt lat="14.49793731990212" lon="121.00368791424684"><ele>7.3999999999999995</ele><time>2026-05-06T08:21:40Z</time></trkpt><trkpt lat="14.497946452865564" lon="121.00360270968831"><ele>7.6000000000000005</ele><time>2026-05-06T08:21:41Z</time></trkpt><trkpt lat="14.497933676179017" lon="121.00350960822647"><ele>7.800000000000001</ele><time>2026-05-06T08:21:42Z</time></trkpt><trkpt lat="14.497925655796902" lon="121.00341789346689"><ele>8.0</ele><time>2026-05-06T08:21:43Z</time></trkpt><trkpt lat="14.497854290588025" lon="121.00332181528573"><ele>8.0</ele><time>2026-05-06T08:21:44Z</time></trkpt><trkpt lat="14.497789871549765" lon="121.00322315126328"><ele>8.0</ele><time>2026-05-06T08:21:45Z</time></trkpt><trkpt lat="14.497726867931094" lon="121.00311743361694"><ele>8.0</ele><time>2026-05-06T08:21:46Z</time></trkpt><trkpt lat="14.497660128296284" lon="121.00301391900528"><ele>8.0</ele><time>2026-05-06T08:21:47Z</time></trkpt><trkpt lat="14.497593795746765" lon="121.00290492609695"><ele>8.0</ele><time>2026-05-06T08:21:48Z</time></trkpt><trkpt lat="14.497547892795081" lon="121.00278707791813"><ele>8.0</ele><time>2026-05-06T08:21:49Z</time></trkpt><trkpt lat="14.497495127633531" lon="121.00269112612418"><ele>8.0</ele><time>2026-05-06T08:21:50Z</time></trkpt><trkpt lat="14.497425357253974" lon="121.00259817423822"><ele>8.0</ele><time>2026-05-06T08:21:51Z</time></trkpt><trkpt lat="14.497374748323978" lon="121.00249534752382"><ele>7.75</ele><time>2026-05-06T08:21:52Z</time></trkpt><trkpt lat="14.497319442218377" lon="121.00238615010373"><ele>7.5</ele><time>2026-05-06T08:21:53Z</time></trkpt><trkpt lat="14.497259157892275" lon="121.00227766635666"><ele>7.25</ele><time>2026-05-06T08:21:54Z</time></trkpt><trkpt lat="14.497200190432252" lon="121.00216981552774"><ele>7.0</ele><time>2026-05-06T08:21:55Z</time></trkpt><trkpt lat="14.497141320671474" lon="121.00205957174899"><ele>7.0</ele><time>2026-05-06T08:21:56Z</time></trkpt><trkpt lat="14.49707970507957" lon="121.00194538299166"><ele>7.0</ele><time>2026-05-06T08:21:57Z</time></trkpt><trkpt lat="14.49702043767605" lon="121.00183778978156"><ele>7.0</ele><time>2026-05-06T08:21:58Z</time></trkpt><trkpt lat="14.496968176870922" lon="121.00173665756489"><ele>7.0</ele><time>2026-05-06T08:21:59Z</time></trkpt><trkpt lat="14.496914377720886" lon="121.00163875727574"><ele>7.000000000000001</ele><time>2026-05-06T08:22:00Z</time></trkpt><trkpt lat="14.496862201948167" lon="121.00154850623247"><ele>7.0</ele><time>2026-05-06T08:22:01Z</time></trkpt><trkpt lat="14.496813297675413" lon="121.0014686315929"><ele>7.0</ele><time>2026-05-06T08:22:02Z</time></trkpt><trkpt lat="14.496775638045074" lon="121.00139970248279"><ele>7.0</ele><time>2026-05-06T08:22:03Z</time></trkpt><trkpt lat="14.496731968042036" lon="121.001311138988"><ele>7.000000000000001</ele><time>2026-05-06T08:22:05Z</time></trkpt><trkpt lat="14.496688255387914" lon="121.00124665546603"><ele>7.0</ele><time>2026-05-06T08:22:07Z</time></trkpt><trkpt lat="14.496644923814019" lon="121.00117669850573"><ele>7.0</ele><time>2026-05-06T08:22:09Z</time></trkpt><trkpt lat="14.496615843463704" lon="121.00111709771424"><ele>7.0</ele><time>2026-05-06T08:22:10Z</time></trkpt><trkpt lat="14.496580094398583" lon="121.001046185133"><ele>7.0</ele><time>2026-05-06T08:22:11Z</time></trkpt><trkpt lat="14.496534869267188" lon="121.00097782249554"><ele>7.0</ele><time>2026-05-06T08:22:12Z</time></trkpt><trkpt lat="14.496492616984824" lon="121.00090966181214"><ele>7.0</ele><time>2026-05-06T08:22:13Z</time></trkpt><trkpt lat="14.496457113461828" lon="121.00084424564164"><ele>7.0</ele><time>2026-05-06T08:22:14Z</time></trkpt><trkpt lat="14.496428018567652" lon="121.00077839144822"><ele>7.0</ele><time>2026-05-06T08:22:15Z</time></trkpt><trkpt lat="14.496368548706577" lon="121.00067731295368"><ele>6.6</ele><time>2026-05-06T08:22:17Z</time></trkpt><trkpt lat="14.496317588351797" lon="121.00058092032192"><ele>6.199999999999999</ele><time>2026-05-06T08:22:19Z</time></trkpt><trkpt lat="14.49625864937889" lon="121.00047947940477"><ele>5.8</ele><time>2026-05-06T08:22:21Z</time></trkpt><trkpt lat="14.49621550749998" lon="121.00038906158072"><ele>5.4</ele><time>2026-05-06T08:22:23.001Z</time></trkpt><trkpt lat="14.496168658572065" lon="121.00032637674396"><ele>5.0</ele><time>2026-05-06T08:22:26.001Z</time></trkpt><trkpt lat="14.49611638298075" lon="121.00023446752677"><ele>5.0</ele><time>2026-05-06T08:22:29.001Z</time></trkpt><trkpt lat="14.496084283851681" lon="121.00015112929374"><ele>5.0</ele><time>2026-05-06T08:22:31.001Z</time></trkpt><trkpt lat="14.49603897559707" lon="121.00006110094002"><ele>5.0</ele><time>2026-05-06T08:22:33.001Z</time></trkpt><trkpt lat="14.496007650095903" lon="120.9999996461675"><ele>5.0</ele><time>2026-05-06T08:22:34.001Z</time></trkpt><trkpt lat="14.495969124372687" lon="120.99993107014127"><ele>5.0</ele><time>2026-05-06T08:22:35.001Z</time></trkpt><trkpt lat="14.49592397446443" lon="120.99985404786543"><ele>5.0</ele><time>2026-05-06T08:22:36.001Z</time></trkpt><trkpt lat="14.495873735353983" lon="120.9997704822021"><ele>5.0</ele><time>2026-05-06T08:22:37.001Z</time></trkpt><trkpt lat="14.495822406755863" lon="120.99968184616122"><ele>5.0</ele><time>2026-05-06T08:22:38.001Z</time></trkpt><trkpt lat="14.495766808232858" lon="120.9995874387991"><ele>5.0</ele><time>2026-05-06T08:22:39.001Z</time></trkpt><trkpt lat="14.495702845110353" lon="120.99948385809999"><ele>5.0</ele><time>2026-05-06T08:22:40.001Z</time></trkpt><trkpt lat="14.495637770276193" lon="120.99937447282252"><ele>5.0</ele><time>2026-05-06T08:22:41.001Z</time></trkpt><trkpt lat="14.49557189853747" lon="120.99926053094839"><ele>5.0</ele><time>2026-05-06T08:22:42.001Z</time></trkpt><trkpt lat="14.495513947173594" lon="120.99914797079605"><ele>5.0</ele><time>2026-05-06T08:22:43.001Z</time></trkpt><trkpt lat="14.495458781253102" lon="120.99904417373787"><ele>5.0</ele><time>2026-05-06T08:22:44.001Z</time></trkpt><trkpt lat="14.495401837150744" lon="120.99893641771914"><ele>5.6</ele><time>2026-05-06T08:22:45.001Z</time></trkpt><trkpt lat="14.495345821511437" lon="120.99883377184365"><ele>6.2</ele><time>2026-05-06T08:22:46.001Z</time></trkpt><trkpt lat="14.495292272060896" lon="120.99874215859361"><ele>6.800000000000001</ele><time>2026-05-06T08:22:47.001Z</time></trkpt><trkpt lat="14.495241316317015" lon="120.99865879328796"><ele>7.4</ele><time>2026-05-06T08:22:48.001Z</time></trkpt><trkpt lat="14.495190973127045" lon="120.99855762575642"><ele>8.0</ele><time>2026-05-06T08:22:49.001Z</time></trkpt><trkpt lat="14.49513413008889" lon="120.99844194456426"><ele>6.75</ele><time>2026-05-06T08:22:50.001Z</time></trkpt><trkpt lat="14.49506930874395" lon="120.99832022833414"><ele>5.5</ele><time>2026-05-06T08:22:51.001Z</time></trkpt><trkpt lat="14.49500047042191" lon="120.99819137012018"><ele>4.25</ele><time>2026-05-06T08:22:52.001Z</time></trkpt><trkpt lat="14.494930503440763" lon="120.998063657326"><ele>3.0</ele><time>2026-05-06T08:22:53.001Z</time></trkpt><trkpt lat="14.494865231694929" lon="120.99793467201414"><ele>3.0</ele><time>2026-05-06T08:22:54.001Z</time></trkpt><trkpt lat="14.494804221572902" lon="120.99780226766609"><ele>3.0</ele><time>2026-05-06T08:22:55.001Z</time></trkpt><trkpt lat="14.494741849649936" lon="120.99766456007846"><ele>3.0</ele><time>2026-05-06T08:22:56.001Z</time></trkpt><trkpt lat="14.494679828406714" lon="120.99751952337228"><ele>3.0</ele><time>2026-05-06T08:22:57.001Z</time></trkpt><trkpt lat="14.49461482429127" lon="120.9973684249678"><ele>4.666666666666666</ele><time>2026-05-06T08:22:58.001Z</time></trkpt><trkpt lat="14.4945472038861" lon="120.9972159160697"><ele>6.333333333333333</ele><time>2026-05-06T08:22:59.001Z</time></trkpt><trkpt lat="14.494479664573248" lon="120.9970659498811"><ele>8.0</ele><time>2026-05-06T08:23:00.001Z</time></trkpt><trkpt lat="14.494412490402771" lon="120.99691451253882"><ele>8.0</ele><time>2026-05-06T08:23:01.001Z</time></trkpt><trkpt lat="14.49434998608988" lon="120.99677144880442"><ele>8.0</ele><time>2026-05-06T08:23:02.001Z</time></trkpt><trkpt lat="14.494287484117464" lon="120.99663417381274"><ele>8.0</ele><time>2026-05-06T08:23:03.001Z</time></trkpt><trkpt lat="14.494223859098819" lon="120.99651306210612"><ele>8.0</ele><time>2026-05-06T08:23:04.001Z</time></trkpt><trkpt lat="14.494147399804795" lon="120.99640848520696"><ele>8.25</ele><time>2026-05-06T08:23:05.001Z</time></trkpt><trkpt lat="14.494054516474263" lon="120.99632538852984"><ele>8.5</ele><time>2026-05-06T08:23:06.001Z</time></trkpt><trkpt lat="14.493948883316275" lon="120.99626837024911"><ele>8.75</ele><time>2026-05-06T08:23:07.001Z</time></trkpt><trkpt lat="14.493831800267344" lon="120.99622943041139"><ele>9.0</ele><time>2026-05-06T08:23:08.001Z</time></trkpt><trkpt lat="14.493707868131061" lon="120.99620570560253"><ele>9.0</ele><time>2026-05-06T08:23:09.001Z</time></trkpt><trkpt lat="14.49358694690827" lon="120.99619568891707"><ele>9.0</ele><time>2026-05-06T08:23:10.001Z</time></trkpt><trkpt lat="14.493455219302708" lon="120.99619626525923"><ele>9.0</ele><time>2026-05-06T08:23:11.001Z</time></trkpt><trkpt lat="14.49331752649723" lon="120.996195365217"><ele>9.0</ele><time>2026-05-06T08:23:12.001Z</time></trkpt><trkpt lat="14.493181831902124" lon="120.99619074313645"><ele>9.0</ele><time>2026-05-06T08:23:13.001Z</time></trkpt><trkpt lat="14.493038970098969" lon="120.99618346331432"><ele>9.0</ele><time>2026-05-06T08:23:14.001Z</time></trkpt><trkpt lat="14.492894521675716" lon="120.99617560533538"><ele>9.0</ele><time>2026-05-06T08:23:15.001Z</time></trkpt><trkpt lat="14.492753214450179" lon="120.99616723096915"><ele>9.0</ele><time>2026-05-06T08:23:16.001Z</time></trkpt><trkpt lat="14.49261995962546" lon="120.99615918853151"><ele>9.25</ele><time>2026-05-06T08:23:17.001Z</time></trkpt><trkpt lat="14.492494240844858" lon="120.99615094058898"><ele>9.5</ele><time>2026-05-06T08:23:18.001Z</time></trkpt><trkpt lat="14.492378742889704" lon="120.99614355254661"><ele>9.75</ele><time>2026-05-06T08:23:19.001Z</time></trkpt><trkpt lat="14.492262710373115" lon="120.99614046176319"><ele>10.0</ele><time>2026-05-06T08:23:20.001Z</time></trkpt><trkpt lat="14.492153644222128" lon="120.9961486955028"><ele>8.75</ele><time>2026-05-06T08:23:21.001Z</time></trkpt><trkpt lat="14.492042973858373" lon="120.996167866899"><ele>7.5</ele><time>2026-05-06T08:23:22.001Z</time></trkpt><trkpt lat="14.491936027398262" lon="120.99620536283759"><ele>6.25</ele><time>2026-05-06T08:23:23.001Z</time></trkpt><trkpt lat="14.49182968129996" lon="120.99626885156218"><ele>5.0</ele><time>2026-05-06T08:23:24.001Z</time></trkpt><trkpt lat="14.49173104469606" lon="120.99634472130515"><ele>5.0</ele><time>2026-05-06T08:23:25.001Z</time></trkpt><trkpt lat="14.49163865339235" lon="120.99643445259478"><ele>5.0</ele><time>2026-05-06T08:23:26.001Z</time></trkpt><trkpt lat="14.491558459115147" lon="120.99653028173493"><ele>5.0</ele><time>2026-05-06T08:23:27.001Z</time></trkpt><trkpt lat="14.491488126559027" lon="120.99663413015413"><ele>5.0</ele><time>2026-05-06T08:23:28.001Z</time></trkpt><trkpt lat="14.491430446640239" lon="120.99675060528065"><ele>3.75</ele><time>2026-05-06T08:23:29.001Z</time></trkpt><trkpt lat="14.491380162052954" lon="120.99687971855242"><ele>2.5</ele><time>2026-05-06T08:23:30.001Z</time></trkpt><trkpt lat="14.49134165926359" lon="120.99701999940723"><ele>1.25</ele><time>2026-05-06T08:23:31.001Z</time></trkpt><trkpt lat="14.491304227416554" lon="120.9971668705346"><ele>0.0</ele><time>2026-05-06T08:23:32Z</time></trkpt><trkpt lat="14.491263743119076" lon="120.99731184196906"><ele>0.25</ele><time>2026-05-06T08:23:33Z</time></trkpt><trkpt lat="14.49122207695605" lon="120.99744729238174"><ele>0.5</ele><time>2026-05-06T08:23:34Z</time></trkpt><trkpt lat="14.491180512161003" lon="120.99757578010738"><ele>0.75</ele><time>2026-05-06T08:23:35Z</time></trkpt><trkpt lat="14.491135918016441" lon="120.99769642998828"><ele>1.0</ele><time>2026-05-06T08:23:36Z</time></trkpt><trkpt lat="14.491080812800758" lon="120.9978117265653"><ele>1.0</ele><time>2026-05-06T08:23:37Z</time></trkpt><trkpt lat="14.491018127710896" lon="120.997923048342"><ele>1.0</ele><time>2026-05-06T08:23:38Z</time></trkpt><trkpt lat="14.490950322981615" lon="120.99803121681384"><ele>1.0</ele><time>2026-05-06T08:23:39Z</time></trkpt><trkpt lat="14.490872963768963" lon="120.9981340775898"><ele>1.0</ele><time>2026-05-06T08:23:40Z</time></trkpt><trkpt lat="14.490786265055648" lon="120.99822799066814"><ele>1.0</ele><time>2026-05-06T08:23:41Z</time></trkpt><trkpt lat="14.490689758511298" lon="120.9983189659171"><ele>1.0</ele><time>2026-05-06T08:23:42Z</time></trkpt><trkpt lat="14.490592594040873" lon="120.99840705094795"><ele>1.0</ele><time>2026-05-06T08:23:43Z</time></trkpt><trkpt lat="14.490501024201055" lon="120.99849947492719"><ele>1.0</ele><time>2026-05-06T08:23:44Z</time></trkpt><trkpt lat="14.49041128130027" lon="120.9985899549463"><ele>0.5</ele><time>2026-05-06T08:23:45Z</time></trkpt><trkpt lat="14.490317799372344" lon="120.99867982026521"><ele>0.0</ele><time>2026-05-06T08:23:46Z</time></trkpt><trkpt lat="14.49021894369943" lon="120.99877085000301"><ele>-0.5</ele><time>2026-05-06T08:23:47Z</time></trkpt><trkpt lat="14.490120134833534" lon="120.99886409185856"><ele>-1.0</ele><time>2026-05-06T08:23:48Z</time></trkpt><trkpt lat="14.49002119864068" lon="120.99896215942411"><ele>-1.0</ele><time>2026-05-06T08:23:49Z</time></trkpt><trkpt lat="14.489905498346207" lon="120.99907135402458"><ele>-1.0</ele><time>2026-05-06T08:23:50Z</time></trkpt><trkpt lat="14.489789217211584" lon="120.9991777862362"><ele>-1.0</ele><time>2026-05-06T08:23:51Z</time></trkpt><trkpt lat="14.489676586127244" lon="120.9992817602459"><ele>0.0</ele><time>2026-05-06T08:23:52Z</time></trkpt><trkpt lat="14.48957179701642" lon="120.99936707183687"><ele>1.0</ele><time>2026-05-06T08:23:53Z</time></trkpt><trkpt lat="14.489450288950705" lon="120.9994385256996"><ele>2.0</ele><time>2026-05-06T08:23:54Z</time></trkpt><trkpt lat="14.489323160588537" lon="120.99949647348225"><ele>3.0</ele><time>2026-05-06T08:23:55Z</time></trkpt><trkpt lat="14.489187792783303" lon="120.99954775814352"><ele>3.0</ele><time>2026-05-06T08:23:56Z</time></trkpt><trkpt lat="14.489050057616598" lon="120.99958325978446"><ele>3.0</ele><time>2026-05-06T08:23:57Z</time></trkpt><trkpt lat="14.48893190601486" lon="120.99959793492359"><ele>3.0</ele><time>2026-05-06T08:23:58Z</time></trkpt><trkpt lat="14.488835536478115" lon="120.99959994247129"><ele>3.0</ele><time>2026-05-06T08:23:59Z</time></trkpt><trkpt lat="14.488760463667985" lon="120.99959934356517"><ele>3.0</ele><time>2026-05-06T08:24:00Z</time></trkpt><trkpt lat="14.488697558681515" lon="120.9995942406992"><ele>4.0</ele><time>2026-05-06T08:24:01Z</time></trkpt><trkpt lat="14.488585563119406" lon="120.99958003086252"><ele>5.0</ele><time>2026-05-06T08:24:03Z</time></trkpt><trkpt lat="14.488477270656086" lon="120.99956351499895"><ele>6.000000000000001</ele><time>2026-05-06T08:24:05Z</time></trkpt><trkpt lat="14.488358336947284" lon="120.99953836895448"><ele>7.0</ele><time>2026-05-06T08:24:07Z</time></trkpt><trkpt lat="14.488284706516549" lon="120.99951854810298"><ele>8.0</ele><time>2026-05-06T08:24:08Z</time></trkpt><trkpt lat="14.488204162469815" lon="120.99948774727233"><ele>8.0</ele><time>2026-05-06T08:24:09Z</time></trkpt><trkpt lat="14.488126859928544" lon="120.99944956449295"><ele>8.0</ele><time>2026-05-06T08:24:10Z</time></trkpt><trkpt lat="14.488037186395339" lon="120.9994034179306"><ele>8.0</ele><time>2026-05-06T08:24:11Z</time></trkpt><trkpt lat="14.4879475167949" lon="120.99933491248737"><ele>8.0</ele><time>2026-05-06T08:24:12Z</time></trkpt><trkpt lat="14.487861105761136" lon="120.9992515579963"><ele>8.0</ele><time>2026-05-06T08:24:13Z</time></trkpt><trkpt lat="14.487772836076067" lon="120.99915536054236"><ele>7.25</ele><time>2026-05-06T08:24:14Z</time></trkpt><trkpt lat="14.487678230246793" lon="120.99905447459359"><ele>6.5</ele><time>2026-05-06T08:24:15Z</time></trkpt><trkpt lat="14.487583860303758" lon="120.99894415295509"><ele>5.75</ele><time>2026-05-06T08:24:16Z</time></trkpt><trkpt lat="14.487485325893243" lon="120.99882719227188"><ele>5.0</ele><time>2026-05-06T08:24:17Z</time></trkpt><trkpt lat="14.487377696112434" lon="120.99871404438801"><ele>5.0</ele><time>2026-05-06T08:24:18Z</time></trkpt><trkpt lat="14.487270230512824" lon="120.99859802550831"><ele>5.0</ele><time>2026-05-06T08:24:19Z</time></trkpt><trkpt lat="14.48715763857505" lon="120.99848042105845"><ele>5.0</ele><time>2026-05-06T08:24:20Z</time></trkpt><trkpt lat="14.487046075536346" lon="120.99835851325874"><ele>6.0</ele><time>2026-05-06T08:24:21Z</time></trkpt><trkpt lat="14.486936656784172" lon="120.99823002945077"><ele>7.0</ele><time>2026-05-06T08:24:22Z</time></trkpt><trkpt lat="14.486828387033764" lon="120.99809821868863"><ele>8.0</ele><time>2026-05-06T08:24:23Z</time></trkpt><trkpt lat="14.486717251432689" lon="120.99796502187445"><ele>8.0</ele><time>2026-05-06T08:24:24Z</time></trkpt><trkpt lat="14.48660250849724" lon="120.99783124520576"><ele>8.0</ele><time>2026-05-06T08:24:25Z</time></trkpt><trkpt lat="14.486489975993615" lon="120.99769568426314"><ele>8.0</ele><time>2026-05-06T08:24:26Z</time></trkpt><trkpt lat="14.486378914234155" lon="120.99756335315125"><ele>8.0</ele><time>2026-05-06T08:24:27Z</time></trkpt><trkpt lat="14.486264425345285" lon="120.99743060000245"><ele>8.0</ele><time>2026-05-06T08:24:28.001Z</time></trkpt><trkpt lat="14.486162274431477" lon="120.99730104087709"><ele>8.0</ele><time>2026-05-06T08:24:29.001Z</time></trkpt><trkpt lat="14.48607338315709" lon="120.99715914312935"><ele>7.666666666666666</ele><time>2026-05-06T08:24:30.001Z</time></trkpt><trkpt lat="14.486027319285755" lon="120.99700020984037"><ele>7.333333333333334</ele><time>2026-05-06T08:24:31.001Z</time></trkpt><trkpt lat="14.485993765311706" lon="120.99683828136196"><ele>7.0</ele><time>2026-05-06T08:24:32.001Z</time></trkpt><trkpt lat="14.485978690623844" lon="120.99667049820468"><ele>6.0</ele><time>2026-05-06T08:24:33.001Z</time></trkpt><trkpt lat="14.485981900140738" lon="120.99650377098102"><ele>5.0</ele><time>2026-05-06T08:24:34.001Z</time></trkpt><trkpt lat="14.486012936780734" lon="120.99633909323902"><ele>4.0</ele><time>2026-05-06T08:24:35.001Z</time></trkpt><trkpt lat="14.486064331293676" lon="120.99617137945982"><ele>4.0</ele><time>2026-05-06T08:24:36.001Z</time></trkpt><trkpt lat="14.486128555441175" lon="120.99600595157952"><ele>4.0</ele><time>2026-05-06T08:24:37.001Z</time></trkpt><trkpt lat="14.486178677579002" lon="120.99583009241299"><ele>4.0</ele><time>2026-05-06T08:24:38.001Z</time></trkpt><trkpt lat="14.486245431669266" lon="120.99566570378028"><ele>5.0</ele><time>2026-05-06T08:24:39.001Z</time></trkpt><trkpt lat="14.48629648059877" lon="120.99550469676596"><ele>6.0</ele><time>2026-05-06T08:24:40.001Z</time></trkpt><trkpt lat="14.486336125630222" lon="120.99535067576893"><ele>7.0</ele><time>2026-05-06T08:24:41.001Z</time></trkpt><trkpt lat="14.48635716057436" lon="120.99519937129335"><ele>7.0</ele><time>2026-05-06T08:24:42.001Z</time></trkpt><trkpt lat="14.48638008922522" lon="120.99503982446588"><ele>7.0</ele><time>2026-05-06T08:24:43.001Z</time></trkpt><trkpt lat="14.486343272293798" lon="120.99488478062949"><ele>7.0</ele><time>2026-05-06T08:24:44.001Z</time></trkpt><trkpt lat="14.486307513789031" lon="120.99473218302549"><ele>6.25</ele><time>2026-05-06T08:24:45.001Z</time></trkpt><trkpt lat="14.486262459986213" lon="120.99458903378213"><ele>5.5</ele><time>2026-05-06T08:24:46.001Z</time></trkpt><trkpt lat="14.486203019604908" lon="120.9944439903864"><ele>4.75</ele><time>2026-05-06T08:24:47.001Z</time></trkpt><trkpt lat="14.486130967830269" lon="120.99431793909712"><ele>4.0</ele><time>2026-05-06T08:24:48.001Z</time></trkpt><trkpt lat="14.48604031200625" lon="120.99420070831582"><ele>4.0</ele><time>2026-05-06T08:24:49.001Z</time></trkpt><trkpt lat="14.485938457050551" lon="120.99408539528305"><ele>4.0</ele><time>2026-05-06T08:24:50.001Z</time></trkpt><trkpt lat="14.485843014825791" lon="120.99397484275444"><ele>4.0</ele><time>2026-05-06T08:24:51.001Z</time></trkpt><trkpt lat="14.4857474402174" lon="120.9938645396756"><ele>4.0</ele><time>2026-05-06T08:24:52.001Z</time></trkpt><trkpt lat="14.485646351569688" lon="120.99375755529407"><ele>4.0</ele><time>2026-05-06T08:24:53.001Z</time></trkpt><trkpt lat="14.485547512790433" lon="120.99365402455508"><ele>4.0</ele><time>2026-05-06T08:24:54.001Z</time></trkpt><trkpt lat="14.485442944795127" lon="120.99355783858535"><ele>4.0</ele><time>2026-05-06T08:24:55.001Z</time></trkpt><trkpt lat="14.485327723977383" lon="120.99345839784664"><ele>4.0</ele><time>2026-05-06T08:24:56.001Z</time></trkpt><trkpt lat="14.485213311630094" lon="120.99336406486724"><ele>5.0</ele><time>2026-05-06T08:24:57.001Z</time></trkpt><trkpt lat="14.485088054217641" lon="120.99326787463269"><ele>6.0</ele><time>2026-05-06T08:24:58.001Z</time></trkpt><trkpt lat="14.484961592023504" lon="120.99318240671731"><ele>7.0</ele><time>2026-05-06T08:24:59.001Z</time></trkpt><trkpt lat="14.484831873845824" lon="120.99310080584215"><ele>7.0</ele><time>2026-05-06T08:25:00.001Z</time></trkpt><trkpt lat="14.484698209837214" lon="120.99301724758811"><ele>7.0</ele><time>2026-05-06T08:25:01.001Z</time></trkpt><trkpt lat="14.484560768083968" lon="120.99293082631178"><ele>7.0</ele><time>2026-05-06T08:25:02.001Z</time></trkpt><trkpt lat="14.484427829555546" lon="120.99284264147373"><ele>6.666666666666667</ele><time>2026-05-06T08:25:03.001Z</time></trkpt><trkpt lat="14.484298637472577" lon="120.99275661830349"><ele>6.333333333333334</ele><time>2026-05-06T08:25:04.001Z</time></trkpt><trkpt lat="14.484171273763955" lon="120.99267711025558"><ele>6.0</ele><time>2026-05-06T08:25:05.001Z</time></trkpt><trkpt lat="14.484047523846103" lon="120.99259420038365"><ele>6.0</ele><time>2026-05-06T08:25:06.001Z</time></trkpt><trkpt lat="14.483925146591824" lon="120.99251463583899"><ele>6.0</ele><time>2026-05-06T08:25:07.001Z</time></trkpt><trkpt lat="14.48380549624892" lon="120.99243870386164"><ele>6.0</ele><time>2026-05-06T08:25:08.001Z</time></trkpt><trkpt lat="14.483693366903305" lon="120.99236569637661"><ele>6.0</ele><time>2026-05-06T08:25:09.001Z</time></trkpt><trkpt lat="14.483605254205745" lon="120.99229509626335"><ele>5.2</ele><time>2026-05-06T08:25:10.001Z</time></trkpt><trkpt lat="14.483546633238882" lon="120.99221210201206"><ele>4.3999999999999995</ele><time>2026-05-06T08:25:11.001Z</time></trkpt><trkpt lat="14.483496788154248" lon="120.99211181328074"><ele>3.6</ele><time>2026-05-06T08:25:12.001Z</time></trkpt><trkpt lat="14.483463271069665" lon="120.99200373618426"><ele>2.8</ele><time>2026-05-06T08:25:13.001Z</time></trkpt><trkpt lat="14.483428655131691" lon="120.99187926695585"><ele>2.0</ele><time>2026-05-06T08:25:14.001Z</time></trkpt><trkpt lat="14.483393865818094" lon="120.9917572687269"><ele>3.25</ele><time>2026-05-06T08:25:15.001Z</time></trkpt><trkpt lat="14.483351657208184" lon="120.99162697508166"><ele>4.5</ele><time>2026-05-06T08:25:16.001Z</time></trkpt><trkpt lat="14.483313149815151" lon="120.99151237318337"><ele>5.75</ele><time>2026-05-06T08:25:17.001Z</time></trkpt><trkpt lat="14.483273117019639" lon="120.99138894289068"><ele>7.0</ele><time>2026-05-06T08:25:18.001Z</time></trkpt><trkpt lat="14.483251754881593" lon="120.99127314562496"><ele>7.0</ele><time>2026-05-06T08:25:19.001Z</time></trkpt><trkpt lat="14.483244684509172" lon="120.99114742753837"><ele>7.0</ele><time>2026-05-06T08:25:20.001Z</time></trkpt><trkpt lat="14.483257526390641" lon="120.99101500995086"><ele>7.0</ele><time>2026-05-06T08:25:21.001Z</time></trkpt><trkpt lat="14.483286155797769" lon="120.9908886355518"><ele>7.0</ele><time>2026-05-06T08:25:22.001Z</time></trkpt><trkpt lat="14.483334029985082" lon="120.99075898733402"><ele>7.0</ele><time>2026-05-06T08:25:23.001Z</time></trkpt><trkpt lat="14.483383023606775" lon="120.9906392239119"><ele>7.0</ele><time>2026-05-06T08:25:24.001Z</time></trkpt><trkpt lat="14.483425881365536" lon="120.99051766752147"><ele>7.0</ele><time>2026-05-06T08:25:25.001Z</time></trkpt><trkpt lat="14.483468005826573" lon="120.99040079252414"><ele>7.0</ele><time>2026-05-06T08:25:26.001Z</time></trkpt><trkpt lat="14.483506752834124" lon="120.99029302897188"><ele>7.0</ele><time>2026-05-06T08:25:27.001Z</time></trkpt><trkpt lat="14.483547263050479" lon="120.99019053629388"><ele>6.999999999999999</ele><time>2026-05-06T08:25:28.001Z</time></trkpt><trkpt lat="14.483578766013354" lon="120.99008618200929"><ele>6.999999999999999</ele><time>2026-05-06T08:25:29.001Z</time></trkpt><trkpt lat="14.483597985528752" lon="120.98998507557425"><ele>7.0</ele><time>2026-05-06T08:25:30.001Z</time></trkpt><trkpt lat="14.483597667910693" lon="120.98987887307324"><ele>7.0</ele><time>2026-05-06T08:25:31.001Z</time></trkpt><trkpt lat="14.483580244495283" lon="120.98976831965167"><ele>6.199999999999999</ele><time>2026-05-06T08:25:32.001Z</time></trkpt><trkpt lat="14.48354450125492" lon="120.98966347958141"><ele>5.3999999999999995</ele><time>2026-05-06T08:25:33.001Z</time></trkpt><trkpt lat="14.483500773881229" lon="120.9895744249854"><ele>4.6</ele><time>2026-05-06T08:25:34.001Z</time></trkpt><trkpt lat="14.483449339712427" lon="120.98948735763962"><ele>3.8</ele><time>2026-05-06T08:25:35.001Z</time></trkpt><trkpt lat="14.483392152440862" lon="120.98939779848374"><ele>3.0</ele><time>2026-05-06T08:25:36.001Z</time></trkpt><trkpt lat="14.483348868158322" lon="120.98931414286906"><ele>3.0</ele><time>2026-05-06T08:25:37.001Z</time></trkpt><trkpt lat="14.48329782120062" lon="120.98923562333634"><ele>3.0</ele><time>2026-05-06T08:25:38Z</time></trkpt><trkpt lat="14.483253097990014" lon="120.98915629280553"><ele>3.0</ele><time>2026-05-06T08:25:39Z</time></trkpt><trkpt lat="14.483220414610921" lon="120.98908683358583"><ele>3.0</ele><time>2026-05-06T08:25:40Z</time></trkpt><trkpt lat="14.483186827520036" lon="120.98902697860734"><ele>3.0</ele><time>2026-05-06T08:25:41Z</time></trkpt><trkpt lat="14.483147377380726" lon="120.98896838824308"><ele>3.0</ele><time>2026-05-06T08:25:42Z</time></trkpt><trkpt lat="14.483088588567515" lon="120.98885065770403"><ele>3.0</ele><time>2026-05-06T08:25:44Z</time></trkpt><trkpt lat="14.483054948975155" lon="120.98879520528573"><ele>3.0</ele><time>2026-05-06T08:25:45Z</time></trkpt><trkpt lat="14.48300598266595" lon="120.98869735462047"><ele>3.0</ele><time>2026-05-06T08:25:47Z</time></trkpt><trkpt lat="14.48295081799291" lon="120.98859772266299"><ele>3.0</ele><time>2026-05-06T08:25:49Z</time></trkpt><trkpt lat="14.48291152579416" lon="120.98854688532947"><ele>3.0</ele><time>2026-05-06T08:25:50Z</time></trkpt><trkpt lat="14.482808518351856" lon="120.98844799928216"><ele>3.0</ele><time>2026-05-06T08:25:52Z</time></trkpt><trkpt lat="14.48274469266027" lon="120.98839632364611"><ele>3.0</ele><time>2026-05-06T08:25:53Z</time></trkpt><trkpt lat="14.482656573656975" lon="120.98833942552565"><ele>3.0</ele><time>2026-05-06T08:25:54Z</time></trkpt><trkpt lat="14.48256256690034" lon="120.98828713881528"><ele>3.0</ele><time>2026-05-06T08:25:55Z</time></trkpt><trkpt lat="14.482468105536176" lon="120.98824234839532"><ele>3.0</ele><time>2026-05-06T08:25:56Z</time></trkpt><trkpt lat="14.48235938306118" lon="120.98819014213014"><ele>2.75</ele><time>2026-05-06T08:25:57Z</time></trkpt><trkpt lat="14.482242825616071" lon="120.9881337238753"><ele>2.5</ele><time>2026-05-06T08:25:58Z</time></trkpt><trkpt lat="14.482126779571404" lon="120.98807405955507"><ele>2.25</ele><time>2026-05-06T08:25:59Z</time></trkpt><trkpt lat="14.482007550861155" lon="120.98801444952012"><ele>2.0</ele><time>2026-05-06T08:26:00Z</time></trkpt><trkpt lat="14.48188550832807" lon="120.9879551189693"><ele>0.5</ele><time>2026-05-06T08:26:01Z</time></trkpt><trkpt lat="14.481759435635455" lon="120.98789145067065"><ele>-1.0</ele><time>2026-05-06T08:26:02Z</time></trkpt><trkpt lat="14.48163542115412" lon="120.98782967511526"><ele>-2.5</ele><time>2026-05-06T08:26:03Z</time></trkpt><trkpt lat="14.481513161947632" lon="120.98776947650944"><ele>-4.0</ele><time>2026-05-06T08:26:04Z</time></trkpt><trkpt lat="14.48139166172231" lon="120.98771232861768"><ele>-2.75</ele><time>2026-05-06T08:26:05Z</time></trkpt><trkpt lat="14.481264578480543" lon="120.98765185499929"><ele>-1.5</ele><time>2026-05-06T08:26:06Z</time></trkpt><trkpt lat="14.481140603930603" lon="120.98759146510515"><ele>-0.25</ele><time>2026-05-06T08:26:07Z</time></trkpt><trkpt lat="14.481024735130747" lon="120.98753277483522"><ele>1.0</ele><time>2026-05-06T08:26:08Z</time></trkpt><trkpt lat="14.480917604694689" lon="120.98747763092055"><ele>1.0</ele><time>2026-05-06T08:26:09Z</time></trkpt><trkpt lat="14.480817228194764" lon="120.98742508574911"><ele>1.0</ele><time>2026-05-06T08:26:10Z</time></trkpt><trkpt lat="14.480724023537679" lon="120.98737564620141"><ele>1.0</ele><time>2026-05-06T08:26:11Z</time></trkpt><trkpt lat="14.480626720276215" lon="120.98732094313516"><ele>1.0</ele><time>2026-05-06T08:26:12Z</time></trkpt><trkpt lat="14.48053461012839" lon="120.98725878081257"><ele>1.0</ele><time>2026-05-06T08:26:13Z</time></trkpt><trkpt lat="14.480449816286308" lon="120.98719365037162"><ele>1.6</ele><time>2026-05-06T08:26:14Z</time></trkpt><trkpt lat="14.480362198610083" lon="120.98711885319574"><ele>2.2</ele><time>2026-05-06T08:26:15Z</time></trkpt><trkpt lat="14.480284607593628" lon="120.98704445092744"><ele>2.8000000000000003</ele><time>2026-05-06T08:26:16Z</time></trkpt><trkpt lat="14.480214221032142" lon="120.98697678741489"><ele>3.4000000000000004</ele><time>2026-05-06T08:26:17Z</time></trkpt><trkpt lat="14.48014138283625" lon="120.98690706099535"><ele>4.0</ele><time>2026-05-06T08:26:18Z</time></trkpt><trkpt lat="14.4800645512227" lon="120.98682545571181"><ele>4.0</ele><time>2026-05-06T08:26:19Z</time></trkpt><trkpt lat="14.479985420475671" lon="120.98674191498849"><ele>4.0</ele><time>2026-05-06T08:26:20Z</time></trkpt><trkpt lat="14.479902223129619" lon="120.98665416208586"><ele>4.0</ele><time>2026-05-06T08:26:21Z</time></trkpt><trkpt lat="14.479814287163967" lon="120.98656685729121"><ele>4.0</ele><time>2026-05-06T08:26:22Z</time></trkpt><trkpt lat="14.479725928379365" lon="120.98647757889316"><ele>3.5</ele><time>2026-05-06T08:26:23Z</time></trkpt><trkpt lat="14.47963518407528" lon="120.98638594098773"><ele>3.0</ele><time>2026-05-06T08:26:24Z</time></trkpt><trkpt lat="14.479544443861897" lon="120.98629334766878"><ele>2.5</ele><time>2026-05-06T08:26:25Z</time></trkpt><trkpt lat="14.479459039365087" lon="120.98620612992603"><ele>2.0</ele><time>2026-05-06T08:26:26Z</time></trkpt><trkpt lat="14.479377517740291" lon="120.98612296486517"><ele>2.0</ele><time>2026-05-06T08:26:27Z</time></trkpt><trkpt lat="14.479297137163211" lon="120.98604335260563"><ele>2.0</ele><time>2026-05-06T08:26:28.001Z</time></trkpt><trkpt lat="14.479216085280054" lon="120.98596072487811"><ele>2.0</ele><time>2026-05-06T08:26:29.001Z</time></trkpt><trkpt lat="14.47913533774564" lon="120.98587610232492"><ele>2.0</ele><time>2026-05-06T08:26:30.001Z</time></trkpt><trkpt lat="14.479062310317817" lon="120.98580011790038"><ele>2.0</ele><time>2026-05-06T08:26:31.001Z</time></trkpt><trkpt lat="14.478986577048452" lon="120.98572396097629"><ele>2.25</ele><time>2026-05-06T08:26:32.001Z</time></trkpt><trkpt lat="14.478906142451589" lon="120.98564151899751"><ele>2.5</ele><time>2026-05-06T08:26:33.001Z</time></trkpt><trkpt lat="14.478823143236657" lon="120.98555893751332"><ele>2.75</ele><time>2026-05-06T08:26:34.001Z</time></trkpt><trkpt lat="14.478738647440888" lon="120.98547440714754"><ele>3.0</ele><time>2026-05-06T08:26:35.001Z</time></trkpt><trkpt lat="14.478650765643044" lon="120.9853821783699"><ele>4.0</ele><time>2026-05-06T08:26:36.001Z</time></trkpt><trkpt lat="14.478557574777893" lon="120.98527628958531"><ele>5.0</ele><time>2026-05-06T08:26:37.001Z</time></trkpt><trkpt lat="14.478461636782642" lon="120.98517188211294"><ele>6.0</ele><time>2026-05-06T08:26:38.001Z</time></trkpt><trkpt lat="14.478362153283607" lon="120.98506770402358"><ele>7.0</ele><time>2026-05-06T08:26:39.001Z</time></trkpt><trkpt lat="14.478262888350857" lon="120.984967462283"><ele>7.0</ele><time>2026-05-06T08:26:40.001Z</time></trkpt><trkpt lat="14.478167986171675" lon="120.98486713180424"><ele>7.0</ele><time>2026-05-06T08:26:41.001Z</time></trkpt><trkpt lat="14.478070202334541" lon="120.98476447228325"><ele>7.0</ele><time>2026-05-06T08:26:42.001Z</time></trkpt><trkpt lat="14.477972627001979" lon="120.98465961785868"><ele>7.0</ele><time>2026-05-06T08:26:43.001Z</time></trkpt><trkpt lat="14.477868986413824" lon="120.98455381361283"><ele>5.333333333333334</ele><time>2026-05-06T08:26:44.001Z</time></trkpt><trkpt lat="14.477766507667969" lon="120.98444199186606"><ele>3.666666666666667</ele><time>2026-05-06T08:26:45.001Z</time></trkpt><trkpt lat="14.477658559655275" lon="120.98433275652609"><ele>2.0</ele><time>2026-05-06T08:26:46.001Z</time></trkpt><trkpt lat="14.477550074209367" lon="120.98422388396962"><ele>2.0</ele><time>2026-05-06T08:26:47.001Z</time></trkpt><trkpt lat="14.477444392402086" lon="120.98411491732348"><ele>2.0</ele><time>2026-05-06T08:26:48.001Z</time></trkpt><trkpt lat="14.477339476209949" lon="120.98400974090244"><ele>2.0</ele><time>2026-05-06T08:26:49.001Z</time></trkpt><trkpt lat="14.477241452909976" lon="120.98390578094818"><ele>2.0</ele><time>2026-05-06T08:26:50.001Z</time></trkpt><trkpt lat="14.477147563354034" lon="120.98380946356433"><ele>3.75</ele><time>2026-05-06T08:26:51.001Z</time></trkpt><trkpt lat="14.477060702447464" lon="120.98371852355918"><ele>5.5</ele><time>2026-05-06T08:26:52.001Z</time></trkpt><trkpt lat="14.476979934521767" lon="120.98363751093132"><ele>7.25</ele><time>2026-05-06T08:26:53.001Z</time></trkpt><trkpt lat="14.476900223945055" lon="120.98355239158384"><ele>9.0</ele><time>2026-05-06T08:26:54.001Z</time></trkpt><trkpt lat="14.476818712751589" lon="120.98346600856337"><ele>9.0</ele><time>2026-05-06T08:26:55.001Z</time></trkpt><trkpt lat="14.476736994326044" lon="120.98338233001634"><ele>9.0</ele><time>2026-05-06T08:26:56.001Z</time></trkpt><trkpt lat="14.476651821169062" lon="120.98330063503023"><ele>9.0</ele><time>2026-05-06T08:26:57.001Z</time></trkpt><trkpt lat="14.476567319706891" lon="120.98321162902879"><ele>9.0</ele><time>2026-05-06T08:26:58.001Z</time></trkpt><trkpt lat="14.47648441044671" lon="120.98311701415918"><ele>8.5</ele><time>2026-05-06T08:26:59.001Z</time></trkpt><trkpt lat="14.476395487700492" lon="120.98301854008491"><ele>8.0</ele><time>2026-05-06T08:27:00.001Z</time></trkpt><trkpt lat="14.476304127371346" lon="120.9829229721799"><ele>7.5</ele><time>2026-05-06T08:27:01.001Z</time></trkpt><trkpt lat="14.476207199082925" lon="120.98282077894854"><ele>7.0</ele><time>2026-05-06T08:27:02.001Z</time></trkpt><trkpt lat="14.476106442950988" lon="120.98271872431361"><ele>6.666666666666667</ele><time>2026-05-06T08:27:03.001Z</time></trkpt><trkpt lat="14.476009972040703" lon="120.98260219162047"><ele>6.333333333333334</ele><time>2026-05-06T08:27:04.001Z</time></trkpt><trkpt lat="14.475897955714405" lon="120.98250162240821"><ele>6.0</ele><time>2026-05-06T08:27:05.001Z</time></trkpt><trkpt lat="14.475788468755615" lon="120.98238701669787"><ele>6.666666666666666</ele><time>2026-05-06T08:27:06.001Z</time></trkpt><trkpt lat="14.475676019585805" lon="120.98227279612207"><ele>7.333333333333333</ele><time>2026-05-06T08:27:07.001Z</time></trkpt><trkpt lat="14.475562987206505" lon="120.98216106833947"><ele>8.0</ele><time>2026-05-06T08:27:08.001Z</time></trkpt><trkpt lat="14.475448911148947" lon="120.98204962676058"><ele>8.0</ele><time>2026-05-06T08:27:09.001Z</time></trkpt><trkpt lat="14.475334209356227" lon="120.98193769381012"><ele>8.0</ele><time>2026-05-06T08:27:10.001Z</time></trkpt><trkpt lat="14.475220131386724" lon="120.98182153469135"><ele>8.0</ele><time>2026-05-06T08:27:11.001Z</time></trkpt><trkpt lat="14.47510668772983" lon="120.98170416519028"><ele>8.0</ele><time>2026-05-06T08:27:12.001Z</time></trkpt><trkpt lat="14.47499107143005" lon="120.98158805077819"><ele>8.0</ele><time>2026-05-06T08:27:13.001Z</time></trkpt><trkpt lat="14.47487650982115" lon="120.98147283005322"><ele>8.0</ele><time>2026-05-06T08:27:14.001Z</time></trkpt><trkpt lat="14.474763636731966" lon="120.98135527948989"><ele>8.0</ele><time>2026-05-06T08:27:15.001Z</time></trkpt><trkpt lat="14.474658348778314" lon="120.98123965594549"><ele>8.0</ele><time>2026-05-06T08:27:16.001Z</time></trkpt><trkpt lat="14.474557289799554" lon="120.98111788460947"><ele>8.0</ele><time>2026-05-06T08:27:17.001Z</time></trkpt><trkpt lat="14.4744685885723" lon="120.98099146104184"><ele>8.25</ele><time>2026-05-06T08:27:18.001Z</time></trkpt><trkpt lat="14.474394960225522" lon="120.98086813764131"><ele>8.5</ele><time>2026-05-06T08:27:19.001Z</time></trkpt><trkpt lat="14.474328583282265" lon="120.98074486109721"><ele>8.75</ele><time>2026-05-06T08:27:20.001Z</time></trkpt><trkpt lat="14.474269725525938" lon="120.98062916752885"><ele>9.0</ele><time>2026-05-06T08:27:21.001Z</time></trkpt><trkpt lat="14.474218461709237" lon="120.9805186290715"><ele>8.0</ele><time>2026-05-06T08:27:22.001Z</time></trkpt><trkpt lat="14.474158441469282" lon="120.98040374098349"><ele>7.0</ele><time>2026-05-06T08:27:23.001Z</time></trkpt><trkpt lat="14.474096738989353" lon="120.98029012415527"><ele>6.0</ele><time>2026-05-06T08:27:24.001Z</time></trkpt><trkpt lat="14.474041999264232" lon="120.98017517052729"><ele>5.0</ele><time>2026-05-06T08:27:25.001Z</time></trkpt><trkpt lat="14.473996009435366" lon="120.98005221295917"><ele>5.25</ele><time>2026-05-06T08:27:26.001Z</time></trkpt><trkpt lat="14.473964420012665" lon="120.97991761538704"><ele>5.5</ele><time>2026-05-06T08:27:27.001Z</time></trkpt><trkpt lat="14.473948583549268" lon="120.97978275214791"><ele>5.75</ele><time>2026-05-06T08:27:28.001Z</time></trkpt><trkpt lat="14.473937177707722" lon="120.97965238811693"><ele>6.0</ele><time>2026-05-06T08:27:29.001Z</time></trkpt><trkpt lat="14.4739218822378" lon="120.97953266034273"><ele>6.0</ele><time>2026-05-06T08:27:30.001Z</time></trkpt><trkpt lat="14.473907021183079" lon="120.97942270009574"><ele>6.0</ele><time>2026-05-06T08:27:31.001Z</time></trkpt><trkpt lat="14.473892667019005" lon="120.97932497411709"><ele>6.0</ele><time>2026-05-06T08:27:32.001Z</time></trkpt><trkpt lat="14.473884282718403" lon="120.97924765548203"><ele>6.0</ele><time>2026-05-06T08:27:33.001Z</time></trkpt><trkpt lat="14.473875622253795" lon="120.979176357404"><ele>6.0</ele><time>2026-05-06T08:27:34.001Z</time></trkpt><trkpt lat="14.473866175966478" lon="120.97908075747358"><ele>6.0</ele><time>2026-05-06T08:27:36.001Z</time></trkpt><trkpt lat="14.47385785434136" lon="120.97901594458676"><ele>6.142857142857142</ele><time>2026-05-06T08:27:38.001Z</time></trkpt><trkpt lat="14.473851274221794" lon="120.9789427769263"><ele>6.285714285714286</ele><time>2026-05-06T08:27:41.001Z</time></trkpt><trkpt lat="14.473844081738362" lon="120.97887775071923"><ele>6.428571428571429</ele><time>2026-05-06T08:27:44Z</time></trkpt><trkpt lat="14.473851258207564" lon="120.97878861691947"><ele>6.571428571428571</ele><time>2026-05-06T08:27:47Z</time></trkpt><trkpt lat="14.473857851581261" lon="120.97871239834183"><ele>6.714285714285714</ele><time>2026-05-06T08:27:52Z</time></trkpt><trkpt lat="14.47386923570066" lon="120.97862444542"><ele>6.857142857142857</ele><time>2026-05-06T08:27:58Z</time></trkpt><trkpt lat="14.473871928808167" lon="120.97855600860302"><ele>7.0</ele><time>2026-05-06T08:28:00Z</time></trkpt><trkpt lat="14.473889428227716" lon="120.97849144924947"><ele>7.000000000000001</ele><time>2026-05-06T08:28:03Z</time></trkpt><trkpt lat="14.473918552054364" lon="120.97842549571078"><ele>7.0</ele><time>2026-05-06T08:28:36.001Z</time></trkpt><trkpt lat="14.473964863691354" lon="120.9783490366844"><ele>7.0</ele><time>2026-05-06T08:28:40.001Z</time></trkpt><trkpt lat="14.474000771506143" lon="120.97828456927172"><ele>7.0</ele><time>2026-05-06T08:28:42.001Z</time></trkpt><trkpt lat="14.474044214056736" lon="120.97818519852794"><ele>7.000000000000001</ele><time>2026-05-06T08:28:44.001Z</time></trkpt><trkpt lat="14.474082371525741" lon="120.97807835847524"><ele>7.0</ele><time>2026-05-06T08:28:46.001Z</time></trkpt><trkpt lat="14.47409352406464" lon="120.97797787860553"><ele>6.8</ele><time>2026-05-06T08:28:48.001Z</time></trkpt><trkpt lat="14.474052272712798" lon="120.97785504908339"><ele>6.6</ele><time>2026-05-06T08:28:50.001Z</time></trkpt><trkpt lat="14.474020935468845" lon="120.97779528781683"><ele>6.3999999999999995</ele><time>2026-05-06T08:28:51.001Z</time></trkpt><trkpt lat="14.473956781785745" lon="120.97769273134371"><ele>6.199999999999999</ele><time>2026-05-06T08:28:53.001Z</time></trkpt><trkpt lat="14.473888990446364" lon="120.97759308458497"><ele>6.0</ele><time>2026-05-06T08:28:55.001Z</time></trkpt><trkpt lat="14.473852965103752" lon="120.977537836687"><ele>6.0</ele><time>2026-05-06T08:28:56.001Z</time></trkpt><trkpt lat="14.47381517887419" lon="120.97747392455207"><ele>6.0</ele><time>2026-05-06T08:28:57.001Z</time></trkpt><trkpt lat="14.47377255422441" lon="120.97740653630566"><ele>6.0</ele><time>2026-05-06T08:28:58.001Z</time></trkpt><trkpt lat="14.473729399171953" lon="120.97733309382714"><ele>6.0</ele><time>2026-05-06T08:28:59.001Z</time></trkpt><trkpt lat="14.4736979862251" lon="120.97725088165203"><ele>6.0</ele><time>2026-05-06T08:29:00.001Z</time></trkpt><trkpt lat="14.473654911766843" lon="120.97717532306355"><ele>6.0</ele><time>2026-05-06T08:29:01.001Z</time></trkpt><trkpt lat="14.473612768309932" lon="120.97710139758162"><ele>6.0</ele><time>2026-05-06T08:29:02.001Z</time></trkpt><trkpt lat="14.47357168359091" lon="120.97702932927145"><ele>6.0</ele><time>2026-05-06T08:29:03.001Z</time></trkpt><trkpt lat="14.473524873099592" lon="120.9769528015711"><ele>6.0</ele><time>2026-05-06T08:29:04.001Z</time></trkpt><trkpt lat="14.473484423399988" lon="120.97689008375657"><ele>6.0</ele><time>2026-05-06T08:29:05.001Z</time></trkpt><trkpt lat="14.473425969325463" lon="120.97680101673218"><ele>6.0</ele><time>2026-05-06T08:29:07.001Z</time></trkpt><trkpt lat="14.473371711940151" lon="120.97675317527992"><ele>6.0</ele><time>2026-05-06T08:29:09.001Z</time></trkpt><trkpt lat="14.473327039938171" lon="120.97668042146861"><ele>6.166666666666667</ele><time>2026-05-06T08:29:12.001Z</time></trkpt><trkpt lat="14.47329663991621" lon="120.97662232225656"><ele>6.333333333333334</ele><time>2026-05-06T08:29:14.001Z</time></trkpt><trkpt lat="14.473255242707456" lon="120.97657096320367"><ele>6.5</ele><time>2026-05-06T08:29:16.001Z</time></trkpt><trkpt lat="14.47319528767181" lon="120.97649791036446"><ele>6.666666666666667</ele><time>2026-05-06T08:29:19.001Z</time></trkpt><trkpt lat="14.47315585000163" lon="120.97642765854455"><ele>6.833333333333334</ele><time>2026-05-06T08:29:21.001Z</time></trkpt><trkpt lat="14.47310905647768" lon="120.97636581300888"><ele>7.0</ele><time>2026-05-06T08:29:23.001Z</time></trkpt><trkpt lat="14.473005907747627" lon="120.97627072606441"><ele>7.000000000000001</ele><time>2026-05-06T08:29:25.001Z</time></trkpt><trkpt lat="14.47295198667393" lon="120.97620396732253"><ele>7.0</ele><time>2026-05-06T08:29:26.001Z</time></trkpt><trkpt lat="14.472894681141144" lon="120.97613528052364"><ele>7.0</ele><time>2026-05-06T08:29:27.001Z</time></trkpt><trkpt lat="14.472837795009085" lon="120.97606142407791"><ele>7.0</ele><time>2026-05-06T08:29:28.001Z</time></trkpt><trkpt lat="14.472799068183079" lon="120.97597280251145"><ele>7.000000000000001</ele><time>2026-05-06T08:29:29.001Z</time></trkpt><trkpt lat="14.472741724351417" lon="120.97590017386638"><ele>7.0</ele><time>2026-05-06T08:29:30.001Z</time></trkpt><trkpt lat="14.472680214436226" lon="120.97582226846808"><ele>7.000000000000001</ele><time>2026-05-06T08:29:31.001Z</time></trkpt><trkpt lat="14.472619965646917" lon="120.97574596033249"><ele>7.0</ele><time>2026-05-06T08:29:32.001Z</time></trkpt><trkpt lat="14.472561112326419" lon="120.97567222526013"><ele>7.0</ele><time>2026-05-06T08:29:33.001Z</time></trkpt><trkpt lat="14.47250482596455" lon="120.9756032268192"><ele>7.0</ele><time>2026-05-06T08:29:34.001Z</time></trkpt><trkpt lat="14.47245436865375" lon="120.9755422500997"><ele>7.000000000000001</ele><time>2026-05-06T08:29:35.001Z</time></trkpt><trkpt lat="14.472405795321345" lon="120.9754826181374"><ele>7.0</ele><time>2026-05-06T08:29:36.001Z</time></trkpt><trkpt lat="14.472364236890819" lon="120.97542122168282"><ele>7.000000000000001</ele><time>2026-05-06T08:29:37.001Z</time></trkpt><trkpt lat="14.472323083797068" lon="120.9753598089635"><ele>7.0</ele><time>2026-05-06T08:29:38.001Z</time></trkpt><trkpt lat="14.47228173314578" lon="120.97529810142873"><ele>7.0</ele><time>2026-05-06T08:29:39.001Z</time></trkpt><trkpt lat="14.472235937789838" lon="120.9752297610605"><ele>7.0</ele><time>2026-05-06T08:29:41.001Z</time></trkpt><trkpt lat="14.472182605659592" lon="120.97515553112694"><ele>7.000000000000001</ele><time>2026-05-06T08:29:48.001Z</time></trkpt><trkpt lat="14.472120627629785" lon="120.97506278678978"><ele>7.0</ele><time>2026-05-06T08:29:50Z</time></trkpt><trkpt lat="14.472084391455803" lon="120.97500875800293"><ele>7.000000000000001</ele><time>2026-05-06T08:29:51Z</time></trkpt><trkpt lat="14.472045520837128" lon="120.97495080114496"><ele>7.0</ele><time>2026-05-06T08:29:52Z</time></trkpt><trkpt lat="14.472015521089398" lon="120.97489291731351"><ele>7.0</ele><time>2026-05-06T08:29:53Z</time></trkpt><trkpt lat="14.471955158123304" lon="120.97478233392508"><ele>7.0</ele><time>2026-05-06T08:29:55Z</time></trkpt><trkpt lat="14.471906394633569" lon="120.97469197383458"><ele>7.000000000000001</ele><time>2026-05-06T08:29:57Z</time></trkpt><trkpt lat="14.47187075868032" lon="120.97462593942463"><ele>7.0</ele><time>2026-05-06T08:29:59Z</time></trkpt><trkpt lat="14.471830306631785" lon="120.97455145496754"><ele>7.000000000000001</ele><time>2026-05-06T08:30:01Z</time></trkpt><trkpt lat="14.471789067544876" lon="120.97447345492495"><ele>7.0</ele><time>2026-05-06T08:30:03Z</time></trkpt><trkpt lat="14.471746993564155" lon="120.97438965404682"><ele>7.0</ele><time>2026-05-06T08:30:05Z</time></trkpt><trkpt lat="14.471710087399435" lon="120.97431614617071"><ele>7.0</ele><time>2026-05-06T08:30:07Z</time></trkpt><trkpt lat="14.47167281419692" lon="120.97424190724087"><ele>7.000000000000001</ele><time>2026-05-06T08:30:09Z</time></trkpt><trkpt lat="14.471621912646206" lon="120.97414052404282"><ele>7.0</ele><time>2026-05-06T08:30:11Z</time></trkpt><trkpt lat="14.47159146380972" lon="120.97407987754666"><ele>6.833333333333334</ele><time>2026-05-06T08:30:12Z</time></trkpt><trkpt lat="14.471559249261166" lon="120.97401571419964"><ele>6.666666666666667</ele><time>2026-05-06T08:30:13Z</time></trkpt><trkpt lat="14.471526834623134" lon="120.97395115232317"><ele>6.5</ele><time>2026-05-06T08:30:14Z</time></trkpt><trkpt lat="14.471495752851107" lon="120.97388924518852"><ele>6.333333333333334</ele><time>2026-05-06T08:30:15Z</time></trkpt><trkpt lat="14.471461252389867" lon="120.9738204515417"><ele>6.166666666666667</ele><time>2026-05-06T08:30:16Z</time></trkpt><trkpt lat="14.471418986776461" lon="120.97373614087877"><ele>6.0</ele><time>2026-05-06T08:30:17Z</time></trkpt><trkpt lat="14.471369049258122" lon="120.97363652644383"><ele>6.0</ele><time>2026-05-06T08:30:18Z</time></trkpt><trkpt lat="14.471321750500683" lon="120.973542897998"><ele>6.0</ele><time>2026-05-06T08:30:19Z</time></trkpt><trkpt lat="14.471279496936956" lon="120.97346122682157"><ele>6.0</ele><time>2026-05-06T08:30:20Z</time></trkpt><trkpt lat="14.471245426564387" lon="120.97339537279464"><ele>6.0</ele><time>2026-05-06T08:30:21Z</time></trkpt><trkpt lat="14.471194737556951" lon="120.97329739690657"><ele>6.0</ele><time>2026-05-06T08:30:23Z</time></trkpt><trkpt lat="14.471154188662418" lon="120.97321902066275"><ele>6.199999999999999</ele><time>2026-05-06T08:30:25Z</time></trkpt><trkpt lat="14.471107314680248" lon="120.9731289454076"><ele>6.3999999999999995</ele><time>2026-05-06T08:30:27Z</time></trkpt><trkpt lat="14.471063497495878" lon="120.97304493385658"><ele>6.6</ele><time>2026-05-06T08:30:29Z</time></trkpt><trkpt lat="14.4710235398894" lon="120.97296832235651"><ele>6.8</ele><time>2026-05-06T08:30:31Z</time></trkpt><trkpt lat="14.470971170012763" lon="120.9728679125622"><ele>7.0</ele><time>2026-05-06T08:30:33Z</time></trkpt><trkpt lat="14.47091105958517" lon="120.97275266166199"><ele>7.0</ele><time>2026-05-06T08:30:35Z</time></trkpt><trkpt lat="14.470879415761349" lon="120.97269199033691"><ele>7.0</ele><time>2026-05-06T08:30:36Z</time></trkpt><trkpt lat="14.470846291563042" lon="120.97262848066008"><ele>7.0</ele><time>2026-05-06T08:30:37Z</time></trkpt><trkpt lat="14.470813480530763" lon="120.97256557142417"><ele>7.0</ele><time>2026-05-06T08:30:38Z</time></trkpt><trkpt lat="14.470779113485811" lon="120.972499678812"><ele>7.0</ele><time>2026-05-06T08:30:39Z</time></trkpt><trkpt lat="14.470742581180144" lon="120.97243747894474"><ele>7.0</ele><time>2026-05-06T08:30:40Z</time></trkpt><trkpt lat="14.470705723880995" lon="120.97237706702695"><ele>7.0</ele><time>2026-05-06T08:30:41Z</time></trkpt><trkpt lat="14.470671183136405" lon="120.97232045211565"><ele>7.000000000000001</ele><time>2026-05-06T08:30:42.001Z</time></trkpt><trkpt lat="14.470605973554893" lon="120.97222263500016"><ele>7.0</ele><time>2026-05-06T08:30:44.001Z</time></trkpt><trkpt lat="14.470567667709481" lon="120.9721649784029"><ele>7.0</ele><time>2026-05-06T08:30:46.001Z</time></trkpt><trkpt lat="14.470529279963413" lon="120.97210719853648"><ele>7.0</ele><time>2026-05-06T08:30:51.001Z</time></trkpt><trkpt lat="14.47048138193417" lon="120.97203510413507"><ele>7.000000000000001</ele><time>2026-05-06T08:30:54.001Z</time></trkpt><trkpt lat="14.470431028085514" lon="120.97195931331578"><ele>7.0</ele><time>2026-05-06T08:30:56.001Z</time></trkpt><trkpt lat="14.470387611873582" lon="120.97189396478441"><ele>7.0</ele><time>2026-05-06T08:30:58.001Z</time></trkpt><trkpt lat="14.470328744451296" lon="120.9718053596377"><ele>6.999999999999999</ele><time>2026-05-06T08:31:00.001Z</time></trkpt><trkpt lat="14.470267859231377" lon="120.97171371737879"><ele>6.999999999999999</ele><time>2026-05-06T08:31:02.001Z</time></trkpt><trkpt lat="14.470202193115917" lon="120.97161487908613"><ele>7.0</ele><time>2026-05-06T08:31:04.001Z</time></trkpt><trkpt lat="14.470140801646442" lon="120.9715288053517"><ele>7.0</ele><time>2026-05-06T08:31:06.001Z</time></trkpt><trkpt lat="14.470073101607879" lon="120.971435389041"><ele>7.000000000000001</ele><time>2026-05-06T08:31:08.001Z</time></trkpt><trkpt lat="14.469995757146915" lon="120.97132866474378"><ele>7.0</ele><time>2026-05-06T08:31:10.001Z</time></trkpt><trkpt lat="14.46994825198555" lon="120.97127352797355"><ele>7.0</ele><time>2026-05-06T08:31:11.001Z</time></trkpt><trkpt lat="14.469901698214297" lon="120.97121593664934"><ele>7.0</ele><time>2026-05-06T08:31:12.001Z</time></trkpt><trkpt lat="14.469854686241995" lon="120.97115635026867"><ele>7.000000000000001</ele><time>2026-05-06T08:31:13.001Z</time></trkpt><trkpt lat="14.469807634408683" lon="120.97109634482388"><ele>7.0</ele><time>2026-05-06T08:31:14.001Z</time></trkpt><trkpt lat="14.469761806253391" lon="120.9710378998804"><ele>7.000000000000001</ele><time>2026-05-06T08:31:15.001Z</time></trkpt><trkpt lat="14.46971118773552" lon="120.97098761644408"><ele>7.0</ele><time>2026-05-06T08:31:16.001Z</time></trkpt><trkpt lat="14.469632946385792" lon="120.9708976601349"><ele>7.0</ele><time>2026-05-06T08:31:18.001Z</time></trkpt><trkpt lat="14.469587607338257" lon="120.97084553254427"><ele>7.0</ele><time>2026-05-06T08:31:19.001Z</time></trkpt><trkpt lat="14.4695401769144" lon="120.97079100042787"><ele>7.000000000000001</ele><time>2026-05-06T08:31:20.001Z</time></trkpt><trkpt lat="14.469492999206949" lon="120.97073675887896"><ele>7.0</ele><time>2026-05-06T08:31:21.001Z</time></trkpt><trkpt lat="14.469437589458385" lon="120.97067305270872"><ele>7.142857142857142</ele><time>2026-05-06T08:31:22.001Z</time></trkpt><trkpt lat="14.46938452993024" lon="120.97061204865975"><ele>7.285714285714286</ele><time>2026-05-06T08:31:23.001Z</time></trkpt><trkpt lat="14.469330906425908" lon="120.97055039619248"><ele>7.428571428571429</ele><time>2026-05-06T08:31:24.001Z</time></trkpt><trkpt lat="14.46928135370938" lon="120.97049342402106"><ele>7.571428571428571</ele><time>2026-05-06T08:31:25.001Z</time></trkpt><trkpt lat="14.469234287752625" lon="120.97043936379649"><ele>7.7142857142857135</ele><time>2026-05-06T08:31:26.001Z</time></trkpt><trkpt lat="14.469190065706055" lon="120.97038884642271"><ele>7.857142857142857</ele><time>2026-05-06T08:31:27.001Z</time></trkpt><trkpt lat="14.469143519336294" lon="120.97033567382078"><ele>8.0</ele><time>2026-05-06T08:31:28.001Z</time></trkpt><trkpt lat="14.46908469764337" lon="120.97029211618799"><ele>7.999999999999999</ele><time>2026-05-06T08:31:29.001Z</time></trkpt><trkpt lat="14.469031661655993" lon="120.97024942221175"><ele>8.0</ele><time>2026-05-06T08:31:30.001Z</time></trkpt><trkpt lat="14.468973247923277" lon="120.97020239916138"><ele>8.0</ele><time>2026-05-06T08:31:31.001Z</time></trkpt><trkpt lat="14.468920772423452" lon="120.97016015631544"><ele>8.0</ele><time>2026-05-06T08:31:32.001Z</time></trkpt><trkpt lat="14.468837592480062" lon="120.97014314817338"><ele>7.999999999999999</ele><time>2026-05-06T08:31:33.001Z</time></trkpt><trkpt lat="14.468776748305745" lon="120.97011226014035"><ele>8.0</ele><time>2026-05-06T08:31:34.001Z</time></trkpt><trkpt lat="14.468665496642785" lon="120.97005759476205"><ele>7.833333333333333</ele><time>2026-05-06T08:31:36.001Z</time></trkpt><trkpt lat="14.468579908778056" lon="120.97001824242241"><ele>7.666666666666666</ele><time>2026-05-06T08:31:38.001Z</time></trkpt><trkpt lat="14.468506530308463" lon="120.96998869485188"><ele>7.5</ele><time>2026-05-06T08:31:40.001Z</time></trkpt><trkpt lat="14.468421981616945" lon="120.96994992213186"><ele>7.333333333333334</ele><time>2026-05-06T08:31:43.001Z</time></trkpt><trkpt lat="14.468363037783654" lon="120.96991945958445"><ele>7.166666666666667</ele><time>2026-05-06T08:31:46.001Z</time></trkpt><trkpt lat="14.468293743918753" lon="120.96988098547624"><ele>7.0</ele><time>2026-05-06T08:31:53.001Z</time></trkpt><trkpt lat="14.468203734566114" lon="120.96985388488741"><ele>7.0</ele><time>2026-05-06T08:31:55.001Z</time></trkpt><trkpt lat="14.468130617152612" lon="120.96983448551306"><ele>6.999999999999999</ele><time>2026-05-06T08:31:56Z</time></trkpt><trkpt lat="14.468047519684248" lon="120.96980122123482"><ele>6.999999999999999</ele><time>2026-05-06T08:31:57Z</time></trkpt><trkpt lat="14.46795948587065" lon="120.96974878802617"><ele>7.0</ele><time>2026-05-06T08:31:58Z</time></trkpt><trkpt lat="14.467862149772031" lon="120.96968417774838"><ele>7.0</ele><time>2026-05-06T08:31:59Z</time></trkpt><trkpt lat="14.467759726487817" lon="120.96961419120315"><ele>7.0</ele><time>2026-05-06T08:32:00Z</time></trkpt><trkpt lat="14.467673140548182" lon="120.96950975446319"><ele>7.0</ele><time>2026-05-06T08:32:01Z</time></trkpt><trkpt lat="14.467578672839373" lon="120.96944060538934"><ele>7.0</ele><time>2026-05-06T08:32:02Z</time></trkpt><trkpt lat="14.467469338021031" lon="120.9693552100698"><ele>7.0</ele><time>2026-05-06T08:32:03Z</time></trkpt><trkpt lat="14.467359585758347" lon="120.969283784027"><ele>7.0</ele><time>2026-05-06T08:32:04Z</time></trkpt><trkpt lat="14.467257175935748" lon="120.96919944448159"><ele>7.0</ele><time>2026-05-06T08:32:05Z</time></trkpt><trkpt lat="14.467155832821785" lon="120.9691227185846"><ele>7.0</ele><time>2026-05-06T08:32:06Z</time></trkpt><trkpt lat="14.467053426310189" lon="120.96903979966872"><ele>7.0</ele><time>2026-05-06T08:32:07Z</time></trkpt><trkpt lat="14.466954812670693" lon="120.9689655580682"><ele>7.25</ele><time>2026-05-06T08:32:08Z</time></trkpt><trkpt lat="14.466856177016673" lon="120.96888984923626"><ele>7.5</ele><time>2026-05-06T08:32:09Z</time></trkpt><trkpt lat="14.466761414919805" lon="120.9688156141885"><ele>7.75</ele><time>2026-05-06T08:32:10Z</time></trkpt><trkpt lat="14.46667249584244" lon="120.96874082783819"><ele>8.0</ele><time>2026-05-06T08:32:11Z</time></trkpt><trkpt lat="14.466597887511922" lon="120.96866660517706"><ele>7.999999999999999</ele><time>2026-05-06T08:32:12Z</time></trkpt><trkpt lat="14.466526692158983" lon="120.96859203862952"><ele>8.0</ele><time>2026-05-06T08:32:13Z</time></trkpt><trkpt lat="14.466458490880902" lon="120.96852485933748"><ele>8.0</ele><time>2026-05-06T08:32:14Z</time></trkpt><trkpt lat="14.466408023737285" lon="120.96846009049385"><ele>8.0</ele><time>2026-05-06T08:32:15Z</time></trkpt><trkpt lat="14.466359435921872" lon="120.96839953337039"><ele>7.999999999999999</ele><time>2026-05-06T08:32:16Z</time></trkpt><trkpt lat="14.466308325387882" lon="120.96835620298732"><ele>8.0</ele><time>2026-05-06T08:32:17Z</time></trkpt><trkpt lat="14.466261758092802" lon="120.96831000194254"><ele>7.800000000000001</ele><time>2026-05-06T08:32:18Z</time></trkpt><trkpt lat="14.466195868392623" lon="120.96823887798332"><ele>7.6000000000000005</ele><time>2026-05-06T08:32:20Z</time></trkpt><trkpt lat="14.466118311624182" lon="120.96817891290617"><ele>7.3999999999999995</ele><time>2026-05-06T08:33:22.001Z</time></trkpt><trkpt lat="14.46604133941236" lon="120.96812088903742"><ele>7.199999999999999</ele><time>2026-05-06T08:33:24.001Z</time></trkpt><trkpt lat="14.46592880014137" lon="120.96804864287107"><ele>7.0</ele><time>2026-05-06T08:33:26.001Z</time></trkpt><trkpt lat="14.46585326311668" lon="120.96800567433536"><ele>7.0</ele><time>2026-05-06T08:33:27.001Z</time></trkpt><trkpt lat="14.465772376282652" lon="120.96794254190185"><ele>6.999999999999999</ele><time>2026-05-06T08:33:28.001Z</time></trkpt><trkpt lat="14.46568320052798" lon="120.96787488173304"><ele>6.999999999999999</ele><time>2026-05-06T08:33:29.001Z</time></trkpt><trkpt lat="14.465579182730076" lon="120.96778045802279"><ele>7.0</ele><time>2026-05-06T08:33:30.001Z</time></trkpt><trkpt lat="14.465519920799098" lon="120.96775006256921"><ele>7.0</ele><time>2026-05-06T08:33:31.001Z</time></trkpt><trkpt lat="14.465437777982114" lon="120.96769107725477"><ele>7.6</ele><time>2026-05-06T08:33:32.001Z</time></trkpt><trkpt lat="14.465357938486703" lon="120.96762820243471"><ele>8.2</ele><time>2026-05-06T08:33:33.001Z</time></trkpt><trkpt lat="14.465277098778374" lon="120.96756288894387"><ele>8.8</ele><time>2026-05-06T08:33:34.001Z</time></trkpt><trkpt lat="14.465190574561184" lon="120.96749665858115"><ele>9.4</ele><time>2026-05-06T08:33:35.001Z</time></trkpt><trkpt lat="14.465099786754188" lon="120.9674343881507"><ele>10.0</ele><time>2026-05-06T08:33:36.001Z</time></trkpt><trkpt lat="14.465006656443181" lon="120.96737432415"><ele>10.2</ele><time>2026-05-06T08:33:37.001Z</time></trkpt><trkpt lat="14.464911204509791" lon="120.9673125403901"><ele>10.4</ele><time>2026-05-06T08:33:38.001Z</time></trkpt><trkpt lat="14.464813655275645" lon="120.96725127929227"><ele>10.600000000000001</ele><time>2026-05-06T08:33:39.001Z</time></trkpt><trkpt lat="14.464730430068972" lon="120.96718775851924"><ele>10.8</ele><time>2026-05-06T08:33:40.001Z</time></trkpt><trkpt lat="14.464663701181037" lon="120.9671318554578"><ele>11.0</ele><time>2026-05-06T08:33:41.001Z</time></trkpt><trkpt lat="14.464607474639504" lon="120.96708125601083"><ele>10.600000000000001</ele><time>2026-05-06T08:33:42.001Z</time></trkpt><trkpt lat="14.464550601472173" lon="120.9670302978681"><ele>10.200000000000001</ele><time>2026-05-06T08:33:43.001Z</time></trkpt><trkpt lat="14.464518849987538" lon="120.96694484239931"><ele>9.8</ele><time>2026-05-06T08:33:44.001Z</time></trkpt><trkpt lat="14.464459639526678" lon="120.9668648869511"><ele>9.4</ele><time>2026-05-06T08:33:45.001Z</time></trkpt><trkpt lat="14.46440445906501" lon="120.96677974996241"><ele>9.0</ele><time>2026-05-06T08:33:46.001Z</time></trkpt><trkpt lat="14.464347753483311" lon="120.9666933564117"><ele>9.0</ele><time>2026-05-06T08:33:47.001Z</time></trkpt><trkpt lat="14.464295085220243" lon="120.96661311391524"><ele>9.0</ele><time>2026-05-06T08:33:48.001Z</time></trkpt><trkpt lat="14.464249254144997" lon="120.96654328798739"><ele>9.0</ele><time>2026-05-06T08:33:49.001Z</time></trkpt><trkpt lat="14.464209361384738" lon="120.96648487647712"><ele>9.0</ele><time>2026-05-06T08:33:50.001Z</time></trkpt><trkpt lat="14.464171694738853" lon="120.96642529111381"><ele>9.0</ele><time>2026-05-06T08:33:51.001Z</time></trkpt><trkpt lat="14.464106550946722" lon="120.96632182770172"><ele>9.0</ele><time>2026-05-06T08:33:53.001Z</time></trkpt><trkpt lat="14.464044508288525" lon="120.96622298407979"><ele>9.0</ele><time>2026-05-06T08:33:55.001Z</time></trkpt><trkpt lat="14.463995344196228" lon="120.9661447763686"><ele>9.0</ele><time>2026-05-06T08:33:57.001Z</time></trkpt><trkpt lat="14.46394829256775" lon="120.9660705795271"><ele>9.0</ele><time>2026-05-06T08:33:59.001Z</time></trkpt><trkpt lat="14.46387349530178" lon="120.96596031695543"><ele>9.0</ele><time>2026-05-06T08:34:01Z</time></trkpt><trkpt lat="14.463828489393237" lon="120.96589390724986"><ele>9.0</ele><time>2026-05-06T08:34:02Z</time></trkpt><trkpt lat="14.463779884574883" lon="120.96582191244306"><ele>9.0</ele><time>2026-05-06T08:34:03Z</time></trkpt><trkpt lat="14.463728916111478" lon="120.96574641654058"><ele>9.0</ele><time>2026-05-06T08:34:04Z</time></trkpt><trkpt lat="14.46366118139567" lon="120.96567591338325"><ele>9.0</ele><time>2026-05-06T08:34:05Z</time></trkpt><trkpt lat="14.463624577466474" lon="120.96559186724807"><ele>9.0</ele><time>2026-05-06T08:34:06Z</time></trkpt><trkpt lat="14.463560838642335" lon="120.96552725181958"><ele>9.0</ele><time>2026-05-06T08:34:07Z</time></trkpt><trkpt lat="14.463515702984255" lon="120.96546008233605"><ele>9.0</ele><time>2026-05-06T08:34:08Z</time></trkpt><trkpt lat="14.463493593560049" lon="120.96539785024859"><ele>9.0</ele><time>2026-05-06T08:34:09Z</time></trkpt><trkpt lat="14.463445561925042" lon="120.96534894040535"><ele>9.0</ele><time>2026-05-06T08:34:13Z</time></trkpt><trkpt lat="14.463392015795684" lon="120.96526473946935"><ele>9.0</ele><time>2026-05-06T08:34:15Z</time></trkpt><trkpt lat="14.46336698858002" lon="120.96520490278827"><ele>9.0</ele><time>2026-05-06T08:34:16Z</time></trkpt><trkpt lat="14.463328048120035" lon="120.96514540376823"><ele>9.0</ele><time>2026-05-06T08:34:17Z</time></trkpt><trkpt lat="14.463288128641413" lon="120.96508440758541"><ele>9.0</ele><time>2026-05-06T08:34:18Z</time></trkpt><trkpt lat="14.46323041051611" lon="120.96499620500069"><ele>8.833333333333334</ele><time>2026-05-06T08:34:20Z</time></trkpt><trkpt lat="14.463175895060463" lon="120.96491289668353"><ele>8.666666666666666</ele><time>2026-05-06T08:34:22Z</time></trkpt><trkpt lat="14.4631260414054" lon="120.9648367098184"><ele>8.5</ele><time>2026-05-06T08:34:24Z</time></trkpt><trkpt lat="14.463087037668886" lon="120.96477709295512"><ele>8.333333333333332</ele><time>2026-05-06T08:34:26Z</time></trkpt><trkpt lat="14.463046684347404" lon="120.96471541326494"><ele>8.166666666666666</ele><time>2026-05-06T08:34:29Z</time></trkpt><trkpt lat="14.463004291994913" lon="120.96465061694823"><ele>8.0</ele><time>2026-05-06T08:34:34Z</time></trkpt><trkpt lat="14.462959477473056" lon="120.96458244279107"><ele>7.999999999999999</ele><time>2026-05-06T08:34:38Z</time></trkpt><trkpt lat="14.462918856270885" lon="120.96452127122677"><ele>8.0</ele><time>2026-05-06T08:34:45Z</time></trkpt><trkpt lat="14.462885079838314" lon="120.96446625155558"><ele>8.0</ele><time>2026-05-06T08:34:57Z</time></trkpt><trkpt lat="14.462840852895079" lon="120.96439631125857"><ele>8.0</ele><time>2026-05-06T08:35:02Z</time></trkpt><trkpt lat="14.462789044223586" lon="120.96431438130335"><ele>7.999999999999999</ele><time>2026-05-06T08:35:04Z</time></trkpt><trkpt lat="14.462745833859591" lon="120.96424604860812"><ele>8.0</ele><time>2026-05-06T08:35:06Z</time></trkpt><trkpt lat="14.462710419536762" lon="120.96419004456091"><ele>8.166666666666666</ele><time>2026-05-06T08:35:08Z</time></trkpt><trkpt lat="14.462662276977717" lon="120.96411391192366"><ele>8.333333333333332</ele><time>2026-05-06T08:35:11.001Z</time></trkpt><trkpt lat="14.462625400127886" lon="120.96405559476503"><ele>8.5</ele><time>2026-05-06T08:35:13.001Z</time></trkpt><trkpt lat="14.462568624893409" lon="120.96399069373778"><ele>8.666666666666666</ele><time>2026-05-06T08:35:15.001Z</time></trkpt><trkpt lat="14.462493589794386" lon="120.96387948590197"><ele>8.833333333333334</ele><time>2026-05-06T08:35:17.001Z</time></trkpt><trkpt lat="14.462451083688737" lon="120.96381425445274"><ele>9.0</ele><time>2026-05-06T08:35:18.001Z</time></trkpt><trkpt lat="14.462390905944671" lon="120.96371854901572"><ele>9.0</ele><time>2026-05-06T08:35:20.001Z</time></trkpt><trkpt lat="14.462342148726288" lon="120.96361404085725"><ele>9.0</ele><time>2026-05-06T08:35:22.001Z</time></trkpt><trkpt lat="14.462284541032204" lon="120.96352174110565"><ele>9.0</ele><time>2026-05-06T08:35:24.001Z</time></trkpt><trkpt lat="14.462229408660356" lon="120.96343340730925"><ele>9.0</ele><time>2026-05-06T08:35:26.001Z</time></trkpt><trkpt lat="14.46217531393382" lon="120.96334673564166"><ele>9.0</ele><time>2026-05-06T08:35:28.001Z</time></trkpt><trkpt lat="14.4621129291918" lon="120.96327707477165"><ele>8.833333333333334</ele><time>2026-05-06T08:35:30.001Z</time></trkpt><trkpt lat="14.462087775667289" lon="120.96320463703225"><ele>8.666666666666666</ele><time>2026-05-06T08:35:32.001Z</time></trkpt><trkpt lat="14.462042929998752" lon="120.96315252895937"><ele>8.5</ele><time>2026-05-06T08:35:35.001Z</time></trkpt><trkpt lat="14.46200139374285" lon="120.96308832316423"><ele>8.333333333333332</ele><time>2026-05-06T08:36:46Z</time></trkpt><trkpt lat="14.4619667377997" lon="120.9630211503406"><ele>8.166666666666666</ele><time>2026-05-06T08:36:48Z</time></trkpt><trkpt lat="14.461928767060186" lon="120.96295338382647"><ele>8.0</ele><time>2026-05-06T08:36:50Z</time></trkpt><trkpt lat="14.461878288221108" lon="120.96287874816191"><ele>8.0</ele><time>2026-05-06T08:36:52Z</time></trkpt><trkpt lat="14.461837795264442" lon="120.96280316049335"><ele>8.0</ele><time>2026-05-06T08:36:54Z</time></trkpt><trkpt lat="14.461788521886433" lon="120.96272898333365"><ele>8.0</ele><time>2026-05-06T08:36:56Z</time></trkpt><trkpt lat="14.461743946887072" lon="120.96265982409679"><ele>8.0</ele><time>2026-05-06T08:36:58Z</time></trkpt><trkpt lat="14.461685290692195" lon="120.96257318010599"><ele>8.0</ele><time>2026-05-06T08:37:00Z</time></trkpt><trkpt lat="14.461625427518161" lon="120.96248689628557"><ele>8.0</ele><time>2026-05-06T08:37:02Z</time></trkpt><trkpt lat="14.461564333078206" lon="120.96239698790579"><ele>8.0</ele><time>2026-05-06T08:37:04Z</time></trkpt><trkpt lat="14.461520903146472" lon="120.96231207142917"><ele>8.0</ele><time>2026-05-06T08:37:06Z</time></trkpt><trkpt lat="14.46146226743493" lon="120.9622206087833"><ele>8.0</ele><time>2026-05-06T08:37:08Z</time></trkpt><trkpt lat="14.46142360976507" lon="120.96216030878784"><ele>8.0</ele><time>2026-05-06T08:37:09Z</time></trkpt><trkpt lat="14.461368906665822" lon="120.96209585229008"><ele>8.0</ele><time>2026-05-06T08:37:10Z</time></trkpt><trkpt lat="14.461321338129475" lon="120.96201599318614"><ele>8.0</ele><time>2026-05-06T08:37:11Z</time></trkpt><trkpt lat="14.461267108598085" lon="120.96192906909272"><ele>8.0</ele><time>2026-05-06T08:37:12Z</time></trkpt><trkpt lat="14.461209690500272" lon="120.96183608057306"><ele>8.0</ele><time>2026-05-06T08:37:13Z</time></trkpt><trkpt lat="14.461147719562168" lon="120.9617387193798"><ele>8.0</ele><time>2026-05-06T08:37:14Z</time></trkpt><trkpt lat="14.461082756099534" lon="120.96164316692473"><ele>8.0</ele><time>2026-05-06T08:37:15Z</time></trkpt><trkpt lat="14.461018891324251" lon="120.96154827065337"><ele>8.0</ele><time>2026-05-06T08:37:16Z</time></trkpt><trkpt lat="14.460959237177732" lon="120.96145804399539"><ele>8.0</ele><time>2026-05-06T08:37:17Z</time></trkpt><trkpt lat="14.46089860733868" lon="120.96137036833638"><ele>8.0</ele><time>2026-05-06T08:37:18Z</time></trkpt><trkpt lat="14.460841061177408" lon="120.96128270987883"><ele>8.0</ele><time>2026-05-06T08:37:19Z</time></trkpt><trkpt lat="14.460794943487313" lon="120.9611844687121"><ele>8.0</ele><time>2026-05-06T08:37:20Z</time></trkpt><trkpt lat="14.460719745987092" lon="120.96110394812062"><ele>8.0</ele><time>2026-05-06T08:37:21Z</time></trkpt><trkpt lat="14.46065825850257" lon="120.9610039822591"><ele>8.0</ele><time>2026-05-06T08:37:22Z</time></trkpt><trkpt lat="14.460600644986783" lon="120.96089876357064"><ele>8.0</ele><time>2026-05-06T08:37:23Z</time></trkpt><trkpt lat="14.460532251556646" lon="120.96079091218763"><ele>8.0</ele><time>2026-05-06T08:37:24Z</time></trkpt><trkpt lat="14.460459924369212" lon="120.96068564829737"><ele>8.0</ele><time>2026-05-06T08:37:25Z</time></trkpt><trkpt lat="14.4603834739419" lon="120.96057535969373"><ele>8.0</ele><time>2026-05-06T08:37:26Z</time></trkpt><trkpt lat="14.460307283860322" lon="120.96047299271288"><ele>8.0</ele><time>2026-05-06T08:37:27Z</time></trkpt><trkpt lat="14.460237434432365" lon="120.96037407859987"><ele>8.4</ele><time>2026-05-06T08:37:28Z</time></trkpt><trkpt lat="14.460164144483906" lon="120.96028896392022"><ele>8.8</ele><time>2026-05-06T08:37:29Z</time></trkpt><trkpt lat="14.460086486836786" lon="120.96020525336627"><ele>9.2</ele><time>2026-05-06T08:37:30Z</time></trkpt><trkpt lat="14.46002486644711" lon="120.9601310801889"><ele>9.6</ele><time>2026-05-06T08:37:31Z</time></trkpt><trkpt lat="14.459968683254369" lon="120.96006883038127"><ele>10.0</ele><time>2026-05-06T08:37:32Z</time></trkpt><trkpt lat="14.459924072342734" lon="120.96001831910833"><ele>10.166666666666668</ele><time>2026-05-06T08:37:33Z</time></trkpt><trkpt lat="14.45987913905669" lon="120.95992858859789"><ele>10.333333333333334</ele><time>2026-05-06T08:37:35.001Z</time></trkpt><trkpt lat="14.459933648920636" lon="120.95985971931276"><ele>10.5</ele><time>2026-05-06T08:37:36.001Z</time></trkpt><trkpt lat="14.459999231704414" lon="120.95982672026295"><ele>10.666666666666666</ele><time>2026-05-06T08:37:37.001Z</time></trkpt><trkpt lat="14.460070603160435" lon="120.95980876906806"><ele>10.833333333333332</ele><time>2026-05-06T08:37:38.001Z</time></trkpt><trkpt lat="14.460145861552926" lon="120.9597970295187"><ele>11.0</ele><time>2026-05-06T08:37:39.001Z</time></trkpt><trkpt lat="14.460238115808028" lon="120.95978882107325"><ele>11.0</ele><time>2026-05-06T08:37:40.001Z</time></trkpt><trkpt lat="14.46032691050684" lon="120.95978432267663"><ele>11.0</ele><time>2026-05-06T08:37:41.001Z</time></trkpt><trkpt lat="14.460414191750658" lon="120.95978089307077"><ele>11.0</ele><time>2026-05-06T08:37:42.001Z</time></trkpt><trkpt lat="14.46050104008581" lon="120.9597781353036"><ele>11.0</ele><time>2026-05-06T08:37:43.001Z</time></trkpt><trkpt lat="14.460591284229833" lon="120.95977188498532"><ele>11.0</ele><time>2026-05-06T08:37:44.001Z</time></trkpt><trkpt lat="14.460685058874054" lon="120.95975837002638"><ele>11.0</ele><time>2026-05-06T08:37:45.001Z</time></trkpt><trkpt lat="14.46077776482584" lon="120.95974029873558"><ele>10.600000000000001</ele><time>2026-05-06T08:37:46.001Z</time></trkpt><trkpt lat="14.460871407222411" lon="120.95972784770613"><ele>10.200000000000001</ele><time>2026-05-06T08:37:47.001Z</time></trkpt><trkpt lat="14.460968712554466" lon="120.9597200742703"><ele>9.8</ele><time>2026-05-06T08:37:48.001Z</time></trkpt><trkpt lat="14.461070708553992" lon="120.95971292610677"><ele>9.4</ele><time>2026-05-06T08:37:49.001Z</time></trkpt><trkpt lat="14.461178317583348" lon="120.95970059237894"><ele>9.0</ele><time>2026-05-06T08:37:50.001Z</time></trkpt><trkpt lat="14.461282771730618" lon="120.95967902327506"><ele>8.5</ele><time>2026-05-06T08:37:51.001Z</time></trkpt><trkpt lat="14.461377290245222" lon="120.95966350614296"><ele>8.0</ele><time>2026-05-06T08:37:52.001Z</time></trkpt><trkpt lat="14.461460740308956" lon="120.95964520487716"><ele>7.5</ele><time>2026-05-06T08:37:53.001Z</time></trkpt><trkpt lat="14.461535143608247" lon="120.9596315444048"><ele>7.0</ele><time>2026-05-06T08:37:54.001Z</time></trkpt><trkpt lat="14.461644482892853" lon="120.95963096478089"><ele>6.5</ele><time>2026-05-06T08:37:56.001Z</time></trkpt><trkpt lat="14.461706051129838" lon="120.95961089739882"><ele>6.0</ele><time>2026-05-06T08:37:58.001Z</time></trkpt><trkpt lat="14.461772320117156" lon="120.95961563471766"><ele>6.0</ele><time>2026-05-06T08:38:24Z</time></trkpt><trkpt lat="14.461856683027113" lon="120.95960020160818"><ele>6.0</ele><time>2026-05-06T08:38:28Z</time></trkpt><trkpt lat="14.461938974075299" lon="120.9595844422525"><ele>6.0</ele><time>2026-05-06T08:38:30Z</time></trkpt><trkpt lat="14.462040388519702" lon="120.95958458497056"><ele>6.0</ele><time>2026-05-06T08:38:32Z</time></trkpt><trkpt lat="14.462117225959584" lon="120.95957736225088"><ele>6.0</ele><time>2026-05-06T08:38:34Z</time></trkpt><trkpt lat="14.46216362466198" lon="120.95941102793844"><ele>6.0</ele><time>2026-05-06T08:38:38Z</time></trkpt><trkpt lat="14.462146228736728" lon="120.95933335482802"><ele>6.0</ele><time>2026-05-06T08:38:41Z</time></trkpt><trkpt lat="14.462113581628369" lon="120.95924484094486"><ele>6.0</ele><time>2026-05-06T08:38:44Z</time></trkpt><trkpt lat="14.462083069015842" lon="120.95918226056718"><ele>6.0</ele><time>2026-05-06T08:38:46Z</time></trkpt><trkpt lat="14.46206818506831" lon="120.95910500428435"><ele>6.0</ele><time>2026-05-06T08:38:48Z</time></trkpt><trkpt lat="14.462046063190131" lon="120.95902690690943"><ele>6.0</ele><time>2026-05-06T08:38:51Z</time></trkpt><trkpt lat="14.462013939843283" lon="120.9589135011376"><ele>6.333333333333333</ele><time>2026-05-06T08:38:53Z</time></trkpt><trkpt lat="14.461993436662153" lon="120.9588411182849"><ele>6.666666666666666</ele><time>2026-05-06T08:38:55Z</time></trkpt><trkpt lat="14.461971025454186" lon="120.9587619994982"><ele>7.0</ele><time>2026-05-06T08:38:57Z</time></trkpt><trkpt lat="14.461951747633218" lon="120.9586939425724"><ele>7.333333333333333</ele><time>2026-05-06T08:38:58Z</time></trkpt><trkpt lat="14.46193072010499" lon="120.95861970860007"><ele>7.666666666666666</ele><time>2026-05-06T08:38:59Z</time></trkpt><trkpt lat="14.46190788819049" lon="120.95853910459292"><ele>8.0</ele><time>2026-05-06T08:39:00Z</time></trkpt><trkpt lat="14.46188316772039" lon="120.9584518333674"><ele>7.833333333333333</ele><time>2026-05-06T08:39:01Z</time></trkpt><trkpt lat="14.461858751241834" lon="120.95836563530985"><ele>7.666666666666666</ele><time>2026-05-06T08:39:02Z</time></trkpt><trkpt lat="14.461835828673665" lon="120.9582847518018"><ele>7.5</ele><time>2026-05-06T08:39:03Z</time></trkpt><trkpt lat="14.461814568051599" lon="120.95821197753635"><ele>7.333333333333334</ele><time>2026-05-06T08:39:04Z</time></trkpt><trkpt lat="14.461792860197141" lon="120.95813767239191"><ele>7.166666666666667</ele><time>2026-05-06T08:39:05Z</time></trkpt><trkpt lat="14.461758028783683" lon="120.9580732505144"><ele>7.0</ele><time>2026-05-06T08:39:06Z</time></trkpt><trkpt lat="14.461755076187346" lon="120.95799794004425"><ele>7.0</ele><time>2026-05-06T08:39:07Z</time></trkpt><trkpt lat="14.461712308699031" lon="120.95788704531657"><ele>6.999999999999999</ele><time>2026-05-06T08:39:09Z</time></trkpt><trkpt lat="14.461688385073685" lon="120.95779458969075"><ele>6.999999999999999</ele><time>2026-05-06T08:39:11Z</time></trkpt><trkpt lat="14.461660224523309" lon="120.95769347193271"><ele>7.0</ele><time>2026-05-06T08:39:13Z</time></trkpt><trkpt lat="14.461632832156752" lon="120.95758778700869"><ele>7.0</ele><time>2026-05-06T08:39:15Z</time></trkpt><trkpt lat="14.461604008993847" lon="120.95746668882852"><ele>6.833333333333334</ele><time>2026-05-06T08:39:17Z</time></trkpt><trkpt lat="14.461583085992496" lon="120.95740136177979"><ele>6.666666666666667</ele><time>2026-05-06T08:39:18Z</time></trkpt><trkpt lat="14.46155972982856" lon="120.95733891467795"><ele>6.5</ele><time>2026-05-06T08:39:19Z</time></trkpt><trkpt lat="14.46152834768952" lon="120.95721478723274"><ele>6.333333333333334</ele><time>2026-05-06T08:39:21Z</time></trkpt><trkpt lat="14.461510927361626" lon="120.95714793509417"><ele>6.166666666666667</ele><time>2026-05-06T08:39:22Z</time></trkpt><trkpt lat="14.461476409246707" lon="120.95703867068333"><ele>6.0</ele><time>2026-05-06T08:39:24Z</time></trkpt><trkpt lat="14.461452704603495" lon="120.95695308262636"><ele>6.0</ele><time>2026-05-06T08:39:26Z</time></trkpt><trkpt lat="14.461423931260546" lon="120.95683426610526"><ele>6.0</ele><time>2026-05-06T08:39:28Z</time></trkpt><trkpt lat="14.461411815902494" lon="120.95676596317942"><ele>6.0</ele><time>2026-05-06T08:39:29Z</time></trkpt><trkpt lat="14.461392296644553" lon="120.95670063497928"><ele>6.0</ele><time>2026-05-06T08:39:30Z</time></trkpt><trkpt lat="14.461370776440878" lon="120.95662164407327"><ele>6.0</ele><time>2026-05-06T08:39:31Z</time></trkpt><trkpt lat="14.461347476225225" lon="120.95655994930925"><ele>6.0</ele><time>2026-05-06T08:39:32Z</time></trkpt><trkpt lat="14.46133074724983" lon="120.95648781687663"><ele>6.0</ele><time>2026-05-06T08:39:34Z</time></trkpt><trkpt lat="14.461313967955183" lon="120.95640717744857"><ele>6.0</ele><time>2026-05-06T08:39:36Z</time></trkpt><trkpt lat="14.461283467784753" lon="120.95628940074558"><ele>6.0</ele><time>2026-05-06T08:39:38Z</time></trkpt><trkpt lat="14.461263731550638" lon="120.95622087969865"><ele>6.0</ele><time>2026-05-06T08:39:39.001Z</time></trkpt><trkpt lat="14.461237232865297" lon="120.95613690624465"><ele>6.0</ele><time>2026-05-06T08:39:41.001Z</time></trkpt><trkpt lat="14.461217987852114" lon="120.95606366602081"><ele>6.0</ele><time>2026-05-06T08:39:45.001Z</time></trkpt><trkpt lat="14.46120314654715" lon="120.95599970668455"><ele>6.8</ele><time>2026-05-06T08:39:47.001Z</time></trkpt><trkpt lat="14.461164975245751" lon="120.95586565780832"><ele>7.6</ele><time>2026-05-06T08:39:49.001Z</time></trkpt><trkpt lat="14.461145728778282" lon="120.95578526179179"><ele>8.4</ele><time>2026-05-06T08:39:50.001Z</time></trkpt><trkpt lat="14.46111573760982" lon="120.9556821593263"><ele>9.2</ele><time>2026-05-06T08:39:51.001Z</time></trkpt><trkpt lat="14.4610841598904" lon="120.95558378805127"><ele>10.0</ele><time>2026-05-06T08:39:52.001Z</time></trkpt><trkpt lat="14.461057608433839" lon="120.95549518357595"><ele>10.0</ele><time>2026-05-06T08:39:53.001Z</time></trkpt><trkpt lat="14.461048362850667" lon="120.95540546259491"><ele>10.0</ele><time>2026-05-06T08:39:54.001Z</time></trkpt><trkpt lat="14.461022702970174" lon="120.95530877977832"><ele>10.0</ele><time>2026-05-06T08:39:55.001Z</time></trkpt><trkpt lat="14.460993378111908" lon="120.9551994509853"><ele>10.0</ele><time>2026-05-06T08:39:56.001Z</time></trkpt><trkpt lat="14.460961858229606" lon="120.95508039431814"><ele>10.0</ele><time>2026-05-06T08:39:57.001Z</time></trkpt><trkpt lat="14.460929536737705" lon="120.954955583641"><ele>9.5</ele><time>2026-05-06T08:39:58.001Z</time></trkpt><trkpt lat="14.460881155933297" lon="120.95483040606435"><ele>9.0</ele><time>2026-05-06T08:39:59.001Z</time></trkpt><trkpt lat="14.460849067229145" lon="120.95470148524501"><ele>8.5</ele><time>2026-05-06T08:40:00.001Z</time></trkpt><trkpt lat="14.460812646980234" lon="120.95456941491597"><ele>8.0</ele><time>2026-05-06T08:40:01.001Z</time></trkpt><trkpt lat="14.460777593225304" lon="120.9544405584948"><ele>8.0</ele><time>2026-05-06T08:40:02.001Z</time></trkpt><trkpt lat="14.460743882010673" lon="120.95431076181315"><ele>8.0</ele><time>2026-05-06T08:40:03.001Z</time></trkpt><trkpt lat="14.46071225686246" lon="120.95417781590757"><ele>8.0</ele><time>2026-05-06T08:40:04.001Z</time></trkpt><trkpt lat="14.460677886269485" lon="120.9540533107587"><ele>8.0</ele><time>2026-05-06T08:40:05.001Z</time></trkpt><trkpt lat="14.460644229883235" lon="120.95393543499473"><ele>8.0</ele><time>2026-05-06T08:40:06.001Z</time></trkpt><trkpt lat="14.460632604415244" lon="120.95382539083981"><ele>8.0</ele><time>2026-05-06T08:40:07.001Z</time></trkpt><trkpt lat="14.46061091894223" lon="120.95373758026064"><ele>8.0</ele><time>2026-05-06T08:40:08.001Z</time></trkpt><trkpt lat="14.460591992543412" lon="120.95366094193034"><ele>8.0</ele><time>2026-05-06T08:40:09.001Z</time></trkpt><trkpt lat="14.460565343052286" lon="120.95355158501442"><ele>8.0</ele><time>2026-05-06T08:40:11.001Z</time></trkpt><trkpt lat="14.460540653121166" lon="120.95344959168912"><ele>7.999999999999999</ele><time>2026-05-06T08:40:13.001Z</time></trkpt><trkpt lat="14.460512917644582" lon="120.95333426543306"><ele>8.0</ele><time>2026-05-06T08:40:15.001Z</time></trkpt><trkpt lat="14.46048987366515" lon="120.95322088299142"><ele>8.0</ele><time>2026-05-06T08:40:17.001Z</time></trkpt><trkpt lat="14.460476293138719" lon="120.95315499859676"><ele>8.0</ele><time>2026-05-06T08:40:18Z</time></trkpt><trkpt lat="14.460462181960747" lon="120.95308653980163"><ele>7.999999999999999</ele><time>2026-05-06T08:40:19Z</time></trkpt><trkpt lat="14.460445606756428" lon="120.95300612706899"><ele>8.0</ele><time>2026-05-06T08:40:20Z</time></trkpt><trkpt lat="14.460430553299513" lon="120.95293309691442"><ele>8.0</ele><time>2026-05-06T08:40:21Z</time></trkpt><trkpt lat="14.46041488331148" lon="120.95285707572138"><ele>8.0</ele><time>2026-05-06T08:40:22Z</time></trkpt><trkpt lat="14.460395460891688" lon="120.95276284988235"><ele>8.0</ele><time>2026-05-06T08:40:23Z</time></trkpt><trkpt lat="14.460387227774685" lon="120.95266435581789"><ele>8.0</ele><time>2026-05-06T08:40:24Z</time></trkpt><trkpt lat="14.460374571221251" lon="120.95255771625521"><ele>8.0</ele><time>2026-05-06T08:40:25Z</time></trkpt><trkpt lat="14.460360716046674" lon="120.95244157818757"><ele>7.800000000000001</ele><time>2026-05-06T08:40:26Z</time></trkpt><trkpt lat="14.46034641685836" lon="120.95232325670165"><ele>7.6000000000000005</ele><time>2026-05-06T08:40:27Z</time></trkpt><trkpt lat="14.460332886999492" lon="120.95221130121"><ele>7.3999999999999995</ele><time>2026-05-06T08:40:28Z</time></trkpt><trkpt lat="14.460320694663338" lon="120.95211041319078"><ele>7.199999999999999</ele><time>2026-05-06T08:40:29Z</time></trkpt><trkpt lat="14.460309842706408" lon="120.95201326836329"><ele>7.0</ele><time>2026-05-06T08:40:30Z</time></trkpt><trkpt lat="14.460299624379799" lon="120.95192310400512"><ele>7.0</ele><time>2026-05-06T08:40:31Z</time></trkpt><trkpt lat="14.460290126079324" lon="120.95183981122527"><ele>6.999999999999999</ele><time>2026-05-06T08:40:32Z</time></trkpt><trkpt lat="14.460277167960605" lon="120.95172617849363"><ele>6.999999999999999</ele><time>2026-05-06T08:40:34Z</time></trkpt><trkpt lat="14.460265400930021" lon="120.951622990677"><ele>7.0</ele><time>2026-05-06T08:40:36Z</time></trkpt><trkpt lat="14.46025093694465" lon="120.95149998815253"><ele>7.0</ele><time>2026-05-06T08:40:38Z</time></trkpt><trkpt lat="14.460243709339425" lon="120.95143528775671"><ele>7.142857142857142</ele><time>2026-05-06T08:40:39Z</time></trkpt><trkpt lat="14.460236033388272" lon="120.95136827547984"><ele>7.285714285714286</ele><time>2026-05-06T08:40:40Z</time></trkpt><trkpt lat="14.460228219579168" lon="120.95130005968313"><ele>7.428571428571429</ele><time>2026-05-06T08:40:41Z</time></trkpt><trkpt lat="14.460220358872412" lon="120.95123143447277"><ele>7.571428571428571</ele><time>2026-05-06T08:40:42Z</time></trkpt><trkpt lat="14.460211772602005" lon="120.95115647491734"><ele>7.7142857142857135</ele><time>2026-05-06T08:40:43Z</time></trkpt><trkpt lat="14.460203364816836" lon="120.95107736048271"><ele>7.857142857142857</ele><time>2026-05-06T08:40:44Z</time></trkpt><trkpt lat="14.460194114249052" lon="120.95099733484682"><ele>8.0</ele><time>2026-05-06T08:40:45Z</time></trkpt><trkpt lat="14.460184130518755" lon="120.95091096653881"><ele>8.166666666666666</ele><time>2026-05-06T08:40:46Z</time></trkpt><trkpt lat="14.460177630950952" lon="120.95082646206079"><ele>8.333333333333332</ele><time>2026-05-06T08:40:47Z</time></trkpt><trkpt lat="14.4601700875464" lon="120.95074638561948"><ele>8.5</ele><time>2026-05-06T08:40:48Z</time></trkpt><trkpt lat="14.46016225890087" lon="120.95067109534561"><ele>8.666666666666666</ele><time>2026-05-06T08:40:49Z</time></trkpt><trkpt lat="14.46014316603521" lon="120.95059830143927"><ele>8.833333333333334</ele><time>2026-05-06T08:40:50Z</time></trkpt><trkpt lat="14.46014269364966" lon="120.95052103768508"><ele>9.0</ele><time>2026-05-06T08:40:51Z</time></trkpt><trkpt lat="14.460141169553033" lon="120.95044659029821"><ele>9.0</ele><time>2026-05-06T08:40:52Z</time></trkpt><trkpt lat="14.460133098254438" lon="120.95037008130943"><ele>9.0</ele><time>2026-05-06T08:40:53Z</time></trkpt><trkpt lat="14.460118836239833" lon="120.95025641207089"><ele>9.0</ele><time>2026-05-06T08:40:55Z</time></trkpt><trkpt lat="14.460106264333985" lon="120.95017803414066"><ele>9.0</ele><time>2026-05-06T08:40:57Z</time></trkpt><trkpt lat="14.46009067591784" lon="120.95007453840475"><ele>9.0</ele><time>2026-05-06T08:40:59Z</time></trkpt><trkpt lat="14.460080560065002" lon="120.94997365206002"><ele>8.714285714285715</ele><time>2026-05-06T08:41:01Z</time></trkpt><trkpt lat="14.460076143562807" lon="120.94990563097761"><ele>8.428571428571429</ele><time>2026-05-06T08:41:02Z</time></trkpt><trkpt lat="14.460067880212266" lon="120.94983690949597"><ele>8.142857142857142</ele><time>2026-05-06T08:41:03Z</time></trkpt><trkpt lat="14.460062096987798" lon="120.94976236676186"><ele>7.857142857142858</ele><time>2026-05-06T08:41:04Z</time></trkpt><trkpt lat="14.460061159415256" lon="120.94968700881493"><ele>7.571428571428571</ele><time>2026-05-06T08:41:05Z</time></trkpt><trkpt lat="14.460055692649354" lon="120.94961771550457"><ele>7.285714285714286</ele><time>2026-05-06T08:41:06Z</time></trkpt><trkpt lat="14.460046993193094" lon="120.94954190723098"><ele>7.0</ele><time>2026-05-06T08:41:07Z</time></trkpt><trkpt lat="14.460040866269116" lon="120.94946304435047"><ele>7.000000000000001</ele><time>2026-05-06T08:41:08Z</time></trkpt><trkpt lat="14.460036582652107" lon="120.94938686769267"><ele>7.0</ele><time>2026-05-06T08:41:09Z</time></trkpt><trkpt lat="14.460025043828344" lon="120.9492993186547"><ele>7.0</ele><time>2026-05-06T08:41:10Z</time></trkpt><trkpt lat="14.46001755793632" lon="120.9492296792551"><ele>7.0</ele><time>2026-05-06T08:41:11Z</time></trkpt><trkpt lat="14.46000899460103" lon="120.94915054309264"><ele>7.000000000000001</ele><time>2026-05-06T08:41:12Z</time></trkpt><trkpt lat="14.460004778668067" lon="120.94908220205234"><ele>7.0</ele><time>2026-05-06T08:41:13Z</time></trkpt><trkpt lat="14.45999229620091" lon="120.94898464098142"><ele>7.0</ele><time>2026-05-06T08:41:15Z</time></trkpt><trkpt lat="14.459985513197912" lon="120.94891012770714"><ele>6.999999999999999</ele><time>2026-05-06T08:41:17Z</time></trkpt><trkpt lat="14.459974779738411" lon="120.94877978503854"><ele>6.999999999999999</ele><time>2026-05-06T08:41:19Z</time></trkpt><trkpt lat="14.459969559732796" lon="120.94869682087179"><ele>7.0</ele><time>2026-05-06T08:41:20Z</time></trkpt><trkpt lat="14.459958014926107" lon="120.94862035105916"><ele>7.0</ele><time>2026-05-06T08:41:21Z</time></trkpt><trkpt lat="14.459936376819513" lon="120.94850014783017"><ele>7.000000000000001</ele><time>2026-05-06T08:41:23Z</time></trkpt><trkpt lat="14.459907631957885" lon="120.94837078420672"><ele>7.0</ele><time>2026-05-06T08:41:25Z</time></trkpt><trkpt lat="14.459925114206692" lon="120.94829496936192"><ele>7.0</ele><time>2026-05-06T08:41:26Z</time></trkpt><trkpt lat="14.45991836059055" lon="120.94822102720163"><ele>7.0</ele><time>2026-05-06T08:41:27Z</time></trkpt><trkpt lat="14.459911723322074" lon="120.94814835872862"><ele>7.000000000000001</ele><time>2026-05-06T08:41:28Z</time></trkpt><trkpt lat="14.459904731088345" lon="120.94807845583033"><ele>7.0</ele><time>2026-05-06T08:41:29Z</time></trkpt><trkpt lat="14.459892379136246" lon="120.94795194992867"><ele>7.0</ele><time>2026-05-06T08:41:31Z</time></trkpt><trkpt lat="14.459882246962547" lon="120.94784037616839"><ele>6.999999999999999</ele><time>2026-05-06T08:41:33Z</time></trkpt><trkpt lat="14.459872645734714" lon="120.94773576814352"><ele>6.999999999999999</ele><time>2026-05-06T08:41:35Z</time></trkpt><trkpt lat="14.459863766876964" lon="120.94763641951003"><ele>7.0</ele><time>2026-05-06T08:41:37Z</time></trkpt><trkpt lat="14.459851839570147" lon="120.9475260686294"><ele>7.0</ele><time>2026-05-06T08:41:39Z</time></trkpt><trkpt lat="14.459841726257006" lon="120.94743561064904"><ele>7.199999999999999</ele><time>2026-05-06T08:41:41Z</time></trkpt><trkpt lat="14.459830370487428" lon="120.94733325351959"><ele>7.3999999999999995</ele><time>2026-05-06T08:41:43Z</time></trkpt><trkpt lat="14.459822575212595" lon="120.94726279457329"><ele>7.6000000000000005</ele><time>2026-05-06T08:41:44Z</time></trkpt><trkpt lat="14.459812595452064" lon="120.94717259035282"><ele>7.800000000000001</ele><time>2026-05-06T08:41:45Z</time></trkpt><trkpt lat="14.45977783244254" lon="120.94708070152974"><ele>8.0</ele><time>2026-05-06T08:41:46Z</time></trkpt><trkpt lat="14.459779031690225" lon="120.94697947079435"><ele>7.999999999999999</ele><time>2026-05-06T08:41:47Z</time></trkpt><trkpt lat="14.459769161020127" lon="120.94689491375694"><ele>8.0</ele><time>2026-05-06T08:41:48Z</time></trkpt><trkpt lat="14.459763403031488" lon="120.94681293308567"><ele>8.0</ele><time>2026-05-06T08:41:49Z</time></trkpt><trkpt lat="14.459762362481921" lon="120.94672562786441"><ele>8.0</ele><time>2026-05-06T08:41:50Z</time></trkpt><trkpt lat="14.459763059874462" lon="120.94663669268577"><ele>7.999999999999999</ele><time>2026-05-06T08:41:51Z</time></trkpt><trkpt lat="14.459760250840523" lon="120.94655641512841"><ele>8.0</ele><time>2026-05-06T08:41:52Z</time></trkpt><trkpt lat="14.45977625032442" lon="120.94646786208217"><ele>8.0</ele><time>2026-05-06T08:41:53Z</time></trkpt><trkpt lat="14.459746738460304" lon="120.94637896003047"><ele>8.0</ele><time>2026-05-06T08:41:54Z</time></trkpt><trkpt lat="14.459743699036139" lon="120.94628478669101"><ele>8.0</ele><time>2026-05-06T08:41:55Z</time></trkpt><trkpt lat="14.459739143006745" lon="120.94618323096265"><ele>8.0</ele><time>2026-05-06T08:41:56Z</time></trkpt><trkpt lat="14.459731855632489" lon="120.94607117879254"><ele>8.0</ele><time>2026-05-06T08:41:57Z</time></trkpt><trkpt lat="14.459761399816067" lon="120.94595722684839"><ele>7.800000000000001</ele><time>2026-05-06T08:41:58.001Z</time></trkpt><trkpt lat="14.459757813224615" lon="120.94583568596235"><ele>7.6000000000000005</ele><time>2026-05-06T08:41:59.001Z</time></trkpt><trkpt lat="14.459754437147303" lon="120.94572127892283"><ele>7.3999999999999995</ele><time>2026-05-06T08:42:00.001Z</time></trkpt><trkpt lat="14.459751376859796" lon="120.94561757313795"><ele>7.199999999999999</ele><time>2026-05-06T08:42:01.001Z</time></trkpt><trkpt lat="14.459748632758947" lon="120.94552458226634"><ele>7.0</ele><time>2026-05-06T08:42:02.001Z</time></trkpt><trkpt lat="14.459746281045216" lon="120.9454448879388"><ele>7.0</ele><time>2026-05-06T08:42:03.001Z</time></trkpt><trkpt lat="14.459743555278706" lon="120.94536327243996"><ele>6.999999999999999</ele><time>2026-05-06T08:42:05.001Z</time></trkpt><trkpt lat="14.459740484678" lon="120.94527157434216"><ele>6.999999999999999</ele><time>2026-05-06T08:42:07.001Z</time></trkpt><trkpt lat="14.459736008956096" lon="120.94513791475185"><ele>7.0</ele><time>2026-05-06T08:42:09.001Z</time></trkpt><trkpt lat="14.459733716200546" lon="120.94506944563122"><ele>7.0</ele><time>2026-05-06T08:42:10.001Z</time></trkpt><trkpt lat="14.459730075116175" lon="120.94496071102965"><ele>6.8</ele><time>2026-05-06T08:42:12.001Z</time></trkpt><trkpt lat="14.459726171057588" lon="120.94484412317834"><ele>6.6</ele><time>2026-05-06T08:42:14.001Z</time></trkpt><trkpt lat="14.459723914024325" lon="120.94477672083931"><ele>6.3999999999999995</ele><time>2026-05-06T08:42:15.001Z</time></trkpt><trkpt lat="14.459721073314865" lon="120.94469095086563"><ele>6.199999999999999</ele><time>2026-05-06T08:42:16.001Z</time></trkpt><trkpt lat="14.459717667564426" lon="120.94458775076977"><ele>6.0</ele><time>2026-05-06T08:42:17.001Z</time></trkpt><trkpt lat="14.459713917969514" lon="120.94447413157752"><ele>6.0</ele><time>2026-05-06T08:42:18.001Z</time></trkpt><trkpt lat="14.459710007297003" lon="120.94435563157724"><ele>6.0</ele><time>2026-05-06T08:42:19.001Z</time></trkpt><trkpt lat="14.459696063081367" lon="120.94423335205549"><ele>6.0</ele><time>2026-05-06T08:42:20.001Z</time></trkpt><trkpt lat="14.459685456979763" lon="120.94411701414923"><ele>6.0</ele><time>2026-05-06T08:42:21.001Z</time></trkpt><trkpt lat="14.459674405042927" lon="120.94399578587091"><ele>6.333333333333333</ele><time>2026-05-06T08:42:22.001Z</time></trkpt><trkpt lat="14.459664588629934" lon="120.94388811004167"><ele>6.666666666666666</ele><time>2026-05-06T08:42:23.001Z</time></trkpt><trkpt lat="14.459655795476065" lon="120.94379165826022"><ele>7.0</ele><time>2026-05-06T08:42:24Z</time></trkpt><trkpt lat="14.459649400966743" lon="120.94372151712226"><ele>7.333333333333333</ele><time>2026-05-06T08:42:25Z</time></trkpt><trkpt lat="14.459643201722535" lon="120.94365351788876"><ele>7.666666666666666</ele><time>2026-05-06T08:42:26Z</time></trkpt><trkpt lat="14.459637074311994" lon="120.9435863065083"><ele>8.0</ele><time>2026-05-06T08:42:27Z</time></trkpt><trkpt lat="14.459625262507917" lon="120.94345219810454"><ele>7.999999999999999</ele><time>2026-05-06T08:42:29Z</time></trkpt><trkpt lat="14.459618302447065" lon="120.94337325778672"><ele>8.0</ele><time>2026-05-06T08:42:30Z</time></trkpt><trkpt lat="14.459611420069608" lon="120.94329519852435"><ele>8.0</ele><time>2026-05-06T08:42:31Z</time></trkpt><trkpt lat="14.459588157069488" lon="120.94321986635357"><ele>8.0</ele><time>2026-05-06T08:42:32Z</time></trkpt><trkpt lat="14.459589310975272" lon="120.94311752542048"><ele>7.999999999999999</ele><time>2026-05-06T08:42:34Z</time></trkpt><trkpt lat="14.459583113170144" lon="120.94303116659518"><ele>8.0</ele><time>2026-05-06T08:42:36Z</time></trkpt><trkpt lat="14.459569436157393" lon="120.94296051016502"><ele>8.0</ele><time>2026-05-06T08:42:37Z</time></trkpt><trkpt lat="14.459571901859013" lon="120.94286461609342"><ele>8.0</ele><time>2026-05-06T08:42:38Z</time></trkpt><trkpt lat="14.45956201936772" lon="120.94276057844745"><ele>8.0</ele><time>2026-05-06T08:42:39Z</time></trkpt><trkpt lat="14.459552454289561" lon="120.9426598823387"><ele>8.0</ele><time>2026-05-06T08:42:40Z</time></trkpt><trkpt lat="14.459541857917108" lon="120.94254832932738"><ele>8.0</ele><time>2026-05-06T08:42:41Z</time></trkpt><trkpt lat="14.45953193835774" lon="120.94244390144469"><ele>8.0</ele><time>2026-05-06T08:42:42Z</time></trkpt><trkpt lat="14.459522351521983" lon="120.94234390727702"><ele>8.0</ele><time>2026-05-06T08:42:43Z</time></trkpt><trkpt lat="14.459513956434172" lon="120.94225683327521"><ele>8.0</ele><time>2026-05-06T08:42:44Z</time></trkpt><trkpt lat="14.459492817118523" lon="120.9421837882819"><ele>8.0</ele><time>2026-05-06T08:42:45Z</time></trkpt><trkpt lat="14.45950937756801" lon="120.94208907299253"><ele>8.0</ele><time>2026-05-06T08:42:46Z</time></trkpt><trkpt lat="14.45947393190706" lon="120.94194637074544"><ele>7.999999999999999</ele><time>2026-05-06T08:42:48Z</time></trkpt><trkpt lat="14.459467987024974" lon="120.94185510275295"><ele>8.0</ele><time>2026-05-06T08:42:49Z</time></trkpt><trkpt lat="14.459459262632963" lon="120.94176411170282"><ele>8.0</ele><time>2026-05-06T08:42:50Z</time></trkpt><trkpt lat="14.459447869336138" lon="120.9416696290173"><ele>8.0</ele><time>2026-05-06T08:42:51Z</time></trkpt><trkpt lat="14.459439276687176" lon="120.94158341947644"><ele>7.999999999999999</ele><time>2026-05-06T08:42:52Z</time></trkpt><trkpt lat="14.459434486255294" lon="120.94150287178171"><ele>8.0</ele><time>2026-05-06T08:42:53Z</time></trkpt><trkpt lat="14.459426740171102" lon="120.94143154727323"><ele>7.999999999999999</ele><time>2026-05-06T08:42:54Z</time></trkpt><trkpt lat="14.459412242338411" lon="120.94130102186014"><ele>8.0</ele><time>2026-05-06T08:42:56Z</time></trkpt><trkpt lat="14.459406627382927" lon="120.94123139594814"><ele>8.0</ele><time>2026-05-06T08:42:57Z</time></trkpt><trkpt lat="14.459414600452508" lon="120.94111534116969"><ele>8.0</ele><time>2026-05-06T08:42:59Z</time></trkpt><trkpt lat="14.459410352635622" lon="120.94104942459313"><ele>7.999999999999999</ele><time>2026-05-06T08:43:00Z</time></trkpt><trkpt lat="14.45940600240219" lon="120.94098191875443"><ele>8.0</ele><time>2026-05-06T08:43:01Z</time></trkpt><trkpt lat="14.45939796301493" lon="120.94085716495825"><ele>7.999999999999999</ele><time>2026-05-06T08:43:03Z</time></trkpt><trkpt lat="14.459389724164652" lon="120.94076185561426"><ele>8.0</ele><time>2026-05-06T08:43:05Z</time></trkpt><trkpt lat="14.459381672722746" lon="120.94065762124318"><ele>8.0</ele><time>2026-05-06T08:43:07Z</time></trkpt><trkpt lat="14.459376509537593" lon="120.9405907783927"><ele>8.0</ele><time>2026-05-06T08:43:08Z</time></trkpt><trkpt lat="14.459369670479058" lon="120.94050223960234"><ele>7.999999999999999</ele><time>2026-05-06T08:43:09Z</time></trkpt><trkpt lat="14.459363515907583" lon="120.9404225622136"><ele>8.0</ele><time>2026-05-06T08:43:10Z</time></trkpt><trkpt lat="14.459357169884601" lon="120.94034040628686"><ele>7.999999999999999</ele><time>2026-05-06T08:43:11Z</time></trkpt><trkpt lat="14.45934665868137" lon="120.9402043274182"><ele>8.0</ele><time>2026-05-06T08:43:13Z</time></trkpt><trkpt lat="14.459340231209575" lon="120.94013621669377"><ele>8.0</ele><time>2026-05-06T08:43:14Z</time></trkpt><trkpt lat="14.459333002947336" lon="120.94007053913971"><ele>8.0</ele><time>2026-05-06T08:43:15Z</time></trkpt><trkpt lat="14.4593239355554" lon="120.93999459179975"><ele>7.999999999999999</ele><time>2026-05-06T08:43:16Z</time></trkpt><trkpt lat="14.459312264713969" lon="120.93991930969547"><ele>8.0</ele><time>2026-05-06T08:43:17Z</time></trkpt><trkpt lat="14.459298278346395" lon="120.93984057162363"><ele>7.999999999999999</ele><time>2026-05-06T08:43:18Z</time></trkpt><trkpt lat="14.459283282738037" lon="120.93975615178061"><ele>8.0</ele><time>2026-05-06T08:43:19Z</time></trkpt><trkpt lat="14.459264086777772" lon="120.93967424983826"><ele>8.0</ele><time>2026-05-06T08:43:20Z</time></trkpt><trkpt lat="14.459248394400056" lon="120.93960315955475"><ele>8.0</ele><time>2026-05-06T08:43:21Z</time></trkpt><trkpt lat="14.459231731338773" lon="120.93952767183018"><ele>7.999999999999999</ele><time>2026-05-06T08:43:22Z</time></trkpt><trkpt lat="14.459215668429726" lon="120.9394549029483"><ele>8.0</ele><time>2026-05-06T08:43:23Z</time></trkpt><trkpt lat="14.45919732166999" lon="120.93937178765684"><ele>7.999999999999999</ele><time>2026-05-06T08:43:24Z</time></trkpt><trkpt lat="14.459178717401027" lon="120.93928750579333"><ele>8.0</ele><time>2026-05-06T08:43:25Z</time></trkpt><trkpt lat="14.459157999964697" lon="120.93919365068838"><ele>8.0</ele><time>2026-05-06T08:43:26Z</time></trkpt><trkpt lat="14.459137070124495" lon="120.93911050944459"><ele>8.0</ele><time>2026-05-06T08:43:27Z</time></trkpt><trkpt lat="14.45911598880903" lon="120.93902553032282"><ele>7.999999999999999</ele><time>2026-05-06T08:43:28Z</time></trkpt><trkpt lat="14.459094802575445" lon="120.93894012827039"><ele>8.0</ele><time>2026-05-06T08:43:29Z</time></trkpt><trkpt lat="14.459077857901542" lon="120.93887182402192"><ele>7.999999999999999</ele><time>2026-05-06T08:43:30Z</time></trkpt><trkpt lat="14.459061789812644" lon="120.93880705319684"><ele>8.0</ele><time>2026-05-06T08:43:31Z</time></trkpt><trkpt lat="14.459045302466599" lon="120.93874090459947"><ele>8.0</ele><time>2026-05-06T08:43:32Z</time></trkpt><trkpt lat="14.459027253112907" lon="120.93866840814434"><ele>8.0</ele><time>2026-05-06T08:43:33Z</time></trkpt><trkpt lat="14.459008319312115" lon="120.938592359237"><ele>7.999999999999999</ele><time>2026-05-06T08:43:34Z</time></trkpt><trkpt lat="14.458971264699377" lon="120.93851159870795"><ele>8.0</ele><time>2026-05-06T08:43:35Z</time></trkpt><trkpt lat="14.458964796618467" lon="120.93841754703485"><ele>7.4</ele><time>2026-05-06T08:43:36Z</time></trkpt><trkpt lat="14.458943494637921" lon="120.93831997944841"><ele>6.800000000000001</ele><time>2026-05-06T08:43:37Z</time></trkpt><trkpt lat="14.45891838718042" lon="120.93821139195951"><ele>6.2</ele><time>2026-05-06T08:43:38Z</time></trkpt><trkpt lat="14.458891522035977" lon="120.93809520249899"><ele>5.6</ele><time>2026-05-06T08:43:39Z</time></trkpt><trkpt lat="14.458864524596384" lon="120.93797535057244"><ele>5.0</ele><time>2026-05-06T08:43:40Z</time></trkpt><trkpt lat="14.458837016275833" lon="120.9378539402609"><ele>5.0</ele><time>2026-05-06T08:43:41Z</time></trkpt><trkpt lat="14.458811973667435" lon="120.93774341258933"><ele>5.0</ele><time>2026-05-06T08:43:42Z</time></trkpt><trkpt lat="14.45878709492686" lon="120.9376336081632"><ele>5.0</ele><time>2026-05-06T08:43:43Z</time></trkpt><trkpt lat="14.458765388591479" lon="120.93753780535367"><ele>5.0</ele><time>2026-05-06T08:43:44Z</time></trkpt><trkpt lat="14.458743685519789" lon="120.93744501702687"><ele>5.0</ele><time>2026-05-06T08:43:45Z</time></trkpt><trkpt lat="14.45872269841681" lon="120.9373508207268"><ele>5.285714285714286</ele><time>2026-05-06T08:43:46Z</time></trkpt><trkpt lat="14.458705140355482" lon="120.9372720145141"><ele>5.571428571428571</ele><time>2026-05-06T08:43:47Z</time></trkpt><trkpt lat="14.458686866230495" lon="120.93719560691997"><ele>5.857142857142858</ele><time>2026-05-06T08:43:48Z</time></trkpt><trkpt lat="14.45867017339445" lon="120.93712226453749"><ele>6.142857142857142</ele><time>2026-05-06T08:43:49Z</time></trkpt><trkpt lat="14.45865370155581" lon="120.93704989316998"><ele>6.428571428571429</ele><time>2026-05-06T08:43:50Z</time></trkpt><trkpt lat="14.458637090320508" lon="120.93697690931995"><ele>6.714285714285714</ele><time>2026-05-06T08:43:51Z</time></trkpt><trkpt lat="14.45862060770239" lon="120.93690449058771"><ele>7.0</ele><time>2026-05-06T08:43:52Z</time></trkpt><trkpt lat="14.458588626850677" lon="120.93683600401074"><ele>7.0</ele><time>2026-05-06T08:43:53Z</time></trkpt><trkpt lat="14.458587399444127" lon="120.93675761947178"><ele>6.999999999999999</ele><time>2026-05-06T08:43:54Z</time></trkpt><trkpt lat="14.458568914530021" lon="120.9366758118716"><ele>6.999999999999999</ele><time>2026-05-06T08:43:55Z</time></trkpt><trkpt lat="14.458548748244011" lon="120.93658646025048"><ele>7.0</ele><time>2026-05-06T08:43:56Z</time></trkpt><trkpt lat="14.45852553769901" lon="120.93648350775509"><ele>7.0</ele><time>2026-05-06T08:43:57Z</time></trkpt><trkpt lat="14.45849927575407" lon="120.93636702051765"><ele>6.6</ele><time>2026-05-06T08:43:58Z</time></trkpt><trkpt lat="14.458472830752891" lon="120.93625046404847"><ele>6.199999999999999</ele><time>2026-05-06T08:43:59Z</time></trkpt><trkpt lat="14.458446442914676" lon="120.93613520789233"><ele>5.8</ele><time>2026-05-06T08:44:00.001Z</time></trkpt><trkpt lat="14.458421212912572" lon="120.93602500936902"><ele>5.4</ele><time>2026-05-06T08:44:01.001Z</time></trkpt><trkpt lat="14.458398591815353" lon="120.93592782856756"><ele>5.0</ele><time>2026-05-06T08:44:02.001Z</time></trkpt><trkpt lat="14.458382557589701" lon="120.93585872187936"><ele>4.833333333333334</ele><time>2026-05-06T08:44:03.001Z</time></trkpt><trkpt lat="14.45836776391539" lon="120.93579215624979"><ele>4.666666666666667</ele><time>2026-05-06T08:44:04.001Z</time></trkpt><trkpt lat="14.458353652867881" lon="120.9357286487439"><ele>4.5</ele><time>2026-05-06T08:44:05.001Z</time></trkpt><trkpt lat="14.458328863647417" lon="120.93561708357483"><ele>4.333333333333333</ele><time>2026-05-06T08:44:07.001Z</time></trkpt><trkpt lat="14.458302930432033" lon="120.93550036986896"><ele>4.166666666666666</ele><time>2026-05-06T08:44:09.001Z</time></trkpt><trkpt lat="14.45828759456394" lon="120.93543135034773"><ele>4.0</ele><time>2026-05-06T08:44:10.001Z</time></trkpt><trkpt lat="14.458271763099269" lon="120.93536238214533"><ele>3.9999999999999996</ele><time>2026-05-06T08:44:11.001Z</time></trkpt><trkpt lat="14.458255390207002" lon="120.93529057978175"><ele>4.0</ele><time>2026-05-06T08:44:12.001Z</time></trkpt><trkpt lat="14.458239461916524" lon="120.93522072721044"><ele>4.0</ele><time>2026-05-06T08:44:13.001Z</time></trkpt><trkpt lat="14.458224470718502" lon="120.9351549841918"><ele>4.0</ele><time>2026-05-06T08:44:14.001Z</time></trkpt><trkpt lat="14.458195799389644" lon="120.93502924774734"><ele>3.9999999999999996</ele><time>2026-05-06T08:44:16.001Z</time></trkpt><trkpt lat="14.458179364886472" lon="120.934957175144"><ele>4.0</ele><time>2026-05-06T08:44:17.001Z</time></trkpt><trkpt lat="14.458162702093801" lon="120.93488410149146"><ele>4.4</ele><time>2026-05-06T08:44:18.001Z</time></trkpt><trkpt lat="14.458145119056791" lon="120.9348069920744"><ele>4.800000000000001</ele><time>2026-05-06T08:44:19.001Z</time></trkpt><trkpt lat="14.458126656548583" lon="120.93472602583753"><ele>5.199999999999999</ele><time>2026-05-06T08:44:20.001Z</time></trkpt><trkpt lat="14.458105574737983" lon="120.93463357431462"><ele>5.6</ele><time>2026-05-06T08:44:21.001Z</time></trkpt><trkpt lat="14.458089776881257" lon="120.93452224839986"><ele>6.0</ele><time>2026-05-06T08:44:22.001Z</time></trkpt><trkpt lat="14.458068492206372" lon="120.93440281337989"><ele>6.0</ele><time>2026-05-06T08:44:23.001Z</time></trkpt><trkpt lat="14.458045683180538" lon="120.93427482463609"><ele>6.0</ele><time>2026-05-06T08:44:24.001Z</time></trkpt><trkpt lat="14.458021583112663" lon="120.93413959150821"><ele>6.0</ele><time>2026-05-06T08:44:25.001Z</time></trkpt><trkpt lat="14.458006856564051" lon="120.93401135375562"><ele>6.0</ele><time>2026-05-06T08:44:26.001Z</time></trkpt><trkpt lat="14.457994954939846" lon="120.93388811979518"><ele>6.0</ele><time>2026-05-06T08:44:27.001Z</time></trkpt><trkpt lat="14.457983188170934" lon="120.93376628300469"><ele>6.0</ele><time>2026-05-06T08:44:28.001Z</time></trkpt><trkpt lat="14.457972350995444" lon="120.9336546466048"><ele>6.0</ele><time>2026-05-06T08:44:29.001Z</time></trkpt><trkpt lat="14.457963203305619" lon="120.93356026422548"><ele>6.0</ele><time>2026-05-06T08:44:29.999Z</time></trkpt><trkpt lat="14.457954766054918" lon="120.93347321179961"><ele>6.0</ele><time>2026-05-06T08:44:30.999Z</time></trkpt><trkpt lat="14.457946133168901" lon="120.93338479762059"><ele>6.0</ele><time>2026-05-06T08:44:31.999Z</time></trkpt><trkpt lat="14.457937441251993" lon="120.93329868146735"><ele>6.0</ele><time>2026-05-06T08:44:32.999Z</time></trkpt><trkpt lat="14.457929232578131" lon="120.93323000095575"><ele>6.0</ele><time>2026-05-06T08:44:33.999Z</time></trkpt><trkpt lat="14.457921005369569" lon="120.93315716983797"><ele>6.0</ele><time>2026-05-06T08:44:34.999Z</time></trkpt><trkpt lat="14.457910488323314" lon="120.93307353914679"><ele>6.0</ele><time>2026-05-06T08:44:35.999Z</time></trkpt><trkpt lat="14.457901407177804" lon="120.93299415699695"><ele>6.0</ele><time>2026-05-06T08:44:36.999Z</time></trkpt><trkpt lat="14.457893520418887" lon="120.93292376807167"><ele>6.0</ele><time>2026-05-06T08:44:37.999Z</time></trkpt><trkpt lat="14.457885544921318" lon="120.93285258718683"><ele>6.0</ele><time>2026-05-06T08:44:38.999Z</time></trkpt><trkpt lat="14.457870748239234" lon="120.93272052750312"><ele>6.0</ele><time>2026-05-06T08:44:40.999Z</time></trkpt><trkpt lat="14.457858277187333" lon="120.93260922398451"><ele>6.0</ele><time>2026-05-06T08:44:42.999Z</time></trkpt><trkpt lat="14.457842005299561" lon="120.93254478440832"><ele>6.0</ele><time>2026-05-06T08:44:43.999Z</time></trkpt><trkpt lat="14.457806258075045" lon="120.9324235745854"><ele>6.0</ele><time>2026-05-06T08:44:45.999Z</time></trkpt><trkpt lat="14.457787851506186" lon="120.93235696034023"><ele>6.0</ele><time>2026-05-06T08:44:46.999Z</time></trkpt><trkpt lat="14.457762790678412" lon="120.932281832549"><ele>6.0</ele><time>2026-05-06T08:44:47.999Z</time></trkpt><trkpt lat="14.457735022570592" lon="120.93220370563556"><ele>6.0</ele><time>2026-05-06T08:44:48.999Z</time></trkpt><trkpt lat="14.457705762452155" lon="120.93212138081451"><ele>6.0</ele><time>2026-05-06T08:44:49.999Z</time></trkpt><trkpt lat="14.457673671241324" lon="120.93203109056165"><ele>6.0</ele><time>2026-05-06T08:44:50.999Z</time></trkpt><trkpt lat="14.45764395581938" lon="120.93194748473226"><ele>6.0</ele><time>2026-05-06T08:44:51.999Z</time></trkpt><trkpt lat="14.457612783294904" lon="120.93185977930197"><ele>6.0</ele><time>2026-05-06T08:44:52.999Z</time></trkpt><trkpt lat="14.457579952474944" lon="120.93176582885827"><ele>6.0</ele><time>2026-05-06T08:44:53.999Z</time></trkpt><trkpt lat="14.457548842990729" lon="120.93167549088606"><ele>6.0</ele><time>2026-05-06T08:44:54.999Z</time></trkpt><trkpt lat="14.45751743883357" lon="120.93158429720785"><ele>6.0</ele><time>2026-05-06T08:44:56Z</time></trkpt><trkpt lat="14.45748567851115" lon="120.93149206926793"><ele>6.166666666666667</ele><time>2026-05-06T08:44:57Z</time></trkpt><trkpt lat="14.457457847184834" lon="120.93141125065821"><ele>6.333333333333334</ele><time>2026-05-06T08:44:58Z</time></trkpt><trkpt lat="14.457432694463371" lon="120.93133821026194"><ele>6.5</ele><time>2026-05-06T08:44:59Z</time></trkpt><trkpt lat="14.45741023027649" lon="120.93127297715755"><ele>6.666666666666667</ele><time>2026-05-06T08:45:00Z</time></trkpt><trkpt lat="14.457388550992185" lon="120.93121002327732"><ele>6.833333333333334</ele><time>2026-05-06T08:45:01Z</time></trkpt><trkpt lat="14.457367160831842" lon="120.93114829004922"><ele>7.0</ele><time>2026-05-06T08:45:02Z</time></trkpt><trkpt lat="14.457329974992254" lon="120.93104119294107"><ele>7.0</ele><time>2026-05-06T08:45:04Z</time></trkpt><trkpt lat="14.45729626234845" lon="120.93094403414878"><ele>6.999999999999999</ele><time>2026-05-06T08:45:06Z</time></trkpt><trkpt lat="14.457260485891842" lon="120.93084094982369"><ele>6.999999999999999</ele><time>2026-05-06T08:45:08Z</time></trkpt><trkpt lat="14.45722531906455" lon="120.93073988445069"><ele>7.0</ele><time>2026-05-06T08:45:10Z</time></trkpt><trkpt lat="14.457198692089422" lon="120.93066336160516"><ele>7.0</ele><time>2026-05-06T08:45:12Z</time></trkpt><trkpt lat="14.457168258421348" lon="120.9305758984737"><ele>7.199999999999999</ele><time>2026-05-06T08:45:14Z</time></trkpt><trkpt lat="14.457106290121109" lon="120.93054554320554"><ele>7.3999999999999995</ele><time>2026-05-06T08:45:15Z</time></trkpt><trkpt lat="14.457032410699478" lon="120.93045131236752"><ele>7.6000000000000005</ele><time>2026-05-06T08:45:17Z</time></trkpt><trkpt lat="14.456945445659615" lon="120.93035764097256"><ele>7.800000000000001</ele><time>2026-05-06T08:45:19Z</time></trkpt><trkpt lat="14.456874369546501" lon="120.93034871711708"><ele>8.0</ele><time>2026-05-06T08:45:20Z</time></trkpt><trkpt lat="14.456803030362817" lon="120.93032358756545"><ele>7.999999999999999</ele><time>2026-05-06T08:45:21Z</time></trkpt><trkpt lat="14.45672822458373" lon="120.93030479557228"><ele>8.0</ele><time>2026-05-06T08:45:22Z</time></trkpt><trkpt lat="14.456659282949522" lon="120.9302908832089"><ele>8.0</ele><time>2026-05-06T08:45:23Z</time></trkpt><trkpt lat="14.456560150321385" lon="120.93027126517738"><ele>8.0</ele><time>2026-05-06T08:45:25Z</time></trkpt><trkpt lat="14.456458602405277" lon="120.93025073559009"><ele>7.999999999999999</ele><time>2026-05-06T08:45:27Z</time></trkpt><trkpt lat="14.456394535572691" lon="120.93023573706003"><ele>8.0</ele><time>2026-05-06T08:45:28Z</time></trkpt><trkpt lat="14.456324456862257" lon="120.9302219308626"><ele>7.999999999999999</ele><time>2026-05-06T08:45:29Z</time></trkpt><trkpt lat="14.45624834733754" lon="120.93020737017679"><ele>8.0</ele><time>2026-05-06T08:45:30Z</time></trkpt><trkpt lat="14.456166714834186" lon="120.9301912548798"><ele>8.0</ele><time>2026-05-06T08:45:31Z</time></trkpt><trkpt lat="14.456087156728351" lon="120.93017695930455"><ele>8.0</ele><time>2026-05-06T08:45:32Z</time></trkpt><trkpt lat="14.456008295787672" lon="120.93016316105809"><ele>7.999999999999999</ele><time>2026-05-06T08:45:33Z</time></trkpt><trkpt lat="14.455931974536403" lon="120.93014625436606"><ele>8.0</ele><time>2026-05-06T08:45:34Z</time></trkpt><trkpt lat="14.455859165783195" lon="120.93013207298185"><ele>8.0</ele><time>2026-05-06T08:45:35Z</time></trkpt><trkpt lat="14.455731048820121" lon="120.93010686011935"><ele>8.0</ele><time>2026-05-06T08:45:37Z</time></trkpt><trkpt lat="14.455624176196165" lon="120.9300873585068"><ele>8.0</ele><time>2026-05-06T08:45:39Z</time></trkpt><trkpt lat="14.455515100593757" lon="120.93006658768691"><ele>8.0</ele><time>2026-05-06T08:45:41Z</time></trkpt><trkpt lat="14.455389894397653" lon="120.93004421593002"><ele>7.6000000000000005</ele><time>2026-05-06T08:45:43Z</time></trkpt><trkpt lat="14.455320455134679" lon="120.93003394902611"><ele>7.200000000000001</ele><time>2026-05-06T08:45:44Z</time></trkpt><trkpt lat="14.455251938603894" lon="120.93002178484835"><ele>6.8</ele><time>2026-05-06T08:45:45Z</time></trkpt><trkpt lat="14.455143699181216" lon="120.93000183241007"><ele>6.4</ele><time>2026-05-06T08:45:47Z</time></trkpt><trkpt lat="14.455039802026356" lon="120.92997928637799"><ele>6.0</ele><time>2026-05-06T08:45:49Z</time></trkpt><trkpt lat="14.454926017742286" lon="120.92995855560766"><ele>6.0</ele><time>2026-05-06T08:45:51Z</time></trkpt><trkpt lat="14.454806714477606" lon="120.92993830903083"><ele>6.0</ele><time>2026-05-06T08:45:53Z</time></trkpt><trkpt lat="14.45470798986558" lon="120.92991551695128"><ele>6.0</ele><time>2026-05-06T08:45:55Z</time></trkpt><trkpt lat="14.454614317816047" lon="120.92989056272417"><ele>6.0</ele><time>2026-05-06T08:45:58Z</time></trkpt><trkpt lat="14.45450451610488" lon="120.9298625042487"><ele>6.0</ele><time>2026-05-06T08:46:00Z</time></trkpt><trkpt lat="14.454433857155884" lon="120.92983748105829"><ele>5.833333333333333</ele><time>2026-05-06T08:46:01Z</time></trkpt><trkpt lat="14.454361520676011" lon="120.9298107139812"><ele>5.666666666666667</ele><time>2026-05-06T08:46:02Z</time></trkpt><trkpt lat="14.45428949611431" lon="120.92978202316831"><ele>5.5</ele><time>2026-05-06T08:46:03Z</time></trkpt><trkpt lat="14.454165656210618" lon="120.92972764415174"><ele>5.333333333333334</ele><time>2026-05-06T08:46:05Z</time></trkpt><trkpt lat="14.454101462698077" lon="120.9296901928217"><ele>5.166666666666667</ele><time>2026-05-06T08:46:06Z</time></trkpt><trkpt lat="14.454046429234436" lon="120.92965320208556"><ele>5.0</ele><time>2026-05-06T08:46:07Z</time></trkpt><trkpt lat="14.45399249711783" lon="120.92961733586579"><ele>5.0</ele><time>2026-05-06T08:46:08Z</time></trkpt><trkpt lat="14.453891039320967" lon="120.92954773666725"><ele>5.0</ele><time>2026-05-06T08:46:10Z</time></trkpt><trkpt lat="14.453825920072562" lon="120.92949195242716"><ele>5.0</ele><time>2026-05-06T08:46:11Z</time></trkpt><trkpt lat="14.453763168289415" lon="120.92943278544462"><ele>5.0</ele><time>2026-05-06T08:46:12Z</time></trkpt><trkpt lat="14.45370542601659" lon="120.92937178459373"><ele>5.0</ele><time>2026-05-06T08:46:13Z</time></trkpt><trkpt lat="14.45365508349828" lon="120.92931966708686"><ele>5.0</ele><time>2026-05-06T08:46:14Z</time></trkpt><trkpt lat="14.45360341268506" lon="120.92927172185217"><ele>5.0</ele><time>2026-05-06T08:46:15Z</time></trkpt><trkpt lat="14.453550916486499" lon="120.92922540305034"><ele>5.0</ele><time>2026-05-06T08:46:16Z</time></trkpt><trkpt lat="14.453498929492794" lon="120.92917988166138"><ele>5.0</ele><time>2026-05-06T08:46:17Z</time></trkpt><trkpt lat="14.453450567894155" lon="120.92913313615902"><ele>5.0</ele><time>2026-05-06T08:46:18Z</time></trkpt><trkpt lat="14.453372587451186" lon="120.92905885895385"><ele>5.0</ele><time>2026-05-06T08:46:20Z</time></trkpt><trkpt lat="14.453319413397761" lon="120.92901099352294"><ele>5.0</ele><time>2026-05-06T08:46:22Z</time></trkpt><trkpt lat="14.453257436893193" lon="120.92894816926024"><ele>5.0</ele><time>2026-05-06T08:46:24.001Z</time></trkpt><trkpt lat="14.453157118934906" lon="120.92885655259829"><ele>5.0</ele><time>2026-05-06T08:46:26.001Z</time></trkpt><trkpt lat="14.453119633365919" lon="120.92879634724343"><ele>5.0</ele><time>2026-05-06T08:46:27.001Z</time></trkpt><trkpt lat="14.453072908959962" lon="120.92874923892052"><ele>5.0</ele><time>2026-05-06T08:46:28.001Z</time></trkpt><trkpt lat="14.45302752001134" lon="120.92870347699038"><ele>5.0</ele><time>2026-05-06T08:46:29.001Z</time></trkpt><trkpt lat="14.452980760905529" lon="120.92865742112645"><ele>5.0</ele><time>2026-05-06T08:46:30.001Z</time></trkpt><trkpt lat="14.45293084740364" lon="120.92861385755978"><ele>5.0</ele><time>2026-05-06T08:46:31.001Z</time></trkpt><trkpt lat="14.452877758077632" lon="120.92856752283417"><ele>5.0</ele><time>2026-05-06T08:46:32.001Z</time></trkpt><trkpt lat="14.452777086934852" lon="120.92848875923093"><ele>5.0</ele><time>2026-05-06T08:46:34.001Z</time></trkpt><trkpt lat="14.45271758046552" lon="120.92845711356301"><ele>5.0</ele><time>2026-05-06T08:46:35.001Z</time></trkpt><trkpt lat="14.452628002445019" lon="120.92840610462262"><ele>5.0</ele><time>2026-05-06T08:46:36.999Z</time></trkpt><trkpt lat="14.452542238765826" lon="120.92836881469603"><ele>5.0</ele><time>2026-05-06T08:46:38.999Z</time></trkpt><trkpt lat="14.452460085770255" lon="120.92833839596874"><ele>5.0</ele><time>2026-05-06T08:46:40.999Z</time></trkpt><trkpt lat="14.45237849040601" lon="120.92830973388986"><ele>5.0</ele><time>2026-05-06T08:46:42.999Z</time></trkpt><trkpt lat="14.452290867090019" lon="120.92831124542369"><ele>5.0</ele><time>2026-05-06T08:46:44.999Z</time></trkpt><trkpt lat="14.45221033467789" lon="120.9282901644986"><ele>5.0</ele><time>2026-05-06T08:46:49.999Z</time></trkpt><trkpt lat="14.45211023601885" lon="120.92828352704538"><ele>5.0</ele><time>2026-05-06T08:46:51.999Z</time></trkpt><trkpt lat="14.45198071574966" lon="120.92827982316898"><ele>5.4</ele><time>2026-05-06T08:46:53.999Z</time></trkpt><trkpt lat="14.451912808542913" lon="120.92828016962063"><ele>5.8</ele><time>2026-05-06T08:46:55Z</time></trkpt><trkpt lat="14.451794780898238" lon="120.92828699800893"><ele>6.199999999999999</ele><time>2026-05-06T08:46:57Z</time></trkpt><trkpt lat="14.451685148699392" lon="120.92829705529468"><ele>6.6</ele><time>2026-05-06T08:46:59Z</time></trkpt><trkpt lat="14.451582309668686" lon="120.92830792492404"><ele>7.0</ele><time>2026-05-06T08:47:01Z</time></trkpt><trkpt lat="14.451448938476304" lon="120.92832438098279"><ele>7.000000000000001</ele><time>2026-05-06T08:47:03Z</time></trkpt><trkpt lat="14.451343282122671" lon="120.92832915977834"><ele>7.0</ele><time>2026-05-06T08:47:05Z</time></trkpt><trkpt lat="14.451272193650217" lon="120.92832888092343"><ele>7.0</ele><time>2026-05-06T08:47:07Z</time></trkpt><trkpt lat="14.451183222553414" lon="120.92833640345857"><ele>7.0</ele><time>2026-05-06T08:47:09Z</time></trkpt><trkpt lat="14.451105308025765" lon="120.92835283329588"><ele>7.000000000000001</ele><time>2026-05-06T08:47:12Z</time></trkpt><trkpt lat="14.451032893586756" lon="120.92836173544919"><ele>7.0</ele><time>2026-05-06T08:47:15Z</time></trkpt><trkpt lat="14.450959469728499" lon="120.9283700642811"><ele>7.166666666666667</ele><time>2026-05-06T08:47:18Z</time></trkpt><trkpt lat="14.450892934656537" lon="120.92837996348361"><ele>7.333333333333334</ele><time>2026-05-06T08:47:21Z</time></trkpt><trkpt lat="14.45080192714064" lon="120.92838808187557"><ele>7.5</ele><time>2026-05-06T08:47:24Z</time></trkpt><trkpt lat="14.450710107876931" lon="120.92838895351525"><ele>7.666666666666666</ele><time>2026-05-06T08:47:26Z</time></trkpt><trkpt lat="14.450610925499205" lon="120.92833114744892"><ele>7.833333333333333</ele><time>2026-05-06T08:47:28Z</time></trkpt><trkpt lat="14.450563590204908" lon="120.9282753268422"><ele>8.0</ele><time>2026-05-06T08:47:29Z</time></trkpt><trkpt lat="14.450507258670878" lon="120.9281750833625"><ele>7.999999999999999</ele><time>2026-05-06T08:47:31Z</time></trkpt><trkpt lat="14.450502133008507" lon="120.92810491916865"><ele>8.0</ele><time>2026-05-06T08:47:32Z</time></trkpt><trkpt lat="14.45051128932054" lon="120.92802419423182"><ele>8.0</ele><time>2026-05-06T08:47:33Z</time></trkpt><trkpt lat="14.45052883446187" lon="120.92793700865492"><ele>8.0</ele><time>2026-05-06T08:47:34Z</time></trkpt><trkpt lat="14.45055212619864" lon="120.9278395791105"><ele>7.999999999999999</ele><time>2026-05-06T08:47:35Z</time></trkpt><trkpt lat="14.45057772444019" lon="120.92773092562446"><ele>8.0</ele><time>2026-05-06T08:47:36Z</time></trkpt><trkpt lat="14.450606843166772" lon="120.92762638357122"><ele>7.666666666666666</ele><time>2026-05-06T08:47:37Z</time></trkpt><trkpt lat="14.450628078566854" lon="120.92753275606125"><ele>7.333333333333333</ele><time>2026-05-06T08:47:38Z</time></trkpt><trkpt lat="14.450645204538969" lon="120.92744379949934"><ele>7.0</ele><time>2026-05-06T08:47:39Z</time></trkpt><trkpt lat="14.450660092769642" lon="120.92737057442241"><ele>6.666666666666666</ele><time>2026-05-06T08:47:40Z</time></trkpt><trkpt lat="14.450670732644449" lon="120.927296264759"><ele>6.333333333333333</ele><time>2026-05-06T08:47:41Z</time></trkpt><trkpt lat="14.450669524981361" lon="120.92721251331827"><ele>6.0</ele><time>2026-05-06T08:47:42Z</time></trkpt><trkpt lat="14.45066342547012" lon="120.92713752998453"><ele>6.0</ele><time>2026-05-06T08:47:43Z</time></trkpt><trkpt lat="14.45065161359491" lon="120.92707333840765"><ele>6.0</ele><time>2026-05-06T08:47:44Z</time></trkpt><trkpt lat="14.450657026599488" lon="120.92697361520644"><ele>6.0</ele><time>2026-05-06T08:47:46Z</time></trkpt><trkpt lat="14.45064621162099" lon="120.9269086808098"><ele>6.0</ele><time>2026-05-06T08:47:47Z</time></trkpt><trkpt lat="14.45063488932848" lon="120.92684245267436"><ele>6.0</ele><time>2026-05-06T08:47:48Z</time></trkpt><trkpt lat="14.450614039472493" lon="120.92672435956035"><ele>6.0</ele><time>2026-05-06T08:47:50Z</time></trkpt><trkpt lat="14.450592304455231" lon="120.92660605648221"><ele>6.4</ele><time>2026-05-06T08:47:52Z</time></trkpt><trkpt lat="14.450571527699132" lon="120.9265038353587"><ele>6.8</ele><time>2026-05-06T08:47:54Z</time></trkpt><trkpt lat="14.450548104367323" lon="120.92638376696522"><ele>7.200000000000001</ele><time>2026-05-06T08:47:56Z</time></trkpt><trkpt lat="14.450535290684293" lon="120.92631981616154"><ele>7.6000000000000005</ele><time>2026-05-06T08:47:57Z</time></trkpt><trkpt lat="14.450509468962935" lon="120.92619092228473"><ele>8.0</ele><time>2026-05-06T08:47:59Z</time></trkpt><trkpt lat="14.450493964029103" lon="120.92611209271138"><ele>7.999999999999999</ele><time>2026-05-06T08:48:00Z</time></trkpt><trkpt lat="14.450478721850535" lon="120.92603307347962"><ele>8.0</ele><time>2026-05-06T08:48:01Z</time></trkpt><trkpt lat="14.450461688748891" lon="120.92594982964106"><ele>8.0</ele><time>2026-05-06T08:48:02Z</time></trkpt><trkpt lat="14.450444435153624" lon="120.92586194859821"><ele>8.0</ele><time>2026-05-06T08:48:03Z</time></trkpt><trkpt lat="14.45042637768092" lon="120.92576983627814"><ele>7.999999999999999</ele><time>2026-05-06T08:48:04Z</time></trkpt><trkpt lat="14.450392098677344" lon="120.92568008845339"><ele>8.0</ele><time>2026-05-06T08:48:05Z</time></trkpt><trkpt lat="14.450390426211808" lon="120.92558460585562"><ele>7.800000000000001</ele><time>2026-05-06T08:48:06Z</time></trkpt><trkpt lat="14.450371395418479" lon="120.92549247341165"><ele>7.6000000000000005</ele><time>2026-05-06T08:48:07Z</time></trkpt><trkpt lat="14.450351555069108" lon="120.92539717746378"><ele>7.3999999999999995</ele><time>2026-05-06T08:48:08Z</time></trkpt><trkpt lat="14.45033076353129" lon="120.92529731282774"><ele>7.199999999999999</ele><time>2026-05-06T08:48:09Z</time></trkpt><trkpt lat="14.450309161442295" lon="120.92519185848627"><ele>7.0</ele><time>2026-05-06T08:48:10Z</time></trkpt><trkpt lat="14.45028744233626" lon="120.92508349091233"><ele>6.8</ele><time>2026-05-06T08:48:11Z</time></trkpt><trkpt lat="14.45026628768077" lon="120.9249779396586"><ele>6.6</ele><time>2026-05-06T08:48:12Z</time></trkpt><trkpt lat="14.450247933963038" lon="120.92488636372028"><ele>6.3999999999999995</ele><time>2026-05-06T08:48:13Z</time></trkpt><trkpt lat="14.450228913592333" lon="120.92479146148543"><ele>6.199999999999999</ele><time>2026-05-06T08:48:14Z</time></trkpt><trkpt lat="14.450210192681906" lon="120.92469805342444"><ele>6.0</ele><time>2026-05-06T08:48:15Z</time></trkpt><trkpt lat="14.450189861877679" lon="120.92459661278247"><ele>5.999999999999999</ele><time>2026-05-06T08:48:16.001Z</time></trkpt><trkpt lat="14.450173288352667" lon="120.92451391914844"><ele>6.0</ele><time>2026-05-06T08:48:17.001Z</time></trkpt><trkpt lat="14.450157047549288" lon="120.92443288554036"><ele>6.0</ele><time>2026-05-06T08:48:18.001Z</time></trkpt><trkpt lat="14.45014317457374" lon="120.92436551598178"><ele>6.0</ele><time>2026-05-06T08:48:19.001Z</time></trkpt><trkpt lat="14.450126959575819" lon="120.92429302542756"><ele>6.0</ele><time>2026-05-06T08:48:20.001Z</time></trkpt><trkpt lat="14.45010993032476" lon="120.92421689465723"><ele>5.999999999999999</ele><time>2026-05-06T08:48:21.001Z</time></trkpt><trkpt lat="14.450094950215263" lon="120.92414992475899"><ele>6.0</ele><time>2026-05-06T08:48:22.001Z</time></trkpt><trkpt lat="14.450078989974212" lon="120.92407857309186"><ele>5.833333333333333</ele><time>2026-05-06T08:48:23.001Z</time></trkpt><trkpt lat="14.450055187652765" lon="120.92397213454912"><ele>5.666666666666667</ele><time>2026-05-06T08:48:25.001Z</time></trkpt><trkpt lat="14.450034229886905" lon="120.92387841166374"><ele>5.5</ele><time>2026-05-06T08:48:27.001Z</time></trkpt><trkpt lat="14.450019945381296" lon="120.9238145315117"><ele>5.333333333333334</ele><time>2026-05-06T08:48:29.001Z</time></trkpt><trkpt lat="14.449994370266932" lon="120.92374459532535"><ele>5.166666666666667</ele><time>2026-05-06T08:48:33.001Z</time></trkpt><trkpt lat="14.449969768641978" lon="120.92365164634232"><ele>5.0</ele><time>2026-05-06T08:48:35.001Z</time></trkpt><trkpt lat="14.449969652092095" lon="120.92358400596817"><ele>5.0</ele><time>2026-05-06T08:48:37.001Z</time></trkpt><trkpt lat="14.449953741966791" lon="120.92351024864057"><ele>5.0</ele><time>2026-05-06T08:48:40.001Z</time></trkpt><trkpt lat="14.449937975200836" lon="120.92343715588272"><ele>5.0</ele><time>2026-05-06T08:48:43Z</time></trkpt><trkpt lat="14.449921103621554" lon="120.92335894138046"><ele>5.0</ele><time>2026-05-06T08:48:46Z</time></trkpt><trkpt lat="14.449906110650247" lon="120.92328943587185"><ele>5.0</ele><time>2026-05-06T08:48:52Z</time></trkpt><trkpt lat="14.44988779977013" lon="120.92320454893577"><ele>5.0</ele><time>2026-05-06T08:48:56Z</time></trkpt><trkpt lat="14.44987318575819" lon="120.92313680017374"><ele>5.0</ele><time>2026-05-06T08:48:59Z</time></trkpt><trkpt lat="14.449699650386815" lon="120.92313179270063"><ele>5.166666666666667</ele><time>2026-05-06T08:49:04Z</time></trkpt><trkpt lat="14.449637656521322" lon="120.92317484656645"><ele>5.333333333333334</ele><time>2026-05-06T08:49:06Z</time></trkpt><trkpt lat="14.449571361315268" lon="120.92321121383313"><ele>5.5</ele><time>2026-05-06T08:49:11Z</time></trkpt><trkpt lat="14.449510434728403" lon="120.92324077065804"><ele>5.666666666666667</ele><time>2026-05-06T08:49:14Z</time></trkpt><trkpt lat="14.449429264071986" lon="120.92328659845096"><ele>5.833333333333333</ele><time>2026-05-06T08:49:16Z</time></trkpt><trkpt lat="14.44935846453207" lon="120.9233112954209"><ele>6.0</ele><time>2026-05-06T08:49:18Z</time></trkpt><trkpt lat="14.449249604704008" lon="120.92334783247631"><ele>6.166666666666667</ele><time>2026-05-06T08:49:20Z</time></trkpt><trkpt lat="14.449181636728454" lon="120.92336883319999"><ele>6.333333333333334</ele><time>2026-05-06T08:49:21Z</time></trkpt><trkpt lat="14.449119905955325" lon="120.92338679216955"><ele>6.5</ele><time>2026-05-06T08:49:22Z</time></trkpt><trkpt lat="14.449024922092574" lon="120.92337440730664"><ele>6.666666666666667</ele><time>2026-05-06T08:49:24Z</time></trkpt><trkpt lat="14.448940456193668" lon="120.92337317392953"><ele>6.833333333333334</ele><time>2026-05-06T08:49:27Z</time></trkpt><trkpt lat="14.448873147037697" lon="120.92338492883711"><ele>7.0</ele><time>2026-05-06T08:49:30Z</time></trkpt><trkpt lat="14.448793165227281" lon="120.92338715400298"><ele>7.0</ele><time>2026-05-06T08:49:32Z</time></trkpt><trkpt lat="14.448710690359064" lon="120.92339666256476"><ele>6.999999999999999</ele><time>2026-05-06T08:49:34Z</time></trkpt><trkpt lat="14.448612542949194" lon="120.92340122718402"><ele>6.999999999999999</ele><time>2026-05-06T08:49:36Z</time></trkpt><trkpt lat="14.448485960487721" lon="120.92341867887191"><ele>7.0</ele><time>2026-05-06T08:49:38Z</time></trkpt><trkpt lat="14.448415134018113" lon="120.92342168830112"><ele>7.0</ele><time>2026-05-06T08:49:39Z</time></trkpt><trkpt lat="14.448301531827994" lon="120.92342567835762"><ele>7.0</ele><time>2026-05-06T08:49:41Z</time></trkpt><trkpt lat="14.448203927078904" lon="120.9234293867637"><ele>6.999999999999999</ele><time>2026-05-06T08:49:43Z</time></trkpt><trkpt lat="14.448092328160776" lon="120.92343142264909"><ele>6.999999999999999</ele><time>2026-05-06T08:49:45Z</time></trkpt><trkpt lat="14.448000885114288" lon="120.92343532860588"><ele>7.0</ele><time>2026-05-06T08:49:47Z</time></trkpt><trkpt lat="14.447897798400009" lon="120.92342128521062"><ele>7.0</ele><time>2026-05-06T08:49:49Z</time></trkpt><trkpt lat="14.447813923853834" lon="120.92342947946977"><ele>7.3999999999999995</ele><time>2026-05-06T08:49:51Z</time></trkpt><trkpt lat="14.447720701758612" lon="120.92344043654994"><ele>7.799999999999999</ele><time>2026-05-06T08:49:53Z</time></trkpt><trkpt lat="14.447614687946443" lon="120.92344727976452"><ele>8.2</ele><time>2026-05-06T08:49:55Z</time></trkpt><trkpt lat="14.447514114865655" lon="120.9234515395574"><ele>8.6</ele><time>2026-05-06T08:49:57Z</time></trkpt><trkpt lat="14.447403011708394" lon="120.92346406507987"><ele>9.0</ele><time>2026-05-06T08:49:59Z</time></trkpt><trkpt lat="14.447333767133818" lon="120.9234672612102"><ele>9.0</ele><time>2026-05-06T08:50:00Z</time></trkpt><trkpt lat="14.447266289552246" lon="120.92346569136348"><ele>9.0</ele><time>2026-05-06T08:50:01Z</time></trkpt><trkpt lat="14.447164329991004" lon="120.92346095670597"><ele>9.0</ele><time>2026-05-06T08:50:03Z</time></trkpt><trkpt lat="14.447066866205562" lon="120.92345794267716"><ele>9.0</ele><time>2026-05-06T08:50:05Z</time></trkpt><trkpt lat="14.4469684025877" lon="120.92345006012042"><ele>9.0</ele><time>2026-05-06T08:50:07Z</time></trkpt><trkpt lat="14.446868505222243" lon="120.92343351580001"><ele>8.8</ele><time>2026-05-06T08:50:09Z</time></trkpt><trkpt lat="14.446754788853182" lon="120.9234298456988"><ele>8.600000000000001</ele><time>2026-05-06T08:50:11Z</time></trkpt><trkpt lat="14.446629895335754" lon="120.92341962727612"><ele>8.4</ele><time>2026-05-06T08:50:13.001Z</time></trkpt><trkpt lat="14.446547126044061" lon="120.92340512287535"><ele>8.200000000000001</ele><time>2026-05-06T08:50:14.001Z</time></trkpt><trkpt lat="14.446464061711893" lon="120.92338247317743"><ele>8.0</ele><time>2026-05-06T08:50:15.001Z</time></trkpt><trkpt lat="14.4463844863541" lon="120.92335954797915"><ele>8.0</ele><time>2026-05-06T08:50:16.001Z</time></trkpt><trkpt lat="14.44631122887771" lon="120.92334544643273"><ele>8.0</ele><time>2026-05-06T08:50:17.001Z</time></trkpt><trkpt lat="14.4461882988057" lon="120.9233147270732"><ele>8.0</ele><time>2026-05-06T08:50:19.001Z</time></trkpt><trkpt lat="14.446118658467556" lon="120.92330211434553"><ele>8.0</ele><time>2026-05-06T08:50:20.001Z</time></trkpt><trkpt lat="14.446055341945753" lon="120.9232938626115"><ele>8.0</ele><time>2026-05-06T08:50:21.001Z</time></trkpt><trkpt lat="14.445933562386081" lon="120.92328950603506"><ele>7.6000000000000005</ele><time>2026-05-06T08:50:23.001Z</time></trkpt><trkpt lat="14.4458025882634" lon="120.92329982036281"><ele>7.200000000000001</ele><time>2026-05-06T08:50:25.001Z</time></trkpt><trkpt lat="14.44567528860937" lon="120.92331984097957"><ele>6.8</ele><time>2026-05-06T08:50:27.001Z</time></trkpt><trkpt lat="14.445612507963403" lon="120.92333207611851"><ele>6.4</ele><time>2026-05-06T08:50:28.001Z</time></trkpt><trkpt lat="14.445509771776047" lon="120.92334419549572"><ele>6.0</ele><time>2026-05-06T08:50:30.001Z</time></trkpt><trkpt lat="14.445401357714648" lon="120.92336925301615"><ele>6.0</ele><time>2026-05-06T08:50:32.001Z</time></trkpt><trkpt lat="14.445304620426008" lon="120.92338497460575"><ele>6.0</ele><time>2026-05-06T08:50:34.001Z</time></trkpt><trkpt lat="14.445219034936242" lon="120.92340004224972"><ele>6.0</ele><time>2026-05-06T08:50:36.001Z</time></trkpt><trkpt lat="14.445111762830384" lon="120.92341781566077"><ele>6.0</ele><time>2026-05-06T08:50:38.001Z</time></trkpt><trkpt lat="14.445003025569084" lon="120.9234493171412"><ele>6.0</ele><time>2026-05-06T08:50:40.001Z</time></trkpt><trkpt lat="14.444902011501508" lon="120.92346281719463"><ele>6.0</ele><time>2026-05-06T08:50:42.001Z</time></trkpt><trkpt lat="14.444795618411728" lon="120.92348308490388"><ele>6.0</ele><time>2026-05-06T08:50:44.001Z</time></trkpt><trkpt lat="14.44466578143823" lon="120.92351015802156"><ele>6.0</ele><time>2026-05-06T08:50:46.001Z</time></trkpt><trkpt lat="14.444533312598027" lon="120.92353494787596"><ele>6.0</ele><time>2026-05-06T08:50:48Z</time></trkpt><trkpt lat="14.444462202688797" lon="120.92354967067303"><ele>6.0</ele><time>2026-05-06T08:50:49Z</time></trkpt><trkpt lat="14.4443871076713" lon="120.92356131061233"><ele>6.166666666666667</ele><time>2026-05-06T08:50:50Z</time></trkpt><trkpt lat="14.444315999372735" lon="120.92357033910568"><ele>6.333333333333334</ele><time>2026-05-06T08:50:51Z</time></trkpt><trkpt lat="14.444251710471285" lon="120.92357985109169"><ele>6.5</ele><time>2026-05-06T08:50:52Z</time></trkpt><trkpt lat="14.444142421032849" lon="120.92359701239181"><ele>6.666666666666667</ele><time>2026-05-06T08:50:54Z</time></trkpt><trkpt lat="14.444032054270508" lon="120.9236139952326"><ele>6.833333333333334</ele><time>2026-05-06T08:50:56Z</time></trkpt><trkpt lat="14.44395271859153" lon="120.92362431507561"><ele>7.0</ele><time>2026-05-06T08:50:58Z</time></trkpt><trkpt lat="14.443865417832736" lon="120.92363907736096"><ele>7.199999999999999</ele><time>2026-05-06T08:51:00Z</time></trkpt><trkpt lat="14.443768255086038" lon="120.9236741558509"><ele>7.3999999999999995</ele><time>2026-05-06T08:51:02Z</time></trkpt><trkpt lat="14.443661680380952" lon="120.92369787595379"><ele>7.6000000000000005</ele><time>2026-05-06T08:51:04Z</time></trkpt><trkpt lat="14.443577852335098" lon="120.9237323746764"><ele>7.800000000000001</ele><time>2026-05-06T08:51:07Z</time></trkpt><trkpt lat="14.443483056398195" lon="120.92378110699009"><ele>8.0</ele><time>2026-05-06T08:51:09Z</time></trkpt><trkpt lat="14.44340889357273" lon="120.9238131561508"><ele>8.0</ele><time>2026-05-06T08:51:10Z</time></trkpt><trkpt lat="14.443332295351597" lon="120.92385378630931"><ele>8.0</ele><time>2026-05-06T08:51:11Z</time></trkpt><trkpt lat="14.443248066620415" lon="120.92390096274822"><ele>8.0</ele><time>2026-05-06T08:51:12Z</time></trkpt><trkpt lat="14.443150963294825" lon="120.9239492011667"><ele>8.0</ele><time>2026-05-06T08:51:13Z</time></trkpt><trkpt lat="14.443045527638994" lon="120.92400417408457"><ele>8.0</ele><time>2026-05-06T08:51:14Z</time></trkpt><trkpt lat="14.442940637887752" lon="120.92406141715043"><ele>8.0</ele><time>2026-05-06T08:51:15Z</time></trkpt><trkpt lat="14.442832624211942" lon="120.92412098670853"><ele>8.0</ele><time>2026-05-06T08:51:16Z</time></trkpt><trkpt lat="14.442725118121375" lon="120.92418127294005"><ele>8.0</ele><time>2026-05-06T08:51:17Z</time></trkpt><trkpt lat="14.442612610679777" lon="120.92424368380881"><ele>8.0</ele><time>2026-05-06T08:51:18Z</time></trkpt><trkpt lat="14.4424963675843" lon="120.92430544746965"><ele>8.0</ele><time>2026-05-06T08:51:19Z</time></trkpt><trkpt lat="14.442379885425407" lon="120.92436463838823"><ele>8.0</ele><time>2026-05-06T08:51:20Z</time></trkpt><trkpt lat="14.442279209721484" lon="120.92442071321601"><ele>8.0</ele><time>2026-05-06T08:51:21Z</time></trkpt><trkpt lat="14.442184828275602" lon="120.92446900358682"><ele>8.0</ele><time>2026-05-06T08:51:22Z</time></trkpt><trkpt lat="14.44209545232456" lon="120.92451632653511"><ele>8.0</ele><time>2026-05-06T08:51:23Z</time></trkpt><trkpt lat="14.44201863885902" lon="120.92456369553831"><ele>8.0</ele><time>2026-05-06T08:51:24Z</time></trkpt><trkpt lat="14.441945815287738" lon="120.92460666498523"><ele>8.0</ele><time>2026-05-06T08:51:25Z</time></trkpt><trkpt lat="14.441880165029417" lon="120.92464403729234"><ele>8.0</ele><time>2026-05-06T08:51:26Z</time></trkpt><trkpt lat="14.441769059942205" lon="120.92469890511227"><ele>8.0</ele><time>2026-05-06T08:51:28Z</time></trkpt><trkpt lat="14.441667329268537" lon="120.92475587515227"><ele>7.999999999999999</ele><time>2026-05-06T08:51:30Z</time></trkpt><trkpt lat="14.441593746061118" lon="120.92480196618291"><ele>8.0</ele><time>2026-05-06T08:51:32Z</time></trkpt><trkpt lat="14.441520204813527" lon="120.92484396831117"><ele>8.0</ele><time>2026-05-06T08:51:34Z</time></trkpt><trkpt lat="14.441450080680339" lon="120.92488079382304"><ele>8.0</ele><time>2026-05-06T08:51:37Z</time></trkpt><trkpt lat="14.441381733176838" lon="120.92491884600021"><ele>7.999999999999999</ele><time>2026-05-06T08:51:41Z</time></trkpt><trkpt lat="14.441311117368516" lon="120.92495839359786"><ele>8.0</ele><time>2026-05-06T08:51:45Z</time></trkpt><trkpt lat="14.44123438781238" lon="120.92499296044274"><ele>7.999999999999999</ele><time>2026-05-06T08:51:48Z</time></trkpt><trkpt lat="14.441166674475518" lon="120.92502792966856"><ele>8.0</ele><time>2026-05-06T08:51:50Z</time></trkpt><trkpt lat="14.441089049420643" lon="120.92506830451666"><ele>8.0</ele><time>2026-05-06T08:51:52Z</time></trkpt><trkpt lat="14.441001018292976" lon="120.92511179339655"><ele>8.0</ele><time>2026-05-06T08:51:54Z</time></trkpt><trkpt lat="14.440921775139936" lon="120.92515310580049"><ele>7.999999999999999</ele><time>2026-05-06T08:51:56Z</time></trkpt><trkpt lat="14.440847910819043" lon="120.92519314546105"><ele>8.0</ele><time>2026-05-06T08:51:58Z</time></trkpt><trkpt lat="14.440782174826309" lon="120.92523004102515"><ele>7.999999999999999</ele><time>2026-05-06T08:52:00Z</time></trkpt><trkpt lat="14.440708316627529" lon="120.9252662597516"><ele>8.0</ele><time>2026-05-06T08:52:02Z</time></trkpt><trkpt lat="14.440629865166716" lon="120.92531004777238"><ele>8.0</ele><time>2026-05-06T08:52:04Z</time></trkpt><trkpt lat="14.440549487657822" lon="120.92535316084867"><ele>8.0</ele><time>2026-05-06T08:52:07Z</time></trkpt><trkpt lat="14.440487964466914" lon="120.92538542846654"><ele>7.999999999999999</ele><time>2026-05-06T08:52:12.001Z</time></trkpt><trkpt lat="14.440422105495921" lon="120.92542092357999"><ele>8.0</ele><time>2026-05-06T08:52:15.001Z</time></trkpt><trkpt lat="14.440342207807582" lon="120.92546511886653"><ele>8.166666666666666</ele><time>2026-05-06T08:52:17.001Z</time></trkpt><trkpt lat="14.440268894424268" lon="120.92548520314082"><ele>8.333333333333332</ele><time>2026-05-06T08:52:21.001Z</time></trkpt><trkpt lat="14.440222529819291" lon="120.925424487429"><ele>8.5</ele><time>2026-05-06T08:52:23.001Z</time></trkpt><trkpt lat="14.440170073616027" lon="120.92531037103635"><ele>8.666666666666666</ele><time>2026-05-06T08:52:25.001Z</time></trkpt><trkpt lat="14.44012876341089" lon="120.92525712305552"><ele>8.833333333333334</ele><time>2026-05-06T08:52:26.001Z</time></trkpt><trkpt lat="14.440086942719288" lon="120.92519908495107"><ele>9.0</ele><time>2026-05-06T08:52:27.001Z</time></trkpt><trkpt lat="14.440047877926894" lon="120.9251397117316"><ele>9.0</ele><time>2026-05-06T08:52:28.001Z</time></trkpt><trkpt lat="14.440004326714243" lon="120.92507994720485"><ele>9.0</ele><time>2026-05-06T08:52:29.001Z</time></trkpt><trkpt lat="14.43995853758018" lon="120.92500603865591"><ele>9.0</ele><time>2026-05-06T08:52:30.001Z</time></trkpt><trkpt lat="14.43990565252247" lon="120.92493455067256"><ele>9.0</ele><time>2026-05-06T08:52:31.001Z</time></trkpt><trkpt lat="14.439851389144597" lon="120.9248617226578"><ele>9.0</ele><time>2026-05-06T08:52:32.001Z</time></trkpt><trkpt lat="14.439805457431968" lon="120.92479964278374"><ele>9.0</ele><time>2026-05-06T08:52:33.001Z</time></trkpt><trkpt lat="14.439754636888292" lon="120.92473635988857"><ele>8.666666666666666</ele><time>2026-05-06T08:52:34.001Z</time></trkpt><trkpt lat="14.439699358026992" lon="120.9246637870579"><ele>8.333333333333334</ele><time>2026-05-06T08:52:35.001Z</time></trkpt><trkpt lat="14.439640798124858" lon="120.92459190246063"><ele>8.0</ele><time>2026-05-06T08:52:36.001Z</time></trkpt><trkpt lat="14.439581757824428" lon="120.9245170892565"><ele>7.666666666666667</ele><time>2026-05-06T08:52:37.001Z</time></trkpt><trkpt lat="14.4395355431212" lon="120.92444287065773"><ele>7.333333333333334</ele><time>2026-05-06T08:52:38.001Z</time></trkpt><trkpt lat="14.439495528569301" lon="120.9243864112274"><ele>7.0</ele><time>2026-05-06T08:52:39.001Z</time></trkpt><trkpt lat="14.439430870281157" lon="120.9243088158496"><ele>6.8</ele><time>2026-05-06T08:52:41.001Z</time></trkpt><trkpt lat="14.439362416346329" lon="120.92422887442915"><ele>6.6</ele><time>2026-05-06T08:52:43.001Z</time></trkpt><trkpt lat="14.439297969011509" lon="120.9241423012814"><ele>6.3999999999999995</ele><time>2026-05-06T08:52:45.001Z</time></trkpt><trkpt lat="14.439216391574037" lon="120.92404162508534"><ele>6.199999999999999</ele><time>2026-05-06T08:52:47.001Z</time></trkpt><trkpt lat="14.439167851233663" lon="120.92396769071694"><ele>6.0</ele><time>2026-05-06T08:52:49.001Z</time></trkpt><trkpt lat="14.439125644029422" lon="120.92390805431094"><ele>6.0</ele><time>2026-05-06T08:52:51.001Z</time></trkpt><trkpt lat="14.439071593202488" lon="120.92383999719033"><ele>6.0</ele><time>2026-05-06T08:52:53.001Z</time></trkpt><trkpt lat="14.439013394001869" lon="120.92377541374648"><ele>6.0</ele><time>2026-05-06T08:52:55Z</time></trkpt><trkpt lat="14.438962059134807" lon="120.92371611766968"><ele>6.0</ele><time>2026-05-06T08:52:57Z</time></trkpt><trkpt lat="14.43890237322531" lon="120.92365921906124"><ele>6.0</ele><time>2026-05-06T08:53:00Z</time></trkpt><trkpt lat="14.43884825868507" lon="120.92358672262179"><ele>6.0</ele><time>2026-05-06T08:53:04Z</time></trkpt><trkpt lat="14.438793548361236" lon="120.92353614285985"><ele>6.0</ele><time>2026-05-06T08:53:07Z</time></trkpt><trkpt lat="14.438736910408476" lon="120.92350234563553"><ele>6.0</ele><time>2026-05-06T08:53:09Z</time></trkpt><trkpt lat="14.43862560912543" lon="120.92348266011928"><ele>6.0</ele><time>2026-05-06T08:53:11Z</time></trkpt><trkpt lat="14.438556689763876" lon="120.9234780755917"><ele>6.0</ele><time>2026-05-06T08:53:12Z</time></trkpt><trkpt lat="14.438485803367081" lon="120.92347085494116"><ele>6.0</ele><time>2026-05-06T08:53:13Z</time></trkpt><trkpt lat="14.438418294374342" lon="120.92345825894104"><ele>6.0</ele><time>2026-05-06T08:53:14Z</time></trkpt><trkpt lat="14.43834042147703" lon="120.92345129020448"><ele>6.0</ele><time>2026-05-06T08:53:15Z</time></trkpt><trkpt lat="14.43826915694092" lon="120.92344551958162"><ele>6.0</ele><time>2026-05-06T08:53:16Z</time></trkpt><trkpt lat="14.438165666513354" lon="120.9234284820439"><ele>6.0</ele><time>2026-05-06T08:53:18Z</time></trkpt><trkpt lat="14.438090529550294" lon="120.92341483432322"><ele>6.0</ele><time>2026-05-06T08:53:21Z</time></trkpt><trkpt lat="14.438002335439847" lon="120.92341219111599"><ele>6.0</ele><time>2026-05-06T08:53:23Z</time></trkpt><trkpt lat="14.437934392240196" lon="120.92341281395271"><ele>6.0</ele><time>2026-05-06T08:53:24Z</time></trkpt><trkpt lat="14.437858057043016" lon="120.92340814354446"><ele>5.833333333333333</ele><time>2026-05-06T08:53:25Z</time></trkpt><trkpt lat="14.437779544549075" lon="120.92339789903669"><ele>5.666666666666667</ele><time>2026-05-06T08:53:26Z</time></trkpt><trkpt lat="14.437700210615597" lon="120.92338599546576"><ele>5.5</ele><time>2026-05-06T08:53:27Z</time></trkpt><trkpt lat="14.437628661786965" lon="120.92338178808932"><ele>5.333333333333334</ele><time>2026-05-06T08:53:28Z</time></trkpt><trkpt lat="14.437533072097134" lon="120.92336856341463"><ele>5.166666666666667</ele><time>2026-05-06T08:53:30Z</time></trkpt><trkpt lat="14.437441763102662" lon="120.92336355605633"><ele>5.0</ele><time>2026-05-06T08:53:34Z</time></trkpt><trkpt lat="14.437367102340493" lon="120.92336297888642"><ele>5.0</ele><time>2026-05-06T08:53:35Z</time></trkpt><trkpt lat="14.437288187502423" lon="120.92334826813166"><ele>5.0</ele><time>2026-05-06T08:53:36Z</time></trkpt><trkpt lat="14.437200114131414" lon="120.92332516981236"><ele>5.0</ele><time>2026-05-06T08:53:37Z</time></trkpt><trkpt lat="14.437103266468878" lon="120.92331017911528"><ele>5.0</ele><time>2026-05-06T08:53:38Z</time></trkpt><trkpt lat="14.43700606594199" lon="120.92329934788418"><ele>5.0</ele><time>2026-05-06T08:53:39Z</time></trkpt><trkpt lat="14.43690646012917" lon="120.9232883399333"><ele>5.2</ele><time>2026-05-06T08:53:40Z</time></trkpt><trkpt lat="14.436808816748632" lon="120.92327860113772"><ele>5.4</ele><time>2026-05-06T08:53:41Z</time></trkpt><trkpt lat="14.436705571263216" lon="120.9232660853335"><ele>5.6</ele><time>2026-05-06T08:53:42Z</time></trkpt><trkpt lat="14.436609956317172" lon="120.92325257887998"><ele>5.8</ele><time>2026-05-06T08:53:43Z</time></trkpt><trkpt lat="14.436508087571925" lon="120.92323653132472"><ele>6.0</ele><time>2026-05-06T08:53:44Z</time></trkpt><trkpt lat="14.436405720305398" lon="120.92322057804971"><ele>6.4</ele><time>2026-05-06T08:53:45Z</time></trkpt><trkpt lat="14.436301377903753" lon="120.92320081410456"><ele>6.8</ele><time>2026-05-06T08:53:46Z</time></trkpt><trkpt lat="14.436196183196564" lon="120.923181977911"><ele>7.200000000000001</ele><time>2026-05-06T08:53:47Z</time></trkpt><trkpt lat="14.436090637438985" lon="120.92316286579396"><ele>7.6000000000000005</ele><time>2026-05-06T08:53:48Z</time></trkpt><trkpt lat="14.435985493786779" lon="120.92313853494238"><ele>8.0</ele><time>2026-05-06T08:53:49Z</time></trkpt><trkpt lat="14.435874223972572" lon="120.9231017072828"><ele>8.0</ele><time>2026-05-06T08:53:50Z</time></trkpt><trkpt lat="14.435763143788762" lon="120.92306869387694"><ele>8.0</ele><time>2026-05-06T08:53:51Z</time></trkpt><trkpt lat="14.435654533084112" lon="120.92304602851071"><ele>8.0</ele><time>2026-05-06T08:53:52Z</time></trkpt><trkpt lat="14.43554364505499" lon="120.9230187656555"><ele>8.0</ele><time>2026-05-06T08:53:53Z</time></trkpt><trkpt lat="14.435437949238278" lon="120.92299677782269"><ele>8.0</ele><time>2026-05-06T08:53:54Z</time></trkpt><trkpt lat="14.435331775265801" lon="120.92297355246409"><ele>8.0</ele><time>2026-05-06T08:53:55Z</time></trkpt><trkpt lat="14.43522704452308" lon="120.92294502095945"><ele>8.0</ele><time>2026-05-06T08:53:56Z</time></trkpt><trkpt lat="14.43512284442386" lon="120.92291532536495"><ele>8.0</ele><time>2026-05-06T08:53:57Z</time></trkpt><trkpt lat="14.435018153303254" lon="120.92288890158474"><ele>8.0</ele><time>2026-05-06T08:53:58Z</time></trkpt><trkpt lat="14.434911360398152" lon="120.92286624052171"><ele>8.0</ele><time>2026-05-06T08:53:59Z</time></trkpt><trkpt lat="14.434808750312735" lon="120.9228449184152"><ele>8.0</ele><time>2026-05-06T08:54:00Z</time></trkpt><trkpt lat="14.434702297306433" lon="120.92282696328344"><ele>8.0</ele><time>2026-05-06T08:54:01Z</time></trkpt><trkpt lat="14.434589729473698" lon="120.92281197254323"><ele>8.0</ele><time>2026-05-06T08:54:02Z</time></trkpt><trkpt lat="14.434473578668221" lon="120.92279744008582"><ele>8.0</ele><time>2026-05-06T08:54:03Z</time></trkpt><trkpt lat="14.434353831153981" lon="120.92278867726051"><ele>7.5</ele><time>2026-05-06T08:54:04Z</time></trkpt><trkpt lat="14.434221742641418" lon="120.92278273853009"><ele>7.0</ele><time>2026-05-06T08:54:05Z</time></trkpt><trkpt lat="14.434101277171928" lon="120.92278088367881"><ele>6.5</ele><time>2026-05-06T08:54:06Z</time></trkpt><trkpt lat="14.433980692110191" lon="120.92278507787375"><ele>6.0</ele><time>2026-05-06T08:54:07Z</time></trkpt><trkpt lat="14.433861576244077" lon="120.92278437804292"><ele>6.5</ele><time>2026-05-06T08:54:08Z</time></trkpt><trkpt lat="14.433747718437031" lon="120.92277750292217"><ele>7.0</ele><time>2026-05-06T08:54:09Z</time></trkpt><trkpt lat="14.433630259906444" lon="120.92277148074363"><ele>7.5</ele><time>2026-05-06T08:54:10Z</time></trkpt><trkpt lat="14.433519152319526" lon="120.92276307695629"><ele>8.0</ele><time>2026-05-06T08:54:11Z</time></trkpt><trkpt lat="14.433396996888199" lon="120.92275474333917"><ele>8.0</ele><time>2026-05-06T08:54:12Z</time></trkpt><trkpt lat="14.433272249366945" lon="120.92273922972765"><ele>8.0</ele><time>2026-05-06T08:54:13Z</time></trkpt><trkpt lat="14.433148207895126" lon="120.92271994024611"><ele>8.0</ele><time>2026-05-06T08:54:14.001Z</time></trkpt><trkpt lat="14.433023424071612" lon="120.9227031596201"><ele>8.0</ele><time>2026-05-06T08:54:15.001Z</time></trkpt><trkpt lat="14.432891172057687" lon="120.92269030960686"><ele>7.75</ele><time>2026-05-06T08:54:16.001Z</time></trkpt><trkpt lat="14.432764409409335" lon="120.92267293478562"><ele>7.5</ele><time>2026-05-06T08:54:17.001Z</time></trkpt><trkpt lat="14.432636619408173" lon="120.92265495991008"><ele>7.25</ele><time>2026-05-06T08:54:18.001Z</time></trkpt><trkpt lat="14.432506003199508" lon="120.92264067864161"><ele>7.0</ele><time>2026-05-06T08:54:19.001Z</time></trkpt><trkpt lat="14.432397158653687" lon="120.92262847553829"><ele>7.0</ele><time>2026-05-06T08:54:20.001Z</time></trkpt><trkpt lat="14.432288731890985" lon="120.92261579045976"><ele>6.999999999999999</ele><time>2026-05-06T08:54:21.001Z</time></trkpt><trkpt lat="14.432185199217479" lon="120.92260458499709"><ele>6.999999999999999</ele><time>2026-05-06T08:54:22.001Z</time></trkpt><trkpt lat="14.432082966503453" lon="120.92259164739674"><ele>7.0</ele><time>2026-05-06T08:54:23.001Z</time></trkpt><trkpt lat="14.431996309185315" lon="120.92257763348944"><ele>7.0</ele><time>2026-05-06T08:54:24.001Z</time></trkpt><trkpt lat="14.43191900627937" lon="120.92256217561035"><ele>7.333333333333334</ele><time>2026-05-06T08:54:25.001Z</time></trkpt><trkpt lat="14.431842960459583" lon="120.92253635826029"><ele>7.666666666666667</ele><time>2026-05-06T08:54:26.001Z</time></trkpt><trkpt lat="14.43175855759555" lon="120.92251937232446"><ele>8.0</ele><time>2026-05-06T08:54:27.001Z</time></trkpt><trkpt lat="14.431665042606843" lon="120.92251337198233"><ele>8.333333333333334</ele><time>2026-05-06T08:54:28.001Z</time></trkpt><trkpt lat="14.431572993857056" lon="120.92251515028592"><ele>8.666666666666666</ele><time>2026-05-06T08:54:29.001Z</time></trkpt><trkpt lat="14.431480820422612" lon="120.92251837327755"><ele>9.0</ele><time>2026-05-06T08:54:30.001Z</time></trkpt><trkpt lat="14.431402081504242" lon="120.92252133956009"><ele>9.0</ele><time>2026-05-06T08:54:31.001Z</time></trkpt><trkpt lat="14.431337071236314" lon="120.92252179801584"><ele>9.0</ele><time>2026-05-06T08:54:32.001Z</time></trkpt><trkpt lat="14.431259158592987" lon="120.92252265434676"><ele>9.0</ele><time>2026-05-06T08:54:34.001Z</time></trkpt><trkpt lat="14.431182942567174" lon="120.92250335625083"><ele>9.0</ele><time>2026-05-06T08:54:39.001Z</time></trkpt><trkpt lat="14.431086506958444" lon="120.92248447050518"><ele>9.0</ele><time>2026-05-06T08:54:42.001Z</time></trkpt><trkpt lat="14.431018323815769" lon="120.92247998360281"><ele>9.0</ele><time>2026-05-06T08:54:43.001Z</time></trkpt><trkpt lat="14.430937092262544" lon="120.92248558482449"><ele>9.0</ele><time>2026-05-06T08:54:44.001Z</time></trkpt><trkpt lat="14.430838521834353" lon="120.92248778076979"><ele>9.0</ele><time>2026-05-06T08:54:45.001Z</time></trkpt><trkpt lat="14.430732848887697" lon="120.92248048272782"><ele>9.0</ele><time>2026-05-06T08:54:46.001Z</time></trkpt><trkpt lat="14.430618913902373" lon="120.92247132060415"><ele>9.0</ele><time>2026-05-06T08:54:47.001Z</time></trkpt><trkpt lat="14.430516773818832" lon="120.92246482335229"><ele>9.0</ele><time>2026-05-06T08:54:48.001Z</time></trkpt><trkpt lat="14.43039374403303" lon="120.92245734837293"><ele>9.0</ele><time>2026-05-06T08:54:49.001Z</time></trkpt><trkpt lat="14.430267879334231" lon="120.9224472451958"><ele>9.0</ele><time>2026-05-06T08:54:50.001Z</time></trkpt><trkpt lat="14.430140836021428" lon="120.92243726188065"><ele>9.0</ele><time>2026-05-06T08:54:51.001Z</time></trkpt><trkpt lat="14.430019350056325" lon="120.9224208001986"><ele>9.0</ele><time>2026-05-06T08:54:52.001Z</time></trkpt><trkpt lat="14.429895277056662" lon="120.92240533836403"><ele>9.0</ele><time>2026-05-06T08:54:53.001Z</time></trkpt><trkpt lat="14.429772012934933" lon="120.92239405787794"><ele>9.0</ele><time>2026-05-06T08:54:54.001Z</time></trkpt><trkpt lat="14.42964903353486" lon="120.92237983432102"><ele>9.0</ele><time>2026-05-06T08:54:55.001Z</time></trkpt><trkpt lat="14.429519400774879" lon="120.92236427056014"><ele>9.0</ele><time>2026-05-06T08:54:56.001Z</time></trkpt><trkpt lat="14.42939929893533" lon="120.92235181089939"><ele>9.0</ele><time>2026-05-06T08:54:57.001Z</time></trkpt><trkpt lat="14.429291898840905" lon="120.92233558240962"><ele>9.0</ele><time>2026-05-06T08:54:58.001Z</time></trkpt><trkpt lat="14.429196090589771" lon="120.92232139789147"><ele>9.0</ele><time>2026-05-06T08:54:59.001Z</time></trkpt><trkpt lat="14.429104976538406" lon="120.92230806345398"><ele>9.0</ele><time>2026-05-06T08:55:00Z</time></trkpt><trkpt lat="14.42902425403596" lon="120.92229658211716"><ele>9.0</ele><time>2026-05-06T08:55:01Z</time></trkpt><trkpt lat="14.428906380565742" lon="120.92228269921314"><ele>9.2</ele><time>2026-05-06T08:55:03Z</time></trkpt><trkpt lat="14.42879207569133" lon="120.92227581503181"><ele>9.4</ele><time>2026-05-06T08:55:05Z</time></trkpt><trkpt lat="14.428697990418913" lon="120.92226433558443"><ele>9.6</ele><time>2026-05-06T08:55:07Z</time></trkpt><trkpt lat="14.428634028674198" lon="120.9222674844493"><ele>9.8</ele><time>2026-05-06T08:55:09Z</time></trkpt><trkpt lat="14.428549212088225" lon="120.92225229909059"><ele>10.0</ele><time>2026-05-06T08:55:12Z</time></trkpt><trkpt lat="14.42841749158427" lon="120.92224189932384"><ele>10.0</ele><time>2026-05-06T08:55:14Z</time></trkpt><trkpt lat="14.42834407648359" lon="120.92224257542449"><ele>10.0</ele><time>2026-05-06T08:55:15Z</time></trkpt><trkpt lat="14.42827518789682" lon="120.92224251640104"><ele>10.0</ele><time>2026-05-06T08:55:16Z</time></trkpt><trkpt lat="14.42821025859048" lon="120.92225611826701"><ele>10.0</ele><time>2026-05-06T08:55:17Z</time></trkpt><trkpt lat="14.428141914186284" lon="120.92227923244118"><ele>10.0</ele><time>2026-05-06T08:55:18Z</time></trkpt><trkpt lat="14.428060712104068" lon="120.92232437195791"><ele>10.0</ele><time>2026-05-06T08:55:19Z</time></trkpt><trkpt lat="14.427986330203865" lon="120.92237358186065"><ele>10.0</ele><time>2026-05-06T08:55:20Z</time></trkpt><trkpt lat="14.427924456376799" lon="120.92242180376842"><ele>10.0</ele><time>2026-05-06T08:55:21Z</time></trkpt><trkpt lat="14.427793416261576" lon="120.92250266607462"><ele>10.0</ele><time>2026-05-06T08:55:22Z</time></trkpt><trkpt lat="14.427685119616362" lon="120.92256248545405"><ele>10.0</ele><time>2026-05-06T08:55:23Z</time></trkpt><trkpt lat="14.427583649918589" lon="120.92262556434613"><ele>10.25</ele><time>2026-05-06T08:55:24Z</time></trkpt><trkpt lat="14.42748460961841" lon="120.92268574486684"><ele>10.5</ele><time>2026-05-06T08:55:25Z</time></trkpt><trkpt lat="14.427386708586448" lon="120.92274996863804"><ele>10.75</ele><time>2026-05-06T08:55:26Z</time></trkpt><trkpt lat="14.427286942153131" lon="120.92281769416576"><ele>11.0</ele><time>2026-05-06T08:55:27Z</time></trkpt><trkpt lat="14.427191797012213" lon="120.9228884214033"><ele>10.8</ele><time>2026-05-06T08:55:28Z</time></trkpt><trkpt lat="14.427094202703293" lon="120.92295190550718"><ele>10.600000000000001</ele><time>2026-05-06T08:55:29Z</time></trkpt><trkpt lat="14.427013515831554" lon="120.92300883324245"><ele>10.4</ele><time>2026-05-06T08:55:30Z</time></trkpt><trkpt lat="14.426927619554242" lon="120.92305417485873"><ele>10.2</ele><time>2026-05-06T08:55:31Z</time></trkpt><trkpt lat="14.42685808400211" lon="120.92310027309681"><ele>10.0</ele><time>2026-05-06T08:55:32Z</time></trkpt><trkpt lat="14.426801588084706" lon="120.92313027590846"><ele>10.0</ele><time>2026-05-06T08:55:33Z</time></trkpt><trkpt lat="14.426736656177171" lon="120.92315718162907"><ele>10.0</ele><time>2026-05-06T08:55:35Z</time></trkpt><trkpt lat="14.426661609839165" lon="120.92317750883687"><ele>10.0</ele><time>2026-05-06T08:55:37Z</time></trkpt><trkpt lat="14.426597386250721" lon="120.92318213071212"><ele>10.0</ele><time>2026-05-06T08:55:38Z</time></trkpt><trkpt lat="14.426514138581659" lon="120.92318536265813"><ele>10.0</ele><time>2026-05-06T08:55:39Z</time></trkpt><trkpt lat="14.426420250478392" lon="120.92318719757948"><ele>10.0</ele><time>2026-05-06T08:55:40Z</time></trkpt><trkpt lat="14.42632324530476" lon="120.92319088222148"><ele>10.0</ele><time>2026-05-06T08:55:41Z</time></trkpt><trkpt lat="14.426211538786626" lon="120.92318962669064"><ele>10.0</ele><time>2026-05-06T08:55:42Z</time></trkpt><trkpt lat="14.426093316093258" lon="120.92318930922266"><ele>10.0</ele><time>2026-05-06T08:55:43Z</time></trkpt><trkpt lat="14.425976287327812" lon="120.92319557712982"><ele>10.0</ele><time>2026-05-06T08:55:44Z</time></trkpt><trkpt lat="14.425848541495256" lon="120.92319524098714"><ele>10.0</ele><time>2026-05-06T08:55:45Z</time></trkpt><trkpt lat="14.42572023799118" lon="120.92318098006118"><ele>10.0</ele><time>2026-05-06T08:55:46Z</time></trkpt><trkpt lat="14.425595716752287" lon="120.92318994874789"><ele>10.0</ele><time>2026-05-06T08:55:47Z</time></trkpt><trkpt lat="14.425470376058472" lon="120.92319739988253"><ele>10.0</ele><time>2026-05-06T08:55:48Z</time></trkpt><trkpt lat="14.425349505362263" lon="120.92318875795945"><ele>10.5</ele><time>2026-05-06T08:55:49Z</time></trkpt><trkpt lat="14.425226974098164" lon="120.92318393082228"><ele>11.0</ele><time>2026-05-06T08:55:50Z</time></trkpt><trkpt lat="14.425109870701444" lon="120.92317809343353"><ele>11.5</ele><time>2026-05-06T08:55:51Z</time></trkpt><trkpt lat="14.424985113795639" lon="120.92317999193163"><ele>12.0</ele><time>2026-05-06T08:55:52Z</time></trkpt><trkpt lat="14.424866894809341" lon="120.92317367129851"><ele>12.0</ele><time>2026-05-06T08:55:53Z</time></trkpt><trkpt lat="14.424741747265324" lon="120.92316527126427"><ele>12.0</ele><time>2026-05-06T08:55:54Z</time></trkpt><trkpt lat="14.424621529632825" lon="120.92315949471981"><ele>12.0</ele><time>2026-05-06T08:55:55Z</time></trkpt><trkpt lat="14.424505316771524" lon="120.92317556742003"><ele>12.0</ele><time>2026-05-06T08:55:56Z</time></trkpt><trkpt lat="14.42438579297854" lon="120.92319383849839"><ele>12.0</ele><time>2026-05-06T08:55:57Z</time></trkpt><trkpt lat="14.424262730798048" lon="120.92318662917874"><ele>12.0</ele><time>2026-05-06T08:55:58Z</time></trkpt><trkpt lat="14.424145117547537" lon="120.92319266337421"><ele>12.0</ele><time>2026-05-06T08:55:59Z</time></trkpt><trkpt lat="14.424026200496973" lon="120.92319642670955"><ele>12.0</ele><time>2026-05-06T08:56:00Z</time></trkpt><trkpt lat="14.423915983044695" lon="120.92321003233444"><ele>11.8</ele><time>2026-05-06T08:56:01Z</time></trkpt><trkpt lat="14.423808346969487" lon="120.9232136897861"><ele>11.6</ele><time>2026-05-06T08:56:02Z</time></trkpt><trkpt lat="14.423703490535585" lon="120.92321908121986"><ele>11.4</ele><time>2026-05-06T08:56:03Z</time></trkpt><trkpt lat="14.423601549713746" lon="120.9232272047024"><ele>11.200000000000001</ele><time>2026-05-06T08:56:04Z</time></trkpt><trkpt lat="14.423507056794815" lon="120.92324462336217"><ele>11.0</ele><time>2026-05-06T08:56:05Z</time></trkpt><trkpt lat="14.423419319515741" lon="120.92325406754618"><ele>11.0</ele><time>2026-05-06T08:56:06Z</time></trkpt><trkpt lat="14.423340460279414" lon="120.92326035701947"><ele>11.0</ele><time>2026-05-06T08:56:07Z</time></trkpt><trkpt lat="14.423232975138305" lon="120.9232690829016"><ele>11.0</ele><time>2026-05-06T08:56:09Z</time></trkpt><trkpt lat="14.42315272831412" lon="120.92328935554167"><ele>11.0</ele><time>2026-05-06T08:56:12Z</time></trkpt><trkpt lat="14.42313787299675" lon="120.92335478344648"><ele>11.0</ele><time>2026-05-06T08:56:18.001Z</time></trkpt><trkpt lat="14.423071461903309" lon="120.92338152208873"><ele>11.0</ele><time>2026-05-06T09:20:27.999Z</time></trkpt><trkpt lat="14.423391642296385" lon="120.92323866301943"><ele>11.0</ele><time>2026-05-06T09:31:32.014Z</time></trkpt><trkpt lat="14.42314782375325" lon="120.92338567569473"><ele>11.0</ele><time>2026-05-06T09:31:34.014Z</time></trkpt><trkpt lat="14.423254882122771" lon="120.9233375887478"><ele>11.0</ele><time>2026-05-06T10:08:07.001Z</time></trkpt><trkpt lat="14.423370565153723" lon="120.92332560318785"><ele>11.0</ele><time>2026-05-06T10:08:09.001Z</time></trkpt><trkpt lat="14.423437423983573" lon="120.92331705691936"><ele>11.0</ele><time>2026-05-06T10:08:10.001Z</time></trkpt><trkpt lat="14.42351177586283" lon="120.92330451746751"><ele>11.0</ele><time>2026-05-06T10:08:11.001Z</time></trkpt><trkpt lat="14.423576285754478" lon="120.9232948998113"><ele>11.0</ele><time>2026-05-06T10:08:12.001Z</time></trkpt><trkpt lat="14.423664026618969" lon="120.9232792158187"><ele>11.0</ele><time>2026-05-06T10:08:13.001Z</time></trkpt><trkpt lat="14.42374558991358" lon="120.9232681790833"><ele>11.0</ele><time>2026-05-06T10:08:14.001Z</time></trkpt><trkpt lat="14.423831250589876" lon="120.92325748367104"><ele>11.166666666666666</ele><time>2026-05-06T10:08:15.001Z</time></trkpt><trkpt lat="14.423919234344156" lon="120.92324584840927"><ele>11.333333333333332</ele><time>2026-05-06T10:08:16.001Z</time></trkpt><trkpt lat="14.424003681941928" lon="120.92325644571056"><ele>11.5</ele><time>2026-05-06T10:08:17.001Z</time></trkpt><trkpt lat="14.424094146816197" lon="120.92325433297178"><ele>11.666666666666666</ele><time>2026-05-06T10:08:18.001Z</time></trkpt><trkpt lat="14.424186246580186" lon="120.92325240221868"><ele>11.833333333333334</ele><time>2026-05-06T10:08:19.001Z</time></trkpt><trkpt lat="14.424277854486018" lon="120.92325048177766"><ele>12.0</ele><time>2026-05-06T10:08:20.001Z</time></trkpt><trkpt lat="14.42435469862327" lon="120.92324872002895"><ele>12.0</ele><time>2026-05-06T10:08:21.001Z</time></trkpt><trkpt lat="14.424427102311574" lon="120.92324921824786"><ele>12.0</ele><time>2026-05-06T10:08:22.001Z</time></trkpt><trkpt lat="14.424502219879924" lon="120.92324973514091"><ele>12.0</ele><time>2026-05-06T10:08:23.001Z</time></trkpt><trkpt lat="14.42457172709791" lon="120.92325021342916"><ele>12.0</ele><time>2026-05-06T10:08:24.001Z</time></trkpt><trkpt lat="14.424662058148279" lon="120.923250835008"><ele>12.0</ele><time>2026-05-06T10:08:25.001Z</time></trkpt><trkpt lat="14.424758647212277" lon="120.92325149965001"><ele>12.0</ele><time>2026-05-06T10:08:26.001Z</time></trkpt><trkpt lat="14.424860017944358" lon="120.92325219719476"><ele>12.0</ele><time>2026-05-06T10:08:27.001Z</time></trkpt><trkpt lat="14.424967699725205" lon="120.92325293816737"><ele>12.0</ele><time>2026-05-06T10:08:28.001Z</time></trkpt><trkpt lat="14.425078772956244" lon="120.92325370247521"><ele>12.0</ele><time>2026-05-06T10:08:29.001Z</time></trkpt><trkpt lat="14.425196205885552" lon="120.92325451054728"><ele>12.0</ele><time>2026-05-06T10:08:30.001Z</time></trkpt><trkpt lat="14.425315172528858" lon="120.92325532917151"><ele>12.0</ele><time>2026-05-06T10:08:31.001Z</time></trkpt><trkpt lat="14.425422841030064" lon="120.92325607005361"><ele>12.0</ele><time>2026-05-06T10:08:32.001Z</time></trkpt><trkpt lat="14.425549752726935" lon="120.92325706324984"><ele>12.0</ele><time>2026-05-06T10:08:33.001Z</time></trkpt><trkpt lat="14.425670267078532" lon="120.92325842181083"><ele>12.0</ele><time>2026-05-06T10:08:34.001Z</time></trkpt><trkpt lat="14.425772677999282" lon="120.92325957629193"><ele>11.666666666666666</ele><time>2026-05-06T10:08:35.001Z</time></trkpt><trkpt lat="14.425863381557905" lon="120.92326059879608"><ele>11.333333333333334</ele><time>2026-05-06T10:08:36.001Z</time></trkpt><trkpt lat="14.425956048491248" lon="120.92326164342934"><ele>11.0</ele><time>2026-05-06T10:08:37.001Z</time></trkpt><trkpt lat="14.426050255460101" lon="120.92325796739682"><ele>10.666666666666668</ele><time>2026-05-06T10:08:38.001Z</time></trkpt><trkpt lat="14.42613340490807" lon="120.92325650110583"><ele>10.333333333333334</ele><time>2026-05-06T10:08:39.001Z</time></trkpt><trkpt lat="14.426218816465763" lon="120.92325552562595"><ele>10.0</ele><time>2026-05-06T10:08:40.001Z</time></trkpt><trkpt lat="14.426291723472225" lon="120.92325462775591"><ele>10.0</ele><time>2026-05-06T10:08:41.002Z</time></trkpt><trkpt lat="14.426356764281588" lon="120.92325382676088"><ele>10.0</ele><time>2026-05-06T10:08:42.002Z</time></trkpt><trkpt lat="14.426427003050904" lon="120.92325296175291"><ele>10.0</ele><time>2026-05-06T10:08:43.002Z</time></trkpt><trkpt lat="14.42650270559851" lon="120.92325276470908"><ele>10.0</ele><time>2026-05-06T10:08:44.002Z</time></trkpt><trkpt lat="14.426583375486487" lon="120.92325176783821"><ele>10.0</ele><time>2026-05-06T10:08:45.002Z</time></trkpt><trkpt lat="14.426670306315236" lon="120.92325069360922"><ele>10.0</ele><time>2026-05-06T10:08:46.002Z</time></trkpt><trkpt lat="14.426763587211893" lon="120.92317942369017"><ele>10.0</ele><time>2026-05-06T10:08:47.002Z</time></trkpt><trkpt lat="14.426844155511889" lon="120.92310821853597"><ele>10.0</ele><time>2026-05-06T10:08:48.002Z</time></trkpt><trkpt lat="14.426939534263381" lon="120.92305242665056"><ele>10.0</ele><time>2026-05-06T10:08:49.002Z</time></trkpt><trkpt lat="14.427045118816904" lon="120.92299083996727"><ele>10.0</ele><time>2026-05-06T10:08:50.002Z</time></trkpt><trkpt lat="14.427125899546821" lon="120.9229587532427"><ele>10.0</ele><time>2026-05-06T10:08:51.002Z</time></trkpt><trkpt lat="14.427207232457071" lon="120.92291270436381"><ele>10.166666666666668</ele><time>2026-05-06T10:08:52.002Z</time></trkpt><trkpt lat="14.427276843565588" lon="120.92288124696226"><ele>10.333333333333334</ele><time>2026-05-06T10:08:53.002Z</time></trkpt><trkpt lat="14.427343417620744" lon="120.92284067418909"><ele>10.5</ele><time>2026-05-06T10:08:54.002Z</time></trkpt><trkpt lat="14.42740288238405" lon="120.92281087269446"><ele>10.666666666666666</ele><time>2026-05-06T10:08:55.002Z</time></trkpt><trkpt lat="14.427485971069006" lon="120.92274046840481"><ele>10.833333333333332</ele><time>2026-05-06T10:08:57.002Z</time></trkpt><trkpt lat="14.427572931138615" lon="120.92268725639906"><ele>11.0</ele><time>2026-05-06T10:08:59.002Z</time></trkpt><trkpt lat="14.427669159826928" lon="120.92262823932852"><ele>11.0</ele><time>2026-05-06T10:09:01.002Z</time></trkpt><trkpt lat="14.427733655943445" lon="120.92258982832936"><ele>11.0</ele><time>2026-05-06T10:09:03.002Z</time></trkpt><trkpt lat="14.427810024726245" lon="120.9225449038773"><ele>11.0</ele><time>2026-05-06T10:09:05.002Z</time></trkpt><trkpt lat="14.427891632177724" lon="120.92249699761896"><ele>11.0</ele><time>2026-05-06T10:09:07.002Z</time></trkpt><trkpt lat="14.427947154923597" lon="120.92246440394413"><ele>11.0</ele><time>2026-05-06T10:09:11.002Z</time></trkpt><trkpt lat="14.428049023206533" lon="120.92240460391312"><ele>11.0</ele><time>2026-05-06T10:09:14.002Z</time></trkpt><trkpt lat="14.428111574535093" lon="120.92236788435535"><ele>10.833333333333332</ele><time>2026-05-06T10:09:18.002Z</time></trkpt><trkpt lat="14.428167898692038" lon="120.92233482036636"><ele>10.666666666666666</ele><time>2026-05-06T10:09:24.002Z</time></trkpt><trkpt lat="14.428240971762072" lon="120.92231716583413"><ele>10.5</ele><time>2026-05-06T10:09:30.001Z</time></trkpt><trkpt lat="14.428319812092122" lon="120.92228810388457"><ele>10.333333333333334</ele><time>2026-05-06T10:09:35.001Z</time></trkpt><trkpt lat="14.428396470331208" lon="120.92229278136068"><ele>10.166666666666668</ele><time>2026-05-06T10:09:37.001Z</time></trkpt><trkpt lat="14.428480239533778" lon="120.9223045913841"><ele>10.0</ele><time>2026-05-06T10:09:39.001Z</time></trkpt><trkpt lat="14.428544574225368" lon="120.92231796636926"><ele>10.0</ele><time>2026-05-06T10:09:42.001Z</time></trkpt><trkpt lat="14.428626044611311" lon="120.92233546773326"><ele>10.0</ele><time>2026-05-06T10:09:47.001Z</time></trkpt><trkpt lat="14.42857904465279" lon="120.92244642897353"><ele>10.0</ele><time>2026-05-06T10:09:49.001Z</time></trkpt><trkpt lat="14.428574519998895" lon="120.92252423763017"><ele>10.0</ele><time>2026-05-06T10:09:51.001Z</time></trkpt><trkpt lat="14.428568485022089" lon="120.92262801869457"><ele>10.0</ele><time>2026-05-06T10:09:53.001Z</time></trkpt><trkpt lat="14.428561891305304" lon="120.9227407788266"><ele>10.4</ele><time>2026-05-06T10:09:55.001Z</time></trkpt><trkpt lat="14.428556003172202" lon="120.92284138666113"><ele>10.8</ele><time>2026-05-06T10:09:57.001Z</time></trkpt><trkpt lat="14.428549469266954" lon="120.9229530284748"><ele>11.2</ele><time>2026-05-06T10:09:59.001Z</time></trkpt><trkpt lat="14.428544822076033" lon="120.92304893392978"><ele>11.6</ele><time>2026-05-06T10:10:01.001Z</time></trkpt><trkpt lat="14.42854069418365" lon="120.92315390572932"><ele>12.0</ele><time>2026-05-06T10:10:03.001Z</time></trkpt><trkpt lat="14.42853571112819" lon="120.92328062417293"><ele>12.0</ele><time>2026-05-06T10:10:05.001Z</time></trkpt><trkpt lat="14.42853169554572" lon="120.9233827398824"><ele>12.0</ele><time>2026-05-06T10:10:07.001Z</time></trkpt><trkpt lat="14.428528682364504" lon="120.92345936466299"><ele>12.0</ele><time>2026-05-06T10:10:12.001Z</time></trkpt><trkpt lat="14.42852536856649" lon="120.92354363411707"><ele>12.0</ele><time>2026-05-06T10:10:14.001Z</time></trkpt><trkpt lat="14.428523284459319" lon="120.92363366375949"><ele>12.0</ele><time>2026-05-06T10:10:16.001Z</time></trkpt><trkpt lat="14.428521709856028" lon="120.92371530086191"><ele>12.0</ele><time>2026-05-06T10:10:18.001Z</time></trkpt><trkpt lat="14.428520365765955" lon="120.92378498680202"><ele>11.666666666666666</ele><time>2026-05-06T10:10:20.001Z</time></trkpt><trkpt lat="14.428518478408458" lon="120.92388283906682"><ele>11.333333333333334</ele><time>2026-05-06T10:10:22.001Z</time></trkpt><trkpt lat="14.428517021350366" lon="120.92395838185935"><ele>11.0</ele><time>2026-05-06T10:10:24.001Z</time></trkpt><trkpt lat="14.428515686407888" lon="120.92402759351228"><ele>10.666666666666668</ele><time>2026-05-06T10:10:26.001Z</time></trkpt><trkpt lat="14.428514053430561" lon="120.92411225726372"><ele>10.333333333333334</ele><time>2026-05-06T10:10:29.001Z</time></trkpt><trkpt lat="14.42851654543281" lon="120.92418950505038"><ele>10.0</ele><time>2026-05-06T10:10:32.001Z</time></trkpt><trkpt lat="14.428518326076706" lon="120.92425911754931"><ele>10.0</ele><time>2026-05-06T10:10:35.001Z</time></trkpt><trkpt lat="14.428520530296447" lon="120.92434528932563"><ele>10.0</ele><time>2026-05-06T10:10:38.001Z</time></trkpt><trkpt lat="14.428522992302156" lon="120.92444153896066"><ele>10.0</ele><time>2026-05-06T10:10:41.001Z</time></trkpt><trkpt lat="14.42852535675577" lon="120.9245530312336"><ele>10.0</ele><time>2026-05-06T10:10:43.001Z</time></trkpt><trkpt lat="14.428536389499124" lon="120.92465899841787"><ele>10.0</ele><time>2026-05-06T10:10:45.001Z</time></trkpt><trkpt lat="14.428543366083636" lon="120.9247260069029"><ele>10.0</ele><time>2026-05-06T10:10:46.001Z</time></trkpt><trkpt lat="14.42855530956142" lon="120.9248407213388"><ele>10.0</ele><time>2026-05-06T10:10:48.001Z</time></trkpt><trkpt lat="14.428562662313043" lon="120.92491134286645"><ele>10.0</ele><time>2026-05-06T10:10:49.001Z</time></trkpt><trkpt lat="14.428569085368506" lon="120.92497952624419"><ele>10.0</ele><time>2026-05-06T10:10:50.001Z</time></trkpt><trkpt lat="14.428575288987213" lon="120.92504667770983"><ele>10.0</ele><time>2026-05-06T10:10:51.001Z</time></trkpt><trkpt lat="14.428587326786268" lon="120.92517698159607"><ele>10.0</ele><time>2026-05-06T10:10:53.001Z</time></trkpt><trkpt lat="14.428592975651025" lon="120.92524358337309"><ele>10.0</ele><time>2026-05-06T10:10:54.001Z</time></trkpt><trkpt lat="14.428598516575274" lon="120.92534379638387"><ele>10.0</ele><time>2026-05-06T10:10:56.002Z</time></trkpt><trkpt lat="14.42860502100387" lon="120.9254614352804"><ele>10.0</ele><time>2026-05-06T10:10:58.002Z</time></trkpt><trkpt lat="14.428611981176736" lon="120.9255873167837"><ele>10.0</ele><time>2026-05-06T10:11:00.002Z</time></trkpt><trkpt lat="14.428619096790802" lon="120.92570845311239"><ele>10.0</ele><time>2026-05-06T10:11:02.002Z</time></trkpt><trkpt lat="14.428625863065706" lon="120.92583124061075"><ele>10.0</ele><time>2026-05-06T10:11:04.002Z</time></trkpt><trkpt lat="14.428629659699427" lon="120.92590224499378"><ele>10.0</ele><time>2026-05-06T10:11:05.002Z</time></trkpt><trkpt lat="14.428635243797398" lon="120.92597316112283"><ele>10.0</ele><time>2026-05-06T10:11:06.002Z</time></trkpt><trkpt lat="14.428642327440713" lon="120.92604656315342"><ele>10.0</ele><time>2026-05-06T10:11:07.002Z</time></trkpt><trkpt lat="14.42865101669525" lon="120.92613660272981"><ele>10.0</ele><time>2026-05-06T10:11:08.002Z</time></trkpt><trkpt lat="14.428659461709373" lon="120.92622411150444"><ele>10.2</ele><time>2026-05-06T10:11:09.002Z</time></trkpt><trkpt lat="14.428667658629333" lon="120.92631299075288"><ele>10.4</ele><time>2026-05-06T10:11:10.002Z</time></trkpt><trkpt lat="14.428676073222455" lon="120.92640655816703"><ele>10.600000000000001</ele><time>2026-05-06T10:11:11.002Z</time></trkpt><trkpt lat="14.428729472155919" lon="120.92650065524226"><ele>10.8</ele><time>2026-05-06T10:11:12.002Z</time></trkpt><trkpt lat="14.428736616135302" lon="120.92659161144354"><ele>11.0</ele><time>2026-05-06T10:11:13.002Z</time></trkpt><trkpt lat="14.428748845492091" lon="120.92668048339753"><ele>10.8</ele><time>2026-05-06T10:11:14.002Z</time></trkpt><trkpt lat="14.428759027874474" lon="120.9267705462022"><ele>10.600000000000001</ele><time>2026-05-06T10:11:15.002Z</time></trkpt><trkpt lat="14.428759435938733" lon="120.92684833954193"><ele>10.4</ele><time>2026-05-06T10:11:16.002Z</time></trkpt><trkpt lat="14.428774284487975" lon="120.92697737651893"><ele>10.2</ele><time>2026-05-06T10:11:18.002Z</time></trkpt><trkpt lat="14.428784192256957" lon="120.9270596456177"><ele>10.0</ele><time>2026-05-06T10:11:19.002Z</time></trkpt><trkpt lat="14.428786809149782" lon="120.9271536710771"><ele>10.0</ele><time>2026-05-06T10:11:20.002Z</time></trkpt><trkpt lat="14.428788043545419" lon="120.92725214604891"><ele>10.0</ele><time>2026-05-06T10:11:21.002Z</time></trkpt><trkpt lat="14.428794794743562" lon="120.927344001007"><ele>10.0</ele><time>2026-05-06T10:11:22.002Z</time></trkpt><trkpt lat="14.428800602195425" lon="120.9274191974201"><ele>10.0</ele><time>2026-05-06T10:11:23.002Z</time></trkpt><trkpt lat="14.428806287003221" lon="120.92748904255346"><ele>10.0</ele><time>2026-05-06T10:11:24.002Z</time></trkpt><trkpt lat="14.428817531960519" lon="120.92759471240709"><ele>10.0</ele><time>2026-05-06T10:11:26.002Z</time></trkpt><trkpt lat="14.428825232922526" lon="120.92768153723222"><ele>10.4</ele><time>2026-05-06T10:11:29.002Z</time></trkpt><trkpt lat="14.428835873257785" lon="120.92775640058731"><ele>10.8</ele><time>2026-05-06T10:11:32.001Z</time></trkpt><trkpt lat="14.428844096774034" lon="120.92785497373363"><ele>11.2</ele><time>2026-05-06T10:11:35.001Z</time></trkpt><trkpt lat="14.42884635246394" lon="120.92794603142673"><ele>11.6</ele><time>2026-05-06T10:11:37.001Z</time></trkpt><trkpt lat="14.428849873628398" lon="120.92803470466053"><ele>12.0</ele><time>2026-05-06T10:11:40.001Z</time></trkpt><trkpt lat="14.428864124099158" lon="120.9281437262447"><ele>12.0</ele><time>2026-05-06T10:11:42.001Z</time></trkpt><trkpt lat="14.428872937063222" lon="120.92821561106778"><ele>12.0</ele><time>2026-05-06T10:11:43.001Z</time></trkpt><trkpt lat="14.428878768082928" lon="120.9283012099772"><ele>12.0</ele><time>2026-05-06T10:11:44.001Z</time></trkpt><trkpt lat="14.428887533503762" lon="120.92838820311356"><ele>12.0</ele><time>2026-05-06T10:11:45.001Z</time></trkpt><trkpt lat="14.428893037752864" lon="120.92847414289822"><ele>12.0</ele><time>2026-05-06T10:11:46.001Z</time></trkpt><trkpt lat="14.42890581301356" lon="120.9285861070382"><ele>12.0</ele><time>2026-05-06T10:11:47.001Z</time></trkpt><trkpt lat="14.428914648488329" lon="120.92867654683545"><ele>11.6</ele><time>2026-05-06T10:11:48.001Z</time></trkpt><trkpt lat="14.428926118766109" lon="120.92878409169309"><ele>11.2</ele><time>2026-05-06T10:11:49.001Z</time></trkpt><trkpt lat="14.428934791788679" lon="120.9288910934603"><ele>10.8</ele><time>2026-05-06T10:11:50.001Z</time></trkpt><trkpt lat="14.428942406774969" lon="120.92898909208468"><ele>10.4</ele><time>2026-05-06T10:11:51.001Z</time></trkpt><trkpt lat="14.428950509814165" lon="120.92908727509604"><ele>10.0</ele><time>2026-05-06T10:11:52.001Z</time></trkpt><trkpt lat="14.428960053866332" lon="120.92918689106808"><ele>10.0</ele><time>2026-05-06T10:11:53.001Z</time></trkpt><trkpt lat="14.428966774104559" lon="120.92928534964034"><ele>10.0</ele><time>2026-05-06T10:11:54.001Z</time></trkpt><trkpt lat="14.428976219487085" lon="120.92938524424069"><ele>10.0</ele><time>2026-05-06T10:11:55.001Z</time></trkpt><trkpt lat="14.428987395504011" lon="120.92948253479307"><ele>10.0</ele><time>2026-05-06T10:11:56.001Z</time></trkpt><trkpt lat="14.428996919550793" lon="120.92957850627879"><ele>10.0</ele><time>2026-05-06T10:11:57.001Z</time></trkpt><trkpt lat="14.4290066153799" lon="120.92967689391845"><ele>10.0</ele><time>2026-05-06T10:11:58.001Z</time></trkpt><trkpt lat="14.429015572923802" lon="120.92977411186816"><ele>10.0</ele><time>2026-05-06T10:11:59.001Z</time></trkpt><trkpt lat="14.429027089863816" lon="120.92986945177044"><ele>10.0</ele><time>2026-05-06T10:12:00.001Z</time></trkpt><trkpt lat="14.429037738131838" lon="120.9299580169324"><ele>10.0</ele><time>2026-05-06T10:12:01.001Z</time></trkpt><trkpt lat="14.429044940202129" lon="120.93003949504269"><ele>10.0</ele><time>2026-05-06T10:12:02.001Z</time></trkpt><trkpt lat="14.429048194022531" lon="120.93011410967627"><ele>10.0</ele><time>2026-05-06T10:12:03.001Z</time></trkpt><trkpt lat="14.429060947596245" lon="120.93019481415995"><ele>10.5</ele><time>2026-05-06T10:12:04.001Z</time></trkpt><trkpt lat="14.429073360021906" lon="120.93027878266933"><ele>11.0</ele><time>2026-05-06T10:12:05.001Z</time></trkpt><trkpt lat="14.429083507508155" lon="120.93036887166832"><ele>11.5</ele><time>2026-05-06T10:12:06.001Z</time></trkpt><trkpt lat="14.429085826651823" lon="120.93045372128988"><ele>12.0</ele><time>2026-05-06T10:12:07.001Z</time></trkpt><trkpt lat="14.42909618208779" lon="120.93054603374709"><ele>12.499999999999998</ele><time>2026-05-06T10:12:08.001Z</time></trkpt><trkpt lat="14.429107945792296" lon="120.93063906046366"><ele>13.0</ele><time>2026-05-06T10:12:09.001Z</time></trkpt><trkpt lat="14.429120432320616" lon="120.93073711096355"><ele>12.999999999999998</ele><time>2026-05-06T10:12:10.001Z</time></trkpt><trkpt lat="14.429132940734918" lon="120.93083104719474"><ele>13.0</ele><time>2026-05-06T10:12:11.001Z</time></trkpt><trkpt lat="14.429143637470688" lon="120.93092752404644"><ele>13.0</ele><time>2026-05-06T10:12:12.001Z</time></trkpt><trkpt lat="14.42914927016043" lon="120.93101676468932"><ele>13.0</ele><time>2026-05-06T10:12:13.001Z</time></trkpt><trkpt lat="14.42915815299195" lon="120.93111200534524"><ele>12.999999999999998</ele><time>2026-05-06T10:12:14.001Z</time></trkpt><trkpt lat="14.42916625291185" lon="120.93118918461907"><ele>13.0</ele><time>2026-05-06T10:12:15.001Z</time></trkpt><trkpt lat="14.429171450958568" lon="120.93126082583953"><ele>13.0</ele><time>2026-05-06T10:12:16.001Z</time></trkpt><trkpt lat="14.429180792805365" lon="120.93138098575734"><ele>13.0</ele><time>2026-05-06T10:12:18.001Z</time></trkpt><trkpt lat="14.429189049677273" lon="120.9314994960924"><ele>13.0</ele><time>2026-05-06T10:12:20.001Z</time></trkpt><trkpt lat="14.429204715193272" lon="120.93163397944853"><ele>13.0</ele><time>2026-05-06T10:12:22.001Z</time></trkpt><trkpt lat="14.429208216716031" lon="120.93170330715692"><ele>13.0</ele><time>2026-05-06T10:12:23.001Z</time></trkpt><trkpt lat="14.429211221091485" lon="120.93177473208738"><ele>12.833333333333332</ele><time>2026-05-06T10:12:24.001Z</time></trkpt><trkpt lat="14.429216124859655" lon="120.93185069283358"><ele>12.666666666666666</ele><time>2026-05-06T10:12:25.001Z</time></trkpt><trkpt lat="14.429220681543983" lon="120.93192880955246"><ele>12.5</ele><time>2026-05-06T10:12:26.001Z</time></trkpt><trkpt lat="14.429227430800205" lon="120.93200483802562"><ele>12.333333333333332</ele><time>2026-05-06T10:12:27.001Z</time></trkpt><trkpt lat="14.4292366592431" lon="120.93207639466203"><ele>12.166666666666666</ele><time>2026-05-06T10:12:28.001Z</time></trkpt><trkpt lat="14.42924089229483" lon="120.93217268274309"><ele>12.0</ele><time>2026-05-06T10:12:30.001Z</time></trkpt><trkpt lat="14.429259190286546" lon="120.93224373571721"><ele>12.0</ele><time>2026-05-06T10:12:34.001Z</time></trkpt><trkpt lat="14.42933558582472" lon="120.93227114804597"><ele>12.0</ele><time>2026-05-06T10:12:37.001Z</time></trkpt><trkpt lat="14.429453548775058" lon="120.93219625275078"><ele>12.0</ele><time>2026-05-06T10:12:39.001Z</time></trkpt><trkpt lat="14.429513351473119" lon="120.93215200346168"><ele>12.0</ele><time>2026-05-06T10:12:40.001Z</time></trkpt><trkpt lat="14.429591787163952" lon="120.932103274681"><ele>12.0</ele><time>2026-05-06T10:12:41.001Z</time></trkpt><trkpt lat="14.429672796600634" lon="120.93205318776708"><ele>12.2</ele><time>2026-05-06T10:12:42.001Z</time></trkpt><trkpt lat="14.429757900627239" lon="120.93199388916467"><ele>12.399999999999999</ele><time>2026-05-06T10:12:43.001Z</time></trkpt><trkpt lat="14.429850678436319" lon="120.93193775665114"><ele>12.600000000000001</ele><time>2026-05-06T10:12:44.001Z</time></trkpt><trkpt lat="14.429944933055655" lon="120.93188605236352"><ele>12.8</ele><time>2026-05-06T10:12:45.001Z</time></trkpt><trkpt lat="14.430035916809809" lon="120.93182751741419"><ele>13.0</ele><time>2026-05-06T10:12:46.001Z</time></trkpt><trkpt lat="14.430124239287887" lon="120.9317710481229"><ele>12.8</ele><time>2026-05-06T10:12:47.001Z</time></trkpt><trkpt lat="14.430209849638683" lon="120.93171694313855"><ele>12.600000000000001</ele><time>2026-05-06T10:12:48.001Z</time></trkpt><trkpt lat="14.430290017549442" lon="120.93166665500956"><ele>12.399999999999999</ele><time>2026-05-06T10:12:49.001Z</time></trkpt><trkpt lat="14.430367779623982" lon="120.93161709202558"><ele>12.2</ele><time>2026-05-06T10:12:50.001Z</time></trkpt><trkpt lat="14.430442412785538" lon="120.93157240380695"><ele>12.0</ele><time>2026-05-06T10:12:51.001Z</time></trkpt><trkpt lat="14.430514098429098" lon="120.9315285619704"><ele>11.5</ele><time>2026-05-06T10:12:52.001Z</time></trkpt><trkpt lat="14.430587852354003" lon="120.9314809181944"><ele>11.0</ele><time>2026-05-06T10:12:53.001Z</time></trkpt><trkpt lat="14.430664184456509" lon="120.93143078909196"><ele>10.5</ele><time>2026-05-06T10:12:54.001Z</time></trkpt><trkpt lat="14.430736701527875" lon="120.93138393799197"><ele>10.0</ele><time>2026-05-06T10:12:55.001Z</time></trkpt><trkpt lat="14.43079771767346" lon="120.93134748209778"><ele>9.5</ele><time>2026-05-06T10:12:56.001Z</time></trkpt><trkpt lat="14.430851879784422" lon="120.93131134978883"><ele>9.0</ele><time>2026-05-06T10:12:57.001Z</time></trkpt><trkpt lat="14.430941188899766" lon="120.93125404266682"><ele>9.0</ele><time>2026-05-06T10:12:59.001Z</time></trkpt><trkpt lat="14.431010047973816" lon="120.9312153328655"><ele>9.0</ele><time>2026-05-06T10:13:01.001Z</time></trkpt><trkpt lat="14.431064607033075" lon="120.93117440839885"><ele>9.0</ele><time>2026-05-06T10:13:04.001Z</time></trkpt><trkpt lat="14.431124161637356" lon="120.93113577489052"><ele>9.0</ele><time>2026-05-06T10:13:08.001Z</time></trkpt><trkpt lat="14.431188379020302" lon="120.93110084165635"><ele>9.0</ele><time>2026-05-06T10:13:10.001Z</time></trkpt><trkpt lat="14.431275628808153" lon="120.93105209260317"><ele>9.0</ele><time>2026-05-06T10:13:12.001Z</time></trkpt><trkpt lat="14.431383977959454" lon="120.93099658113965"><ele>9.0</ele><time>2026-05-06T10:13:14.001Z</time></trkpt><trkpt lat="14.431458719891092" lon="120.93094239101917"><ele>9.0</ele><time>2026-05-06T10:13:16.001Z</time></trkpt><trkpt lat="14.43153325598157" lon="120.93089602795645"><ele>9.0</ele><time>2026-05-06T10:13:18.001Z</time></trkpt><trkpt lat="14.431610988980989" lon="120.93084532333238"><ele>9.0</ele><time>2026-05-06T10:13:20.001Z</time></trkpt><trkpt lat="14.431680638755985" lon="120.93080854146038"><ele>9.0</ele><time>2026-05-06T10:13:23.002Z</time></trkpt><trkpt lat="14.431757323710183" lon="120.93076251322509"><ele>9.0</ele><time>2026-05-06T10:13:26.002Z</time></trkpt><trkpt lat="14.431834059030633" lon="120.93071858606785"><ele>9.0</ele><time>2026-05-06T10:13:28.002Z</time></trkpt><trkpt lat="14.431908478838013" lon="120.9306727762609"><ele>9.0</ele><time>2026-05-06T10:13:30.002Z</time></trkpt><trkpt lat="14.431984065519144" lon="120.93063515197655"><ele>9.0</ele><time>2026-05-06T10:13:33.002Z</time></trkpt><trkpt lat="14.432047355640867" lon="120.93059908979305"><ele>9.0</ele><time>2026-05-06T10:13:36.002Z</time></trkpt><trkpt lat="14.432118572689578" lon="120.93055187428072"><ele>9.0</ele><time>2026-05-06T10:13:39.001Z</time></trkpt><trkpt lat="14.43218464827753" lon="120.93051079701061"><ele>9.0</ele><time>2026-05-06T10:13:41.001Z</time></trkpt><trkpt lat="14.43225149280806" lon="120.93047024646533"><ele>9.166666666666666</ele><time>2026-05-06T10:13:43.001Z</time></trkpt><trkpt lat="14.432321570899786" lon="120.93043063817174"><ele>9.333333333333334</ele><time>2026-05-06T10:13:45.001Z</time></trkpt><trkpt lat="14.432381064905563" lon="120.9303984073499"><ele>9.5</ele><time>2026-05-06T10:13:47.001Z</time></trkpt><trkpt lat="14.432449532609887" lon="120.93035501872585"><ele>9.666666666666668</ele><time>2026-05-06T10:13:49.001Z</time></trkpt><trkpt lat="14.432528067805668" lon="120.93030995378206"><ele>9.833333333333334</ele><time>2026-05-06T10:13:51.001Z</time></trkpt><trkpt lat="14.432607061793085" lon="120.93025774768121"><ele>10.0</ele><time>2026-05-06T10:13:53.001Z</time></trkpt><trkpt lat="14.432688705830392" lon="120.93020714183993"><ele>10.0</ele><time>2026-05-06T10:13:55.001Z</time></trkpt><trkpt lat="14.432767814343084" lon="120.93016149306489"><ele>10.0</ele><time>2026-05-06T10:13:57Z</time></trkpt><trkpt lat="14.432847196665639" lon="120.9301113349236"><ele>10.0</ele><time>2026-05-06T10:13:59Z</time></trkpt><trkpt lat="14.43293674381367" lon="120.93005620965316"><ele>10.0</ele><time>2026-05-06T10:14:01Z</time></trkpt><trkpt lat="14.433016955992517" lon="120.93000706062459"><ele>10.0</ele><time>2026-05-06T10:14:03Z</time></trkpt><trkpt lat="14.4330963998025" lon="120.92995855337458"><ele>10.2</ele><time>2026-05-06T10:14:05Z</time></trkpt><trkpt lat="14.433180328434343" lon="120.92990432098271"><ele>10.4</ele><time>2026-05-06T10:14:07Z</time></trkpt><trkpt lat="14.433260792902116" lon="120.92985201729762"><ele>10.600000000000001</ele><time>2026-05-06T10:14:08.999Z</time></trkpt><trkpt lat="14.433344638309501" lon="120.92980229003098"><ele>10.8</ele><time>2026-05-06T10:14:10.999Z</time></trkpt><trkpt lat="14.433434201448764" lon="120.92974767767437"><ele>11.0</ele><time>2026-05-06T10:14:12.999Z</time></trkpt><trkpt lat="14.433524149410559" lon="120.929695441492"><ele>11.0</ele><time>2026-05-06T10:14:14.999Z</time></trkpt><trkpt lat="14.433601133382197" lon="120.92964425343092"><ele>11.0</ele><time>2026-05-06T10:14:16.999Z</time></trkpt><trkpt lat="14.433686222149017" lon="120.92958998115775"><ele>11.0</ele><time>2026-05-06T10:14:18.999Z</time></trkpt><trkpt lat="14.433778220018564" lon="120.92953020900845"><ele>11.0</ele><time>2026-05-06T10:14:20.999Z</time></trkpt><trkpt lat="14.433856856537126" lon="120.92948294758453"><ele>11.0</ele><time>2026-05-06T10:14:22.999Z</time></trkpt><trkpt lat="14.433930611948357" lon="120.92943728753771"><ele>10.8</ele><time>2026-05-06T10:14:24.999Z</time></trkpt><trkpt lat="14.433992545662397" lon="120.92940136994022"><ele>10.600000000000001</ele><time>2026-05-06T10:14:26.999Z</time></trkpt><trkpt lat="14.434068915435168" lon="120.92935791437304"><ele>10.4</ele><time>2026-05-06T10:14:28.999Z</time></trkpt><trkpt lat="14.434165842614322" lon="120.92930223976677"><ele>10.2</ele><time>2026-05-06T10:14:30.999Z</time></trkpt><trkpt lat="14.434252814904175" lon="120.92926107493824"><ele>10.0</ele><time>2026-05-06T10:14:32.999Z</time></trkpt><trkpt lat="14.43433735676664" lon="120.92919760698865"><ele>10.0</ele><time>2026-05-06T10:14:34.999Z</time></trkpt><trkpt lat="14.434420734410326" lon="120.9291439146554"><ele>10.0</ele><time>2026-05-06T10:14:36.999Z</time></trkpt><trkpt lat="14.43450997835195" lon="120.92909079572368"><ele>10.0</ele><time>2026-05-06T10:14:38.999Z</time></trkpt><trkpt lat="14.434563073453058" lon="120.92905519031639"><ele>10.0</ele><time>2026-05-06T10:14:39.999Z</time></trkpt><trkpt lat="14.434668093473089" lon="120.92898642809591"><ele>10.0</ele><time>2026-05-06T10:14:41.999Z</time></trkpt><trkpt lat="14.434728186115013" lon="120.92895151351263"><ele>9.8</ele><time>2026-05-06T10:14:42.999Z</time></trkpt><trkpt lat="14.434829610856658" lon="120.92888821198846"><ele>9.6</ele><time>2026-05-06T10:14:44.999Z</time></trkpt><trkpt lat="14.43490609410683" lon="120.92884086326653"><ele>9.4</ele><time>2026-05-06T10:14:46.999Z</time></trkpt><trkpt lat="14.434979520385301" lon="120.92879824740251"><ele>9.2</ele><time>2026-05-06T10:14:48.999Z</time></trkpt><trkpt lat="14.43505321764796" lon="120.92875788826227"><ele>9.0</ele><time>2026-05-06T10:14:50.999Z</time></trkpt><trkpt lat="14.435120974665512" lon="120.92871316240615"><ele>9.0</ele><time>2026-05-06T10:14:52.999Z</time></trkpt><trkpt lat="14.435197588403753" lon="120.92866997660933"><ele>9.0</ele><time>2026-05-06T10:14:54.999Z</time></trkpt><trkpt lat="14.43527022437286" lon="120.92862431020643"><ele>9.0</ele><time>2026-05-06T10:14:56.999Z</time></trkpt><trkpt lat="14.43535594111592" lon="120.92857255222657"><ele>9.0</ele><time>2026-05-06T10:14:58.999Z</time></trkpt><trkpt lat="14.435448274759574" lon="120.92851553012773"><ele>9.0</ele><time>2026-05-06T10:15:00.999Z</time></trkpt><trkpt lat="14.435524857047561" lon="120.92846420276366"><ele>9.0</ele><time>2026-05-06T10:15:02.999Z</time></trkpt><trkpt lat="14.435595467897297" lon="120.92840982085399"><ele>9.0</ele><time>2026-05-06T10:15:05.999Z</time></trkpt><trkpt lat="14.435656621080234" lon="120.9283687287053"><ele>9.0</ele><time>2026-05-06T10:15:34.999Z</time></trkpt><trkpt lat="14.43574641042135" lon="120.92834221858882"><ele>9.0</ele><time>2026-05-06T10:15:36.999Z</time></trkpt><trkpt lat="14.435806787900049" lon="120.92829996477745"><ele>9.0</ele><time>2026-05-06T10:15:37.999Z</time></trkpt><trkpt lat="14.435874212897371" lon="120.92825565549879"><ele>9.0</ele><time>2026-05-06T10:15:38.999Z</time></trkpt><trkpt lat="14.435941147260255" lon="120.92821498261756"><ele>9.0</ele><time>2026-05-06T10:15:39.999Z</time></trkpt><trkpt lat="14.436005767670453" lon="120.9281768975628"><ele>9.0</ele><time>2026-05-06T10:15:40.999Z</time></trkpt><trkpt lat="14.436092305243422" lon="120.92812006212505"><ele>9.0</ele><time>2026-05-06T10:15:42.999Z</time></trkpt><trkpt lat="14.436150563877876" lon="120.92808108602902"><ele>9.0</ele><time>2026-05-06T10:15:44.999Z</time></trkpt><trkpt lat="14.43621916356726" lon="120.92803874763715"><ele>9.0</ele><time>2026-05-06T10:15:46.999Z</time></trkpt><trkpt lat="14.436303164105489" lon="120.92798857295476"><ele>9.0</ele><time>2026-05-06T10:15:49Z</time></trkpt><trkpt lat="14.436381690140058" lon="120.92793344074924"><ele>8.833333333333334</ele><time>2026-05-06T10:15:51Z</time></trkpt><trkpt lat="14.436453629006445" lon="120.92789035673385"><ele>8.666666666666666</ele><time>2026-05-06T10:15:53Z</time></trkpt><trkpt lat="14.436533239796713" lon="120.92784142970467"><ele>8.5</ele><time>2026-05-06T10:15:57Z</time></trkpt><trkpt lat="14.43660613210337" lon="120.9277976820384"><ele>8.333333333333332</ele><time>2026-05-06T10:16:00Z</time></trkpt><trkpt lat="14.436662354709188" lon="120.92776452215642"><ele>8.166666666666666</ele><time>2026-05-06T10:16:06Z</time></trkpt><trkpt lat="14.436733936284112" lon="120.92771455234569"><ele>8.0</ele><time>2026-05-06T10:16:11.001Z</time></trkpt><trkpt lat="14.436846585806471" lon="120.92763494361098"><ele>7.999999999999999</ele><time>2026-05-06T10:16:13.001Z</time></trkpt><trkpt lat="14.436913337235596" lon="120.92758902295199"><ele>8.0</ele><time>2026-05-06T10:16:14.001Z</time></trkpt><trkpt lat="14.436978711668354" lon="120.92753790209107"><ele>8.0</ele><time>2026-05-06T10:16:15.001Z</time></trkpt><trkpt lat="14.43704743808869" lon="120.92750119481961"><ele>8.0</ele><time>2026-05-06T10:16:16.001Z</time></trkpt><trkpt lat="14.437116477436293" lon="120.92748014186724"><ele>7.999999999999999</ele><time>2026-05-06T10:16:22.001Z</time></trkpt><trkpt lat="14.437195879031075" lon="120.92746996115523"><ele>8.0</ele><time>2026-05-06T10:16:30.001Z</time></trkpt><trkpt lat="14.437259314085841" lon="120.9274327417635"><ele>7.666666666666666</ele><time>2026-05-06T10:16:35.001Z</time></trkpt><trkpt lat="14.437315602629837" lon="120.92738595015251"><ele>7.333333333333333</ele><time>2026-05-06T10:16:39.001Z</time></trkpt><trkpt lat="14.437403521022762" lon="120.92734595425563"><ele>7.0</ele><time>2026-05-06T10:16:42.001Z</time></trkpt><trkpt lat="14.437516070495068" lon="120.92727933148052"><ele>6.666666666666666</ele><time>2026-05-06T10:16:44.001Z</time></trkpt><trkpt lat="14.437575964767491" lon="120.92723681717787"><ele>6.333333333333333</ele><time>2026-05-06T10:16:45.001Z</time></trkpt><trkpt lat="14.43763795874834" lon="120.92719464444136"><ele>6.0</ele><time>2026-05-06T10:16:46.001Z</time></trkpt><trkpt lat="14.437709325142443" lon="120.92714851435422"><ele>6.0</ele><time>2026-05-06T10:16:47.001Z</time></trkpt><trkpt lat="14.437776191904867" lon="120.92710422287297"><ele>6.0</ele><time>2026-05-06T10:16:48.001Z</time></trkpt><trkpt lat="14.437842054178684" lon="120.92706304546076"><ele>6.0</ele><time>2026-05-06T10:16:49.001Z</time></trkpt><trkpt lat="14.43790267399686" lon="120.92702597355267"><ele>6.0</ele><time>2026-05-06T10:16:50.001Z</time></trkpt><trkpt lat="14.437957426494826" lon="120.92698995194525"><ele>6.0</ele><time>2026-05-06T10:16:51.001Z</time></trkpt><trkpt lat="14.43807068278736" lon="120.92692351062632"><ele>6.0</ele><time>2026-05-06T10:16:53.001Z</time></trkpt><trkpt lat="14.438127297456129" lon="120.92688852317819"><ele>6.0</ele><time>2026-05-06T10:16:54.001Z</time></trkpt><trkpt lat="14.43818966224993" lon="120.92684805625844"><ele>6.0</ele><time>2026-05-06T10:16:55.001Z</time></trkpt><trkpt lat="14.438254433787488" lon="120.92681135780843"><ele>6.0</ele><time>2026-05-06T10:16:56.001Z</time></trkpt><trkpt lat="14.438321335754686" lon="120.92677103249065"><ele>6.0</ele><time>2026-05-06T10:16:57.001Z</time></trkpt><trkpt lat="14.438390489258325" lon="120.92672657807563"><ele>6.0</ele><time>2026-05-06T10:16:58.001Z</time></trkpt><trkpt lat="14.43845952066218" lon="120.92668428479918"><ele>6.0</ele><time>2026-05-06T10:16:59.001Z</time></trkpt><trkpt lat="14.43853370268296" lon="120.92664043423206"><ele>6.199999999999999</ele><time>2026-05-06T10:17:00.001Z</time></trkpt><trkpt lat="14.438607946984197" lon="120.9265938653803"><ele>6.3999999999999995</ele><time>2026-05-06T10:17:01.001Z</time></trkpt><trkpt lat="14.438686173612105" lon="120.9265424787162"><ele>6.6</ele><time>2026-05-06T10:17:02.001Z</time></trkpt><trkpt lat="14.438759895316114" lon="120.92649135452152"><ele>6.8</ele><time>2026-05-06T10:17:03.001Z</time></trkpt><trkpt lat="14.438838399347944" lon="120.92643389190052"><ele>7.0</ele><time>2026-05-06T10:17:04.001Z</time></trkpt><trkpt lat="14.438916664602685" lon="120.9263740172908"><ele>7.0</ele><time>2026-05-06T10:17:05.001Z</time></trkpt><trkpt lat="14.438995720569139" lon="120.92631715173307"><ele>6.999999999999999</ele><time>2026-05-06T10:17:06.001Z</time></trkpt><trkpt lat="14.439065959267928" lon="120.92626196811541"><ele>6.999999999999999</ele><time>2026-05-06T10:17:07.001Z</time></trkpt><trkpt lat="14.439122643081955" lon="120.9262148180241"><ele>7.0</ele><time>2026-05-06T10:17:08.001Z</time></trkpt><trkpt lat="14.439211790681625" lon="120.92615005399509"><ele>7.0</ele><time>2026-05-06T10:17:10.001Z</time></trkpt><trkpt lat="14.439295734445425" lon="120.92608618207544"><ele>7.000000000000001</ele><time>2026-05-06T10:17:12.001Z</time></trkpt><trkpt lat="14.439412183098975" lon="120.92602547789963"><ele>7.0</ele><time>2026-05-06T10:17:14.001Z</time></trkpt><trkpt lat="14.439475130579629" lon="120.92597937408016"><ele>7.0</ele><time>2026-05-06T10:17:15.001Z</time></trkpt><trkpt lat="14.439536755588867" lon="120.92593824449565"><ele>7.0</ele><time>2026-05-06T10:17:16.001Z</time></trkpt><trkpt lat="14.439598854539314" lon="120.9258998369291"><ele>7.000000000000001</ele><time>2026-05-06T10:17:17.001Z</time></trkpt><trkpt lat="14.439660242258167" lon="120.92586393052184"><ele>7.0</ele><time>2026-05-06T10:17:18.001Z</time></trkpt><trkpt lat="14.439715962096823" lon="120.92583199192602"><ele>7.3999999999999995</ele><time>2026-05-06T10:17:19.001Z</time></trkpt><trkpt lat="14.439808988938301" lon="120.92577618895123"><ele>7.799999999999999</ele><time>2026-05-06T10:17:21.001Z</time></trkpt><trkpt lat="14.439894154662925" lon="120.92572505805322"><ele>8.2</ele><time>2026-05-06T10:17:23.001Z</time></trkpt><trkpt lat="14.43997232914838" lon="120.92568602419087"><ele>8.6</ele><time>2026-05-06T10:17:26.001Z</time></trkpt><trkpt lat="14.440049354748798" lon="120.92564193930477"><ele>9.0</ele><time>2026-05-06T10:17:29.001Z</time></trkpt><trkpt lat="14.440122176233794" lon="120.92560390926143"><ele>9.0</ele><time>2026-05-06T10:17:31.001Z</time></trkpt><trkpt lat="14.44019634771286" lon="120.92557150043787"><ele>9.0</ele><time>2026-05-06T10:17:34.001Z</time></trkpt><trkpt lat="14.440279208394145" lon="120.92552345825698"><ele>9.0</ele><time>2026-05-06T10:17:37.001Z</time></trkpt><trkpt lat="14.440349519229507" lon="120.92548766441018"><ele>9.0</ele><time>2026-05-06T10:17:39.001Z</time></trkpt><trkpt lat="14.440422402090368" lon="120.9254497991853"><ele>9.0</ele><time>2026-05-06T10:17:41.001Z</time></trkpt><trkpt lat="14.440497944224727" lon="120.925411538872"><ele>9.0</ele><time>2026-05-06T10:17:43.001Z</time></trkpt><trkpt lat="14.44058400530946" lon="120.9253594290377"><ele>8.833333333333334</ele><time>2026-05-06T10:17:45.001Z</time></trkpt><trkpt lat="14.440677607146787" lon="120.92530984744211"><ele>8.666666666666666</ele><time>2026-05-06T10:17:47.001Z</time></trkpt><trkpt lat="14.440750726852851" lon="120.92526659145706"><ele>8.5</ele><time>2026-05-06T10:17:49.001Z</time></trkpt><trkpt lat="14.440841238505454" lon="120.9252178968309"><ele>8.333333333333332</ele><time>2026-05-06T10:17:52.001Z</time></trkpt><trkpt lat="14.440908061107883" lon="120.92518063218331"><ele>8.166666666666666</ele><time>2026-05-06T10:17:54.001Z</time></trkpt><trkpt lat="14.440976266269601" lon="120.92514172879773"><ele>8.0</ele><time>2026-05-06T10:17:56.001Z</time></trkpt><trkpt lat="14.441081447877169" lon="120.92507877878168"><ele>7.999999999999999</ele><time>2026-05-06T10:17:58.001Z</time></trkpt><trkpt lat="14.441155495436938" lon="120.92503588071123"><ele>8.0</ele><time>2026-05-06T10:17:59.001Z</time></trkpt><trkpt lat="14.441241385775449" lon="120.92498989950538"><ele>8.0</ele><time>2026-05-06T10:18:00.001Z</time></trkpt><trkpt lat="14.441316594387757" lon="120.92495852560752"><ele>8.0</ele><time>2026-05-06T10:18:01.001Z</time></trkpt><trkpt lat="14.441388292107717" lon="120.92492547854671"><ele>7.999999999999999</ele><time>2026-05-06T10:18:02.001Z</time></trkpt><trkpt lat="14.441451235884198" lon="120.92488691271458"><ele>8.0</ele><time>2026-05-06T10:18:03.001Z</time></trkpt><trkpt lat="14.4415086822038" lon="120.92485579047595"><ele>8.0</ele><time>2026-05-06T10:18:04.001Z</time></trkpt><trkpt lat="14.441617561260236" lon="120.92480378254182"><ele>8.0</ele><time>2026-05-06T10:18:06.001Z</time></trkpt><trkpt lat="14.441731067877154" lon="120.92473978421889"><ele>8.0</ele><time>2026-05-06T10:18:08.001Z</time></trkpt><trkpt lat="14.441791492707408" lon="120.92470718102"><ele>8.0</ele><time>2026-05-06T10:18:09.001Z</time></trkpt><trkpt lat="14.441853044253573" lon="120.92466942007242"><ele>8.0</ele><time>2026-05-06T10:18:10.001Z</time></trkpt><trkpt lat="14.441911880351869" lon="120.9246444894113"><ele>8.0</ele><time>2026-05-06T10:18:11.001Z</time></trkpt><trkpt lat="14.442029625058282" lon="120.92457265637947"><ele>8.0</ele><time>2026-05-06T10:18:13.001Z</time></trkpt><trkpt lat="14.442087856612712" lon="120.92453902995395"><ele>8.0</ele><time>2026-05-06T10:18:14.001Z</time></trkpt><trkpt lat="14.442145728354493" lon="120.92450801816106"><ele>8.0</ele><time>2026-05-06T10:18:15.001Z</time></trkpt><trkpt lat="14.44223989553605" lon="120.92445876707546"><ele>8.0</ele><time>2026-05-06T10:18:17.001Z</time></trkpt><trkpt lat="14.442335865473607" lon="120.92441196277034"><ele>7.999999999999999</ele><time>2026-05-06T10:18:19.001Z</time></trkpt><trkpt lat="14.44243616447831" lon="120.92435433206482"><ele>8.0</ele><time>2026-05-06T10:18:21.001Z</time></trkpt><trkpt lat="14.442495241222666" lon="120.92432257771982"><ele>8.0</ele><time>2026-05-06T10:18:22.001Z</time></trkpt><trkpt lat="14.44255607512773" lon="120.9242897467742"><ele>8.0</ele><time>2026-05-06T10:18:23.001Z</time></trkpt><trkpt lat="14.442617482841765" lon="120.92425828264791"><ele>7.999999999999999</ele><time>2026-05-06T10:18:24.001Z</time></trkpt><trkpt lat="14.442680355367205" lon="120.92422251160814"><ele>8.0</ele><time>2026-05-06T10:18:25.001Z</time></trkpt><trkpt lat="14.442745231020986" lon="120.92418666756555"><ele>7.999999999999999</ele><time>2026-05-06T10:18:26.001Z</time></trkpt><trkpt lat="14.442808457032996" lon="120.92415348301606"><ele>8.0</ele><time>2026-05-06T10:18:27.001Z</time></trkpt><trkpt lat="14.442869161655356" lon="120.92412112917881"><ele>8.0</ele><time>2026-05-06T10:18:28.001Z</time></trkpt><trkpt lat="14.442927917768762" lon="120.9240917358751"><ele>8.0</ele><time>2026-05-06T10:18:29.001Z</time></trkpt><trkpt lat="14.443027481553735" lon="120.92403841140795"><ele>7.999999999999999</ele><time>2026-05-06T10:18:31.001Z</time></trkpt><trkpt lat="14.443100204135959" lon="120.92400004015227"><ele>8.0</ele><time>2026-05-06T10:18:33.001Z</time></trkpt><trkpt lat="14.44316802973048" lon="120.92396252806108"><ele>7.999999999999999</ele><time>2026-05-06T10:18:40.001Z</time></trkpt><trkpt lat="14.443228353066793" lon="120.92393040191772"><ele>8.0</ele><time>2026-05-06T10:18:45.001Z</time></trkpt><trkpt lat="14.443303940349836" lon="120.92388640126214"><ele>8.0</ele><time>2026-05-06T10:18:48.001Z</time></trkpt><trkpt lat="14.443389784809593" lon="120.92384569549675"><ele>8.0</ele><time>2026-05-06T10:18:50.001Z</time></trkpt><trkpt lat="14.443461315060443" lon="120.9238153343491"><ele>7.999999999999999</ele><time>2026-05-06T10:18:52.001Z</time></trkpt><trkpt lat="14.443527352158922" lon="120.92377775158894"><ele>8.0</ele><time>2026-05-06T10:18:55.001Z</time></trkpt><trkpt lat="14.443595029662957" lon="120.92375130052905"><ele>7.999999999999999</ele><time>2026-05-06T10:18:57.001Z</time></trkpt><trkpt lat="14.443667187890624" lon="120.92371628968303"><ele>8.0</ele><time>2026-05-06T10:18:59.001Z</time></trkpt><trkpt lat="14.443738232565297" lon="120.92369045322583"><ele>8.0</ele><time>2026-05-06T10:19:01.001Z</time></trkpt><trkpt lat="14.443822437505283" lon="120.92367094488696"><ele>8.0</ele><time>2026-05-06T10:19:03.001Z</time></trkpt><trkpt lat="14.443914824599208" lon="120.92365338780877"><ele>7.999999999999999</ele><time>2026-05-06T10:19:05.001Z</time></trkpt><trkpt lat="14.444022348662692" lon="120.92364042123228"><ele>8.0</ele><time>2026-05-06T10:19:07.001Z</time></trkpt><trkpt lat="14.44414105142029" lon="120.92362245268168"><ele>7.833333333333333</ele><time>2026-05-06T10:19:09.001Z</time></trkpt><trkpt lat="14.44421305381491" lon="120.92361185893326"><ele>7.666666666666666</ele><time>2026-05-06T10:19:10.001Z</time></trkpt><trkpt lat="14.444274949486857" lon="120.92359652407282"><ele>7.5</ele><time>2026-05-06T10:19:11.001Z</time></trkpt><trkpt lat="14.444364745942279" lon="120.92358191037884"><ele>7.333333333333334</ele><time>2026-05-06T10:19:12.001Z</time></trkpt><trkpt lat="14.444437579498869" lon="120.92357163016565"><ele>7.166666666666667</ele><time>2026-05-06T10:19:13.001Z</time></trkpt><trkpt lat="14.444511794972769" lon="120.92355830630704"><ele>7.0</ele><time>2026-05-06T10:19:14.001Z</time></trkpt><trkpt lat="14.44459628683176" lon="120.9235373471244"><ele>6.833333333333334</ele><time>2026-05-06T10:19:15.001Z</time></trkpt><trkpt lat="14.444680460966504" lon="120.92351972975968"><ele>6.666666666666667</ele><time>2026-05-06T10:19:16.001Z</time></trkpt><trkpt lat="14.444753539217826" lon="120.92350733415307"><ele>6.5</ele><time>2026-05-06T10:19:17.001Z</time></trkpt><trkpt lat="14.444817583802068" lon="120.92349694501307"><ele>6.333333333333334</ele><time>2026-05-06T10:19:18.001Z</time></trkpt><trkpt lat="14.444919189971111" lon="120.92347101045564"><ele>6.166666666666667</ele><time>2026-05-06T10:19:20.001Z</time></trkpt><trkpt lat="14.445011133775672" lon="120.92345396744115"><ele>6.0</ele><time>2026-05-06T10:19:22.001Z</time></trkpt><trkpt lat="14.445076597268317" lon="120.92344545239578"><ele>6.0</ele><time>2026-05-06T10:19:24.001Z</time></trkpt><trkpt lat="14.445143822585433" lon="120.92343455460042"><ele>6.0</ele><time>2026-05-06T10:19:26.001Z</time></trkpt><trkpt lat="14.445250406860493" lon="120.92341895582156"><ele>6.0</ele><time>2026-05-06T10:19:29.001Z</time></trkpt><trkpt lat="14.445343854915519" lon="120.92339858429409"><ele>6.0</ele><time>2026-05-06T10:19:31.001Z</time></trkpt><trkpt lat="14.44544086700136" lon="120.92338203267701"><ele>6.0</ele><time>2026-05-06T10:19:33.001Z</time></trkpt><trkpt lat="14.445532947219723" lon="120.92335958658308"><ele>6.0</ele><time>2026-05-06T10:19:35.001Z</time></trkpt><trkpt lat="14.445617892595505" lon="120.92334624074752"><ele>6.0</ele><time>2026-05-06T10:19:37.001Z</time></trkpt><trkpt lat="14.44572775336254" lon="120.92332885274887"><ele>6.0</ele><time>2026-05-06T10:19:39.001Z</time></trkpt><trkpt lat="14.445833027370862" lon="120.92331532839265"><ele>6.0</ele><time>2026-05-06T10:19:41.001Z</time></trkpt><trkpt lat="14.44593009548449" lon="120.92331649859766"><ele>6.0</ele><time>2026-05-06T10:19:43.001Z</time></trkpt><trkpt lat="14.445993405980722" lon="120.92331238861966"><ele>5.999999999999999</ele><time>2026-05-06T10:19:45.001Z</time></trkpt><trkpt lat="14.446066615969748" lon="120.92332123477823"><ele>6.0</ele><time>2026-05-06T10:19:47.001Z</time></trkpt><trkpt lat="14.446149748081194" lon="120.92333204686298"><ele>6.0</ele><time>2026-05-06T10:19:49.001Z</time></trkpt><trkpt lat="14.446217649000117" lon="120.92334266284334"><ele>6.0</ele><time>2026-05-06T10:19:53.001Z</time></trkpt><trkpt lat="14.446283167273512" lon="120.92335601457839"><ele>6.0</ele><time>2026-05-06T10:19:55.001Z</time></trkpt><trkpt lat="14.446346664603185" lon="120.92336743610007"><ele>5.999999999999999</ele><time>2026-05-06T10:19:57.001Z</time></trkpt><trkpt lat="14.446423738135334" lon="120.92338713029183"><ele>6.0</ele><time>2026-05-06T10:19:59.001Z</time></trkpt><trkpt lat="14.446488874773701" lon="120.92339999265785"><ele>6.285714285714285</ele><time>2026-05-06T10:20:01.001Z</time></trkpt><trkpt lat="14.446557640059787" lon="120.92341033984914"><ele>6.571428571428571</ele><time>2026-05-06T10:20:03.001Z</time></trkpt><trkpt lat="14.446624638037349" lon="120.92341979471946"><ele>6.857142857142857</ele><time>2026-05-06T10:20:05.001Z</time></trkpt><trkpt lat="14.446693629717506" lon="120.92343083454708"><ele>7.142857142857142</ele><time>2026-05-06T10:20:07.001Z</time></trkpt><trkpt lat="14.446758701025367" lon="120.92344156506651"><ele>7.428571428571428</ele><time>2026-05-06T10:20:09.001Z</time></trkpt><trkpt lat="14.446831121450007" lon="120.9234509683174"><ele>7.7142857142857135</ele><time>2026-05-06T10:20:12.001Z</time></trkpt><trkpt lat="14.44691813034094" lon="120.92345600592894"><ele>8.0</ele><time>2026-05-06T10:20:15.001Z</time></trkpt><trkpt lat="14.446993969651682" lon="120.92346903692022"><ele>8.0</ele><time>2026-05-06T10:20:18.001Z</time></trkpt><trkpt lat="14.447087829210947" lon="120.92347187683862"><ele>8.0</ele><time>2026-05-06T10:20:21.001Z</time></trkpt><trkpt lat="14.447208560258694" lon="120.92346924025566"><ele>8.0</ele><time>2026-05-06T10:20:23.001Z</time></trkpt><trkpt lat="14.44727803584879" lon="120.92347226348073"><ele>8.0</ele><time>2026-05-06T10:20:24.001Z</time></trkpt><trkpt lat="14.44734497790476" lon="120.92347268151569"><ele>8.0</ele><time>2026-05-06T10:20:25.001Z</time></trkpt><trkpt lat="14.447451749946874" lon="120.92347151633501"><ele>8.200000000000001</ele><time>2026-05-06T10:20:27.001Z</time></trkpt><trkpt lat="14.447574456884496" lon="120.9234646918885"><ele>8.4</ele><time>2026-05-06T10:20:29.001Z</time></trkpt><trkpt lat="14.447689803929022" lon="120.9234579625416"><ele>8.600000000000001</ele><time>2026-05-06T10:20:31.001Z</time></trkpt><trkpt lat="14.447773797866734" lon="120.92345162094941"><ele>8.8</ele><time>2026-05-06T10:20:33.001Z</time></trkpt><trkpt lat="14.44786565880445" lon="120.92344931637979"><ele>9.0</ele><time>2026-05-06T10:20:35.001Z</time></trkpt><trkpt lat="14.447952062143749" lon="120.92344815636463"><ele>8.6</ele><time>2026-05-06T10:20:37.001Z</time></trkpt><trkpt lat="14.44803490486682" lon="120.92344042979146"><ele>8.2</ele><time>2026-05-06T10:20:39.001Z</time></trkpt><trkpt lat="14.448119193798998" lon="120.92343358238155"><ele>7.799999999999999</ele><time>2026-05-06T10:20:41.001Z</time></trkpt><trkpt lat="14.448230332476495" lon="120.92343409289747"><ele>7.3999999999999995</ele><time>2026-05-06T10:20:43.001Z</time></trkpt><trkpt lat="14.448337182298697" lon="120.92342529434234"><ele>7.0</ele><time>2026-05-06T10:20:45.001Z</time></trkpt><trkpt lat="14.448424045730356" lon="120.92341485233425"><ele>7.000000000000001</ele><time>2026-05-06T10:20:47.001Z</time></trkpt><trkpt lat="14.448492514100627" lon="120.92340618451952"><ele>7.0</ele><time>2026-05-06T10:20:48.001Z</time></trkpt><trkpt lat="14.448627878356813" lon="120.92339277707822"><ele>7.0</ele><time>2026-05-06T10:20:50.001Z</time></trkpt><trkpt lat="14.448698571800307" lon="120.9233865318828"><ele>7.0</ele><time>2026-05-06T10:20:51.001Z</time></trkpt><trkpt lat="14.44876782927769" lon="120.92338703988155"><ele>7.000000000000001</ele><time>2026-05-06T10:20:52.001Z</time></trkpt><trkpt lat="14.448863909484416" lon="120.92338680569775"><ele>7.0</ele><time>2026-05-06T10:20:54.001Z</time></trkpt><trkpt lat="14.448927631893373" lon="120.92338321433053"><ele>7.0</ele><time>2026-05-06T10:20:56.001Z</time></trkpt><trkpt lat="14.448991573891034" lon="120.92338357849107"><ele>7.0</ele><time>2026-05-06T10:20:58.001Z</time></trkpt><trkpt lat="14.449065385981303" lon="120.92337729187827"><ele>7.0</ele><time>2026-05-06T10:21:00.001Z</time></trkpt><trkpt lat="14.449133846568465" lon="120.92337304690534"><ele>7.0</ele><time>2026-05-06T10:21:02.001Z</time></trkpt><trkpt lat="14.449222123867683" lon="120.92335269806013"><ele>7.0</ele><time>2026-05-06T10:21:05.001Z</time></trkpt><trkpt lat="14.449285331560489" lon="120.9233321798436"><ele>7.0</ele><time>2026-05-06T10:21:07.001Z</time></trkpt><trkpt lat="14.449365721966673" lon="120.92331136138317"><ele>7.0</ele><time>2026-05-06T10:21:12.001Z</time></trkpt><trkpt lat="14.449454723642942" lon="120.92328586217673"><ele>7.0</ele><time>2026-05-06T10:21:15.001Z</time></trkpt><trkpt lat="14.449529770293042" lon="120.92325721596922"><ele>7.0</ele><time>2026-05-06T10:21:18.001Z</time></trkpt><trkpt lat="14.449592787182755" lon="120.92322463931303"><ele>7.0</ele><time>2026-05-06T10:21:20.001Z</time></trkpt><trkpt lat="14.4496613372093" lon="120.92320088026489"><ele>7.0</ele><time>2026-05-06T10:21:22.001Z</time></trkpt><trkpt lat="14.449728694206557" lon="120.9231837384873"><ele>7.0</ele><time>2026-05-06T10:21:25.001Z</time></trkpt><trkpt lat="14.449797559160357" lon="120.92315742826754"><ele>7.0</ele><time>2026-05-06T10:21:41.001Z</time></trkpt><trkpt lat="14.449834588369074" lon="120.92310330644325"><ele>7.0</ele><time>2026-05-06T10:21:49.001Z</time></trkpt><trkpt lat="14.449823998778525" lon="120.92301306144633"><ele>7.000000000000001</ele><time>2026-05-06T10:21:53.001Z</time></trkpt><trkpt lat="14.449781414565777" lon="120.92291204254386"><ele>7.0</ele><time>2026-05-06T10:21:55.001Z</time></trkpt><trkpt lat="14.449756859584834" lon="120.92284999988189"><ele>7.0</ele><time>2026-05-06T10:21:56.001Z</time></trkpt><trkpt lat="14.44974570248573" lon="120.92278208383628"><ele>7.0</ele><time>2026-05-06T10:21:57.001Z</time></trkpt><trkpt lat="14.449726005919679" lon="120.92269127021837"><ele>7.000000000000001</ele><time>2026-05-06T10:21:59.001Z</time></trkpt><trkpt lat="14.449705783100162" lon="120.92261513059847"><ele>7.0</ele><time>2026-05-06T10:22:02.001Z</time></trkpt><trkpt lat="14.449679222107202" lon="120.92253348523828"><ele>7.000000000000001</ele><time>2026-05-06T10:22:05.001Z</time></trkpt><trkpt lat="14.449653156009441" lon="120.92245638609639"><ele>7.0</ele><time>2026-05-06T10:22:08.001Z</time></trkpt><trkpt lat="14.44963509273645" lon="120.92239214867934"><ele>7.0</ele><time>2026-05-06T10:22:15.001Z</time></trkpt><trkpt lat="14.449606665507115" lon="120.9223076193853"><ele>7.0</ele><time>2026-05-06T10:22:20Z</time></trkpt><trkpt lat="14.449578404365807" lon="120.92222376270576"><ele>7.000000000000001</ele><time>2026-05-06T10:22:25Z</time></trkpt><trkpt lat="14.449556502051104" lon="120.9221560619161"><ele>7.0</ele><time>2026-05-06T10:22:28Z</time></trkpt><trkpt lat="14.4495380680452" lon="120.92207051448253"><ele>7.000000000000001</ele><time>2026-05-06T10:22:36Z</time></trkpt><trkpt lat="14.449514958164254" lon="120.92198804687189"><ele>7.0</ele><time>2026-05-06T10:22:39Z</time></trkpt><trkpt lat="14.449495244298891" lon="120.92188362904314"><ele>7.0</ele><time>2026-05-06T10:22:41Z</time></trkpt><trkpt lat="14.449462883236933" lon="120.92178802156154"><ele>7.0</ele><time>2026-05-06T10:22:43Z</time></trkpt><trkpt lat="14.449440727224971" lon="120.92172067706117"><ele>7.000000000000001</ele><time>2026-05-06T10:22:45Z</time></trkpt><trkpt lat="14.44941089616098" lon="120.92165679587788"><ele>7.0</ele><time>2026-05-06T10:22:48Z</time></trkpt><trkpt lat="14.449391977765297" lon="120.92159215359237"><ele>6.8</ele><time>2026-05-06T10:22:52Z</time></trkpt><trkpt lat="14.449368833493414" lon="120.92151482415038"><ele>6.6</ele><time>2026-05-06T10:22:54Z</time></trkpt><trkpt lat="14.4493437208713" lon="120.92143548343783"><ele>6.3999999999999995</ele><time>2026-05-06T10:22:56Z</time></trkpt><trkpt lat="14.449309392355326" lon="120.92133484573867"><ele>6.199999999999999</ele><time>2026-05-06T10:22:58Z</time></trkpt><trkpt lat="14.449276515611606" lon="120.9212291512073"><ele>6.0</ele><time>2026-05-06T10:23:00Z</time></trkpt><trkpt lat="14.449239695554041" lon="120.92111466292005"><ele>6.0</ele><time>2026-05-06T10:23:02Z</time></trkpt><trkpt lat="14.449206484720138" lon="120.92100834422556"><ele>6.0</ele><time>2026-05-06T10:23:04Z</time></trkpt><trkpt lat="14.449173693570746" lon="120.92090231502002"><ele>6.0</ele><time>2026-05-06T10:23:06Z</time></trkpt><trkpt lat="14.449143276266689" lon="120.92078444479516"><ele>6.0</ele><time>2026-05-06T10:23:08Z</time></trkpt><trkpt lat="14.44912836316031" lon="120.92072114465266"><ele>6.0</ele><time>2026-05-06T10:23:09Z</time></trkpt><trkpt lat="14.449096446248022" lon="120.92060939628752"><ele>6.0</ele><time>2026-05-06T10:23:11Z</time></trkpt><trkpt lat="14.449070045594532" lon="120.92050105621898"><ele>6.0</ele><time>2026-05-06T10:23:13Z</time></trkpt><trkpt lat="14.44904440954428" lon="120.9203946337013"><ele>6.0</ele><time>2026-05-06T10:23:15Z</time></trkpt><trkpt lat="14.449016635981545" lon="120.92028353478234"><ele>6.0</ele><time>2026-05-06T10:23:17Z</time></trkpt><trkpt lat="14.448988806231823" lon="120.92016735534641"><ele>6.0</ele><time>2026-05-06T10:23:19Z</time></trkpt><trkpt lat="14.448973930474137" lon="120.92009862628683"><ele>6.0</ele><time>2026-05-06T10:23:20Z</time></trkpt><trkpt lat="14.448957961042069" lon="120.9200115550423"><ele>6.0</ele><time>2026-05-06T10:23:21Z</time></trkpt><trkpt lat="14.448939134026835" lon="120.91991727505548"><ele>6.0</ele><time>2026-05-06T10:23:22Z</time></trkpt><trkpt lat="14.448918308585476" lon="120.91983156155864"><ele>6.0</ele><time>2026-05-06T10:23:23Z</time></trkpt><trkpt lat="14.448898661706105" lon="120.91975615743044"><ele>6.0</ele><time>2026-05-06T10:23:24Z</time></trkpt><trkpt lat="14.44887757537623" lon="120.9196787629889"><ele>6.0</ele><time>2026-05-06T10:23:25Z</time></trkpt><trkpt lat="14.448858614444942" lon="120.91959911099828"><ele>5.999999999999999</ele><time>2026-05-06T10:23:26Z</time></trkpt><trkpt lat="14.448840545708633" lon="120.91952951565646"><ele>6.0</ele><time>2026-05-06T10:23:27Z</time></trkpt><trkpt lat="14.448821752273892" lon="120.919460468244"><ele>6.0</ele><time>2026-05-06T10:23:28Z</time></trkpt><trkpt lat="14.448806628974681" lon="120.9193958071994"><ele>6.0</ele><time>2026-05-06T10:23:29Z</time></trkpt><trkpt lat="14.44878927017346" lon="120.91933281703326"><ele>6.0</ele><time>2026-05-06T10:23:30Z</time></trkpt><trkpt lat="14.448766650057044" lon="120.91926375050959"><ele>5.999999999999999</ele><time>2026-05-06T10:23:31Z</time></trkpt><trkpt lat="14.44873365548593" lon="120.91918569931794"><ele>6.0</ele><time>2026-05-06T10:23:32Z</time></trkpt><trkpt lat="14.44869491795927" lon="120.91909714599333"><ele>5.8</ele><time>2026-05-06T10:23:33Z</time></trkpt><trkpt lat="14.448654358363338" lon="120.91900318649728"><ele>5.6</ele><time>2026-05-06T10:23:34Z</time></trkpt><trkpt lat="14.448608053687765" lon="120.91889909175718"><ele>5.4</ele><time>2026-05-06T10:23:35Z</time></trkpt><trkpt lat="14.448568109145581" lon="120.91879066734101"><ele>5.2</ele><time>2026-05-06T10:23:36Z</time></trkpt><trkpt lat="14.448533057599857" lon="120.91867699790824"><ele>5.0</ele><time>2026-05-06T10:23:37Z</time></trkpt><trkpt lat="14.448502115277611" lon="120.91856788269585"><ele>5.0</ele><time>2026-05-06T10:23:38Z</time></trkpt><trkpt lat="14.448467804312722" lon="120.91845996171577"><ele>5.0</ele><time>2026-05-06T10:23:39Z</time></trkpt><trkpt lat="14.448445993010841" lon="120.91837770238469"><ele>5.0</ele><time>2026-05-06T10:23:40Z</time></trkpt><trkpt lat="14.44841762610169" lon="120.91829052295562"><ele>5.0</ele><time>2026-05-06T10:23:41Z</time></trkpt><trkpt lat="14.448388610333406" lon="120.91820305875788"><ele>5.0</ele><time>2026-05-06T10:23:42Z</time></trkpt><trkpt lat="14.448356844474485" lon="120.91811410803602"><ele>5.0</ele><time>2026-05-06T10:23:43Z</time></trkpt><trkpt lat="14.448329523672946" lon="120.91803394571734"><ele>5.0</ele><time>2026-05-06T10:23:44Z</time></trkpt><trkpt lat="14.448305107341879" lon="120.91795261144439"><ele>5.0</ele><time>2026-05-06T10:23:45Z</time></trkpt><trkpt lat="14.448275639128513" lon="120.91786487351828"><ele>5.0</ele><time>2026-05-06T10:23:46Z</time></trkpt><trkpt lat="14.448244995945215" lon="120.91777628666863"><ele>5.0</ele><time>2026-05-06T10:23:47Z</time></trkpt><trkpt lat="14.448210967416887" lon="120.91769360833662"><ele>5.0</ele><time>2026-05-06T10:23:48Z</time></trkpt><trkpt lat="14.448180997859144" lon="120.91762090961888"><ele>5.0</ele><time>2026-05-06T10:23:49Z</time></trkpt><trkpt lat="14.448136579070068" lon="120.91753387933142"><ele>5.0</ele><time>2026-05-06T10:23:50Z</time></trkpt><trkpt lat="14.448109729651119" lon="120.91746050009614"><ele>5.0</ele><time>2026-05-06T10:23:51Z</time></trkpt><trkpt lat="14.448085685635549" lon="120.91739482436928"><ele>5.0</ele><time>2026-05-06T10:23:52Z</time></trkpt><trkpt lat="14.44805209674994" lon="120.91731673718574"><ele>5.0</ele><time>2026-05-06T10:23:53Z</time></trkpt><trkpt lat="14.448015645787722" lon="120.9172452225125"><ele>5.0</ele><time>2026-05-06T10:23:54Z</time></trkpt><trkpt lat="14.447974103278835" lon="120.9171754304285"><ele>5.333333333333334</ele><time>2026-05-06T10:23:55Z</time></trkpt><trkpt lat="14.447933546518934" lon="120.91710839119136"><ele>5.666666666666667</ele><time>2026-05-06T10:23:56Z</time></trkpt><trkpt lat="14.447895383216546" lon="120.9170394495318"><ele>6.0</ele><time>2026-05-06T10:23:57Z</time></trkpt><trkpt lat="14.447852627731313" lon="120.91696568229098"><ele>6.333333333333334</ele><time>2026-05-06T10:23:58Z</time></trkpt><trkpt lat="14.447809472036358" lon="120.91688372062"><ele>6.666666666666667</ele><time>2026-05-06T10:23:59Z</time></trkpt><trkpt lat="14.44776195763145" lon="120.9167970048137"><ele>7.0</ele><time>2026-05-06T10:24:00Z</time></trkpt><trkpt lat="14.447718224265413" lon="120.91671193577912"><ele>7.000000000000001</ele><time>2026-05-06T10:24:01Z</time></trkpt><trkpt lat="14.447670495143164" lon="120.91663158470821"><ele>7.0</ele><time>2026-05-06T10:24:02Z</time></trkpt><trkpt lat="14.447620001378649" lon="120.91654240285308"><ele>7.0</ele><time>2026-05-06T10:24:03Z</time></trkpt><trkpt lat="14.447574942693505" lon="120.91646187757749"><ele>7.0</ele><time>2026-05-06T10:24:04Z</time></trkpt><trkpt lat="14.447536443864987" lon="120.91639093564348"><ele>7.000000000000001</ele><time>2026-05-06T10:24:05Z</time></trkpt><trkpt lat="14.447505311693792" lon="120.91632734441224"><ele>7.0</ele><time>2026-05-06T10:24:06Z</time></trkpt><trkpt lat="14.447475753646613" lon="120.91626839921926"><ele>7.000000000000001</ele><time>2026-05-06T10:24:07Z</time></trkpt><trkpt lat="14.447433626305264" lon="120.91617189423759"><ele>7.0</ele><time>2026-05-06T10:24:09Z</time></trkpt><trkpt lat="14.447401455474509" lon="120.91610695569572"><ele>7.0</ele><time>2026-05-06T10:24:11Z</time></trkpt><trkpt lat="14.447368524194324" lon="120.9160244293149"><ele>7.0</ele><time>2026-05-06T10:24:14Z</time></trkpt><trkpt lat="14.4473465253279" lon="120.9159572077803"><ele>7.000000000000001</ele><time>2026-05-06T10:24:18Z</time></trkpt><trkpt lat="14.447312795414929" lon="120.91589508933924"><ele>7.0</ele><time>2026-05-06T10:26:26Z</time></trkpt><trkpt lat="14.447269859165282" lon="120.91583597674914"><ele>6.666666666666667</ele><time>2026-05-06T10:26:29Z</time></trkpt><trkpt lat="14.447230946188522" lon="120.91576405149046"><ele>6.333333333333334</ele><time>2026-05-06T10:26:33Z</time></trkpt><trkpt lat="14.4471972296954" lon="120.91570341103807"><ele>6.0</ele><time>2026-05-06T10:26:37Z</time></trkpt><trkpt lat="14.447162475540564" lon="120.91564689067425"><ele>5.666666666666667</ele><time>2026-05-06T10:26:39Z</time></trkpt><trkpt lat="14.447130607636291" lon="120.91558879560674"><ele>5.333333333333334</ele><time>2026-05-06T10:26:41Z</time></trkpt><trkpt lat="14.447084289469633" lon="120.91550032433058"><ele>5.0</ele><time>2026-05-06T10:26:43Z</time></trkpt><trkpt lat="14.447058421866661" lon="120.9153731312636"><ele>5.0</ele><time>2026-05-06T10:26:45Z</time></trkpt><trkpt lat="14.447057518413796" lon="120.91529575033995"><ele>5.0</ele><time>2026-05-06T10:26:46Z</time></trkpt><trkpt lat="14.446996807699625" lon="120.91526669592409"><ele>5.0</ele><time>2026-05-06T10:26:47Z</time></trkpt><trkpt lat="14.446974552043146" lon="120.91519982432057"><ele>5.0</ele><time>2026-05-06T10:26:48Z</time></trkpt><trkpt lat="14.446958229881076" lon="120.91513200356492"><ele>5.0</ele><time>2026-05-06T10:26:49Z</time></trkpt><trkpt lat="14.446948439802771" lon="120.91504377831394"><ele>5.0</ele><time>2026-05-06T10:26:50Z</time></trkpt><trkpt lat="14.446936121739213" lon="120.91495520421867"><ele>5.142857142857142</ele><time>2026-05-06T10:26:51Z</time></trkpt><trkpt lat="14.446934043293808" lon="120.91487152297755"><ele>5.285714285714286</ele><time>2026-05-06T10:26:52Z</time></trkpt><trkpt lat="14.446923396998102" lon="120.91477891998775"><ele>5.428571428571429</ele><time>2026-05-06T10:26:53Z</time></trkpt><trkpt lat="14.446918228588503" lon="120.91470669749293"><ele>5.571428571428571</ele><time>2026-05-06T10:26:54Z</time></trkpt><trkpt lat="14.446917284971995" lon="120.91463912763872"><ele>5.714285714285714</ele><time>2026-05-06T10:26:55Z</time></trkpt><trkpt lat="14.446912428022133" lon="120.9145720048563"><ele>5.857142857142857</ele><time>2026-05-06T10:26:56Z</time></trkpt><trkpt lat="14.44690680401822" lon="120.91450287023869"><ele>6.0</ele><time>2026-05-06T10:26:57Z</time></trkpt><trkpt lat="14.446896203307526" lon="120.91442695077545"><ele>6.0</ele><time>2026-05-06T10:26:58Z</time></trkpt><trkpt lat="14.446890034114054" lon="120.91436132967046"><ele>6.0</ele><time>2026-05-06T10:26:59Z</time></trkpt><trkpt lat="14.446869713231111" lon="120.91423645973988"><ele>6.0</ele><time>2026-05-06T10:27:01Z</time></trkpt><trkpt lat="14.446858647890513" lon="120.91414506022254"><ele>6.0</ele><time>2026-05-06T10:27:03Z</time></trkpt><trkpt lat="14.446845973265638" lon="120.91406833424357"><ele>6.0</ele><time>2026-05-06T10:27:05Z</time></trkpt><trkpt lat="14.446835857229896" lon="120.91396285932476"><ele>6.0</ele><time>2026-05-06T10:27:07Z</time></trkpt><trkpt lat="14.446828258407638" lon="120.91382033638943"><ele>6.0</ele><time>2026-05-06T10:27:09Z</time></trkpt><trkpt lat="14.446820440613754" lon="120.91374386229191"><ele>6.0</ele><time>2026-05-06T10:27:10Z</time></trkpt><trkpt lat="14.446814041555632" lon="120.91366952314065"><ele>6.0</ele><time>2026-05-06T10:27:11Z</time></trkpt><trkpt lat="14.446803306342824" lon="120.91359326109998"><ele>6.0</ele><time>2026-05-06T10:27:12Z</time></trkpt><trkpt lat="14.446789001568565" lon="120.91346749760991"><ele>6.0</ele><time>2026-05-06T10:27:14Z</time></trkpt><trkpt lat="14.446776444154555" lon="120.91332252150076"><ele>6.0</ele><time>2026-05-06T10:27:16Z</time></trkpt><trkpt lat="14.446775761070391" lon="120.91325631525392"><ele>6.0</ele><time>2026-05-06T10:27:17Z</time></trkpt><trkpt lat="14.446771586587207" lon="120.91314932096645"><ele>6.0</ele><time>2026-05-06T10:27:19Z</time></trkpt><trkpt lat="14.446764055759632" lon="120.91303844471024"><ele>6.0</ele><time>2026-05-06T10:27:21Z</time></trkpt><trkpt lat="14.446759144532644" lon="120.91296230931168"><ele>6.0</ele><time>2026-05-06T10:27:23Z</time></trkpt><trkpt lat="14.446752432935563" lon="120.91286385673605"><ele>6.0</ele><time>2026-05-06T10:27:25Z</time></trkpt><trkpt lat="14.446747015760568" lon="120.91273325395709"><ele>6.0</ele><time>2026-05-06T10:27:27Z</time></trkpt><trkpt lat="14.446742664701459" lon="120.91265548973952"><ele>6.0</ele><time>2026-05-06T10:27:28Z</time></trkpt><trkpt lat="14.446740760542243" lon="120.91257604463763"><ele>6.0</ele><time>2026-05-06T10:27:29Z</time></trkpt><trkpt lat="14.446736705959376" lon="120.91248967291176"><ele>6.0</ele><time>2026-05-06T10:27:30Z</time></trkpt><trkpt lat="14.446733481138418" lon="120.91240670317924"><ele>6.0</ele><time>2026-05-06T10:27:31Z</time></trkpt><trkpt lat="14.446734688967513" lon="120.91232294016747"><ele>6.0</ele><time>2026-05-06T10:27:32Z</time></trkpt><trkpt lat="14.446729910598682" lon="120.9122486688798"><ele>6.0</ele><time>2026-05-06T10:27:33Z</time></trkpt><trkpt lat="14.446727956522809" lon="120.91217687167347"><ele>6.0</ele><time>2026-05-06T10:27:34Z</time></trkpt><trkpt lat="14.446722391542467" lon="120.91211153297978"><ele>6.0</ele><time>2026-05-06T10:27:35Z</time></trkpt><trkpt lat="14.446712032614167" lon="120.91199423320843"><ele>6.0</ele><time>2026-05-06T10:27:37Z</time></trkpt><trkpt lat="14.446702233866718" lon="120.91188278826822"><ele>6.0</ele><time>2026-05-06T10:27:39Z</time></trkpt><trkpt lat="14.446697567401891" lon="120.91181190603336"><ele>6.0</ele><time>2026-05-06T10:27:41Z</time></trkpt><trkpt lat="14.446684227567937" lon="120.91171923221422"><ele>6.0</ele><time>2026-05-06T10:27:44Z</time></trkpt><trkpt lat="14.446668854501043" lon="120.91165183057257"><ele>6.0</ele><time>2026-05-06T10:27:47Z</time></trkpt><trkpt lat="14.446655326816305" lon="120.91157378218386"><ele>6.0</ele><time>2026-05-06T10:27:50Z</time></trkpt><trkpt lat="14.446656131737358" lon="120.91150060481276"><ele>6.199999999999999</ele><time>2026-05-06T10:27:52Z</time></trkpt><trkpt lat="14.446645050318972" lon="120.91142756620701"><ele>6.3999999999999995</ele><time>2026-05-06T10:27:54Z</time></trkpt><trkpt lat="14.446618167774364" lon="120.91129705540608"><ele>6.6</ele><time>2026-05-06T10:27:56Z</time></trkpt><trkpt lat="14.446595436745348" lon="120.91119448939742"><ele>6.8</ele><time>2026-05-06T10:27:58Z</time></trkpt><trkpt lat="14.446580039249147" lon="120.91110222656692"><ele>7.0</ele><time>2026-05-06T10:28:00Z</time></trkpt><trkpt lat="14.446564658602094" lon="120.91101888723922"><ele>7.0</ele><time>2026-05-06T10:28:02Z</time></trkpt><trkpt lat="14.446545119477236" lon="120.91093192804347"><ele>6.999999999999999</ele><time>2026-05-06T10:28:04Z</time></trkpt><trkpt lat="14.44653003577633" lon="120.91084625863061"><ele>6.999999999999999</ele><time>2026-05-06T10:28:06Z</time></trkpt><trkpt lat="14.446507866512166" lon="120.9107365789086"><ele>7.0</ele><time>2026-05-06T10:28:08Z</time></trkpt><trkpt lat="14.44648241701505" lon="120.9106450126803"><ele>7.0</ele><time>2026-05-06T10:28:10Z</time></trkpt><trkpt lat="14.446459846384439" lon="120.91054821460527"><ele>7.000000000000001</ele><time>2026-05-06T10:28:13Z</time></trkpt><trkpt lat="14.446441136926692" lon="120.91048022527299"><ele>7.0</ele><time>2026-05-06T10:28:15Z</time></trkpt><trkpt lat="14.446421264981861" lon="120.91041400695205"><ele>7.0</ele><time>2026-05-06T10:28:17Z</time></trkpt><trkpt lat="14.446405739941406" lon="120.91032133450737"><ele>7.0</ele><time>2026-05-06T10:28:20Z</time></trkpt><trkpt lat="14.446380802628441" lon="120.91023558983325"><ele>7.000000000000001</ele><time>2026-05-06T10:28:22Z</time></trkpt><trkpt lat="14.446361831058175" lon="120.91013328333356"><ele>7.0</ele><time>2026-05-06T10:28:24Z</time></trkpt><trkpt lat="14.446341664085628" lon="120.91006225708192"><ele>7.000000000000001</ele><time>2026-05-06T10:28:26Z</time></trkpt><trkpt lat="14.446324972673462" lon="120.90999280984373"><ele>7.0</ele><time>2026-05-06T10:28:28Z</time></trkpt><trkpt lat="14.446299796022696" lon="120.90990582307546"><ele>7.0</ele><time>2026-05-06T10:28:30Z</time></trkpt><trkpt lat="14.446272978041419" lon="120.9098063638706"><ele>7.0</ele><time>2026-05-06T10:28:32Z</time></trkpt><trkpt lat="14.446238330358215" lon="120.9097199733399"><ele>7.000000000000001</ele><time>2026-05-06T10:28:34Z</time></trkpt><trkpt lat="14.446214491970808" lon="120.90964547206488"><ele>7.0</ele><time>2026-05-06T10:28:36Z</time></trkpt><trkpt lat="14.446188055974035" lon="120.90957682460805"><ele>7.000000000000001</ele><time>2026-05-06T10:28:38Z</time></trkpt><trkpt lat="14.446164516107846" lon="120.90950547627752"><ele>7.0</ele><time>2026-05-06T10:28:40Z</time></trkpt><trkpt lat="14.446134128854986" lon="120.90942964827376"><ele>7.0</ele><time>2026-05-06T10:28:43Z</time></trkpt><trkpt lat="14.446100968459403" lon="120.9093508093234"><ele>7.0</ele><time>2026-05-06T10:28:47Z</time></trkpt><trkpt lat="14.446075092694661" lon="120.90928401083804"><ele>7.000000000000001</ele><time>2026-05-06T10:28:49Z</time></trkpt><trkpt lat="14.446048952054314" lon="120.90920621592203"><ele>7.0</ele><time>2026-05-06T10:28:51Z</time></trkpt><trkpt lat="14.446016829431489" lon="120.90911977040109"><ele>7.000000000000001</ele><time>2026-05-06T10:28:53Z</time></trkpt><trkpt lat="14.445986697220118" lon="120.90904415109596"><ele>7.0</ele><time>2026-05-06T10:28:55Z</time></trkpt><trkpt lat="14.445961884413038" lon="120.90896799019224"><ele>7.0</ele><time>2026-05-06T10:28:57Z</time></trkpt><trkpt lat="14.445927161530063" lon="120.90889083878395"><ele>7.0</ele><time>2026-05-06T10:28:59Z</time></trkpt><trkpt lat="14.445908962893872" lon="120.90881881399496"><ele>7.000000000000001</ele><time>2026-05-06T10:29:03Z</time></trkpt><trkpt lat="14.445951877083756" lon="120.90873176391706"><ele>7.0</ele><time>2026-05-06T10:29:06Z</time></trkpt><trkpt lat="14.446050938779104" lon="120.9086952732889"><ele>7.0</ele><time>2026-05-06T10:29:09Z</time></trkpt><trkpt lat="14.44615367502721" lon="120.90866725038354"><ele>6.999999999999999</ele><time>2026-05-06T10:29:11Z</time></trkpt><trkpt lat="14.446219675019192" lon="120.90865147206672"><ele>6.999999999999999</ele><time>2026-05-06T10:29:12Z</time></trkpt><trkpt lat="14.446312034266809" lon="120.90862500941485"><ele>7.0</ele><time>2026-05-06T10:29:13Z</time></trkpt><trkpt lat="14.446418786254243" lon="120.90860890125929"><ele>7.0</ele><time>2026-05-06T10:29:14Z</time></trkpt><trkpt lat="14.446528201660309" lon="120.90858623011536"><ele>6.666666666666667</ele><time>2026-05-06T10:29:15Z</time></trkpt><trkpt lat="14.44661769806712" lon="120.90856593458511"><ele>6.333333333333334</ele><time>2026-05-06T10:29:16Z</time></trkpt><trkpt lat="14.446699655526244" lon="120.90854329124294"><ele>6.0</ele><time>2026-05-06T10:29:17Z</time></trkpt><trkpt lat="14.44676987828945" lon="120.90852517185479"><ele>5.666666666666667</ele><time>2026-05-06T10:29:18Z</time></trkpt><trkpt lat="14.446832988622523" lon="120.90849834219763"><ele>5.333333333333334</ele><time>2026-05-06T10:29:19Z</time></trkpt><trkpt lat="14.446899184758626" lon="120.90846479910313"><ele>5.0</ele><time>2026-05-06T10:29:20Z</time></trkpt><trkpt lat="14.446969960630001" lon="120.90840714726438"><ele>5.0</ele><time>2026-05-06T10:29:21Z</time></trkpt><trkpt lat="14.44701152597589" lon="120.90833698067411"><ele>5.0</ele><time>2026-05-06T10:29:22Z</time></trkpt><trkpt lat="14.447033623714976" lon="120.90824881106667"><ele>5.0</ele><time>2026-05-06T10:29:23Z</time></trkpt><trkpt lat="14.447027929098374" lon="120.90816358973593"><ele>5.0</ele><time>2026-05-06T10:29:24Z</time></trkpt><trkpt lat="14.447006053892894" lon="120.90808227264105"><ele>5.0</ele><time>2026-05-06T10:29:25Z</time></trkpt><trkpt lat="14.446982296765247" lon="120.90800385071365"><ele>5.0</ele><time>2026-05-06T10:29:26Z</time></trkpt><trkpt lat="14.446964097049207" lon="120.90792486818539"><ele>5.0</ele><time>2026-05-06T10:29:27Z</time></trkpt><trkpt lat="14.446951216923546" lon="120.90783895518344"><ele>5.0</ele><time>2026-05-06T10:29:28Z</time></trkpt><trkpt lat="14.446938904304517" lon="120.9077571715942"><ele>5.0</ele><time>2026-05-06T10:29:29Z</time></trkpt><trkpt lat="14.446925325750218" lon="120.90767297634665"><ele>5.0</ele><time>2026-05-06T10:29:30Z</time></trkpt><trkpt lat="14.446913013093923" lon="120.90759261349939"><ele>5.0</ele><time>2026-05-06T10:29:31Z</time></trkpt><trkpt lat="14.446902647456273" lon="120.90751844958422"><ele>5.0</ele><time>2026-05-06T10:29:32Z</time></trkpt><trkpt lat="14.446891268612259" lon="120.90744938582306"><ele>5.142857142857142</ele><time>2026-05-06T10:29:33Z</time></trkpt><trkpt lat="14.446881484273698" lon="120.90738481098771"><ele>5.285714285714286</ele><time>2026-05-06T10:29:34Z</time></trkpt><trkpt lat="14.44687211023367" lon="120.9073096626517"><ele>5.428571428571429</ele><time>2026-05-06T10:29:35Z</time></trkpt><trkpt lat="14.446861771060647" lon="120.90723686866818"><ele>5.571428571428571</ele><time>2026-05-06T10:29:36Z</time></trkpt><trkpt lat="14.446849561881397" lon="120.90716634247943"><ele>5.714285714285714</ele><time>2026-05-06T10:29:37Z</time></trkpt><trkpt lat="14.446838106718733" lon="120.90709945236894"><ele>5.857142857142857</ele><time>2026-05-06T10:29:38Z</time></trkpt><trkpt lat="14.4468269037709" lon="120.90702911643376"><ele>6.0</ele><time>2026-05-06T10:29:39Z</time></trkpt><trkpt lat="14.446814683923867" lon="120.90695047511336"><ele>6.0</ele><time>2026-05-06T10:29:40Z</time></trkpt><trkpt lat="14.446801733886216" lon="120.90688527707769"><ele>6.0</ele><time>2026-05-06T10:29:41Z</time></trkpt><trkpt lat="14.446780186203299" lon="120.90675792188026"><ele>6.0</ele><time>2026-05-06T10:29:43Z</time></trkpt><trkpt lat="14.446755254633905" lon="120.90664889696681"><ele>6.0</ele><time>2026-05-06T10:29:45Z</time></trkpt><trkpt lat="14.446716890967707" lon="120.9065788582644"><ele>6.0</ele><time>2026-05-06T10:29:47Z</time></trkpt><trkpt lat="14.446665092973873" lon="120.90653824916835"><ele>6.0</ele><time>2026-05-06T10:29:49Z</time></trkpt><trkpt lat="14.446553836571336" lon="120.90651833959134"><ele>6.0</ele><time>2026-05-06T10:29:51Z</time></trkpt><trkpt lat="14.446437419552543" lon="120.90650548904497"><ele>6.0</ele><time>2026-05-06T10:29:53Z</time></trkpt><trkpt lat="14.446372760905403" lon="120.90649775688807"><ele>6.0</ele><time>2026-05-06T10:29:54Z</time></trkpt><trkpt lat="14.446309529140125" lon="120.90648910025527"><ele>6.0</ele><time>2026-05-06T10:29:55Z</time></trkpt><trkpt lat="14.446232656729903" lon="120.90648279044196"><ele>6.0</ele><time>2026-05-06T10:29:56Z</time></trkpt><trkpt lat="14.446153436911441" lon="120.90647688952689"><ele>6.0</ele><time>2026-05-06T10:29:57Z</time></trkpt><trkpt lat="14.446082842448847" lon="120.90647402665522"><ele>6.0</ele><time>2026-05-06T10:29:58Z</time></trkpt><trkpt lat="14.446011299059734" lon="120.90646763173447"><ele>6.0</ele><time>2026-05-06T10:29:59Z</time></trkpt><trkpt lat="14.445894465721357" lon="120.90645477663297"><ele>6.0</ele><time>2026-05-06T10:30:01Z</time></trkpt><trkpt lat="14.445772019076344" lon="120.90644075116491"><ele>6.0</ele><time>2026-05-06T10:30:03Z</time></trkpt><trkpt lat="14.445708843124473" lon="120.90644176719206"><ele>6.0</ele><time>2026-05-06T10:30:04Z</time></trkpt><trkpt lat="14.445639597330423" lon="120.90644555945987"><ele>6.0</ele><time>2026-05-06T10:30:05Z</time></trkpt><trkpt lat="14.445570805369924" lon="120.90645749148857"><ele>6.0</ele><time>2026-05-06T10:30:06Z</time></trkpt><trkpt lat="14.445474418179955" lon="120.90648464696106"><ele>6.0</ele><time>2026-05-06T10:30:08Z</time></trkpt><trkpt lat="14.445381006520337" lon="120.90652353869811"><ele>6.0</ele><time>2026-05-06T10:30:10Z</time></trkpt><trkpt lat="14.445285999840438" lon="120.90654777349873"><ele>6.0</ele><time>2026-05-06T10:30:12Z</time></trkpt><trkpt lat="14.445221041939018" lon="120.90655112466541"><ele>6.0</ele><time>2026-05-06T10:30:14Z</time></trkpt><trkpt lat="14.445152076381273" lon="120.90651108653941"><ele>6.0</ele><time>2026-05-06T10:30:16Z</time></trkpt><trkpt lat="14.445107204745627" lon="120.90639896687658"><ele>6.166666666666667</ele><time>2026-05-06T10:30:18Z</time></trkpt><trkpt lat="14.44508730263965" lon="120.90633140284484"><ele>6.333333333333334</ele><time>2026-05-06T10:30:19Z</time></trkpt><trkpt lat="14.445060402154098" lon="120.9062128946713"><ele>6.5</ele><time>2026-05-06T10:30:21Z</time></trkpt><trkpt lat="14.44503474401952" lon="120.90609121082522"><ele>6.666666666666667</ele><time>2026-05-06T10:30:23Z</time></trkpt><trkpt lat="14.445018371042456" lon="120.90602330889617"><ele>6.833333333333334</ele><time>2026-05-06T10:30:24Z</time></trkpt><trkpt lat="14.445002576999276" lon="120.90595718826039"><ele>7.0</ele><time>2026-05-06T10:30:25Z</time></trkpt><trkpt lat="14.444983533221599" lon="120.9058865560583"><ele>7.000000000000001</ele><time>2026-05-06T10:30:26Z</time></trkpt><trkpt lat="14.444969519179374" lon="120.90581862487163"><ele>7.0</ele><time>2026-05-06T10:30:27Z</time></trkpt><trkpt lat="14.444952255833863" lon="120.9057506101317"><ele>7.0</ele><time>2026-05-06T10:30:28Z</time></trkpt><trkpt lat="14.4449334652405" lon="120.90567076192889"><ele>7.0</ele><time>2026-05-06T10:30:29Z</time></trkpt><trkpt lat="14.444909751056771" lon="120.90558533288731"><ele>7.000000000000001</ele><time>2026-05-06T10:30:30Z</time></trkpt><trkpt lat="14.444892976255119" lon="120.90551010335942"><ele>7.0</ele><time>2026-05-06T10:30:31Z</time></trkpt><trkpt lat="14.444863608028427" lon="120.90543557665815"><ele>7.000000000000001</ele><time>2026-05-06T10:30:32Z</time></trkpt><trkpt lat="14.44484073467316" lon="120.90535260358763"><ele>7.0</ele><time>2026-05-06T10:30:33Z</time></trkpt><trkpt lat="14.444818223581844" lon="120.90528091663494"><ele>7.0</ele><time>2026-05-06T10:30:34Z</time></trkpt><trkpt lat="14.444797280836049" lon="120.9052094179625"><ele>7.0</ele><time>2026-05-06T10:30:35Z</time></trkpt><trkpt lat="14.4447756971414" lon="120.90513308148482"><ele>7.000000000000001</ele><time>2026-05-06T10:30:36Z</time></trkpt><trkpt lat="14.4447552656976" lon="120.9050576267633"><ele>7.0</ele><time>2026-05-06T10:30:37Z</time></trkpt><trkpt lat="14.444734921846008" lon="120.90499072800147"><ele>7.0</ele><time>2026-05-06T10:30:38Z</time></trkpt><trkpt lat="14.444715658105768" lon="120.90492230038895"><ele>7.0</ele><time>2026-05-06T10:30:39Z</time></trkpt><trkpt lat="14.4446963508523" lon="120.90485328153852"><ele>7.0</ele><time>2026-05-06T10:30:40Z</time></trkpt><trkpt lat="14.444673233337927" lon="120.9047815944641"><ele>7.0</ele><time>2026-05-06T10:30:41Z</time></trkpt><trkpt lat="14.444647766060312" lon="120.90470984977523"><ele>7.0</ele><time>2026-05-06T10:30:42Z</time></trkpt><trkpt lat="14.444627199934185" lon="120.90464411455078"><ele>7.0</ele><time>2026-05-06T10:30:43Z</time></trkpt><trkpt lat="14.444605950253433" lon="120.90457850882791"><ele>7.0</ele><time>2026-05-06T10:30:44Z</time></trkpt><trkpt lat="14.44458479746564" lon="120.90450973076808"><ele>7.0</ele><time>2026-05-06T10:30:45Z</time></trkpt><trkpt lat="14.444553646916791" lon="120.9043956702694"><ele>6.999999999999999</ele><time>2026-05-06T10:30:47Z</time></trkpt><trkpt lat="14.444524719759743" lon="120.90431207121304"><ele>6.999999999999999</ele><time>2026-05-06T10:30:50Z</time></trkpt><trkpt lat="14.444494003142568" lon="120.90421412722482"><ele>7.0</ele><time>2026-05-06T10:30:53Z</time></trkpt><trkpt lat="14.444460862212829" lon="120.90411346824482"><ele>7.0</ele><time>2026-05-06T10:30:55Z</time></trkpt><trkpt lat="14.444422625468135" lon="120.90400815116864"><ele>7.000000000000001</ele><time>2026-05-06T10:30:57Z</time></trkpt><trkpt lat="14.444392580183177" lon="120.90391195110534"><ele>7.0</ele><time>2026-05-06T10:30:59Z</time></trkpt><trkpt lat="14.444364372808675" lon="120.90383044609625"><ele>7.0</ele><time>2026-05-06T10:31:01Z</time></trkpt><trkpt lat="14.444338885834828" lon="120.90375717892613"><ele>7.0</ele><time>2026-05-06T10:31:03Z</time></trkpt><trkpt lat="14.444307992816146" lon="120.90365757171539"><ele>7.000000000000001</ele><time>2026-05-06T10:31:05Z</time></trkpt><trkpt lat="14.444283304454567" lon="120.9035861258506"><ele>7.0</ele><time>2026-05-06T10:31:07Z</time></trkpt><trkpt lat="14.444314918331145" lon="120.90352647468129"><ele>7.000000000000001</ele><time>2026-05-06T10:31:10Z</time></trkpt><trkpt lat="14.444383358981073" lon="120.90348901704334"><ele>7.0</ele><time>2026-05-06T10:31:12Z</time></trkpt><trkpt lat="14.444462474220629" lon="120.90345910718929"><ele>7.0</ele><time>2026-05-06T10:31:14Z</time></trkpt><trkpt lat="14.444555565449068" lon="120.90341746078967"><ele>7.0</ele><time>2026-05-06T10:31:16Z</time></trkpt><trkpt lat="14.444632018271049" lon="120.90338683649831"><ele>7.000000000000001</ele><time>2026-05-06T10:31:18Z</time></trkpt><trkpt lat="14.444689203526893" lon="120.90335777011971"><ele>7.0</ele><time>2026-05-06T10:31:20Z</time></trkpt><trkpt lat="14.44475559070642" lon="120.90330314856571"><ele>7.0</ele><time>2026-05-06T10:31:45Z</time></trkpt><trkpt lat="14.444704582801315" lon="120.90319371953649"><ele>6.999999999999999</ele><time>2026-05-06T10:31:49Z</time></trkpt><trkpt lat="14.444654513125865" lon="120.9031084882803"><ele>6.999999999999999</ele><time>2026-05-06T10:31:51Z</time></trkpt><trkpt lat="14.444617628797786" lon="120.90303605547186"><ele>7.0</ele><time>2026-05-06T10:31:55Z</time></trkpt><trkpt lat="14.444571313579713" lon="120.90293441470834"><ele>7.0</ele><time>2026-05-06T10:31:57Z</time></trkpt><trkpt lat="14.444520985632293" lon="120.90281745017592"><ele>7.000000000000001</ele><time>2026-05-06T10:31:59Z</time></trkpt><trkpt lat="14.44449590191315" lon="120.9027439483787"><ele>7.0</ele><time>2026-05-06T10:32:01Z</time></trkpt><trkpt lat="14.444462721342168" lon="120.90267612042912"><ele>7.0</ele><time>2026-05-06T10:32:05Z</time></trkpt><trkpt lat="14.444424354418942" lon="120.90258769001031"><ele>7.0</ele><time>2026-05-06T10:32:07Z</time></trkpt><trkpt lat="14.444386265431216" lon="120.90251284050248"><ele>7.000000000000001</ele><time>2026-05-06T10:32:10Z</time></trkpt><trkpt lat="14.44435556232969" lon="120.90243542668556"><ele>7.0</ele><time>2026-05-06T10:32:13Z</time></trkpt><trkpt lat="14.444310260907836" lon="120.90232085301056"><ele>6.833333333333334</ele><time>2026-05-06T10:32:15Z</time></trkpt><trkpt lat="14.444275058356556" lon="120.90225767462519"><ele>6.666666666666667</ele><time>2026-05-06T10:32:17Z</time></trkpt><trkpt lat="14.44422899903048" lon="120.90216652679324"><ele>6.5</ele><time>2026-05-06T10:32:21Z</time></trkpt><trkpt lat="14.444191863918075" lon="120.90209314454941"><ele>6.333333333333334</ele><time>2026-05-06T10:32:29Z</time></trkpt><trkpt lat="14.444163176129024" lon="120.90203005274486"><ele>6.166666666666667</ele><time>2026-05-06T10:32:31Z</time></trkpt><trkpt lat="14.444114118979394" lon="120.90193340281651"><ele>6.0</ele><time>2026-05-06T10:32:35Z</time></trkpt><trkpt lat="14.444080648942228" lon="120.90184193476756"><ele>6.0</ele><time>2026-05-06T10:32:37Z</time></trkpt><trkpt lat="14.444027930612807" lon="120.9017477424862"><ele>6.0</ele><time>2026-05-06T10:32:39Z</time></trkpt><trkpt lat="14.443983071291917" lon="120.90165101710033"><ele>6.0</ele><time>2026-05-06T10:32:41Z</time></trkpt><trkpt lat="14.4439305638434" lon="120.9015468984873"><ele>6.0</ele><time>2026-05-06T10:32:43Z</time></trkpt><trkpt lat="14.44388776487318" lon="120.90144534376364"><ele>6.0</ele><time>2026-05-06T10:32:45Z</time></trkpt><trkpt lat="14.443865312051136" lon="120.90138375390963"><ele>6.0</ele><time>2026-05-06T10:32:49Z</time></trkpt><trkpt lat="14.443825348351373" lon="120.9013046712226"><ele>6.0</ele><time>2026-05-06T10:32:51Z</time></trkpt><trkpt lat="14.44379871396634" lon="120.90124396698315"><ele>6.0</ele><time>2026-05-06T10:32:52Z</time></trkpt><trkpt lat="14.443773263313368" lon="120.90118240305078"><ele>6.0</ele><time>2026-05-06T10:32:53Z</time></trkpt><trkpt lat="14.443729971034513" lon="120.90107559288747"><ele>6.0</ele><time>2026-05-06T10:32:55Z</time></trkpt><trkpt lat="14.443696980981205" lon="120.90100616847737"><ele>6.0</ele><time>2026-05-06T10:32:59Z</time></trkpt><trkpt lat="14.44365536288306" lon="120.90092028688706"><ele>6.0</ele><time>2026-05-06T10:33:01Z</time></trkpt><trkpt lat="14.443620622814926" lon="120.90084430195493"><ele>6.0</ele><time>2026-05-06T10:33:03Z</time></trkpt><trkpt lat="14.443572814744979" lon="120.9007429740925"><ele>6.0</ele><time>2026-05-06T10:33:05Z</time></trkpt><trkpt lat="14.443536447935834" lon="120.90066554478398"><ele>6.0</ele><time>2026-05-06T10:33:07Z</time></trkpt><trkpt lat="14.443503137835668" lon="120.90059891802298"><ele>6.0</ele><time>2026-05-06T10:33:11Z</time></trkpt><trkpt lat="14.443465630436547" lon="120.90052802250695"><ele>6.0</ele><time>2026-05-06T10:33:13Z</time></trkpt><trkpt lat="14.443437316538246" lon="120.9004596980887"><ele>6.0</ele><time>2026-05-06T10:33:15Z</time></trkpt><trkpt lat="14.44341032636744" lon="120.90037668817834"><ele>6.0</ele><time>2026-05-06T10:33:18Z</time></trkpt><trkpt lat="14.443347137926972" lon="120.9003508035893"><ele>6.0</ele><time>2026-05-06T10:33:26Z</time></trkpt><trkpt lat="14.443268385379316" lon="120.90037898187227"><ele>6.0</ele><time>2026-05-06T10:33:29Z</time></trkpt><trkpt lat="14.443214127716873" lon="120.90042661196668"><ele>6.0</ele><time>2026-05-06T10:33:33Z</time></trkpt><trkpt lat="14.44316222317188" lon="120.90038096609136"><ele>6.0</ele><time>2026-05-06T10:34:51Z</time></trkpt><trkpt lat="14.443086581515923" lon="120.90035213493208"><ele>6.0</ele><time>2026-05-06T10:34:54Z</time></trkpt><trkpt lat="14.442990476917657" lon="120.90034660181546"><ele>6.0</ele><time>2026-05-06T10:34:57.056Z</time></trkpt><trkpt lat="14.442920642112155" lon="120.90034577271784"><ele>6.0</ele><time>2026-05-06T10:34:59.049Z</time></trkpt><trkpt lat="14.443013607939406" lon="120.90037072222249"><ele>6.0</ele><time>2026-05-06T10:35:01.05Z</time></trkpt><trkpt lat="14.44326872242111" lon="120.90020289547466"><ele>5.999999999999999</ele><time>2026-05-06T11:49:10Z</time></trkpt><trkpt lat="14.443277071028868" lon="120.90013050427991"><ele>6.0</ele><time>2026-05-06T11:49:41.995Z</time></trkpt><trkpt lat="14.443245501633301" lon="120.90007301617031"><ele>6.0</ele><time>2026-05-06T11:49:42.995Z</time></trkpt><trkpt lat="14.443220812236612" lon="120.90000642329368"><ele>6.0</ele><time>2026-05-06T11:49:43.996Z</time></trkpt><trkpt lat="14.443181634741192" lon="120.8999171326142"><ele>6.0</ele><time>2026-05-06T11:49:45.996Z</time></trkpt><trkpt lat="14.443148183037058" lon="120.89984124635751"><ele>5.999999999999999</ele><time>2026-05-06T11:49:49.997Z</time></trkpt><trkpt lat="14.44308587092372" lon="120.89981653754015"><ele>6.0</ele><time>2026-05-06T11:49:52.998Z</time></trkpt><trkpt lat="14.443018420292724" lon="120.89984680310104"><ele>5.8</ele><time>2026-05-06T11:49:54.998Z</time></trkpt><trkpt lat="14.44291891043019" lon="120.89990675301644"><ele>5.6</ele><time>2026-05-06T11:49:56.999Z</time></trkpt><trkpt lat="14.44280724368476" lon="120.89997268962296"><ele>5.4</ele><time>2026-05-06T11:49:58.999Z</time></trkpt><trkpt lat="14.442743003101873" lon="120.90001382179933"><ele>5.2</ele><time>2026-05-06T11:49:59.999Z</time></trkpt><trkpt lat="14.442693488275607" lon="120.90006034189507"><ele>5.0</ele><time>2026-05-06T11:50:00.999Z</time></trkpt><trkpt lat="14.442629682463046" lon="120.90009715381927"><ele>5.0</ele><time>2026-05-06T11:50:01.999Z</time></trkpt><trkpt lat="14.44254900001906" lon="120.90014752036089"><ele>5.0</ele><time>2026-05-06T11:50:03.999Z</time></trkpt><trkpt lat="14.442486445390642" lon="120.90018315544684"><ele>5.0</ele><time>2026-05-06T11:50:07Z</time></trkpt><trkpt lat="14.44240493188958" lon="120.90022349225569"><ele>5.0</ele><time>2026-05-06T11:50:09Z</time></trkpt><trkpt lat="14.44234464030047" lon="120.90025951546528"><ele>5.0</ele><time>2026-05-06T11:50:12Z</time></trkpt><trkpt lat="14.44240191521207" lon="120.90036112778729"><ele>5.0</ele><time>2026-05-06T11:50:14Z</time></trkpt><trkpt lat="14.442471793977102" lon="120.90043533707727"><ele>5.0</ele><time>2026-05-06T11:50:16Z</time></trkpt><trkpt lat="14.442510097869675" lon="120.900490152656"><ele>5.0</ele><time>2026-05-06T11:50:19Z</time></trkpt><trkpt lat="14.44257017424515" lon="120.90057786793348"><ele>5.0</ele><time>2026-05-06T11:50:21.001Z</time></trkpt><trkpt lat="14.442613206275654" lon="120.90064268134624"><ele>5.0</ele><time>2026-05-06T11:50:22.001Z</time></trkpt><trkpt lat="14.442652072080413" lon="120.90070733030198"><ele>5.0</ele><time>2026-05-06T11:50:23.001Z</time></trkpt><trkpt lat="14.442695261637201" lon="120.90078036183803"><ele>5.0</ele><time>2026-05-06T11:50:24.001Z</time></trkpt><trkpt lat="14.442742575935839" lon="120.90085018709973"><ele>5.2</ele><time>2026-05-06T11:50:25.001Z</time></trkpt><trkpt lat="14.44280616164742" lon="120.90095055682039"><ele>5.4</ele><time>2026-05-06T11:50:27.001Z</time></trkpt><trkpt lat="14.4428544680967" lon="120.90101061959379"><ele>5.6</ele><time>2026-05-06T11:50:29.001Z</time></trkpt><trkpt lat="14.442905456436195" lon="120.90109821637958"><ele>5.8</ele><time>2026-05-06T11:50:33.001Z</time></trkpt><trkpt lat="14.442958741118138" lon="120.90119477624826"><ele>6.0</ele><time>2026-05-06T11:50:35.001Z</time></trkpt><trkpt lat="14.443024134094644" lon="120.90130568422327"><ele>6.199999999999999</ele><time>2026-05-06T11:50:37.001Z</time></trkpt><trkpt lat="14.443075009174848" lon="120.90139586216075"><ele>6.3999999999999995</ele><time>2026-05-06T11:50:39.001Z</time></trkpt><trkpt lat="14.44310464661719" lon="120.90145607258069"><ele>6.6</ele><time>2026-05-06T11:50:43.001Z</time></trkpt><trkpt lat="14.443157046600795" lon="120.90155073053032"><ele>6.8</ele><time>2026-05-06T11:50:45.001Z</time></trkpt><trkpt lat="14.443188618779116" lon="120.90160718572491"><ele>7.0</ele><time>2026-05-06T11:50:46.001Z</time></trkpt><trkpt lat="14.443245537544815" lon="120.90171200154263"><ele>7.0</ele><time>2026-05-06T11:50:48.001Z</time></trkpt><trkpt lat="14.443279962401913" lon="120.9017805098456"><ele>6.999999999999999</ele><time>2026-05-06T11:50:50.001Z</time></trkpt><trkpt lat="14.443310751794254" lon="120.9018442504694"><ele>6.999999999999999</ele><time>2026-05-06T11:50:54.001Z</time></trkpt><trkpt lat="14.44335126385996" lon="120.90192093488399"><ele>7.0</ele><time>2026-05-06T11:50:56.001Z</time></trkpt><trkpt lat="14.443410970853005" lon="120.90202070400264"><ele>7.0</ele><time>2026-05-06T11:50:58.001Z</time></trkpt><trkpt lat="14.443470681036313" lon="120.90211921049826"><ele>7.000000000000001</ele><time>2026-05-06T11:51:00.001Z</time></trkpt><trkpt lat="14.443513575883335" lon="120.90219807468476"><ele>7.0</ele><time>2026-05-06T11:51:02.001Z</time></trkpt><trkpt lat="14.443537070801302" lon="120.90226751029202"><ele>7.0</ele><time>2026-05-06T11:52:21Z</time></trkpt><trkpt lat="14.443572457471255" lon="120.90233416494536"><ele>7.0</ele><time>2026-05-06T11:52:23Z</time></trkpt><trkpt lat="14.443633957095685" lon="120.9024440874961"><ele>7.000000000000001</ele><time>2026-05-06T11:52:25Z</time></trkpt><trkpt lat="14.443676676625943" lon="120.90251907198879"><ele>7.0</ele><time>2026-05-06T11:52:28Z</time></trkpt><trkpt lat="14.44371742886838" lon="120.90259060334452"><ele>7.000000000000001</ele><time>2026-05-06T11:52:34Z</time></trkpt><trkpt lat="14.443776958061116" lon="120.90268387433332"><ele>7.0</ele><time>2026-05-06T11:52:36Z</time></trkpt><trkpt lat="14.443813924059805" lon="120.9027443507063"><ele>7.0</ele><time>2026-05-06T11:52:37Z</time></trkpt><trkpt lat="14.443850434233903" lon="120.90280514383024"><ele>7.0</ele><time>2026-05-06T11:52:38Z</time></trkpt><trkpt lat="14.443891439759724" lon="120.90287287509855"><ele>7.000000000000001</ele><time>2026-05-06T11:52:39Z</time></trkpt><trkpt lat="14.443933595354606" lon="120.90294250600019"><ele>7.0</ele><time>2026-05-06T11:52:40Z</time></trkpt><trkpt lat="14.443971791299518" lon="120.9030172518663"><ele>7.000000000000001</ele><time>2026-05-06T11:52:41Z</time></trkpt><trkpt lat="14.444009976726393" lon="120.90308907732013"><ele>7.0</ele><time>2026-05-06T11:52:42Z</time></trkpt><trkpt lat="14.444046766338003" lon="120.90315837111915"><ele>7.0</ele><time>2026-05-06T11:52:43Z</time></trkpt><trkpt lat="14.444084252568128" lon="120.90322897700742"><ele>7.0</ele><time>2026-05-06T11:52:44Z</time></trkpt><trkpt lat="14.444122895782929" lon="120.90330176209591"><ele>7.000000000000001</ele><time>2026-05-06T11:52:45Z</time></trkpt><trkpt lat="14.444161765271971" lon="120.90337497337453"><ele>7.0</ele><time>2026-05-06T11:52:46Z</time></trkpt><trkpt lat="14.444198257330369" lon="120.90345160841434"><ele>7.000000000000001</ele><time>2026-05-06T11:52:47Z</time></trkpt><trkpt lat="14.444230120243489" lon="120.90352169773571"><ele>7.0</ele><time>2026-05-06T11:52:48Z</time></trkpt><trkpt lat="14.444259271364157" lon="120.903585821881"><ele>7.0</ele><time>2026-05-06T11:52:49Z</time></trkpt><trkpt lat="14.444299334968328" lon="120.90371606911248"><ele>7.0</ele><time>2026-05-06T11:52:51Z</time></trkpt><trkpt lat="14.444324965054696" lon="120.9037926556904"><ele>7.000000000000001</ele><time>2026-05-06T11:52:52Z</time></trkpt><trkpt lat="14.444350520329374" lon="120.90386901872583"><ele>7.0</ele><time>2026-05-06T11:52:53Z</time></trkpt><trkpt lat="14.444373220689494" lon="120.90395099494424"><ele>7.000000000000001</ele><time>2026-05-06T11:52:54Z</time></trkpt><trkpt lat="14.444400075693158" lon="120.90403426668506"><ele>7.0</ele><time>2026-05-06T11:52:55Z</time></trkpt><trkpt lat="14.444426171167512" lon="120.90411518328627"><ele>7.0</ele><time>2026-05-06T11:52:56Z</time></trkpt><trkpt lat="14.444455508530154" lon="120.90419798012537"><ele>7.0</ele><time>2026-05-06T11:52:57Z</time></trkpt><trkpt lat="14.44448532476046" lon="120.90428322856847"><ele>7.000000000000001</ele><time>2026-05-06T11:52:58Z</time></trkpt><trkpt lat="14.44451611481645" lon="120.90437126130068"><ele>7.0</ele><time>2026-05-06T11:52:59Z</time></trkpt><trkpt lat="14.44456048771706" lon="120.9044537351721"><ele>7.000000000000001</ele><time>2026-05-06T11:53:00Z</time></trkpt><trkpt lat="14.44457216158874" lon="120.90455019598903"><ele>7.0</ele><time>2026-05-06T11:53:01Z</time></trkpt><trkpt lat="14.444599871430155" lon="120.90464274685846"><ele>7.0</ele><time>2026-05-06T11:53:02Z</time></trkpt><trkpt lat="14.444625933541786" lon="120.90472979431335"><ele>7.0</ele><time>2026-05-06T11:53:03Z</time></trkpt><trkpt lat="14.44465055368115" lon="120.90481202557376"><ele>7.000000000000001</ele><time>2026-05-06T11:53:04Z</time></trkpt><trkpt lat="14.444671152755594" lon="120.90488082648021"><ele>7.0</ele><time>2026-05-06T11:53:05Z</time></trkpt><trkpt lat="14.444690449938602" lon="120.90494771287092"><ele>7.0</ele><time>2026-05-06T11:53:06Z</time></trkpt><trkpt lat="14.444708591833887" lon="120.90501056440529"><ele>7.0</ele><time>2026-05-06T11:53:07Z</time></trkpt><trkpt lat="14.444729641146184" lon="120.90508348850254"><ele>7.0</ele><time>2026-05-06T11:53:08Z</time></trkpt><trkpt lat="14.444748687654162" lon="120.9051494740107"><ele>7.0</ele><time>2026-05-06T11:53:09Z</time></trkpt><trkpt lat="14.444769657992094" lon="120.90522073721006"><ele>7.0</ele><time>2026-05-06T11:53:10Z</time></trkpt><trkpt lat="14.444791363949903" lon="120.90529492847668"><ele>7.0</ele><time>2026-05-06T11:53:11Z</time></trkpt><trkpt lat="14.444814128102825" lon="120.90537273666341"><ele>7.0</ele><time>2026-05-06T11:53:12Z</time></trkpt><trkpt lat="14.444835658037546" lon="120.90544632627879"><ele>7.000000000000001</ele><time>2026-05-06T11:53:13Z</time></trkpt><trkpt lat="14.444856651065242" lon="120.90551808073904"><ele>7.0</ele><time>2026-05-06T11:53:14Z</time></trkpt><trkpt lat="14.444877234106448" lon="120.90558843385537"><ele>7.0</ele><time>2026-05-06T11:53:15Z</time></trkpt><trkpt lat="14.444893056189057" lon="120.90565404039315"><ele>7.0</ele><time>2026-05-06T11:53:16Z</time></trkpt><trkpt lat="14.44492194053904" lon="120.90576696237265"><ele>7.000000000000001</ele><time>2026-05-06T11:53:18Z</time></trkpt><trkpt lat="14.444954224771458" lon="120.9058931760306"><ele>7.0</ele><time>2026-05-06T11:53:20Z</time></trkpt><trkpt lat="14.44497238613825" lon="120.90596417702065"><ele>7.199999999999999</ele><time>2026-05-06T11:53:21Z</time></trkpt><trkpt lat="14.444991290038748" lon="120.90603808090823"><ele>7.3999999999999995</ele><time>2026-05-06T11:53:22Z</time></trkpt><trkpt lat="14.44500847879922" lon="120.90610536727388"><ele>7.6000000000000005</ele><time>2026-05-06T11:53:23.001Z</time></trkpt><trkpt lat="14.44503943251709" lon="120.9062265874042"><ele>7.800000000000001</ele><time>2026-05-06T11:53:25.001Z</time></trkpt><trkpt lat="14.445067036757836" lon="120.90633469040534"><ele>8.0</ele><time>2026-05-06T11:53:26.998Z</time></trkpt><trkpt lat="14.445089490741811" lon="120.90642262410351"><ele>7.999999999999999</ele><time>2026-05-06T11:53:28.998Z</time></trkpt><trkpt lat="14.445108169669378" lon="120.9064954579114"><ele>8.0</ele><time>2026-05-06T11:53:30.998Z</time></trkpt><trkpt lat="14.445125040426813" lon="120.90656105644027"><ele>8.0</ele><time>2026-05-06T11:53:32.998Z</time></trkpt><trkpt lat="14.445141967684814" lon="120.90662687465435"><ele>8.0</ele><time>2026-05-06T11:53:36.998Z</time></trkpt><trkpt lat="14.445270084906278" lon="120.90659532497725"><ele>7.999999999999999</ele><time>2026-05-06T11:53:50.999Z</time></trkpt><trkpt lat="14.445329581395633" lon="120.90655565549993"><ele>8.0</ele><time>2026-05-06T11:53:52.999Z</time></trkpt><trkpt lat="14.44544342976117" lon="120.90651852025947"><ele>7.666666666666666</ele><time>2026-05-06T11:53:54.999Z</time></trkpt><trkpt lat="14.445513863811" lon="120.90650348281275"><ele>7.333333333333333</ele><time>2026-05-06T11:53:55.999Z</time></trkpt><trkpt lat="14.445589275563826" lon="120.90648780089103"><ele>7.0</ele><time>2026-05-06T11:53:56.999Z</time></trkpt><trkpt lat="14.445676677076731" lon="120.90647625697532"><ele>6.666666666666666</ele><time>2026-05-06T11:53:57.999Z</time></trkpt><trkpt lat="14.44576569361372" lon="120.90649429472062"><ele>6.333333333333333</ele><time>2026-05-06T11:53:58.999Z</time></trkpt><trkpt lat="14.44586161879271" lon="120.9064993721221"><ele>6.0</ele><time>2026-05-06T11:53:59.999Z</time></trkpt><trkpt lat="14.445964779310893" lon="120.90650568705342"><ele>6.0</ele><time>2026-05-06T11:54:00.999Z</time></trkpt><trkpt lat="14.446064540796792" lon="120.90651148168055"><ele>6.0</ele><time>2026-05-06T11:54:01.999Z</time></trkpt><trkpt lat="14.446170038466109" lon="120.90651767836896"><ele>6.0</ele><time>2026-05-06T11:54:02.999Z</time></trkpt><trkpt lat="14.44627148351973" lon="120.90652363701624"><ele>6.0</ele><time>2026-05-06T11:54:03.999Z</time></trkpt><trkpt lat="14.446372866344738" lon="120.90653066609357"><ele>6.0</ele><time>2026-05-06T11:54:04.999Z</time></trkpt><trkpt lat="14.44646435581931" lon="120.90653591787101"><ele>6.0</ele><time>2026-05-06T11:54:05.999Z</time></trkpt><trkpt lat="14.446546465564417" lon="120.90654062043082"><ele>6.0</ele><time>2026-05-06T11:54:06.999Z</time></trkpt><trkpt lat="14.446665976486974" lon="120.90657072674185"><ele>6.0</ele><time>2026-05-06T11:54:08.999Z</time></trkpt><trkpt lat="14.446724433836152" lon="120.90660117567145"><ele>6.0</ele><time>2026-05-06T11:54:09.999Z</time></trkpt><trkpt lat="14.44675549689248" lon="120.9066712068915"><ele>6.0</ele><time>2026-05-06T11:54:10.999Z</time></trkpt><trkpt lat="14.44676843979274" lon="120.9067543126767"><ele>6.0</ele><time>2026-05-06T11:54:11.999Z</time></trkpt><trkpt lat="14.446772059372377" lon="120.90684030495184"><ele>6.0</ele><time>2026-05-06T11:54:12.999Z</time></trkpt><trkpt lat="14.44678158509147" lon="120.90692779986405"><ele>6.0</ele><time>2026-05-06T11:54:13.999Z</time></trkpt><trkpt lat="14.446799028566563" lon="120.90701645990843"><ele>6.0</ele><time>2026-05-06T11:54:14.999Z</time></trkpt><trkpt lat="14.446815035427626" lon="120.90710887074567"><ele>6.0</ele><time>2026-05-06T11:54:15.999Z</time></trkpt><trkpt lat="14.446830090334606" lon="120.90720767300591"><ele>6.0</ele><time>2026-05-06T11:54:16.999Z</time></trkpt><trkpt lat="14.446844895118911" lon="120.90731106570439"><ele>6.0</ele><time>2026-05-06T11:54:17.999Z</time></trkpt><trkpt lat="14.446862623302586" lon="120.90741744705055"><ele>6.0</ele><time>2026-05-06T11:54:18.999Z</time></trkpt><trkpt lat="14.44687894126431" lon="120.90752462925488"><ele>6.0</ele><time>2026-05-06T11:54:19.999Z</time></trkpt><trkpt lat="14.446894600387017" lon="120.90762972328027"><ele>6.0</ele><time>2026-05-06T11:54:20.999Z</time></trkpt><trkpt lat="14.44691059275761" lon="120.90772702646451"><ele>6.0</ele><time>2026-05-06T11:54:21.999Z</time></trkpt><trkpt lat="14.446923537142215" lon="120.90781542621453"><ele>5.833333333333333</ele><time>2026-05-06T11:54:23Z</time></trkpt><trkpt lat="14.446939857700922" lon="120.90789391508832"><ele>5.666666666666667</ele><time>2026-05-06T11:54:24Z</time></trkpt><trkpt lat="14.44695342072206" lon="120.90796646341573"><ele>5.5</ele><time>2026-05-06T11:54:25Z</time></trkpt><trkpt lat="14.446965393971976" lon="120.9080366742158"><ele>5.333333333333334</ele><time>2026-05-06T11:54:26Z</time></trkpt><trkpt lat="14.446976321864762" lon="120.90815357659697"><ele>5.166666666666667</ele><time>2026-05-06T11:54:28Z</time></trkpt><trkpt lat="14.44697825920517" lon="120.90825616280189"><ele>5.0</ele><time>2026-05-06T11:54:30Z</time></trkpt><trkpt lat="14.446949674909453" lon="120.9083493020577"><ele>5.0</ele><time>2026-05-06T11:54:32Z</time></trkpt><trkpt lat="14.446880191418785" lon="120.90842766519596"><ele>5.0</ele><time>2026-05-06T11:54:34Z</time></trkpt><trkpt lat="14.446800743166474" lon="120.90846969224194"><ele>5.0</ele><time>2026-05-06T11:54:36Z</time></trkpt><trkpt lat="14.446739698630195" lon="120.90849707406278"><ele>5.0</ele><time>2026-05-06T11:54:38Z</time></trkpt><trkpt lat="14.446653347125944" lon="120.90852213829729"><ele>5.0</ele><time>2026-05-06T11:54:41Z</time></trkpt><trkpt lat="14.44656514413766" lon="120.90854541177482"><ele>5.0</ele><time>2026-05-06T11:54:44Z</time></trkpt><trkpt lat="14.446491892348893" lon="120.90856001630875"><ele>5.0</ele><time>2026-05-06T11:54:46Z</time></trkpt><trkpt lat="14.446419783112603" lon="120.90857620309298"><ele>5.0</ele><time>2026-05-06T11:54:48Z</time></trkpt><trkpt lat="14.446353317530615" lon="120.90858886965594"><ele>5.0</ele><time>2026-05-06T11:54:50Z</time></trkpt><trkpt lat="14.446287737209868" lon="120.90860592585801"><ele>5.0</ele><time>2026-05-06T11:54:52Z</time></trkpt><trkpt lat="14.446219043606568" lon="120.90862673063445"><ele>5.0</ele><time>2026-05-06T11:54:55Z</time></trkpt><trkpt lat="14.446155238421062" lon="120.90863883838684"><ele>5.0</ele><time>2026-05-06T11:54:57Z</time></trkpt><trkpt lat="14.446089588022357" lon="120.9086505246061"><ele>5.0</ele><time>2026-05-06T11:54:59Z</time></trkpt><trkpt lat="14.445997568469558" lon="120.90866599011298"><ele>5.333333333333334</ele><time>2026-05-06T11:55:03Z</time></trkpt><trkpt lat="14.445915457059314" lon="120.90868002500468"><ele>5.666666666666667</ele><time>2026-05-06T11:55:06Z</time></trkpt><trkpt lat="14.445849947204676" lon="120.90866800387248"><ele>6.0</ele><time>2026-05-06T11:55:10Z</time></trkpt><trkpt lat="14.445786823162598" lon="120.90854636596784"><ele>6.333333333333334</ele><time>2026-05-06T11:55:15Z</time></trkpt><trkpt lat="14.445757577248209" lon="120.90846610036643"><ele>6.666666666666667</ele><time>2026-05-06T11:55:17Z</time></trkpt><trkpt lat="14.445731803068373" lon="120.90840418032525"><ele>7.0</ele><time>2026-05-06T11:55:19Z</time></trkpt><trkpt lat="14.445701366698767" lon="120.90831607712809"><ele>7.000000000000001</ele><time>2026-05-06T11:55:22Z</time></trkpt><trkpt lat="14.44566813923462" lon="120.90823715452107"><ele>7.0</ele><time>2026-05-06T11:55:25Z</time></trkpt><trkpt lat="14.445537165278294" lon="120.90824520064353"><ele>7.0</ele><time>2026-05-06T11:55:31Z</time></trkpt><trkpt lat="14.445457964723648" lon="120.90829197965233"><ele>7.0</ele><time>2026-05-06T11:55:32.998Z</time></trkpt><trkpt lat="14.445395458288047" lon="120.9083314918612"><ele>7.000000000000001</ele><time>2026-05-06T11:55:34.998Z</time></trkpt><trkpt lat="14.445338144892624" lon="120.90837039318315"><ele>7.0</ele><time>2026-05-06T11:55:36.998Z</time></trkpt><trkpt lat="14.445283025051493" lon="120.90840826893594"><ele>6.833333333333334</ele><time>2026-05-06T11:55:38.999Z</time></trkpt><trkpt lat="14.445219653231467" lon="120.9084556440676"><ele>6.666666666666667</ele><time>2026-05-06T11:55:41.999Z</time></trkpt><trkpt lat="14.44516543572261" lon="120.90848999439687"><ele>6.5</ele><time>2026-05-06T11:55:47.999Z</time></trkpt><trkpt lat="14.445108202369008" lon="120.90852001544258"><ele>6.333333333333334</ele><time>2026-05-06T11:55:50.999Z</time></trkpt><trkpt lat="14.445048143773814" lon="120.90855644387409"><ele>6.166666666666667</ele><time>2026-05-06T11:55:53.999Z</time></trkpt><trkpt lat="14.444982762926855" lon="120.90860662617628"><ele>6.0</ele><time>2026-05-06T11:55:55.999Z</time></trkpt><trkpt lat="14.444894578836513" lon="120.90866627745943"><ele>6.0</ele><time>2026-05-06T11:55:57.999Z</time></trkpt><trkpt lat="14.444791861020933" lon="120.90874204047243"><ele>6.0</ele><time>2026-05-06T11:55:59.999Z</time></trkpt><trkpt lat="14.444722055949661" lon="120.90879982136748"><ele>6.0</ele><time>2026-05-06T11:56:01.999Z</time></trkpt><trkpt lat="14.444657144563037" lon="120.90885043421942"><ele>6.0</ele><time>2026-05-06T11:56:04.999Z</time></trkpt><trkpt lat="14.444553947308654" lon="120.90892150480195"><ele>6.0</ele><time>2026-05-06T11:56:06.999Z</time></trkpt><trkpt lat="14.444492198203749" lon="120.90896455746926"><ele>6.0</ele><time>2026-05-06T11:56:07.999Z</time></trkpt><trkpt lat="14.444433073877105" lon="120.90901202378004"><ele>6.0</ele><time>2026-05-06T11:56:08.999Z</time></trkpt><trkpt lat="14.444370015555684" lon="120.90905737642743"><ele>6.0</ele><time>2026-05-06T11:56:09.999Z</time></trkpt><trkpt lat="14.44431263805479" lon="120.90909717800494"><ele>6.0</ele><time>2026-05-06T11:56:10.999Z</time></trkpt><trkpt lat="14.44425435219461" lon="120.90913523754237"><ele>6.0</ele><time>2026-05-06T11:56:12Z</time></trkpt><trkpt lat="14.444171604100154" lon="120.9092004396314"><ele>6.0</ele><time>2026-05-06T11:56:14Z</time></trkpt><trkpt lat="14.444101744888481" lon="120.90926337668914"><ele>6.0</ele><time>2026-05-06T11:56:16Z</time></trkpt><trkpt lat="14.444038578259457" lon="120.90931435755395"><ele>6.0</ele><time>2026-05-06T11:56:18Z</time></trkpt><trkpt lat="14.443952752495857" lon="120.90936426087015"><ele>6.0</ele><time>2026-05-06T11:56:20Z</time></trkpt><trkpt lat="14.443900954946232" lon="120.90942044799394"><ele>6.0</ele><time>2026-05-06T11:56:24Z</time></trkpt><trkpt lat="14.443832597963066" lon="120.90945379859532"><ele>6.0</ele><time>2026-05-06T11:56:27Z</time></trkpt><trkpt lat="14.443777082315462" lon="120.90949516819585"><ele>6.0</ele><time>2026-05-06T11:56:29Z</time></trkpt><trkpt lat="14.443725654241724" lon="120.90953349178356"><ele>5.666666666666667</ele><time>2026-05-06T11:56:31Z</time></trkpt><trkpt lat="14.443674718439283" lon="120.9095875473403"><ele>5.333333333333333</ele><time>2026-05-06T11:56:35Z</time></trkpt><trkpt lat="14.443615121703854" lon="120.90961585931684"><ele>5.0</ele><time>2026-05-06T11:56:39Z</time></trkpt><trkpt lat="14.443540487898519" lon="120.90967147553789"><ele>4.666666666666666</ele><time>2026-05-06T11:56:41Z</time></trkpt><trkpt lat="14.443473394555944" lon="120.90974057971447"><ele>4.333333333333333</ele><time>2026-05-06T11:56:43Z</time></trkpt><trkpt lat="14.443385560149745" lon="120.90979416888052"><ele>4.0</ele><time>2026-05-06T11:56:47Z</time></trkpt><trkpt lat="14.443279343796274" lon="120.90986657928968"><ele>4.0</ele><time>2026-05-06T11:56:49Z</time></trkpt><trkpt lat="14.443199878423638" lon="120.90991876304567"><ele>4.0</ele><time>2026-05-06T11:56:51Z</time></trkpt><trkpt lat="14.44312862374172" lon="120.90995753532735"><ele>4.0</ele><time>2026-05-06T11:56:54Z</time></trkpt><trkpt lat="14.44303983331683" lon="120.91001093551814"><ele>4.0</ele><time>2026-05-06T11:56:58Z</time></trkpt><trkpt lat="14.442949612071072" lon="120.9100663260698"><ele>4.0</ele><time>2026-05-06T11:57:00Z</time></trkpt><trkpt lat="14.442875601277198" lon="120.91011199592921"><ele>4.5</ele><time>2026-05-06T11:57:02Z</time></trkpt><trkpt lat="14.44279793291773" lon="120.91014878122648"><ele>5.0</ele><time>2026-05-06T11:57:05Z</time></trkpt><trkpt lat="14.442742042069687" lon="120.91018803954756"><ele>5.5</ele><time>2026-05-06T11:57:09Z</time></trkpt><trkpt lat="14.442687157863737" lon="120.91022471093365"><ele>6.0</ele><time>2026-05-06T11:57:12.001Z</time></trkpt><trkpt lat="14.442605404284434" lon="120.91025301607397"><ele>6.500000000000001</ele><time>2026-05-06T11:57:15.001Z</time></trkpt><trkpt lat="14.442528282636886" lon="120.9102928980917"><ele>7.0</ele><time>2026-05-06T11:57:17.001Z</time></trkpt><trkpt lat="14.442462870588871" lon="120.91032634721337"><ele>7.000000000000001</ele><time>2026-05-06T11:57:20.001Z</time></trkpt><trkpt lat="14.442395182457052" lon="120.91036080306567"><ele>7.0</ele><time>2026-05-06T11:57:23.001Z</time></trkpt><trkpt lat="14.44230808286814" lon="120.91040514009546"><ele>7.0</ele><time>2026-05-06T11:57:25.001Z</time></trkpt><trkpt lat="14.442239640669685" lon="120.91043997979791"><ele>7.0</ele><time>2026-05-06T11:57:28.001Z</time></trkpt><trkpt lat="14.442170648148108" lon="120.91049212553415"><ele>7.000000000000001</ele><time>2026-05-06T11:57:32.001Z</time></trkpt><trkpt lat="14.44208237153588" lon="120.91051978096262"><ele>7.0</ele><time>2026-05-06T11:57:34.001Z</time></trkpt><trkpt lat="14.441987275132147" lon="120.91056795984836"><ele>6.8</ele><time>2026-05-06T11:57:36.001Z</time></trkpt><trkpt lat="14.441903915733372" lon="120.91061019239386"><ele>6.6</ele><time>2026-05-06T11:57:38Z</time></trkpt><trkpt lat="14.441828840153278" lon="120.91064822808802"><ele>6.3999999999999995</ele><time>2026-05-06T11:57:40.001Z</time></trkpt><trkpt lat="14.441751462418743" lon="120.91070839514717"><ele>6.199999999999999</ele><time>2026-05-06T11:57:42Z</time></trkpt><trkpt lat="14.44166842891319" lon="120.91078083598164"><ele>6.0</ele><time>2026-05-06T11:57:44Z</time></trkpt><trkpt lat="14.441593903584568" lon="120.91085400884774"><ele>6.0</ele><time>2026-05-06T11:57:46Z</time></trkpt><trkpt lat="14.441529700971305" lon="120.91093194868225"><ele>6.0</ele><time>2026-05-06T11:57:48Z</time></trkpt><trkpt lat="14.441441063444483" lon="120.91101311112799"><ele>6.0</ele><time>2026-05-06T11:57:50Z</time></trkpt><trkpt lat="14.441375267937328" lon="120.91107870501831"><ele>6.0</ele><time>2026-05-06T11:57:52Z</time></trkpt><trkpt lat="14.441306415446121" lon="120.91112388258465"><ele>6.0</ele><time>2026-05-06T11:57:55Z</time></trkpt><trkpt lat="14.441257567966886" lon="120.91116964313649"><ele>6.4</ele><time>2026-05-06T11:58:08Z</time></trkpt><trkpt lat="14.441190027943852" lon="120.91122924850568"><ele>6.8</ele><time>2026-05-06T11:58:21Z</time></trkpt><trkpt lat="14.441118808067808" lon="120.91129465662064"><ele>7.200000000000001</ele><time>2026-05-06T11:58:23Z</time></trkpt><trkpt lat="14.441065588077901" lon="120.91134519206037"><ele>7.6000000000000005</ele><time>2026-05-06T11:58:26Z</time></trkpt><trkpt lat="14.441157648718095" lon="120.91150935499036"><ele>8.0</ele><time>2026-05-06T11:58:30.001Z</time></trkpt><trkpt lat="14.441212325603788" lon="120.91156292113625"><ele>7.999999999999999</ele><time>2026-05-06T11:58:31.001Z</time></trkpt><trkpt lat="14.441267102339419" lon="120.91161818803042"><ele>8.0</ele><time>2026-05-06T11:58:32.001Z</time></trkpt><trkpt lat="14.441318461945738" lon="120.91168376473439"><ele>8.0</ele><time>2026-05-06T11:58:33.001Z</time></trkpt><trkpt lat="14.441389197144561" lon="120.91174597730704"><ele>8.0</ele><time>2026-05-06T11:58:34.001Z</time></trkpt><trkpt lat="14.441449640457073" lon="120.9118158213404"><ele>7.999999999999999</ele><time>2026-05-06T11:58:35.001Z</time></trkpt><trkpt lat="14.441521749151512" lon="120.91188921509023"><ele>8.0</ele><time>2026-05-06T11:58:36.001Z</time></trkpt><trkpt lat="14.44159289570104" lon="120.91196782871322"><ele>7.25</ele><time>2026-05-06T11:58:37.001Z</time></trkpt><trkpt lat="14.44166936628211" lon="120.91204876648212"><ele>6.5</ele><time>2026-05-06T11:58:38.001Z</time></trkpt><trkpt lat="14.441750275368033" lon="120.91212669656588"><ele>5.75</ele><time>2026-05-06T11:58:39.001Z</time></trkpt><trkpt lat="14.441836877223428" lon="120.9122130333721"><ele>5.0</ele><time>2026-05-06T11:58:40.001Z</time></trkpt><trkpt lat="14.441924389887028" lon="120.91230398363048"><ele>5.0</ele><time>2026-05-06T11:58:41.001Z</time></trkpt><trkpt lat="14.442012024356087" lon="120.91238890349186"><ele>5.0</ele><time>2026-05-06T11:58:42.001Z</time></trkpt><trkpt lat="14.442102719105252" lon="120.91247366694567"><ele>5.0</ele><time>2026-05-06T11:58:43.001Z</time></trkpt><trkpt lat="14.442190706058332" lon="120.91254783429764"><ele>5.0</ele><time>2026-05-06T11:58:44.001Z</time></trkpt><trkpt lat="14.442278188804531" lon="120.91262899901648"><ele>5.6</ele><time>2026-05-06T11:58:45.001Z</time></trkpt><trkpt lat="14.442354891048714" lon="120.9127024072689"><ele>6.2</ele><time>2026-05-06T11:58:46.001Z</time></trkpt><trkpt lat="14.44243827434913" lon="120.91277202587135"><ele>6.800000000000001</ele><time>2026-05-06T11:58:47.001Z</time></trkpt><trkpt lat="14.442518846725873" lon="120.91283698827986"><ele>7.4</ele><time>2026-05-06T11:58:48.001Z</time></trkpt><trkpt lat="14.442596701072684" lon="120.91290659922902"><ele>8.0</ele><time>2026-05-06T11:58:49.001Z</time></trkpt><trkpt lat="14.44268096082673" lon="120.91297293220155"><ele>7.999999999999999</ele><time>2026-05-06T11:58:50.001Z</time></trkpt><trkpt lat="14.442760738970666" lon="120.91304071848134"><ele>8.0</ele><time>2026-05-06T11:58:51.001Z</time></trkpt><trkpt lat="14.44283210415826" lon="120.9130993108075"><ele>8.0</ele><time>2026-05-06T11:58:52.001Z</time></trkpt><trkpt lat="14.442900454493541" lon="120.91315421299336"><ele>8.0</ele><time>2026-05-06T11:58:53.001Z</time></trkpt><trkpt lat="14.442958424915112" lon="120.91319944226242"><ele>7.999999999999999</ele><time>2026-05-06T11:58:54.001Z</time></trkpt><trkpt lat="14.443016370941626" lon="120.91324114164242"><ele>8.0</ele><time>2026-05-06T11:58:55.001Z</time></trkpt><trkpt lat="14.443074566162657" lon="120.91328862662822"><ele>7.833333333333333</ele><time>2026-05-06T11:58:56.001Z</time></trkpt><trkpt lat="14.44312837427682" lon="120.91333041590724"><ele>7.666666666666666</ele><time>2026-05-06T11:58:57.001Z</time></trkpt><trkpt lat="14.443180013722143" lon="120.9133699041391"><ele>7.5</ele><time>2026-05-06T11:58:58.001Z</time></trkpt><trkpt lat="14.443260662755684" lon="120.91342725759266"><ele>7.333333333333334</ele><time>2026-05-06T11:59:00.001Z</time></trkpt><trkpt lat="14.443317985181585" lon="120.91346421283856"><ele>7.166666666666667</ele><time>2026-05-06T11:59:02.001Z</time></trkpt><trkpt lat="14.443387116838368" lon="120.91350195197384"><ele>7.0</ele><time>2026-05-06T11:59:05.001Z</time></trkpt><trkpt lat="14.443450580950019" lon="120.91354353832492"><ele>6.833333333333334</ele><time>2026-05-06T12:00:33.002Z</time></trkpt><trkpt lat="14.443515957231824" lon="120.91358194025324"><ele>6.666666666666667</ele><time>2026-05-06T12:00:36.002Z</time></trkpt><trkpt lat="14.443559586486174" lon="120.91363753929271"><ele>6.5</ele><time>2026-05-06T12:00:43.002Z</time></trkpt><trkpt lat="14.44359763363147" lon="120.91370057771817"><ele>6.333333333333334</ele><time>2026-05-06T12:00:46.002Z</time></trkpt><trkpt lat="14.443649224584576" lon="120.91374615467092"><ele>6.166666666666667</ele><time>2026-05-06T12:00:48.002Z</time></trkpt><trkpt lat="14.443714688782014" lon="120.91379076688146"><ele>6.0</ele><time>2026-05-06T12:00:50.002Z</time></trkpt><trkpt lat="14.443786365470933" lon="120.91384670606188"><ele>5.0</ele><time>2026-05-06T12:00:52.002Z</time></trkpt><trkpt lat="14.443858778774446" lon="120.91389313994304"><ele>4.0</ele><time>2026-05-06T12:00:54.002Z</time></trkpt><trkpt lat="14.443934980811362" lon="120.91392605613711"><ele>3.0</ele><time>2026-05-06T12:00:56.002Z</time></trkpt><trkpt lat="14.4439992996912" lon="120.9139529155537"><ele>2.0</ele><time>2026-05-06T12:00:59.002Z</time></trkpt><trkpt lat="14.444065088861022" lon="120.91399704044973"><ele>1.0</ele><time>2026-05-06T12:01:01.002Z</time></trkpt><trkpt lat="14.44413936798594" lon="120.9140609359727"><ele>0.0</ele><time>2026-05-06T12:01:03.002Z</time></trkpt><trkpt lat="14.444220982469636" lon="120.91412204144548"><ele>0.0</ele><time>2026-05-06T12:01:05.002Z</time></trkpt><trkpt lat="14.444307712203413" lon="120.91416588026537"><ele>0.0</ele><time>2026-05-06T12:01:07.002Z</time></trkpt><trkpt lat="14.44441323341456" lon="120.91423512864954"><ele>0.0</ele><time>2026-05-06T12:01:09.002Z</time></trkpt><trkpt lat="14.444531358152345" lon="120.9143015121424"><ele>0.0</ele><time>2026-05-06T12:01:11.002Z</time></trkpt><trkpt lat="14.44459587393447" lon="120.91433705905835"><ele>0.0</ele><time>2026-05-06T12:01:12.002Z</time></trkpt><trkpt lat="14.444656399483469" lon="120.91437145351641"><ele>1.0</ele><time>2026-05-06T12:01:13.002Z</time></trkpt><trkpt lat="14.444758278199952" lon="120.91442169067125"><ele>2.0</ele><time>2026-05-06T12:01:15.002Z</time></trkpt><trkpt lat="14.444825116546136" lon="120.91445737000201"><ele>3.0</ele><time>2026-05-06T12:01:17.002Z</time></trkpt><trkpt lat="14.444751910484102" lon="120.91461848256301"><ele>4.0</ele><time>2026-05-06T12:01:21.002Z</time></trkpt><trkpt lat="14.444697384520511" lon="120.91466956427811"><ele>5.0</ele><time>2026-05-06T12:01:22.002Z</time></trkpt><trkpt lat="14.444650593144399" lon="120.91472904260868"><ele>4.833333333333334</ele><time>2026-05-06T12:01:23.002Z</time></trkpt><trkpt lat="14.444594945229408" lon="120.91479474492675"><ele>4.666666666666667</ele><time>2026-05-06T12:01:24.002Z</time></trkpt><trkpt lat="14.444551908674697" lon="120.91484525647098"><ele>4.5</ele><time>2026-05-06T12:01:25.002Z</time></trkpt><trkpt lat="14.444489247949733" lon="120.91492554426806"><ele>4.333333333333333</ele><time>2026-05-06T12:01:27.002Z</time></trkpt><trkpt lat="14.444423521689181" lon="120.91500082891648"><ele>4.166666666666666</ele><time>2026-05-06T12:01:29.002Z</time></trkpt><trkpt lat="14.444378798765449" lon="120.91505697904525"><ele>4.0</ele><time>2026-05-06T12:01:30.002Z</time></trkpt><trkpt lat="14.444329079277178" lon="120.91511974317298"><ele>4.6</ele><time>2026-05-06T12:01:31.002Z</time></trkpt><trkpt lat="14.444275799318177" lon="120.91519138660948"><ele>5.2</ele><time>2026-05-06T12:01:32.002Z</time></trkpt><trkpt lat="14.444230751666211" lon="120.91527547339524"><ele>5.799999999999999</ele><time>2026-05-06T12:01:33.002Z</time></trkpt><trkpt lat="14.444190015782862" lon="120.9153679468461"><ele>6.3999999999999995</ele><time>2026-05-06T12:01:34.002Z</time></trkpt><trkpt lat="14.444146072039798" lon="120.91546608515122"><ele>7.0</ele><time>2026-05-06T12:01:35.002Z</time></trkpt><trkpt lat="14.444095585998525" lon="120.91557115871844"><ele>7.0</ele><time>2026-05-06T12:01:36.002Z</time></trkpt><trkpt lat="14.444046533304645" lon="120.91567619754834"><ele>6.999999999999999</ele><time>2026-05-06T12:01:37.002Z</time></trkpt><trkpt lat="14.443997770938767" lon="120.91577668113202"><ele>6.999999999999999</ele><time>2026-05-06T12:01:38.002Z</time></trkpt><trkpt lat="14.443944106604501" lon="120.91587701619548"><ele>7.0</ele><time>2026-05-06T12:01:39.002Z</time></trkpt><trkpt lat="14.44389100040843" lon="120.91597688888916"><ele>7.0</ele><time>2026-05-06T12:01:40.002Z</time></trkpt><trkpt lat="14.44384401401189" lon="120.91606514350805"><ele>6.6</ele><time>2026-05-06T12:01:41.002Z</time></trkpt><trkpt lat="14.443792925452362" lon="120.91613911313348"><ele>6.199999999999999</ele><time>2026-05-06T12:01:42.002Z</time></trkpt><trkpt lat="14.443730614042462" lon="120.91621288982729"><ele>5.8</ele><time>2026-05-06T12:01:43.002Z</time></trkpt><trkpt lat="14.443661399173111" lon="120.91627866546631"><ele>5.4</ele><time>2026-05-06T12:01:44.002Z</time></trkpt><trkpt lat="14.443586547710446" lon="120.91636037105134"><ele>5.0</ele><time>2026-05-06T12:01:45.002Z</time></trkpt><trkpt lat="14.44351500573165" lon="120.91643888757072"><ele>5.0</ele><time>2026-05-06T12:01:46.002Z</time></trkpt><trkpt lat="14.44343863329889" lon="120.9165225884003"><ele>5.0</ele><time>2026-05-06T12:01:47.002Z</time></trkpt><trkpt lat="14.44335641430198" lon="120.91660499813172"><ele>5.0</ele><time>2026-05-06T12:01:48.002Z</time></trkpt><trkpt lat="14.443274001852405" lon="120.91667965085107"><ele>5.0</ele><time>2026-05-06T12:01:49.002Z</time></trkpt><trkpt lat="14.443187723032207" lon="120.91674849516919"><ele>5.0</ele><time>2026-05-06T12:01:50.002Z</time></trkpt><trkpt lat="14.443088495656237" lon="120.91681085399777"><ele>5.5</ele><time>2026-05-06T12:01:51.002Z</time></trkpt><trkpt lat="14.44297820299513" lon="120.9168529418693"><ele>6.0</ele><time>2026-05-06T12:01:52.002Z</time></trkpt><trkpt lat="14.442862477504736" lon="120.91686526896343"><ele>6.5</ele><time>2026-05-06T12:01:53.002Z</time></trkpt><trkpt lat="14.442745891893091" lon="120.91687240062501"><ele>7.0</ele><time>2026-05-06T12:01:54.002Z</time></trkpt><trkpt lat="14.442628443908216" lon="120.91687654456648"><ele>7.25</ele><time>2026-05-06T12:01:55.002Z</time></trkpt><trkpt lat="14.44251097099532" lon="120.91688509439422"><ele>7.5</ele><time>2026-05-06T12:01:56.002Z</time></trkpt><trkpt lat="14.442392693753641" lon="120.91689223823587"><ele>7.75</ele><time>2026-05-06T12:01:57.002Z</time></trkpt><trkpt lat="14.442289179717335" lon="120.91689771092318"><ele>8.0</ele><time>2026-05-06T12:01:58.002Z</time></trkpt><trkpt lat="14.442178536090998" lon="120.91690269837103"><ele>7.833333333333333</ele><time>2026-05-06T12:01:59.002Z</time></trkpt><trkpt lat="14.442086615992881" lon="120.916903733276"><ele>7.666666666666666</ele><time>2026-05-06T12:02:00.002Z</time></trkpt><trkpt lat="14.442000212910717" lon="120.91690993894626"><ele>7.5</ele><time>2026-05-06T12:02:01.002Z</time></trkpt><trkpt lat="14.441918870461683" lon="120.91691980470252"><ele>7.333333333333334</ele><time>2026-05-06T12:02:02.002Z</time></trkpt><trkpt lat="14.441837606977472" lon="120.916921550301"><ele>7.166666666666667</ele><time>2026-05-06T12:02:03.002Z</time></trkpt><trkpt lat="14.441762977911411" lon="120.9169252709618"><ele>7.0</ele><time>2026-05-06T12:02:04.002Z</time></trkpt><trkpt lat="14.441687021364281" lon="120.91693094268769"><ele>7.0</ele><time>2026-05-06T12:02:05.002Z</time></trkpt><trkpt lat="14.441611975141875" lon="120.91695350011739"><ele>6.999999999999999</ele><time>2026-05-06T12:02:06.002Z</time></trkpt><trkpt lat="14.441524504408092" lon="120.91697729188995"><ele>6.999999999999999</ele><time>2026-05-06T12:02:07.002Z</time></trkpt><trkpt lat="14.44143103889595" lon="120.91700214286895"><ele>7.0</ele><time>2026-05-06T12:02:08.002Z</time></trkpt><trkpt lat="14.441326177066154" lon="120.91702789434378"><ele>7.0</ele><time>2026-05-06T12:02:09.002Z</time></trkpt><trkpt lat="14.441213302778547" lon="120.9170531259652"><ele>7.0</ele><time>2026-05-06T12:02:10.002Z</time></trkpt><trkpt lat="14.441098986455957" lon="120.91707892940543"><ele>7.0</ele><time>2026-05-06T12:02:11.002Z</time></trkpt><trkpt lat="14.440977954038372" lon="120.91710816795441"><ele>7.0</ele><time>2026-05-06T12:02:12.002Z</time></trkpt><trkpt lat="14.440858084848383" lon="120.91713608145747"><ele>7.0</ele><time>2026-05-06T12:02:13.002Z</time></trkpt><trkpt lat="14.440733043990582" lon="120.91715835244713"><ele>7.0</ele><time>2026-05-06T12:02:14.002Z</time></trkpt><trkpt lat="14.440611749151813" lon="120.91718136461269"><ele>7.0</ele><time>2026-05-06T12:02:15.002Z</time></trkpt><trkpt lat="14.440490499788144" lon="120.91720476225059"><ele>7.0</ele><time>2026-05-06T12:02:16.002Z</time></trkpt><trkpt lat="14.440369997391826" lon="120.91722942496057"><ele>7.0</ele><time>2026-05-06T12:02:17.002Z</time></trkpt><trkpt lat="14.440253279455032" lon="120.91726519935132"><ele>6.5</ele><time>2026-05-06T12:02:18.002Z</time></trkpt><trkpt lat="14.440146163921483" lon="120.9173106221839"><ele>6.0</ele><time>2026-05-06T12:02:19.002Z</time></trkpt><trkpt lat="14.440043695203878" lon="120.91736868107583"><ele>5.5</ele><time>2026-05-06T12:02:20.002Z</time></trkpt><trkpt lat="14.439943797253248" lon="120.91743483371134"><ele>5.0</ele><time>2026-05-06T12:02:21.002Z</time></trkpt><trkpt lat="14.439854827512416" lon="120.91750801319964"><ele>4.8</ele><time>2026-05-06T12:02:22.002Z</time></trkpt><trkpt lat="14.439761457263662" lon="120.91758396282776"><ele>4.6</ele><time>2026-05-06T12:02:23.002Z</time></trkpt><trkpt lat="14.439684372295991" lon="120.91764434697974"><ele>4.4</ele><time>2026-05-06T12:02:24.002Z</time></trkpt><trkpt lat="14.43961920723606" lon="120.9176883385178"><ele>4.2</ele><time>2026-05-06T12:02:25.002Z</time></trkpt><trkpt lat="14.43954617199743" lon="120.91773632512361"><ele>4.0</ele><time>2026-05-06T12:02:27.002Z</time></trkpt><trkpt lat="14.439495207203914" lon="120.91779347185809"><ele>3.9999999999999996</ele><time>2026-05-06T12:02:49.002Z</time></trkpt><trkpt lat="14.439417571245778" lon="120.91786825404495"><ele>4.0</ele><time>2026-05-06T12:02:51.002Z</time></trkpt><trkpt lat="14.439362156837952" lon="120.91791680163861"><ele>4.0</ele><time>2026-05-06T12:02:52.002Z</time></trkpt><trkpt lat="14.439308096937657" lon="120.9179713541226"><ele>4.0</ele><time>2026-05-06T12:02:53.002Z</time></trkpt><trkpt lat="14.439245901649715" lon="120.91802932277521"><ele>3.9999999999999996</ele><time>2026-05-06T12:02:54.002Z</time></trkpt><trkpt lat="14.439170476047238" lon="120.9180988760006"><ele>4.0</ele><time>2026-05-06T12:02:55.002Z</time></trkpt><trkpt lat="14.439106400730193" lon="120.91815876854336"><ele>4.0</ele><time>2026-05-06T12:02:56.002Z</time></trkpt><trkpt lat="14.439029362507723" lon="120.9182331354303"><ele>4.0</ele><time>2026-05-06T12:02:57.002Z</time></trkpt><trkpt lat="14.438947305060159" lon="120.91831095449837"><ele>4.0</ele><time>2026-05-06T12:02:58.002Z</time></trkpt><trkpt lat="14.43886093745331" lon="120.91839080554061"><ele>4.0</ele><time>2026-05-06T12:02:59.002Z</time></trkpt><trkpt lat="14.43876957263177" lon="120.9184731460368"><ele>4.75</ele><time>2026-05-06T12:03:00.002Z</time></trkpt><trkpt lat="14.438676448262083" lon="120.9185530760201"><ele>5.5</ele><time>2026-05-06T12:03:01.002Z</time></trkpt><trkpt lat="14.438584347135404" lon="120.91863281429283"><ele>6.25</ele><time>2026-05-06T12:03:02.002Z</time></trkpt><trkpt lat="14.438492983349771" lon="120.91871270301533"><ele>7.0</ele><time>2026-05-06T12:03:03.002Z</time></trkpt><trkpt lat="14.438400654792705" lon="120.91879924386492"><ele>7.0</ele><time>2026-05-06T12:03:04.002Z</time></trkpt><trkpt lat="14.438307169688084" lon="120.91888419755605"><ele>7.0</ele><time>2026-05-06T12:03:05.002Z</time></trkpt><trkpt lat="14.43821670616944" lon="120.9189698027686"><ele>7.0</ele><time>2026-05-06T12:03:06.002Z</time></trkpt><trkpt lat="14.43812687056855" lon="120.91905029568657"><ele>7.0</ele><time>2026-05-06T12:03:07.002Z</time></trkpt><trkpt lat="14.438033495046989" lon="120.91913628407275"><ele>6.75</ele><time>2026-05-06T12:03:08.002Z</time></trkpt><trkpt lat="14.437937553815948" lon="120.9192215641138"><ele>6.5</ele><time>2026-05-06T12:03:09.002Z</time></trkpt><trkpt lat="14.437845805908484" lon="120.91930667726199"><ele>6.25</ele><time>2026-05-06T12:03:10.002Z</time></trkpt><trkpt lat="14.437755687674686" lon="120.9193908297637"><ele>6.0</ele><time>2026-05-06T12:03:11.002Z</time></trkpt><trkpt lat="14.437670690633125" lon="120.91947510726575"><ele>6.0</ele><time>2026-05-06T12:03:12.002Z</time></trkpt><trkpt lat="14.437585271869324" lon="120.91956464655581"><ele>6.0</ele><time>2026-05-06T12:03:13.002Z</time></trkpt><trkpt lat="14.437504495807849" lon="120.91965038023228"><ele>6.0</ele><time>2026-05-06T12:03:14.002Z</time></trkpt><trkpt lat="14.437421680965606" lon="120.91973929508063"><ele>6.0</ele><time>2026-05-06T12:03:15.002Z</time></trkpt><trkpt lat="14.437338772726873" lon="120.91982575990151"><ele>6.0</ele><time>2026-05-06T12:03:16.002Z</time></trkpt><trkpt lat="14.43725288068921" lon="120.91991780560558"><ele>6.0</ele><time>2026-05-06T12:03:17.002Z</time></trkpt><trkpt lat="14.4371643432638" lon="120.92001050321738"><ele>6.0</ele><time>2026-05-06T12:03:18.002Z</time></trkpt><trkpt lat="14.43707690756856" lon="120.92010777219124"><ele>6.0</ele><time>2026-05-06T12:03:19.002Z</time></trkpt><trkpt lat="14.436985088176824" lon="120.92020532645512"><ele>6.25</ele><time>2026-05-06T12:03:20.002Z</time></trkpt><trkpt lat="14.436889381936416" lon="120.92030771011378"><ele>6.5</ele><time>2026-05-06T12:03:21.002Z</time></trkpt><trkpt lat="14.436789738665217" lon="120.92040925428428"><ele>6.75</ele><time>2026-05-06T12:03:22.002Z</time></trkpt><trkpt lat="14.436690938912902" lon="120.92051088669179"><ele>7.0</ele><time>2026-05-06T12:03:23.002Z</time></trkpt><trkpt lat="14.436591012989807" lon="120.9206166178415"><ele>7.0</ele><time>2026-05-06T12:03:24.002Z</time></trkpt><trkpt lat="14.43649070995686" lon="120.92072559797883"><ele>7.0</ele><time>2026-05-06T12:03:25.002Z</time></trkpt><trkpt lat="14.436385483187633" lon="120.92083998395339"><ele>7.0</ele><time>2026-05-06T12:03:26.002Z</time></trkpt><trkpt lat="14.436278306332921" lon="120.92094653685317"><ele>7.0</ele><time>2026-05-06T12:03:27.002Z</time></trkpt><trkpt lat="14.436171923365961" lon="120.92106162979182"><ele>7.333333333333334</ele><time>2026-05-06T12:03:28.002Z</time></trkpt><trkpt lat="14.43606119264799" lon="120.9211785351244"><ele>7.666666666666666</ele><time>2026-05-06T12:03:29.002Z</time></trkpt><trkpt lat="14.43595378406276" lon="120.92129427610473"><ele>8.0</ele><time>2026-05-06T12:03:30.002Z</time></trkpt><trkpt lat="14.43584711299331" lon="120.92141171484299"><ele>8.0</ele><time>2026-05-06T12:03:31.002Z</time></trkpt><trkpt lat="14.43573609704744" lon="120.92153136677427"><ele>8.0</ele><time>2026-05-06T12:03:32.002Z</time></trkpt><trkpt lat="14.435636972325133" lon="120.92163913842217"><ele>8.0</ele><time>2026-05-06T12:03:33.002Z</time></trkpt><trkpt lat="14.435539119420579" lon="120.92174206197586"><ele>8.0</ele><time>2026-05-06T12:03:34.002Z</time></trkpt><trkpt lat="14.435455532418041" lon="120.92183080129999"><ele>8.0</ele><time>2026-05-06T12:03:35.002Z</time></trkpt><trkpt lat="14.435366152794542" lon="120.92190963478865"><ele>8.0</ele><time>2026-05-06T12:03:36.002Z</time></trkpt><trkpt lat="14.435266875127697" lon="120.92197383203249"><ele>8.0</ele><time>2026-05-06T12:03:37.002Z</time></trkpt><trkpt lat="14.435162666350799" lon="120.9220134308837"><ele>8.0</ele><time>2026-05-06T12:03:38.002Z</time></trkpt><trkpt lat="14.43504179264529" lon="120.92203043670985"><ele>8.0</ele><time>2026-05-06T12:03:39.002Z</time></trkpt><trkpt lat="14.434923262729873" lon="120.92202439449164"><ele>8.0</ele><time>2026-05-06T12:03:40.002Z</time></trkpt><trkpt lat="14.434803952066945" lon="120.92200817216903"><ele>8.0</ele><time>2026-05-06T12:03:41.002Z</time></trkpt><trkpt lat="14.43468158200556" lon="120.92199047473586"><ele>8.0</ele><time>2026-05-06T12:03:42.002Z</time></trkpt><trkpt lat="14.434555091278817" lon="120.92197364225244"><ele>7.75</ele><time>2026-05-06T12:03:43.002Z</time></trkpt><trkpt lat="14.434426554984588" lon="120.92195262800074"><ele>7.5</ele><time>2026-05-06T12:03:44.002Z</time></trkpt><trkpt lat="14.434294114330225" lon="120.92192856656844"><ele>7.25</ele><time>2026-05-06T12:03:45.002Z</time></trkpt><trkpt lat="14.434160994376981" lon="120.92190421386339"><ele>7.0</ele><time>2026-05-06T12:03:46.002Z</time></trkpt><trkpt lat="14.434022414887222" lon="120.92187942647827"><ele>7.0</ele><time>2026-05-06T12:03:47.002Z</time></trkpt><trkpt lat="14.433881848316652" lon="120.92185432792634"><ele>7.0</ele><time>2026-05-06T12:03:48.002Z</time></trkpt><trkpt lat="14.433738483935834" lon="120.92182591238473"><ele>7.0</ele><time>2026-05-06T12:03:49.002Z</time></trkpt><trkpt lat="14.43359769300078" lon="120.92179893571789"><ele>7.0</ele><time>2026-05-06T12:03:50.002Z</time></trkpt><trkpt lat="14.433453457283065" lon="120.92176746128126"><ele>7.25</ele><time>2026-05-06T12:03:51.002Z</time></trkpt><trkpt lat="14.433307957232975" lon="120.92173816080758"><ele>7.5</ele><time>2026-05-06T12:03:52.002Z</time></trkpt><trkpt lat="14.433165790616213" lon="120.9217141219272"><ele>7.75</ele><time>2026-05-06T12:03:53.002Z</time></trkpt><trkpt lat="14.433024519510276" lon="120.92169563075345"><ele>8.0</ele><time>2026-05-06T12:03:54.002Z</time></trkpt><trkpt lat="14.432882995333712" lon="120.92168036625552"><ele>8.25</ele><time>2026-05-06T12:03:55.002Z</time></trkpt><trkpt lat="14.432742767631797" lon="120.92167845113033"><ele>8.5</ele><time>2026-05-06T12:03:56.002Z</time></trkpt><trkpt lat="14.432616058803694" lon="120.92167662982389"><ele>8.75</ele><time>2026-05-06T12:03:57.002Z</time></trkpt><trkpt lat="14.432496260014585" lon="120.92167965025298"><ele>9.0</ele><time>2026-05-06T12:03:58.002Z</time></trkpt><trkpt lat="14.432373462123138" lon="120.92169185398564"><ele>9.0</ele><time>2026-05-06T12:03:59.002Z</time></trkpt><trkpt lat="14.432251349192116" lon="120.92171684692566"><ele>9.0</ele><time>2026-05-06T12:04:00.002Z</time></trkpt><trkpt lat="14.432139080541832" lon="120.92175767534778"><ele>9.0</ele><time>2026-05-06T12:04:01.002Z</time></trkpt><trkpt lat="14.432029008198112" lon="120.9218097668881"><ele>9.0</ele><time>2026-05-06T12:04:02.002Z</time></trkpt><trkpt lat="14.431922323250113" lon="120.92187567086249"><ele>9.0</ele><time>2026-05-06T12:04:03.002Z</time></trkpt><trkpt lat="14.43182399537635" lon="120.92195061935975"><ele>9.0</ele><time>2026-05-06T12:04:04.002Z</time></trkpt><trkpt lat="14.431727567244305" lon="120.9220286393679"><ele>9.0</ele><time>2026-05-06T12:04:05.002Z</time></trkpt><trkpt lat="14.43163408595855" lon="120.92209821113963"><ele>9.0</ele><time>2026-05-06T12:04:06.002Z</time></trkpt><trkpt lat="14.431549743931855" lon="120.92215529863687"><ele>9.0</ele><time>2026-05-06T12:04:07.002Z</time></trkpt><trkpt lat="14.43147631151716" lon="120.92221422090205"><ele>9.0</ele><time>2026-05-06T12:04:08.002Z</time></trkpt><trkpt lat="14.431407410185683" lon="120.92226611854018"><ele>9.0</ele><time>2026-05-06T12:04:09.002Z</time></trkpt><trkpt lat="14.431339380960686" lon="120.9223174884798"><ele>9.0</ele><time>2026-05-06T12:04:10.002Z</time></trkpt><trkpt lat="14.431268233168694" lon="120.92236895831321"><ele>9.0</ele><time>2026-05-06T12:04:11.002Z</time></trkpt><trkpt lat="14.431207113670684" lon="120.92240663595999"><ele>9.0</ele><time>2026-05-06T12:04:12.002Z</time></trkpt><trkpt lat="14.431136319081277" lon="120.922436523405"><ele>9.166666666666666</ele><time>2026-05-06T12:04:13.002Z</time></trkpt><trkpt lat="14.431064322983444" lon="120.92245510396971"><ele>9.333333333333334</ele><time>2026-05-06T12:04:14.002Z</time></trkpt><trkpt lat="14.430987181214965" lon="120.92245774405876"><ele>9.5</ele><time>2026-05-06T12:04:15.002Z</time></trkpt><trkpt lat="14.43091070245317" lon="120.922454996869"><ele>9.666666666666668</ele><time>2026-05-06T12:04:16.002Z</time></trkpt><trkpt lat="14.430820665678791" lon="120.92245696677021"><ele>9.833333333333334</ele><time>2026-05-06T12:04:17.002Z</time></trkpt><trkpt lat="14.43072711800635" lon="120.92245613100796"><ele>10.0</ele><time>2026-05-06T12:04:18.002Z</time></trkpt><trkpt lat="14.430626699227934" lon="120.92244700344122"><ele>10.0</ele><time>2026-05-06T12:04:19.002Z</time></trkpt><trkpt lat="14.430520780300068" lon="120.92244065498119"><ele>10.0</ele><time>2026-05-06T12:04:20.002Z</time></trkpt><trkpt lat="14.430415288098084" lon="120.92243164565203"><ele>10.0</ele><time>2026-05-06T12:04:21.002Z</time></trkpt><trkpt lat="14.430304589338016" lon="120.92242282129445"><ele>10.0</ele><time>2026-05-06T12:04:22.002Z</time></trkpt><trkpt lat="14.430185281059192" lon="120.9224130480056"><ele>10.0</ele><time>2026-05-06T12:04:23.002Z</time></trkpt><trkpt lat="14.43006615276823" lon="120.92240271105503"><ele>9.75</ele><time>2026-05-06T12:04:24.002Z</time></trkpt><trkpt lat="14.429943983992288" lon="120.92238829539895"><ele>9.5</ele><time>2026-05-06T12:04:25.002Z</time></trkpt><trkpt lat="14.42982068360393" lon="120.9223774341004"><ele>9.25</ele><time>2026-05-06T12:04:26.002Z</time></trkpt><trkpt lat="14.429702492362082" lon="120.92236426300838"><ele>9.0</ele><time>2026-05-06T12:04:27.002Z</time></trkpt><trkpt lat="14.429591451272325" lon="120.92235017306344"><ele>9.0</ele><time>2026-05-06T12:04:28.001Z</time></trkpt><trkpt lat="14.4294985480406" lon="120.9223329693424"><ele>9.0</ele><time>2026-05-06T12:04:29.001Z</time></trkpt><trkpt lat="14.429401481794352" lon="120.9223214308448"><ele>9.0</ele><time>2026-05-06T12:04:30.001Z</time></trkpt><trkpt lat="14.429316069754746" lon="120.92231231165599"><ele>9.0</ele><time>2026-05-06T12:04:31.001Z</time></trkpt><trkpt lat="14.42924648776703" lon="120.92230119954093"><ele>9.0</ele><time>2026-05-06T12:04:32.001Z</time></trkpt><trkpt lat="14.42916273776381" lon="120.92229260830823"><ele>9.0</ele><time>2026-05-06T12:04:34.001Z</time></trkpt><trkpt lat="14.42922699558578" lon="120.92234612640937"><ele>9.0</ele><time>2026-05-06T12:05:23.002Z</time></trkpt><trkpt lat="14.429342027249787" lon="120.92236674255199"><ele>9.0</ele><time>2026-05-06T12:05:25.002Z</time></trkpt><trkpt lat="14.429414535798774" lon="120.92237312313497"><ele>9.0</ele><time>2026-05-06T12:05:26.002Z</time></trkpt><trkpt lat="14.42948906623296" lon="120.92237982243867"><ele>9.0</ele><time>2026-05-06T12:05:27.002Z</time></trkpt><trkpt lat="14.42956958433552" lon="120.92238790547837"><ele>9.0</ele><time>2026-05-06T12:05:28.002Z</time></trkpt><trkpt lat="14.429652254340244" lon="120.92239754520854"><ele>9.0</ele><time>2026-05-06T12:05:29.002Z</time></trkpt><trkpt lat="14.429737498487622" lon="120.92241010997256"><ele>9.0</ele><time>2026-05-06T12:05:30.002Z</time></trkpt><trkpt lat="14.429826929559093" lon="120.92242026938267"><ele>9.0</ele><time>2026-05-06T12:05:31.002Z</time></trkpt><trkpt lat="14.429923728508664" lon="120.92242665930858"><ele>9.0</ele><time>2026-05-06T12:05:32.002Z</time></trkpt><trkpt lat="14.430025447430452" lon="120.92243642347881"><ele>9.0</ele><time>2026-05-06T12:05:33.002Z</time></trkpt><trkpt lat="14.430127828107985" lon="120.92244752115245"><ele>9.0</ele><time>2026-05-06T12:05:34.002Z</time></trkpt><trkpt lat="14.430235044607693" lon="120.92246113563887"><ele>9.0</ele><time>2026-05-06T12:05:35.002Z</time></trkpt><trkpt lat="14.430343119676428" lon="120.92247615898734"><ele>9.0</ele><time>2026-05-06T12:05:36.002Z</time></trkpt><trkpt lat="14.43044542815972" lon="120.92248765381909"><ele>9.0</ele><time>2026-05-06T12:05:37.002Z</time></trkpt><trkpt lat="14.430557020608935" lon="120.92250046882816"><ele>9.0</ele><time>2026-05-06T12:05:38.002Z</time></trkpt><trkpt lat="14.43067285425801" lon="120.92251122319786"><ele>9.0</ele><time>2026-05-06T12:05:39.002Z</time></trkpt><trkpt lat="14.43078439851323" lon="120.92251887411183"><ele>9.2</ele><time>2026-05-06T12:05:40.002Z</time></trkpt><trkpt lat="14.430887358172019" lon="120.92252277438749"><ele>9.4</ele><time>2026-05-06T12:05:41.002Z</time></trkpt><trkpt lat="14.430991426083507" lon="120.92252243904494"><ele>9.6</ele><time>2026-05-06T12:05:42.002Z</time></trkpt><trkpt lat="14.431089814993012" lon="120.92252063440965"><ele>9.8</ele><time>2026-05-06T12:05:43.002Z</time></trkpt><trkpt lat="14.431180939921838" lon="120.92252300666198"><ele>10.0</ele><time>2026-05-06T12:05:44.002Z</time></trkpt><trkpt lat="14.431271435326089" lon="120.92254338314562"><ele>9.833333333333334</ele><time>2026-05-06T12:05:45.002Z</time></trkpt><trkpt lat="14.43136155448452" lon="120.92254393275606"><ele>9.666666666666668</ele><time>2026-05-06T12:05:46.002Z</time></trkpt><trkpt lat="14.431449934546553" lon="120.92254066292345"><ele>9.5</ele><time>2026-05-06T12:05:47.002Z</time></trkpt><trkpt lat="14.431534106624111" lon="120.92253928473015"><ele>9.333333333333334</ele><time>2026-05-06T12:05:48.002Z</time></trkpt><trkpt lat="14.431624296550591" lon="120.92253780800233"><ele>9.166666666666666</ele><time>2026-05-06T12:05:49.002Z</time></trkpt><trkpt lat="14.431712443425043" lon="120.92253785651803"><ele>9.0</ele><time>2026-05-06T12:05:50.002Z</time></trkpt><trkpt lat="14.431798222418797" lon="120.92254964062438"><ele>8.833333333333334</ele><time>2026-05-06T12:05:51.002Z</time></trkpt><trkpt lat="14.431874982606127" lon="120.9225651574786"><ele>8.666666666666666</ele><time>2026-05-06T12:05:52.002Z</time></trkpt><trkpt lat="14.431956785425989" lon="120.92259591017651"><ele>8.5</ele><time>2026-05-06T12:05:53.002Z</time></trkpt><trkpt lat="14.432048994505054" lon="120.922608965548"><ele>8.333333333333332</ele><time>2026-05-06T12:05:54.002Z</time></trkpt><trkpt lat="14.43213900500826" lon="120.9226067290058"><ele>8.166666666666666</ele><time>2026-05-06T12:05:55.002Z</time></trkpt><trkpt lat="14.432234849912083" lon="120.92263229050194"><ele>8.0</ele><time>2026-05-06T12:05:56.002Z</time></trkpt><trkpt lat="14.432337771701343" lon="120.92264508421017"><ele>7.800000000000001</ele><time>2026-05-06T12:05:57.002Z</time></trkpt><trkpt lat="14.43244460881123" lon="120.92265825242117"><ele>7.6000000000000005</ele><time>2026-05-06T12:05:58.002Z</time></trkpt><trkpt lat="14.432551012135262" lon="120.92267137479833"><ele>7.3999999999999995</ele><time>2026-05-06T12:05:59.002Z</time></trkpt><trkpt lat="14.432666151406009" lon="120.92268561717266"><ele>7.199999999999999</ele><time>2026-05-06T12:06:00.002Z</time></trkpt><trkpt lat="14.432777865419862" lon="120.92269943583834"><ele>7.0</ele><time>2026-05-06T12:06:01.002Z</time></trkpt><trkpt lat="14.432892035551113" lon="120.92271355833425"><ele>7.25</ele><time>2026-05-06T12:06:02.002Z</time></trkpt><trkpt lat="14.433011438148782" lon="120.92272832805487"><ele>7.5</ele><time>2026-05-06T12:06:03.002Z</time></trkpt><trkpt lat="14.433127509165766" lon="120.92274330887706"><ele>7.75</ele><time>2026-05-06T12:06:04.002Z</time></trkpt><trkpt lat="14.43324380350209" lon="120.92275845607965"><ele>8.0</ele><time>2026-05-06T12:06:05.002Z</time></trkpt><trkpt lat="14.433349689613538" lon="120.92277119817416"><ele>8.0</ele><time>2026-05-06T12:06:06.002Z</time></trkpt><trkpt lat="14.433456654678954" lon="120.92278202313638"><ele>8.0</ele><time>2026-05-06T12:06:07.002Z</time></trkpt><trkpt lat="14.43356221215797" lon="120.9227875492121"><ele>8.0</ele><time>2026-05-06T12:06:08.002Z</time></trkpt><trkpt lat="14.433671955037598" lon="120.92279268590781"><ele>8.0</ele><time>2026-05-06T12:06:09.002Z</time></trkpt><trkpt lat="14.433762837200911" lon="120.92279688447307"><ele>8.0</ele><time>2026-05-06T12:06:10.002Z</time></trkpt><trkpt lat="14.433865401002281" lon="120.92280100293783"><ele>7.6000000000000005</ele><time>2026-05-06T12:06:11.002Z</time></trkpt><trkpt lat="14.4339666710961" lon="120.92278535112685"><ele>7.200000000000001</ele><time>2026-05-06T12:06:12.002Z</time></trkpt><trkpt lat="14.434069324906604" lon="120.92280402179699"><ele>6.8</ele><time>2026-05-06T12:06:13.002Z</time></trkpt><trkpt lat="14.434171731913844" lon="120.9228051873171"><ele>6.4</ele><time>2026-05-06T12:06:14.002Z</time></trkpt><trkpt lat="14.434273456590487" lon="120.92280601820701"><ele>6.0</ele><time>2026-05-06T12:06:15.002Z</time></trkpt><trkpt lat="14.434373749963065" lon="120.9228118139954"><ele>6.0</ele><time>2026-05-06T12:06:16.002Z</time></trkpt><trkpt lat="14.434471573546906" lon="120.92281841786273"><ele>6.0</ele><time>2026-05-06T12:06:17.002Z</time></trkpt><trkpt lat="14.43456343948262" lon="120.92283224626381"><ele>6.0</ele><time>2026-05-06T12:06:18.002Z</time></trkpt><trkpt lat="14.434658370331373" lon="120.92284489276173"><ele>6.0</ele><time>2026-05-06T12:06:19.002Z</time></trkpt><trkpt lat="14.43475875023974" lon="120.92286088856459"><ele>6.0</ele><time>2026-05-06T12:06:20.002Z</time></trkpt><trkpt lat="14.434861490424272" lon="120.92288125011615"><ele>6.4</ele><time>2026-05-06T12:06:21.002Z</time></trkpt><trkpt lat="14.43495968830398" lon="120.92289927732143"><ele>6.8</ele><time>2026-05-06T12:06:22.002Z</time></trkpt><trkpt lat="14.435058968252058" lon="120.92291870943163"><ele>7.200000000000001</ele><time>2026-05-06T12:06:23.002Z</time></trkpt><trkpt lat="14.43516014812307" lon="120.92294688881707"><ele>7.6000000000000005</ele><time>2026-05-06T12:06:24.002Z</time></trkpt><trkpt lat="14.435263609955644" lon="120.9229748567674"><ele>8.0</ele><time>2026-05-06T12:06:25.001Z</time></trkpt><trkpt lat="14.435370488711207" lon="120.92300245192031"><ele>8.0</ele><time>2026-05-06T12:06:26.001Z</time></trkpt><trkpt lat="14.435471381580864" lon="120.92302509114333"><ele>8.0</ele><time>2026-05-06T12:06:27.001Z</time></trkpt><trkpt lat="14.435573469889832" lon="120.92304938653666"><ele>8.0</ele><time>2026-05-06T12:06:28.001Z</time></trkpt><trkpt lat="14.435676189779928" lon="120.92307360894849"><ele>8.0</ele><time>2026-05-06T12:06:29.001Z</time></trkpt><trkpt lat="14.435773608367555" lon="120.92309546374169"><ele>8.0</ele><time>2026-05-06T12:06:30.001Z</time></trkpt><trkpt lat="14.435876993818233" lon="120.92311865713168"><ele>8.0</ele><time>2026-05-06T12:06:31.001Z</time></trkpt><trkpt lat="14.435977729094313" lon="120.92314134492827"><ele>8.0</ele><time>2026-05-06T12:06:32.001Z</time></trkpt><trkpt lat="14.436082562790558" lon="120.92316480101552"><ele>8.0</ele><time>2026-05-06T12:06:33.001Z</time></trkpt><trkpt lat="14.436184371924597" lon="120.92318703172955"><ele>8.0</ele><time>2026-05-06T12:06:34.001Z</time></trkpt><trkpt lat="14.436277846911633" lon="120.92320736410844"><ele>8.0</ele><time>2026-05-06T12:06:35.001Z</time></trkpt><trkpt lat="14.43636957808519" lon="120.9232272453436"><ele>7.6000000000000005</ele><time>2026-05-06T12:06:36.001Z</time></trkpt><trkpt lat="14.436463073954487" lon="120.92324733667358"><ele>7.200000000000001</ele><time>2026-05-06T12:06:37.001Z</time></trkpt><trkpt lat="14.436560539220102" lon="120.92326520349113"><ele>6.8</ele><time>2026-05-06T12:06:38.001Z</time></trkpt><trkpt lat="14.43665978965399" lon="120.92328357899807"><ele>6.4</ele><time>2026-05-06T12:06:39.001Z</time></trkpt><trkpt lat="14.436759931572237" lon="120.92329760197552"><ele>6.0</ele><time>2026-05-06T12:06:40.001Z</time></trkpt><trkpt lat="14.4368613728249" lon="120.92331025001882"><ele>6.0</ele><time>2026-05-06T12:06:41.001Z</time></trkpt><trkpt lat="14.436958538765541" lon="120.9233220953358"><ele>6.0</ele><time>2026-05-06T12:06:42.001Z</time></trkpt><trkpt lat="14.437043758549194" lon="120.92333248432062"><ele>6.0</ele><time>2026-05-06T12:06:43.001Z</time></trkpt><trkpt lat="14.437133521624407" lon="120.92334342716882"><ele>6.0</ele><time>2026-05-06T12:06:44.001Z</time></trkpt><trkpt lat="14.437220549934407" lon="120.92335411541062"><ele>6.0</ele><time>2026-05-06T12:06:45.001Z</time></trkpt><trkpt lat="14.437307936865448" lon="120.92336516748918"><ele>5.833333333333333</ele><time>2026-05-06T12:06:46.001Z</time></trkpt><trkpt lat="14.437393640824943" lon="120.92337600671695"><ele>5.666666666666667</ele><time>2026-05-06T12:06:47.001Z</time></trkpt><trkpt lat="14.437481750447406" lon="120.9233866725571"><ele>5.5</ele><time>2026-05-06T12:06:48.001Z</time></trkpt><trkpt lat="14.437564434252138" lon="120.92339546591508"><ele>5.333333333333334</ele><time>2026-05-06T12:06:49.001Z</time></trkpt><trkpt lat="14.437647863455624" lon="120.92340433854784"><ele>5.166666666666667</ele><time>2026-05-06T12:06:50.001Z</time></trkpt><trkpt lat="14.43773373243012" lon="120.92341347063531"><ele>5.0</ele><time>2026-05-06T12:06:51.001Z</time></trkpt><trkpt lat="14.437817970887586" lon="120.92342242933658"><ele>5.0</ele><time>2026-05-06T12:06:52.001Z</time></trkpt><trkpt lat="14.437908236575833" lon="120.92342980868447"><ele>5.0</ele><time>2026-05-06T12:06:53.001Z</time></trkpt><trkpt lat="14.437987917612109" lon="120.92343581905483"><ele>5.0</ele><time>2026-05-06T12:06:54.001Z</time></trkpt><trkpt lat="14.438054751922811" lon="120.92344086075568"><ele>5.0</ele><time>2026-05-06T12:06:55.001Z</time></trkpt><trkpt lat="14.438140284912969" lon="120.92344731253851"><ele>5.0</ele><time>2026-05-06T12:06:57.001Z</time></trkpt><trkpt lat="14.438204732217448" lon="120.92343850075085"><ele>5.0</ele><time>2026-05-06T12:07:01.001Z</time></trkpt><trkpt lat="14.43829930608883" lon="120.92346649789579"><ele>5.2</ele><time>2026-05-06T12:07:03.001Z</time></trkpt><trkpt lat="14.438416118667021" lon="120.92348129951516"><ele>5.4</ele><time>2026-05-06T12:07:05.001Z</time></trkpt><trkpt lat="14.43847852563941" lon="120.92347213524589"><ele>5.6</ele><time>2026-05-06T12:07:06.001Z</time></trkpt><trkpt lat="14.43859885397965" lon="120.92350478284483"><ele>5.8</ele><time>2026-05-06T12:07:08.001Z</time></trkpt><trkpt lat="14.438698390813082" lon="120.92351757433136"><ele>6.0</ele><time>2026-05-06T12:07:10.001Z</time></trkpt><trkpt lat="14.438774562604925" lon="120.92352077862306"><ele>6.0</ele><time>2026-05-06T12:07:13.001Z</time></trkpt><trkpt lat="14.438838308354866" lon="120.92353545769438"><ele>6.0</ele><time>2026-05-06T12:07:18.001Z</time></trkpt><trkpt lat="14.438910543527516" lon="120.92352999455062"><ele>6.0</ele><time>2026-05-06T12:07:27.001Z</time></trkpt><trkpt lat="14.438982751904227" lon="120.923532788948"><ele>6.0</ele><time>2026-05-06T12:07:30.001Z</time></trkpt><trkpt lat="14.439048164297057" lon="120.92353819828465"><ele>6.0</ele><time>2026-05-06T12:07:43.002Z</time></trkpt><trkpt lat="14.438965403612805" lon="120.92376167128813"><ele>6.0</ele><time>2026-05-06T12:07:51.002Z</time></trkpt><trkpt lat="14.439010689068484" lon="120.92381959739704"><ele>6.0</ele><time>2026-05-06T12:07:59.002Z</time></trkpt><trkpt lat="14.43906591532802" lon="120.923890239117"><ele>6.0</ele><time>2026-05-06T12:08:01.002Z</time></trkpt><trkpt lat="14.439114747141925" lon="120.92395270149275"><ele>6.0</ele><time>2026-05-06T12:08:02.002Z</time></trkpt><trkpt lat="14.43916264700888" lon="120.92401402850582"><ele>6.0</ele><time>2026-05-06T12:08:03.002Z</time></trkpt><trkpt lat="14.439205652120473" lon="120.92406935439259"><ele>6.0</ele><time>2026-05-06T12:08:04.002Z</time></trkpt><trkpt lat="14.439250535538442" lon="120.92412709671218"><ele>6.0</ele><time>2026-05-06T12:08:05.002Z</time></trkpt><trkpt lat="14.439296879194867" lon="120.92418671762208"><ele>6.0</ele><time>2026-05-06T12:08:06.002Z</time></trkpt><trkpt lat="14.439349098172247" lon="120.9242538971053"><ele>6.0</ele><time>2026-05-06T12:08:07.002Z</time></trkpt><trkpt lat="14.439400034688521" lon="120.92431974449958"><ele>6.0</ele><time>2026-05-06T12:08:08.002Z</time></trkpt><trkpt lat="14.439451707626775" lon="120.92438841436734"><ele>6.0</ele><time>2026-05-06T12:08:09.002Z</time></trkpt><trkpt lat="14.439503837946717" lon="120.92445761745753"><ele>6.0</ele><time>2026-05-06T12:08:10.002Z</time></trkpt><trkpt lat="14.439548449577975" lon="120.92451674069004"><ele>5.833333333333333</ele><time>2026-05-06T12:08:11.002Z</time></trkpt><trkpt lat="14.43960226937164" lon="120.92458822125215"><ele>5.666666666666667</ele><time>2026-05-06T12:08:12.002Z</time></trkpt><trkpt lat="14.43965137634315" lon="120.92465353897573"><ele>5.5</ele><time>2026-05-06T12:08:13.002Z</time></trkpt><trkpt lat="14.439699493449863" lon="120.9247175400688"><ele>5.333333333333334</ele><time>2026-05-06T12:08:14.002Z</time></trkpt><trkpt lat="14.439754839554643" lon="120.92479115653197"><ele>5.166666666666667</ele><time>2026-05-06T12:08:15.002Z</time></trkpt><trkpt lat="14.439814588495384" lon="120.92487062925501"><ele>5.0</ele><time>2026-05-06T12:08:16.002Z</time></trkpt><trkpt lat="14.439868737908276" lon="120.92494362706576"><ele>5.333333333333334</ele><time>2026-05-06T12:08:17.002Z</time></trkpt><trkpt lat="14.439920755390109" lon="120.92501545671766"><ele>5.666666666666667</ele><time>2026-05-06T12:08:18.002Z</time></trkpt><trkpt lat="14.439967006824093" lon="120.92507932417558"><ele>6.0</ele><time>2026-05-06T12:08:19.002Z</time></trkpt><trkpt lat="14.440012092293006" lon="120.92514204759459"><ele>6.333333333333334</ele><time>2026-05-06T12:08:20.001Z</time></trkpt><trkpt lat="14.440050918842516" lon="120.92519612339343"><ele>6.666666666666667</ele><time>2026-05-06T12:08:21.001Z</time></trkpt><trkpt lat="14.44007098569609" lon="120.92526058168686"><ele>7.0</ele><time>2026-05-06T12:08:22.001Z</time></trkpt><trkpt lat="14.44012080708526" lon="120.92533815342037"><ele>7.199999999999999</ele><time>2026-05-06T12:08:24.001Z</time></trkpt><trkpt lat="14.440180767043667" lon="120.92542253574294"><ele>7.3999999999999995</ele><time>2026-05-06T12:08:26.001Z</time></trkpt><trkpt lat="14.440227277680858" lon="120.92548742596102"><ele>7.6000000000000005</ele><time>2026-05-06T12:08:29.001Z</time></trkpt><trkpt lat="14.440338668277326" lon="120.92549455937838"><ele>7.800000000000001</ele><time>2026-05-06T12:08:34.001Z</time></trkpt><trkpt lat="14.440435737028633" lon="120.92544375225553"><ele>8.0</ele><time>2026-05-06T12:08:36.001Z</time></trkpt><trkpt lat="14.440505349104468" lon="120.92540598232229"><ele>7.999999999999999</ele><time>2026-05-06T12:08:37.001Z</time></trkpt><trkpt lat="14.44057553006533" lon="120.92537158071387"><ele>8.0</ele><time>2026-05-06T12:08:38.001Z</time></trkpt><trkpt lat="14.440653746262448" lon="120.92533536436822"><ele>8.0</ele><time>2026-05-06T12:08:39.001Z</time></trkpt><trkpt lat="14.440745863078536" lon="120.92526663087558"><ele>8.0</ele><time>2026-05-06T12:08:40.001Z</time></trkpt><trkpt lat="14.44080128102478" lon="120.9252354245046"><ele>7.999999999999999</ele><time>2026-05-06T12:08:41.001Z</time></trkpt><trkpt lat="14.440889969216817" lon="120.92519194560397"><ele>8.0</ele><time>2026-05-06T12:08:43.001Z</time></trkpt><trkpt lat="14.4409547344008" lon="120.92515931067129"><ele>8.0</ele><time>2026-05-06T12:08:46.001Z</time></trkpt><trkpt lat="14.441011935590211" lon="120.92513215152475"><ele>8.0</ele><time>2026-05-06T12:08:49.001Z</time></trkpt><trkpt lat="14.441068757354929" lon="120.92510320051424"><ele>8.0</ele><time>2026-05-06T12:08:51.001Z</time></trkpt><trkpt lat="14.44114914830803" lon="120.9250606207946"><ele>8.0</ele><time>2026-05-06T12:08:53.001Z</time></trkpt><trkpt lat="14.441246141205141" lon="120.9250049272425"><ele>8.0</ele><time>2026-05-06T12:08:55.001Z</time></trkpt><trkpt lat="14.441354439428647" lon="120.9249468013141"><ele>8.0</ele><time>2026-05-06T12:08:57.001Z</time></trkpt><trkpt lat="14.441413587116928" lon="120.9249152025051"><ele>8.0</ele><time>2026-05-06T12:08:58.001Z</time></trkpt><trkpt lat="14.441518683448466" lon="120.92485767109541"><ele>8.0</ele><time>2026-05-06T12:09:00.001Z</time></trkpt><trkpt lat="14.441595939050243" lon="120.92482472866465"><ele>8.0</ele><time>2026-05-06T12:09:02.001Z</time></trkpt><trkpt lat="14.441681952040033" lon="120.92476925552806"><ele>8.0</ele><time>2026-05-06T12:09:05.001Z</time></trkpt><trkpt lat="14.441778013887026" lon="120.92473409229878"><ele>8.0</ele><time>2026-05-06T12:09:07.001Z</time></trkpt><trkpt lat="14.441883799960673" lon="120.92465672117419"><ele>8.0</ele><time>2026-05-06T12:09:09.001Z</time></trkpt><trkpt lat="14.441959675660376" lon="120.92463455420665"><ele>8.0</ele><time>2026-05-06T12:09:10.001Z</time></trkpt><trkpt lat="14.442027443333215" lon="120.92459742220838"><ele>8.0</ele><time>2026-05-06T12:09:11.001Z</time></trkpt><trkpt lat="14.442101968047432" lon="120.92455825513463"><ele>8.0</ele><time>2026-05-06T12:09:12.001Z</time></trkpt><trkpt lat="14.442180069315864" lon="120.92451854831516"><ele>7.999999999999999</ele><time>2026-05-06T12:09:13.001Z</time></trkpt><trkpt lat="14.442263260850732" lon="120.92447625359587"><ele>8.0</ele><time>2026-05-06T12:09:14.001Z</time></trkpt><trkpt lat="14.442333007070538" lon="120.9244405998279"><ele>8.0</ele><time>2026-05-06T12:09:15.001Z</time></trkpt><trkpt lat="14.442402637115327" lon="120.92440388042685"><ele>8.0</ele><time>2026-05-06T12:09:16.001Z</time></trkpt><trkpt lat="14.442470017184867" lon="120.92436834754734"><ele>7.999999999999999</ele><time>2026-05-06T12:09:17.001Z</time></trkpt><trkpt lat="14.442541138210713" lon="120.92433179624287"><ele>8.0</ele><time>2026-05-06T12:09:18.001Z</time></trkpt><trkpt lat="14.442608571794395" lon="120.9242966302529"><ele>8.0</ele><time>2026-05-06T12:09:19.001Z</time></trkpt><trkpt lat="14.442673524082512" lon="120.92426195606228"><ele>8.0</ele><time>2026-05-06T12:09:20.001Z</time></trkpt><trkpt lat="14.442738397661065" lon="120.92422732388228"><ele>8.0</ele><time>2026-05-06T12:09:21.001Z</time></trkpt><trkpt lat="14.442846184808928" lon="120.9241684272604"><ele>8.0</ele><time>2026-05-06T12:09:23.001Z</time></trkpt><trkpt lat="14.442950538709876" lon="120.92411176171846"><ele>8.0</ele><time>2026-05-06T12:09:25.001Z</time></trkpt><trkpt lat="14.443061217941619" lon="120.92405166145545"><ele>8.0</ele><time>2026-05-06T12:09:27.001Z</time></trkpt><trkpt lat="14.443165741020398" lon="120.923994904062"><ele>8.0</ele><time>2026-05-06T12:09:29.001Z</time></trkpt><trkpt lat="14.443281180327055" lon="120.92393751655553"><ele>8.0</ele><time>2026-05-06T12:09:31.001Z</time></trkpt><trkpt lat="14.443384023630124" lon="120.92388678957363"><ele>8.0</ele><time>2026-05-06T12:09:33.001Z</time></trkpt><trkpt lat="14.443451720647898" lon="120.92385339833342"><ele>8.0</ele><time>2026-05-06T12:09:35.001Z</time></trkpt><trkpt lat="14.443511112226716" lon="120.92382410372777"><ele>7.999999999999999</ele><time>2026-05-06T12:09:37.001Z</time></trkpt><trkpt lat="14.443571591814724" lon="120.92380233391901"><ele>8.0</ele><time>2026-05-06T12:09:41.001Z</time></trkpt><trkpt lat="14.443631130131234" lon="120.9237784936295"><ele>8.0</ele><time>2026-05-06T12:09:47.001Z</time></trkpt><trkpt lat="14.443727363923843" lon="120.92374363850138"><ele>8.0</ele><time>2026-05-06T12:09:49.001Z</time></trkpt><trkpt lat="14.443795533786334" lon="120.92372298052186"><ele>7.999999999999999</ele><time>2026-05-06T12:09:50.001Z</time></trkpt><trkpt lat="14.443864660632574" lon="120.92370702713703"><ele>8.0</ele><time>2026-05-06T12:09:51.001Z</time></trkpt><trkpt lat="14.44394529467638" lon="120.92369103827069"><ele>7.800000000000001</ele><time>2026-05-06T12:09:52.001Z</time></trkpt><trkpt lat="14.444038367117663" lon="120.92367622225113"><ele>7.6000000000000005</ele><time>2026-05-06T12:09:53.001Z</time></trkpt><trkpt lat="14.444128887515825" lon="120.92366213443734"><ele>7.3999999999999995</ele><time>2026-05-06T12:09:54.001Z</time></trkpt><trkpt lat="14.444222181055595" lon="120.92364673168534"><ele>7.199999999999999</ele><time>2026-05-06T12:09:55.001Z</time></trkpt><trkpt lat="14.444318502362968" lon="120.92363013605056"><ele>7.0</ele><time>2026-05-06T12:09:56.001Z</time></trkpt><trkpt lat="14.444405751376406" lon="120.9236142387867"><ele>7.000000000000001</ele><time>2026-05-06T12:09:57.001Z</time></trkpt><trkpt lat="14.444494406244802" lon="120.92359808536976"><ele>7.0</ele><time>2026-05-06T12:09:58.001Z</time></trkpt><trkpt lat="14.44457755603262" lon="120.9235829350104"><ele>7.0</ele><time>2026-05-06T12:09:59.001Z</time></trkpt><trkpt lat="14.444666000871669" lon="120.92356685478319"><ele>7.0</ele><time>2026-05-06T12:10:00.001Z</time></trkpt><trkpt lat="14.444751237533026" lon="120.92355156232219"><ele>7.000000000000001</ele><time>2026-05-06T12:10:01.001Z</time></trkpt><trkpt lat="14.4448434607018" lon="120.92353501640129"><ele>7.0</ele><time>2026-05-06T12:10:02.001Z</time></trkpt><trkpt lat="14.444919581761893" lon="120.92352135938816"><ele>6.833333333333334</ele><time>2026-05-06T12:10:03.001Z</time></trkpt><trkpt lat="14.444992068573548" lon="120.92350835440202"><ele>6.666666666666667</ele><time>2026-05-06T12:10:04.001Z</time></trkpt><trkpt lat="14.445066824368544" lon="120.9234949423365"><ele>6.5</ele><time>2026-05-06T12:10:05.001Z</time></trkpt><trkpt lat="14.445145461370961" lon="120.92348137576437"><ele>6.333333333333334</ele><time>2026-05-06T12:10:06.001Z</time></trkpt><trkpt lat="14.445223079444347" lon="120.92346678015195"><ele>6.166666666666667</ele><time>2026-05-06T12:10:07.001Z</time></trkpt><trkpt lat="14.44529882926198" lon="120.92345169438317"><ele>6.0</ele><time>2026-05-06T12:10:08.001Z</time></trkpt><trkpt lat="14.445380026924683" lon="120.9234353895378"><ele>6.0</ele><time>2026-05-06T12:10:09.001Z</time></trkpt><trkpt lat="14.445463941461096" lon="120.92342153744258"><ele>6.0</ele><time>2026-05-06T12:10:10.001Z</time></trkpt><trkpt lat="14.445553669650927" lon="120.92340522519922"><ele>6.0</ele><time>2026-05-06T12:10:11.001Z</time></trkpt><trkpt lat="14.445625348676662" lon="120.92339219422776"><ele>6.0</ele><time>2026-05-06T12:10:12.001Z</time></trkpt><trkpt lat="14.445706230292831" lon="120.92337749026072"><ele>6.0</ele><time>2026-05-06T12:10:13.001Z</time></trkpt><trkpt lat="14.445787115311639" lon="120.9233627856732"><ele>6.0</ele><time>2026-05-06T12:10:14.001Z</time></trkpt><trkpt lat="14.445854105630485" lon="120.92335605781716"><ele>6.0</ele><time>2026-05-06T12:10:15.001Z</time></trkpt><trkpt lat="14.445917471829377" lon="120.92334964794489"><ele>6.0</ele><time>2026-05-06T12:10:16.001Z</time></trkpt><trkpt lat="14.446028230845005" lon="120.92333805465557"><ele>6.0</ele><time>2026-05-06T12:10:18.001Z</time></trkpt><trkpt lat="14.44614158389059" lon="120.92335071134491"><ele>6.0</ele><time>2026-05-06T12:10:20.001Z</time></trkpt><trkpt lat="14.446206567627275" lon="120.9233655060568"><ele>6.0</ele><time>2026-05-06T12:10:21.001Z</time></trkpt><trkpt lat="14.446272312757793" lon="120.92338073622143"><ele>6.0</ele><time>2026-05-06T12:10:22.001Z</time></trkpt><trkpt lat="14.446347973496044" lon="120.923397504564"><ele>6.333333333333333</ele><time>2026-05-06T12:10:23.001Z</time></trkpt><trkpt lat="14.446425022132717" lon="120.92341359123981"><ele>6.666666666666666</ele><time>2026-05-06T12:10:24.001Z</time></trkpt><trkpt lat="14.44649630410061" lon="120.92342847391934"><ele>7.0</ele><time>2026-05-06T12:10:25.001Z</time></trkpt><trkpt lat="14.446574382612836" lon="120.92344477559952"><ele>7.333333333333333</ele><time>2026-05-06T12:10:26.001Z</time></trkpt><trkpt lat="14.446646714234948" lon="120.92345306215888"><ele>7.666666666666666</ele><time>2026-05-06T12:10:27.001Z</time></trkpt><trkpt lat="14.446724825226958" lon="120.92346491980808"><ele>8.0</ele><time>2026-05-06T12:10:28.001Z</time></trkpt><trkpt lat="14.446841221803712" lon="120.92347898040741"><ele>7.999999999999999</ele><time>2026-05-06T12:10:30.001Z</time></trkpt><trkpt lat="14.446926900578411" lon="120.92348828041334"><ele>8.0</ele><time>2026-05-06T12:10:32.001Z</time></trkpt><trkpt lat="14.44699162043521" lon="120.92349530543125"><ele>8.0</ele><time>2026-05-06T12:10:34.001Z</time></trkpt><trkpt lat="14.447088930160538" lon="120.92350113375639"><ele>8.0</ele><time>2026-05-06T12:10:37.001Z</time></trkpt><trkpt lat="14.447152983837793" lon="120.92350378196967"><ele>7.999999999999999</ele><time>2026-05-06T12:10:39.001Z</time></trkpt><trkpt lat="14.447246590391233" lon="120.92350569117536"><ele>8.0</ele><time>2026-05-06T12:10:41.001Z</time></trkpt><trkpt lat="14.447364860078237" lon="120.92350384896244"><ele>8.142857142857142</ele><time>2026-05-06T12:10:43.001Z</time></trkpt><trkpt lat="14.447432447775842" lon="120.92350110282754"><ele>8.285714285714285</ele><time>2026-05-06T12:10:44.001Z</time></trkpt><trkpt lat="14.44750208755843" lon="120.92349827331667"><ele>8.428571428571429</ele><time>2026-05-06T12:10:45.001Z</time></trkpt><trkpt lat="14.447576497953253" lon="120.92349524997248"><ele>8.571428571428571</ele><time>2026-05-06T12:10:46.001Z</time></trkpt><trkpt lat="14.447655459968079" lon="120.9234921382036"><ele>8.714285714285715</ele><time>2026-05-06T12:10:47.001Z</time></trkpt><trkpt lat="14.44773302246431" lon="120.92348905011468"><ele>8.857142857142858</ele><time>2026-05-06T12:10:48.001Z</time></trkpt><trkpt lat="14.447805968586454" lon="120.92348614619685"><ele>9.0</ele><time>2026-05-06T12:10:49.001Z</time></trkpt><trkpt lat="14.447879673335198" lon="120.92348292974141"><ele>9.0</ele><time>2026-05-06T12:10:50.001Z</time></trkpt><trkpt lat="14.44794850896689" lon="120.9234797153639"><ele>9.0</ele><time>2026-05-06T12:10:51.001Z</time></trkpt><trkpt lat="14.44801628054215" lon="120.92347655066547"><ele>9.0</ele><time>2026-05-06T12:10:52.001Z</time></trkpt><trkpt lat="14.448131112599095" lon="120.92347118841496"><ele>9.0</ele><time>2026-05-06T12:10:54.001Z</time></trkpt><trkpt lat="14.448228787405029" lon="120.92346662734563"><ele>9.0</ele><time>2026-05-06T12:10:56.001Z</time></trkpt><trkpt lat="14.448326247565488" lon="120.92345907611862"><ele>9.0</ele><time>2026-05-06T12:10:58.001Z</time></trkpt><trkpt lat="14.448443252509392" lon="120.9234494630338"><ele>8.666666666666666</ele><time>2026-05-06T12:11:00.001Z</time></trkpt><trkpt lat="14.448558600906738" lon="120.92344453895039"><ele>8.333333333333334</ele><time>2026-05-06T12:11:02.001Z</time></trkpt><trkpt lat="14.448654125859072" lon="120.92344087170159"><ele>8.0</ele><time>2026-05-06T12:11:04.001Z</time></trkpt><trkpt lat="14.448746501603281" lon="120.92343732535336"><ele>7.666666666666667</ele><time>2026-05-06T12:11:07.001Z</time></trkpt><trkpt lat="14.448814420083751" lon="120.92343471793123"><ele>7.333333333333334</ele><time>2026-05-06T12:11:10.001Z</time></trkpt><trkpt lat="14.448885244537474" lon="120.92343199894755"><ele>7.0</ele><time>2026-05-06T12:11:13.001Z</time></trkpt><trkpt lat="14.448956999113493" lon="120.92342924425414"><ele>7.000000000000001</ele><time>2026-05-06T12:11:15.001Z</time></trkpt><trkpt lat="14.449036815801193" lon="120.92342076081582"><ele>7.0</ele><time>2026-05-06T12:11:17.001Z</time></trkpt><trkpt lat="14.449116078151262" lon="120.9234131977587"><ele>7.0</ele><time>2026-05-06T12:11:19.001Z</time></trkpt><trkpt lat="14.449205016184669" lon="120.92340471148513"><ele>7.0</ele><time>2026-05-06T12:11:21.001Z</time></trkpt><trkpt lat="14.44927354386357" lon="120.92338189284581"><ele>7.000000000000001</ele><time>2026-05-06T12:11:23.001Z</time></trkpt><trkpt lat="14.44933582295529" lon="120.92336491911264"><ele>7.0</ele><time>2026-05-06T12:11:25.001Z</time></trkpt><trkpt lat="14.44940438528688" lon="120.9233419405775"><ele>7.000000000000001</ele><time>2026-05-06T12:11:28.001Z</time></trkpt><trkpt lat="14.44949119055443" lon="120.92331234923601"><ele>7.0</ele><time>2026-05-06T12:11:32.001Z</time></trkpt><trkpt lat="14.449578463524835" lon="120.92327868310525"><ele>7.0</ele><time>2026-05-06T12:11:34.001Z</time></trkpt><trkpt lat="14.449646836935385" lon="120.92325115704988"><ele>7.0</ele><time>2026-05-06T12:11:36.001Z</time></trkpt><trkpt lat="14.449705551160594" lon="120.92322656385329"><ele>7.000000000000001</ele><time>2026-05-06T12:11:41.001Z</time></trkpt><trkpt lat="14.44977818737316" lon="120.92318403353788"><ele>7.0</ele><time>2026-05-06T12:11:44.001Z</time></trkpt><trkpt lat="14.44984781223879" lon="120.92319119695853"><ele>6.8</ele><time>2026-05-06T12:11:49.001Z</time></trkpt><trkpt lat="14.449880469387457" lon="120.9233293457883"><ele>6.6</ele><time>2026-05-06T12:12:10.001Z</time></trkpt><trkpt lat="14.449899567743964" lon="120.92341788332256"><ele>6.3999999999999995</ele><time>2026-05-06T12:12:12.001Z</time></trkpt><trkpt lat="14.449921470107125" lon="120.92351941992291"><ele>6.199999999999999</ele><time>2026-05-06T12:12:14.001Z</time></trkpt><trkpt lat="14.44995869896787" lon="120.92362326758305"><ele>6.0</ele><time>2026-05-06T12:12:37.001Z</time></trkpt><trkpt lat="14.449980437039029" lon="120.92372344465862"><ele>5.8</ele><time>2026-05-06T12:12:41.001Z</time></trkpt><trkpt lat="14.450003865727695" lon="120.9238354369866"><ele>5.6</ele><time>2026-05-06T12:12:43.001Z</time></trkpt><trkpt lat="14.450019184735467" lon="120.92389926817619"><ele>5.4</ele><time>2026-05-06T12:12:44.001Z</time></trkpt><trkpt lat="14.450047423497569" lon="120.9240270271762"><ele>5.2</ele><time>2026-05-06T12:12:46.001Z</time></trkpt><trkpt lat="14.450049932064669" lon="120.9241020547391"><ele>5.0</ele><time>2026-05-06T12:12:47.001Z</time></trkpt><trkpt lat="14.45006723225604" lon="120.92417939677264"><ele>5.166666666666667</ele><time>2026-05-06T12:12:48.001Z</time></trkpt><trkpt lat="14.450098407811451" lon="120.92425100777737"><ele>5.333333333333334</ele><time>2026-05-06T12:12:49.001Z</time></trkpt><trkpt lat="14.450103097604433" lon="120.92433973596481"><ele>5.5</ele><time>2026-05-06T12:12:50.001Z</time></trkpt><trkpt lat="14.450138281901813" lon="120.9244247777033"><ele>5.666666666666667</ele><time>2026-05-06T12:12:51.001Z</time></trkpt><trkpt lat="14.450138356006446" lon="120.92450996894983"><ele>5.833333333333333</ele><time>2026-05-06T12:12:52.001Z</time></trkpt><trkpt lat="14.450158010556873" lon="120.92460803540379"><ele>6.0</ele><time>2026-05-06T12:12:53.001Z</time></trkpt><trkpt lat="14.450178954929273" lon="120.92471253743557"><ele>6.0</ele><time>2026-05-06T12:12:54.001Z</time></trkpt><trkpt lat="14.450199840333363" lon="120.92481674525041"><ele>6.0</ele><time>2026-05-06T12:12:55.001Z</time></trkpt><trkpt lat="14.450222489608858" lon="120.92492975391214"><ele>6.0</ele><time>2026-05-06T12:12:56.001Z</time></trkpt><trkpt lat="14.450242518143144" lon="120.92502968637808"><ele>6.0</ele><time>2026-05-06T12:12:57.001Z</time></trkpt><trkpt lat="14.450261564554646" lon="120.9251247185286"><ele>6.0</ele><time>2026-05-06T12:12:58.001Z</time></trkpt><trkpt lat="14.450281536485408" lon="120.92522436856513"><ele>6.166666666666667</ele><time>2026-05-06T12:12:59.001Z</time></trkpt><trkpt lat="14.450300788992163" lon="120.92531758626839"><ele>6.333333333333334</ele><time>2026-05-06T12:13:00.001Z</time></trkpt><trkpt lat="14.45031784268487" lon="120.92539949753244"><ele>6.5</ele><time>2026-05-06T12:13:01.001Z</time></trkpt><trkpt lat="14.450349984490758" lon="120.9254819725621"><ele>6.666666666666667</ele><time>2026-05-06T12:13:02.001Z</time></trkpt><trkpt lat="14.450366367900662" lon="120.92556977489372"><ele>6.833333333333334</ele><time>2026-05-06T12:13:03.001Z</time></trkpt><trkpt lat="14.450389240282682" lon="120.9256665126576"><ele>7.0</ele><time>2026-05-06T12:13:04.001Z</time></trkpt><trkpt lat="14.450392039075146" lon="120.92576867356861"><ele>7.0</ele><time>2026-05-06T12:13:05.001Z</time></trkpt><trkpt lat="14.450413400445244" lon="120.92587763927244"><ele>6.999999999999999</ele><time>2026-05-06T12:13:06.001Z</time></trkpt><trkpt lat="14.450448683062946" lon="120.9259813584573"><ele>6.999999999999999</ele><time>2026-05-06T12:13:07.001Z</time></trkpt><trkpt lat="14.450466226688986" lon="120.92606406281183"><ele>7.0</ele><time>2026-05-06T12:13:08.001Z</time></trkpt><trkpt lat="14.450484488993839" lon="120.9261570849729"><ele>7.0</ele><time>2026-05-06T12:13:09.001Z</time></trkpt><trkpt lat="14.450501682600033" lon="120.92623881974122"><ele>7.199999999999999</ele><time>2026-05-06T12:13:10.001Z</time></trkpt><trkpt lat="14.450519957175514" lon="120.92633033433366"><ele>7.3999999999999995</ele><time>2026-05-06T12:13:11.001Z</time></trkpt><trkpt lat="14.45053302259417" lon="120.92642470680957"><ele>7.6000000000000005</ele><time>2026-05-06T12:13:12.001Z</time></trkpt><trkpt lat="14.450550180977366" lon="120.92651624558079"><ele>7.800000000000001</ele><time>2026-05-06T12:13:13.001Z</time></trkpt><trkpt lat="14.450571151975034" lon="120.92660536759604"><ele>8.0</ele><time>2026-05-06T12:13:14.001Z</time></trkpt><trkpt lat="14.450575269790882" lon="120.92669856080985"><ele>7.6000000000000005</ele><time>2026-05-06T12:13:15.001Z</time></trkpt><trkpt lat="14.450592260743178" lon="120.92679104201652"><ele>7.200000000000001</ele><time>2026-05-06T12:13:16.001Z</time></trkpt><trkpt lat="14.4506086033219" lon="120.92688729047144"><ele>6.8</ele><time>2026-05-06T12:13:17.001Z</time></trkpt><trkpt lat="14.450626512489984" lon="120.92699204749267"><ele>6.4</ele><time>2026-05-06T12:13:18.001Z</time></trkpt><trkpt lat="14.450646293070575" lon="120.92710704767276"><ele>6.0</ele><time>2026-05-06T12:13:19.001Z</time></trkpt><trkpt lat="14.450641801330251" lon="120.92721107464696"><ele>6.0</ele><time>2026-05-06T12:13:20.001Z</time></trkpt><trkpt lat="14.450633188577985" lon="120.9273175210809"><ele>6.0</ele><time>2026-05-06T12:13:21.001Z</time></trkpt><trkpt lat="14.4506190112707" lon="120.92741948785562"><ele>6.0</ele><time>2026-05-06T12:13:22.001Z</time></trkpt><trkpt lat="14.450598464042008" lon="120.92752835142537"><ele>6.0</ele><time>2026-05-06T12:13:23.001Z</time></trkpt><trkpt lat="14.45057788443917" lon="120.92763681061346"><ele>6.0</ele><time>2026-05-06T12:13:24.001Z</time></trkpt><trkpt lat="14.45055299904998" lon="120.92774219963478"><ele>6.4</ele><time>2026-05-06T12:13:25.001Z</time></trkpt><trkpt lat="14.450531755901528" lon="120.92783676720663"><ele>6.8</ele><time>2026-05-06T12:13:26.001Z</time></trkpt><trkpt lat="14.450513916187408" lon="120.92792095543693"><ele>7.200000000000001</ele><time>2026-05-06T12:13:27.001Z</time></trkpt><trkpt lat="14.450500941315962" lon="120.92799368496216"><ele>7.6000000000000005</ele><time>2026-05-06T12:13:28.001Z</time></trkpt><trkpt lat="14.450494541111729" lon="120.92809615864341"><ele>8.0</ele><time>2026-05-06T12:13:30.001Z</time></trkpt><trkpt lat="14.450517557249102" lon="120.92820173373337"><ele>8.0</ele><time>2026-05-06T12:13:32.001Z</time></trkpt><trkpt lat="14.450560024386752" lon="120.92830189302701"><ele>8.0</ele><time>2026-05-06T12:13:34.001Z</time></trkpt><trkpt lat="14.450571056524518" lon="120.92837463879204"><ele>8.0</ele><time>2026-05-06T12:13:36.001Z</time></trkpt><trkpt lat="14.450693769439486" lon="120.92837799885395"><ele>8.0</ele><time>2026-05-06T12:13:37.001Z</time></trkpt><trkpt lat="14.450758497799335" lon="120.92839543542901"><ele>8.0</ele><time>2026-05-06T12:13:39.001Z</time></trkpt><trkpt lat="14.45084010315081" lon="120.9284270514445"><ele>7.999999999999999</ele><time>2026-05-06T12:13:41.001Z</time></trkpt><trkpt lat="14.450911516032066" lon="120.92841821987868"><ele>8.0</ele><time>2026-05-06T12:13:45.001Z</time></trkpt><trkpt lat="14.450976106266504" lon="120.92841023206219"><ele>8.0</ele><time>2026-05-06T12:13:51.001Z</time></trkpt><trkpt lat="14.45104340220314" lon="120.92840190963223"><ele>8.0</ele><time>2026-05-06T12:13:54.001Z</time></trkpt><trkpt lat="14.45116660730456" lon="120.92838667296851"><ele>7.999999999999999</ele><time>2026-05-06T12:13:57.001Z</time></trkpt><trkpt lat="14.451253703719669" lon="120.92837590182978"><ele>8.0</ele><time>2026-05-06T12:13:58.001Z</time></trkpt><trkpt lat="14.45135075705411" lon="120.92836492618105"><ele>7.857142857142857</ele><time>2026-05-06T12:13:59.001Z</time></trkpt><trkpt lat="14.451442354758882" lon="120.92835711712709"><ele>7.7142857142857135</ele><time>2026-05-06T12:14:00.001Z</time></trkpt><trkpt lat="14.451517831046917" lon="120.92835089790306"><ele>7.571428571428571</ele><time>2026-05-06T12:14:01.001Z</time></trkpt><trkpt lat="14.451583285752454" lon="120.92834550445279"><ele>7.428571428571429</ele><time>2026-05-06T12:14:02.001Z</time></trkpt><trkpt lat="14.451656747785064" lon="120.92833955772845"><ele>7.285714285714286</ele><time>2026-05-06T12:14:03.001Z</time></trkpt><trkpt lat="14.451729433385614" lon="120.92833453429111"><ele>7.142857142857142</ele><time>2026-05-06T12:14:04.001Z</time></trkpt><trkpt lat="14.451798869426074" lon="120.92832973543669"><ele>7.0</ele><time>2026-05-06T12:14:05.001Z</time></trkpt><trkpt lat="14.451864994762152" lon="120.92832516539254"><ele>7.0</ele><time>2026-05-06T12:14:06.001Z</time></trkpt><trkpt lat="14.451939854382557" lon="120.92831999170393"><ele>6.999999999999999</ele><time>2026-05-06T12:14:07.001Z</time></trkpt><trkpt lat="14.452078127464347" lon="120.92831735798872"><ele>6.999999999999999</ele><time>2026-05-06T12:14:09.001Z</time></trkpt><trkpt lat="14.452212539138543" lon="120.92832341528347"><ele>7.0</ele><time>2026-05-06T12:14:11.001Z</time></trkpt><trkpt lat="14.452284236659805" lon="120.92832757074657"><ele>7.0</ele><time>2026-05-06T12:14:12.001Z</time></trkpt><trkpt lat="14.452357513930854" lon="120.92834261120977"><ele>6.666666666666667</ele><time>2026-05-06T12:14:13.001Z</time></trkpt><trkpt lat="14.452424210959787" lon="120.92836206576484"><ele>6.333333333333334</ele><time>2026-05-06T12:14:14.001Z</time></trkpt><trkpt lat="14.452493749138387" lon="120.92838649247686"><ele>6.0</ele><time>2026-05-06T12:14:15.001Z</time></trkpt><trkpt lat="14.452571118874577" lon="120.92841804341856"><ele>5.666666666666667</ele><time>2026-05-06T12:14:16.001Z</time></trkpt><trkpt lat="14.452645383518128" lon="120.92845524808328"><ele>5.333333333333334</ele><time>2026-05-06T12:14:17.001Z</time></trkpt><trkpt lat="14.452728282846664" lon="120.92849132860874"><ele>5.0</ele><time>2026-05-06T12:14:18.001Z</time></trkpt><trkpt lat="14.452794716164167" lon="120.92853695625821"><ele>5.0</ele><time>2026-05-06T12:14:19.001Z</time></trkpt><trkpt lat="14.452847923678108" lon="120.92858923637736"><ele>5.0</ele><time>2026-05-06T12:14:20.001Z</time></trkpt><trkpt lat="14.452924241832427" lon="120.92863733318583"><ele>5.0</ele><time>2026-05-06T12:14:21.001Z</time></trkpt><trkpt lat="14.452986125419804" lon="120.92869392966347"><ele>5.0</ele><time>2026-05-06T12:14:22.001Z</time></trkpt><trkpt lat="14.453048835981813" lon="120.92875312495958"><ele>5.0</ele><time>2026-05-06T12:14:23.001Z</time></trkpt><trkpt lat="14.453092089459435" lon="120.92881668490743"><ele>5.0</ele><time>2026-05-06T12:14:24.001Z</time></trkpt><trkpt lat="14.453149135857243" lon="120.92887420007717"><ele>5.0</ele><time>2026-05-06T12:14:25.001Z</time></trkpt><trkpt lat="14.453210591696298" lon="120.92893616086683"><ele>5.0</ele><time>2026-05-06T12:14:26.001Z</time></trkpt><trkpt lat="14.453271001408043" lon="120.92899706695812"><ele>5.0</ele><time>2026-05-06T12:14:27.001Z</time></trkpt><trkpt lat="14.453332135804528" lon="120.9290556265738"><ele>5.0</ele><time>2026-05-06T12:14:28.001Z</time></trkpt><trkpt lat="14.453391225354544" lon="120.92911035313638"><ele>5.0</ele><time>2026-05-06T12:14:29.001Z</time></trkpt><trkpt lat="14.453447852593435" lon="120.92916273917764"><ele>5.0</ele><time>2026-05-06T12:14:30.001Z</time></trkpt><trkpt lat="14.45350720858707" lon="120.92921758675324"><ele>5.0</ele><time>2026-05-06T12:14:31.001Z</time></trkpt><trkpt lat="14.453565044257335" lon="120.92927102946139"><ele>5.0</ele><time>2026-05-06T12:14:32.001Z</time></trkpt><trkpt lat="14.453619123282902" lon="120.9293210009072"><ele>5.0</ele><time>2026-05-06T12:14:33.001Z</time></trkpt><trkpt lat="14.45366487428877" lon="120.92936891334338"><ele>5.0</ele><time>2026-05-06T12:14:34.001Z</time></trkpt><trkpt lat="14.453714109058396" lon="120.92942032018732"><ele>5.0</ele><time>2026-05-06T12:14:35.001Z</time></trkpt><trkpt lat="14.453768973691599" lon="120.92947490572101"><ele>5.0</ele><time>2026-05-06T12:14:36.001Z</time></trkpt><trkpt lat="14.453826863732234" lon="120.92953095710507"><ele>5.0</ele><time>2026-05-06T12:14:37.001Z</time></trkpt><trkpt lat="14.45388322074175" lon="120.92957972943789"><ele>5.0</ele><time>2026-05-06T12:14:38.001Z</time></trkpt><trkpt lat="14.453938493419265" lon="120.92962617119016"><ele>5.0</ele><time>2026-05-06T12:14:39.001Z</time></trkpt><trkpt lat="14.453999777025002" lon="120.9296776635047"><ele>5.0</ele><time>2026-05-06T12:14:40.001Z</time></trkpt><trkpt lat="14.454065849332851" lon="120.9297251924539"><ele>5.0</ele><time>2026-05-06T12:14:41.001Z</time></trkpt><trkpt lat="14.454133490850236" lon="120.92976963398532"><ele>5.0</ele><time>2026-05-06T12:14:42.001Z</time></trkpt><trkpt lat="14.454201832713126" lon="120.92980846100491"><ele>5.0</ele><time>2026-05-06T12:14:43.001Z</time></trkpt><trkpt lat="14.45428622545123" lon="120.92984973083975"><ele>5.0</ele><time>2026-05-06T12:14:44.001Z</time></trkpt><trkpt lat="14.454377455634349" lon="120.92988599506961"><ele>5.0</ele><time>2026-05-06T12:14:45.001Z</time></trkpt><trkpt lat="14.454484637737158" lon="120.92992311984021"><ele>5.0</ele><time>2026-05-06T12:14:46.001Z</time></trkpt><trkpt lat="14.454594795272264" lon="120.92994947541061"><ele>5.0</ele><time>2026-05-06T12:14:47.001Z</time></trkpt><trkpt lat="14.454709935412346" lon="120.9299755194787"><ele>5.0</ele><time>2026-05-06T12:14:48.001Z</time></trkpt><trkpt lat="14.454822474380693" lon="120.93000072308244"><ele>5.25</ele><time>2026-05-06T12:14:49.001Z</time></trkpt><trkpt lat="14.454933331000642" lon="120.93002387632505"><ele>5.5</ele><time>2026-05-06T12:14:50.001Z</time></trkpt><trkpt lat="14.455051656394991" lon="120.93005021331183"><ele>5.75</ele><time>2026-05-06T12:14:51.001Z</time></trkpt><trkpt lat="14.45516953438586" lon="120.93007237437224"><ele>6.0</ele><time>2026-05-06T12:14:52.001Z</time></trkpt><trkpt lat="14.455277987151645" lon="120.9300925668991"><ele>5.5</ele><time>2026-05-06T12:14:53.001Z</time></trkpt><trkpt lat="14.455390560123305" lon="120.93011308831869"><ele>5.0</ele><time>2026-05-06T12:14:54.001Z</time></trkpt><trkpt lat="14.455504237225252" lon="120.93013554026432"><ele>4.5</ele><time>2026-05-06T12:14:55.001Z</time></trkpt><trkpt lat="14.455615630812622" lon="120.93015572008916"><ele>4.0</ele><time>2026-05-06T12:14:56.001Z</time></trkpt><trkpt lat="14.455740217598928" lon="120.93010889890341"><ele>4.800000000000001</ele><time>2026-05-06T12:14:57.001Z</time></trkpt><trkpt lat="14.455842310057006" lon="120.93012694569381"><ele>5.6000000000000005</ele><time>2026-05-06T12:14:58.001Z</time></trkpt><trkpt lat="14.45594211215461" lon="120.9301500780094"><ele>6.4</ele><time>2026-05-06T12:14:59.001Z</time></trkpt><trkpt lat="14.456041053498241" lon="120.93016774089828"><ele>7.2</ele><time>2026-05-06T12:15:00.001Z</time></trkpt><trkpt lat="14.456128176073335" lon="120.93023025309486"><ele>8.0</ele><time>2026-05-06T12:15:01.001Z</time></trkpt><trkpt lat="14.456208569797491" lon="120.93023650960474"><ele>8.0</ele><time>2026-05-06T12:15:02.001Z</time></trkpt><trkpt lat="14.456295892150912" lon="120.93025436321152"><ele>7.999999999999999</ele><time>2026-05-06T12:15:03.001Z</time></trkpt><trkpt lat="14.45636364029181" lon="120.93026821476256"><ele>8.0</ele><time>2026-05-06T12:15:04.001Z</time></trkpt><trkpt lat="14.456435039793561" lon="120.93028281286703"><ele>8.0</ele><time>2026-05-06T12:15:05.001Z</time></trkpt><trkpt lat="14.456499441095035" lon="120.9302959801173"><ele>7.999999999999999</ele><time>2026-05-06T12:15:06.001Z</time></trkpt><trkpt lat="14.456566308803716" lon="120.93031231604053"><ele>8.0</ele><time>2026-05-06T12:15:07.001Z</time></trkpt><trkpt lat="14.456642133747245" lon="120.93033025237"><ele>8.0</ele><time>2026-05-06T12:15:08.001Z</time></trkpt><trkpt lat="14.456716303972936" lon="120.93034779727226"><ele>7.999999999999999</ele><time>2026-05-06T12:15:09.001Z</time></trkpt><trkpt lat="14.456800193450853" lon="120.93036764125947"><ele>8.0</ele><time>2026-05-06T12:15:10.001Z</time></trkpt><trkpt lat="14.456880505173919" lon="120.93039517529176"><ele>8.0</ele><time>2026-05-06T12:15:11.001Z</time></trkpt><trkpt lat="14.45696011977378" lon="120.9304285964963"><ele>8.0</ele><time>2026-05-06T12:15:12.001Z</time></trkpt><trkpt lat="14.457041277888473" lon="120.93046135606482"><ele>7.999999999999999</ele><time>2026-05-06T12:15:13.001Z</time></trkpt><trkpt lat="14.457096406648015" lon="120.9305379881323"><ele>8.0</ele><time>2026-05-06T12:15:14.001Z</time></trkpt><trkpt lat="14.457142686453953" lon="120.93062999053089"><ele>7.800000000000001</ele><time>2026-05-06T12:15:15.001Z</time></trkpt><trkpt lat="14.457181272566407" lon="120.93073030887386"><ele>7.6000000000000005</ele><time>2026-05-06T12:15:16.001Z</time></trkpt><trkpt lat="14.45721442735063" lon="120.93082892463994"><ele>7.3999999999999995</ele><time>2026-05-06T12:15:17.001Z</time></trkpt><trkpt lat="14.457244052687729" lon="120.93092150578399"><ele>7.199999999999999</ele><time>2026-05-06T12:15:18.001Z</time></trkpt><trkpt lat="14.457274845310131" lon="120.93101856852788"><ele>7.0</ele><time>2026-05-06T12:15:19.001Z</time></trkpt><trkpt lat="14.457313041942502" lon="120.93111970400201"><ele>7.0</ele><time>2026-05-06T12:15:20.001Z</time></trkpt><trkpt lat="14.457349760518397" lon="120.93121108046395"><ele>6.999999999999999</ele><time>2026-05-06T12:15:21.001Z</time></trkpt><trkpt lat="14.457383123786927" lon="120.93132080481881"><ele>6.999999999999999</ele><time>2026-05-06T12:15:22.001Z</time></trkpt><trkpt lat="14.457425268148043" lon="120.93141361846324"><ele>7.0</ele><time>2026-05-06T12:15:23.001Z</time></trkpt><trkpt lat="14.457462586987829" lon="120.93151960744964"><ele>7.0</ele><time>2026-05-06T12:15:24.001Z</time></trkpt><trkpt lat="14.457500656674107" lon="120.93162833993858"><ele>6.8</ele><time>2026-05-06T12:15:25.001Z</time></trkpt><trkpt lat="14.457537916950553" lon="120.93173510008243"><ele>6.6</ele><time>2026-05-06T12:15:26.001Z</time></trkpt><trkpt lat="14.457574288324887" lon="120.93184377691612"><ele>6.3999999999999995</ele><time>2026-05-06T12:15:27.001Z</time></trkpt><trkpt lat="14.457611242586148" lon="120.93195550148842"><ele>6.199999999999999</ele><time>2026-05-06T12:15:28.001Z</time></trkpt><trkpt lat="14.457655807922643" lon="120.93205773114505"><ele>6.0</ele><time>2026-05-06T12:15:29Z</time></trkpt><trkpt lat="14.457687447483769" lon="120.93216223462811"><ele>6.0</ele><time>2026-05-06T12:15:30Z</time></trkpt><trkpt lat="14.457723528167056" lon="120.93226342066663"><ele>6.0</ele><time>2026-05-06T12:15:31Z</time></trkpt><trkpt lat="14.45775448924359" lon="120.93236672834824"><ele>6.0</ele><time>2026-05-06T12:15:32Z</time></trkpt><trkpt lat="14.457784766121215" lon="120.9324712200129"><ele>6.0</ele><time>2026-05-06T12:15:33Z</time></trkpt><trkpt lat="14.457805350336372" lon="120.93258098408087"><ele>6.0</ele><time>2026-05-06T12:15:34Z</time></trkpt><trkpt lat="14.45782092292865" lon="120.93268901949993"><ele>6.0</ele><time>2026-05-06T12:15:35Z</time></trkpt><trkpt lat="14.457830432134973" lon="120.93278732980852"><ele>6.0</ele><time>2026-05-06T12:15:36Z</time></trkpt><trkpt lat="14.45784048483836" lon="120.93287395270728"><ele>6.0</ele><time>2026-05-06T12:15:37Z</time></trkpt><trkpt lat="14.457845707604186" lon="120.93295343899095"><ele>6.0</ele><time>2026-05-06T12:15:38Z</time></trkpt><trkpt lat="14.457854905902249" lon="120.93303864209996"><ele>6.0</ele><time>2026-05-06T12:15:39Z</time></trkpt><trkpt lat="14.457868529595425" lon="120.93311184008351"><ele>6.0</ele><time>2026-05-06T12:15:40Z</time></trkpt><trkpt lat="14.457873814963754" lon="120.9331815151353"><ele>6.0</ele><time>2026-05-06T12:15:41Z</time></trkpt><trkpt lat="14.457885293965047" lon="120.93325744245604"><ele>6.0</ele><time>2026-05-06T12:15:42Z</time></trkpt><trkpt lat="14.457893870247135" lon="120.93334173219772"><ele>6.0</ele><time>2026-05-06T12:15:43Z</time></trkpt><trkpt lat="14.457908999833643" lon="120.93342868030724"><ele>6.0</ele><time>2026-05-06T12:15:44Z</time></trkpt><trkpt lat="14.457919663486877" lon="120.9335278647096"><ele>6.0</ele><time>2026-05-06T12:15:45Z</time></trkpt><trkpt lat="14.457935438655728" lon="120.93362931755377"><ele>6.0</ele><time>2026-05-06T12:15:46Z</time></trkpt><trkpt lat="14.457945352633399" lon="120.93373825750581"><ele>6.0</ele><time>2026-05-06T12:15:47Z</time></trkpt><trkpt lat="14.457954609391509" lon="120.93385277847196"><ele>6.0</ele><time>2026-05-06T12:15:48Z</time></trkpt><trkpt lat="14.457952080073248" lon="120.93397182165734"><ele>6.0</ele><time>2026-05-06T12:15:49Z</time></trkpt><trkpt lat="14.457976037349534" lon="120.93408196803331"><ele>6.0</ele><time>2026-05-06T12:15:50Z</time></trkpt><trkpt lat="14.457993330737803" lon="120.93419288988615"><ele>6.0</ele><time>2026-05-06T12:15:51Z</time></trkpt><trkpt lat="14.458009989612924" lon="120.9343020839544"><ele>6.0</ele><time>2026-05-06T12:15:52Z</time></trkpt><trkpt lat="14.45803205584467" lon="120.93441022801363"><ele>6.0</ele><time>2026-05-06T12:15:53Z</time></trkpt><trkpt lat="14.45804411296463" lon="120.93451947095154"><ele>6.0</ele><time>2026-05-06T12:15:54Z</time></trkpt><trkpt lat="14.458071440220227" lon="120.93462492299689"><ele>6.0</ele><time>2026-05-06T12:15:55Z</time></trkpt><trkpt lat="14.458094549554039" lon="120.9347356240046"><ele>6.0</ele><time>2026-05-06T12:15:56Z</time></trkpt><trkpt lat="14.458123627195672" lon="120.93484117078222"><ele>6.0</ele><time>2026-05-06T12:15:57Z</time></trkpt><trkpt lat="14.458149326173599" lon="120.9349467182943"><ele>6.0</ele><time>2026-05-06T12:15:58Z</time></trkpt><trkpt lat="14.458169684280795" lon="120.93505806601848"><ele>6.0</ele><time>2026-05-06T12:15:59Z</time></trkpt><trkpt lat="14.458194586872235" lon="120.93516189465582"><ele>6.0</ele><time>2026-05-06T12:16:00Z</time></trkpt><trkpt lat="14.458221963473056" lon="120.9352695861203"><ele>6.0</ele><time>2026-05-06T12:16:01Z</time></trkpt><trkpt lat="14.458255681473995" lon="120.93538249043219"><ele>5.5</ele><time>2026-05-06T12:16:02Z</time></trkpt><trkpt lat="14.458279556740711" lon="120.93550797227142"><ele>5.0</ele><time>2026-05-06T12:16:03Z</time></trkpt><trkpt lat="14.458302265230559" lon="120.93563492718746"><ele>4.5</ele><time>2026-05-06T12:16:04Z</time></trkpt><trkpt lat="14.458327381515357" lon="120.93575416390514"><ele>4.0</ele><time>2026-05-06T12:16:05Z</time></trkpt><trkpt lat="14.458347071811541" lon="120.93587582409796"><ele>4.2</ele><time>2026-05-06T12:16:06Z</time></trkpt><trkpt lat="14.458380888269906" lon="120.93598249830819"><ele>4.4</ele><time>2026-05-06T12:16:07Z</time></trkpt><trkpt lat="14.458408158403039" lon="120.93609029490752"><ele>4.6</ele><time>2026-05-06T12:16:08Z</time></trkpt><trkpt lat="14.458427652137123" lon="120.93618584581965"><ele>4.8</ele><time>2026-05-06T12:16:09Z</time></trkpt><trkpt lat="14.458442694681274" lon="120.9362870305318"><ele>5.0</ele><time>2026-05-06T12:16:10Z</time></trkpt><trkpt lat="14.458466985933955" lon="120.93638310223893"><ele>5.0</ele><time>2026-05-06T12:16:11Z</time></trkpt><trkpt lat="14.458494404999705" lon="120.93647352298278"><ele>5.0</ele><time>2026-05-06T12:16:12Z</time></trkpt><trkpt lat="14.458517807969471" lon="120.9365664421146"><ele>5.0</ele><time>2026-05-06T12:16:13Z</time></trkpt><trkpt lat="14.458537124173604" lon="120.93666760970308"><ele>5.0</ele><time>2026-05-06T12:16:14Z</time></trkpt><trkpt lat="14.458560133409318" lon="120.93675660405607"><ele>5.0</ele><time>2026-05-06T12:16:15Z</time></trkpt><trkpt lat="14.458581192642008" lon="120.9368519361395"><ele>5.4</ele><time>2026-05-06T12:16:16Z</time></trkpt><trkpt lat="14.458607825190512" lon="120.93695062733778"><ele>5.8</ele><time>2026-05-06T12:16:17Z</time></trkpt><trkpt lat="14.458633683849866" lon="120.93704914231976"><ele>6.199999999999999</ele><time>2026-05-06T12:16:18Z</time></trkpt><trkpt lat="14.458657925269712" lon="120.93715518670335"><ele>6.6</ele><time>2026-05-06T12:16:19Z</time></trkpt><trkpt lat="14.458684024106958" lon="120.93726815824571"><ele>7.0</ele><time>2026-05-06T12:16:20Z</time></trkpt><trkpt lat="14.458712698191324" lon="120.93738462160778"><ele>7.0</ele><time>2026-05-06T12:16:21Z</time></trkpt><trkpt lat="14.458730624159612" lon="120.93750753293384"><ele>7.0</ele><time>2026-05-06T12:16:22Z</time></trkpt><trkpt lat="14.458762158731462" lon="120.93762263434542"><ele>7.0</ele><time>2026-05-06T12:16:23Z</time></trkpt><trkpt lat="14.458787561608336" lon="120.93774328091457"><ele>7.0</ele><time>2026-05-06T12:16:24Z</time></trkpt><trkpt lat="14.458811906579538" lon="120.93786757556389"><ele>6.5</ele><time>2026-05-06T12:16:25Z</time></trkpt><trkpt lat="14.458841032956013" lon="120.93798299053827"><ele>6.0</ele><time>2026-05-06T12:16:26Z</time></trkpt><trkpt lat="14.458867466967465" lon="120.93810239813783"><ele>5.5</ele><time>2026-05-06T12:16:27Z</time></trkpt><trkpt lat="14.458893819289592" lon="120.9382224250947"><ele>5.0</ele><time>2026-05-06T12:16:28Z</time></trkpt><trkpt lat="14.458912103215296" lon="120.93834051916714"><ele>5.6</ele><time>2026-05-06T12:16:29Z</time></trkpt><trkpt lat="14.458941503809985" lon="120.93843191514534"><ele>6.2</ele><time>2026-05-06T12:16:30.001Z</time></trkpt><trkpt lat="14.458967754868201" lon="120.93853286676311"><ele>6.800000000000001</ele><time>2026-05-06T12:16:31.001Z</time></trkpt><trkpt lat="14.458991379677949" lon="120.93864109041628"><ele>7.4</ele><time>2026-05-06T12:16:32.001Z</time></trkpt><trkpt lat="14.459015067487165" lon="120.93874708646372"><ele>8.0</ele><time>2026-05-06T12:16:33.001Z</time></trkpt><trkpt lat="14.459039517128659" lon="120.93885467527274"><ele>8.0</ele><time>2026-05-06T12:16:34.001Z</time></trkpt><trkpt lat="14.459061354772453" lon="120.93896782533537"><ele>8.0</ele><time>2026-05-06T12:16:35.001Z</time></trkpt><trkpt lat="14.459088457364382" lon="120.93907736125149"><ele>8.0</ele><time>2026-05-06T12:16:36.001Z</time></trkpt><trkpt lat="14.45911693953476" lon="120.93918990273995"><ele>8.0</ele><time>2026-05-06T12:16:37.001Z</time></trkpt><trkpt lat="14.459140430216628" lon="120.9393051874103"><ele>8.0</ele><time>2026-05-06T12:16:38.001Z</time></trkpt><trkpt lat="14.459168296876053" lon="120.93941417243816"><ele>8.0</ele><time>2026-05-06T12:16:39.001Z</time></trkpt><trkpt lat="14.45919626340252" lon="120.93952547806371"><ele>8.0</ele><time>2026-05-06T12:16:40.001Z</time></trkpt><trkpt lat="14.45921924126422" lon="120.93964017561593"><ele>8.0</ele><time>2026-05-06T12:16:41Z</time></trkpt><trkpt lat="14.45923883632731" lon="120.9397443160861"><ele>8.0</ele><time>2026-05-06T12:16:42Z</time></trkpt><trkpt lat="14.45925859695825" lon="120.93983100490114"><ele>8.0</ele><time>2026-05-06T12:16:43Z</time></trkpt><trkpt lat="14.459267540262005" lon="120.9399141969502"><ele>7.999999999999999</ele><time>2026-05-06T12:16:44Z</time></trkpt><trkpt lat="14.45927732088176" lon="120.93998974714845"><ele>8.0</ele><time>2026-05-06T12:16:45Z</time></trkpt><trkpt lat="14.459285833812423" lon="120.94005777773658"><ele>8.0</ele><time>2026-05-06T12:16:46Z</time></trkpt><trkpt lat="14.459300250292724" lon="120.94016632275073"><ele>8.0</ele><time>2026-05-06T12:16:48Z</time></trkpt><trkpt lat="14.459315224562083" lon="120.9402373290237"><ele>7.999999999999999</ele><time>2026-05-06T12:16:50Z</time></trkpt><trkpt lat="14.459323801509779" lon="120.94032806348388"><ele>8.0</ele><time>2026-05-06T12:16:53Z</time></trkpt><trkpt lat="14.459326825205784" lon="120.94040376139341"><ele>7.999999999999999</ele><time>2026-05-06T12:16:55Z</time></trkpt><trkpt lat="14.459332165073105" lon="120.9404941854269"><ele>8.0</ele><time>2026-05-06T12:16:57Z</time></trkpt><trkpt lat="14.45933686841941" lon="120.94059385118308"><ele>8.0</ele><time>2026-05-06T12:16:59Z</time></trkpt><trkpt lat="14.459348045798698" lon="120.94070139926617"><ele>8.0</ele><time>2026-05-06T12:17:01Z</time></trkpt><trkpt lat="14.459357790837148" lon="120.94077619736377"><ele>7.999999999999999</ele><time>2026-05-06T12:17:03Z</time></trkpt><trkpt lat="14.459362479922104" lon="120.94084423392991"><ele>8.0</ele><time>2026-05-06T12:17:07Z</time></trkpt><trkpt lat="14.459370088623157" lon="120.94092205482563"><ele>7.666666666666666</ele><time>2026-05-06T12:17:09Z</time></trkpt><trkpt lat="14.459383645476418" lon="120.94099072221202"><ele>7.333333333333333</ele><time>2026-05-06T12:17:11Z</time></trkpt><trkpt lat="14.459393399559024" lon="120.94108814040501"><ele>7.0</ele><time>2026-05-06T12:17:13Z</time></trkpt><trkpt lat="14.459400054835465" lon="120.94115738658633"><ele>6.666666666666666</ele><time>2026-05-06T12:17:14Z</time></trkpt><trkpt lat="14.459389599263359" lon="120.94124743672634"><ele>6.333333333333333</ele><time>2026-05-06T12:17:15Z</time></trkpt><trkpt lat="14.459395107681406" lon="120.94133291501784"><ele>6.0</ele><time>2026-05-06T12:17:16Z</time></trkpt><trkpt lat="14.459401730490741" lon="120.94143568612334"><ele>6.0</ele><time>2026-05-06T12:17:17Z</time></trkpt><trkpt lat="14.459409253344818" lon="120.94151939203229"><ele>6.0</ele><time>2026-05-06T12:17:18Z</time></trkpt><trkpt lat="14.459416281501197" lon="120.94159228818658"><ele>6.0</ele><time>2026-05-06T12:17:19Z</time></trkpt><trkpt lat="14.459428640950627" lon="120.94172048060553"><ele>6.0</ele><time>2026-05-06T12:17:21Z</time></trkpt><trkpt lat="14.459435153633397" lon="120.9417880302702"><ele>6.0</ele><time>2026-05-06T12:17:22Z</time></trkpt><trkpt lat="14.459441926762832" lon="120.94185828128178"><ele>6.0</ele><time>2026-05-06T12:17:23Z</time></trkpt><trkpt lat="14.459449808863058" lon="120.94194003457443"><ele>6.4</ele><time>2026-05-06T12:17:24Z</time></trkpt><trkpt lat="14.45947210975606" lon="120.9420280176108"><ele>6.8</ele><time>2026-05-06T12:17:25Z</time></trkpt><trkpt lat="14.459478119090521" lon="120.94212801692328"><ele>7.200000000000001</ele><time>2026-05-06T12:17:26Z</time></trkpt><trkpt lat="14.459488510286299" lon="120.9422378270881"><ele>7.6000000000000005</ele><time>2026-05-06T12:17:27Z</time></trkpt><trkpt lat="14.459499098724425" lon="120.94235004493054"><ele>8.0</ele><time>2026-05-06T12:17:28Z</time></trkpt><trkpt lat="14.459509861032556" lon="120.94246952974233"><ele>8.0</ele><time>2026-05-06T12:17:29Z</time></trkpt><trkpt lat="14.459522501409678" lon="120.94258664726533"><ele>8.0</ele><time>2026-05-06T12:17:30Z</time></trkpt><trkpt lat="14.45953397923583" lon="120.94270625698064"><ele>8.0</ele><time>2026-05-06T12:17:31Z</time></trkpt><trkpt lat="14.45954449419951" lon="120.94281911712058"><ele>8.0</ele><time>2026-05-06T12:17:32Z</time></trkpt><trkpt lat="14.459551236372642" lon="120.94291926069478"><ele>8.0</ele><time>2026-05-06T12:17:33Z</time></trkpt><trkpt lat="14.459561378521185" lon="120.94301715700902"><ele>8.0</ele><time>2026-05-06T12:17:34Z</time></trkpt><trkpt lat="14.459572099795778" lon="120.94312050294631"><ele>8.0</ele><time>2026-05-06T12:17:35Z</time></trkpt><trkpt lat="14.4595825840924" lon="120.94322816059547"><ele>8.0</ele><time>2026-05-06T12:17:36Z</time></trkpt><trkpt lat="14.459592190615206" lon="120.94333662133847"><ele>8.0</ele><time>2026-05-06T12:17:37Z</time></trkpt><trkpt lat="14.459600246835919" lon="120.94343758565674"><ele>8.0</ele><time>2026-05-06T12:17:38Z</time></trkpt><trkpt lat="14.45960957310125" lon="120.94352039036391"><ele>7.999999999999999</ele><time>2026-05-06T12:17:39Z</time></trkpt><trkpt lat="14.459618795542081" lon="120.94360725629383"><ele>8.0</ele><time>2026-05-06T12:17:40Z</time></trkpt><trkpt lat="14.459627328060321" lon="120.94369308298418"><ele>8.0</ele><time>2026-05-06T12:17:41Z</time></trkpt><trkpt lat="14.459633035829867" lon="120.9437866644844"><ele>8.0</ele><time>2026-05-06T12:17:42Z</time></trkpt><trkpt lat="14.459640086461405" lon="120.94387952393694"><ele>7.999999999999999</ele><time>2026-05-06T12:17:43Z</time></trkpt><trkpt lat="14.459649175718038" lon="120.94396855134465"><ele>8.0</ele><time>2026-05-06T12:17:44Z</time></trkpt><trkpt lat="14.45965684057081" lon="120.94404636467375"><ele>7.999999999999999</ele><time>2026-05-06T12:17:45Z</time></trkpt><trkpt lat="14.45966387847775" lon="120.9441225645882"><ele>8.0</ele><time>2026-05-06T12:17:46Z</time></trkpt><trkpt lat="14.459670184452888" lon="120.94420001661086"><ele>8.0</ele><time>2026-05-06T12:17:47Z</time></trkpt><trkpt lat="14.459675672015765" lon="120.944285863919"><ele>8.0</ele><time>2026-05-06T12:17:48Z</time></trkpt><trkpt lat="14.459678069733616" lon="120.94436657388056"><ele>7.999999999999999</ele><time>2026-05-06T12:17:49Z</time></trkpt><trkpt lat="14.459683872077495" lon="120.94445478861024"><ele>8.0</ele><time>2026-05-06T12:17:50Z</time></trkpt><trkpt lat="14.4596899653527" lon="120.94453004836426"><ele>7.857142857142857</ele><time>2026-05-06T12:17:51Z</time></trkpt><trkpt lat="14.459693239350383" lon="120.94460518445047"><ele>7.7142857142857135</ele><time>2026-05-06T12:17:52Z</time></trkpt><trkpt lat="14.459699755185179" lon="120.94467637665589"><ele>7.571428571428571</ele><time>2026-05-06T12:17:53Z</time></trkpt><trkpt lat="14.45970236157097" lon="120.9447546296119"><ele>7.428571428571429</ele><time>2026-05-06T12:17:54Z</time></trkpt><trkpt lat="14.459702900262961" lon="120.94483749058747"><ele>7.285714285714286</ele><time>2026-05-06T12:17:55Z</time></trkpt><trkpt lat="14.459708307232372" lon="120.94491012067361"><ele>7.142857142857142</ele><time>2026-05-06T12:17:56Z</time></trkpt><trkpt lat="14.459708334353301" lon="120.94497791932713"><ele>7.0</ele><time>2026-05-06T12:17:57Z</time></trkpt><trkpt lat="14.459710225676254" lon="120.94504743519066"><ele>7.000000000000001</ele><time>2026-05-06T12:17:58Z</time></trkpt><trkpt lat="14.459708323052606" lon="120.94511546805876"><ele>7.0</ele><time>2026-05-06T12:17:59Z</time></trkpt><trkpt lat="14.459715798379957" lon="120.94525138461788"><ele>7.0</ele><time>2026-05-06T12:18:01Z</time></trkpt><trkpt lat="14.459718019334883" lon="120.94532035338294"><ele>7.0</ele><time>2026-05-06T12:18:02Z</time></trkpt><trkpt lat="14.459715993471635" lon="120.94539115566798"><ele>7.000000000000001</ele><time>2026-05-06T12:18:03Z</time></trkpt><trkpt lat="14.459718571843776" lon="120.94546311142253"><ele>7.0</ele><time>2026-05-06T12:18:04Z</time></trkpt><trkpt lat="14.459719814502167" lon="120.94553634107379"><ele>7.000000000000001</ele><time>2026-05-06T12:18:05Z</time></trkpt><trkpt lat="14.459721929169739" lon="120.94560751638251"><ele>7.0</ele><time>2026-05-06T12:18:06Z</time></trkpt><trkpt lat="14.459720515355308" lon="120.94568153485805"><ele>7.0</ele><time>2026-05-06T12:18:07Z</time></trkpt><trkpt lat="14.459720156207835" lon="120.94574871112836"><ele>7.0</ele><time>2026-05-06T12:18:08Z</time></trkpt><trkpt lat="14.459729389240243" lon="120.94587083742746"><ele>7.000000000000001</ele><time>2026-05-06T12:18:10Z</time></trkpt><trkpt lat="14.459729956763967" lon="120.94593896943275"><ele>7.0</ele><time>2026-05-06T12:18:11Z</time></trkpt><trkpt lat="14.459734234263232" lon="120.94605391211081"><ele>7.199999999999999</ele><time>2026-05-06T12:18:13Z</time></trkpt><trkpt lat="14.459737878410102" lon="120.94616385046368"><ele>7.3999999999999995</ele><time>2026-05-06T12:18:15Z</time></trkpt><trkpt lat="14.459741792779301" lon="120.94627553538504"><ele>7.6000000000000005</ele><time>2026-05-06T12:18:17Z</time></trkpt><trkpt lat="14.459746948183643" lon="120.9464014258773"><ele>7.800000000000001</ele><time>2026-05-06T12:18:19Z</time></trkpt><trkpt lat="14.459749094903643" lon="120.94647084367884"><ele>8.0</ele><time>2026-05-06T12:18:20Z</time></trkpt><trkpt lat="14.459750145336653" lon="120.94654063230504"><ele>7.999999999999999</ele><time>2026-05-06T12:18:21Z</time></trkpt><trkpt lat="14.459749172219441" lon="120.94661783979686"><ele>8.0</ele><time>2026-05-06T12:18:22Z</time></trkpt><trkpt lat="14.459756062374224" lon="120.94670251028198"><ele>8.0</ele><time>2026-05-06T12:18:23Z</time></trkpt><trkpt lat="14.459764594480742" lon="120.94679392578216"><ele>8.0</ele><time>2026-05-06T12:18:24Z</time></trkpt><trkpt lat="14.459767098782782" lon="120.9468825916496"><ele>7.999999999999999</ele><time>2026-05-06T12:18:25Z</time></trkpt><trkpt lat="14.459772694687555" lon="120.94696367549369"><ele>8.0</ele><time>2026-05-06T12:18:26Z</time></trkpt><trkpt lat="14.459779943724543" lon="120.9470375456885"><ele>7.999999999999999</ele><time>2026-05-06T12:18:27Z</time></trkpt><trkpt lat="14.459788657316908" lon="120.94713029215454"><ele>8.0</ele><time>2026-05-06T12:18:28Z</time></trkpt><trkpt lat="14.459791751739166" lon="120.94721482021122"><ele>8.0</ele><time>2026-05-06T12:18:29Z</time></trkpt><trkpt lat="14.459798450210744" lon="120.94729643528525"><ele>8.0</ele><time>2026-05-06T12:18:30Z</time></trkpt><trkpt lat="14.459807453422837" lon="120.94738843013505"><ele>7.999999999999999</ele><time>2026-05-06T12:18:31Z</time></trkpt><trkpt lat="14.4598177740991" lon="120.94747695399417"><ele>8.0</ele><time>2026-05-06T12:18:32Z</time></trkpt><trkpt lat="14.459825224894342" lon="120.94756585574912"><ele>7.800000000000001</ele><time>2026-05-06T12:18:33Z</time></trkpt><trkpt lat="14.459835224415512" lon="120.94766327136291"><ele>7.6000000000000005</ele><time>2026-05-06T12:18:34Z</time></trkpt><trkpt lat="14.459849591690253" lon="120.94776272380393"><ele>7.3999999999999995</ele><time>2026-05-06T12:18:35Z</time></trkpt><trkpt lat="14.45985779615832" lon="120.9478761705725"><ele>7.199999999999999</ele><time>2026-05-06T12:18:36Z</time></trkpt><trkpt lat="14.45986586467663" lon="120.94797995683113"><ele>7.0</ele><time>2026-05-06T12:18:37Z</time></trkpt><trkpt lat="14.459868122180195" lon="120.94809358471605"><ele>7.0</ele><time>2026-05-06T12:18:38Z</time></trkpt><trkpt lat="14.45987776558018" lon="120.9481982973187"><ele>6.999999999999999</ele><time>2026-05-06T12:18:39Z</time></trkpt><trkpt lat="14.459887209381506" lon="120.94830718255179"><ele>6.999999999999999</ele><time>2026-05-06T12:18:40Z</time></trkpt><trkpt lat="14.459896989417604" lon="120.948398864986"><ele>7.0</ele><time>2026-05-06T12:18:41Z</time></trkpt><trkpt lat="14.459905792501978" lon="120.94848626536518"><ele>7.0</ele><time>2026-05-06T12:18:42Z</time></trkpt><trkpt lat="14.459919530447962" lon="120.94857814498327"><ele>7.000000000000001</ele><time>2026-05-06T12:18:43Z</time></trkpt><trkpt lat="14.459929742704578" lon="120.94867135251873"><ele>7.0</ele><time>2026-05-06T12:18:44Z</time></trkpt><trkpt lat="14.459938091918307" lon="120.94875165902968"><ele>7.0</ele><time>2026-05-06T12:18:45Z</time></trkpt><trkpt lat="14.459944559292474" lon="120.94882605938265"><ele>7.0</ele><time>2026-05-06T12:18:46Z</time></trkpt><trkpt lat="14.459950973293207" lon="120.94890664239045"><ele>7.000000000000001</ele><time>2026-05-06T12:18:47Z</time></trkpt><trkpt lat="14.459958149785475" lon="120.94898547346317"><ele>7.0</ele><time>2026-05-06T12:18:48Z</time></trkpt><trkpt lat="14.45996570993774" lon="120.94907411514187"><ele>7.000000000000001</ele><time>2026-05-06T12:18:49Z</time></trkpt><trkpt lat="14.459976736617419" lon="120.94916704649319"><ele>7.0</ele><time>2026-05-06T12:18:50Z</time></trkpt><trkpt lat="14.459985925599927" lon="120.9492531402282"><ele>7.0</ele><time>2026-05-06T12:18:51Z</time></trkpt><trkpt lat="14.459994381755712" lon="120.94933773969252"><ele>7.0</ele><time>2026-05-06T12:18:52Z</time></trkpt><trkpt lat="14.460002189506856" lon="120.94941565663056"><ele>7.000000000000001</ele><time>2026-05-06T12:18:53Z</time></trkpt><trkpt lat="14.46000818287553" lon="120.94949113272119"><ele>7.0</ele><time>2026-05-06T12:18:54Z</time></trkpt><trkpt lat="14.460018754117232" lon="120.94956666024758"><ele>7.000000000000001</ele><time>2026-05-06T12:18:55Z</time></trkpt><trkpt lat="14.460029592355394" lon="120.94964873964742"><ele>7.0</ele><time>2026-05-06T12:18:56Z</time></trkpt><trkpt lat="14.460040066145753" lon="120.94972826846625"><ele>7.0</ele><time>2026-05-06T12:18:57Z</time></trkpt><trkpt lat="14.460050973063563" lon="120.94982034177585"><ele>7.0</ele><time>2026-05-06T12:18:58Z</time></trkpt><trkpt lat="14.460058265567051" lon="120.94991067976406"><ele>7.000000000000001</ele><time>2026-05-06T12:18:59Z</time></trkpt><trkpt lat="14.460068618515859" lon="120.95000390705832"><ele>7.0</ele><time>2026-05-06T12:19:00Z</time></trkpt><trkpt lat="14.460079402688086" lon="120.95008498356721"><ele>7.333333333333334</ele><time>2026-05-06T12:19:01Z</time></trkpt><trkpt lat="14.460088175002724" lon="120.9501647712744"><ele>7.666666666666667</ele><time>2026-05-06T12:19:02Z</time></trkpt><trkpt lat="14.460096356250265" lon="120.95025027914582"><ele>8.0</ele><time>2026-05-06T12:19:03Z</time></trkpt><trkpt lat="14.460104197425256" lon="120.95032503868359"><ele>8.333333333333334</ele><time>2026-05-06T12:19:04Z</time></trkpt><trkpt lat="14.46011179563416" lon="120.95039667747473"><ele>8.666666666666666</ele><time>2026-05-06T12:19:05Z</time></trkpt><trkpt lat="14.460119608036981" lon="120.950478120956"><ele>9.0</ele><time>2026-05-06T12:19:06Z</time></trkpt><trkpt lat="14.460128928293665" lon="120.95055769721242"><ele>9.0</ele><time>2026-05-06T12:19:07Z</time></trkpt><trkpt lat="14.460135597337894" lon="120.95064496540448"><ele>9.0</ele><time>2026-05-06T12:19:08Z</time></trkpt><trkpt lat="14.460142148317919" lon="120.95073369121155"><ele>9.0</ele><time>2026-05-06T12:19:09Z</time></trkpt><trkpt lat="14.46014804739623" lon="120.95082170637951"><ele>9.0</ele><time>2026-05-06T12:19:10Z</time></trkpt><trkpt lat="14.460158436593755" lon="120.95088615574815"><ele>9.0</ele><time>2026-05-06T12:19:11Z</time></trkpt><trkpt lat="14.46016363004115" lon="120.9509630571601"><ele>9.0</ele><time>2026-05-06T12:19:12Z</time></trkpt><trkpt lat="14.460172832564366" lon="120.9510283111563"><ele>8.8</ele><time>2026-05-06T12:19:13Z</time></trkpt><trkpt lat="14.4601832002422" lon="120.9511531466889"><ele>8.600000000000001</ele><time>2026-05-06T12:19:15Z</time></trkpt><trkpt lat="14.460205226385149" lon="120.95127073385581"><ele>8.4</ele><time>2026-05-06T12:19:17Z</time></trkpt><trkpt lat="14.460212692892561" lon="120.95137380082414"><ele>8.200000000000001</ele><time>2026-05-06T12:19:19Z</time></trkpt><trkpt lat="14.460228358477785" lon="120.95148399604764"><ele>8.0</ele><time>2026-05-06T12:19:21Z</time></trkpt><trkpt lat="14.460241368484787" lon="120.95161249631242"><ele>7.999999999999999</ele><time>2026-05-06T12:19:23Z</time></trkpt><trkpt lat="14.460247176484133" lon="120.95167835621325"><ele>8.0</ele><time>2026-05-06T12:19:24Z</time></trkpt><trkpt lat="14.46025897374157" lon="120.95181306049062"><ele>8.0</ele><time>2026-05-06T12:19:26Z</time></trkpt><trkpt lat="14.460268134080696" lon="120.95188920402276"><ele>8.0</ele><time>2026-05-06T12:19:27Z</time></trkpt><trkpt lat="14.460277563418906" lon="120.95197642629861"><ele>7.999999999999999</ele><time>2026-05-06T12:19:28Z</time></trkpt><trkpt lat="14.46029112923745" lon="120.9520618264962"><ele>8.0</ele><time>2026-05-06T12:19:29Z</time></trkpt><trkpt lat="14.460299563900497" lon="120.95216234572915"><ele>8.0</ele><time>2026-05-06T12:19:30Z</time></trkpt><trkpt lat="14.460309546144785" lon="120.95226675984503"><ele>8.0</ele><time>2026-05-06T12:19:31Z</time></trkpt><trkpt lat="14.460320460851896" lon="120.95237278501527"><ele>8.0</ele><time>2026-05-06T12:19:32Z</time></trkpt><trkpt lat="14.460330963052701" lon="120.95247838071528"><ele>8.0</ele><time>2026-05-06T12:19:33Z</time></trkpt><trkpt lat="14.46034276354541" lon="120.95258225283857"><ele>8.0</ele><time>2026-05-06T12:19:34Z</time></trkpt><trkpt lat="14.46035404222707" lon="120.95268992475275"><ele>8.0</ele><time>2026-05-06T12:19:35Z</time></trkpt><trkpt lat="14.460365499078545" lon="120.95278984193679"><ele>8.0</ele><time>2026-05-06T12:19:36Z</time></trkpt><trkpt lat="14.460377914470474" lon="120.952880082101"><ele>8.0</ele><time>2026-05-06T12:19:37Z</time></trkpt><trkpt lat="14.460394254396533" lon="120.95297765799448"><ele>8.0</ele><time>2026-05-06T12:19:38Z</time></trkpt><trkpt lat="14.460411291653617" lon="120.95307080138956"><ele>8.0</ele><time>2026-05-06T12:19:39Z</time></trkpt><trkpt lat="14.460431251825433" lon="120.95315815965593"><ele>8.0</ele><time>2026-05-06T12:19:40Z</time></trkpt><trkpt lat="14.460446460110795" lon="120.95322276486816"><ele>8.0</ele><time>2026-05-06T12:19:41Z</time></trkpt><trkpt lat="14.460463563358731" lon="120.95329181250641"><ele>8.0</ele><time>2026-05-06T12:19:42Z</time></trkpt><trkpt lat="14.4604973325502" lon="120.95341698087054"><ele>8.0</ele><time>2026-05-06T12:19:44Z</time></trkpt><trkpt lat="14.460529346686894" lon="120.95354028422871"><ele>8.0</ele><time>2026-05-06T12:19:46Z</time></trkpt><trkpt lat="14.460547052516022" lon="120.95361312096978"><ele>7.999999999999999</ele><time>2026-05-06T12:19:47Z</time></trkpt><trkpt lat="14.4605695845693" lon="120.95368907236526"><ele>8.0</ele><time>2026-05-06T12:19:48Z</time></trkpt><trkpt lat="14.460594313507029" lon="120.95377210797544"><ele>8.0</ele><time>2026-05-06T12:19:49Z</time></trkpt><trkpt lat="14.460618946942112" lon="120.95386048929325"><ele>8.0</ele><time>2026-05-06T12:19:50Z</time></trkpt><trkpt lat="14.460639493115643" lon="120.95394395872584"><ele>7.999999999999999</ele><time>2026-05-06T12:19:51Z</time></trkpt><trkpt lat="14.46066143839199" lon="120.95402352900676"><ele>8.0</ele><time>2026-05-06T12:19:52Z</time></trkpt><trkpt lat="14.46068337521303" lon="120.95410250504554"><ele>7.999999999999999</ele><time>2026-05-06T12:19:53Z</time></trkpt><trkpt lat="14.46070303170015" lon="120.95418017152471"><ele>8.0</ele><time>2026-05-06T12:19:54Z</time></trkpt><trkpt lat="14.46071024789109" lon="120.95426439805829"><ele>8.0</ele><time>2026-05-06T12:19:55Z</time></trkpt><trkpt lat="14.460733261730168" lon="120.95435111305773"><ele>8.0</ele><time>2026-05-06T12:19:56Z</time></trkpt><trkpt lat="14.460755463193085" lon="120.95443476698597"><ele>7.999999999999999</ele><time>2026-05-06T12:19:57Z</time></trkpt><trkpt lat="14.460793603429103" lon="120.95451901553774"><ele>8.0</ele><time>2026-05-06T12:19:58Z</time></trkpt><trkpt lat="14.46081764997679" lon="120.95460545302788"><ele>8.0</ele><time>2026-05-06T12:19:59Z</time></trkpt><trkpt lat="14.460825081368258" lon="120.95469428998092"><ele>8.0</ele><time>2026-05-06T12:20:00Z</time></trkpt><trkpt lat="14.460849587224592" lon="120.9547886465762"><ele>8.0</ele><time>2026-05-06T12:20:01Z</time></trkpt><trkpt lat="14.460875550926758" lon="120.95488280413434"><ele>8.0</ele><time>2026-05-06T12:20:02Z</time></trkpt><trkpt lat="14.460901908612284" lon="120.95498251137849"><ele>8.0</ele><time>2026-05-06T12:20:03Z</time></trkpt><trkpt lat="14.460925103256757" lon="120.95507207843647"><ele>8.333333333333332</ele><time>2026-05-06T12:20:04Z</time></trkpt><trkpt lat="14.46094785910237" lon="120.95515905766071"><ele>8.666666666666666</ele><time>2026-05-06T12:20:05Z</time></trkpt><trkpt lat="14.46096818113814" lon="120.95523482214038"><ele>9.0</ele><time>2026-05-06T12:20:06Z</time></trkpt><trkpt lat="14.460987326590626" lon="120.9553062001424"><ele>9.333333333333334</ele><time>2026-05-06T12:20:07Z</time></trkpt><trkpt lat="14.46100770756981" lon="120.9553828686127"><ele>9.666666666666668</ele><time>2026-05-06T12:20:08Z</time></trkpt><trkpt lat="14.461026652592444" lon="120.95545425149795"><ele>10.0</ele><time>2026-05-06T12:20:09Z</time></trkpt><trkpt lat="14.461062403434338" lon="120.9555889569211"><ele>10.0</ele><time>2026-05-06T12:20:11Z</time></trkpt><trkpt lat="14.461081010076633" lon="120.95565906482527"><ele>10.0</ele><time>2026-05-06T12:20:12Z</time></trkpt><trkpt lat="14.46110137583358" lon="120.95573540672743"><ele>10.0</ele><time>2026-05-06T12:20:13Z</time></trkpt><trkpt lat="14.461123944863493" lon="120.95581996894614"><ele>10.0</ele><time>2026-05-06T12:20:14Z</time></trkpt><trkpt lat="14.461146791363182" lon="120.95590557079802"><ele>10.0</ele><time>2026-05-06T12:20:15Z</time></trkpt><trkpt lat="14.461168857673172" lon="120.9559882494177"><ele>10.0</ele><time>2026-05-06T12:20:16Z</time></trkpt><trkpt lat="14.461193722779946" lon="120.95608141462967"><ele>9.333333333333334</ele><time>2026-05-06T12:20:17Z</time></trkpt><trkpt lat="14.461216884121" lon="120.95616819589996"><ele>8.666666666666668</ele><time>2026-05-06T12:20:18Z</time></trkpt><trkpt lat="14.46124104174518" lon="120.9562553014451"><ele>8.0</ele><time>2026-05-06T12:20:19Z</time></trkpt><trkpt lat="14.461261784859659" lon="120.95633083645279"><ele>7.333333333333334</ele><time>2026-05-06T12:20:20Z</time></trkpt><trkpt lat="14.461284698881819" lon="120.95641427673458"><ele>6.666666666666667</ele><time>2026-05-06T12:20:21Z</time></trkpt><trkpt lat="14.461302889133973" lon="120.95648051562766"><ele>6.0</ele><time>2026-05-06T12:20:22Z</time></trkpt><trkpt lat="14.461321109079503" lon="120.95654686266896"><ele>6.0</ele><time>2026-05-06T12:20:23Z</time></trkpt><trkpt lat="14.461348194207442" lon="120.95664549181461"><ele>6.0</ele><time>2026-05-06T12:20:25Z</time></trkpt><trkpt lat="14.461379661883592" lon="120.95676007980491"><ele>6.0</ele><time>2026-05-06T12:20:28Z</time></trkpt><trkpt lat="14.461397192909216" lon="120.95682391815194"><ele>6.0</ele><time>2026-05-06T12:20:29Z</time></trkpt><trkpt lat="14.461414628912781" lon="120.95688741049449"><ele>6.0</ele><time>2026-05-06T12:20:30Z</time></trkpt><trkpt lat="14.461433374889143" lon="120.95695567302101"><ele>6.0</ele><time>2026-05-06T12:20:31Z</time></trkpt><trkpt lat="14.461467280822916" lon="120.95707913980547"><ele>6.0</ele><time>2026-05-06T12:20:33Z</time></trkpt><trkpt lat="14.461485862601096" lon="120.95714680442465"><ele>6.0</ele><time>2026-05-06T12:20:34Z</time></trkpt><trkpt lat="14.46150485836738" lon="120.9572159765567"><ele>6.0</ele><time>2026-05-06T12:20:35Z</time></trkpt><trkpt lat="14.461525778831565" lon="120.95729215739586"><ele>6.0</ele><time>2026-05-06T12:20:36Z</time></trkpt><trkpt lat="14.461548322410232" lon="120.95737424869475"><ele>6.0</ele><time>2026-05-06T12:20:37Z</time></trkpt><trkpt lat="14.461573859987572" lon="120.95746724252655"><ele>6.0</ele><time>2026-05-06T12:20:38Z</time></trkpt><trkpt lat="14.461602892505438" lon="120.95757296299733"><ele>6.166666666666667</ele><time>2026-05-06T12:20:39Z</time></trkpt><trkpt lat="14.461627252935854" lon="120.95766167030496"><ele>6.333333333333334</ele><time>2026-05-06T12:20:40Z</time></trkpt><trkpt lat="14.461650346583838" lon="120.95774576467292"><ele>6.5</ele><time>2026-05-06T12:20:41Z</time></trkpt><trkpt lat="14.46167105962718" lon="120.95782044782497"><ele>6.666666666666667</ele><time>2026-05-06T12:20:42Z</time></trkpt><trkpt lat="14.461690701734193" lon="120.95789103556723"><ele>6.833333333333334</ele><time>2026-05-06T12:20:44Z</time></trkpt><trkpt lat="14.461715489007196" lon="120.95798013891827"><ele>7.0</ele><time>2026-05-06T12:20:47Z</time></trkpt><trkpt lat="14.461733124088722" lon="120.95804599682324"><ele>7.0</ele><time>2026-05-06T12:20:49Z</time></trkpt><trkpt lat="14.46175537003116" lon="120.95813020331067"><ele>6.999999999999999</ele><time>2026-05-06T12:20:52Z</time></trkpt><trkpt lat="14.461780686335189" lon="120.95821550158705"><ele>6.999999999999999</ele><time>2026-05-06T12:20:54Z</time></trkpt><trkpt lat="14.461810855180222" lon="120.95831876836532"><ele>7.0</ele><time>2026-05-06T12:20:56Z</time></trkpt><trkpt lat="14.461840008048537" lon="120.95842240899293"><ele>7.0</ele><time>2026-05-06T12:20:58Z</time></trkpt><trkpt lat="14.461861814529126" lon="120.95849939291692"><ele>7.142857142857142</ele><time>2026-05-06T12:21:00Z</time></trkpt><trkpt lat="14.46188201130438" lon="120.95857069404495"><ele>7.285714285714286</ele><time>2026-05-06T12:21:02Z</time></trkpt><trkpt lat="14.461900176380212" lon="120.9586348226262"><ele>7.428571428571429</ele><time>2026-05-06T12:21:05Z</time></trkpt><trkpt lat="14.461917899791787" lon="120.95869739197954"><ele>7.571428571428571</ele><time>2026-05-06T12:21:10Z</time></trkpt><trkpt lat="14.46193568635663" lon="120.95876018429108"><ele>7.7142857142857135</ele><time>2026-05-06T12:21:14Z</time></trkpt><trkpt lat="14.461955586481222" lon="120.95883043816082"><ele>7.857142857142857</ele><time>2026-05-06T12:21:18Z</time></trkpt><trkpt lat="14.461959147564368" lon="120.95890567965095"><ele>8.0</ele><time>2026-05-06T12:21:30Z</time></trkpt><trkpt lat="14.461970914659702" lon="120.95897379308904"><ele>7.999999999999999</ele><time>2026-05-06T12:21:33Z</time></trkpt><trkpt lat="14.46199592534502" lon="120.95905232393028"><ele>8.0</ele><time>2026-05-06T12:21:37Z</time></trkpt><trkpt lat="14.462011077180954" lon="120.95912774310736"><ele>8.0</ele><time>2026-05-06T12:21:41Z</time></trkpt><trkpt lat="14.462035196503676" lon="120.95920619710188"><ele>8.0</ele><time>2026-05-06T12:21:45Z</time></trkpt><trkpt lat="14.462056245309205" lon="120.95928441724283"><ele>7.999999999999999</ele><time>2026-05-06T12:21:49Z</time></trkpt><trkpt lat="14.462077392749348" lon="120.95935684961346"><ele>8.0</ele><time>2026-05-06T12:21:53Z</time></trkpt><trkpt lat="14.462117026050937" lon="120.95943079308456"><ele>7.4</ele><time>2026-05-06T12:21:57Z</time></trkpt><trkpt lat="14.462167860305701" lon="120.95951705135393"><ele>6.800000000000001</ele><time>2026-05-06T12:22:00Z</time></trkpt><trkpt lat="14.462192838532301" lon="120.95963352731646"><ele>6.2</ele><time>2026-05-06T12:22:02Z</time></trkpt><trkpt lat="14.462230664090347" lon="120.95975635698646"><ele>5.6</ele><time>2026-05-06T12:22:04Z</time></trkpt><trkpt lat="14.462244399421769" lon="120.95982387894875"><ele>5.0</ele><time>2026-05-06T12:22:05Z</time></trkpt><trkpt lat="14.462260428882026" lon="120.95989309517641"><ele>5.0</ele><time>2026-05-06T12:22:06Z</time></trkpt><trkpt lat="14.462282952442026" lon="120.95996864565892"><ele>5.0</ele><time>2026-05-06T12:22:07Z</time></trkpt><trkpt lat="14.462305933852742" lon="120.96004816890063"><ele>5.0</ele><time>2026-05-06T12:22:08Z</time></trkpt><trkpt lat="14.462326380397272" lon="120.96013025978233"><ele>5.0</ele><time>2026-05-06T12:22:09Z</time></trkpt><trkpt lat="14.462348105181539" lon="120.96021835867647"><ele>5.0</ele><time>2026-05-06T12:22:10Z</time></trkpt><trkpt lat="14.462372614864803" lon="120.96031084767074"><ele>5.0</ele><time>2026-05-06T12:22:11Z</time></trkpt><trkpt lat="14.462394268492316" lon="120.96039704055543"><ele>5.0</ele><time>2026-05-06T12:22:12Z</time></trkpt><trkpt lat="14.462401776352607" lon="120.9604883502888"><ele>5.0</ele><time>2026-05-06T12:22:13Z</time></trkpt><trkpt lat="14.462422731728331" lon="120.96057268895376"><ele>5.0</ele><time>2026-05-06T12:22:14Z</time></trkpt><trkpt lat="14.462443282322026" lon="120.96065539857412"><ele>5.0</ele><time>2026-05-06T12:22:15Z</time></trkpt><trkpt lat="14.462461101140464" lon="120.9607387257739"><ele>5.0</ele><time>2026-05-06T12:22:16Z</time></trkpt><trkpt lat="14.46249038191599" lon="120.960819536115"><ele>5.0</ele><time>2026-05-06T12:22:17Z</time></trkpt><trkpt lat="14.46249796853766" lon="120.9608957437398"><ele>5.5</ele><time>2026-05-06T12:22:18Z</time></trkpt><trkpt lat="14.46248557896309" lon="120.96097118017646"><ele>6.0</ele><time>2026-05-06T12:22:19Z</time></trkpt><trkpt lat="14.462498516606463" lon="120.9610522206049"><ele>6.5</ele><time>2026-05-06T12:22:20Z</time></trkpt><trkpt lat="14.462489082199802" lon="120.96113277813802"><ele>7.0</ele><time>2026-05-06T12:22:21Z</time></trkpt><trkpt lat="14.46247660257593" lon="120.96119953544807"><ele>7.499999999999999</ele><time>2026-05-06T12:22:22Z</time></trkpt><trkpt lat="14.462455982505913" lon="120.96132902611937"><ele>8.0</ele><time>2026-05-06T12:22:24Z</time></trkpt><trkpt lat="14.462433501479369" lon="120.9614327914416"><ele>7.999999999999999</ele><time>2026-05-06T12:22:26Z</time></trkpt><trkpt lat="14.462408828227643" lon="120.96152265166441"><ele>8.0</ele><time>2026-05-06T12:22:29Z</time></trkpt><trkpt lat="14.462389503071583" lon="120.96158553063971"><ele>8.0</ele><time>2026-05-06T12:22:30Z</time></trkpt><trkpt lat="14.462368666615445" lon="120.9616608436658"><ele>8.0</ele><time>2026-05-06T12:22:31Z</time></trkpt><trkpt lat="14.46234391861708" lon="120.9617326575255"><ele>7.999999999999999</ele><time>2026-05-06T12:22:32Z</time></trkpt><trkpt lat="14.462317127524297" lon="120.9618063278931"><ele>8.0</ele><time>2026-05-06T12:22:33Z</time></trkpt><trkpt lat="14.462283642305838" lon="120.96188989653973"><ele>7.999999999999999</ele><time>2026-05-06T12:22:34Z</time></trkpt><trkpt lat="14.462249384594898" lon="120.96198114014447"><ele>8.0</ele><time>2026-05-06T12:22:35Z</time></trkpt><trkpt lat="14.462216862056746" lon="120.96207052231486"><ele>8.0</ele><time>2026-05-06T12:22:36Z</time></trkpt><trkpt lat="14.462187369356075" lon="120.96215806905813"><ele>8.0</ele><time>2026-05-06T12:22:37Z</time></trkpt><trkpt lat="14.46215592106014" lon="120.96224164382816"><ele>7.999999999999999</ele><time>2026-05-06T12:22:38Z</time></trkpt><trkpt lat="14.462127090473567" lon="120.96231349867466"><ele>8.0</ele><time>2026-05-06T12:22:39Z</time></trkpt><trkpt lat="14.462101770145793" lon="120.96237833037421"><ele>8.0</ele><time>2026-05-06T12:22:40Z</time></trkpt><trkpt lat="14.462079050921188" lon="120.9624423992363"><ele>7.999999999999999</ele><time>2026-05-06T12:22:41Z</time></trkpt><trkpt lat="14.462059619085615" lon="120.96250434724728"><ele>8.0</ele><time>2026-05-06T12:22:42Z</time></trkpt><trkpt lat="14.462032833272058" lon="120.96256548362558"><ele>8.0</ele><time>2026-05-06T12:22:43Z</time></trkpt><trkpt lat="14.461999534994094" lon="120.96263092036426"><ele>7.999999999999999</ele><time>2026-05-06T12:22:44Z</time></trkpt><trkpt lat="14.461950513566245" lon="120.96271022385466"><ele>8.0</ele><time>2026-05-06T12:22:46Z</time></trkpt><trkpt lat="14.461913021099114" lon="120.96278046909279"><ele>8.0</ele><time>2026-05-06T12:22:49Z</time></trkpt><trkpt lat="14.461860947650795" lon="120.96282854341943"><ele>8.0</ele><time>2026-05-06T12:24:46Z</time></trkpt><trkpt lat="14.461814088789056" lon="120.96288498819254"><ele>8.0</ele><time>2026-05-06T12:24:49Z</time></trkpt><trkpt lat="14.461925065012084" lon="120.96302658198132"><ele>8.0</ele><time>2026-05-06T12:24:50Z</time></trkpt><trkpt lat="14.461995473120362" lon="120.96314313478116"><ele>8.0</ele><time>2026-05-06T12:24:52Z</time></trkpt><trkpt lat="14.462042745854518" lon="120.96320798623609"><ele>8.0</ele><time>2026-05-06T12:24:53Z</time></trkpt><trkpt lat="14.462091891103087" lon="120.96328139444395"><ele>8.0</ele><time>2026-05-06T12:24:54Z</time></trkpt><trkpt lat="14.46214262512261" lon="120.96336159470583"><ele>8.0</ele><time>2026-05-06T12:24:55Z</time></trkpt><trkpt lat="14.462198949861857" lon="120.96344887013177"><ele>8.0</ele><time>2026-05-06T12:24:56Z</time></trkpt><trkpt lat="14.462263293402252" lon="120.96354086859506"><ele>8.0</ele><time>2026-05-06T12:24:57Z</time></trkpt><trkpt lat="14.462325031561546" lon="120.96363325100128"><ele>8.200000000000001</ele><time>2026-05-06T12:24:58Z</time></trkpt><trkpt lat="14.46239294830246" lon="120.96373203505522"><ele>8.4</ele><time>2026-05-06T12:24:59Z</time></trkpt><trkpt lat="14.462444266240913" lon="120.96381322568493"><ele>8.600000000000001</ele><time>2026-05-06T12:25:00Z</time></trkpt><trkpt lat="14.462503512791411" lon="120.9639052997282"><ele>8.8</ele><time>2026-05-06T12:25:01Z</time></trkpt><trkpt lat="14.462560948431625" lon="120.9639986014226"><ele>9.0</ele><time>2026-05-06T12:25:02Z</time></trkpt><trkpt lat="14.462618261981738" lon="120.96408971777691"><ele>9.0</ele><time>2026-05-06T12:25:03Z</time></trkpt><trkpt lat="14.462675583312071" lon="120.9641761810758"><ele>9.0</ele><time>2026-05-06T12:25:04Z</time></trkpt><trkpt lat="14.46273207345243" lon="120.96426515733863"><ele>9.0</ele><time>2026-05-06T12:25:05Z</time></trkpt><trkpt lat="14.462785552218255" lon="120.96435529631668"><ele>9.0</ele><time>2026-05-06T12:25:06Z</time></trkpt><trkpt lat="14.462846448055476" lon="120.96444582405607"><ele>9.0</ele><time>2026-05-06T12:25:07Z</time></trkpt><trkpt lat="14.462906353031817" lon="120.96453750769186"><ele>8.75</ele><time>2026-05-06T12:25:08Z</time></trkpt><trkpt lat="14.462969414811125" lon="120.96463408731545"><ele>8.5</ele><time>2026-05-06T12:25:09Z</time></trkpt><trkpt lat="14.463030722626954" lon="120.96473080192071"><ele>8.25</ele><time>2026-05-06T12:25:10Z</time></trkpt><trkpt lat="14.46309437338933" lon="120.96482514641058"><ele>8.0</ele><time>2026-05-06T12:25:11Z</time></trkpt><trkpt lat="14.463161222755726" lon="120.96492475044944"><ele>8.0</ele><time>2026-05-06T12:25:12Z</time></trkpt><trkpt lat="14.463221529717671" lon="120.96502036441385"><ele>8.0</ele><time>2026-05-06T12:25:13Z</time></trkpt><trkpt lat="14.463285706440214" lon="120.96511709979347"><ele>8.0</ele><time>2026-05-06T12:25:14Z</time></trkpt><trkpt lat="14.463343055183156" lon="120.96520964131103"><ele>8.0</ele><time>2026-05-06T12:25:15Z</time></trkpt><trkpt lat="14.463395353692432" lon="120.96529175976436"><ele>8.0</ele><time>2026-05-06T12:25:16Z</time></trkpt><trkpt lat="14.463451258591082" lon="120.96537170848494"><ele>8.200000000000001</ele><time>2026-05-06T12:25:17Z</time></trkpt><trkpt lat="14.463496877356011" lon="120.96546297462965"><ele>8.4</ele><time>2026-05-06T12:25:18Z</time></trkpt><trkpt lat="14.463552548697356" lon="120.96554543656227"><ele>8.600000000000001</ele><time>2026-05-06T12:25:19Z</time></trkpt><trkpt lat="14.463619543076991" lon="120.96561571944582"><ele>8.8</ele><time>2026-05-06T12:25:20Z</time></trkpt><trkpt lat="14.463677007282817" lon="120.96570271015854"><ele>9.0</ele><time>2026-05-06T12:25:21Z</time></trkpt><trkpt lat="14.463711737035334" lon="120.96578123072568"><ele>9.0</ele><time>2026-05-06T12:25:22Z</time></trkpt><trkpt lat="14.463758696288311" lon="120.96585078810202"><ele>9.0</ele><time>2026-05-06T12:25:23Z</time></trkpt><trkpt lat="14.463803575196037" lon="120.96591726398755"><ele>9.0</ele><time>2026-05-06T12:25:24Z</time></trkpt><trkpt lat="14.46384503095998" lon="120.96597842504588"><ele>9.0</ele><time>2026-05-06T12:25:25Z</time></trkpt><trkpt lat="14.463910741400197" lon="120.9660751082682"><ele>9.0</ele><time>2026-05-06T12:25:27Z</time></trkpt><trkpt lat="14.463981712715709" lon="120.96618631380834"><ele>9.0</ele><time>2026-05-06T12:25:29Z</time></trkpt><trkpt lat="14.464026526186345" lon="120.96625770863969"><ele>9.0</ele><time>2026-05-06T12:25:30Z</time></trkpt><trkpt lat="14.464078601726817" lon="120.96634067308533"><ele>9.0</ele><time>2026-05-06T12:25:31Z</time></trkpt><trkpt lat="14.464129973388918" lon="120.9664221191909"><ele>9.0</ele><time>2026-05-06T12:25:32Z</time></trkpt><trkpt lat="14.464184585203745" lon="120.96650961647292"><ele>9.0</ele><time>2026-05-06T12:25:33Z</time></trkpt><trkpt lat="14.464248525357888" lon="120.96657869820072"><ele>9.0</ele><time>2026-05-06T12:25:34Z</time></trkpt><trkpt lat="14.464303928952635" lon="120.96666711519278"><ele>9.0</ele><time>2026-05-06T12:25:35Z</time></trkpt><trkpt lat="14.464355259100996" lon="120.96675656875193"><ele>9.0</ele><time>2026-05-06T12:25:36Z</time></trkpt><trkpt lat="14.464402177465043" lon="120.96684048988917"><ele>9.0</ele><time>2026-05-06T12:25:37Z</time></trkpt><trkpt lat="14.464456885767202" lon="120.96691437305792"><ele>9.0</ele><time>2026-05-06T12:25:38Z</time></trkpt><trkpt lat="14.464506580186391" lon="120.96697578796403"><ele>8.8</ele><time>2026-05-06T12:25:39Z</time></trkpt><trkpt lat="14.464568492069578" lon="120.9670582384298"><ele>8.600000000000001</ele><time>2026-05-06T12:25:41Z</time></trkpt><trkpt lat="14.464615793403981" lon="120.96712515954727"><ele>8.4</ele><time>2026-05-06T12:25:43Z</time></trkpt><trkpt lat="14.464726083545095" lon="120.96720646817215"><ele>8.200000000000001</ele><time>2026-05-06T12:25:45Z</time></trkpt><trkpt lat="14.464796653056336" lon="120.967255426882"><ele>8.0</ele><time>2026-05-06T12:25:46Z</time></trkpt><trkpt lat="14.464869961103357" lon="120.96731092764435"><ele>8.4</ele><time>2026-05-06T12:25:47Z</time></trkpt><trkpt lat="14.464947464128203" lon="120.9673697985782"><ele>8.8</ele><time>2026-05-06T12:25:48Z</time></trkpt><trkpt lat="14.465032197207513" lon="120.96743473876752"><ele>9.2</ele><time>2026-05-06T12:25:49Z</time></trkpt><trkpt lat="14.465117775528771" lon="120.9674971602573"><ele>9.6</ele><time>2026-05-06T12:25:50Z</time></trkpt><trkpt lat="14.46519403255926" lon="120.96755393995309"><ele>10.0</ele><time>2026-05-06T12:25:51Z</time></trkpt><trkpt lat="14.465261720785586" lon="120.96760904244137"><ele>10.0</ele><time>2026-05-06T12:25:52Z</time></trkpt><trkpt lat="14.465321851289609" lon="120.96765701564928"><ele>10.0</ele><time>2026-05-06T12:25:53Z</time></trkpt><trkpt lat="14.465379682309267" lon="120.96770201167053"><ele>10.0</ele><time>2026-05-06T12:25:54Z</time></trkpt><trkpt lat="14.465432007713629" lon="120.96774227835292"><ele>10.0</ele><time>2026-05-06T12:25:55Z</time></trkpt><trkpt lat="14.465497334874941" lon="120.96779513688804"><ele>10.0</ele><time>2026-05-06T12:25:57Z</time></trkpt><trkpt lat="14.465536790388366" lon="120.9678524823854"><ele>10.0</ele><time>2026-05-06T12:27:12Z</time></trkpt><trkpt lat="14.465599207823011" lon="120.96789256393994"><ele>10.0</ele><time>2026-05-06T12:27:17Z</time></trkpt><trkpt lat="14.465688822501747" lon="120.967949056368"><ele>9.4</ele><time>2026-05-06T12:27:29Z</time></trkpt><trkpt lat="14.46574270425949" lon="120.96799414347822"><ele>8.8</ele><time>2026-05-06T12:27:30Z</time></trkpt><trkpt lat="14.465811340310673" lon="120.96804039528278"><ele>8.2</ele><time>2026-05-06T12:27:31Z</time></trkpt><trkpt lat="14.465879970782595" lon="120.96809184452776"><ele>7.6</ele><time>2026-05-06T12:27:32Z</time></trkpt><trkpt lat="14.465965736188739" lon="120.9681643969433"><ele>7.0</ele><time>2026-05-06T12:27:33Z</time></trkpt><trkpt lat="14.466045917601807" lon="120.9682481645939"><ele>7.0</ele><time>2026-05-06T12:27:34Z</time></trkpt><trkpt lat="14.466130799288385" lon="120.96835915999621"><ele>7.0</ele><time>2026-05-06T12:27:35Z</time></trkpt><trkpt lat="14.466229736740932" lon="120.9684574761279"><ele>7.0</ele><time>2026-05-06T12:27:36Z</time></trkpt><trkpt lat="14.466294741460834" lon="120.96842541443387"><ele>7.0</ele><time>2026-05-06T12:27:37Z</time></trkpt><trkpt lat="14.466380750165632" lon="120.9684873451139"><ele>7.166666666666667</ele><time>2026-05-06T12:27:38Z</time></trkpt><trkpt lat="14.466454221262763" lon="120.96854507769551"><ele>7.333333333333334</ele><time>2026-05-06T12:27:39Z</time></trkpt><trkpt lat="14.466530124793191" lon="120.96860511536802"><ele>7.5</ele><time>2026-05-06T12:27:40Z</time></trkpt><trkpt lat="14.466597873771436" lon="120.96865806895633"><ele>7.666666666666666</ele><time>2026-05-06T12:27:41Z</time></trkpt><trkpt lat="14.466660264155287" lon="120.96870836166791"><ele>7.833333333333333</ele><time>2026-05-06T12:27:42Z</time></trkpt><trkpt lat="14.466718308211359" lon="120.96874325661476"><ele>8.0</ele><time>2026-05-06T12:27:44Z</time></trkpt><trkpt lat="14.466728049876524" lon="120.96881418867827"><ele>8.0</ele><time>2026-05-06T12:27:46Z</time></trkpt><trkpt lat="14.466904625606077" lon="120.96879016278027"><ele>8.0</ele><time>2026-05-06T12:30:52Z</time></trkpt><trkpt lat="14.466976598470273" lon="120.96878151616728"><ele>8.0</ele><time>2026-05-06T12:34:31Z</time></trkpt><trkpt lat="14.466960646891692" lon="120.9688567862246"><ele>8.0</ele><time>2026-05-06T12:34:34Z</time></trkpt><trkpt lat="14.4669427196654" lon="120.96892368677644"><ele>8.0</ele><time>2026-05-06T12:34:53Z</time></trkpt><trkpt lat="14.466985183700915" lon="120.96900648968959"><ele>7.999999999999999</ele><time>2026-05-06T12:34:57Z</time></trkpt><trkpt lat="14.46708076222845" lon="120.96908129782041"><ele>8.0</ele><time>2026-05-06T12:34:59Z</time></trkpt><trkpt lat="14.46713798337416" lon="120.96912340659743"><ele>8.0</ele><time>2026-05-06T12:35:00Z</time></trkpt><trkpt lat="14.467196372096218" lon="120.96916665076456"><ele>8.0</ele><time>2026-05-06T12:35:01Z</time></trkpt><trkpt lat="14.467257721733564" lon="120.96921483124632"><ele>7.999999999999999</ele><time>2026-05-06T12:35:02Z</time></trkpt><trkpt lat="14.467318200166867" lon="120.96926280928145"><ele>8.0</ele><time>2026-05-06T12:35:03Z</time></trkpt><trkpt lat="14.467381603896339" lon="120.96931252051913"><ele>7.833333333333333</ele><time>2026-05-06T12:35:04Z</time></trkpt><trkpt lat="14.467446016621006" lon="120.96936394847779"><ele>7.666666666666666</ele><time>2026-05-06T12:35:05Z</time></trkpt><trkpt lat="14.467513248667835" lon="120.9694176824348"><ele>7.5</ele><time>2026-05-06T12:35:06Z</time></trkpt><trkpt lat="14.467581809340018" lon="120.96947116326616"><ele>7.333333333333334</ele><time>2026-05-06T12:35:07Z</time></trkpt><trkpt lat="14.46765194967226" lon="120.96952334322175"><ele>7.166666666666667</ele><time>2026-05-06T12:35:08Z</time></trkpt><trkpt lat="14.46772626951001" lon="120.96957925507132"><ele>7.0</ele><time>2026-05-06T12:35:09Z</time></trkpt><trkpt lat="14.467799308416698" lon="120.96963061173862"><ele>7.0</ele><time>2026-05-06T12:35:10Z</time></trkpt><trkpt lat="14.467868842829608" lon="120.96968112796706"><ele>7.0</ele><time>2026-05-06T12:35:11Z</time></trkpt><trkpt lat="14.46793127119814" lon="120.9697257956826"><ele>7.0</ele><time>2026-05-06T12:35:12Z</time></trkpt><trkpt lat="14.467986902536454" lon="120.96975860708139"><ele>7.0</ele><time>2026-05-06T12:35:13Z</time></trkpt><trkpt lat="14.468041756939742" lon="120.9697930377616"><ele>7.0</ele><time>2026-05-06T12:35:14Z</time></trkpt><trkpt lat="14.468098951086455" lon="120.96983005056082"><ele>7.0</ele><time>2026-05-06T12:35:15Z</time></trkpt><trkpt lat="14.468158728544722" lon="120.96986954741915"><ele>7.0</ele><time>2026-05-06T12:35:16Z</time></trkpt><trkpt lat="14.468219165049662" lon="120.96990724873123"><ele>7.0</ele><time>2026-05-06T12:35:17Z</time></trkpt><trkpt lat="14.468332293346043" lon="120.9699659901425"><ele>6.999999999999999</ele><time>2026-05-06T12:35:19Z</time></trkpt><trkpt lat="14.468403393620246" lon="120.9699959501079"><ele>6.999999999999999</ele><time>2026-05-06T12:35:20Z</time></trkpt><trkpt lat="14.468488673642755" lon="120.97002175565612"><ele>7.0</ele><time>2026-05-06T12:35:21Z</time></trkpt><trkpt lat="14.46857447816193" lon="120.97005492425822"><ele>7.0</ele><time>2026-05-06T12:35:22Z</time></trkpt><trkpt lat="14.468672031970517" lon="120.97009067127752"><ele>7.199999999999999</ele><time>2026-05-06T12:35:23Z</time></trkpt><trkpt lat="14.468765921060706" lon="120.97012547072099"><ele>7.3999999999999995</ele><time>2026-05-06T12:35:24Z</time></trkpt><trkpt lat="14.468857222346642" lon="120.97017536561376"><ele>7.6000000000000005</ele><time>2026-05-06T12:35:25Z</time></trkpt><trkpt lat="14.468953060867102" lon="120.97022620231667"><ele>7.800000000000001</ele><time>2026-05-06T12:35:26Z</time></trkpt><trkpt lat="14.469038106377049" lon="120.97029468531467"><ele>8.0</ele><time>2026-05-06T12:35:27Z</time></trkpt><trkpt lat="14.469120545184206" lon="120.9703729783501"><ele>8.0</ele><time>2026-05-06T12:35:28Z</time></trkpt><trkpt lat="14.469187368050628" lon="120.9704494418004"><ele>8.0</ele><time>2026-05-06T12:35:29Z</time></trkpt><trkpt lat="14.46926058929126" lon="120.97052914335497"><ele>8.0</ele><time>2026-05-06T12:35:30Z</time></trkpt><trkpt lat="14.469333069881031" lon="120.97060876592404"><ele>8.0</ele><time>2026-05-06T12:35:31Z</time></trkpt><trkpt lat="14.469405761548865" lon="120.97068951797222"><ele>8.0</ele><time>2026-05-06T12:35:32Z</time></trkpt><trkpt lat="14.469472976935638" lon="120.97076678662026"><ele>7.999999999999999</ele><time>2026-05-06T12:35:33Z</time></trkpt><trkpt lat="14.46953314695478" lon="120.97083585501429"><ele>8.0</ele><time>2026-05-06T12:35:34Z</time></trkpt><trkpt lat="14.469590447230534" lon="120.97090635583814"><ele>8.0</ele><time>2026-05-06T12:35:35Z</time></trkpt><trkpt lat="14.469638752080828" lon="120.97097299939665"><ele>8.0</ele><time>2026-05-06T12:35:36Z</time></trkpt><trkpt lat="14.46968365115668" lon="120.97102938983467"><ele>7.999999999999999</ele><time>2026-05-06T12:35:37Z</time></trkpt><trkpt lat="14.469728935263143" lon="120.97110517105858"><ele>8.0</ele><time>2026-05-06T12:35:43Z</time></trkpt><trkpt lat="14.469809094020283" lon="120.97120385070212"><ele>7.857142857142857</ele><time>2026-05-06T12:35:45Z</time></trkpt><trkpt lat="14.469852594481013" lon="120.97125679064389"><ele>7.7142857142857135</ele><time>2026-05-06T12:35:46Z</time></trkpt><trkpt lat="14.469895142388044" lon="120.9713071544871"><ele>7.571428571428571</ele><time>2026-05-06T12:35:47Z</time></trkpt><trkpt lat="14.469933858560065" lon="120.9713587161353"><ele>7.428571428571429</ele><time>2026-05-06T12:35:49Z</time></trkpt><trkpt lat="14.469969199293033" lon="120.97143088104333"><ele>7.285714285714286</ele><time>2026-05-06T12:35:54Z</time></trkpt><trkpt lat="14.470044464467064" lon="120.97150174056462"><ele>7.142857142857142</ele><time>2026-05-06T12:35:56Z</time></trkpt><trkpt lat="14.4700870742175" lon="120.97155974021247"><ele>7.0</ele><time>2026-05-06T12:35:57Z</time></trkpt><trkpt lat="14.470134192847098" lon="120.97161985148736"><ele>7.0</ele><time>2026-05-06T12:35:58Z</time></trkpt><trkpt lat="14.470184060936962" lon="120.97168929385401"><ele>6.999999999999999</ele><time>2026-05-06T12:35:59Z</time></trkpt><trkpt lat="14.470237348238518" lon="120.97176665434024"><ele>6.999999999999999</ele><time>2026-05-06T12:36:00Z</time></trkpt><trkpt lat="14.470296234057509" lon="120.97184912402577"><ele>7.0</ele><time>2026-05-06T12:36:01Z</time></trkpt><trkpt lat="14.47035514562521" lon="120.9719358607232"><ele>7.0</ele><time>2026-05-06T12:36:02Z</time></trkpt><trkpt lat="14.470422396309644" lon="120.97203151649224"><ele>7.0</ele><time>2026-05-06T12:36:03Z</time></trkpt><trkpt lat="14.470475032262295" lon="120.97210853233753"><ele>6.999999999999999</ele><time>2026-05-06T12:36:04Z</time></trkpt><trkpt lat="14.470531955307811" lon="120.97219177817878"><ele>6.999999999999999</ele><time>2026-05-06T12:36:05Z</time></trkpt><trkpt lat="14.470584564474175" lon="120.97226826421549"><ele>7.0</ele><time>2026-05-06T12:36:06Z</time></trkpt><trkpt lat="14.470637691065164" lon="120.97234916115706"><ele>7.0</ele><time>2026-05-06T12:36:07Z</time></trkpt><trkpt lat="14.470688421268475" lon="120.97243217079668"><ele>7.0</ele><time>2026-05-06T12:36:08Z</time></trkpt><trkpt lat="14.470739633421017" lon="120.97252193429995"><ele>6.999999999999999</ele><time>2026-05-06T12:36:09Z</time></trkpt><trkpt lat="14.470787951812545" lon="120.97260995692042"><ele>6.999999999999999</ele><time>2026-05-06T12:36:10Z</time></trkpt><trkpt lat="14.47083775423629" lon="120.97269883137191"><ele>7.0</ele><time>2026-05-06T12:36:11Z</time></trkpt><trkpt lat="14.47088797982975" lon="120.97278659514336"><ele>7.0</ele><time>2026-05-06T12:36:12Z</time></trkpt><trkpt lat="14.470937966350753" lon="120.97287460354472"><ele>7.0</ele><time>2026-05-06T12:36:13Z</time></trkpt><trkpt lat="14.470986356474535" lon="120.97296267615103"><ele>6.999999999999999</ele><time>2026-05-06T12:36:14Z</time></trkpt><trkpt lat="14.471029190638985" lon="120.97305667414834"><ele>6.999999999999999</ele><time>2026-05-06T12:36:15Z</time></trkpt><trkpt lat="14.47107207113923" lon="120.97314413540764"><ele>7.0</ele><time>2026-05-06T12:36:16Z</time></trkpt><trkpt lat="14.471108522884323" lon="120.97322644104189"><ele>7.0</ele><time>2026-05-06T12:36:17Z</time></trkpt><trkpt lat="14.47114654442791" lon="120.97330472142063"><ele>6.833333333333334</ele><time>2026-05-06T12:36:18Z</time></trkpt><trkpt lat="14.47118025117244" lon="120.97338909473442"><ele>6.666666666666667</ele><time>2026-05-06T12:36:19Z</time></trkpt><trkpt lat="14.471225830597211" lon="120.97347050066243"><ele>6.5</ele><time>2026-05-06T12:36:20Z</time></trkpt><trkpt lat="14.47126526369" lon="120.97354538009567"><ele>6.333333333333334</ele><time>2026-05-06T12:36:21Z</time></trkpt><trkpt lat="14.47130214445826" lon="120.9736167953136"><ele>6.166666666666667</ele><time>2026-05-06T12:36:22Z</time></trkpt><trkpt lat="14.47133210188518" lon="120.97368341136858"><ele>6.0</ele><time>2026-05-06T12:36:23Z</time></trkpt><trkpt lat="14.471386286841886" lon="120.97378904191949"><ele>6.0</ele><time>2026-05-06T12:36:25Z</time></trkpt><trkpt lat="14.471429116732704" lon="120.97386890850787"><ele>6.0</ele><time>2026-05-06T12:36:27Z</time></trkpt><trkpt lat="14.471465475060873" lon="120.97395092478777"><ele>6.0</ele><time>2026-05-06T12:36:31Z</time></trkpt><trkpt lat="14.471502225399885" lon="120.97403234292048"><ele>6.0</ele><time>2026-05-06T12:36:33Z</time></trkpt><trkpt lat="14.471559887618756" lon="120.97413392791377"><ele>6.0</ele><time>2026-05-06T12:36:35Z</time></trkpt><trkpt lat="14.471613713610072" lon="120.9742508985875"><ele>6.166666666666667</ele><time>2026-05-06T12:36:37Z</time></trkpt><trkpt lat="14.471645536004607" lon="120.97431333507363"><ele>6.333333333333334</ele><time>2026-05-06T12:36:38Z</time></trkpt><trkpt lat="14.471684240697392" lon="120.97437877649267"><ele>6.5</ele><time>2026-05-06T12:36:39Z</time></trkpt><trkpt lat="14.471720509329744" lon="120.97444725229232"><ele>6.666666666666667</ele><time>2026-05-06T12:36:40Z</time></trkpt><trkpt lat="14.471756239689542" lon="120.97451487150684"><ele>6.833333333333334</ele><time>2026-05-06T12:36:41Z</time></trkpt><trkpt lat="14.471778576454202" lon="120.97458137506719"><ele>7.0</ele><time>2026-05-06T12:36:42Z</time></trkpt><trkpt lat="14.471841649400464" lon="120.97468486151787"><ele>7.000000000000001</ele><time>2026-05-06T12:36:44Z</time></trkpt><trkpt lat="14.471906299391815" lon="120.9747933342508"><ele>7.0</ele><time>2026-05-06T12:36:46Z</time></trkpt><trkpt lat="14.47194211886912" lon="120.97485678377093"><ele>7.0</ele><time>2026-05-06T12:36:47Z</time></trkpt><trkpt lat="14.471980884851188" lon="120.9749251366966"><ele>7.0</ele><time>2026-05-06T12:36:48Z</time></trkpt><trkpt lat="14.472023571495335" lon="120.97499849897737"><ele>7.000000000000001</ele><time>2026-05-06T12:36:49Z</time></trkpt><trkpt lat="14.472071708289835" lon="120.97507376223997"><ele>7.0</ele><time>2026-05-06T12:36:50Z</time></trkpt><trkpt lat="14.472123652456498" lon="120.97515103763386"><ele>7.0</ele><time>2026-05-06T12:36:51Z</time></trkpt><trkpt lat="14.472173249881257" lon="120.9752275081368"><ele>6.999999999999999</ele><time>2026-05-06T12:36:52Z</time></trkpt><trkpt lat="14.47222418700826" lon="120.97530511166777"><ele>6.999999999999999</ele><time>2026-05-06T12:36:53Z</time></trkpt><trkpt lat="14.472276440718373" lon="120.97538132774912"><ele>7.0</ele><time>2026-05-06T12:36:54Z</time></trkpt><trkpt lat="14.472333227310074" lon="120.97545638847804"><ele>7.0</ele><time>2026-05-06T12:36:55Z</time></trkpt><trkpt lat="14.472391294548295" lon="120.97553135192913"><ele>7.0</ele><time>2026-05-06T12:36:56Z</time></trkpt><trkpt lat="14.47243855223101" lon="120.97559545180339"><ele>6.999999999999999</ele><time>2026-05-06T12:36:57Z</time></trkpt><trkpt lat="14.472492037402118" lon="120.9756578501209"><ele>6.999999999999999</ele><time>2026-05-06T12:36:59Z</time></trkpt><trkpt lat="14.47255377467439" lon="120.9757303936602"><ele>7.0</ele><time>2026-05-06T12:37:01Z</time></trkpt><trkpt lat="14.472630314721895" lon="120.97582261506457"><ele>7.0</ele><time>2026-05-06T12:37:03Z</time></trkpt><trkpt lat="14.472703841877015" lon="120.97590990955626"><ele>7.0</ele><time>2026-05-06T12:37:05Z</time></trkpt><trkpt lat="14.472749038478225" lon="120.97596461316702"><ele>6.999999999999999</ele><time>2026-05-06T12:37:07Z</time></trkpt><trkpt lat="14.47278880614275" lon="120.97602762387808"><ele>6.999999999999999</ele><time>2026-05-06T12:37:09Z</time></trkpt><trkpt lat="14.472853861216338" lon="120.97611262855483"><ele>7.0</ele><time>2026-05-06T12:37:11Z</time></trkpt><trkpt lat="14.472926804303281" lon="120.97621194431306"><ele>7.0</ele><time>2026-05-06T12:37:13Z</time></trkpt><trkpt lat="14.472995105214865" lon="120.97629521856186"><ele>7.000000000000001</ele><time>2026-05-06T12:37:15Z</time></trkpt><trkpt lat="14.473045504278488" lon="120.97635840627804"><ele>7.0</ele><time>2026-05-06T12:37:17Z</time></trkpt><trkpt lat="14.473096684446313" lon="120.9764207792177"><ele>7.0</ele><time>2026-05-06T12:37:21Z</time></trkpt><trkpt lat="14.473153427946704" lon="120.97648334667906"><ele>7.0</ele><time>2026-05-06T12:37:24Z</time></trkpt><trkpt lat="14.47321310813768" lon="120.97654862617208"><ele>7.000000000000001</ele><time>2026-05-06T12:37:27Z</time></trkpt><trkpt lat="14.473266344339581" lon="120.97661846798106"><ele>7.0</ele><time>2026-05-06T12:37:29Z</time></trkpt><trkpt lat="14.473330065867133" lon="120.97671478529938"><ele>6.75</ele><time>2026-05-06T12:37:31Z</time></trkpt><trkpt lat="14.473402169206926" lon="120.97682140443942"><ele>6.5</ele><time>2026-05-06T12:37:33Z</time></trkpt><trkpt lat="14.4734708713619" lon="120.97692703654585"><ele>6.25</ele><time>2026-05-06T12:37:35Z</time></trkpt><trkpt lat="14.473532769948038" lon="120.97702298276897"><ele>6.0</ele><time>2026-05-06T12:37:37Z</time></trkpt><trkpt lat="14.473585363513177" lon="120.97710640619258"><ele>6.0</ele><time>2026-05-06T12:37:39Z</time></trkpt><trkpt lat="14.473625562454457" lon="120.97718706205835"><ele>6.0</ele><time>2026-05-06T12:37:41Z</time></trkpt><trkpt lat="14.473668329030245" lon="120.97726032694312"><ele>6.0</ele><time>2026-05-06T12:37:43Z</time></trkpt><trkpt lat="14.473700807713753" lon="120.97731889488284"><ele>6.0</ele><time>2026-05-06T12:37:45Z</time></trkpt><trkpt lat="14.47376633854082" lon="120.9774114107868"><ele>6.0</ele><time>2026-05-06T12:37:48Z</time></trkpt><trkpt lat="14.473819378420048" lon="120.977503433944"><ele>6.0</ele><time>2026-05-06T12:37:50Z</time></trkpt><trkpt lat="14.473830279124408" lon="120.97756947958705"><ele>6.0</ele><time>2026-05-06T12:37:54Z</time></trkpt><trkpt lat="14.473859957622047" lon="120.97763152430653"><ele>6.0</ele><time>2026-05-06T12:37:57Z</time></trkpt><trkpt lat="14.4738999005596" lon="120.97768330746894"><ele>6.0</ele><time>2026-05-06T12:37:59Z</time></trkpt><trkpt lat="14.473947730143692" lon="120.97778180083165"><ele>6.0</ele><time>2026-05-06T12:38:01Z</time></trkpt><trkpt lat="14.473992190834158" lon="120.97789920293822"><ele>6.0</ele><time>2026-05-06T12:38:03Z</time></trkpt><trkpt lat="14.474015409147075" lon="120.97800019889968"><ele>6.0</ele><time>2026-05-06T12:38:05Z</time></trkpt><trkpt lat="14.473955840512602" lon="120.97809572825452"><ele>6.0</ele><time>2026-05-06T12:38:06Z</time></trkpt><trkpt lat="14.473919682882828" lon="120.97818015171359"><ele>6.0</ele><time>2026-05-06T12:38:07Z</time></trkpt><trkpt lat="14.473880395611143" lon="120.97827236834507"><ele>6.0</ele><time>2026-05-06T12:38:08Z</time></trkpt><trkpt lat="14.473839117472702" lon="120.97836647893686"><ele>6.0</ele><time>2026-05-06T12:38:09Z</time></trkpt><trkpt lat="14.473798922063294" lon="120.9784495711491"><ele>6.5</ele><time>2026-05-06T12:38:10Z</time></trkpt><trkpt lat="14.473760897266388" lon="120.97854575017804"><ele>7.0</ele><time>2026-05-06T12:38:12Z</time></trkpt><trkpt lat="14.473727385323167" lon="120.97863443007671"><ele>7.5</ele><time>2026-05-06T12:38:15Z</time></trkpt><trkpt lat="14.473711654306246" lon="120.97870251416364"><ele>8.0</ele><time>2026-05-06T12:38:16Z</time></trkpt><trkpt lat="14.473698582823816" lon="120.9787741705061"><ele>8.5</ele><time>2026-05-06T12:38:17Z</time></trkpt><trkpt lat="14.473681339380757" lon="120.97885586632857"><ele>9.0</ele><time>2026-05-06T12:38:18Z</time></trkpt><trkpt lat="14.47368672129166" lon="120.97896944900864"><ele>9.0</ele><time>2026-05-06T12:38:19Z</time></trkpt><trkpt lat="14.473695214562849" lon="120.97909636418515"><ele>9.0</ele><time>2026-05-06T12:38:20Z</time></trkpt><trkpt lat="14.47371849652438" lon="120.97922328440292"><ele>9.0</ele><time>2026-05-06T12:38:21Z</time></trkpt><trkpt lat="14.47372296139565" lon="120.97935937121764"><ele>9.0</ele><time>2026-05-06T12:38:22Z</time></trkpt><trkpt lat="14.47374447363583" lon="120.97949936524412"><ele>8.25</ele><time>2026-05-06T12:38:23Z</time></trkpt><trkpt lat="14.473761744611878" lon="120.97963966880855"><ele>7.5</ele><time>2026-05-06T12:38:24Z</time></trkpt><trkpt lat="14.47378522591232" lon="120.97979067648333"><ele>6.75</ele><time>2026-05-06T12:38:25Z</time></trkpt><trkpt lat="14.473809619665202" lon="120.97993173556827"><ele>6.0</ele><time>2026-05-06T12:38:26Z</time></trkpt><trkpt lat="14.473840070899579" lon="120.98006232656974"><ele>5.75</ele><time>2026-05-06T12:38:27Z</time></trkpt><trkpt lat="14.473877414514382" lon="120.98019412340909"><ele>5.5</ele><time>2026-05-06T12:38:28Z</time></trkpt><trkpt lat="14.473924358297769" lon="120.98030752810037"><ele>5.25</ele><time>2026-05-06T12:38:29Z</time></trkpt><trkpt lat="14.473997133258994" lon="120.98042871577316"><ele>5.0</ele><time>2026-05-06T12:38:30Z</time></trkpt><trkpt lat="14.474076332449075" lon="120.98054129782975"><ele>5.0</ele><time>2026-05-06T12:38:31Z</time></trkpt><trkpt lat="14.474155313073302" lon="120.98066032268802"><ele>5.0</ele><time>2026-05-06T12:38:32Z</time></trkpt><trkpt lat="14.474235266385726" lon="120.98079102809189"><ele>5.0</ele><time>2026-05-06T12:38:33Z</time></trkpt><trkpt lat="14.474313733743688" lon="120.98091781091722"><ele>5.0</ele><time>2026-05-06T12:38:34Z</time></trkpt><trkpt lat="14.474394126966583" lon="120.98103930117567"><ele>6.0</ele><time>2026-05-06T12:38:35Z</time></trkpt><trkpt lat="14.474485950812133" lon="120.98115924935595"><ele>7.0</ele><time>2026-05-06T12:38:36Z</time></trkpt><trkpt lat="14.474585051702078" lon="120.98127824605827"><ele>8.0</ele><time>2026-05-06T12:38:37Z</time></trkpt><trkpt lat="14.474686378589787" lon="120.98139779645359"><ele>8.0</ele><time>2026-05-06T12:38:38Z</time></trkpt><trkpt lat="14.47479267253235" lon="120.98151771516632"><ele>8.0</ele><time>2026-05-06T12:38:39Z</time></trkpt><trkpt lat="14.474903654839048" lon="120.98163198474758"><ele>8.0</ele><time>2026-05-06T12:38:40Z</time></trkpt><trkpt lat="14.475014178190616" lon="120.98174825241765"><ele>8.0</ele><time>2026-05-06T12:38:41Z</time></trkpt><trkpt lat="14.475125705321172" lon="120.98186035581108"><ele>8.0</ele><time>2026-05-06T12:38:42Z</time></trkpt><trkpt lat="14.475235583517236" lon="120.98197249928677"><ele>8.0</ele><time>2026-05-06T12:38:43Z</time></trkpt><trkpt lat="14.475343812810559" lon="120.9820851982519"><ele>8.0</ele><time>2026-05-06T12:38:44Z</time></trkpt><trkpt lat="14.475453000891637" lon="120.98219810745827"><ele>8.0</ele><time>2026-05-06T12:38:45Z</time></trkpt><trkpt lat="14.475563783793689" lon="120.98230921439524"><ele>8.0</ele><time>2026-05-06T12:38:46Z</time></trkpt><trkpt lat="14.475677962714526" lon="120.98242466478975"><ele>7.333333333333333</ele><time>2026-05-06T12:38:47Z</time></trkpt><trkpt lat="14.475790282817062" lon="120.98254275630322"><ele>6.666666666666666</ele><time>2026-05-06T12:38:48Z</time></trkpt><trkpt lat="14.475899817420748" lon="120.98265847783871"><ele>6.0</ele><time>2026-05-06T12:38:49Z</time></trkpt><trkpt lat="14.476007303358207" lon="120.98277113869452"><ele>6.0</ele><time>2026-05-06T12:38:50Z</time></trkpt><trkpt lat="14.476115075408055" lon="120.98288366043751"><ele>6.0</ele><time>2026-05-06T12:38:51Z</time></trkpt><trkpt lat="14.476218119737664" lon="120.98299102048834"><ele>6.0</ele><time>2026-05-06T12:38:52Z</time></trkpt><trkpt lat="14.476315479503578" lon="120.98309117278178"><ele>6.0</ele><time>2026-05-06T12:38:53Z</time></trkpt><trkpt lat="14.47640845710216" lon="120.98318613452554"><ele>6.25</ele><time>2026-05-06T12:38:54Z</time></trkpt><trkpt lat="14.476497910360132" lon="120.98327709201624"><ele>6.5</ele><time>2026-05-06T12:38:55Z</time></trkpt><trkpt lat="14.47658335859862" lon="120.98336046483436"><ele>6.75</ele><time>2026-05-06T12:38:56Z</time></trkpt><trkpt lat="14.476668476826212" lon="120.98344427807973"><ele>7.0</ele><time>2026-05-06T12:38:57Z</time></trkpt><trkpt lat="14.476757793070089" lon="120.98353061061601"><ele>7.5</ele><time>2026-05-06T12:38:58Z</time></trkpt><trkpt lat="14.476848496141889" lon="120.98361860462086"><ele>8.0</ele><time>2026-05-06T12:38:59Z</time></trkpt><trkpt lat="14.476939944499211" lon="120.98371116357643"><ele>8.5</ele><time>2026-05-06T12:39:00Z</time></trkpt><trkpt lat="14.477035798327458" lon="120.98380744675363"><ele>9.0</ele><time>2026-05-06T12:39:01Z</time></trkpt><trkpt lat="14.477134005325317" lon="120.98390736694012"><ele>7.25</ele><time>2026-05-06T12:39:02Z</time></trkpt><trkpt lat="14.477233467608228" lon="120.98401197866878"><ele>5.5</ele><time>2026-05-06T12:39:03Z</time></trkpt><trkpt lat="14.477336397451012" lon="120.98412176377111"><ele>3.75</ele><time>2026-05-06T12:39:04Z</time></trkpt><trkpt lat="14.477438854553839" lon="120.9842295396161"><ele>2.0</ele><time>2026-05-06T12:39:05Z</time></trkpt><trkpt lat="14.477546989324075" lon="120.98433957390765"><ele>2.0</ele><time>2026-05-06T12:39:06Z</time></trkpt><trkpt lat="14.477654687720259" lon="120.98444915786277"><ele>2.0</ele><time>2026-05-06T12:39:07Z</time></trkpt><trkpt lat="14.477763293056304" lon="120.98455983091247"><ele>2.0</ele><time>2026-05-06T12:39:08Z</time></trkpt><trkpt lat="14.477870439059963" lon="120.9846706189397"><ele>3.25</ele><time>2026-05-06T12:39:09Z</time></trkpt><trkpt lat="14.477972753231017" lon="120.98477705435714"><ele>4.5</ele><time>2026-05-06T12:39:10Z</time></trkpt><trkpt lat="14.478070904789712" lon="120.98487498184691"><ele>5.75</ele><time>2026-05-06T12:39:11Z</time></trkpt><trkpt lat="14.478164563900782" lon="120.98496594356317"><ele>7.0</ele><time>2026-05-06T12:39:12Z</time></trkpt><trkpt lat="14.47825474220245" lon="120.98505931664853"><ele>7.8</ele><time>2026-05-06T12:39:13Z</time></trkpt><trkpt lat="14.478340084684033" lon="120.98514637145632"><ele>8.6</ele><time>2026-05-06T12:39:14Z</time></trkpt><trkpt lat="14.478420635297683" lon="120.98522866196542"><ele>9.4</ele><time>2026-05-06T12:39:15Z</time></trkpt><trkpt lat="14.47849253469618" lon="120.98530108025618"><ele>10.200000000000001</ele><time>2026-05-06T12:39:16Z</time></trkpt><trkpt lat="14.478559301033698" lon="120.98537018018098"><ele>11.0</ele><time>2026-05-06T12:39:17Z</time></trkpt><trkpt lat="14.478613937098176" lon="120.98542620752622"><ele>11.0</ele><time>2026-05-06T12:39:18Z</time></trkpt><trkpt lat="14.478658869173023" lon="120.98547532447041"><ele>11.0</ele><time>2026-05-06T12:39:19Z</time></trkpt><trkpt lat="14.478743861426265" lon="120.98556441171364"><ele>11.0</ele><time>2026-05-06T12:39:21Z</time></trkpt><trkpt lat="14.47879336320925" lon="120.98561329087036"><ele>11.0</ele><time>2026-05-06T12:39:22Z</time></trkpt><trkpt lat="14.478845869254869" lon="120.98566693495549"><ele>11.0</ele><time>2026-05-06T12:39:23Z</time></trkpt><trkpt lat="14.478898381553808" lon="120.9857190632738"><ele>11.0</ele><time>2026-05-06T12:39:24Z</time></trkpt><trkpt lat="14.478954336566922" lon="120.98577923017622"><ele>9.4</ele><time>2026-05-06T12:39:25Z</time></trkpt><trkpt lat="14.479015217406776" lon="120.985838074733"><ele>7.800000000000001</ele><time>2026-05-06T12:39:26Z</time></trkpt><trkpt lat="14.479078784115208" lon="120.98590099072712"><ele>6.2</ele><time>2026-05-06T12:39:27Z</time></trkpt><trkpt lat="14.479148830689745" lon="120.98597182898739"><ele>4.6</ele><time>2026-05-06T12:39:28Z</time></trkpt><trkpt lat="14.47921690177412" lon="120.98604008803859"><ele>3.0</ele><time>2026-05-06T12:39:29Z</time></trkpt><trkpt lat="14.479280192527497" lon="120.98610684199144"><ele>2.8333333333333335</ele><time>2026-05-06T12:39:30Z</time></trkpt><trkpt lat="14.479341255387961" lon="120.98617039870976"><ele>2.6666666666666665</ele><time>2026-05-06T12:39:31Z</time></trkpt><trkpt lat="14.479404540008412" lon="120.98623847902013"><ele>2.5</ele><time>2026-05-06T12:39:32Z</time></trkpt><trkpt lat="14.479465760061588" lon="120.98630257515836"><ele>2.333333333333333</ele><time>2026-05-06T12:39:33Z</time></trkpt><trkpt lat="14.479526707112594" lon="120.98636666411993"><ele>2.1666666666666665</ele><time>2026-05-06T12:39:34Z</time></trkpt><trkpt lat="14.479587277975694" lon="120.98643105459976"><ele>2.0</ele><time>2026-05-06T12:39:35Z</time></trkpt><trkpt lat="14.479652637004259" lon="120.98649659882231"><ele>1.9999999999999998</ele><time>2026-05-06T12:39:36Z</time></trkpt><trkpt lat="14.479717859841015" lon="120.9865666089469"><ele>2.0</ele><time>2026-05-06T12:39:37Z</time></trkpt><trkpt lat="14.479787062360668" lon="120.98663704146048"><ele>2.0</ele><time>2026-05-06T12:39:38Z</time></trkpt><trkpt lat="14.47984798726475" lon="120.98669936217941"><ele>2.0</ele><time>2026-05-06T12:39:39Z</time></trkpt><trkpt lat="14.47990695819506" lon="120.9867612782814"><ele>1.9999999999999998</ele><time>2026-05-06T12:39:40Z</time></trkpt><trkpt lat="14.479956858670711" lon="120.98681001026254"><ele>2.0</ele><time>2026-05-06T12:39:41Z</time></trkpt><trkpt lat="14.48003376716141" lon="120.98688931393288"><ele>2.4000000000000004</ele><time>2026-05-06T12:39:43Z</time></trkpt><trkpt lat="14.480085452228199" lon="120.98694243010142"><ele>2.8000000000000003</ele><time>2026-05-06T12:39:45Z</time></trkpt><trkpt lat="14.480144122665173" lon="120.9870034562628"><ele>3.2</ele><time>2026-05-06T12:39:47Z</time></trkpt><trkpt lat="14.480220094196183" lon="120.98708137273718"><ele>3.6</ele><time>2026-05-06T12:39:49Z</time></trkpt><trkpt lat="14.480323058041895" lon="120.98716892683743"><ele>4.0</ele><time>2026-05-06T12:39:51Z</time></trkpt><trkpt lat="14.480389187896254" lon="120.98721732774824"><ele>3.4000000000000004</ele><time>2026-05-06T12:39:52Z</time></trkpt><trkpt lat="14.480461781482017" lon="120.98726966998748"><ele>2.8000000000000003</ele><time>2026-05-06T12:39:53Z</time></trkpt><trkpt lat="14.480533094128024" lon="120.98731640547673"><ele>2.2</ele><time>2026-05-06T12:39:54Z</time></trkpt><trkpt lat="14.480626647595242" lon="120.98738218689418"><ele>1.6</ele><time>2026-05-06T12:39:55Z</time></trkpt><trkpt lat="14.480710876591283" lon="120.98743211417892"><ele>1.0</ele><time>2026-05-06T12:39:56Z</time></trkpt><trkpt lat="14.480807837692845" lon="120.98748708072044"><ele>1.5</ele><time>2026-05-06T12:39:57Z</time></trkpt><trkpt lat="14.480914133886916" lon="120.98753685851662"><ele>2.0</ele><time>2026-05-06T12:39:58Z</time></trkpt><trkpt lat="14.48102009337418" lon="120.9875863400352"><ele>2.5</ele><time>2026-05-06T12:39:59Z</time></trkpt><trkpt lat="14.481129023974459" lon="120.9876391088533"><ele>3.0</ele><time>2026-05-06T12:40:00Z</time></trkpt><trkpt lat="14.481226070182514" lon="120.98768729745501"><ele>1.5999999999999999</ele><time>2026-05-06T12:40:01Z</time></trkpt><trkpt lat="14.481324725878844" lon="120.98773269832208"><ele>0.19999999999999973</ele><time>2026-05-06T12:40:02Z</time></trkpt><trkpt lat="14.481403453415515" lon="120.98779145287776"><ele>-1.2000000000000004</ele><time>2026-05-06T12:40:03Z</time></trkpt><trkpt lat="14.481493668379297" lon="120.98783690189575"><ele>-2.6</ele><time>2026-05-06T12:40:04Z</time></trkpt><trkpt lat="14.481589150879513" lon="120.98786319506394"><ele>-4.0</ele><time>2026-05-06T12:40:05Z</time></trkpt><trkpt lat="14.481683113550968" lon="120.9879086056107"><ele>-4.0</ele><time>2026-05-06T12:40:06Z</time></trkpt><trkpt lat="14.481779546551756" lon="120.9879561032625"><ele>-4.0</ele><time>2026-05-06T12:40:07Z</time></trkpt><trkpt lat="14.481882002683255" lon="120.98800721971189"><ele>-4.0</ele><time>2026-05-06T12:40:08Z</time></trkpt><trkpt lat="14.48197808888802" lon="120.9880575874533"><ele>-4.0</ele><time>2026-05-06T12:40:09Z</time></trkpt><trkpt lat="14.482079539734832" lon="120.98810801588544"><ele>-4.0</ele><time>2026-05-06T12:40:10Z</time></trkpt><trkpt lat="14.482180866334112" lon="120.98815900377262"><ele>-2.5</ele><time>2026-05-06T12:40:11Z</time></trkpt><trkpt lat="14.482283375894825" lon="120.98821201363154"><ele>-1.0</ele><time>2026-05-06T12:40:12Z</time></trkpt><trkpt lat="14.482390926994286" lon="120.98826751132913"><ele>0.5</ele><time>2026-05-06T12:40:13Z</time></trkpt><trkpt lat="14.482491867523132" lon="120.98831955229126"><ele>2.0</ele><time>2026-05-06T12:40:14Z</time></trkpt><trkpt lat="14.482586866845232" lon="120.98837251115297"><ele>2.2</ele><time>2026-05-06T12:40:15Z</time></trkpt><trkpt lat="14.482663594952124" lon="120.98842900891873"><ele>2.4000000000000004</ele><time>2026-05-06T12:40:16Z</time></trkpt><trkpt lat="14.482749956417555" lon="120.98849733997866"><ele>2.5999999999999996</ele><time>2026-05-06T12:40:17Z</time></trkpt><trkpt lat="14.482810000277807" lon="120.98855225973463"><ele>2.8</ele><time>2026-05-06T12:40:18Z</time></trkpt><trkpt lat="14.48288482974897" lon="120.9886306714921"><ele>3.0</ele><time>2026-05-06T12:40:19Z</time></trkpt><trkpt lat="14.482929762857895" lon="120.98870898891481"><ele>3.2</ele><time>2026-05-06T12:40:20Z</time></trkpt><trkpt lat="14.482983343108902" lon="120.98880406288866"><ele>3.4</ele><time>2026-05-06T12:40:21Z</time></trkpt><trkpt lat="14.483029056459202" lon="120.98890027584692"><ele>3.6000000000000005</ele><time>2026-05-06T12:40:22Z</time></trkpt><trkpt lat="14.483070565264079" lon="120.9889847420223"><ele>3.8000000000000003</ele><time>2026-05-06T12:40:23Z</time></trkpt><trkpt lat="14.483119660546436" lon="120.98907234161142"><ele>4.0</ele><time>2026-05-06T12:40:24Z</time></trkpt><trkpt lat="14.483167639552875" lon="120.98916014769979"><ele>3.8000000000000003</ele><time>2026-05-06T12:40:25Z</time></trkpt><trkpt lat="14.4832141866882" lon="120.9892520738634"><ele>3.6000000000000005</ele><time>2026-05-06T12:40:26Z</time></trkpt><trkpt lat="14.483263160303055" lon="120.9893448967192"><ele>3.4</ele><time>2026-05-06T12:40:27Z</time></trkpt><trkpt lat="14.483308339242011" lon="120.98943391486185"><ele>3.2</ele><time>2026-05-06T12:40:28Z</time></trkpt><trkpt lat="14.48335587321907" lon="120.9895264547692"><ele>3.0</ele><time>2026-05-06T12:40:29Z</time></trkpt><trkpt lat="14.483404140033791" lon="120.98961880194908"><ele>3.0</ele><time>2026-05-06T12:40:30Z</time></trkpt><trkpt lat="14.483448928282654" lon="120.98970607308432"><ele>3.0</ele><time>2026-05-06T12:40:31Z</time></trkpt><trkpt lat="14.483477959338197" lon="120.9897941016373"><ele>3.0</ele><time>2026-05-06T12:40:32Z</time></trkpt><trkpt lat="14.48349254910313" lon="120.98988600093499"><ele>3.0</ele><time>2026-05-06T12:40:33Z</time></trkpt><trkpt lat="14.483495259925226" lon="120.98998610642157"><ele>3.0</ele><time>2026-05-06T12:40:34Z</time></trkpt><trkpt lat="14.483484616548633" lon="120.99008628133112"><ele>3.8</ele><time>2026-05-06T12:40:35Z</time></trkpt><trkpt lat="14.48344924265256" lon="120.99018676936971"><ele>4.6</ele><time>2026-05-06T12:40:36Z</time></trkpt><trkpt lat="14.483402997381718" lon="120.99028820253857"><ele>5.3999999999999995</ele><time>2026-05-06T12:40:37Z</time></trkpt><trkpt lat="14.4833559246922" lon="120.9903855097976"><ele>6.199999999999999</ele><time>2026-05-06T12:40:38Z</time></trkpt><trkpt lat="14.48331446650821" lon="120.99048663973028"><ele>7.0</ele><time>2026-05-06T12:40:39Z</time></trkpt><trkpt lat="14.483274339104296" lon="120.99059242325805"><ele>7.0</ele><time>2026-05-06T12:40:40Z</time></trkpt><trkpt lat="14.483241659987776" lon="120.99069315282894"><ele>6.999999999999999</ele><time>2026-05-06T12:40:41Z</time></trkpt><trkpt lat="14.483208179955191" lon="120.99079616474096"><ele>6.999999999999999</ele><time>2026-05-06T12:40:42Z</time></trkpt><trkpt lat="14.4831776486396" lon="120.99090177224156"><ele>7.0</ele><time>2026-05-06T12:40:43Z</time></trkpt><trkpt lat="14.483145372516397" lon="120.99100597534779"><ele>7.0</ele><time>2026-05-06T12:40:44Z</time></trkpt><trkpt lat="14.483127433722084" lon="120.99111067329451"><ele>7.0</ele><time>2026-05-06T12:40:45Z</time></trkpt><trkpt lat="14.483131729740888" lon="120.99122593707995"><ele>6.999999999999999</ele><time>2026-05-06T12:40:46Z</time></trkpt><trkpt lat="14.483146400967948" lon="120.99133303819247"><ele>6.999999999999999</ele><time>2026-05-06T12:40:47Z</time></trkpt><trkpt lat="14.483171717146831" lon="120.99144350293524"><ele>7.0</ele><time>2026-05-06T12:40:48Z</time></trkpt><trkpt lat="14.483205165081284" lon="120.99154875451644"><ele>7.0</ele><time>2026-05-06T12:40:49Z</time></trkpt><trkpt lat="14.483246081329401" lon="120.99165572444628"><ele>6.0</ele><time>2026-05-06T12:40:50Z</time></trkpt><trkpt lat="14.483284094876492" lon="120.99175717448625"><ele>4.999999999999999</ele><time>2026-05-06T12:40:51Z</time></trkpt><trkpt lat="14.483321267224646" lon="120.99186508037216"><ele>4.0</ele><time>2026-05-06T12:40:52Z</time></trkpt><trkpt lat="14.483358902528447" lon="120.99197400096818"><ele>3.0</ele><time>2026-05-06T12:40:53Z</time></trkpt><trkpt lat="14.483396380379903" lon="120.99207887808056"><ele>2.0</ele><time>2026-05-06T12:40:54Z</time></trkpt><trkpt lat="14.483440866638638" lon="120.9921820247491"><ele>2.0</ele><time>2026-05-06T12:40:55Z</time></trkpt><trkpt lat="14.48348992471917" lon="120.99228768559499"><ele>2.0</ele><time>2026-05-06T12:40:56Z</time></trkpt><trkpt lat="14.483554330024191" lon="120.99237792938443"><ele>2.0</ele><time>2026-05-06T12:40:57Z</time></trkpt><trkpt lat="14.48363320598955" lon="120.99245745572853"><ele>2.0</ele><time>2026-05-06T12:40:58Z</time></trkpt><trkpt lat="14.483729853435486" lon="120.9925264915877"><ele>3.0</ele><time>2026-05-06T12:40:59Z</time></trkpt><trkpt lat="14.48383972955793" lon="120.99258010792366"><ele>4.0</ele><time>2026-05-06T12:41:00Z</time></trkpt><trkpt lat="14.483949622913226" lon="120.99264319056846"><ele>5.0</ele><time>2026-05-06T12:41:01Z</time></trkpt><trkpt lat="14.484056721583064" lon="120.99270897868813"><ele>6.0</ele><time>2026-05-06T12:41:02Z</time></trkpt><trkpt lat="14.484163405206678" lon="120.99278045856849"><ele>6.0</ele><time>2026-05-06T12:41:03Z</time></trkpt><trkpt lat="14.484269329915918" lon="120.99284795655468"><ele>6.0</ele><time>2026-05-06T12:41:04Z</time></trkpt><trkpt lat="14.484381632126224" lon="120.99292115424261"><ele>6.0</ele><time>2026-05-06T12:41:05Z</time></trkpt><trkpt lat="14.484488335275689" lon="120.99298926792974"><ele>6.0</ele><time>2026-05-06T12:41:06Z</time></trkpt><trkpt lat="14.484601341566314" lon="120.99306152792357"><ele>6.25</ele><time>2026-05-06T12:41:07Z</time></trkpt><trkpt lat="14.484708693980577" lon="120.99313218638444"><ele>6.5</ele><time>2026-05-06T12:41:08Z</time></trkpt><trkpt lat="14.484820220833331" lon="120.99320616731563"><ele>6.75</ele><time>2026-05-06T12:41:09Z</time></trkpt><trkpt lat="14.484931804654197" lon="120.99328231446886"><ele>7.0</ele><time>2026-05-06T12:41:10Z</time></trkpt><trkpt lat="14.485040944749867" lon="120.99335112341616"><ele>6.0</ele><time>2026-05-06T12:41:11Z</time></trkpt><trkpt lat="14.485150424220192" lon="120.99342828229119"><ele>5.0</ele><time>2026-05-06T12:41:12Z</time></trkpt><trkpt lat="14.485254031260334" lon="120.993509724743"><ele>4.0</ele><time>2026-05-06T12:41:13Z</time></trkpt><trkpt lat="14.485342491406543" lon="120.99359002352509"><ele>3.0</ele><time>2026-05-06T12:41:14Z</time></trkpt><trkpt lat="14.485424847338761" lon="120.9936679124617"><ele>3.2</ele><time>2026-05-06T12:41:15Z</time></trkpt><trkpt lat="14.4855051654505" lon="120.99374424797614"><ele>3.4</ele><time>2026-05-06T12:41:16Z</time></trkpt><trkpt lat="14.485585373318191" lon="120.99382230039252"><ele>3.6000000000000005</ele><time>2026-05-06T12:41:17Z</time></trkpt><trkpt lat="14.485661330149043" lon="120.99390400239753"><ele>3.8000000000000003</ele><time>2026-05-06T12:41:18Z</time></trkpt><trkpt lat="14.48574469843053" lon="120.99399023436635"><ele>4.0</ele><time>2026-05-06T12:41:19Z</time></trkpt><trkpt lat="14.485809299232807" lon="120.9940666409636"><ele>4.0</ele><time>2026-05-06T12:41:20Z</time></trkpt><trkpt lat="14.485879043318949" lon="120.9941499037066"><ele>4.0</ele><time>2026-05-06T12:41:21Z</time></trkpt><trkpt lat="14.485948263555816" lon="120.99423955621245"><ele>4.0</ele><time>2026-05-06T12:41:22Z</time></trkpt><trkpt lat="14.486015108832664" lon="120.99433276522885"><ele>4.0</ele><time>2026-05-06T12:41:23Z</time></trkpt><trkpt lat="14.486082560753873" lon="120.99443053084383"><ele>4.0</ele><time>2026-05-06T12:41:24Z</time></trkpt><trkpt lat="14.486141298257744" lon="120.99453223896035"><ele>4.0</ele><time>2026-05-06T12:41:25Z</time></trkpt><trkpt lat="14.486191004645402" lon="120.99463846808597"><ele>4.0</ele><time>2026-05-06T12:41:26Z</time></trkpt><trkpt lat="14.48622374616983" lon="120.99475287177934"><ele>4.0</ele><time>2026-05-06T12:41:27Z</time></trkpt><trkpt lat="14.486243134561123" lon="120.99486716454778"><ele>4.0</ele><time>2026-05-06T12:41:28Z</time></trkpt><trkpt lat="14.48625038688476" lon="120.99498098214498"><ele>4.25</ele><time>2026-05-06T12:41:29Z</time></trkpt><trkpt lat="14.48625392378903" lon="120.9950948479001"><ele>4.5</ele><time>2026-05-06T12:41:30Z</time></trkpt><trkpt lat="14.486246945597848" lon="120.9952119564564"><ele>4.75</ele><time>2026-05-06T12:41:31Z</time></trkpt><trkpt lat="14.486228395626686" lon="120.99532998323177"><ele>5.0</ele><time>2026-05-06T12:41:32Z</time></trkpt><trkpt lat="14.486201586623483" lon="120.99544933744319"><ele>5.0</ele><time>2026-05-06T12:41:33Z</time></trkpt><trkpt lat="14.48616633955496" lon="120.9955716137739"><ele>5.0</ele><time>2026-05-06T12:41:34Z</time></trkpt><trkpt lat="14.486121430928653" lon="120.99569524410208"><ele>5.0</ele><time>2026-05-06T12:41:35Z</time></trkpt><trkpt lat="14.486068294962992" lon="120.99581922179131"><ele>5.0</ele><time>2026-05-06T12:41:36Z</time></trkpt><trkpt lat="14.486016584342796" lon="120.99595092954718"><ele>4.75</ele><time>2026-05-06T12:41:37Z</time></trkpt><trkpt lat="14.485967691080024" lon="120.99608131118148"><ele>4.5</ele><time>2026-05-06T12:41:38Z</time></trkpt><trkpt lat="14.485925282773774" lon="120.99620758270247"><ele>4.25</ele><time>2026-05-06T12:41:39Z</time></trkpt><trkpt lat="14.485887846306834" lon="120.9963324320725"><ele>4.0</ele><time>2026-05-06T12:41:40Z</time></trkpt><trkpt lat="14.48586096329333" lon="120.99647000311569"><ele>4.0</ele><time>2026-05-06T12:41:41Z</time></trkpt><trkpt lat="14.485847502412362" lon="120.99661014961272"><ele>4.0</ele><time>2026-05-06T12:41:42Z</time></trkpt><trkpt lat="14.485854236433426" lon="120.9967527321226"><ele>4.0</ele><time>2026-05-06T12:41:43Z</time></trkpt><trkpt lat="14.485877937776054" lon="120.99689684245494"><ele>4.0</ele><time>2026-05-06T12:41:44Z</time></trkpt><trkpt lat="14.485919797077075" lon="120.99704184971512"><ele>5.0</ele><time>2026-05-06T12:41:45Z</time></trkpt><trkpt lat="14.485977625552612" lon="120.99718538969094"><ele>6.0</ele><time>2026-05-06T12:41:46Z</time></trkpt><trkpt lat="14.48604873747791" lon="120.99732191654267"><ele>7.0</ele><time>2026-05-06T12:41:47Z</time></trkpt><trkpt lat="14.486142994461845" lon="120.99745016754638"><ele>7.0</ele><time>2026-05-06T12:41:48Z</time></trkpt><trkpt lat="14.486247814631733" lon="120.99756985408222"><ele>7.0</ele><time>2026-05-06T12:41:49Z</time></trkpt><trkpt lat="14.486360218298866" lon="120.99768683264364"><ele>7.0</ele><time>2026-05-06T12:41:50Z</time></trkpt><trkpt lat="14.486468699989368" lon="120.99780464227783"><ele>7.333333333333334</ele><time>2026-05-06T12:41:51Z</time></trkpt><trkpt lat="14.486575407478178" lon="120.9979222907555"><ele>7.666666666666666</ele><time>2026-05-06T12:41:52Z</time></trkpt><trkpt lat="14.486681275772826" lon="120.99803799482909"><ele>8.0</ele><time>2026-05-06T12:41:53Z</time></trkpt><trkpt lat="14.486783244566944" lon="120.99815498131008"><ele>8.0</ele><time>2026-05-06T12:41:54Z</time></trkpt><trkpt lat="14.48688774379529" lon="120.99826918911373"><ele>8.0</ele><time>2026-05-06T12:41:55Z</time></trkpt><trkpt lat="14.486990918705741" lon="120.99838439356319"><ele>8.0</ele><time>2026-05-06T12:41:56Z</time></trkpt><trkpt lat="14.487090959624176" lon="120.99849686630408"><ele>7.25</ele><time>2026-05-06T12:41:57Z</time></trkpt><trkpt lat="14.48718673067316" lon="120.99860801672725"><ele>6.5</ele><time>2026-05-06T12:41:58Z</time></trkpt><trkpt lat="14.48728043022097" lon="120.99871891979812"><ele>5.75</ele><time>2026-05-06T12:41:59Z</time></trkpt><trkpt lat="14.48737254039896" lon="120.99882416135742"><ele>5.0</ele><time>2026-05-06T12:42:00Z</time></trkpt><trkpt lat="14.487462706929687" lon="120.99892238155498"><ele>5.0</ele><time>2026-05-06T12:42:01Z</time></trkpt><trkpt lat="14.487546547510428" lon="120.99901586897751"><ele>5.0</ele><time>2026-05-06T12:42:02Z</time></trkpt><trkpt lat="14.487633719433076" lon="120.99911483557541"><ele>5.0</ele><time>2026-05-06T12:42:03Z</time></trkpt><trkpt lat="14.487717664912" lon="120.99920237452525"><ele>5.0</ele><time>2026-05-06T12:42:04Z</time></trkpt><trkpt lat="14.487807547247954" lon="120.99928658196099"><ele>5.75</ele><time>2026-05-06T12:42:05Z</time></trkpt><trkpt lat="14.487902455259986" lon="120.999363477355"><ele>6.5</ele><time>2026-05-06T12:42:06Z</time></trkpt><trkpt lat="14.488005569650344" lon="120.99943775273877"><ele>7.25</ele><time>2026-05-06T12:42:07Z</time></trkpt><trkpt lat="14.488118178230291" lon="120.99950708257477"><ele>8.0</ele><time>2026-05-06T12:42:08Z</time></trkpt><trkpt lat="14.488238579710304" lon="120.99956118442486"><ele>8.0</ele><time>2026-05-06T12:42:09Z</time></trkpt><trkpt lat="14.488365030238334" lon="120.99960916678164"><ele>8.0</ele><time>2026-05-06T12:42:10Z</time></trkpt><trkpt lat="14.488500343393971" lon="120.99964643448736"><ele>8.0</ele><time>2026-05-06T12:42:11Z</time></trkpt><trkpt lat="14.488637183407668" lon="120.99967149041896"><ele>8.0</ele><time>2026-05-06T12:42:12Z</time></trkpt><trkpt lat="14.488776645935484" lon="120.99967994782784"><ele>6.75</ele><time>2026-05-06T12:42:13Z</time></trkpt><trkpt lat="14.488916863949182" lon="120.999675494876"><ele>5.5</ele><time>2026-05-06T12:42:14Z</time></trkpt><trkpt lat="14.48906149985598" lon="120.99965508368629"><ele>4.25</ele><time>2026-05-06T12:42:15Z</time></trkpt><trkpt lat="14.489202433735148" lon="120.99962211332503"><ele>3.0</ele><time>2026-05-06T12:42:16Z</time></trkpt><trkpt lat="14.489331552907533" lon="120.9995765628855"><ele>3.0</ele><time>2026-05-06T12:42:17Z</time></trkpt><trkpt lat="14.489445754108589" lon="120.99952132189124"><ele>3.0</ele><time>2026-05-06T12:42:18Z</time></trkpt><trkpt lat="14.489546202721488" lon="120.99945890872442"><ele>3.0</ele><time>2026-05-06T12:42:19Z</time></trkpt><trkpt lat="14.489632611647462" lon="120.99939770739489"><ele>3.0</ele><time>2026-05-06T12:42:20Z</time></trkpt><trkpt lat="14.489717688689906" lon="120.9993299825578"><ele>3.0</ele><time>2026-05-06T12:42:21Z</time></trkpt><trkpt lat="14.4897992328474" lon="120.99925545177521"><ele>3.0</ele><time>2026-05-06T12:42:22Z</time></trkpt><trkpt lat="14.489887217829267" lon="120.9991913217621"><ele>3.0</ele><time>2026-05-06T12:42:23Z</time></trkpt><trkpt lat="14.489969246152963" lon="120.99911963273904"><ele>3.0</ele><time>2026-05-06T12:42:24Z</time></trkpt><trkpt lat="14.490048949924194" lon="120.99904781279548"><ele>3.0</ele><time>2026-05-06T12:42:25Z</time></trkpt><trkpt lat="14.490123967522866" lon="120.9989764980415"><ele>2.0</ele><time>2026-05-06T12:42:26Z</time></trkpt><trkpt lat="14.490203690502973" lon="120.99890200806536"><ele>1.0</ele><time>2026-05-06T12:42:27Z</time></trkpt><trkpt lat="14.490285259368482" lon="120.9988240134667"><ele>0.0</ele><time>2026-05-06T12:42:28Z</time></trkpt><trkpt lat="14.490369699043287" lon="120.99874361116878"><ele>-1.0</ele><time>2026-05-06T12:42:29Z</time></trkpt><trkpt lat="14.490457793223776" lon="120.99865892178236"><ele>-1.5</ele><time>2026-05-06T12:42:30Z</time></trkpt><trkpt lat="14.490547715714145" lon="120.99857295281214"><ele>-2.0</ele><time>2026-05-06T12:42:31Z</time></trkpt><trkpt lat="14.490642166475894" lon="120.99848293693326"><ele>-2.5</ele><time>2026-05-06T12:42:32Z</time></trkpt><trkpt lat="14.490745272701787" lon="120.99838306470465"><ele>-3.0</ele><time>2026-05-06T12:42:33Z</time></trkpt><trkpt lat="14.49082550531925" lon="120.99830182286034"><ele>-2.0</ele><time>2026-05-06T12:42:34Z</time></trkpt><trkpt lat="14.49090571980903" lon="120.99821709794035"><ele>-1.0</ele><time>2026-05-06T12:42:35Z</time></trkpt><trkpt lat="14.490982065778356" lon="120.99813540458005"><ele>0.0</ele><time>2026-05-06T12:42:36Z</time></trkpt><trkpt lat="14.491047693404589" lon="120.998041629223"><ele>1.0</ele><time>2026-05-06T12:42:37Z</time></trkpt><trkpt lat="14.491109018697765" lon="120.99793205678858"><ele>1.0</ele><time>2026-05-06T12:42:38Z</time></trkpt><trkpt lat="14.491164420578572" lon="120.99782494403411"><ele>1.0</ele><time>2026-05-06T12:42:39Z</time></trkpt><trkpt lat="14.491197793333132" lon="120.99769994168643"><ele>1.0</ele><time>2026-05-06T12:42:40Z</time></trkpt><trkpt lat="14.491258525064854" lon="120.99759361553755"><ele>1.0</ele><time>2026-05-06T12:42:41Z</time></trkpt><trkpt lat="14.491276364682403" lon="120.9974752851941"><ele>0.8</ele><time>2026-05-06T12:42:42Z</time></trkpt><trkpt lat="14.491308992452165" lon="120.99736753927485"><ele>0.6000000000000001</ele><time>2026-05-06T12:42:43Z</time></trkpt><trkpt lat="14.491353780565337" lon="120.99726394950154"><ele>0.4</ele><time>2026-05-06T12:42:44Z</time></trkpt><trkpt lat="14.491386569362085" lon="120.9971541605549"><ele>0.2</ele><time>2026-05-06T12:42:45Z</time></trkpt><trkpt lat="14.491419634942005" lon="120.99704344488148"><ele>0.0</ele><time>2026-05-06T12:42:46Z</time></trkpt><trkpt lat="14.49144906779503" lon="120.99694438914138"><ele>0.0</ele><time>2026-05-06T12:42:47Z</time></trkpt><trkpt lat="14.491476557437867" lon="120.99685093944174"><ele>0.0</ele><time>2026-05-06T12:42:48Z</time></trkpt><trkpt lat="14.491505794463796" lon="120.99676893994551"><ele>0.0</ele><time>2026-05-06T12:42:49Z</time></trkpt><trkpt lat="14.491537345818516" lon="120.99669903412632"><ele>0.0</ele><time>2026-05-06T12:42:50Z</time></trkpt><trkpt lat="14.491572745769243" lon="120.9966306528246"><ele>0.0</ele><time>2026-05-06T12:42:51Z</time></trkpt><trkpt lat="14.491599789618988" lon="120.99655237281287"><ele>0.0</ele><time>2026-05-06T12:42:52Z</time></trkpt><trkpt lat="14.491658460318222" lon="120.99648766432358"><ele>1.0</ele><time>2026-05-06T12:42:53Z</time></trkpt><trkpt lat="14.491737083706498" lon="120.99643314454649"><ele>2.0</ele><time>2026-05-06T12:42:54Z</time></trkpt><trkpt lat="14.491811822098423" lon="120.99637412517123"><ele>3.0</ele><time>2026-05-06T12:42:55Z</time></trkpt><trkpt lat="14.491883588350865" lon="120.99632455451746"><ele>4.0</ele><time>2026-05-06T12:42:56Z</time></trkpt><trkpt lat="14.491945054285678" lon="120.9962839935844"><ele>5.0</ele><time>2026-05-06T12:42:57Z</time></trkpt><trkpt lat="14.492044169306611" lon="120.99622223864087"><ele>6.0</ele><time>2026-05-06T12:42:59Z</time></trkpt><trkpt lat="14.49215931248706" lon="120.99621336922978"><ele>7.0</ele><time>2026-05-06T12:43:01Z</time></trkpt><trkpt lat="14.492279557516783" lon="120.99620843789987"><ele>8.0</ele><time>2026-05-06T12:43:03Z</time></trkpt><trkpt lat="14.492354766515012" lon="120.99621135040006"><ele>9.0</ele><time>2026-05-06T12:43:04Z</time></trkpt><trkpt lat="14.492431065951207" lon="120.99621430512865"><ele>10.0</ele><time>2026-05-06T12:43:05Z</time></trkpt><trkpt lat="14.492505625693125" lon="120.99621719248222"><ele>10.0</ele><time>2026-05-06T12:43:06Z</time></trkpt><trkpt lat="14.492577804513534" lon="120.99621998763715"><ele>10.0</ele><time>2026-05-06T12:43:07Z</time></trkpt><trkpt lat="14.492656367901963" lon="120.99622303003397"><ele>10.0</ele><time>2026-05-06T12:43:08Z</time></trkpt><trkpt lat="14.492743787910177" lon="120.99622586519068"><ele>10.0</ele><time>2026-05-06T12:43:09Z</time></trkpt><trkpt lat="14.492829339630239" lon="120.99622852802995"><ele>10.0</ele><time>2026-05-06T12:43:10Z</time></trkpt><trkpt lat="14.492921517895255" lon="120.99623194960505"><ele>10.0</ele><time>2026-05-06T12:43:11Z</time></trkpt><trkpt lat="14.493013071672356" lon="120.99623535193278"><ele>9.8</ele><time>2026-05-06T12:43:12Z</time></trkpt><trkpt lat="14.493105990625818" lon="120.99623882193565"><ele>9.6</ele><time>2026-05-06T12:43:13Z</time></trkpt><trkpt lat="14.493207945822277" lon="120.99624262939167"><ele>9.4</ele><time>2026-05-06T12:43:14Z</time></trkpt><trkpt lat="14.493312037170158" lon="120.99624647242509"><ele>9.2</ele><time>2026-05-06T12:43:15Z</time></trkpt><trkpt lat="14.493405204758698" lon="120.99624991034123"><ele>9.0</ele><time>2026-05-06T12:43:16Z</time></trkpt><trkpt lat="14.493492890033165" lon="120.99625629813596"><ele>9.0</ele><time>2026-05-06T12:43:17Z</time></trkpt><trkpt lat="14.493585741404727" lon="120.99626438688435"><ele>9.0</ele><time>2026-05-06T12:43:18Z</time></trkpt><trkpt lat="14.493682461077208" lon="120.99627281262875"><ele>9.0</ele><time>2026-05-06T12:43:19Z</time></trkpt><trkpt lat="14.493769519192998" lon="120.99628655981488"><ele>9.0</ele><time>2026-05-06T12:43:20Z</time></trkpt><trkpt lat="14.493860648096733" lon="120.99631365866483"><ele>9.0</ele><time>2026-05-06T12:43:21Z</time></trkpt><trkpt lat="14.493928616317092" lon="120.99634486584785"><ele>9.0</ele><time>2026-05-06T12:43:22Z</time></trkpt><trkpt lat="14.494004178922866" lon="120.99638254492325"><ele>8.8</ele><time>2026-05-06T12:43:23Z</time></trkpt><trkpt lat="14.494090948236426" lon="120.99642397725948"><ele>8.600000000000001</ele><time>2026-05-06T12:43:24Z</time></trkpt><trkpt lat="14.494159269384976" lon="120.99649077100632"><ele>8.4</ele><time>2026-05-06T12:43:25Z</time></trkpt><trkpt lat="14.494215855659014" lon="120.9965694634822"><ele>8.200000000000001</ele><time>2026-05-06T12:43:26Z</time></trkpt><trkpt lat="14.494256999594851" lon="120.99665256193994"><ele>8.0</ele><time>2026-05-06T12:43:27Z</time></trkpt><trkpt lat="14.494290698664015" lon="120.99673650246716"><ele>8.0</ele><time>2026-05-06T12:43:28Z</time></trkpt><trkpt lat="14.494326478352628" lon="120.99682368770756"><ele>8.0</ele><time>2026-05-06T12:43:29Z</time></trkpt><trkpt lat="14.494364748145173" lon="120.9969245411752"><ele>8.0</ele><time>2026-05-06T12:43:30Z</time></trkpt><trkpt lat="14.494401407224608" lon="120.99702991554115"><ele>8.0</ele><time>2026-05-06T12:43:31Z</time></trkpt><trkpt lat="14.49444717348414" lon="120.99713709180247"><ele>8.0</ele><time>2026-05-06T12:43:32Z</time></trkpt><trkpt lat="14.494496846871108" lon="120.99724611611883"><ele>8.0</ele><time>2026-05-06T12:43:33Z</time></trkpt><trkpt lat="14.494541259240352" lon="120.99734869710905"><ele>8.0</ele><time>2026-05-06T12:43:34Z</time></trkpt><trkpt lat="14.494588298293532" lon="120.99745161438094"><ele>8.0</ele><time>2026-05-06T12:43:35Z</time></trkpt><trkpt lat="14.494638651914462" lon="120.99756275436584"><ele>8.0</ele><time>2026-05-06T12:43:36Z</time></trkpt><trkpt lat="14.494691638864538" lon="120.99767952766648"><ele>7.0</ele><time>2026-05-06T12:43:37Z</time></trkpt><trkpt lat="14.494741899837663" lon="120.997785991916"><ele>6.000000000000001</ele><time>2026-05-06T12:43:38Z</time></trkpt><trkpt lat="14.494778320305883" lon="120.99787040395526"><ele>5.0</ele><time>2026-05-06T12:43:39Z</time></trkpt><trkpt lat="14.49481512845417" lon="120.9979457211302"><ele>4.0</ele><time>2026-05-06T12:43:40Z</time></trkpt><trkpt lat="14.4948574460906" lon="120.99802289589769"><ele>3.0</ele><time>2026-05-06T12:43:41Z</time></trkpt><trkpt lat="14.494904948795263" lon="120.99810932350232"><ele>3.0</ele><time>2026-05-06T12:43:42Z</time></trkpt><trkpt lat="14.494959196187839" lon="120.9982091131963"><ele>3.0</ele><time>2026-05-06T12:43:43Z</time></trkpt><trkpt lat="14.495022270859675" lon="120.99832134048073"><ele>3.0</ele><time>2026-05-06T12:43:44Z</time></trkpt><trkpt lat="14.495087040265052" lon="120.99844405138457"><ele>3.0</ele><time>2026-05-06T12:43:45Z</time></trkpt><trkpt lat="14.495151840985574" lon="120.9985729293496"><ele>4.25</ele><time>2026-05-06T12:43:46Z</time></trkpt><trkpt lat="14.49521631814232" lon="120.99869632233266"><ele>5.5</ele><time>2026-05-06T12:43:47Z</time></trkpt><trkpt lat="14.495281020369408" lon="120.99881097042459"><ele>6.75</ele><time>2026-05-06T12:43:48Z</time></trkpt><trkpt lat="14.495343107982173" lon="120.99892171877333"><ele>8.0</ele><time>2026-05-06T12:43:49Z</time></trkpt><trkpt lat="14.495401361086047" lon="120.99903415836316"><ele>7.4</ele><time>2026-05-06T12:43:50Z</time></trkpt><trkpt lat="14.495460199708683" lon="120.99913874372723"><ele>6.800000000000001</ele><time>2026-05-06T12:43:51Z</time></trkpt><trkpt lat="14.495512174707738" lon="120.999233641973"><ele>6.2</ele><time>2026-05-06T12:43:52Z</time></trkpt><trkpt lat="14.495545313311583" lon="120.99932642547942"><ele>5.6</ele><time>2026-05-06T12:43:53Z</time></trkpt><trkpt lat="14.495588751567459" lon="120.99940945989798"><ele>5.0</ele><time>2026-05-06T12:43:54Z</time></trkpt><trkpt lat="14.495629441366107" lon="120.99948701909155"><ele>5.0</ele><time>2026-05-06T12:43:55Z</time></trkpt><trkpt lat="14.495666669140215" lon="120.99955568237131"><ele>5.0</ele><time>2026-05-06T12:43:56Z</time></trkpt><trkpt lat="14.49572113748723" lon="120.9996565885139"><ele>5.0</ele><time>2026-05-06T12:43:58Z</time></trkpt><trkpt lat="14.49576443255156" lon="120.99973563425665"><ele>5.0</ele><time>2026-05-06T12:44:00Z</time></trkpt><trkpt lat="14.495806181539786" lon="120.99980522468435"><ele>5.0</ele><time>2026-05-06T12:44:02Z</time></trkpt><trkpt lat="14.495843377886697" lon="120.99986722639989"><ele>5.0</ele><time>2026-05-06T12:44:04Z</time></trkpt><trkpt lat="14.495878227123848" lon="120.99992531579231"><ele>5.0</ele><time>2026-05-06T12:44:09Z</time></trkpt><trkpt lat="14.495917001729302" lon="120.9999899388972"><ele>5.0</ele><time>2026-05-06T12:44:41Z</time></trkpt><trkpt lat="14.49595212477311" lon="121.00004832934627"><ele>5.0</ele><time>2026-05-06T12:44:43Z</time></trkpt><trkpt lat="14.495988196592402" lon="121.0001082971144"><ele>5.0</ele><time>2026-05-06T12:44:45Z</time></trkpt><trkpt lat="14.496022825574457" lon="121.00016586623603"><ele>5.0</ele><time>2026-05-06T12:44:47Z</time></trkpt><trkpt lat="14.49605802165566" lon="121.00022437779576"><ele>5.0</ele><time>2026-05-06T12:44:53Z</time></trkpt><trkpt lat="14.496252743842819" lon="121.00020470363314"><ele>4.833333333333334</ele><time>2026-05-06T12:45:07Z</time></trkpt><trkpt lat="14.496288035917633" lon="121.00011565132398"><ele>4.666666666666667</ele><time>2026-05-06T12:45:10Z</time></trkpt><trkpt lat="14.49634267337472" lon="121.00005542680456"><ele>4.5</ele><time>2026-05-06T12:45:19Z</time></trkpt><trkpt lat="14.496406417706424" lon="120.99998516422785"><ele>4.333333333333333</ele><time>2026-05-06T12:45:21Z</time></trkpt><trkpt lat="14.496455840264355" lon="120.99993068789044"><ele>4.166666666666666</ele><time>2026-05-06T12:45:22Z</time></trkpt><trkpt lat="14.496510257618173" lon="120.99987070603649"><ele>4.0</ele><time>2026-05-06T12:45:23Z</time></trkpt><trkpt lat="14.496569683975839" lon="120.99980520297154"><ele>3.9999999999999996</ele><time>2026-05-06T12:45:24Z</time></trkpt><trkpt lat="14.496628613421768" lon="120.99974024760729"><ele>4.0</ele><time>2026-05-06T12:45:25Z</time></trkpt><trkpt lat="14.496688625551892" lon="120.99967433108164"><ele>4.0</ele><time>2026-05-06T12:45:26Z</time></trkpt><trkpt lat="14.496744367108972" lon="120.9996133152704"><ele>4.0</ele><time>2026-05-06T12:45:27Z</time></trkpt><trkpt lat="14.496798566855924" lon="120.99953914566332"><ele>3.9999999999999996</ele><time>2026-05-06T12:45:28Z</time></trkpt><trkpt lat="14.496844743711387" lon="120.99946689775793"><ele>4.0</ele><time>2026-05-06T12:45:29Z</time></trkpt><trkpt lat="14.496872674435627" lon="120.99937313476457"><ele>4.0</ele><time>2026-05-06T12:45:30Z</time></trkpt><trkpt lat="14.496870064007298" lon="120.99927568118386"><ele>4.0</ele><time>2026-05-06T12:45:31Z</time></trkpt><trkpt lat="14.496908322949398" lon="120.9991786388334"><ele>4.0</ele><time>2026-05-06T12:45:32Z</time></trkpt><trkpt lat="14.496930455582774" lon="120.99908756527361"><ele>4.0</ele><time>2026-05-06T12:45:33Z</time></trkpt><trkpt lat="14.496953790720177" lon="120.99899154358646"><ele>4.0</ele><time>2026-05-06T12:45:34Z</time></trkpt><trkpt lat="14.496977438214069" lon="120.99889423650798"><ele>4.0</ele><time>2026-05-06T12:45:35Z</time></trkpt><trkpt lat="14.497000588148616" lon="120.99880136960837"><ele>4.0</ele><time>2026-05-06T12:45:36Z</time></trkpt><trkpt lat="14.497029053663054" lon="120.9987176641752"><ele>4.0</ele><time>2026-05-06T12:45:37Z</time></trkpt><trkpt lat="14.497062469969855" lon="120.99862473083142"><ele>4.0</ele><time>2026-05-06T12:45:38Z</time></trkpt><trkpt lat="14.497121197380627" lon="120.99856375165697"><ele>4.0</ele><time>2026-05-06T12:45:39Z</time></trkpt><trkpt lat="14.49717523196607" lon="120.99848283848932"><ele>4.166666666666666</ele><time>2026-05-06T12:45:40Z</time></trkpt><trkpt lat="14.497227688307026" lon="120.99840933744967"><ele>4.333333333333333</ele><time>2026-05-06T12:45:41Z</time></trkpt><trkpt lat="14.497285334151194" lon="120.99833215509753"><ele>4.5</ele><time>2026-05-06T12:45:42Z</time></trkpt><trkpt lat="14.497341416500735" lon="120.99825706611384"><ele>4.666666666666667</ele><time>2026-05-06T12:45:43Z</time></trkpt><trkpt lat="14.497393443895021" lon="120.99818740632672"><ele>4.833333333333334</ele><time>2026-05-06T12:45:44Z</time></trkpt><trkpt lat="14.497449095336275" lon="120.9981392146416"><ele>5.0</ele><time>2026-05-06T12:45:45Z</time></trkpt><trkpt lat="14.49751101316844" lon="120.99809415082339"><ele>5.0</ele><time>2026-05-06T12:45:46Z</time></trkpt><trkpt lat="14.497590739612424" lon="120.99806801977715"><ele>5.0</ele><time>2026-05-06T12:45:47Z</time></trkpt><trkpt lat="14.497672101578353" lon="120.99805801370182"><ele>5.0</ele><time>2026-05-06T12:45:48Z</time></trkpt><trkpt lat="14.497772170664955" lon="120.99803852916612"><ele>5.0</ele><time>2026-05-06T12:45:49Z</time></trkpt><trkpt lat="14.497866664798078" lon="120.99802013013858"><ele>5.0</ele><time>2026-05-06T12:45:50Z</time></trkpt><trkpt lat="14.49795732395691" lon="120.99800238113674"><ele>5.0</ele><time>2026-05-06T12:45:51Z</time></trkpt><trkpt lat="14.498034530345034" lon="120.99798721586242"><ele>5.0</ele><time>2026-05-06T12:45:52Z</time></trkpt><trkpt lat="14.498137142234333" lon="120.99796706030118"><ele>5.0</ele><time>2026-05-06T12:45:54Z</time></trkpt><trkpt lat="14.498210065408935" lon="120.9979527363546"><ele>5.0</ele><time>2026-05-06T12:45:57Z</time></trkpt><trkpt lat="14.4982100838928" lon="120.99786125458904"><ele>5.0</ele><time>2026-05-06T12:54:29Z</time></trkpt></trkseg><trkseg><trkpt lat="14.498237976222727" lon="120.99784056813303"><ele>5.0</ele><time>2026-05-06T13:17:47Z</time></trkpt><trkpt lat="14.49829886065952" lon="120.99788673830085"><ele>5.0</ele><time>2026-05-06T13:18:05Z</time></trkpt><trkpt lat="14.498383512775868" lon="120.99788832816175"><ele>5.0</ele><time>2026-05-06T13:18:07Z</time></trkpt><trkpt lat="14.498446786768097" lon="120.99786813376146"><ele>5.0</ele><time>2026-05-06T13:18:08Z</time></trkpt><trkpt lat="14.498518912192758" lon="120.99785529777694"><ele>5.0</ele><time>2026-05-06T13:18:09Z</time></trkpt><trkpt lat="14.498604141668794" lon="120.99784403658582"><ele>5.0</ele><time>2026-05-06T13:18:10Z</time></trkpt><trkpt lat="14.498692985487857" lon="120.99782769947193"><ele>4.6</ele><time>2026-05-06T13:18:11Z</time></trkpt><trkpt lat="14.498782169528896" lon="120.99780803388613"><ele>4.2</ele><time>2026-05-06T13:18:12Z</time></trkpt><trkpt lat="14.498878187529122" lon="120.99780904701127"><ele>3.8</ele><time>2026-05-06T13:18:13Z</time></trkpt><trkpt lat="14.498974619441764" lon="120.9977874664034"><ele>3.4</ele><time>2026-05-06T13:18:14Z</time></trkpt><trkpt lat="14.499070436520775" lon="120.99776602338152"><ele>3.0</ele><time>2026-05-06T13:18:15Z</time></trkpt><trkpt lat="14.499167427853694" lon="120.99774431757848"><ele>3.0</ele><time>2026-05-06T13:18:16Z</time></trkpt><trkpt lat="14.499267552534175" lon="120.99772196046428"><ele>3.0</ele><time>2026-05-06T13:18:17Z</time></trkpt><trkpt lat="14.499370777710139" lon="120.99769899586813"><ele>3.0</ele><time>2026-05-06T13:18:18Z</time></trkpt><trkpt lat="14.499472938994545" lon="120.99767626653062"><ele>3.0</ele><time>2026-05-06T13:18:19Z</time></trkpt><trkpt lat="14.499576445448323" lon="120.99765323191286"><ele>3.0</ele><time>2026-05-06T13:18:20Z</time></trkpt><trkpt lat="14.49967981990753" lon="120.99763022666666"><ele>3.1666666666666665</ele><time>2026-05-06T13:18:21Z</time></trkpt><trkpt lat="14.499778158099117" lon="120.99760834220082"><ele>3.333333333333333</ele><time>2026-05-06T13:18:22Z</time></trkpt><trkpt lat="14.499868204692802" lon="120.99758830298384"><ele>3.5</ele><time>2026-05-06T13:18:23Z</time></trkpt><trkpt lat="14.49995284193053" lon="120.99756946758151"><ele>3.6666666666666665</ele><time>2026-05-06T13:18:24Z</time></trkpt><trkpt lat="14.500039270838975" lon="120.99754724205201"><ele>3.833333333333333</ele><time>2026-05-06T13:18:25Z</time></trkpt><trkpt lat="14.5001164671903" lon="120.99752259129578"><ele>4.0</ele><time>2026-05-06T13:18:26.001Z</time></trkpt><trkpt lat="14.500191392422753" lon="120.99748460330312"><ele>4.2</ele><time>2026-05-06T13:18:27.001Z</time></trkpt><trkpt lat="14.5002735518241" lon="120.997422036282"><ele>4.4</ele><time>2026-05-06T13:18:29.001Z</time></trkpt><trkpt lat="14.500341582558866" lon="120.99740865860409"><ele>4.6</ele><time>2026-05-06T13:18:32.001Z</time></trkpt><trkpt lat="14.500473579525845" lon="120.99749773920503"><ele>4.8</ele><time>2026-05-06T13:18:36.001Z</time></trkpt><trkpt lat="14.500566892861" lon="120.99756010062013"><ele>5.0</ele><time>2026-05-06T13:18:38.001Z</time></trkpt><trkpt lat="14.500622440796052" lon="120.9976040249602"><ele>5.0</ele><time>2026-05-06T13:18:39.001Z</time></trkpt><trkpt lat="14.500682370468137" lon="120.99765262524365"><ele>5.0</ele><time>2026-05-06T13:18:40.001Z</time></trkpt><trkpt lat="14.500748131724391" lon="120.99769937837763"><ele>5.0</ele><time>2026-05-06T13:18:41.001Z</time></trkpt><trkpt lat="14.500811966151014" lon="120.99774359087051"><ele>5.0</ele><time>2026-05-06T13:18:42.001Z</time></trkpt><trkpt lat="14.500873169402302" lon="120.99778912429856"><ele>5.0</ele><time>2026-05-06T13:18:43.001Z</time></trkpt><trkpt lat="14.500940459957262" lon="120.99783295485946"><ele>5.0</ele><time>2026-05-06T13:18:44.001Z</time></trkpt><trkpt lat="14.501012696681567" lon="120.99788179730129"><ele>5.0</ele><time>2026-05-06T13:18:45.001Z</time></trkpt><trkpt lat="14.50108988150511" lon="120.99793667784473"><ele>5.0</ele><time>2026-05-06T13:18:46.001Z</time></trkpt><trkpt lat="14.501172520756459" lon="120.99798282545548"><ele>5.0</ele><time>2026-05-06T13:18:47.001Z</time></trkpt><trkpt lat="14.501239794633502" lon="120.99802083826782"><ele>5.0</ele><time>2026-05-06T13:18:48.001Z</time></trkpt><trkpt lat="14.5013084962678" lon="120.99806307599152"><ele>5.0</ele><time>2026-05-06T13:18:49.001Z</time></trkpt><trkpt lat="14.501369716927872" lon="120.99809953207321"><ele>5.0</ele><time>2026-05-06T13:18:50.001Z</time></trkpt><trkpt lat="14.501472070188987" lon="120.99816265654508"><ele>5.166666666666667</ele><time>2026-05-06T13:18:52.001Z</time></trkpt><trkpt lat="14.501530042989685" lon="120.99819732542234"><ele>5.333333333333334</ele><time>2026-05-06T13:18:53.001Z</time></trkpt><trkpt lat="14.501633349775437" lon="120.998253924093"><ele>5.5</ele><time>2026-05-06T13:18:55.001Z</time></trkpt><trkpt lat="14.50169136656133" lon="120.99828626058336"><ele>5.666666666666667</ele><time>2026-05-06T13:18:56.001Z</time></trkpt><trkpt lat="14.501752474275648" lon="120.99832563455513"><ele>5.833333333333333</ele><time>2026-05-06T13:18:57.001Z</time></trkpt><trkpt lat="14.501817869942302" lon="120.99836787273523"><ele>6.0</ele><time>2026-05-06T13:18:58.001Z</time></trkpt><trkpt lat="14.501888431396603" lon="120.99841041897267"><ele>6.5</ele><time>2026-05-06T13:18:59.001Z</time></trkpt><trkpt lat="14.50195454215186" lon="120.9984562774399"><ele>7.0</ele><time>2026-05-06T13:19:00.001Z</time></trkpt><trkpt lat="14.502022999318118" lon="120.9984998237274"><ele>7.5</ele><time>2026-05-06T13:19:01.001Z</time></trkpt><trkpt lat="14.50209163602975" lon="120.99854531730954"><ele>8.0</ele><time>2026-05-06T13:19:02.001Z</time></trkpt><trkpt lat="14.502155559388198" lon="120.99858562196641"><ele>8.5</ele><time>2026-05-06T13:19:03.001Z</time></trkpt><trkpt lat="14.50222049684615" lon="120.99862679115742"><ele>9.0</ele><time>2026-05-06T13:19:04.001Z</time></trkpt><trkpt lat="14.502293192553916" lon="120.9986745086483"><ele>9.0</ele><time>2026-05-06T13:19:05.001Z</time></trkpt><trkpt lat="14.502382130828998" lon="120.99872224613195"><ele>9.0</ele><time>2026-05-06T13:19:06.001Z</time></trkpt><trkpt lat="14.50248689646443" lon="120.99878748722978"><ele>9.0</ele><time>2026-05-06T13:19:07.001Z</time></trkpt><trkpt lat="14.502575541193508" lon="120.99882841675127"><ele>9.0</ele><time>2026-05-06T13:19:08.001Z</time></trkpt><trkpt lat="14.502693774138875" lon="120.99891238355463"><ele>9.0</ele><time>2026-05-06T13:19:09.001Z</time></trkpt><trkpt lat="14.502809289544258" lon="120.9989763699067"><ele>9.0</ele><time>2026-05-06T13:19:10.001Z</time></trkpt><trkpt lat="14.502938832580853" lon="120.99902996740622"><ele>9.0</ele><time>2026-05-06T13:19:11.001Z</time></trkpt><trkpt lat="14.503023629479602" lon="120.99910757831466"><ele>9.0</ele><time>2026-05-06T13:19:12.001Z</time></trkpt><trkpt lat="14.503138243062049" lon="120.99916947226944"><ele>9.0</ele><time>2026-05-06T13:19:13.001Z</time></trkpt><trkpt lat="14.503247292825353" lon="120.99923406592555"><ele>9.0</ele><time>2026-05-06T13:19:14.001Z</time></trkpt><trkpt lat="14.503355523292091" lon="120.99930490634763"><ele>9.0</ele><time>2026-05-06T13:19:15.001Z</time></trkpt><trkpt lat="14.503460839279603" lon="120.99937632738276"><ele>9.0</ele><time>2026-05-06T13:19:16.001Z</time></trkpt><trkpt lat="14.503570919828903" lon="120.99944842437242"><ele>9.0</ele><time>2026-05-06T13:19:17.001Z</time></trkpt><trkpt lat="14.503686296624865" lon="120.99951595867314"><ele>9.0</ele><time>2026-05-06T13:19:18.001Z</time></trkpt><trkpt lat="14.503791465267525" lon="120.99958567297973"><ele>9.0</ele><time>2026-05-06T13:19:19.001Z</time></trkpt><trkpt lat="14.503903164563958" lon="120.99965540064117"><ele>9.0</ele><time>2026-05-06T13:19:20.001Z</time></trkpt><trkpt lat="14.504010473668272" lon="120.99972643811718"><ele>9.25</ele><time>2026-05-06T13:19:21.001Z</time></trkpt><trkpt lat="14.504119650908327" lon="120.99980091930748"><ele>9.5</ele><time>2026-05-06T13:19:22.001Z</time></trkpt><trkpt lat="14.504230093037293" lon="120.99987750396866"><ele>9.75</ele><time>2026-05-06T13:19:23.002Z</time></trkpt><trkpt lat="14.504332297988206" lon="120.99995556800124"><ele>10.0</ele><time>2026-05-06T13:19:24.002Z</time></trkpt><trkpt lat="14.504442973763664" lon="121.00003493833132"><ele>10.0</ele><time>2026-05-06T13:19:25.002Z</time></trkpt><trkpt lat="14.504554529975515" lon="121.00011095236788"><ele>10.0</ele><time>2026-05-06T13:19:26.002Z</time></trkpt><trkpt lat="14.504670529924242" lon="121.00018466265465"><ele>10.0</ele><time>2026-05-06T13:19:27.002Z</time></trkpt><trkpt lat="14.50479101041859" lon="121.00025999622663"><ele>10.0</ele><time>2026-05-06T13:19:28Z</time></trkpt><trkpt lat="14.504909963795944" lon="121.00033279675668"><ele>9.25</ele><time>2026-05-06T13:19:29Z</time></trkpt><trkpt lat="14.50502789966384" lon="121.00040641079775"><ele>8.5</ele><time>2026-05-06T13:19:30Z</time></trkpt><trkpt lat="14.50514314881867" lon="121.0004804724527"><ele>7.75</ele><time>2026-05-06T13:19:31Z</time></trkpt><trkpt lat="14.505253081023866" lon="121.00054790835983"><ele>7.0</ele><time>2026-05-06T13:19:32Z</time></trkpt><trkpt lat="14.505370974706338" lon="121.00061486428788"><ele>7.75</ele><time>2026-05-06T13:19:33Z</time></trkpt><trkpt lat="14.505492505724268" lon="121.00067587301002"><ele>8.5</ele><time>2026-05-06T13:19:34Z</time></trkpt><trkpt lat="14.505619034769753" lon="121.0007301336398"><ele>9.25</ele><time>2026-05-06T13:19:35Z</time></trkpt><trkpt lat="14.505746954617079" lon="121.00078510080046"><ele>10.0</ele><time>2026-05-06T13:19:36Z</time></trkpt><trkpt lat="14.505875179900073" lon="121.00084194434925"><ele>10.0</ele><time>2026-05-06T13:19:37Z</time></trkpt><trkpt lat="14.505999437412298" lon="121.00089701832123"><ele>10.0</ele><time>2026-05-06T13:19:38Z</time></trkpt><trkpt lat="14.506121549425245" lon="121.00095090581273"><ele>10.0</ele><time>2026-05-06T13:19:39Z</time></trkpt><trkpt lat="14.506241688534413" lon="121.00099871459747"><ele>10.0</ele><time>2026-05-06T13:19:40Z</time></trkpt><trkpt lat="14.506342943014008" lon="121.00103569450272"><ele>10.0</ele><time>2026-05-06T13:19:41Z</time></trkpt><trkpt lat="14.506440899040536" lon="121.00107124101304"><ele>10.0</ele><time>2026-05-06T13:19:42Z</time></trkpt><trkpt lat="14.506507774667973" lon="121.00109435477383"><ele>10.0</ele><time>2026-05-06T13:19:43Z</time></trkpt><trkpt lat="14.50659868381565" lon="121.00112397607754"><ele>10.0</ele><time>2026-05-06T13:19:45Z</time></trkpt><trkpt lat="14.506662576279622" lon="121.0011467164771"><ele>10.0</ele><time>2026-05-06T13:19:48Z</time></trkpt><trkpt lat="14.506759573139606" lon="121.00118457886579"><ele>10.0</ele><time>2026-05-06T13:19:51Z</time></trkpt><trkpt lat="14.506874905106823" lon="121.00123376266289"><ele>10.0</ele><time>2026-05-06T13:19:53Z</time></trkpt><trkpt lat="14.506945763497791" lon="121.00126685721258"><ele>10.0</ele><time>2026-05-06T13:19:54Z</time></trkpt><trkpt lat="14.507027007480003" lon="121.00130147680447"><ele>10.0</ele><time>2026-05-06T13:19:55Z</time></trkpt><trkpt lat="14.507107723367964" lon="121.00132978375558"><ele>10.0</ele><time>2026-05-06T13:19:56Z</time></trkpt><trkpt lat="14.50717709183717" lon="121.00135563371398"><ele>10.0</ele><time>2026-05-06T13:19:57Z</time></trkpt><trkpt lat="14.507252440179904" lon="121.00138449188408"><ele>10.0</ele><time>2026-05-06T13:19:58Z</time></trkpt><trkpt lat="14.507312877736984" lon="121.00140923297607"><ele>9.666666666666668</ele><time>2026-05-06T13:19:59Z</time></trkpt><trkpt lat="14.5073883533239" lon="121.00143532769984"><ele>9.333333333333334</ele><time>2026-05-06T13:20:00Z</time></trkpt><trkpt lat="14.507458918624584" lon="121.00146164301621"><ele>9.0</ele><time>2026-05-06T13:20:01Z</time></trkpt><trkpt lat="14.50753719417149" lon="121.00148948034324"><ele>8.666666666666666</ele><time>2026-05-06T13:20:02Z</time></trkpt><trkpt lat="14.507615199276666" lon="121.00153279369158"><ele>8.333333333333332</ele><time>2026-05-06T13:20:03Z</time></trkpt><trkpt lat="14.507693890310069" lon="121.00157498549459"><ele>8.0</ele><time>2026-05-06T13:20:04Z</time></trkpt><trkpt lat="14.507778875470086" lon="121.00162588245968"><ele>8.0</ele><time>2026-05-06T13:20:05Z</time></trkpt><trkpt lat="14.5078621145235" lon="121.00167748992666"><ele>8.0</ele><time>2026-05-06T13:20:06Z</time></trkpt><trkpt lat="14.507948064992577" lon="121.00172704049328"><ele>8.0</ele><time>2026-05-06T13:20:07Z</time></trkpt><trkpt lat="14.508038517973295" lon="121.00177462204512"><ele>8.0</ele><time>2026-05-06T13:20:08Z</time></trkpt><trkpt lat="14.508128520764371" lon="121.00181591534329"><ele>8.0</ele><time>2026-05-06T13:20:09Z</time></trkpt><trkpt lat="14.508216504732198" lon="121.00185013018651"><ele>8.200000000000001</ele><time>2026-05-06T13:20:10Z</time></trkpt><trkpt lat="14.50830205442887" lon="121.00188729850947"><ele>8.4</ele><time>2026-05-06T13:20:11Z</time></trkpt><trkpt lat="14.508405552728622" lon="121.00192210498886"><ele>8.600000000000001</ele><time>2026-05-06T13:20:12.001Z</time></trkpt><trkpt lat="14.508512779843212" lon="121.00195903568897"><ele>8.8</ele><time>2026-05-06T13:20:13.001Z</time></trkpt><trkpt lat="14.508630238983892" lon="121.00199236944025"><ele>9.0</ele><time>2026-05-06T13:20:14.001Z</time></trkpt><trkpt lat="14.508749121055288" lon="121.00202619259235"><ele>8.5</ele><time>2026-05-06T13:20:15.001Z</time></trkpt><trkpt lat="14.50887582453409" lon="121.00204801334462"><ele>8.0</ele><time>2026-05-06T13:20:16.001Z</time></trkpt><trkpt lat="14.509003451043364" lon="121.00206747640094"><ele>7.5</ele><time>2026-05-06T13:20:17.001Z</time></trkpt><trkpt lat="14.509137907867927" lon="121.00208881027388"><ele>7.0</ele><time>2026-05-06T13:20:18.001Z</time></trkpt><trkpt lat="14.509271106006837" lon="121.00212283404925"><ele>7.0</ele><time>2026-05-06T13:20:19.001Z</time></trkpt><trkpt lat="14.509402989537797" lon="121.00216795511088"><ele>7.0</ele><time>2026-05-06T13:20:20.001Z</time></trkpt><trkpt lat="14.5095344246563" lon="121.00222045610482"><ele>7.0</ele><time>2026-05-06T13:20:21.001Z</time></trkpt><trkpt lat="14.509671907304078" lon="121.0022683306143"><ele>7.0</ele><time>2026-05-06T13:20:22.001Z</time></trkpt><trkpt lat="14.509810408895644" lon="121.0023138924119"><ele>6.5</ele><time>2026-05-06T13:20:23.001Z</time></trkpt><trkpt lat="14.509937089198887" lon="121.00235100261723"><ele>6.0</ele><time>2026-05-06T13:20:24.001Z</time></trkpt><trkpt lat="14.51007714257968" lon="121.00239547730698"><ele>5.5</ele><time>2026-05-06T13:20:25.001Z</time></trkpt><trkpt lat="14.510214274119138" lon="121.00243373121953"><ele>5.0</ele><time>2026-05-06T13:20:26.001Z</time></trkpt><trkpt lat="14.510349448686311" lon="121.0024752141347"><ele>5.25</ele><time>2026-05-06T13:20:27.001Z</time></trkpt><trkpt lat="14.510477482658725" lon="121.00252188726077"><ele>5.5</ele><time>2026-05-06T13:20:28.001Z</time></trkpt><trkpt lat="14.510603172761888" lon="121.00256748826247"><ele>5.75</ele><time>2026-05-06T13:20:29.001Z</time></trkpt><trkpt lat="14.510720613178592" lon="121.00261154627685"><ele>6.0</ele><time>2026-05-06T13:20:30.001Z</time></trkpt><trkpt lat="14.510842097086298" lon="121.002657704678"><ele>6.0</ele><time>2026-05-06T13:20:31.001Z</time></trkpt><trkpt lat="14.510957001894726" lon="121.00269844547731"><ele>6.0</ele><time>2026-05-06T13:20:32.001Z</time></trkpt><trkpt lat="14.511062956954028" lon="121.00273836552267"><ele>6.0</ele><time>2026-05-06T13:20:33.001Z</time></trkpt><trkpt lat="14.511167963695826" lon="121.00276995998124"><ele>6.0</ele><time>2026-05-06T13:20:34.001Z</time></trkpt><trkpt lat="14.511268651055738" lon="121.00280532221777"><ele>6.0</ele><time>2026-05-06T13:20:35.001Z</time></trkpt><trkpt lat="14.511362885490781" lon="121.00284197813977"><ele>6.0</ele><time>2026-05-06T13:20:36.001Z</time></trkpt><trkpt lat="14.511458701496549" lon="121.00287618248532"><ele>6.0</ele><time>2026-05-06T13:20:37.001Z</time></trkpt><trkpt lat="14.51155952520787" lon="121.002912653215"><ele>6.0</ele><time>2026-05-06T13:20:38.001Z</time></trkpt><trkpt lat="14.511657988076971" lon="121.00294832466543"><ele>6.0</ele><time>2026-05-06T13:20:39.001Z</time></trkpt><trkpt lat="14.511755515378203" lon="121.00298062543692"><ele>6.0</ele><time>2026-05-06T13:20:40.001Z</time></trkpt><trkpt lat="14.511843107141376" lon="121.00301801527186"><ele>6.0</ele><time>2026-05-06T13:20:41.001Z</time></trkpt><trkpt lat="14.511933568435454" lon="121.00305895317574"><ele>6.0</ele><time>2026-05-06T13:20:42.001Z</time></trkpt><trkpt lat="14.512020480678366" lon="121.00309352417352"><ele>6.0</ele><time>2026-05-06T13:20:43.001Z</time></trkpt><trkpt lat="14.512120671238947" lon="121.0031348418058"><ele>6.0</ele><time>2026-05-06T13:20:44.001Z</time></trkpt><trkpt lat="14.51221930191471" lon="121.0031754274272"><ele>6.199999999999999</ele><time>2026-05-06T13:20:45.001Z</time></trkpt><trkpt lat="14.512322014196625" lon="121.00321745174845"><ele>6.3999999999999995</ele><time>2026-05-06T13:20:46.001Z</time></trkpt><trkpt lat="14.512418085775913" lon="121.00324947886185"><ele>6.6</ele><time>2026-05-06T13:20:47.001Z</time></trkpt><trkpt lat="14.512507575594615" lon="121.00327772322932"><ele>6.8</ele><time>2026-05-06T13:20:48.001Z</time></trkpt><trkpt lat="14.512581148840246" lon="121.00330760105852"><ele>7.0</ele><time>2026-05-06T13:20:49.001Z</time></trkpt><trkpt lat="14.512662404637846" lon="121.00333395697372"><ele>7.0</ele><time>2026-05-06T13:20:50.001Z</time></trkpt><trkpt lat="14.512740629100595" lon="121.00335494640876"><ele>6.999999999999999</ele><time>2026-05-06T13:20:51.001Z</time></trkpt><trkpt lat="14.51283400857636" lon="121.00338666674989"><ele>6.999999999999999</ele><time>2026-05-06T13:20:52.001Z</time></trkpt><trkpt lat="14.51292232479275" lon="121.00341091431518"><ele>7.0</ele><time>2026-05-06T13:20:53.001Z</time></trkpt><trkpt lat="14.51300966794029" lon="121.00345633779799"><ele>7.0</ele><time>2026-05-06T13:20:54.001Z</time></trkpt><trkpt lat="14.513111669328667" lon="121.00349235748186"><ele>7.25</ele><time>2026-05-06T13:20:55.001Z</time></trkpt><trkpt lat="14.513221514134662" lon="121.00353119618404"><ele>7.5</ele><time>2026-05-06T13:20:56.001Z</time></trkpt><trkpt lat="14.513339326878901" lon="121.00357285217044"><ele>7.75</ele><time>2026-05-06T13:20:57.001Z</time></trkpt><trkpt lat="14.513459763642961" lon="121.0036154359487"><ele>8.0</ele><time>2026-05-06T13:20:58.001Z</time></trkpt><trkpt lat="14.513568284821188" lon="121.0036538066424"><ele>8.0</ele><time>2026-05-06T13:20:59.001Z</time></trkpt><trkpt lat="14.513673652814646" lon="121.00369106243811"><ele>8.0</ele><time>2026-05-06T13:21:00.001Z</time></trkpt><trkpt lat="14.513775540169274" lon="121.00371133423589"><ele>8.0</ele><time>2026-05-06T13:21:01.001Z</time></trkpt><trkpt lat="14.513866073129538" lon="121.0037491367586"><ele>8.0</ele><time>2026-05-06T13:21:02.001Z</time></trkpt><trkpt lat="14.513947958344945" lon="121.00378334834852"><ele>8.0</ele><time>2026-05-06T13:21:03.001Z</time></trkpt><trkpt lat="14.514034259410405" lon="121.00381481936093"><ele>8.8</ele><time>2026-05-06T13:21:04.001Z</time></trkpt><trkpt lat="14.514122909327096" lon="121.00384810894873"><ele>9.600000000000001</ele><time>2026-05-06T13:21:05.001Z</time></trkpt><trkpt lat="14.514204621592096" lon="121.00387708748364"><ele>10.399999999999999</ele><time>2026-05-06T13:21:06.001Z</time></trkpt><trkpt lat="14.514274795252335" lon="121.00390998912589"><ele>11.2</ele><time>2026-05-06T13:21:07.001Z</time></trkpt><trkpt lat="14.514345652488169" lon="121.00392941727124"><ele>12.0</ele><time>2026-05-06T13:21:08.001Z</time></trkpt><trkpt lat="14.514459583610394" lon="121.0039662847707"><ele>12.0</ele><time>2026-05-06T13:21:10.001Z</time></trkpt><trkpt lat="14.514541522135096" lon="121.00399767031534"><ele>12.0</ele><time>2026-05-06T13:21:12.002Z</time></trkpt><trkpt lat="14.514616287387684" lon="121.00401702014842"><ele>12.0</ele><time>2026-05-06T13:21:21.002Z</time></trkpt><trkpt lat="14.514675639135161" lon="121.00404126896476"><ele>12.0</ele><time>2026-05-06T13:21:23.002Z</time></trkpt><trkpt lat="14.514736789716219" lon="121.00406295578748"><ele>12.0</ele><time>2026-05-06T13:21:25.002Z</time></trkpt><trkpt lat="14.514827168156884" lon="121.00409426339124"><ele>12.0</ele><time>2026-05-06T13:21:28.002Z</time></trkpt><trkpt lat="14.514891374708414" lon="121.00412595434643"><ele>11.5</ele><time>2026-05-06T13:21:30.002Z</time></trkpt><trkpt lat="14.514954147196372" lon="121.00414911658228"><ele>11.0</ele><time>2026-05-06T13:21:32.002Z</time></trkpt><trkpt lat="14.515019373700815" lon="121.00417219376045"><ele>10.5</ele><time>2026-05-06T13:21:34Z</time></trkpt><trkpt lat="14.515091646296657" lon="121.00419358649499"><ele>10.0</ele><time>2026-05-06T13:21:37Z</time></trkpt><trkpt lat="14.515149933758607" lon="121.00423440990443"><ele>9.5</ele><time>2026-05-06T13:21:39Z</time></trkpt><trkpt lat="14.515226265589732" lon="121.00426266075756"><ele>9.0</ele><time>2026-05-06T13:21:42Z</time></trkpt><trkpt lat="14.515311911267398" lon="121.00429809689884"><ele>8.8</ele><time>2026-05-06T13:21:45Z</time></trkpt><trkpt lat="14.51541801449254" lon="121.0041618421726"><ele>8.600000000000001</ele><time>2026-05-06T13:21:47Z</time></trkpt><trkpt lat="14.515460379670904" lon="121.00410570322894"><ele>8.4</ele><time>2026-05-06T13:21:48Z</time></trkpt><trkpt lat="14.515491894222219" lon="121.0040354418255"><ele>8.200000000000001</ele><time>2026-05-06T13:21:49Z</time></trkpt><trkpt lat="14.515526647594893" lon="121.00395357288262"><ele>8.0</ele><time>2026-05-06T13:21:50Z</time></trkpt><trkpt lat="14.515569940859201" lon="121.003868008284"><ele>7.999999999999999</ele><time>2026-05-06T13:21:51Z</time></trkpt><trkpt lat="14.51560842314301" lon="121.00377764275372"><ele>8.0</ele><time>2026-05-06T13:21:52Z</time></trkpt><trkpt lat="14.515639524434055" lon="121.00368668163956"><ele>8.0</ele><time>2026-05-06T13:21:53Z</time></trkpt><trkpt lat="14.515666878395134" lon="121.00360414220073"><ele>8.0</ele><time>2026-05-06T13:21:54Z</time></trkpt><trkpt lat="14.51571494692388" lon="121.00353427964794"><ele>7.999999999999999</ele><time>2026-05-06T13:21:55Z</time></trkpt><trkpt lat="14.515738554980643" lon="121.00345254607966"><ele>8.0</ele><time>2026-05-06T13:21:56Z</time></trkpt><trkpt lat="14.51578636311717" lon="121.00337763738028"><ele>7.666666666666666</ele><time>2026-05-06T13:21:57Z</time></trkpt><trkpt lat="14.515832559618419" lon="121.00329433531904"><ele>7.333333333333333</ele><time>2026-05-06T13:21:58Z</time></trkpt><trkpt lat="14.515874983912433" lon="121.00320994359338"><ele>7.0</ele><time>2026-05-06T13:21:59Z</time></trkpt><trkpt lat="14.515915857812937" lon="121.00312599952281"><ele>6.666666666666666</ele><time>2026-05-06T13:22:00Z</time></trkpt><trkpt lat="14.515954456378504" lon="121.00304744446109"><ele>6.333333333333333</ele><time>2026-05-06T13:22:01Z</time></trkpt><trkpt lat="14.51599449312312" lon="121.00296991477336"><ele>6.0</ele><time>2026-05-06T13:22:02Z</time></trkpt><trkpt lat="14.516034123330783" lon="121.00289520495978"><ele>6.0</ele><time>2026-05-06T13:22:03Z</time></trkpt><trkpt lat="14.51606411774764" lon="121.00282303646559"><ele>6.0</ele><time>2026-05-06T13:22:04Z</time></trkpt><trkpt lat="14.516111989008424" lon="121.00274846698682"><ele>6.0</ele><time>2026-05-06T13:22:05Z</time></trkpt><trkpt lat="14.516152841362029" lon="121.00266762326456"><ele>6.0</ele><time>2026-05-06T13:22:06Z</time></trkpt><trkpt lat="14.516168092388702" lon="121.0025644470911"><ele>6.0</ele><time>2026-05-06T13:22:07Z</time></trkpt><trkpt lat="14.516209790664282" lon="121.00247169077953"><ele>6.199999999999999</ele><time>2026-05-06T13:22:08Z</time></trkpt><trkpt lat="14.516255061195679" lon="121.0023727546711"><ele>6.3999999999999995</ele><time>2026-05-06T13:22:09.001Z</time></trkpt><trkpt lat="14.516297694251525" lon="121.00227345468592"><ele>6.6</ele><time>2026-05-06T13:22:10.001Z</time></trkpt><trkpt lat="14.516339629324195" lon="121.00218382154614"><ele>6.8</ele><time>2026-05-06T13:22:11.001Z</time></trkpt><trkpt lat="14.51638152547301" lon="121.00209592791867"><ele>7.0</ele><time>2026-05-06T13:22:12.001Z</time></trkpt><trkpt lat="14.516435666091214" lon="121.00203876976649"><ele>7.000000000000001</ele><time>2026-05-06T13:22:13.001Z</time></trkpt><trkpt lat="14.516470183597553" lon="121.0019685985435"><ele>7.0</ele><time>2026-05-06T13:22:14.001Z</time></trkpt><trkpt lat="14.5165015687098" lon="121.00190238889031"><ele>7.0</ele><time>2026-05-06T13:22:15.001Z</time></trkpt><trkpt lat="14.516538924727003" lon="121.00183907059392"><ele>7.0</ele><time>2026-05-06T13:22:16.001Z</time></trkpt><trkpt lat="14.516600547580747" lon="121.00172434988858"><ele>7.000000000000001</ele><time>2026-05-06T13:22:18.001Z</time></trkpt><trkpt lat="14.516633770327587" lon="121.00165607971714"><ele>7.0</ele><time>2026-05-06T13:22:19.001Z</time></trkpt><trkpt lat="14.516667078033546" lon="121.00158471013263"><ele>6.833333333333334</ele><time>2026-05-06T13:22:20.001Z</time></trkpt><trkpt lat="14.516701193042731" lon="121.00151175916504"><ele>6.666666666666667</ele><time>2026-05-06T13:22:21.001Z</time></trkpt><trkpt lat="14.51673356919071" lon="121.0014393247864"><ele>6.5</ele><time>2026-05-06T13:22:22.001Z</time></trkpt><trkpt lat="14.516762078372517" lon="121.00136729079767"><ele>6.333333333333334</ele><time>2026-05-06T13:22:23.001Z</time></trkpt><trkpt lat="14.516793623260376" lon="121.0012916823178"><ele>6.166666666666667</ele><time>2026-05-06T13:22:24.001Z</time></trkpt><trkpt lat="14.51681407058717" lon="121.00120942198399"><ele>6.0</ele><time>2026-05-06T13:22:25.001Z</time></trkpt><trkpt lat="14.516839317871849" lon="121.00113361177665"><ele>6.0</ele><time>2026-05-06T13:22:26.001Z</time></trkpt><trkpt lat="14.516854427058258" lon="121.00106541778834"><ele>6.0</ele><time>2026-05-06T13:22:27.001Z</time></trkpt><trkpt lat="14.516883431345809" lon="121.00098720265392"><ele>6.0</ele><time>2026-05-06T13:22:28.001Z</time></trkpt><trkpt lat="14.516905260077497" lon="121.0009112630368"><ele>6.0</ele><time>2026-05-06T13:22:29.001Z</time></trkpt><trkpt lat="14.516926386783888" lon="121.00083090118952"><ele>6.0</ele><time>2026-05-06T13:22:30.001Z</time></trkpt><trkpt lat="14.516941056390536" lon="121.00074928612587"><ele>6.0</ele><time>2026-05-06T13:22:31.001Z</time></trkpt><trkpt lat="14.516961118497605" lon="121.00066361108186"><ele>5.833333333333333</ele><time>2026-05-06T13:22:32.001Z</time></trkpt><trkpt lat="14.516968280149072" lon="121.00057571408355"><ele>5.666666666666667</ele><time>2026-05-06T13:22:33.001Z</time></trkpt><trkpt lat="14.51698475749535" lon="121.00048761243023"><ele>5.5</ele><time>2026-05-06T13:22:34.001Z</time></trkpt><trkpt lat="14.516984590421204" lon="121.00040279091539"><ele>5.333333333333334</ele><time>2026-05-06T13:22:35.001Z</time></trkpt><trkpt lat="14.516987937295642" lon="121.00031432491495"><ele>5.166666666666667</ele><time>2026-05-06T13:22:36.001Z</time></trkpt><trkpt lat="14.516990887905827" lon="121.00022720655315"><ele>5.0</ele><time>2026-05-06T13:22:37.001Z</time></trkpt><trkpt lat="14.517011417755155" lon="121.0001414601709"><ele>5.0</ele><time>2026-05-06T13:22:38.001Z</time></trkpt><trkpt lat="14.517020052036738" lon="121.00005511726066"><ele>5.0</ele><time>2026-05-06T13:22:39.001Z</time></trkpt><trkpt lat="14.51702342034363" lon="120.99997980405091"><ele>5.0</ele><time>2026-05-06T13:22:40.001Z</time></trkpt><trkpt lat="14.517007242905317" lon="120.99990497902196"><ele>5.0</ele><time>2026-05-06T13:22:41.001Z</time></trkpt><trkpt lat="14.516998507098675" lon="120.99983861240344"><ele>5.0</ele><time>2026-05-06T13:22:42.001Z</time></trkpt><trkpt lat="14.517004128264224" lon="120.99976448612452"><ele>5.0</ele><time>2026-05-06T13:22:43.001Z</time></trkpt><trkpt lat="14.517008703696035" lon="120.99969940258514"><ele>5.0</ele><time>2026-05-06T13:22:44.001Z</time></trkpt><trkpt lat="14.517005149783868" lon="120.99957535252818"><ele>5.0</ele><time>2026-05-06T13:22:46.001Z</time></trkpt><trkpt lat="14.517002680442602" lon="120.99950577942813"><ele>5.0</ele><time>2026-05-06T13:22:47.001Z</time></trkpt><trkpt lat="14.51701176128333" lon="120.99939203741515"><ele>5.0</ele><time>2026-05-06T13:22:49.001Z</time></trkpt><trkpt lat="14.517020079882759" lon="120.9993206836106"><ele>5.0</ele><time>2026-05-06T13:22:50.001Z</time></trkpt><trkpt lat="14.517024864668551" lon="120.9992393938133"><ele>5.0</ele><time>2026-05-06T13:22:51.001Z</time></trkpt><trkpt lat="14.517029253497512" lon="120.9991387040786"><ele>5.0</ele><time>2026-05-06T13:22:52.001Z</time></trkpt><trkpt lat="14.517036537415018" lon="120.99902564958839"><ele>5.2</ele><time>2026-05-06T13:22:53.001Z</time></trkpt><trkpt lat="14.517026659860342" lon="120.99891421249173"><ele>5.4</ele><time>2026-05-06T13:22:54.001Z</time></trkpt><trkpt lat="14.517029444530007" lon="120.99880449385358"><ele>5.6</ele><time>2026-05-06T13:22:55.001Z</time></trkpt><trkpt lat="14.517040363915028" lon="120.9986791136829"><ele>5.8</ele><time>2026-05-06T13:22:56.001Z</time></trkpt><trkpt lat="14.517040186781824" lon="120.99856339391953"><ele>6.0</ele><time>2026-05-06T13:22:57.001Z</time></trkpt><trkpt lat="14.517044561833169" lon="120.99843686025662"><ele>5.75</ele><time>2026-05-06T13:22:58.001Z</time></trkpt><trkpt lat="14.51704686661078" lon="120.99831613337237"><ele>5.5</ele><time>2026-05-06T13:22:59.001Z</time></trkpt><trkpt lat="14.517047001122227" lon="120.99819388408396"><ele>5.25</ele><time>2026-05-06T13:23:00.001Z</time></trkpt><trkpt lat="14.517048592497247" lon="120.99807123241426"><ele>5.0</ele><time>2026-05-06T13:23:01.001Z</time></trkpt><trkpt lat="14.517049432624516" lon="120.99794709656132"><ele>5.0</ele><time>2026-05-06T13:23:02.001Z</time></trkpt><trkpt lat="14.517043408658234" lon="120.99782974985806"><ele>5.0</ele><time>2026-05-06T13:23:03.001Z</time></trkpt><trkpt lat="14.517032637913443" lon="120.99772108461116"><ele>5.0</ele><time>2026-05-06T13:23:04.001Z</time></trkpt><trkpt lat="14.517046472280331" lon="120.99760886652702"><ele>5.0</ele><time>2026-05-06T13:23:05.001Z</time></trkpt><trkpt lat="14.517056976789052" lon="120.99749891057552"><ele>5.0</ele><time>2026-05-06T13:23:06.001Z</time></trkpt><trkpt lat="14.517068465685313" lon="120.99739835247293"><ele>4.8</ele><time>2026-05-06T13:23:07.001Z</time></trkpt><trkpt lat="14.517075690456192" lon="120.99728532103016"><ele>4.6</ele><time>2026-05-06T13:23:08.001Z</time></trkpt><trkpt lat="14.51708400317683" lon="120.99716587679958"><ele>4.4</ele><time>2026-05-06T13:23:09.001Z</time></trkpt><trkpt lat="14.517117584774459" lon="120.99707413275573"><ele>4.2</ele><time>2026-05-06T13:23:10.002Z</time></trkpt><trkpt lat="14.517125448214806" lon="120.99696401322343"><ele>4.0</ele><time>2026-05-06T13:23:11.002Z</time></trkpt><trkpt lat="14.517139440758728" lon="120.99685422426924"><ele>4.0</ele><time>2026-05-06T13:23:12.002Z</time></trkpt><trkpt lat="14.517153007326435" lon="120.99675138103221"><ele>4.0</ele><time>2026-05-06T13:23:13.002Z</time></trkpt><trkpt lat="14.517166225861718" lon="120.99666844089262"><ele>4.0</ele><time>2026-05-06T13:23:14.002Z</time></trkpt><trkpt lat="14.517176736241176" lon="120.99659846468678"><ele>4.0</ele><time>2026-05-06T13:23:15.002Z</time></trkpt><trkpt lat="14.517190646507997" lon="120.99648563488985"><ele>4.0</ele><time>2026-05-06T13:23:17.002Z</time></trkpt><trkpt lat="14.517224144778174" lon="120.99629025886358"><ele>4.5</ele><time>2026-05-06T13:24:43.002Z</time></trkpt><trkpt lat="14.517230235897594" lon="120.99622418416517"><ele>5.0</ele><time>2026-05-06T13:24:44.002Z</time></trkpt><trkpt lat="14.517235708803572" lon="120.99615193116787"><ele>5.5</ele><time>2026-05-06T13:24:45.002Z</time></trkpt><trkpt lat="14.517244090562375" lon="120.99606720140397"><ele>6.0</ele><time>2026-05-06T13:24:46.002Z</time></trkpt><trkpt lat="14.517256251804843" lon="120.99598364544752"><ele>6.500000000000001</ele><time>2026-05-06T13:24:47.002Z</time></trkpt><trkpt lat="14.517268987920955" lon="120.99587185956115"><ele>7.0</ele><time>2026-05-06T13:24:48.002Z</time></trkpt><trkpt lat="14.51728185307756" lon="120.99575588866033"><ele>7.0</ele><time>2026-05-06T13:24:49.002Z</time></trkpt><trkpt lat="14.517292399313556" lon="120.99562599775558"><ele>7.0</ele><time>2026-05-06T13:24:50.002Z</time></trkpt><trkpt lat="14.517306656727817" lon="120.99547636999405"><ele>7.0</ele><time>2026-05-06T13:24:51.002Z</time></trkpt><trkpt lat="14.517329012371503" lon="120.99532259181251"><ele>7.0</ele><time>2026-05-06T13:24:52.002Z</time></trkpt><trkpt lat="14.517347889653413" lon="120.99520840009038"><ele>7.0</ele><time>2026-05-06T13:24:53.002Z</time></trkpt><trkpt lat="14.517355557623166" lon="120.99508308942949"><ele>7.0</ele><time>2026-05-06T13:24:54.002Z</time></trkpt><trkpt lat="14.51736488141178" lon="120.9949561036577"><ele>7.0</ele><time>2026-05-06T13:24:55.002Z</time></trkpt><trkpt lat="14.517379004090122" lon="120.99481603053003"><ele>7.0</ele><time>2026-05-06T13:24:56.002Z</time></trkpt><trkpt lat="14.517392790723887" lon="120.99467212827356"><ele>7.25</ele><time>2026-05-06T13:24:57.002Z</time></trkpt><trkpt lat="14.517412885797203" lon="120.99453946810517"><ele>7.5</ele><time>2026-05-06T13:24:58.002Z</time></trkpt><trkpt lat="14.51742820395274" lon="120.99441960091863"><ele>7.75</ele><time>2026-05-06T13:24:59.002Z</time></trkpt><trkpt lat="14.517450436604527" lon="120.99432053527975"><ele>8.0</ele><time>2026-05-06T13:25:00.002Z</time></trkpt><trkpt lat="14.517469933768707" lon="120.99420859039726"><ele>8.25</ele><time>2026-05-06T13:25:01.002Z</time></trkpt><trkpt lat="14.517478995267567" lon="120.9940779795775"><ele>8.5</ele><time>2026-05-06T13:25:02.002Z</time></trkpt><trkpt lat="14.517499643077391" lon="120.99393990759698"><ele>8.75</ele><time>2026-05-06T13:25:03.002Z</time></trkpt><trkpt lat="14.517498502323157" lon="120.99383708914873"><ele>9.0</ele><time>2026-05-06T13:25:04.002Z</time></trkpt><trkpt lat="14.517510925439296" lon="120.99373230148666"><ele>9.0</ele><time>2026-05-06T13:25:05.002Z</time></trkpt><trkpt lat="14.517531787864536" lon="120.99363524247788"><ele>9.0</ele><time>2026-05-06T13:25:06.002Z</time></trkpt><trkpt lat="14.517560904739012" lon="120.99356185722024"><ele>9.0</ele><time>2026-05-06T13:25:07.002Z</time></trkpt><trkpt lat="14.517573759329975" lon="120.99348272759613"><ele>9.0</ele><time>2026-05-06T13:25:08.002Z</time></trkpt><trkpt lat="14.517597397044314" lon="120.9934072426138"><ele>9.0</ele><time>2026-05-06T13:25:10.002Z</time></trkpt><trkpt lat="14.5178293074091" lon="120.99345654228735"><ele>12.0</ele><time>2026-05-06T13:25:11.002Z</time></trkpt><trkpt lat="14.517927983903364" lon="120.99343708035317"><ele>15.0</ele><time>2026-05-06T13:25:12.002Z</time></trkpt><trkpt lat="14.518039840581489" lon="120.99342050806885"><ele>18.0</ele><time>2026-05-06T13:25:13.002Z</time></trkpt><trkpt lat="14.518171552663526" lon="120.99342378244584"><ele>21.0</ele><time>2026-05-06T13:25:14.002Z</time></trkpt><trkpt lat="14.518307612304648" lon="120.99345426874609"><ele>21.0</ele><time>2026-05-06T13:25:15.002Z</time></trkpt><trkpt lat="14.518454039022814" lon="120.99347502469108"><ele>21.0</ele><time>2026-05-06T13:25:16.002Z</time></trkpt><trkpt lat="14.518606125883952" lon="120.99349660186711"><ele>21.0</ele><time>2026-05-06T13:25:17.002Z</time></trkpt><trkpt lat="14.518772986846727" lon="120.99351490114675"><ele>23.0</ele><time>2026-05-06T13:25:18.002Z</time></trkpt><trkpt lat="14.518945634698106" lon="120.99353108688284"><ele>25.0</ele><time>2026-05-06T13:25:19.002Z</time></trkpt><trkpt lat="14.519123940001434" lon="120.993545103001"><ele>27.0</ele><time>2026-05-06T13:25:20.002Z</time></trkpt><trkpt lat="14.519300502722992" lon="120.99355715813532"><ele>27.0</ele><time>2026-05-06T13:25:21.002Z</time></trkpt><trkpt lat="14.519482501283475" lon="120.99356958441622"><ele>27.0</ele><time>2026-05-06T13:25:22.002Z</time></trkpt><trkpt lat="14.51967175479485" lon="120.9935825060352"><ele>27.0</ele><time>2026-05-06T13:25:23.002Z</time></trkpt><trkpt lat="14.519856833934355" lon="120.9935952112909"><ele>20.666666666666668</ele><time>2026-05-06T13:25:24.002Z</time></trkpt><trkpt lat="14.520054845792538" lon="120.99360928488478"><ele>14.333333333333332</ele><time>2026-05-06T13:25:25.002Z</time></trkpt><trkpt lat="14.520257480908132" lon="120.99362394852844"><ele>8.0</ele><time>2026-05-06T13:25:26.002Z</time></trkpt><trkpt lat="14.520449415883087" lon="120.99363783894195"><ele>7.0</ele><time>2026-05-06T13:25:27.002Z</time></trkpt><trkpt lat="14.5206580695805" lon="120.99365293929736"><ele>6.0</ele><time>2026-05-06T13:25:28.002Z</time></trkpt><trkpt lat="14.52086255700461" lon="120.99366735024797"><ele>5.0</ele><time>2026-05-06T13:25:29.002Z</time></trkpt><trkpt lat="14.521068845415684" lon="120.99368129581237"><ele>5.0</ele><time>2026-05-06T13:25:30.002Z</time></trkpt><trkpt lat="14.521281099566895" lon="120.99369518021892"><ele>5.0</ele><time>2026-05-06T13:25:31.002Z</time></trkpt><trkpt lat="14.521488901998122" lon="120.99371157747318"><ele>5.0</ele><time>2026-05-06T13:25:32.002Z</time></trkpt><trkpt lat="14.521704842110562" lon="120.99372187352584"><ele>5.0</ele><time>2026-05-06T13:25:33.002Z</time></trkpt><trkpt lat="14.521923749030215" lon="120.99373266162235"><ele>5.0</ele><time>2026-05-06T13:25:34.002Z</time></trkpt><trkpt lat="14.522153164032174" lon="120.99374289937631"><ele>5.0</ele><time>2026-05-06T13:25:35.002Z</time></trkpt><trkpt lat="14.522390063972662" lon="120.993748155915"><ele>5.0</ele><time>2026-05-06T13:25:36.002Z</time></trkpt><trkpt lat="14.522580769015933" lon="120.993748209323"><ele>5.0</ele><time>2026-05-06T13:25:37.002Z</time></trkpt><trkpt lat="14.522796522515366" lon="120.99375218532653"><ele>5.0</ele><time>2026-05-06T13:25:38.002Z</time></trkpt><trkpt lat="14.523017424087337" lon="120.99375601070994"><ele>6.0</ele><time>2026-05-06T13:25:39.002Z</time></trkpt><trkpt lat="14.52324050798547" lon="120.99375987388463"><ele>7.0</ele><time>2026-05-06T13:25:40.002Z</time></trkpt><trkpt lat="14.523460495844265" lon="120.99376423288987"><ele>8.0</ele><time>2026-05-06T13:25:41.002Z</time></trkpt><trkpt lat="14.523683978097626" lon="120.99376766586099"><ele>8.0</ele><time>2026-05-06T13:25:42.002Z</time></trkpt><trkpt lat="14.52390944023367" lon="120.99376700932565"><ele>8.0</ele><time>2026-05-06T13:25:43.002Z</time></trkpt><trkpt lat="14.524129839570307" lon="120.99376700932544"><ele>8.0</ele><time>2026-05-06T13:25:44.002Z</time></trkpt><trkpt lat="14.524355929741224" lon="120.99376700932827"><ele>8.333333333333332</ele><time>2026-05-06T13:25:45.002Z</time></trkpt><trkpt lat="14.524585873626135" lon="120.99376700932861"><ele>8.666666666666666</ele><time>2026-05-06T13:25:46.002Z</time></trkpt><trkpt lat="14.524797567855925" lon="120.99376700822128"><ele>9.0</ele><time>2026-05-06T13:25:47.002Z</time></trkpt><trkpt lat="14.524994994319991" lon="120.99376911320878"><ele>9.0</ele><time>2026-05-06T13:25:48.002Z</time></trkpt><trkpt lat="14.525176811364739" lon="120.99377102455827"><ele>9.0</ele><time>2026-05-06T13:25:49.002Z</time></trkpt><trkpt lat="14.5253481984295" lon="120.99377223631272"><ele>9.0</ele><time>2026-05-06T13:25:50.002Z</time></trkpt><trkpt lat="14.525506607505873" lon="120.99377336066784"><ele>10.5</ele><time>2026-05-06T13:25:51.002Z</time></trkpt><trkpt lat="14.525654100150806" lon="120.99377497138225"><ele>12.0</ele><time>2026-05-06T13:25:52.002Z</time></trkpt><trkpt lat="14.525742089078845" lon="120.99376583186225"><ele>13.5</ele><time>2026-05-06T13:25:53.002Z</time></trkpt><trkpt lat="14.525873396117253" lon="120.99376810662119"><ele>15.0</ele><time>2026-05-06T13:25:54.002Z</time></trkpt><trkpt lat="14.52599511109304" lon="120.99376744840445"><ele>15.0</ele><time>2026-05-06T13:25:55.002Z</time></trkpt><trkpt lat="14.526112708800914" lon="120.99377339024092"><ele>15.0</ele><time>2026-05-06T13:25:56.002Z</time></trkpt><trkpt lat="14.52622659500487" lon="120.99377654664794"><ele>15.0</ele><time>2026-05-06T13:25:57.002Z</time></trkpt><trkpt lat="14.526312739127677" lon="120.99378896309722"><ele>15.0</ele><time>2026-05-06T13:25:58.002Z</time></trkpt><trkpt lat="14.5264137874875" lon="120.9938140438456"><ele>15.0</ele><time>2026-05-06T13:25:59.002Z</time></trkpt><trkpt lat="14.526510122357351" lon="120.9938024208931"><ele>13.666666666666666</ele><time>2026-05-06T13:26:01.002Z</time></trkpt><trkpt lat="14.5265777246632" lon="120.99380316243139"><ele>12.333333333333334</ele><time>2026-05-06T13:26:04.002Z</time></trkpt><trkpt lat="14.526645110491732" lon="120.99379796876408"><ele>11.0</ele><time>2026-05-06T13:26:09.002Z</time></trkpt><trkpt lat="14.526707980226155" lon="120.99376381508488"><ele>9.666666666666668</ele><time>2026-05-06T13:26:14.001Z</time></trkpt><trkpt lat="14.526823404712454" lon="120.99376135318863"><ele>8.333333333333334</ele><time>2026-05-06T13:26:17.001Z</time></trkpt><trkpt lat="14.526893487767252" lon="120.99375216659777"><ele>7.0</ele><time>2026-05-06T13:26:19.001Z</time></trkpt><trkpt lat="14.526958210107017" lon="120.99373777558024"><ele>7.000000000000001</ele><time>2026-05-06T13:26:24.001Z</time></trkpt><trkpt lat="14.527029229870475" lon="120.99373645747663"><ele>7.0</ele><time>2026-05-06T13:26:28.001Z</time></trkpt><trkpt lat="14.527091943945058" lon="120.9937128381006"><ele>7.0</ele><time>2026-05-06T13:26:55.002Z</time></trkpt><trkpt lat="14.527176124667225" lon="120.99369117950337"><ele>7.0</ele><time>2026-05-06T13:26:57.002Z</time></trkpt><trkpt lat="14.527254689910595" lon="120.9936848801237"><ele>7.000000000000001</ele><time>2026-05-06T13:26:58.002Z</time></trkpt><trkpt lat="14.527329967248768" lon="120.99368654094147"><ele>7.0</ele><time>2026-05-06T13:26:59.002Z</time></trkpt><trkpt lat="14.527403250428375" lon="120.99367290965634"><ele>7.3999999999999995</ele><time>2026-05-06T13:27:00.002Z</time></trkpt><trkpt lat="14.527504665871872" lon="120.99365934517255"><ele>7.799999999999999</ele><time>2026-05-06T13:27:01.002Z</time></trkpt><trkpt lat="14.527602507272489" lon="120.9936460108402"><ele>8.2</ele><time>2026-05-06T13:27:02.002Z</time></trkpt><trkpt lat="14.527699987733012" lon="120.99363468709548"><ele>8.6</ele><time>2026-05-06T13:27:03.002Z</time></trkpt><trkpt lat="14.527819125585061" lon="120.99362878581438"><ele>9.0</ele><time>2026-05-06T13:27:04.002Z</time></trkpt><trkpt lat="14.527941875951763" lon="120.99362008155278"><ele>9.0</ele><time>2026-05-06T13:27:05.002Z</time></trkpt><trkpt lat="14.528075129334933" lon="120.99360819725662"><ele>9.0</ele><time>2026-05-06T13:27:06.002Z</time></trkpt><trkpt lat="14.528208437232685" lon="120.99359688781894"><ele>9.0</ele><time>2026-05-06T13:27:07.002Z</time></trkpt><trkpt lat="14.52835779219164" lon="120.99357629409495"><ele>9.0</ele><time>2026-05-06T13:27:08.002Z</time></trkpt><trkpt lat="14.528513466109406" lon="120.99355432483391"><ele>9.0</ele><time>2026-05-06T13:27:09.002Z</time></trkpt><trkpt lat="14.528667630024326" lon="120.99353416961681"><ele>9.0</ele><time>2026-05-06T13:27:10.002Z</time></trkpt><trkpt lat="14.52883935294089" lon="120.99351318567962"><ele>9.0</ele><time>2026-05-06T13:27:11.002Z</time></trkpt><trkpt lat="14.52899663817891" lon="120.99349951547113"><ele>8.333333333333334</ele><time>2026-05-06T13:27:12.002Z</time></trkpt><trkpt lat="14.529160822968878" lon="120.99347770366815"><ele>7.666666666666667</ele><time>2026-05-06T13:27:13.002Z</time></trkpt><trkpt lat="14.52932673174593" lon="120.99345863632351"><ele>7.0</ele><time>2026-05-06T13:27:14.002Z</time></trkpt><trkpt lat="14.529490299222646" lon="120.99343320669475"><ele>8.0</ele><time>2026-05-06T13:27:15.002Z</time></trkpt><trkpt lat="14.529657001940617" lon="120.99341790641122"><ele>9.0</ele><time>2026-05-06T13:27:16.002Z</time></trkpt><trkpt lat="14.52983219625093" lon="120.9933940377517"><ele>10.0</ele><time>2026-05-06T13:27:17.002Z</time></trkpt><trkpt lat="14.530008573458206" lon="120.99337188684015"><ele>10.0</ele><time>2026-05-06T13:27:18.002Z</time></trkpt><trkpt lat="14.53019495521672" lon="120.99333987891706"><ele>10.0</ele><time>2026-05-06T13:27:19.002Z</time></trkpt><trkpt lat="14.530385902384749" lon="120.99331591745923"><ele>10.0</ele><time>2026-05-06T13:27:20.002Z</time></trkpt><trkpt lat="14.530586816045107" lon="120.99329407041293"><ele>7.666666666666667</ele><time>2026-05-06T13:27:21.002Z</time></trkpt><trkpt lat="14.53077613817179" lon="120.9932726957123"><ele>5.333333333333334</ele><time>2026-05-06T13:27:22.002Z</time></trkpt><trkpt lat="14.530957930187991" lon="120.9932567477905"><ele>3.0</ele><time>2026-05-06T13:27:23.002Z</time></trkpt><trkpt lat="14.531144074526585" lon="120.99323586131568"><ele>4.0</ele><time>2026-05-06T13:27:24.002Z</time></trkpt><trkpt lat="14.531317532131183" lon="120.99319753918071"><ele>5.0</ele><time>2026-05-06T13:27:25.002Z</time></trkpt><trkpt lat="14.531492174482214" lon="120.9931729838365"><ele>6.0</ele><time>2026-05-06T13:27:26.002Z</time></trkpt><trkpt lat="14.531667670282852" lon="120.99314760179124"><ele>6.0</ele><time>2026-05-06T13:27:27.002Z</time></trkpt><trkpt lat="14.531842626698475" lon="120.99312242139447"><ele>6.0</ele><time>2026-05-06T13:27:28.002Z</time></trkpt><trkpt lat="14.532033691269437" lon="120.99309781382365"><ele>6.0</ele><time>2026-05-06T13:27:29.002Z</time></trkpt><trkpt lat="14.53221460114724" lon="120.99307737879049"><ele>6.666666666666666</ele><time>2026-05-06T13:27:30.002Z</time></trkpt><trkpt lat="14.532392249049662" lon="120.993049698381"><ele>7.333333333333333</ele><time>2026-05-06T13:27:31.002Z</time></trkpt><trkpt lat="14.532559058420576" lon="120.99302701409596"><ele>8.0</ele><time>2026-05-06T13:27:32.002Z</time></trkpt><trkpt lat="14.532722590967854" lon="120.9930016467653"><ele>8.0</ele><time>2026-05-06T13:27:33.002Z</time></trkpt><trkpt lat="14.532888980460193" lon="120.99299046539306"><ele>8.0</ele><time>2026-05-06T13:27:34.002Z</time></trkpt><trkpt lat="14.533050709076804" lon="120.99297027616"><ele>8.0</ele><time>2026-05-06T13:27:35.002Z</time></trkpt><trkpt lat="14.533219711375898" lon="120.99294923912747"><ele>7.666666666666666</ele><time>2026-05-06T13:27:36.002Z</time></trkpt><trkpt lat="14.53339380709926" lon="120.99292799121827"><ele>7.333333333333334</ele><time>2026-05-06T13:27:37.002Z</time></trkpt><trkpt lat="14.533574939858665" lon="120.99290588446321"><ele>7.0</ele><time>2026-05-06T13:27:38.002Z</time></trkpt><trkpt lat="14.533756592124485" lon="120.99288629770882"><ele>7.0</ele><time>2026-05-06T13:27:39.002Z</time></trkpt><trkpt lat="14.533950573697402" lon="120.99285726515308"><ele>7.0</ele><time>2026-05-06T13:27:40.002Z</time></trkpt><trkpt lat="14.53414361272574" lon="120.9928463728425"><ele>7.0</ele><time>2026-05-06T13:27:41.002Z</time></trkpt><trkpt lat="14.534333980024465" lon="120.99283117463757"><ele>7.0</ele><time>2026-05-06T13:27:42.002Z</time></trkpt><trkpt lat="14.534522523093168" lon="120.9928105342001"><ele>7.0</ele><time>2026-05-06T13:27:43.002Z</time></trkpt><trkpt lat="14.534707456833633" lon="120.99278459184355"><ele>7.0</ele><time>2026-05-06T13:27:44.002Z</time></trkpt><trkpt lat="14.534891124181202" lon="120.99275235557471"><ele>7.666666666666667</ele><time>2026-05-06T13:27:45.002Z</time></trkpt><trkpt lat="14.53506631961262" lon="120.99272337647362"><ele>8.333333333333334</ele><time>2026-05-06T13:27:46.002Z</time></trkpt><trkpt lat="14.53524146408629" lon="120.9926926619552"><ele>9.0</ele><time>2026-05-06T13:27:47.002Z</time></trkpt><trkpt lat="14.535417674785613" lon="120.99266230969836"><ele>9.0</ele><time>2026-05-06T13:27:48.002Z</time></trkpt><trkpt lat="14.535600318696002" lon="120.99263923253413"><ele>9.0</ele><time>2026-05-06T13:27:49.002Z</time></trkpt><trkpt lat="14.535781319042163" lon="120.9926217477122"><ele>9.0</ele><time>2026-05-06T13:27:50.002Z</time></trkpt><trkpt lat="14.535965569980698" lon="120.99260822838788"><ele>9.0</ele><time>2026-05-06T13:27:51.002Z</time></trkpt><trkpt lat="14.536140094422692" lon="120.99259277967538"><ele>9.0</ele><time>2026-05-06T13:27:52.002Z</time></trkpt><trkpt lat="14.536308744425622" lon="120.99257290812085"><ele>9.0</ele><time>2026-05-06T13:27:53.002Z</time></trkpt><trkpt lat="14.536477632328637" lon="120.99255639007578"><ele>10.666666666666668</ele><time>2026-05-06T13:27:54.002Z</time></trkpt><trkpt lat="14.536639302137843" lon="120.99253798422545"><ele>12.333333333333334</ele><time>2026-05-06T13:27:55.002Z</time></trkpt><trkpt lat="14.536796895321977" lon="120.992518345115"><ele>14.0</ele><time>2026-05-06T13:27:56.002Z</time></trkpt><trkpt lat="14.536954569342738" lon="120.99250568556774"><ele>11.0</ele><time>2026-05-06T13:27:57.002Z</time></trkpt><trkpt lat="14.537107553142326" lon="120.99249387698741"><ele>8.0</ele><time>2026-05-06T13:27:58.002Z</time></trkpt><trkpt lat="14.537261564007595" lon="120.99246989518093"><ele>5.0</ele><time>2026-05-06T13:27:59.002Z</time></trkpt><trkpt lat="14.537425709114018" lon="120.9924492238124"><ele>5.0</ele><time>2026-05-06T13:28:00.002Z</time></trkpt><trkpt lat="14.537589595397623" lon="120.992422655729"><ele>5.0</ele><time>2026-05-06T13:28:01.002Z</time></trkpt><trkpt lat="14.537754381499635" lon="120.9923999558554"><ele>5.0</ele><time>2026-05-06T13:28:02.002Z</time></trkpt><trkpt lat="14.537918208066806" lon="120.9923813569028"><ele>6.333333333333334</ele><time>2026-05-06T13:28:03.001Z</time></trkpt><trkpt lat="14.53808396789537" lon="120.99235950317723"><ele>7.666666666666667</ele><time>2026-05-06T13:28:04.001Z</time></trkpt><trkpt lat="14.538253119505397" lon="120.99234647902692"><ele>9.0</ele><time>2026-05-06T13:28:05.001Z</time></trkpt><trkpt lat="14.538418128213378" lon="120.99232247185506"><ele>9.0</ele><time>2026-05-06T13:28:06.001Z</time></trkpt><trkpt lat="14.53858574184794" lon="120.99230776473166"><ele>9.0</ele><time>2026-05-06T13:28:07.001Z</time></trkpt><trkpt lat="14.538757104619487" lon="120.99228945304284"><ele>9.0</ele><time>2026-05-06T13:28:08.001Z</time></trkpt><trkpt lat="14.538933022975637" lon="120.99226839424676"><ele>8.0</ele><time>2026-05-06T13:28:09.001Z</time></trkpt><trkpt lat="14.539107777427807" lon="120.992251554475"><ele>7.0</ele><time>2026-05-06T13:28:10.001Z</time></trkpt><trkpt lat="14.539282838148873" lon="120.99224027323999"><ele>6.0</ele><time>2026-05-06T13:28:11.001Z</time></trkpt><trkpt lat="14.539457717562952" lon="120.99222577873876"><ele>7.0</ele><time>2026-05-06T13:28:12.001Z</time></trkpt><trkpt lat="14.53964266410751" lon="120.99220869972208"><ele>8.0</ele><time>2026-05-06T13:28:13.001Z</time></trkpt><trkpt lat="14.539824251662791" lon="120.9921905042498"><ele>9.0</ele><time>2026-05-06T13:28:14.001Z</time></trkpt><trkpt lat="14.540010561820838" lon="120.99216900033063"><ele>9.0</ele><time>2026-05-06T13:28:15.001Z</time></trkpt><trkpt lat="14.5401977077514" lon="120.99215131451746"><ele>9.0</ele><time>2026-05-06T13:28:16.001Z</time></trkpt><trkpt lat="14.540389070371166" lon="120.99212338116374"><ele>9.0</ele><time>2026-05-06T13:28:17.001Z</time></trkpt><trkpt lat="14.540567561249443" lon="120.99210013852333"><ele>12.666666666666668</ele><time>2026-05-06T13:28:18.001Z</time></trkpt><trkpt lat="14.540745687400726" lon="120.99207380535182"><ele>16.333333333333336</ele><time>2026-05-06T13:28:19.001Z</time></trkpt><trkpt lat="14.540933522723197" lon="120.99205077550907"><ele>20.0</ele><time>2026-05-06T13:28:20.001Z</time></trkpt><trkpt lat="14.541122752931496" lon="120.99201800409668"><ele>15.666666666666668</ele><time>2026-05-06T13:28:21.001Z</time></trkpt><trkpt lat="14.541318381031306" lon="120.99198626412944"><ele>11.333333333333334</ele><time>2026-05-06T13:28:22.001Z</time></trkpt><trkpt lat="14.541515315960886" lon="120.9919555238037"><ele>7.0</ele><time>2026-05-06T13:28:23.001Z</time></trkpt><trkpt lat="14.541716894629063" lon="120.99192228683692"><ele>7.0</ele><time>2026-05-06T13:28:24.001Z</time></trkpt><trkpt lat="14.541920473163046" lon="120.99188365576589"><ele>7.0</ele><time>2026-05-06T13:28:25.001Z</time></trkpt><trkpt lat="14.542118615954301" lon="120.99184784709176"><ele>7.0</ele><time>2026-05-06T13:28:26.001Z</time></trkpt><trkpt lat="14.542323228120505" lon="120.9918153907397"><ele>7.0</ele><time>2026-05-06T13:28:27.001Z</time></trkpt><trkpt lat="14.542536584844543" lon="120.99178559727554"><ele>7.0</ele><time>2026-05-06T13:28:28.001Z</time></trkpt><trkpt lat="14.542742826967071" lon="120.99174926796599"><ele>7.0</ele><time>2026-05-06T13:28:29.001Z</time></trkpt><trkpt lat="14.542953515360074" lon="120.99170075608404"><ele>6.666666666666667</ele><time>2026-05-06T13:28:30.001Z</time></trkpt><trkpt lat="14.543166441400205" lon="120.99166020168427"><ele>6.333333333333334</ele><time>2026-05-06T13:28:31.001Z</time></trkpt><trkpt lat="14.54338846729226" lon="120.99163235780865"><ele>6.0</ele><time>2026-05-06T13:28:32.001Z</time></trkpt><trkpt lat="14.543616584466804" lon="120.99161568655593"><ele>6.666666666666666</ele><time>2026-05-06T13:28:33.001Z</time></trkpt><trkpt lat="14.543820272677463" lon="120.99157842706016"><ele>7.333333333333333</ele><time>2026-05-06T13:28:34.001Z</time></trkpt><trkpt lat="14.544003970425118" lon="120.99152556887704"><ele>8.0</ele><time>2026-05-06T13:28:35.001Z</time></trkpt><trkpt lat="14.544205841926138" lon="120.99147282123616"><ele>8.0</ele><time>2026-05-06T13:28:36.001Z</time></trkpt><trkpt lat="14.544398834301992" lon="120.99144119176565"><ele>8.0</ele><time>2026-05-06T13:28:37.001Z</time></trkpt><trkpt lat="14.544587702989375" lon="120.99141218446793"><ele>8.0</ele><time>2026-05-06T13:28:38.001Z</time></trkpt><trkpt lat="14.54475623920544" lon="120.99138055898803"><ele>9.0</ele><time>2026-05-06T13:28:39.001Z</time></trkpt><trkpt lat="14.544939533104063" lon="120.99134137233605"><ele>10.0</ele><time>2026-05-06T13:28:40.001Z</time></trkpt><trkpt lat="14.545095974827912" lon="120.991304321312"><ele>11.0</ele><time>2026-05-06T13:28:41.001Z</time></trkpt><trkpt lat="14.545268925482043" lon="120.99124838780438"><ele>9.666666666666666</ele><time>2026-05-06T13:28:42.001Z</time></trkpt><trkpt lat="14.545438009359495" lon="120.99119744640451"><ele>8.333333333333334</ele><time>2026-05-06T13:28:43.001Z</time></trkpt><trkpt lat="14.545606798172114" lon="120.99116804294754"><ele>7.0</ele><time>2026-05-06T13:28:44.001Z</time></trkpt><trkpt lat="14.545778615519586" lon="120.99114651734067"><ele>7.0</ele><time>2026-05-06T13:28:45.001Z</time></trkpt><trkpt lat="14.545964645400446" lon="120.99113255605427"><ele>7.0</ele><time>2026-05-06T13:28:46.001Z</time></trkpt><trkpt lat="14.546135871530964" lon="120.99109138299063"><ele>7.0</ele><time>2026-05-06T13:28:47.001Z</time></trkpt><trkpt lat="14.546307470213621" lon="120.99102644858048"><ele>8.666666666666668</ele><time>2026-05-06T13:28:48.001Z</time></trkpt><trkpt lat="14.54648362224064" lon="120.99097436780646"><ele>10.333333333333334</ele><time>2026-05-06T13:28:49.001Z</time></trkpt><trkpt lat="14.546665005404229" lon="120.99093360549149"><ele>12.0</ele><time>2026-05-06T13:28:50.001Z</time></trkpt><trkpt lat="14.546850787883985" lon="120.99089363209458"><ele>12.0</ele><time>2026-05-06T13:28:51.001Z</time></trkpt><trkpt lat="14.547025866943995" lon="120.99084678776516"><ele>12.0</ele><time>2026-05-06T13:28:52.001Z</time></trkpt><trkpt lat="14.547201860569654" lon="120.99078895897524"><ele>12.0</ele><time>2026-05-06T13:28:53.001Z</time></trkpt><trkpt lat="14.547381946211136" lon="120.99072672176554"><ele>10.666666666666666</ele><time>2026-05-06T13:28:54.001Z</time></trkpt><trkpt lat="14.547540432139838" lon="120.99072110449914"><ele>9.333333333333332</ele><time>2026-05-06T13:28:55.001Z</time></trkpt><trkpt lat="14.547698138565996" lon="120.99067565029067"><ele>8.0</ele><time>2026-05-06T13:28:56.001Z</time></trkpt><trkpt lat="14.547861666013965" lon="120.99063602570038"><ele>10.333333333333332</ele><time>2026-05-06T13:28:57.001Z</time></trkpt><trkpt lat="14.54801843230742" lon="120.99059727375993"><ele>12.666666666666666</ele><time>2026-05-06T13:28:58.001Z</time></trkpt><trkpt lat="14.548182535078467" lon="120.99056144028677"><ele>15.0</ele><time>2026-05-06T13:28:59.001Z</time></trkpt><trkpt lat="14.54835038089153" lon="120.99052154525903"><ele>15.0</ele><time>2026-05-06T13:29:00.001Z</time></trkpt><trkpt lat="14.548512335317819" lon="120.99049857182159"><ele>15.0</ele><time>2026-05-06T13:29:01.001Z</time></trkpt><trkpt lat="14.548671578604877" lon="120.99046768480304"><ele>15.0</ele><time>2026-05-06T13:29:02.001Z</time></trkpt><trkpt lat="14.548824620272008" lon="120.99042645952242"><ele>12.666666666666666</ele><time>2026-05-06T13:29:03.001Z</time></trkpt><trkpt lat="14.548970669819486" lon="120.99039369727217"><ele>10.333333333333332</ele><time>2026-05-06T13:29:04.001Z</time></trkpt><trkpt lat="14.549117922621157" lon="120.99035611658627"><ele>8.0</ele><time>2026-05-06T13:29:05.001Z</time></trkpt><trkpt lat="14.5492699473104" lon="120.99032331490143"><ele>8.0</ele><time>2026-05-06T13:29:06.001Z</time></trkpt><trkpt lat="14.549426420933695" lon="120.9902864114114"><ele>8.0</ele><time>2026-05-06T13:29:07.001Z</time></trkpt><trkpt lat="14.549580484714852" lon="120.99024855552929"><ele>8.0</ele><time>2026-05-06T13:29:08.001Z</time></trkpt><trkpt lat="14.54974035795241" lon="120.990208653369"><ele>8.333333333333332</ele><time>2026-05-06T13:29:09.001Z</time></trkpt><trkpt lat="14.549900721586178" lon="120.99017045931102"><ele>8.666666666666666</ele><time>2026-05-06T13:29:10.001Z</time></trkpt><trkpt lat="14.550067004894927" lon="120.99013014411987"><ele>9.0</ele><time>2026-05-06T13:29:11.001Z</time></trkpt><trkpt lat="14.55023261756077" lon="120.9900937816726"><ele>9.0</ele><time>2026-05-06T13:29:12.001Z</time></trkpt><trkpt lat="14.550391709787972" lon="120.99005623791895"><ele>9.0</ele><time>2026-05-06T13:29:13.001Z</time></trkpt><trkpt lat="14.550553620454563" lon="120.99001992535264"><ele>9.0</ele><time>2026-05-06T13:29:14.001Z</time></trkpt><trkpt lat="14.550712193207582" lon="120.98998488024603"><ele>8.333333333333334</ele><time>2026-05-06T13:29:15.001Z</time></trkpt><trkpt lat="14.550876918801755" lon="120.9899476474946"><ele>7.666666666666667</ele><time>2026-05-06T13:29:16.001Z</time></trkpt><trkpt lat="14.551044970536415" lon="120.98991116301787"><ele>7.0</ele><time>2026-05-06T13:29:17.001Z</time></trkpt><trkpt lat="14.55120111140151" lon="120.98987991553595"><ele>7.5</ele><time>2026-05-06T13:29:18.001Z</time></trkpt><trkpt lat="14.551365083246269" lon="120.98984293035893"><ele>8.0</ele><time>2026-05-06T13:29:19.001Z</time></trkpt><trkpt lat="14.551506792603739" lon="120.98981584596295"><ele>8.5</ele><time>2026-05-06T13:29:20.001Z</time></trkpt><trkpt lat="14.551639059692896" lon="120.98978331515782"><ele>9.0</ele><time>2026-05-06T13:29:21.001Z</time></trkpt><trkpt lat="14.551760677688911" lon="120.98975726849768"><ele>9.0</ele><time>2026-05-06T13:29:22.001Z</time></trkpt><trkpt lat="14.551853559503416" lon="120.98973834328804"><ele>9.0</ele><time>2026-05-06T13:29:23.001Z</time></trkpt><trkpt lat="14.55193345226664" lon="120.98972618724171"><ele>9.0</ele><time>2026-05-06T13:29:24.001Z</time></trkpt><trkpt lat="14.552028581070937" lon="120.98971991641604"><ele>9.0</ele><time>2026-05-06T13:29:26.001Z</time></trkpt><trkpt lat="14.552103274738819" lon="120.9897015850011"><ele>9.0</ele><time>2026-05-06T13:29:29.001Z</time></trkpt><trkpt lat="14.55218146812107" lon="120.98974287382819"><ele>9.0</ele><time>2026-05-06T13:29:35.001Z</time></trkpt><trkpt lat="14.552218799651765" lon="120.98985748421556"><ele>9.166666666666666</ele><time>2026-05-06T13:29:37.001Z</time></trkpt><trkpt lat="14.552243714306327" lon="120.98992489718515"><ele>9.333333333333334</ele><time>2026-05-06T13:29:38.001Z</time></trkpt><trkpt lat="14.55227082317539" lon="120.99000408745579"><ele>9.5</ele><time>2026-05-06T13:29:39.001Z</time></trkpt><trkpt lat="14.552298639525521" lon="120.99008883980804"><ele>9.666666666666668</ele><time>2026-05-06T13:29:40.001Z</time></trkpt><trkpt lat="14.552328181922832" lon="120.9901681289204"><ele>9.833333333333334</ele><time>2026-05-06T13:29:41.001Z</time></trkpt><trkpt lat="14.552354709601675" lon="120.9902514162668"><ele>10.0</ele><time>2026-05-06T13:29:42.001Z</time></trkpt><trkpt lat="14.552386726475437" lon="120.99033658548382"><ele>10.0</ele><time>2026-05-06T13:29:43.001Z</time></trkpt><trkpt lat="14.552417407237758" lon="120.99042293305047"><ele>10.0</ele><time>2026-05-06T13:29:44.001Z</time></trkpt><trkpt lat="14.552447681191168" lon="120.99050975964593"><ele>10.0</ele><time>2026-05-06T13:29:45.001Z</time></trkpt><trkpt lat="14.552473769151664" lon="120.9905956264383"><ele>10.0</ele><time>2026-05-06T13:29:46.001Z</time></trkpt><trkpt lat="14.552501326689407" lon="120.99068313603017"><ele>10.0</ele><time>2026-05-06T13:29:47.001Z</time></trkpt><trkpt lat="14.55253170552896" lon="120.9907680017439"><ele>10.0</ele><time>2026-05-06T13:29:48.001Z</time></trkpt><trkpt lat="14.552559358986278" lon="120.99085046891595"><ele>10.0</ele><time>2026-05-06T13:29:49.001Z</time></trkpt><trkpt lat="14.552587789699208" lon="120.99093160320825"><ele>10.0</ele><time>2026-05-06T13:29:50.001Z</time></trkpt><trkpt lat="14.552613639565282" lon="120.99100580868559"><ele>10.0</ele><time>2026-05-06T13:29:51.002Z</time></trkpt><trkpt lat="14.552638359611654" lon="120.99108012533635"><ele>10.0</ele><time>2026-05-06T13:29:52.002Z</time></trkpt><trkpt lat="14.5526668405993" lon="120.99116098834244"><ele>10.0</ele><time>2026-05-06T13:29:53.002Z</time></trkpt><trkpt lat="14.55269016656874" lon="120.99124693888635"><ele>10.0</ele><time>2026-05-06T13:29:54.002Z</time></trkpt><trkpt lat="14.552714876494163" lon="120.99133276147406"><ele>10.0</ele><time>2026-05-06T13:29:55.002Z</time></trkpt><trkpt lat="14.552744180727716" lon="120.99142202508082"><ele>10.0</ele><time>2026-05-06T13:29:56.002Z</time></trkpt><trkpt lat="14.552772269401112" lon="120.99150525602221"><ele>10.0</ele><time>2026-05-06T13:29:57.002Z</time></trkpt><trkpt lat="14.552798896725974" lon="120.99157901246693"><ele>10.0</ele><time>2026-05-06T13:29:58.001Z</time></trkpt><trkpt lat="14.552832787997897" lon="120.99168914595198"><ele>10.0</ele><time>2026-05-06T13:30:00.001Z</time></trkpt><trkpt lat="14.552875733511803" lon="120.99181725221204"><ele>10.0</ele><time>2026-05-06T13:30:02.001Z</time></trkpt><trkpt lat="14.552896636439277" lon="120.99188172837691"><ele>10.0</ele><time>2026-05-06T13:30:03.001Z</time></trkpt><trkpt lat="14.552934504666508" lon="120.99199241837563"><ele>10.0</ele><time>2026-05-06T13:30:05.001Z</time></trkpt><trkpt lat="14.552951599380975" lon="120.99205977183107"><ele>10.0</ele><time>2026-05-06T13:30:07.001Z</time></trkpt><trkpt lat="14.552990860898166" lon="120.99216501946155"><ele>10.0</ele><time>2026-05-06T13:30:10.001Z</time></trkpt><trkpt lat="14.553034911777823" lon="120.99229223409606"><ele>10.0</ele><time>2026-05-06T13:30:12.001Z</time></trkpt><trkpt lat="14.55304806052093" lon="120.99236636295228"><ele>10.0</ele><time>2026-05-06T13:30:13.001Z</time></trkpt><trkpt lat="14.553058672365344" lon="120.99245596197082"><ele>10.0</ele><time>2026-05-06T13:30:14.001Z</time></trkpt><trkpt lat="14.553082817710921" lon="120.99256200195823"><ele>10.0</ele><time>2026-05-06T13:30:15.001Z</time></trkpt><trkpt lat="14.553117222274448" lon="120.99267884657576"><ele>10.0</ele><time>2026-05-06T13:30:16.001Z</time></trkpt><trkpt lat="14.553155643289882" lon="120.99280438462252"><ele>10.0</ele><time>2026-05-06T13:30:17.001Z</time></trkpt><trkpt lat="14.553193400612956" lon="120.992936156451"><ele>10.0</ele><time>2026-05-06T13:30:18.001Z</time></trkpt><trkpt lat="14.55321562507238" lon="120.99308214507315"><ele>10.0</ele><time>2026-05-06T13:30:19.001Z</time></trkpt><trkpt lat="14.55324110399455" lon="120.99323386433394"><ele>10.0</ele><time>2026-05-06T13:30:20.001Z</time></trkpt><trkpt lat="14.553266870477318" lon="120.99338653261545"><ele>10.0</ele><time>2026-05-06T13:30:21.001Z</time></trkpt><trkpt lat="14.553281713177176" lon="120.9935382948592"><ele>10.0</ele><time>2026-05-06T13:30:22.001Z</time></trkpt><trkpt lat="14.553296241121553" lon="120.99369151924056"><ele>10.0</ele><time>2026-05-06T13:30:23.001Z</time></trkpt><trkpt lat="14.553308238111896" lon="120.99383131898617"><ele>10.0</ele><time>2026-05-06T13:30:24.001Z</time></trkpt><trkpt lat="14.553328039370978" lon="120.99395288810102"><ele>10.0</ele><time>2026-05-06T13:30:25.001Z</time></trkpt><trkpt lat="14.553349268667207" lon="120.99405525745495"><ele>10.0</ele><time>2026-05-06T13:30:26.001Z</time></trkpt><trkpt lat="14.553346071994381" lon="120.99412290416194"><ele>10.0</ele><time>2026-05-06T13:30:27.001Z</time></trkpt><trkpt lat="14.553363046242708" lon="120.9941863677743"><ele>10.0</ele><time>2026-05-06T13:30:29.001Z</time></trkpt><trkpt lat="14.553383628674526" lon="120.9943125134697"><ele>10.0</ele><time>2026-05-06T13:30:31.001Z</time></trkpt><trkpt lat="14.5533980655444" lon="120.99440243259043"><ele>10.0</ele><time>2026-05-06T13:30:32.001Z</time></trkpt><trkpt lat="14.553416993387307" lon="120.99449629460827"><ele>9.4</ele><time>2026-05-06T13:30:33.001Z</time></trkpt><trkpt lat="14.553432626416745" lon="120.9946014466429"><ele>8.8</ele><time>2026-05-06T13:30:34.001Z</time></trkpt><trkpt lat="14.553452323804477" lon="120.9947106203475"><ele>8.2</ele><time>2026-05-06T13:30:35.001Z</time></trkpt><trkpt lat="14.553448402702415" lon="120.99482650179361"><ele>7.6</ele><time>2026-05-06T13:30:36.001Z</time></trkpt><trkpt lat="14.55348318756888" lon="120.99493964549987"><ele>7.0</ele><time>2026-05-06T13:30:37.001Z</time></trkpt><trkpt lat="14.553499303029913" lon="120.9950530088148"><ele>8.5</ele><time>2026-05-06T13:30:38.001Z</time></trkpt><trkpt lat="14.553500738531397" lon="120.99516858453399"><ele>10.0</ele><time>2026-05-06T13:30:39.001Z</time></trkpt><trkpt lat="14.553534298333075" lon="120.99527520439855"><ele>11.5</ele><time>2026-05-06T13:30:40.001Z</time></trkpt><trkpt lat="14.553544565757512" lon="120.99539377119918"><ele>13.0</ele><time>2026-05-06T13:30:41.001Z</time></trkpt><trkpt lat="14.5535881465918" lon="120.99551450653837"><ele>13.0</ele><time>2026-05-06T13:30:42.001Z</time></trkpt><trkpt lat="14.55359831579535" lon="120.99563554818212"><ele>13.0</ele><time>2026-05-06T13:30:43.001Z</time></trkpt><trkpt lat="14.553624755310373" lon="120.99574652570595"><ele>13.0</ele><time>2026-05-06T13:30:44.001Z</time></trkpt><trkpt lat="14.553651097861877" lon="120.99585562162983"><ele>13.0</ele><time>2026-05-06T13:30:45.001Z</time></trkpt><trkpt lat="14.553677072425245" lon="120.99596319359239"><ele>13.0</ele><time>2026-05-06T13:30:46.001Z</time></trkpt><trkpt lat="14.55370517015386" lon="120.99607955848131"><ele>12.200000000000001</ele><time>2026-05-06T13:30:47.001Z</time></trkpt><trkpt lat="14.553744292273484" lon="120.99619120589932"><ele>11.4</ele><time>2026-05-06T13:30:48.001Z</time></trkpt><trkpt lat="14.553770321766498" lon="120.99630003594834"><ele>10.600000000000001</ele><time>2026-05-06T13:30:49.001Z</time></trkpt><trkpt lat="14.553791182014237" lon="120.99638320506843"><ele>9.8</ele><time>2026-05-06T13:30:50.001Z</time></trkpt><trkpt lat="14.553802865159513" lon="120.99645085241093"><ele>9.0</ele><time>2026-05-06T13:30:51.001Z</time></trkpt><trkpt lat="14.55383184583642" lon="120.9965943391673"><ele>9.0</ele><time>2026-05-06T13:30:53.001Z</time></trkpt><trkpt lat="14.553855148009907" lon="120.9966614407556"><ele>9.0</ele><time>2026-05-06T13:30:54.001Z</time></trkpt><trkpt lat="14.553884464423602" lon="120.9967552705472"><ele>9.0</ele><time>2026-05-06T13:30:56.001Z</time></trkpt><trkpt lat="14.553904906822591" lon="120.99682218274259"><ele>9.0</ele><time>2026-05-06T13:31:01.001Z</time></trkpt><trkpt lat="14.553913319753416" lon="120.99692043121424"><ele>9.0</ele><time>2026-05-06T13:31:12.001Z</time></trkpt><trkpt lat="14.553933101673971" lon="120.99700099376408"><ele>9.0</ele><time>2026-05-06T13:31:14.001Z</time></trkpt><trkpt lat="14.55395116495256" lon="120.99707455695055"><ele>8.5</ele><time>2026-05-06T13:31:16.001Z</time></trkpt><trkpt lat="14.554071557613119" lon="120.99712562000376"><ele>8.0</ele><time>2026-05-06T13:31:19.001Z</time></trkpt><trkpt lat="14.554129606458954" lon="120.99715257995692"><ele>7.5</ele><time>2026-05-06T13:31:21.001Z</time></trkpt><trkpt lat="14.554220569145592" lon="120.99715102558909"><ele>7.0</ele><time>2026-05-06T13:31:25.001Z</time></trkpt><trkpt lat="14.55427900372837" lon="120.9971004890222"><ele>6.5</ele><time>2026-05-06T13:31:31.001Z</time></trkpt><trkpt lat="14.55434327823406" lon="120.99710067667692"><ele>6.0</ele><time>2026-05-06T13:31:36.001Z</time></trkpt><trkpt lat="14.554413028818873" lon="120.99708295062388"><ele>6.0</ele><time>2026-05-06T13:31:42.001Z</time></trkpt><trkpt lat="14.554507877286522" lon="120.99706099631284"><ele>6.0</ele><time>2026-05-06T13:31:49.001Z</time></trkpt><trkpt lat="14.554578674738766" lon="120.9970445868315"><ele>6.0</ele><time>2026-05-06T13:31:52.001Z</time></trkpt><trkpt lat="14.554667531929697" lon="120.99702399144806"><ele>6.0</ele><time>2026-05-06T13:31:54.001Z</time></trkpt><trkpt lat="14.554733945845209" lon="120.99703524904861"><ele>6.0</ele><time>2026-05-06T13:31:55.001Z</time></trkpt><trkpt lat="14.554808741415695" lon="120.9970315185272"><ele>6.0</ele><time>2026-05-06T13:31:56.001Z</time></trkpt><trkpt lat="14.554893793476921" lon="120.99701673847659"><ele>6.5</ele><time>2026-05-06T13:31:57.001Z</time></trkpt><trkpt lat="14.554982980954973" lon="120.99699621304465"><ele>7.0</ele><time>2026-05-06T13:31:58.001Z</time></trkpt><trkpt lat="14.555055132647757" lon="120.99697630340756"><ele>7.5</ele><time>2026-05-06T13:31:59.001Z</time></trkpt><trkpt lat="14.55512609919031" lon="120.99695675839067"><ele>8.0</ele><time>2026-05-06T13:32:00.001Z</time></trkpt><trkpt lat="14.555210404566127" lon="120.99694062361186"><ele>8.5</ele><time>2026-05-06T13:32:01.001Z</time></trkpt><trkpt lat="14.555296320779116" lon="120.99691757353604"><ele>9.0</ele><time>2026-05-06T13:32:02.001Z</time></trkpt><trkpt lat="14.555380646779225" lon="120.99690135014697"><ele>9.0</ele><time>2026-05-06T13:32:03.001Z</time></trkpt><trkpt lat="14.555471373264547" lon="120.99688457546686"><ele>9.0</ele><time>2026-05-06T13:32:04.001Z</time></trkpt><trkpt lat="14.555556224792094" lon="120.99688025288299"><ele>9.0</ele><time>2026-05-06T13:32:05.001Z</time></trkpt><trkpt lat="14.555632471986392" lon="120.99685678603423"><ele>9.0</ele><time>2026-05-06T13:32:06.001Z</time></trkpt><trkpt lat="14.55569951077174" lon="120.99683951416245"><ele>9.0</ele><time>2026-05-06T13:32:07.001Z</time></trkpt><trkpt lat="14.555815497797445" lon="120.99680870238653"><ele>9.0</ele><time>2026-05-06T13:32:09.001Z</time></trkpt><trkpt lat="14.555947026253952" lon="120.99678291929646"><ele>9.0</ele><time>2026-05-06T13:32:11.001Z</time></trkpt><trkpt lat="14.55603146912435" lon="120.99675995055931"><ele>9.0</ele><time>2026-05-06T13:32:12.001Z</time></trkpt><trkpt lat="14.55611383116689" lon="120.99673998586276"><ele>9.0</ele><time>2026-05-06T13:32:13.001Z</time></trkpt><trkpt lat="14.556185285824665" lon="120.99671884559558"><ele>9.0</ele><time>2026-05-06T13:32:14.001Z</time></trkpt><trkpt lat="14.556253622623556" lon="120.9966856670198"><ele>9.0</ele><time>2026-05-06T13:32:15.001Z</time></trkpt><trkpt lat="14.556323702490127" lon="120.99666260903456"><ele>9.0</ele><time>2026-05-06T13:32:16.001Z</time></trkpt><trkpt lat="14.556391517520176" lon="120.99664781431322"><ele>8.857142857142858</ele><time>2026-05-06T13:32:17.001Z</time></trkpt><trkpt lat="14.556465796549878" lon="120.99663346479674"><ele>8.714285714285715</ele><time>2026-05-06T13:32:18.001Z</time></trkpt><trkpt lat="14.556535124345762" lon="120.99661210067276"><ele>8.571428571428571</ele><time>2026-05-06T13:32:19.001Z</time></trkpt><trkpt lat="14.556602008574878" lon="120.99659219852242"><ele>8.428571428571429</ele><time>2026-05-06T13:32:20.001Z</time></trkpt><trkpt lat="14.556675615103897" lon="120.99657399862312"><ele>8.285714285714285</ele><time>2026-05-06T13:32:21.001Z</time></trkpt><trkpt lat="14.556743838347579" lon="120.99658473511528"><ele>8.142857142857142</ele><time>2026-05-06T13:32:22.001Z</time></trkpt><trkpt lat="14.556817439686569" lon="120.99657566415065"><ele>8.0</ele><time>2026-05-06T13:32:23.001Z</time></trkpt><trkpt lat="14.556897911040444" lon="120.99653955587797"><ele>8.0</ele><time>2026-05-06T13:32:24.001Z</time></trkpt><trkpt lat="14.556991071749193" lon="120.99651992863465"><ele>8.0</ele><time>2026-05-06T13:32:25.001Z</time></trkpt><trkpt lat="14.557086014627195" lon="120.99651164505583"><ele>8.0</ele><time>2026-05-06T13:32:26.001Z</time></trkpt><trkpt lat="14.55716271706534" lon="120.9964846112811"><ele>8.0</ele><time>2026-05-06T13:32:27.001Z</time></trkpt><trkpt lat="14.55725791026766" lon="120.9964600026564"><ele>8.0</ele><time>2026-05-06T13:32:28.001Z</time></trkpt><trkpt lat="14.55735803936305" lon="120.99643699976933"><ele>8.600000000000001</ele><time>2026-05-06T13:32:29.001Z</time></trkpt><trkpt lat="14.557454048589062" lon="120.99640644677788"><ele>9.200000000000001</ele><time>2026-05-06T13:32:30.001Z</time></trkpt><trkpt lat="14.557540704322495" lon="120.99639212687272"><ele>9.8</ele><time>2026-05-06T13:32:31.001Z</time></trkpt><trkpt lat="14.557631284665236" lon="120.99636629469728"><ele>10.4</ele><time>2026-05-06T13:32:32.001Z</time></trkpt><trkpt lat="14.557718803044265" lon="120.99633720230763"><ele>11.0</ele><time>2026-05-06T13:32:33.001Z</time></trkpt><trkpt lat="14.557796266543736" lon="120.99631315779416"><ele>10.666666666666666</ele><time>2026-05-06T13:32:34.001Z</time></trkpt><trkpt lat="14.557874080210189" lon="120.9963035804928"><ele>10.333333333333332</ele><time>2026-05-06T13:32:35.001Z</time></trkpt><trkpt lat="14.55795205408726" lon="120.99628517672961"><ele>10.0</ele><time>2026-05-06T13:32:36.001Z</time></trkpt><trkpt lat="14.5580234821216" lon="120.99625322890861"><ele>9.666666666666666</ele><time>2026-05-06T13:32:37.001Z</time></trkpt><trkpt lat="14.55809327185836" lon="120.99625193810002"><ele>9.333333333333334</ele><time>2026-05-06T13:32:38.001Z</time></trkpt><trkpt lat="14.558191174116052" lon="120.99622889478977"><ele>9.0</ele><time>2026-05-06T13:32:40.001Z</time></trkpt><trkpt lat="14.558161682088507" lon="120.99592227064494"><ele>9.0</ele><time>2026-05-06T13:32:58.001Z</time></trkpt><trkpt lat="14.558123156336443" lon="120.99585220349091"><ele>9.0</ele><time>2026-05-06T13:33:00.001Z</time></trkpt><trkpt lat="14.558077177770008" lon="120.99576392670653"><ele>9.0</ele><time>2026-05-06T13:33:02.001Z</time></trkpt><trkpt lat="14.558025132073194" lon="120.99568121216954"><ele>9.0</ele><time>2026-05-06T13:33:04.001Z</time></trkpt><trkpt lat="14.557987648954178" lon="120.99558826139327"><ele>9.0</ele><time>2026-05-06T13:33:06.001Z</time></trkpt><trkpt lat="14.557938768242169" lon="120.9954737712982"><ele>9.0</ele><time>2026-05-06T13:33:08.001Z</time></trkpt><trkpt lat="14.557891116706767" lon="120.99536752581834"><ele>9.0</ele><time>2026-05-06T13:33:10.084Z</time></trkpt><trkpt lat="14.557846215627809" lon="120.99526715405962"><ele>9.0</ele><time>2026-05-06T13:33:12.057Z</time></trkpt><trkpt lat="14.557800441654148" lon="120.9951650314648"><ele>9.0</ele><time>2026-05-06T13:33:14.044Z</time></trkpt><trkpt lat="14.557754743258764" lon="120.99506278543271"><ele>9.0</ele><time>2026-05-06T13:33:16.039Z</time></trkpt><trkpt lat="14.557709250992337" lon="120.99496101645194"><ele>9.0</ele><time>2026-05-06T13:33:18.029Z</time></trkpt><trkpt lat="14.55768134111755" lon="120.99502320575876"><ele>9.0</ele><time>2026-05-06T13:33:19.029Z</time></trkpt><trkpt lat="14.557642787850906" lon="120.99480814791326"><ele>9.0</ele><time>2026-05-06T13:33:21.027Z</time></trkpt><trkpt lat="14.558202919638513" lon="120.99530406127569"><ele>9.0</ele><time>2026-05-06T13:34:52.001Z</time></trkpt><trkpt lat="14.558268096739411" lon="120.99527348255641"><ele>9.0</ele><time>2026-05-06T13:36:25Z</time></trkpt><trkpt lat="14.558190915900836" lon="120.99526138109292"><ele>9.0</ele><time>2026-05-06T13:37:51Z</time></trkpt><trkpt lat="14.558254429937334" lon="120.99528720613439"><ele>9.0</ele><time>2026-05-06T13:38:41Z</time></trkpt></trkseg></trk></gpx>